<?xml version='1.0' encoding='UTF-8'?><gpx version="1.1" creator="JPX - https://github.com/jenetics/jpx" xmlns="http://www.topografix.com/GPX/1/1"><trk><trkseg><trkpt lat="45.6153987" lon="11.3781516"><ele>216.0</ele><time>2026-05-03T08:40:46.084Z</time></trkpt><trkpt lat="45.6153252" lon="11.3782071"><ele>216.0</ele><time>2026-05-03T08:40:49.084Z</time></trkpt><trkpt lat="45.6152505" lon="11.3782748"><ele>216.0</ele><time>2026-05-03T08:40:52.084Z</time></trkpt><trkpt lat="45.6151649" lon="11.3782518"><ele>216.0</ele><time>2026-05-03T08:40:55.084Z</time></trkpt><trkpt lat="45.6150924" lon="11.3782361"><ele>216.0</ele><time>2026-05-03T08:40:57.084Z</time></trkpt><trkpt lat="45.6149813" lon="11.3782889"><ele>216.0</ele><time>2026-05-03T08:40:59.085Z</time></trkpt><trkpt lat="45.6149074" lon="11.3783357"><ele>213.83333333333334</ele><time>2026-05-03T08:41:00.084Z</time></trkpt><trkpt lat="45.6148281" lon="11.3783884"><ele>211.66666666666669</ele><time>2026-05-03T08:41:01.084Z</time></trkpt><trkpt lat="45.6147518" lon="11.3784431"><ele>209.5</ele><time>2026-05-03T08:41:02.085Z</time></trkpt><trkpt lat="45.6146733" lon="11.3784991"><ele>207.33333333333334</ele><time>2026-05-03T08:41:03.084Z</time></trkpt><trkpt lat="45.6145956" lon="11.3785532"><ele>205.16666666666669</ele><time>2026-05-03T08:41:04.085Z</time></trkpt><trkpt lat="45.614519" lon="11.3786044"><ele>203.0</ele><time>2026-05-03T08:41:05.085Z</time></trkpt><trkpt lat="45.6144396" lon="11.378658"><ele>199.8</ele><time>2026-05-03T08:41:06.084Z</time></trkpt><trkpt lat="45.6143584" lon="11.3787108"><ele>196.60000000000002</ele><time>2026-05-03T08:41:07.084Z</time></trkpt><trkpt lat="45.6142774" lon="11.3787666"><ele>193.39999999999998</ele><time>2026-05-03T08:41:08.083Z</time></trkpt><trkpt lat="45.6141937" lon="11.3788258"><ele>190.2</ele><time>2026-05-03T08:41:09.084Z</time></trkpt><trkpt lat="45.6141095" lon="11.3788846"><ele>187.0</ele><time>2026-05-03T08:41:10.085Z</time></trkpt><trkpt lat="45.6140244" lon="11.3789554"><ele>186.2</ele><time>2026-05-03T08:41:11.084Z</time></trkpt><trkpt lat="45.6139452" lon="11.3790382"><ele>185.39999999999998</ele><time>2026-05-03T08:41:12.084Z</time></trkpt><trkpt lat="45.6138725" lon="11.3791384"><ele>184.60000000000002</ele><time>2026-05-03T08:41:13.084Z</time></trkpt><trkpt lat="45.6138027" lon="11.3792597"><ele>183.8</ele><time>2026-05-03T08:41:14.084Z</time></trkpt><trkpt lat="45.6137431" lon="11.3794018"><ele>183.0</ele><time>2026-05-03T08:41:15.084Z</time></trkpt><trkpt lat="45.6136978" lon="11.3795461"><ele>181.4</ele><time>2026-05-03T08:41:16.084Z</time></trkpt><trkpt lat="45.6136572" lon="11.3796885"><ele>179.8</ele><time>2026-05-03T08:41:17.084Z</time></trkpt><trkpt lat="45.6136182" lon="11.3798257"><ele>178.2</ele><time>2026-05-03T08:41:18.084Z</time></trkpt><trkpt lat="45.6135799" lon="11.3799561"><ele>176.6</ele><time>2026-05-03T08:41:19.084Z</time></trkpt><trkpt lat="45.613547" lon="11.3800645"><ele>175.0</ele><time>2026-05-03T08:41:20.084Z</time></trkpt><trkpt lat="45.6135202" lon="11.3801489"><ele>174.8</ele><time>2026-05-03T08:41:21.084Z</time></trkpt><trkpt lat="45.6134844" lon="11.3802437"><ele>174.6</ele><time>2026-05-03T08:41:23.084Z</time></trkpt><trkpt lat="45.6134308" lon="11.380294"><ele>174.39999999999998</ele><time>2026-05-03T08:41:30.084Z</time></trkpt><trkpt lat="45.6133023" lon="11.3802769"><ele>174.2</ele><time>2026-05-03T08:41:32.083Z</time></trkpt><trkpt lat="45.6132027" lon="11.3802587"><ele>174.0</ele><time>2026-05-03T08:41:33.084Z</time></trkpt><trkpt lat="45.613087" lon="11.3802439"><ele>174.0</ele><time>2026-05-03T08:41:34.085Z</time></trkpt><trkpt lat="45.6129638" lon="11.380225"><ele>174.0</ele><time>2026-05-03T08:41:35.085Z</time></trkpt><trkpt lat="45.612827" lon="11.3802007"><ele>174.0</ele><time>2026-05-03T08:41:36.084Z</time></trkpt><trkpt lat="45.6126811" lon="11.3801701"><ele>174.0</ele><time>2026-05-03T08:41:37.084Z</time></trkpt><trkpt lat="45.612524" lon="11.3801353"><ele>174.33333333333334</ele><time>2026-05-03T08:41:38.085Z</time></trkpt><trkpt lat="45.612359" lon="11.380096"><ele>174.66666666666669</ele><time>2026-05-03T08:41:39.085Z</time></trkpt><trkpt lat="45.6121856" lon="11.3800563"><ele>175.0</ele><time>2026-05-03T08:41:40.084Z</time></trkpt><trkpt lat="45.6120097" lon="11.3800185"><ele>173.33333333333334</ele><time>2026-05-03T08:41:41.084Z</time></trkpt><trkpt lat="45.6118324" lon="11.3799738"><ele>171.66666666666666</ele><time>2026-05-03T08:41:42.085Z</time></trkpt><trkpt lat="45.6116539" lon="11.3799164"><ele>170.0</ele><time>2026-05-03T08:41:43.084Z</time></trkpt><trkpt lat="45.6114714" lon="11.3798582"><ele>170.0</ele><time>2026-05-03T08:41:44.084Z</time></trkpt><trkpt lat="45.6112878" lon="11.3797948"><ele>170.0</ele><time>2026-05-03T08:41:45.084Z</time></trkpt><trkpt lat="45.6110998" lon="11.3797319"><ele>170.0</ele><time>2026-05-03T08:41:46.084Z</time></trkpt><trkpt lat="45.61091" lon="11.3796614"><ele>170.33333333333331</ele><time>2026-05-03T08:41:47.084Z</time></trkpt><trkpt lat="45.6107184" lon="11.3795911"><ele>170.66666666666666</ele><time>2026-05-03T08:41:48.084Z</time></trkpt><trkpt lat="45.610523" lon="11.3795229"><ele>171.0</ele><time>2026-05-03T08:41:49.084Z</time></trkpt><trkpt lat="45.6103254" lon="11.3794552"><ele>169.33333333333334</ele><time>2026-05-03T08:41:50.084Z</time></trkpt><trkpt lat="45.6101255" lon="11.3793957"><ele>167.66666666666669</ele><time>2026-05-03T08:41:51.084Z</time></trkpt><trkpt lat="45.6099206" lon="11.379346"><ele>166.0</ele><time>2026-05-03T08:41:52.084Z</time></trkpt><trkpt lat="45.6097139" lon="11.379308"><ele>166.0</ele><time>2026-05-03T08:41:53.085Z</time></trkpt><trkpt lat="45.6095054" lon="11.3792803"><ele>166.0</ele><time>2026-05-03T08:41:54.084Z</time></trkpt><trkpt lat="45.6092964" lon="11.3792599"><ele>166.0</ele><time>2026-05-03T08:41:55.084Z</time></trkpt><trkpt lat="45.6090854" lon="11.379241"><ele>165.0</ele><time>2026-05-03T08:41:56.085Z</time></trkpt><trkpt lat="45.6088763" lon="11.3792221"><ele>164.0</ele><time>2026-05-03T08:41:57.085Z</time></trkpt><trkpt lat="45.608666" lon="11.3792121"><ele>163.0</ele><time>2026-05-03T08:41:58.084Z</time></trkpt><trkpt lat="45.6084543" lon="11.3792123"><ele>162.33333333333334</ele><time>2026-05-03T08:41:59.084Z</time></trkpt><trkpt lat="45.608243" lon="11.3792332"><ele>161.66666666666666</ele><time>2026-05-03T08:42:00.084Z</time></trkpt><trkpt lat="45.6080344" lon="11.3792735"><ele>161.0</ele><time>2026-05-03T08:42:01.084Z</time></trkpt><trkpt lat="45.6078293" lon="11.3793369"><ele>161.66666666666666</ele><time>2026-05-03T08:42:02.084Z</time></trkpt><trkpt lat="45.6076324" lon="11.3794199"><ele>162.33333333333334</ele><time>2026-05-03T08:42:03.084Z</time></trkpt><trkpt lat="45.6074475" lon="11.3795166"><ele>163.0</ele><time>2026-05-03T08:42:04.084Z</time></trkpt><trkpt lat="45.607272" lon="11.3796212"><ele>162.0</ele><time>2026-05-03T08:42:05.084Z</time></trkpt><trkpt lat="45.6071026" lon="11.3797355"><ele>161.0</ele><time>2026-05-03T08:42:06.084Z</time></trkpt><trkpt lat="45.6069416" lon="11.3798582"><ele>160.0</ele><time>2026-05-03T08:42:07.085Z</time></trkpt><trkpt lat="45.6067832" lon="11.3799833"><ele>160.0</ele><time>2026-05-03T08:42:08.084Z</time></trkpt><trkpt lat="45.6066237" lon="11.3801103"><ele>160.0</ele><time>2026-05-03T08:42:09.084Z</time></trkpt><trkpt lat="45.6064624" lon="11.3802383"><ele>160.0</ele><time>2026-05-03T08:42:10.084Z</time></trkpt><trkpt lat="45.6062997" lon="11.3803674"><ele>158.66666666666669</ele><time>2026-05-03T08:42:11.085Z</time></trkpt><trkpt lat="45.6061353" lon="11.3804966"><ele>157.33333333333334</ele><time>2026-05-03T08:42:12.084Z</time></trkpt><trkpt lat="45.605968" lon="11.3806263"><ele>156.0</ele><time>2026-05-03T08:42:13.084Z</time></trkpt><trkpt lat="45.6058005" lon="11.3807594"><ele>155.66666666666666</ele><time>2026-05-03T08:42:14.085Z</time></trkpt><trkpt lat="45.6056335" lon="11.3808952"><ele>155.33333333333331</ele><time>2026-05-03T08:42:15.085Z</time></trkpt><trkpt lat="45.6054704" lon="11.3810268"><ele>155.0</ele><time>2026-05-03T08:42:16.085Z</time></trkpt><trkpt lat="45.6053074" lon="11.3811571"><ele>154.66666666666666</ele><time>2026-05-03T08:42:17.085Z</time></trkpt><trkpt lat="45.605145" lon="11.3812811"><ele>154.33333333333334</ele><time>2026-05-03T08:42:18.084Z</time></trkpt><trkpt lat="45.6049817" lon="11.3814001"><ele>154.0</ele><time>2026-05-03T08:42:19.084Z</time></trkpt><trkpt lat="45.6048153" lon="11.3815066"><ele>154.0</ele><time>2026-05-03T08:42:20.084Z</time></trkpt><trkpt lat="45.6046451" lon="11.3816033"><ele>154.0</ele><time>2026-05-03T08:42:21.084Z</time></trkpt><trkpt lat="45.6044717" lon="11.3816925"><ele>154.0</ele><time>2026-05-03T08:42:22.085Z</time></trkpt><trkpt lat="45.6042973" lon="11.3817731"><ele>152.66666666666669</ele><time>2026-05-03T08:42:23.084Z</time></trkpt><trkpt lat="45.60412" lon="11.3818404"><ele>151.33333333333334</ele><time>2026-05-03T08:42:24.084Z</time></trkpt><trkpt lat="45.6039415" lon="11.3818966"><ele>150.0</ele><time>2026-05-03T08:42:25.084Z</time></trkpt><trkpt lat="45.6037639" lon="11.3819423"><ele>149.66666666666666</ele><time>2026-05-03T08:42:26.084Z</time></trkpt><trkpt lat="45.6035863" lon="11.3819745"><ele>149.33333333333331</ele><time>2026-05-03T08:42:27.085Z</time></trkpt><trkpt lat="45.6034099" lon="11.3820018"><ele>149.0</ele><time>2026-05-03T08:42:28.084Z</time></trkpt><trkpt lat="45.6032373" lon="11.382015"><ele>149.0</ele><time>2026-05-03T08:42:29.084Z</time></trkpt><trkpt lat="45.6030669" lon="11.3820161"><ele>149.0</ele><time>2026-05-03T08:42:30.084Z</time></trkpt><trkpt lat="45.602897" lon="11.3820177"><ele>149.0</ele><time>2026-05-03T08:42:31.084Z</time></trkpt><trkpt lat="45.6027239" lon="11.3820182"><ele>149.66666666666666</ele><time>2026-05-03T08:42:32.084Z</time></trkpt><trkpt lat="45.6025488" lon="11.3820219"><ele>150.33333333333334</ele><time>2026-05-03T08:42:33.084Z</time></trkpt><trkpt lat="45.6023706" lon="11.3820211"><ele>151.0</ele><time>2026-05-03T08:42:34.084Z</time></trkpt><trkpt lat="45.6021915" lon="11.3820217"><ele>151.0</ele><time>2026-05-03T08:42:35.084Z</time></trkpt><trkpt lat="45.6020105" lon="11.3820226"><ele>151.0</ele><time>2026-05-03T08:42:36.084Z</time></trkpt><trkpt lat="45.6018276" lon="11.3820232"><ele>151.0</ele><time>2026-05-03T08:42:37.085Z</time></trkpt><trkpt lat="45.6016472" lon="11.3820243"><ele>151.0</ele><time>2026-05-03T08:42:38.084Z</time></trkpt><trkpt lat="45.6014676" lon="11.3820201"><ele>151.0</ele><time>2026-05-03T08:42:39.084Z</time></trkpt><trkpt lat="45.6012886" lon="11.3820141"><ele>151.0</ele><time>2026-05-03T08:42:40.085Z</time></trkpt><trkpt lat="45.601111" lon="11.3820096"><ele>151.66666666666669</ele><time>2026-05-03T08:42:41.084Z</time></trkpt><trkpt lat="45.6009334" lon="11.3819947"><ele>152.33333333333334</ele><time>2026-05-03T08:42:42.084Z</time></trkpt><trkpt lat="45.6007574" lon="11.3819665"><ele>153.0</ele><time>2026-05-03T08:42:43.084Z</time></trkpt><trkpt lat="45.6005816" lon="11.3819241"><ele>153.0</ele><time>2026-05-03T08:42:44.085Z</time></trkpt><trkpt lat="45.6004089" lon="11.3818707"><ele>153.0</ele><time>2026-05-03T08:42:45.084Z</time></trkpt><trkpt lat="45.6002412" lon="11.3818047"><ele>153.0</ele><time>2026-05-03T08:42:46.085Z</time></trkpt><trkpt lat="45.6000812" lon="11.3817265"><ele>153.33333333333334</ele><time>2026-05-03T08:42:47.084Z</time></trkpt><trkpt lat="45.5999304" lon="11.3816454"><ele>153.66666666666669</ele><time>2026-05-03T08:42:48.084Z</time></trkpt><trkpt lat="45.5997874" lon="11.3815602"><ele>154.0</ele><time>2026-05-03T08:42:49.084Z</time></trkpt><trkpt lat="45.5996506" lon="11.3814647"><ele>154.0</ele><time>2026-05-03T08:42:50.084Z</time></trkpt><trkpt lat="45.5995157" lon="11.3813634"><ele>154.0</ele><time>2026-05-03T08:42:51.085Z</time></trkpt><trkpt lat="45.5993851" lon="11.3812565"><ele>154.0</ele><time>2026-05-03T08:42:52.084Z</time></trkpt><trkpt lat="45.5992586" lon="11.3811449"><ele>154.75</ele><time>2026-05-03T08:42:53.083Z</time></trkpt><trkpt lat="45.5991382" lon="11.3810264"><ele>155.5</ele><time>2026-05-03T08:42:54.084Z</time></trkpt><trkpt lat="45.5990303" lon="11.3809103"><ele>156.25</ele><time>2026-05-03T08:42:55.084Z</time></trkpt><trkpt lat="45.5989341" lon="11.3807953"><ele>157.0</ele><time>2026-05-03T08:42:56.084Z</time></trkpt><trkpt lat="45.59885" lon="11.3806942"><ele>157.0</ele><time>2026-05-03T08:42:57.084Z</time></trkpt><trkpt lat="45.5987751" lon="11.3806315"><ele>157.0</ele><time>2026-05-03T08:42:58.084Z</time></trkpt><trkpt lat="45.5987089" lon="11.3806342"><ele>157.0</ele><time>2026-05-03T08:42:59.084Z</time></trkpt><trkpt lat="45.5986413" lon="11.3806807"><ele>157.0</ele><time>2026-05-03T08:43:00.084Z</time></trkpt><trkpt lat="45.5985916" lon="11.3807772"><ele>157.0</ele><time>2026-05-03T08:43:01.085Z</time></trkpt><trkpt lat="45.59857" lon="11.380911"><ele>157.0</ele><time>2026-05-03T08:43:02.084Z</time></trkpt><trkpt lat="45.5985728" lon="11.3810757"><ele>157.0</ele><time>2026-05-03T08:43:03.084Z</time></trkpt><trkpt lat="45.5985864" lon="11.3812603"><ele>157.0</ele><time>2026-05-03T08:43:04.084Z</time></trkpt><trkpt lat="45.5986016" lon="11.3814582"><ele>157.0</ele><time>2026-05-03T08:43:05.084Z</time></trkpt><trkpt lat="45.5986161" lon="11.3816659"><ele>157.0</ele><time>2026-05-03T08:43:06.084Z</time></trkpt><trkpt lat="45.5986256" lon="11.3818815"><ele>156.33333333333334</ele><time>2026-05-03T08:43:07.084Z</time></trkpt><trkpt lat="45.598616" lon="11.3821029"><ele>155.66666666666666</ele><time>2026-05-03T08:43:08.084Z</time></trkpt><trkpt lat="45.5985757" lon="11.3823245"><ele>155.0</ele><time>2026-05-03T08:43:09.084Z</time></trkpt><trkpt lat="45.5985135" lon="11.3825422"><ele>154.33333333333331</ele><time>2026-05-03T08:43:10.085Z</time></trkpt><trkpt lat="45.5984403" lon="11.3827572"><ele>153.66666666666666</ele><time>2026-05-03T08:43:11.085Z</time></trkpt><trkpt lat="45.598365" lon="11.3829662"><ele>153.0</ele><time>2026-05-03T08:43:12.085Z</time></trkpt><trkpt lat="45.5982884" lon="11.3831665"><ele>153.0</ele><time>2026-05-03T08:43:13.084Z</time></trkpt><trkpt lat="45.5981961" lon="11.3833494"><ele>153.0</ele><time>2026-05-03T08:43:14.084Z</time></trkpt><trkpt lat="45.5980873" lon="11.3835052"><ele>153.0</ele><time>2026-05-03T08:43:15.084Z</time></trkpt><trkpt lat="45.5979654" lon="11.3836412"><ele>153.0</ele><time>2026-05-03T08:43:16.084Z</time></trkpt><trkpt lat="45.5978245" lon="11.3837385"><ele>153.0</ele><time>2026-05-03T08:43:17.084Z</time></trkpt><trkpt lat="45.5976763" lon="11.3838024"><ele>153.0</ele><time>2026-05-03T08:43:18.085Z</time></trkpt><trkpt lat="45.5975265" lon="11.3838348"><ele>153.0</ele><time>2026-05-03T08:43:19.084Z</time></trkpt><trkpt lat="45.5973854" lon="11.3838386"><ele>153.0</ele><time>2026-05-03T08:43:20.084Z</time></trkpt><trkpt lat="45.5972486" lon="11.3838326"><ele>153.0</ele><time>2026-05-03T08:43:21.084Z</time></trkpt><trkpt lat="45.5971114" lon="11.3838288"><ele>153.0</ele><time>2026-05-03T08:43:22.084Z</time></trkpt><trkpt lat="45.5969758" lon="11.3838244"><ele>152.75</ele><time>2026-05-03T08:43:23.084Z</time></trkpt><trkpt lat="45.596846" lon="11.3838202"><ele>152.5</ele><time>2026-05-03T08:43:24.084Z</time></trkpt><trkpt lat="45.596717" lon="11.3838179"><ele>152.25</ele><time>2026-05-03T08:43:25.085Z</time></trkpt><trkpt lat="45.5965942" lon="11.3838156"><ele>152.0</ele><time>2026-05-03T08:43:26.084Z</time></trkpt><trkpt lat="45.5964832" lon="11.3838144"><ele>152.0</ele><time>2026-05-03T08:43:27.084Z</time></trkpt><trkpt lat="45.5963822" lon="11.3838092"><ele>152.0</ele><time>2026-05-03T08:43:28.084Z</time></trkpt><trkpt lat="45.5962882" lon="11.3837958"><ele>152.0</ele><time>2026-05-03T08:43:29.084Z</time></trkpt><trkpt lat="45.5962088" lon="11.3837815"><ele>152.0</ele><time>2026-05-03T08:43:30.084Z</time></trkpt><trkpt lat="45.5961388" lon="11.3837701"><ele>152.0</ele><time>2026-05-03T08:43:31.084Z</time></trkpt><trkpt lat="45.5960637" lon="11.3837571"><ele>152.0</ele><time>2026-05-03T08:43:32.084Z</time></trkpt><trkpt lat="45.595979" lon="11.3837549"><ele>152.0</ele><time>2026-05-03T08:43:33.084Z</time></trkpt><trkpt lat="45.5958822" lon="11.3837588"><ele>152.0</ele><time>2026-05-03T08:43:34.084Z</time></trkpt><trkpt lat="45.5957715" lon="11.3837592"><ele>152.0</ele><time>2026-05-03T08:43:35.085Z</time></trkpt><trkpt lat="45.5956532" lon="11.3837552"><ele>152.0</ele><time>2026-05-03T08:43:36.084Z</time></trkpt><trkpt lat="45.5955256" lon="11.3837483"><ele>152.0</ele><time>2026-05-03T08:43:37.084Z</time></trkpt><trkpt lat="45.5953873" lon="11.3837381"><ele>152.0</ele><time>2026-05-03T08:43:38.084Z</time></trkpt><trkpt lat="45.5952414" lon="11.3837294"><ele>152.0</ele><time>2026-05-03T08:43:39.085Z</time></trkpt><trkpt lat="45.5950929" lon="11.3837135"><ele>152.0</ele><time>2026-05-03T08:43:40.084Z</time></trkpt><trkpt lat="45.5949357" lon="11.3836951"><ele>152.0</ele><time>2026-05-03T08:43:41.085Z</time></trkpt><trkpt lat="45.5947728" lon="11.3836747"><ele>152.0</ele><time>2026-05-03T08:43:42.084Z</time></trkpt><trkpt lat="45.5946052" lon="11.3836529"><ele>152.0</ele><time>2026-05-03T08:43:43.084Z</time></trkpt><trkpt lat="45.5944373" lon="11.3836325"><ele>151.33333333333331</ele><time>2026-05-03T08:43:44.084Z</time></trkpt><trkpt lat="45.5942674" lon="11.3836113"><ele>150.66666666666666</ele><time>2026-05-03T08:43:45.084Z</time></trkpt><trkpt lat="45.5941003" lon="11.3835916"><ele>150.0</ele><time>2026-05-03T08:43:46.084Z</time></trkpt><trkpt lat="45.5939307" lon="11.3835713"><ele>150.0</ele><time>2026-05-03T08:43:47.085Z</time></trkpt><trkpt lat="45.5937605" lon="11.3835501"><ele>150.0</ele><time>2026-05-03T08:43:48.084Z</time></trkpt><trkpt lat="45.593589" lon="11.3835291"><ele>150.0</ele><time>2026-05-03T08:43:49.084Z</time></trkpt><trkpt lat="45.5934154" lon="11.383505"><ele>150.33333333333334</ele><time>2026-05-03T08:43:50.084Z</time></trkpt><trkpt lat="45.5932412" lon="11.3834802"><ele>150.66666666666669</ele><time>2026-05-03T08:43:51.084Z</time></trkpt><trkpt lat="45.5930673" lon="11.3834544"><ele>151.0</ele><time>2026-05-03T08:43:52.084Z</time></trkpt><trkpt lat="45.5928904" lon="11.383432"><ele>150.66666666666669</ele><time>2026-05-03T08:43:53.085Z</time></trkpt><trkpt lat="45.5927129" lon="11.3834044"><ele>150.33333333333334</ele><time>2026-05-03T08:43:54.084Z</time></trkpt><trkpt lat="45.5925323" lon="11.383377"><ele>150.0</ele><time>2026-05-03T08:43:55.084Z</time></trkpt><trkpt lat="45.5923471" lon="11.383347"><ele>150.0</ele><time>2026-05-03T08:43:56.084Z</time></trkpt><trkpt lat="45.5921614" lon="11.3833229"><ele>150.0</ele><time>2026-05-03T08:43:57.084Z</time></trkpt><trkpt lat="45.5919739" lon="11.3833058"><ele>150.0</ele><time>2026-05-03T08:43:58.085Z</time></trkpt><trkpt lat="45.5917835" lon="11.3832921"><ele>150.0</ele><time>2026-05-03T08:43:59.084Z</time></trkpt><trkpt lat="45.5915937" lon="11.3832887"><ele>150.0</ele><time>2026-05-03T08:44:00.084Z</time></trkpt><trkpt lat="45.5914038" lon="11.3832891"><ele>150.0</ele><time>2026-05-03T08:44:01.084Z</time></trkpt><trkpt lat="45.5912203" lon="11.383284"><ele>150.0</ele><time>2026-05-03T08:44:02.084Z</time></trkpt><trkpt lat="45.5910425" lon="11.3832834"><ele>150.0</ele><time>2026-05-03T08:44:03.085Z</time></trkpt><trkpt lat="45.5908718" lon="11.3832821"><ele>150.0</ele><time>2026-05-03T08:44:04.084Z</time></trkpt><trkpt lat="45.5907119" lon="11.3832808"><ele>150.0</ele><time>2026-05-03T08:44:05.085Z</time></trkpt><trkpt lat="45.5905598" lon="11.3832833"><ele>150.0</ele><time>2026-05-03T08:44:06.084Z</time></trkpt><trkpt lat="45.5904192" lon="11.3832831"><ele>150.0</ele><time>2026-05-03T08:44:07.084Z</time></trkpt><trkpt lat="45.5902895" lon="11.3832791"><ele>150.0</ele><time>2026-05-03T08:44:08.084Z</time></trkpt><trkpt lat="45.5901767" lon="11.3832752"><ele>149.8</ele><time>2026-05-03T08:44:09.085Z</time></trkpt><trkpt lat="45.5900796" lon="11.3832637"><ele>149.6</ele><time>2026-05-03T08:44:10.084Z</time></trkpt><trkpt lat="45.5899955" lon="11.3832212"><ele>149.4</ele><time>2026-05-03T08:44:11.084Z</time></trkpt><trkpt lat="45.5899322" lon="11.3831365"><ele>149.2</ele><time>2026-05-03T08:44:12.084Z</time></trkpt><trkpt lat="45.5898933" lon="11.3830158"><ele>149.0</ele><time>2026-05-03T08:44:13.083Z</time></trkpt><trkpt lat="45.5898815" lon="11.382871"><ele>149.5</ele><time>2026-05-03T08:44:14.084Z</time></trkpt><trkpt lat="45.5898892" lon="11.3827072"><ele>150.0</ele><time>2026-05-03T08:44:15.084Z</time></trkpt><trkpt lat="45.5898963" lon="11.3825295"><ele>150.5</ele><time>2026-05-03T08:44:16.084Z</time></trkpt><trkpt lat="45.5898929" lon="11.3823427"><ele>151.0</ele><time>2026-05-03T08:44:17.084Z</time></trkpt><trkpt lat="45.5898879" lon="11.3821617"><ele>151.0</ele><time>2026-05-03T08:44:18.084Z</time></trkpt><trkpt lat="45.5898848" lon="11.3819959"><ele>151.0</ele><time>2026-05-03T08:44:19.084Z</time></trkpt><trkpt lat="45.5898789" lon="11.3818517"><ele>151.0</ele><time>2026-05-03T08:44:20.084Z</time></trkpt><trkpt lat="45.5898585" lon="11.3817324"><ele>151.0</ele><time>2026-05-03T08:44:21.085Z</time></trkpt><trkpt lat="45.589812" lon="11.3816414"><ele>151.0</ele><time>2026-05-03T08:44:22.084Z</time></trkpt><trkpt lat="45.5897364" lon="11.3815957"><ele>151.0</ele><time>2026-05-03T08:44:23.083Z</time></trkpt><trkpt lat="45.5896339" lon="11.3815873"><ele>151.0</ele><time>2026-05-03T08:44:24.084Z</time></trkpt><trkpt lat="45.5895128" lon="11.3815991"><ele>151.0</ele><time>2026-05-03T08:44:25.084Z</time></trkpt><trkpt lat="45.5893819" lon="11.3816173"><ele>151.0</ele><time>2026-05-03T08:44:26.085Z</time></trkpt><trkpt lat="45.5892342" lon="11.3816391"><ele>150.33333333333334</ele><time>2026-05-03T08:44:27.083Z</time></trkpt><trkpt lat="45.5890738" lon="11.3816699"><ele>149.66666666666666</ele><time>2026-05-03T08:44:28.084Z</time></trkpt><trkpt lat="45.5888996" lon="11.3817071"><ele>149.0</ele><time>2026-05-03T08:44:29.084Z</time></trkpt><trkpt lat="45.5887141" lon="11.381748"><ele>148.33333333333331</ele><time>2026-05-03T08:44:30.084Z</time></trkpt><trkpt lat="45.5885186" lon="11.3817988"><ele>147.66666666666666</ele><time>2026-05-03T08:44:31.084Z</time></trkpt><trkpt lat="45.5883183" lon="11.3818629"><ele>147.0</ele><time>2026-05-03T08:44:32.084Z</time></trkpt><trkpt lat="45.5881156" lon="11.3819331"><ele>147.0</ele><time>2026-05-03T08:44:33.084Z</time></trkpt><trkpt lat="45.5879094" lon="11.3820124"><ele>147.0</ele><time>2026-05-03T08:44:34.084Z</time></trkpt><trkpt lat="45.587703" lon="11.3820891"><ele>147.0</ele><time>2026-05-03T08:44:35.084Z</time></trkpt><trkpt lat="45.5874951" lon="11.3821646"><ele>146.66666666666666</ele><time>2026-05-03T08:44:36.084Z</time></trkpt><trkpt lat="45.5872888" lon="11.3822423"><ele>146.33333333333331</ele><time>2026-05-03T08:44:37.084Z</time></trkpt><trkpt lat="45.5870851" lon="11.38232"><ele>146.0</ele><time>2026-05-03T08:44:38.085Z</time></trkpt><trkpt lat="45.5868822" lon="11.3823954"><ele>146.0</ele><time>2026-05-03T08:44:39.085Z</time></trkpt><trkpt lat="45.5866786" lon="11.382473"><ele>146.0</ele><time>2026-05-03T08:44:40.083Z</time></trkpt><trkpt lat="45.5864755" lon="11.382549"><ele>146.0</ele><time>2026-05-03T08:44:41.084Z</time></trkpt><trkpt lat="45.5862719" lon="11.3826225"><ele>145.66666666666666</ele><time>2026-05-03T08:44:42.084Z</time></trkpt><trkpt lat="45.5860754" lon="11.3826935"><ele>145.33333333333334</ele><time>2026-05-03T08:44:43.084Z</time></trkpt><trkpt lat="45.5858937" lon="11.382767"><ele>145.0</ele><time>2026-05-03T08:44:44.085Z</time></trkpt><trkpt lat="45.5857256" lon="11.3828591"><ele>145.0</ele><time>2026-05-03T08:44:45.084Z</time></trkpt><trkpt lat="45.5855743" lon="11.3829788"><ele>145.0</ele><time>2026-05-03T08:44:46.085Z</time></trkpt><trkpt lat="45.585444" lon="11.3831374"><ele>145.0</ele><time>2026-05-03T08:44:47.083Z</time></trkpt><trkpt lat="45.5853465" lon="11.3833339"><ele>144.66666666666669</ele><time>2026-05-03T08:44:48.084Z</time></trkpt><trkpt lat="45.5852861" lon="11.3835643"><ele>144.33333333333334</ele><time>2026-05-03T08:44:49.084Z</time></trkpt><trkpt lat="45.5852642" lon="11.3838171"><ele>144.0</ele><time>2026-05-03T08:44:50.084Z</time></trkpt><trkpt lat="45.5852742" lon="11.384083"><ele>144.0</ele><time>2026-05-03T08:44:51.084Z</time></trkpt><trkpt lat="45.5853084" lon="11.3843576"><ele>144.0</ele><time>2026-05-03T08:44:52.084Z</time></trkpt><trkpt lat="45.5853572" lon="11.3846264"><ele>144.0</ele><time>2026-05-03T08:44:53.084Z</time></trkpt><trkpt lat="45.5854057" lon="11.3848848"><ele>143.66666666666666</ele><time>2026-05-03T08:44:54.084Z</time></trkpt><trkpt lat="45.5854198" lon="11.3851435"><ele>143.33333333333331</ele><time>2026-05-03T08:44:55.084Z</time></trkpt><trkpt lat="45.585401" lon="11.3853972"><ele>143.0</ele><time>2026-05-03T08:44:56.084Z</time></trkpt><trkpt lat="45.5853462" lon="11.3856325"><ele>143.33333333333331</ele><time>2026-05-03T08:44:57.084Z</time></trkpt><trkpt lat="45.5852527" lon="11.3858423"><ele>143.66666666666666</ele><time>2026-05-03T08:44:58.084Z</time></trkpt><trkpt lat="45.5851268" lon="11.3860176"><ele>144.0</ele><time>2026-05-03T08:44:59.084Z</time></trkpt><trkpt lat="45.5849723" lon="11.3861517"><ele>144.0</ele><time>2026-05-03T08:45:00.085Z</time></trkpt><trkpt lat="45.5847978" lon="11.3862424"><ele>144.0</ele><time>2026-05-03T08:45:01.085Z</time></trkpt><trkpt lat="45.5846172" lon="11.3863189"><ele>144.0</ele><time>2026-05-03T08:45:02.084Z</time></trkpt><trkpt lat="45.5844339" lon="11.3863933"><ele>144.33333333333334</ele><time>2026-05-03T08:45:03.084Z</time></trkpt><trkpt lat="45.5842433" lon="11.3864645"><ele>144.66666666666669</ele><time>2026-05-03T08:45:04.084Z</time></trkpt><trkpt lat="45.5840495" lon="11.3865339"><ele>145.0</ele><time>2026-05-03T08:45:05.084Z</time></trkpt><trkpt lat="45.5838555" lon="11.3866009"><ele>144.0</ele><time>2026-05-03T08:45:06.084Z</time></trkpt><trkpt lat="45.5836649" lon="11.3866676"><ele>143.0</ele><time>2026-05-03T08:45:07.084Z</time></trkpt><trkpt lat="45.5834785" lon="11.3867355"><ele>142.0</ele><time>2026-05-03T08:45:08.084Z</time></trkpt><trkpt lat="45.5832956" lon="11.3868046"><ele>142.0</ele><time>2026-05-03T08:45:09.084Z</time></trkpt><trkpt lat="45.5831232" lon="11.3868706"><ele>142.0</ele><time>2026-05-03T08:45:10.084Z</time></trkpt><trkpt lat="45.5829586" lon="11.3869307"><ele>142.0</ele><time>2026-05-03T08:45:11.085Z</time></trkpt><trkpt lat="45.5828052" lon="11.3869829"><ele>141.75</ele><time>2026-05-03T08:45:12.084Z</time></trkpt><trkpt lat="45.5826669" lon="11.3870315"><ele>141.5</ele><time>2026-05-03T08:45:13.084Z</time></trkpt><trkpt lat="45.5825382" lon="11.3870701"><ele>141.25</ele><time>2026-05-03T08:45:14.085Z</time></trkpt><trkpt lat="45.5824205" lon="11.3870929"><ele>141.0</ele><time>2026-05-03T08:45:15.084Z</time></trkpt><trkpt lat="45.5823169" lon="11.387106"><ele>141.0</ele><time>2026-05-03T08:45:16.084Z</time></trkpt><trkpt lat="45.5822233" lon="11.3871088"><ele>141.0</ele><time>2026-05-03T08:45:17.084Z</time></trkpt><trkpt lat="45.5821335" lon="11.387092"><ele>141.0</ele><time>2026-05-03T08:45:18.084Z</time></trkpt><trkpt lat="45.5820516" lon="11.3870505"><ele>141.0</ele><time>2026-05-03T08:45:19.084Z</time></trkpt><trkpt lat="45.5819703" lon="11.3870251"><ele>141.0</ele><time>2026-05-03T08:45:20.084Z</time></trkpt><trkpt lat="45.5819022" lon="11.3870727"><ele>141.0</ele><time>2026-05-03T08:45:21.084Z</time></trkpt><trkpt lat="45.5818574" lon="11.387164"><ele>141.2</ele><time>2026-05-03T08:45:22.084Z</time></trkpt><trkpt lat="45.5818516" lon="11.387288"><ele>141.39999999999998</ele><time>2026-05-03T08:45:23.085Z</time></trkpt><trkpt lat="45.5818668" lon="11.3874234"><ele>141.6</ele><time>2026-05-03T08:45:24.084Z</time></trkpt><trkpt lat="45.5818585" lon="11.3875796"><ele>141.79999999999998</ele><time>2026-05-03T08:45:25.084Z</time></trkpt><trkpt lat="45.581857" lon="11.3877482"><ele>142.0</ele><time>2026-05-03T08:45:26.084Z</time></trkpt><trkpt lat="45.5818805" lon="11.3879219"><ele>141.75</ele><time>2026-05-03T08:45:27.085Z</time></trkpt><trkpt lat="45.5819074" lon="11.3880933"><ele>141.5</ele><time>2026-05-03T08:45:28.084Z</time></trkpt><trkpt lat="45.581937" lon="11.3882637"><ele>141.25</ele><time>2026-05-03T08:45:29.085Z</time></trkpt><trkpt lat="45.5819665" lon="11.388433"><ele>141.0</ele><time>2026-05-03T08:45:30.084Z</time></trkpt><trkpt lat="45.5819959" lon="11.3886092"><ele>141.25</ele><time>2026-05-03T08:45:31.084Z</time></trkpt><trkpt lat="45.5820264" lon="11.3887832"><ele>141.5</ele><time>2026-05-03T08:45:32.084Z</time></trkpt><trkpt lat="45.5820562" lon="11.3889566"><ele>141.75</ele><time>2026-05-03T08:45:33.084Z</time></trkpt><trkpt lat="45.5820854" lon="11.3891289"><ele>142.0</ele><time>2026-05-03T08:45:34.084Z</time></trkpt><trkpt lat="45.5821132" lon="11.3893023"><ele>142.0</ele><time>2026-05-03T08:45:35.084Z</time></trkpt><trkpt lat="45.5821402" lon="11.3894699"><ele>142.0</ele><time>2026-05-03T08:45:36.084Z</time></trkpt><trkpt lat="45.5821658" lon="11.3896269"><ele>142.0</ele><time>2026-05-03T08:45:37.084Z</time></trkpt><trkpt lat="45.5821901" lon="11.3897791"><ele>142.0</ele><time>2026-05-03T08:45:38.084Z</time></trkpt><trkpt lat="45.5822128" lon="11.3899259"><ele>142.0</ele><time>2026-05-03T08:45:39.084Z</time></trkpt><trkpt lat="45.5822372" lon="11.3900764"><ele>141.75</ele><time>2026-05-03T08:45:40.084Z</time></trkpt><trkpt lat="45.5822642" lon="11.3902337"><ele>141.5</ele><time>2026-05-03T08:45:41.083Z</time></trkpt><trkpt lat="45.582292" lon="11.3903959"><ele>141.25</ele><time>2026-05-03T08:45:42.084Z</time></trkpt><trkpt lat="45.5823211" lon="11.390561"><ele>141.0</ele><time>2026-05-03T08:45:43.084Z</time></trkpt><trkpt lat="45.5823503" lon="11.3907367"><ele>140.75</ele><time>2026-05-03T08:45:44.084Z</time></trkpt><trkpt lat="45.5823815" lon="11.3909202"><ele>140.5</ele><time>2026-05-03T08:45:45.084Z</time></trkpt><trkpt lat="45.5824159" lon="11.3911014"><ele>140.25</ele><time>2026-05-03T08:45:46.084Z</time></trkpt><trkpt lat="45.582447" lon="11.3912862"><ele>140.0</ele><time>2026-05-03T08:45:47.085Z</time></trkpt><trkpt lat="45.5824808" lon="11.391471"><ele>139.75</ele><time>2026-05-03T08:45:48.085Z</time></trkpt><trkpt lat="45.5825154" lon="11.3916526"><ele>139.5</ele><time>2026-05-03T08:45:49.084Z</time></trkpt><trkpt lat="45.5825478" lon="11.3918342"><ele>139.25</ele><time>2026-05-03T08:45:50.084Z</time></trkpt><trkpt lat="45.5825791" lon="11.3920147"><ele>139.0</ele><time>2026-05-03T08:45:51.084Z</time></trkpt><trkpt lat="45.5826106" lon="11.3921961"><ele>139.0</ele><time>2026-05-03T08:45:52.084Z</time></trkpt><trkpt lat="45.582641" lon="11.3923727"><ele>139.0</ele><time>2026-05-03T08:45:53.084Z</time></trkpt><trkpt lat="45.5826744" lon="11.3925513"><ele>139.0</ele><time>2026-05-03T08:45:54.084Z</time></trkpt><trkpt lat="45.5827061" lon="11.3927272"><ele>139.0</ele><time>2026-05-03T08:45:55.084Z</time></trkpt><trkpt lat="45.5827374" lon="11.3929034"><ele>139.25</ele><time>2026-05-03T08:45:56.085Z</time></trkpt><trkpt lat="45.5827695" lon="11.3930755"><ele>139.5</ele><time>2026-05-03T08:45:57.085Z</time></trkpt><trkpt lat="45.5827994" lon="11.3932417"><ele>139.75</ele><time>2026-05-03T08:45:58.084Z</time></trkpt><trkpt lat="45.5828297" lon="11.3934118"><ele>140.0</ele><time>2026-05-03T08:45:59.085Z</time></trkpt><trkpt lat="45.5828581" lon="11.3935776"><ele>140.0</ele><time>2026-05-03T08:46:00.084Z</time></trkpt><trkpt lat="45.5828902" lon="11.393741"><ele>140.0</ele><time>2026-05-03T08:46:01.084Z</time></trkpt><trkpt lat="45.5829189" lon="11.3939077"><ele>140.0</ele><time>2026-05-03T08:46:02.084Z</time></trkpt><trkpt lat="45.5829452" lon="11.3940633"><ele>140.0</ele><time>2026-05-03T08:46:03.084Z</time></trkpt><trkpt lat="45.5829693" lon="11.3942053"><ele>139.83333333333331</ele><time>2026-05-03T08:46:04.084Z</time></trkpt><trkpt lat="45.5829912" lon="11.3943305"><ele>139.66666666666666</ele><time>2026-05-03T08:46:05.085Z</time></trkpt><trkpt lat="45.5830134" lon="11.3944442"><ele>139.5</ele><time>2026-05-03T08:46:06.084Z</time></trkpt><trkpt lat="45.5830271" lon="11.3945555"><ele>139.33333333333334</ele><time>2026-05-03T08:46:07.084Z</time></trkpt><trkpt lat="45.5830361" lon="11.3946636"><ele>139.16666666666669</ele><time>2026-05-03T08:46:08.084Z</time></trkpt><trkpt lat="45.5830538" lon="11.3947791"><ele>139.0</ele><time>2026-05-03T08:46:09.084Z</time></trkpt><trkpt lat="45.5830834" lon="11.3949021"><ele>139.0</ele><time>2026-05-03T08:46:10.084Z</time></trkpt><trkpt lat="45.5831137" lon="11.3950356"><ele>139.0</ele><time>2026-05-03T08:46:11.084Z</time></trkpt><trkpt lat="45.5831482" lon="11.3951837"><ele>139.0</ele><time>2026-05-03T08:46:12.084Z</time></trkpt><trkpt lat="45.5831857" lon="11.3953397"><ele>139.0</ele><time>2026-05-03T08:46:13.084Z</time></trkpt><trkpt lat="45.5832276" lon="11.3954981"><ele>139.0</ele><time>2026-05-03T08:46:14.085Z</time></trkpt><trkpt lat="45.5832716" lon="11.3956415"><ele>139.0</ele><time>2026-05-03T08:46:15.084Z</time></trkpt><trkpt lat="45.5833162" lon="11.3957725"><ele>139.0</ele><time>2026-05-03T08:46:16.084Z</time></trkpt><trkpt lat="45.5833677" lon="11.3958995"><ele>139.0</ele><time>2026-05-03T08:46:17.083Z</time></trkpt><trkpt lat="45.5834277" lon="11.396041"><ele>139.0</ele><time>2026-05-03T08:46:18.084Z</time></trkpt><trkpt lat="45.5834923" lon="11.3961945"><ele>139.0</ele><time>2026-05-03T08:46:19.084Z</time></trkpt><trkpt lat="45.5835684" lon="11.3963556"><ele>139.75</ele><time>2026-05-03T08:46:20.084Z</time></trkpt><trkpt lat="45.5836518" lon="11.3965207"><ele>140.5</ele><time>2026-05-03T08:46:21.084Z</time></trkpt><trkpt lat="45.5837412" lon="11.3966911"><ele>141.25</ele><time>2026-05-03T08:46:22.084Z</time></trkpt><trkpt lat="45.5838328" lon="11.3968593"><ele>142.0</ele><time>2026-05-03T08:46:23.084Z</time></trkpt><trkpt lat="45.5839238" lon="11.3970275"><ele>142.25</ele><time>2026-05-03T08:46:24.085Z</time></trkpt><trkpt lat="45.584015" lon="11.3971959"><ele>142.5</ele><time>2026-05-03T08:46:25.084Z</time></trkpt><trkpt lat="45.5841074" lon="11.3973672"><ele>142.75</ele><time>2026-05-03T08:46:26.084Z</time></trkpt><trkpt lat="45.5841967" lon="11.3975365"><ele>143.0</ele><time>2026-05-03T08:46:27.084Z</time></trkpt><trkpt lat="45.5842883" lon="11.3977072"><ele>143.0</ele><time>2026-05-03T08:46:28.084Z</time></trkpt><trkpt lat="45.5843828" lon="11.3978803"><ele>143.0</ele><time>2026-05-03T08:46:29.084Z</time></trkpt><trkpt lat="45.5844778" lon="11.3980526"><ele>143.0</ele><time>2026-05-03T08:46:30.084Z</time></trkpt><trkpt lat="45.5845724" lon="11.3982274"><ele>145.0</ele><time>2026-05-03T08:46:31.084Z</time></trkpt><trkpt lat="45.5846661" lon="11.3984005"><ele>147.0</ele><time>2026-05-03T08:46:32.085Z</time></trkpt><trkpt lat="45.5847582" lon="11.3985736"><ele>149.0</ele><time>2026-05-03T08:46:33.085Z</time></trkpt><trkpt lat="45.5848502" lon="11.3987483"><ele>149.33333333333331</ele><time>2026-05-03T08:46:34.084Z</time></trkpt><trkpt lat="45.5849423" lon="11.3989286"><ele>149.66666666666666</ele><time>2026-05-03T08:46:35.084Z</time></trkpt><trkpt lat="45.585035" lon="11.3991044"><ele>150.0</ele><time>2026-05-03T08:46:36.084Z</time></trkpt><trkpt lat="45.5851308" lon="11.3992784"><ele>150.0</ele><time>2026-05-03T08:46:37.084Z</time></trkpt><trkpt lat="45.585227" lon="11.3994475"><ele>150.0</ele><time>2026-05-03T08:46:38.084Z</time></trkpt><trkpt lat="45.5853206" lon="11.3996112"><ele>150.0</ele><time>2026-05-03T08:46:39.084Z</time></trkpt><trkpt lat="45.5854091" lon="11.399766"><ele>150.0</ele><time>2026-05-03T08:46:40.084Z</time></trkpt><trkpt lat="45.5854961" lon="11.3999175"><ele>150.75</ele><time>2026-05-03T08:46:41.084Z</time></trkpt><trkpt lat="45.5855767" lon="11.4000695"><ele>151.5</ele><time>2026-05-03T08:46:42.084Z</time></trkpt><trkpt lat="45.5856454" lon="11.4002344"><ele>152.25</ele><time>2026-05-03T08:46:43.085Z</time></trkpt><trkpt lat="45.5856997" lon="11.4004001"><ele>153.0</ele><time>2026-05-03T08:46:44.084Z</time></trkpt><trkpt lat="45.5857669" lon="11.4005529"><ele>153.0</ele><time>2026-05-03T08:46:45.085Z</time></trkpt><trkpt lat="45.5858526" lon="11.4006907"><ele>153.0</ele><time>2026-05-03T08:46:46.084Z</time></trkpt><trkpt lat="45.5859385" lon="11.4008329"><ele>153.0</ele><time>2026-05-03T08:46:47.084Z</time></trkpt><trkpt lat="45.5860239" lon="11.4009783"><ele>153.0</ele><time>2026-05-03T08:46:48.084Z</time></trkpt><trkpt lat="45.5860947" lon="11.4011455"><ele>154.25</ele><time>2026-05-03T08:46:49.084Z</time></trkpt><trkpt lat="45.5861456" lon="11.4013347"><ele>155.5</ele><time>2026-05-03T08:46:50.084Z</time></trkpt><trkpt lat="45.5861795" lon="11.4015375"><ele>156.75</ele><time>2026-05-03T08:46:51.084Z</time></trkpt><trkpt lat="45.5861967" lon="11.4017462"><ele>158.0</ele><time>2026-05-03T08:46:52.085Z</time></trkpt><trkpt lat="45.5862065" lon="11.401949"><ele>158.0</ele><time>2026-05-03T08:46:53.084Z</time></trkpt><trkpt lat="45.5862371" lon="11.4021384"><ele>158.0</ele><time>2026-05-03T08:46:54.085Z</time></trkpt><trkpt lat="45.5862809" lon="11.4023157"><ele>158.0</ele><time>2026-05-03T08:46:55.084Z</time></trkpt><trkpt lat="45.5863236" lon="11.4024828"><ele>158.0</ele><time>2026-05-03T08:46:56.085Z</time></trkpt><trkpt lat="45.5863359" lon="11.4026565"><ele>155.66666666666666</ele><time>2026-05-03T08:46:57.084Z</time></trkpt><trkpt lat="45.5863249" lon="11.402817"><ele>153.33333333333331</ele><time>2026-05-03T08:46:58.085Z</time></trkpt><trkpt lat="45.5863011" lon="11.4029541"><ele>151.0</ele><time>2026-05-03T08:46:59.084Z</time></trkpt><trkpt lat="45.5862756" lon="11.4030773"><ele>148.66666666666666</ele><time>2026-05-03T08:47:00.085Z</time></trkpt><trkpt lat="45.5862483" lon="11.403182"><ele>146.33333333333334</ele><time>2026-05-03T08:47:01.085Z</time></trkpt><trkpt lat="45.5862224" lon="11.4032724"><ele>144.0</ele><time>2026-05-03T08:47:02.084Z</time></trkpt><trkpt lat="45.5861603" lon="11.4033966"><ele>141.8</ele><time>2026-05-03T08:47:04.084Z</time></trkpt><trkpt lat="45.5860701" lon="11.4034257"><ele>139.60000000000002</ele><time>2026-05-03T08:47:06.085Z</time></trkpt><trkpt lat="45.5859929" lon="11.4033465"><ele>137.4</ele><time>2026-05-03T08:47:08.085Z</time></trkpt><trkpt lat="45.585962" lon="11.4031653"><ele>135.20000000000002</ele><time>2026-05-03T08:47:10.085Z</time></trkpt><trkpt lat="45.5859456" lon="11.4030542"><ele>133.0</ele><time>2026-05-03T08:47:11.085Z</time></trkpt><trkpt lat="45.585926" lon="11.4029329"><ele>133.0</ele><time>2026-05-03T08:47:12.085Z</time></trkpt><trkpt lat="45.5859062" lon="11.4028088"><ele>133.0</ele><time>2026-05-03T08:47:13.084Z</time></trkpt><trkpt lat="45.5858869" lon="11.4026826"><ele>133.0</ele><time>2026-05-03T08:47:14.084Z</time></trkpt><trkpt lat="45.5858645" lon="11.4025659"><ele>133.0</ele><time>2026-05-03T08:47:15.084Z</time></trkpt><trkpt lat="45.5858191" lon="11.4024705"><ele>133.0</ele><time>2026-05-03T08:47:16.085Z</time></trkpt><trkpt lat="45.5857523" lon="11.402424"><ele>133.0</ele><time>2026-05-03T08:47:17.084Z</time></trkpt><trkpt lat="45.5856844" lon="11.4024293"><ele>133.0</ele><time>2026-05-03T08:47:18.085Z</time></trkpt><trkpt lat="45.5856299" lon="11.4024764"><ele>133.0</ele><time>2026-05-03T08:47:19.084Z</time></trkpt><trkpt lat="45.5855926" lon="11.4025652"><ele>133.0</ele><time>2026-05-03T08:47:20.084Z</time></trkpt><trkpt lat="45.5855782" lon="11.4026904"><ele>133.0</ele><time>2026-05-03T08:47:21.084Z</time></trkpt><trkpt lat="45.5855778" lon="11.4028395"><ele>133.0</ele><time>2026-05-03T08:47:22.084Z</time></trkpt><trkpt lat="45.5855818" lon="11.403009"><ele>133.0</ele><time>2026-05-03T08:47:23.084Z</time></trkpt><trkpt lat="45.5855815" lon="11.4031857"><ele>131.25</ele><time>2026-05-03T08:47:24.085Z</time></trkpt><trkpt lat="45.5855856" lon="11.4033696"><ele>129.5</ele><time>2026-05-03T08:47:25.085Z</time></trkpt><trkpt lat="45.5855917" lon="11.4035504"><ele>127.75</ele><time>2026-05-03T08:47:26.085Z</time></trkpt><trkpt lat="45.5855959" lon="11.4037258"><ele>126.0</ele><time>2026-05-03T08:47:27.084Z</time></trkpt><trkpt lat="45.5855967" lon="11.4039012"><ele>125.0</ele><time>2026-05-03T08:47:28.085Z</time></trkpt><trkpt lat="45.5855961" lon="11.4040804"><ele>124.0</ele><time>2026-05-03T08:47:29.085Z</time></trkpt><trkpt lat="45.5855937" lon="11.4042631"><ele>123.0</ele><time>2026-05-03T08:47:30.085Z</time></trkpt><trkpt lat="45.5855894" lon="11.4044421"><ele>122.0</ele><time>2026-05-03T08:47:31.083Z</time></trkpt><trkpt lat="45.5855736" lon="11.4046089"><ele>122.99999999999999</ele><time>2026-05-03T08:47:32.085Z</time></trkpt><trkpt lat="45.5855544" lon="11.4047528"><ele>124.0</ele><time>2026-05-03T08:47:33.085Z</time></trkpt><trkpt lat="45.5855355" lon="11.4048783"><ele>125.0</ele><time>2026-05-03T08:47:34.084Z</time></trkpt><trkpt lat="45.5855127" lon="11.4049892"><ele>126.0</ele><time>2026-05-03T08:47:35.084Z</time></trkpt><trkpt lat="45.5854973" lon="11.4050877"><ele>126.99999999999999</ele><time>2026-05-03T08:47:36.085Z</time></trkpt><trkpt lat="45.5854534" lon="11.405212"><ele>128.0</ele><time>2026-05-03T08:47:38.085Z</time></trkpt><trkpt lat="45.5853743" lon="11.4052056"><ele>127.99999999999999</ele><time>2026-05-03T08:47:40.085Z</time></trkpt><trkpt lat="45.5853488" lon="11.4050402"><ele>128.0</ele><time>2026-05-03T08:47:42.085Z</time></trkpt><trkpt lat="45.5853577" lon="11.4049216"><ele>128.0</ele><time>2026-05-03T08:47:43.084Z</time></trkpt><trkpt lat="45.5853574" lon="11.4048026"><ele>128.0</ele><time>2026-05-03T08:47:44.085Z</time></trkpt><trkpt lat="45.5853467" lon="11.4046971"><ele>127.99999999999999</ele><time>2026-05-03T08:47:45.084Z</time></trkpt><trkpt lat="45.5853159" lon="11.4046163"><ele>128.0</ele><time>2026-05-03T08:47:46.085Z</time></trkpt><trkpt lat="45.5852067" lon="11.4045975"><ele>125.2</ele><time>2026-05-03T08:47:48.085Z</time></trkpt><trkpt lat="45.585156" lon="11.4047689"><ele>122.4</ele><time>2026-05-03T08:47:50.085Z</time></trkpt><trkpt lat="45.5851474" lon="11.4048895"><ele>119.60000000000001</ele><time>2026-05-03T08:47:51.084Z</time></trkpt><trkpt lat="45.5851423" lon="11.4050201"><ele>116.80000000000001</ele><time>2026-05-03T08:47:52.085Z</time></trkpt><trkpt lat="45.5851338" lon="11.4051525"><ele>114.0</ele><time>2026-05-03T08:47:53.084Z</time></trkpt><trkpt lat="45.5851222" lon="11.4052851"><ele>114.0</ele><time>2026-05-03T08:47:54.084Z</time></trkpt><trkpt lat="45.58511" lon="11.4054231"><ele>114.0</ele><time>2026-05-03T08:47:55.084Z</time></trkpt><trkpt lat="45.5850992" lon="11.4055751"><ele>114.0</ele><time>2026-05-03T08:47:56.085Z</time></trkpt><trkpt lat="45.585089" lon="11.4057365"><ele>114.0</ele><time>2026-05-03T08:47:57.084Z</time></trkpt><trkpt lat="45.5850779" lon="11.4059072"><ele>114.0</ele><time>2026-05-03T08:47:58.084Z</time></trkpt><trkpt lat="45.5850668" lon="11.4060766"><ele>112.0</ele><time>2026-05-03T08:47:59.084Z</time></trkpt><trkpt lat="45.5850595" lon="11.4062415"><ele>110.0</ele><time>2026-05-03T08:48:00.085Z</time></trkpt><trkpt lat="45.5850546" lon="11.406406"><ele>108.0</ele><time>2026-05-03T08:48:01.084Z</time></trkpt><trkpt lat="45.585056" lon="11.406575"><ele>106.0</ele><time>2026-05-03T08:48:02.085Z</time></trkpt><trkpt lat="45.5850648" lon="11.4067461"><ele>104.5</ele><time>2026-05-03T08:48:03.084Z</time></trkpt><trkpt lat="45.5850784" lon="11.4069187"><ele>103.0</ele><time>2026-05-03T08:48:04.085Z</time></trkpt><trkpt lat="45.585089" lon="11.4070873"><ele>101.5</ele><time>2026-05-03T08:48:05.084Z</time></trkpt><trkpt lat="45.5850933" lon="11.4072569"><ele>100.0</ele><time>2026-05-03T08:48:06.084Z</time></trkpt><trkpt lat="45.5850911" lon="11.4074365"><ele>98.25</ele><time>2026-05-03T08:48:07.084Z</time></trkpt><trkpt lat="45.5850781" lon="11.4076189"><ele>96.5</ele><time>2026-05-03T08:48:08.085Z</time></trkpt><trkpt lat="45.5850546" lon="11.4078049"><ele>94.75</ele><time>2026-05-03T08:48:09.085Z</time></trkpt><trkpt lat="45.5850296" lon="11.4079895"><ele>93.0</ele><time>2026-05-03T08:48:10.084Z</time></trkpt><trkpt lat="45.5850143" lon="11.4081758"><ele>92.25</ele><time>2026-05-03T08:48:11.084Z</time></trkpt><trkpt lat="45.5850124" lon="11.4083587"><ele>91.5</ele><time>2026-05-03T08:48:12.085Z</time></trkpt><trkpt lat="45.5850212" lon="11.4085423"><ele>90.75</ele><time>2026-05-03T08:48:13.084Z</time></trkpt><trkpt lat="45.5850354" lon="11.4087259"><ele>90.0</ele><time>2026-05-03T08:48:14.084Z</time></trkpt><trkpt lat="45.5850507" lon="11.4089"><ele>88.75</ele><time>2026-05-03T08:48:15.084Z</time></trkpt><trkpt lat="45.5850658" lon="11.4090739"><ele>87.5</ele><time>2026-05-03T08:48:16.084Z</time></trkpt><trkpt lat="45.5850808" lon="11.4092409"><ele>86.25</ele><time>2026-05-03T08:48:17.084Z</time></trkpt><trkpt lat="45.5850935" lon="11.4094032"><ele>85.0</ele><time>2026-05-03T08:48:18.085Z</time></trkpt><trkpt lat="45.5851054" lon="11.4095551"><ele>83.4</ele><time>2026-05-03T08:48:19.084Z</time></trkpt><trkpt lat="45.5851187" lon="11.4096978"><ele>81.8</ele><time>2026-05-03T08:48:20.085Z</time></trkpt><trkpt lat="45.5851305" lon="11.4098346"><ele>80.2</ele><time>2026-05-03T08:48:21.084Z</time></trkpt><trkpt lat="45.5851419" lon="11.4099673"><ele>78.6</ele><time>2026-05-03T08:48:22.085Z</time></trkpt><trkpt lat="45.5851507" lon="11.4100893"><ele>77.0</ele><time>2026-05-03T08:48:23.084Z</time></trkpt><trkpt lat="45.5851562" lon="11.4102049"><ele>77.0</ele><time>2026-05-03T08:48:24.085Z</time></trkpt><trkpt lat="45.5851559" lon="11.4103118"><ele>77.0</ele><time>2026-05-03T08:48:25.084Z</time></trkpt><trkpt lat="45.5851605" lon="11.4104036"><ele>77.0</ele><time>2026-05-03T08:48:26.085Z</time></trkpt><trkpt lat="45.5852371" lon="11.4105314"><ele>77.0</ele><time>2026-05-03T08:48:28.084Z</time></trkpt><trkpt lat="45.5853077" lon="11.4105477"><ele>77.0</ele><time>2026-05-03T08:48:29.084Z</time></trkpt><trkpt lat="45.5853897" lon="11.4105381"><ele>77.0</ele><time>2026-05-03T08:48:30.085Z</time></trkpt><trkpt lat="45.585483" lon="11.4105159"><ele>77.5</ele><time>2026-05-03T08:48:31.084Z</time></trkpt><trkpt lat="45.5855864" lon="11.4104886"><ele>78.0</ele><time>2026-05-03T08:48:32.085Z</time></trkpt><trkpt lat="45.5857" lon="11.4104649"><ele>78.5</ele><time>2026-05-03T08:48:33.084Z</time></trkpt><trkpt lat="45.5858248" lon="11.4104425"><ele>79.0</ele><time>2026-05-03T08:48:34.085Z</time></trkpt><trkpt lat="45.5859565" lon="11.4104192"><ele>79.0</ele><time>2026-05-03T08:48:35.084Z</time></trkpt><trkpt lat="45.5860964" lon="11.410392"><ele>79.0</ele><time>2026-05-03T08:48:36.085Z</time></trkpt><trkpt lat="45.5862423" lon="11.4103658"><ele>79.0</ele><time>2026-05-03T08:48:37.084Z</time></trkpt><trkpt lat="45.5863949" lon="11.4103409"><ele>79.0</ele><time>2026-05-03T08:48:38.085Z</time></trkpt><trkpt lat="45.5865498" lon="11.4103192"><ele>77.66666666666666</ele><time>2026-05-03T08:48:39.084Z</time></trkpt><trkpt lat="45.5867073" lon="11.4102853"><ele>76.33333333333333</ele><time>2026-05-03T08:48:40.084Z</time></trkpt><trkpt lat="45.5868633" lon="11.4102411"><ele>75.0</ele><time>2026-05-03T08:48:41.084Z</time></trkpt><trkpt lat="45.5870146" lon="11.4101862"><ele>73.0</ele><time>2026-05-03T08:48:42.084Z</time></trkpt><trkpt lat="45.5871691" lon="11.4101282"><ele>71.0</ele><time>2026-05-03T08:48:43.084Z</time></trkpt><trkpt lat="45.5873202" lon="11.41007"><ele>69.0</ele><time>2026-05-03T08:48:44.084Z</time></trkpt><trkpt lat="45.5874652" lon="11.4100165"><ele>69.0</ele><time>2026-05-03T08:48:45.085Z</time></trkpt><trkpt lat="45.5876072" lon="11.4099627"><ele>69.0</ele><time>2026-05-03T08:48:46.084Z</time></trkpt><trkpt lat="45.5877488" lon="11.4099152"><ele>69.0</ele><time>2026-05-03T08:48:47.084Z</time></trkpt><trkpt lat="45.5878943" lon="11.4098806"><ele>69.0</ele><time>2026-05-03T08:48:48.084Z</time></trkpt><trkpt lat="45.5880469" lon="11.4098679"><ele>69.33333333333333</ele><time>2026-05-03T08:48:49.084Z</time></trkpt><trkpt lat="45.5882041" lon="11.4098778"><ele>69.66666666666666</ele><time>2026-05-03T08:48:50.084Z</time></trkpt><trkpt lat="45.588362" lon="11.4099179"><ele>70.0</ele><time>2026-05-03T08:48:51.084Z</time></trkpt><trkpt lat="45.5885153" lon="11.4099881"><ele>70.0</ele><time>2026-05-03T08:48:52.084Z</time></trkpt><trkpt lat="45.5886783" lon="11.4100528"><ele>70.0</ele><time>2026-05-03T08:48:53.084Z</time></trkpt><trkpt lat="45.5888438" lon="11.4100774"><ele>70.0</ele><time>2026-05-03T08:48:54.085Z</time></trkpt><trkpt lat="45.5890089" lon="11.4100837"><ele>70.0</ele><time>2026-05-03T08:48:55.084Z</time></trkpt><trkpt lat="45.5891802" lon="11.4100819"><ele>70.0</ele><time>2026-05-03T08:48:56.084Z</time></trkpt><trkpt lat="45.5893576" lon="11.4100833"><ele>70.0</ele><time>2026-05-03T08:48:57.084Z</time></trkpt><trkpt lat="45.5895344" lon="11.4101143"><ele>71.0</ele><time>2026-05-03T08:48:58.084Z</time></trkpt><trkpt lat="45.5897006" lon="11.4101744"><ele>72.0</ele><time>2026-05-03T08:48:59.085Z</time></trkpt><trkpt lat="45.5898505" lon="11.4102674"><ele>73.0</ele><time>2026-05-03T08:49:00.084Z</time></trkpt><trkpt lat="45.5899961" lon="11.4103769"><ele>73.0</ele><time>2026-05-03T08:49:01.085Z</time></trkpt><trkpt lat="45.5901414" lon="11.4104787"><ele>73.0</ele><time>2026-05-03T08:49:02.084Z</time></trkpt><trkpt lat="45.5902815" lon="11.4105631"><ele>73.0</ele><time>2026-05-03T08:49:03.084Z</time></trkpt><trkpt lat="45.5904205" lon="11.4106412"><ele>73.33333333333333</ele><time>2026-05-03T08:49:04.085Z</time></trkpt><trkpt lat="45.5905626" lon="11.4107188"><ele>73.66666666666667</ele><time>2026-05-03T08:49:05.084Z</time></trkpt><trkpt lat="45.5907078" lon="11.410792"><ele>74.0</ele><time>2026-05-03T08:49:06.085Z</time></trkpt><trkpt lat="45.5908545" lon="11.4108674"><ele>74.0</ele><time>2026-05-03T08:49:07.084Z</time></trkpt><trkpt lat="45.5910056" lon="11.4109451"><ele>74.0</ele><time>2026-05-03T08:49:08.085Z</time></trkpt><trkpt lat="45.5911577" lon="11.4110268"><ele>74.0</ele><time>2026-05-03T08:49:09.084Z</time></trkpt><trkpt lat="45.5913085" lon="11.4111059"><ele>75.33333333333334</ele><time>2026-05-03T08:49:10.084Z</time></trkpt><trkpt lat="45.5914622" lon="11.411176"><ele>76.66666666666667</ele><time>2026-05-03T08:49:11.084Z</time></trkpt><trkpt lat="45.5916194" lon="11.4112343"><ele>78.0</ele><time>2026-05-03T08:49:12.084Z</time></trkpt><trkpt lat="45.5917821" lon="11.4112737"><ele>78.0</ele><time>2026-05-03T08:49:13.083Z</time></trkpt><trkpt lat="45.5919458" lon="11.4112974"><ele>78.0</ele><time>2026-05-03T08:49:14.085Z</time></trkpt><trkpt lat="45.5921102" lon="11.411309"><ele>78.0</ele><time>2026-05-03T08:49:15.084Z</time></trkpt><trkpt lat="45.5922734" lon="11.4113132"><ele>79.33333333333333</ele><time>2026-05-03T08:49:16.084Z</time></trkpt><trkpt lat="45.592435" lon="11.4113171"><ele>80.66666666666666</ele><time>2026-05-03T08:49:17.084Z</time></trkpt><trkpt lat="45.5925877" lon="11.4113168"><ele>82.0</ele><time>2026-05-03T08:49:18.085Z</time></trkpt><trkpt lat="45.5927256" lon="11.4113239"><ele>79.25</ele><time>2026-05-03T08:49:19.084Z</time></trkpt><trkpt lat="45.5928614" lon="11.4113667"><ele>76.5</ele><time>2026-05-03T08:49:20.084Z</time></trkpt><trkpt lat="45.5929939" lon="11.4114593"><ele>73.75</ele><time>2026-05-03T08:49:21.084Z</time></trkpt><trkpt lat="45.5931182" lon="11.4115757"><ele>71.0</ele><time>2026-05-03T08:49:22.084Z</time></trkpt><trkpt lat="45.5932627" lon="11.4116766"><ele>71.0</ele><time>2026-05-03T08:49:23.084Z</time></trkpt><trkpt lat="45.593416" lon="11.4117536"><ele>71.0</ele><time>2026-05-03T08:49:24.084Z</time></trkpt><trkpt lat="45.5935567" lon="11.4118599"><ele>71.0</ele><time>2026-05-03T08:49:25.084Z</time></trkpt><trkpt lat="45.5936785" lon="11.4120095"><ele>71.66666666666667</ele><time>2026-05-03T08:49:26.085Z</time></trkpt><trkpt lat="45.5937871" lon="11.4121813"><ele>72.33333333333333</ele><time>2026-05-03T08:49:27.084Z</time></trkpt><trkpt lat="45.5938939" lon="11.4123554"><ele>73.0</ele><time>2026-05-03T08:49:28.084Z</time></trkpt><trkpt lat="45.5939963" lon="11.4125391"><ele>73.0</ele><time>2026-05-03T08:49:29.084Z</time></trkpt><trkpt lat="45.5940947" lon="11.4127259"><ele>73.0</ele><time>2026-05-03T08:49:30.084Z</time></trkpt><trkpt lat="45.5941832" lon="11.4129163"><ele>73.0</ele><time>2026-05-03T08:49:31.084Z</time></trkpt><trkpt lat="45.5942674" lon="11.413094"><ele>73.25</ele><time>2026-05-03T08:49:32.084Z</time></trkpt><trkpt lat="45.5943492" lon="11.4132531"><ele>73.5</ele><time>2026-05-03T08:49:33.084Z</time></trkpt><trkpt lat="45.5944358" lon="11.4133908"><ele>73.75</ele><time>2026-05-03T08:49:34.084Z</time></trkpt><trkpt lat="45.5945461" lon="11.4134944"><ele>74.0</ele><time>2026-05-03T08:49:35.084Z</time></trkpt><trkpt lat="45.5946767" lon="11.413554"><ele>74.0</ele><time>2026-05-03T08:49:36.085Z</time></trkpt><trkpt lat="45.5948191" lon="11.4135774"><ele>74.0</ele><time>2026-05-03T08:49:37.084Z</time></trkpt><trkpt lat="45.5949666" lon="11.413591"><ele>74.0</ele><time>2026-05-03T08:49:38.083Z</time></trkpt><trkpt lat="45.5951117" lon="11.4136024"><ele>74.0</ele><time>2026-05-03T08:49:39.084Z</time></trkpt><trkpt lat="45.5952502" lon="11.4136164"><ele>74.25</ele><time>2026-05-03T08:49:40.084Z</time></trkpt><trkpt lat="45.5953862" lon="11.4136409"><ele>74.5</ele><time>2026-05-03T08:49:41.084Z</time></trkpt><trkpt lat="45.59552" lon="11.4136829"><ele>74.75</ele><time>2026-05-03T08:49:42.084Z</time></trkpt><trkpt lat="45.595652" lon="11.4137418"><ele>75.0</ele><time>2026-05-03T08:49:43.084Z</time></trkpt><trkpt lat="45.5957859" lon="11.4138029"><ele>75.0</ele><time>2026-05-03T08:49:44.084Z</time></trkpt><trkpt lat="45.5959198" lon="11.4138617"><ele>75.0</ele><time>2026-05-03T08:49:45.085Z</time></trkpt><trkpt lat="45.596052" lon="11.4139236"><ele>75.0</ele><time>2026-05-03T08:49:46.084Z</time></trkpt><trkpt lat="45.5961773" lon="11.4139846"><ele>75.0</ele><time>2026-05-03T08:49:47.085Z</time></trkpt><trkpt lat="45.5962956" lon="11.4140506"><ele>75.75</ele><time>2026-05-03T08:49:48.085Z</time></trkpt><trkpt lat="45.5964051" lon="11.4141362"><ele>76.5</ele><time>2026-05-03T08:49:49.084Z</time></trkpt><trkpt lat="45.5965045" lon="11.4142293"><ele>77.25</ele><time>2026-05-03T08:49:50.085Z</time></trkpt><trkpt lat="45.5966005" lon="11.4143229"><ele>78.0</ele><time>2026-05-03T08:49:51.083Z</time></trkpt><trkpt lat="45.5966947" lon="11.4144177"><ele>78.0</ele><time>2026-05-03T08:49:52.084Z</time></trkpt><trkpt lat="45.596795" lon="11.4144889"><ele>78.0</ele><time>2026-05-03T08:49:53.085Z</time></trkpt><trkpt lat="45.5969042" lon="11.4145296"><ele>78.0</ele><time>2026-05-03T08:49:54.085Z</time></trkpt><trkpt lat="45.5970162" lon="11.4145408"><ele>78.0</ele><time>2026-05-03T08:49:55.085Z</time></trkpt><trkpt lat="45.5971259" lon="11.4145374"><ele>78.0</ele><time>2026-05-03T08:49:56.084Z</time></trkpt><trkpt lat="45.5972424" lon="11.4145337"><ele>78.75</ele><time>2026-05-03T08:49:57.084Z</time></trkpt><trkpt lat="45.5973607" lon="11.4145498"><ele>79.5</ele><time>2026-05-03T08:49:58.084Z</time></trkpt><trkpt lat="45.5974787" lon="11.4145896"><ele>80.25</ele><time>2026-05-03T08:49:59.085Z</time></trkpt><trkpt lat="45.5976006" lon="11.4146389"><ele>81.0</ele><time>2026-05-03T08:50:00.084Z</time></trkpt><trkpt lat="45.5977229" lon="11.4146779"><ele>82.0</ele><time>2026-05-03T08:50:01.084Z</time></trkpt><trkpt lat="45.5978472" lon="11.4147044"><ele>83.0</ele><time>2026-05-03T08:50:02.084Z</time></trkpt><trkpt lat="45.5979729" lon="11.414739"><ele>84.0</ele><time>2026-05-03T08:50:03.084Z</time></trkpt><trkpt lat="45.5980926" lon="11.4147968"><ele>85.0</ele><time>2026-05-03T08:50:04.083Z</time></trkpt><trkpt lat="45.5982072" lon="11.4148749"><ele>85.0</ele><time>2026-05-03T08:50:05.084Z</time></trkpt><trkpt lat="45.5983241" lon="11.4149572"><ele>85.0</ele><time>2026-05-03T08:50:06.084Z</time></trkpt><trkpt lat="45.5984457" lon="11.4150236"><ele>85.0</ele><time>2026-05-03T08:50:07.084Z</time></trkpt><trkpt lat="45.5985706" lon="11.4150682"><ele>85.0</ele><time>2026-05-03T08:50:08.084Z</time></trkpt><trkpt lat="45.5986992" lon="11.4150997"><ele>85.75</ele><time>2026-05-03T08:50:09.084Z</time></trkpt><trkpt lat="45.5988318" lon="11.4151282"><ele>86.5</ele><time>2026-05-03T08:50:10.085Z</time></trkpt><trkpt lat="45.5989657" lon="11.4151559"><ele>87.25</ele><time>2026-05-03T08:50:11.084Z</time></trkpt><trkpt lat="45.5991004" lon="11.4151774"><ele>88.0</ele><time>2026-05-03T08:50:12.084Z</time></trkpt><trkpt lat="45.5992366" lon="11.4151904"><ele>88.0</ele><time>2026-05-03T08:50:13.085Z</time></trkpt><trkpt lat="45.5993742" lon="11.4152009"><ele>88.0</ele><time>2026-05-03T08:50:14.084Z</time></trkpt><trkpt lat="45.5995144" lon="11.4152084"><ele>88.0</ele><time>2026-05-03T08:50:15.083Z</time></trkpt><trkpt lat="45.5996564" lon="11.4152112"><ele>88.0</ele><time>2026-05-03T08:50:16.084Z</time></trkpt><trkpt lat="45.5997986" lon="11.4152084"><ele>89.0</ele><time>2026-05-03T08:50:17.084Z</time></trkpt><trkpt lat="45.5999352" lon="11.4152078"><ele>90.0</ele><time>2026-05-03T08:50:18.085Z</time></trkpt><trkpt lat="45.6000679" lon="11.4152011"><ele>91.0</ele><time>2026-05-03T08:50:19.084Z</time></trkpt><trkpt lat="45.6001987" lon="11.4151711"><ele>92.0</ele><time>2026-05-03T08:50:20.084Z</time></trkpt><trkpt lat="45.6003258" lon="11.4151268"><ele>92.5</ele><time>2026-05-03T08:50:21.084Z</time></trkpt><trkpt lat="45.6004433" lon="11.4150842"><ele>93.0</ele><time>2026-05-03T08:50:22.084Z</time></trkpt><trkpt lat="45.6005595" lon="11.4150405"><ele>93.5</ele><time>2026-05-03T08:50:23.084Z</time></trkpt><trkpt lat="45.6006775" lon="11.4149968"><ele>94.0</ele><time>2026-05-03T08:50:24.084Z</time></trkpt><trkpt lat="45.6007974" lon="11.4149576"><ele>94.0</ele><time>2026-05-03T08:50:25.084Z</time></trkpt><trkpt lat="45.6009206" lon="11.4149296"><ele>94.0</ele><time>2026-05-03T08:50:26.085Z</time></trkpt><trkpt lat="45.6010492" lon="11.4149146"><ele>94.0</ele><time>2026-05-03T08:50:27.085Z</time></trkpt><trkpt lat="45.6011837" lon="11.4149143"><ele>94.0</ele><time>2026-05-03T08:50:28.085Z</time></trkpt><trkpt lat="45.6013209" lon="11.4149266"><ele>94.75</ele><time>2026-05-03T08:50:29.084Z</time></trkpt><trkpt lat="45.6014589" lon="11.4149262"><ele>95.5</ele><time>2026-05-03T08:50:30.084Z</time></trkpt><trkpt lat="45.601598" lon="11.4148996"><ele>96.25</ele><time>2026-05-03T08:50:31.084Z</time></trkpt><trkpt lat="45.6017361" lon="11.4148616"><ele>97.0</ele><time>2026-05-03T08:50:32.084Z</time></trkpt><trkpt lat="45.6018739" lon="11.414815"><ele>97.75</ele><time>2026-05-03T08:50:33.085Z</time></trkpt><trkpt lat="45.602011" lon="11.4147689"><ele>98.5</ele><time>2026-05-03T08:50:34.085Z</time></trkpt><trkpt lat="45.6021471" lon="11.4147244"><ele>99.25</ele><time>2026-05-03T08:50:35.083Z</time></trkpt><trkpt lat="45.6022874" lon="11.4147091"><ele>100.0</ele><time>2026-05-03T08:50:36.084Z</time></trkpt><trkpt lat="45.6024274" lon="11.4147163"><ele>100.0</ele><time>2026-05-03T08:50:37.084Z</time></trkpt><trkpt lat="45.6025689" lon="11.4147328"><ele>100.0</ele><time>2026-05-03T08:50:38.083Z</time></trkpt><trkpt lat="45.6027108" lon="11.4147457"><ele>100.0</ele><time>2026-05-03T08:50:39.084Z</time></trkpt><trkpt lat="45.6028559" lon="11.4147502"><ele>100.0</ele><time>2026-05-03T08:50:40.084Z</time></trkpt><trkpt lat="45.6030053" lon="11.4147523"><ele>101.33333333333334</ele><time>2026-05-03T08:50:41.084Z</time></trkpt><trkpt lat="45.6031585" lon="11.4147524"><ele>102.66666666666666</ele><time>2026-05-03T08:50:42.084Z</time></trkpt><trkpt lat="45.6033137" lon="11.4147526"><ele>104.0</ele><time>2026-05-03T08:50:43.084Z</time></trkpt><trkpt lat="45.6034694" lon="11.4147493"><ele>104.0</ele><time>2026-05-03T08:50:44.085Z</time></trkpt><trkpt lat="45.6036255" lon="11.4147482"><ele>104.0</ele><time>2026-05-03T08:50:45.084Z</time></trkpt><trkpt lat="45.6037794" lon="11.414737"><ele>104.0</ele><time>2026-05-03T08:50:46.085Z</time></trkpt><trkpt lat="45.6039319" lon="11.4147107"><ele>104.0</ele><time>2026-05-03T08:50:47.084Z</time></trkpt><trkpt lat="45.6040853" lon="11.4146697"><ele>104.0</ele><time>2026-05-03T08:50:48.084Z</time></trkpt><trkpt lat="45.6042388" lon="11.4146242"><ele>104.0</ele><time>2026-05-03T08:50:49.084Z</time></trkpt><trkpt lat="45.6043963" lon="11.414577"><ele>106.33333333333333</ele><time>2026-05-03T08:50:50.084Z</time></trkpt><trkpt lat="45.6045523" lon="11.4145268"><ele>108.66666666666666</ele><time>2026-05-03T08:50:51.084Z</time></trkpt><trkpt lat="45.6047098" lon="11.4144791"><ele>111.0</ele><time>2026-05-03T08:50:52.084Z</time></trkpt><trkpt lat="45.604867" lon="11.414431"><ele>111.0</ele><time>2026-05-03T08:50:53.085Z</time></trkpt><trkpt lat="45.6050246" lon="11.4143798"><ele>111.0</ele><time>2026-05-03T08:50:54.084Z</time></trkpt><trkpt lat="45.605182" lon="11.4143124"><ele>111.0</ele><time>2026-05-03T08:50:55.084Z</time></trkpt><trkpt lat="45.6053328" lon="11.4142215"><ele>114.0</ele><time>2026-05-03T08:50:56.085Z</time></trkpt><trkpt lat="45.6054788" lon="11.4141071"><ele>117.0</ele><time>2026-05-03T08:50:57.084Z</time></trkpt><trkpt lat="45.6056178" lon="11.4139863"><ele>120.0</ele><time>2026-05-03T08:50:58.084Z</time></trkpt><trkpt lat="45.6057551" lon="11.4138752"><ele>119.0</ele><time>2026-05-03T08:50:59.085Z</time></trkpt><trkpt lat="45.6058947" lon="11.4137754"><ele>118.0</ele><time>2026-05-03T08:51:00.084Z</time></trkpt><trkpt lat="45.6060351" lon="11.4136835"><ele>117.0</ele><time>2026-05-03T08:51:01.084Z</time></trkpt><trkpt lat="45.6061748" lon="11.413598"><ele>119.0</ele><time>2026-05-03T08:51:02.085Z</time></trkpt><trkpt lat="45.6063134" lon="11.4135143"><ele>121.0</ele><time>2026-05-03T08:51:03.084Z</time></trkpt><trkpt lat="45.6064446" lon="11.4134319"><ele>123.0</ele><time>2026-05-03T08:51:04.084Z</time></trkpt><trkpt lat="45.6065714" lon="11.413347"><ele>125.0</ele><time>2026-05-03T08:51:05.085Z</time></trkpt><trkpt lat="45.6066997" lon="11.4132684"><ele>125.0</ele><time>2026-05-03T08:51:06.084Z</time></trkpt><trkpt lat="45.606826" lon="11.4131935"><ele>125.0</ele><time>2026-05-03T08:51:07.083Z</time></trkpt><trkpt lat="45.6069491" lon="11.4131057"><ele>125.0</ele><time>2026-05-03T08:51:08.084Z</time></trkpt><trkpt lat="45.6070647" lon="11.4129995"><ele>125.0</ele><time>2026-05-03T08:51:09.084Z</time></trkpt><trkpt lat="45.607171" lon="11.4128718"><ele>127.25</ele><time>2026-05-03T08:51:10.085Z</time></trkpt><trkpt lat="45.6072701" lon="11.4127362"><ele>129.5</ele><time>2026-05-03T08:51:11.084Z</time></trkpt><trkpt lat="45.6073612" lon="11.4126062"><ele>131.75</ele><time>2026-05-03T08:51:12.085Z</time></trkpt><trkpt lat="45.6074554" lon="11.4124662"><ele>134.0</ele><time>2026-05-03T08:51:13.084Z</time></trkpt><trkpt lat="45.6075572" lon="11.4123279"><ele>134.0</ele><time>2026-05-03T08:51:14.084Z</time></trkpt><trkpt lat="45.60767" lon="11.4121938"><ele>134.0</ele><time>2026-05-03T08:51:15.085Z</time></trkpt><trkpt lat="45.6077949" lon="11.4120751"><ele>134.0</ele><time>2026-05-03T08:51:16.084Z</time></trkpt><trkpt lat="45.6079247" lon="11.4119636"><ele>134.0</ele><time>2026-05-03T08:51:17.084Z</time></trkpt><trkpt lat="45.6080673" lon="11.411868"><ele>134.33333333333331</ele><time>2026-05-03T08:51:18.084Z</time></trkpt><trkpt lat="45.6082108" lon="11.4117818"><ele>134.66666666666666</ele><time>2026-05-03T08:51:19.084Z</time></trkpt><trkpt lat="45.6083562" lon="11.4117055"><ele>135.0</ele><time>2026-05-03T08:51:20.084Z</time></trkpt><trkpt lat="45.6084958" lon="11.4116371"><ele>135.0</ele><time>2026-05-03T08:51:21.084Z</time></trkpt><trkpt lat="45.6086296" lon="11.4115741"><ele>135.0</ele><time>2026-05-03T08:51:22.085Z</time></trkpt><trkpt lat="45.6087522" lon="11.4115087"><ele>135.0</ele><time>2026-05-03T08:51:23.084Z</time></trkpt><trkpt lat="45.6088662" lon="11.411445"><ele>135.0</ele><time>2026-05-03T08:51:24.084Z</time></trkpt><trkpt lat="45.6089673" lon="11.411383"><ele>136.33333333333334</ele><time>2026-05-03T08:51:25.084Z</time></trkpt><trkpt lat="45.6090585" lon="11.4113238"><ele>137.66666666666666</ele><time>2026-05-03T08:51:26.084Z</time></trkpt><trkpt lat="45.6091424" lon="11.4112732"><ele>139.0</ele><time>2026-05-03T08:51:27.084Z</time></trkpt><trkpt lat="45.6092257" lon="11.4112335"><ele>140.33333333333331</ele><time>2026-05-03T08:51:28.084Z</time></trkpt><trkpt lat="45.6093058" lon="11.4112288"><ele>141.66666666666666</ele><time>2026-05-03T08:51:29.085Z</time></trkpt><trkpt lat="45.6093709" lon="11.41127"><ele>143.0</ele><time>2026-05-03T08:51:30.084Z</time></trkpt><trkpt lat="45.6094191" lon="11.4113497"><ele>143.6</ele><time>2026-05-03T08:51:31.084Z</time></trkpt><trkpt lat="45.6094527" lon="11.4114611"><ele>144.20000000000002</ele><time>2026-05-03T08:51:32.085Z</time></trkpt><trkpt lat="45.6094898" lon="11.4115843"><ele>144.8</ele><time>2026-05-03T08:51:33.084Z</time></trkpt><trkpt lat="45.6095437" lon="11.411703"><ele>145.4</ele><time>2026-05-03T08:51:34.084Z</time></trkpt><trkpt lat="45.6096225" lon="11.4117936"><ele>146.0</ele><time>2026-05-03T08:51:35.084Z</time></trkpt><trkpt lat="45.6097166" lon="11.4118542"><ele>147.6</ele><time>2026-05-03T08:51:36.084Z</time></trkpt><trkpt lat="45.6098185" lon="11.4118953"><ele>149.2</ele><time>2026-05-03T08:51:37.085Z</time></trkpt><trkpt lat="45.6099199" lon="11.4119388"><ele>150.8</ele><time>2026-05-03T08:51:38.085Z</time></trkpt><trkpt lat="45.6100213" lon="11.41198"><ele>152.4</ele><time>2026-05-03T08:51:39.084Z</time></trkpt><trkpt lat="45.6101212" lon="11.4120198"><ele>154.0</ele><time>2026-05-03T08:51:40.085Z</time></trkpt><trkpt lat="45.6102137" lon="11.4120585"><ele>154.0</ele><time>2026-05-03T08:51:41.084Z</time></trkpt><trkpt lat="45.6102979" lon="11.4121039"><ele>154.0</ele><time>2026-05-03T08:51:42.084Z</time></trkpt><trkpt lat="45.6103692" lon="11.4121768"><ele>154.0</ele><time>2026-05-03T08:51:43.084Z</time></trkpt><trkpt lat="45.610411" lon="11.412279"><ele>154.0</ele><time>2026-05-03T08:51:44.084Z</time></trkpt><trkpt lat="45.610416" lon="11.4123914"><ele>154.0</ele><time>2026-05-03T08:51:45.085Z</time></trkpt><trkpt lat="45.6103876" lon="11.4124946"><ele>154.0</ele><time>2026-05-03T08:51:46.084Z</time></trkpt><trkpt lat="45.6103294" lon="11.4125729"><ele>155.33333333333334</ele><time>2026-05-03T08:51:47.084Z</time></trkpt><trkpt lat="45.6102548" lon="11.412625"><ele>156.66666666666669</ele><time>2026-05-03T08:51:48.084Z</time></trkpt><trkpt lat="45.6101709" lon="11.4126627"><ele>158.0</ele><time>2026-05-03T08:51:49.085Z</time></trkpt><trkpt lat="45.6100831" lon="11.4127024"><ele>159.33333333333334</ele><time>2026-05-03T08:51:50.085Z</time></trkpt><trkpt lat="45.6099962" lon="11.4127449"><ele>160.66666666666666</ele><time>2026-05-03T08:51:51.084Z</time></trkpt><trkpt lat="45.6099072" lon="11.4127856"><ele>162.0</ele><time>2026-05-03T08:51:52.084Z</time></trkpt><trkpt lat="45.6098171" lon="11.4128236"><ele>162.0</ele><time>2026-05-03T08:51:53.085Z</time></trkpt><trkpt lat="45.6097287" lon="11.4128645"><ele>162.0</ele><time>2026-05-03T08:51:54.085Z</time></trkpt><trkpt lat="45.6096393" lon="11.4129008"><ele>162.0</ele><time>2026-05-03T08:51:55.084Z</time></trkpt><trkpt lat="45.6095574" lon="11.4129448"><ele>162.0</ele><time>2026-05-03T08:51:56.084Z</time></trkpt><trkpt lat="45.6094778" lon="11.4130007"><ele>162.0</ele><time>2026-05-03T08:51:57.084Z</time></trkpt><trkpt lat="45.609404" lon="11.4130827"><ele>164.0</ele><time>2026-05-03T08:51:58.084Z</time></trkpt><trkpt lat="45.609333" lon="11.4131862"><ele>166.0</ele><time>2026-05-03T08:51:59.084Z</time></trkpt><trkpt lat="45.6092651" lon="11.4132991"><ele>168.0</ele><time>2026-05-03T08:52:00.084Z</time></trkpt><trkpt lat="45.6091991" lon="11.4134133"><ele>170.0</ele><time>2026-05-03T08:52:01.084Z</time></trkpt><trkpt lat="45.6091383" lon="11.4135005"><ele>172.0</ele><time>2026-05-03T08:52:02.085Z</time></trkpt><trkpt lat="45.6090874" lon="11.4135687"><ele>172.0</ele><time>2026-05-03T08:52:03.084Z</time></trkpt><trkpt lat="45.6090292" lon="11.413687"><ele>172.0</ele><time>2026-05-03T08:52:05.084Z</time></trkpt><trkpt lat="45.6090813" lon="11.4137777"><ele>172.0</ele><time>2026-05-03T08:52:07.083Z</time></trkpt><trkpt lat="45.6091854" lon="11.4137189"><ele>172.0</ele><time>2026-05-03T08:52:09.084Z</time></trkpt><trkpt lat="45.6092709" lon="11.413593"><ele>172.0</ele><time>2026-05-03T08:52:11.085Z</time></trkpt><trkpt lat="45.6093214" lon="11.4135226"><ele>172.0</ele><time>2026-05-03T08:52:12.084Z</time></trkpt><trkpt lat="45.6093816" lon="11.4134612"><ele>172.0</ele><time>2026-05-03T08:52:13.084Z</time></trkpt><trkpt lat="45.6094569" lon="11.4134312"><ele>172.0</ele><time>2026-05-03T08:52:14.085Z</time></trkpt><trkpt lat="45.609541" lon="11.4134288"><ele>172.0</ele><time>2026-05-03T08:52:15.085Z</time></trkpt><trkpt lat="45.6096359" lon="11.4134491"><ele>172.0</ele><time>2026-05-03T08:52:16.085Z</time></trkpt><trkpt lat="45.6097367" lon="11.4134664"><ele>172.0</ele><time>2026-05-03T08:52:17.085Z</time></trkpt><trkpt lat="45.6098421" lon="11.4134912"><ele>173.8</ele><time>2026-05-03T08:52:18.084Z</time></trkpt><trkpt lat="45.6099497" lon="11.4135175"><ele>175.6</ele><time>2026-05-03T08:52:19.084Z</time></trkpt><trkpt lat="45.6100619" lon="11.4135455"><ele>177.4</ele><time>2026-05-03T08:52:20.084Z</time></trkpt><trkpt lat="45.6101688" lon="11.4135688"><ele>179.20000000000002</ele><time>2026-05-03T08:52:21.084Z</time></trkpt><trkpt lat="45.6102598" lon="11.4135909"><ele>181.0</ele><time>2026-05-03T08:52:22.084Z</time></trkpt><trkpt lat="45.6103328" lon="11.413614"><ele>181.0</ele><time>2026-05-03T08:52:23.084Z</time></trkpt><trkpt lat="45.6103944" lon="11.4137421"><ele>181.0</ele><time>2026-05-03T08:52:25.084Z</time></trkpt><trkpt lat="45.6103168" lon="11.413841"><ele>181.0</ele><time>2026-05-03T08:52:27.085Z</time></trkpt><trkpt lat="45.610182" lon="11.4137964"><ele>181.0</ele><time>2026-05-03T08:52:29.084Z</time></trkpt><trkpt lat="45.6100927" lon="11.4137638"><ele>181.0</ele><time>2026-05-03T08:52:30.084Z</time></trkpt><trkpt lat="45.6100038" lon="11.4137339"><ele>181.0</ele><time>2026-05-03T08:52:31.084Z</time></trkpt><trkpt lat="45.6099272" lon="11.4137109"><ele>181.0</ele><time>2026-05-03T08:52:32.085Z</time></trkpt><trkpt lat="45.6098515" lon="11.4137095"><ele>181.0</ele><time>2026-05-03T08:52:33.084Z</time></trkpt><trkpt lat="45.609786" lon="11.4137463"><ele>181.0</ele><time>2026-05-03T08:52:34.084Z</time></trkpt><trkpt lat="45.6097432" lon="11.413821"><ele>181.0</ele><time>2026-05-03T08:52:35.084Z</time></trkpt><trkpt lat="45.6097394" lon="11.4139111"><ele>181.0</ele><time>2026-05-03T08:52:36.084Z</time></trkpt><trkpt lat="45.6097733" lon="11.4139908"><ele>181.0</ele><time>2026-05-03T08:52:37.084Z</time></trkpt><trkpt lat="45.6098377" lon="11.4140363"><ele>183.8</ele><time>2026-05-03T08:52:38.085Z</time></trkpt><trkpt lat="45.6099185" lon="11.4140477"><ele>186.60000000000002</ele><time>2026-05-03T08:52:39.085Z</time></trkpt><trkpt lat="45.6100175" lon="11.4140512"><ele>189.4</ele><time>2026-05-03T08:52:40.084Z</time></trkpt><trkpt lat="45.6101297" lon="11.4140511"><ele>192.2</ele><time>2026-05-03T08:52:41.084Z</time></trkpt><trkpt lat="45.6102498" lon="11.4140556"><ele>195.0</ele><time>2026-05-03T08:52:42.084Z</time></trkpt><trkpt lat="45.6103741" lon="11.4140716"><ele>197.75</ele><time>2026-05-03T08:52:43.084Z</time></trkpt><trkpt lat="45.6104999" lon="11.4140815"><ele>200.5</ele><time>2026-05-03T08:52:44.085Z</time></trkpt><trkpt lat="45.6106284" lon="11.4140629"><ele>203.25</ele><time>2026-05-03T08:52:45.084Z</time></trkpt><trkpt lat="45.6107491" lon="11.4140192"><ele>206.0</ele><time>2026-05-03T08:52:46.084Z</time></trkpt><trkpt lat="45.6108576" lon="11.4139573"><ele>206.0</ele><time>2026-05-03T08:52:47.084Z</time></trkpt><trkpt lat="45.6109529" lon="11.413884"><ele>206.0</ele><time>2026-05-03T08:52:48.085Z</time></trkpt><trkpt lat="45.6110385" lon="11.4138162"><ele>206.0</ele><time>2026-05-03T08:52:49.084Z</time></trkpt><trkpt lat="45.6111267" lon="11.4137844"><ele>206.0</ele><time>2026-05-03T08:52:50.084Z</time></trkpt><trkpt lat="45.6112084" lon="11.4138009"><ele>206.0</ele><time>2026-05-03T08:52:51.083Z</time></trkpt><trkpt lat="45.6112847" lon="11.4138614"><ele>207.4</ele><time>2026-05-03T08:52:52.084Z</time></trkpt><trkpt lat="45.6113607" lon="11.4139471"><ele>208.8</ele><time>2026-05-03T08:52:53.085Z</time></trkpt><trkpt lat="45.611444" lon="11.414023"><ele>210.20000000000002</ele><time>2026-05-03T08:52:54.084Z</time></trkpt><trkpt lat="45.6115257" lon="11.4140903"><ele>211.60000000000002</ele><time>2026-05-03T08:52:55.084Z</time></trkpt><trkpt lat="45.6116253" lon="11.4140817"><ele>213.0</ele><time>2026-05-03T08:52:56.084Z</time></trkpt><trkpt lat="45.6117029" lon="11.4140427"><ele>213.0</ele><time>2026-05-03T08:52:57.084Z</time></trkpt><trkpt lat="45.6117689" lon="11.4139535"><ele>213.0</ele><time>2026-05-03T08:52:58.084Z</time></trkpt><trkpt lat="45.6118116" lon="11.4138311"><ele>213.0</ele><time>2026-05-03T08:52:59.084Z</time></trkpt><trkpt lat="45.6118488" lon="11.4137002"><ele>213.0</ele><time>2026-05-03T08:53:00.084Z</time></trkpt><trkpt lat="45.611885" lon="11.4135681"><ele>213.0</ele><time>2026-05-03T08:53:01.084Z</time></trkpt><trkpt lat="45.61193" lon="11.4134426"><ele>214.4</ele><time>2026-05-03T08:53:02.084Z</time></trkpt><trkpt lat="45.6119881" lon="11.4133284"><ele>215.8</ele><time>2026-05-03T08:53:03.085Z</time></trkpt><trkpt lat="45.612059" lon="11.4132266"><ele>217.2</ele><time>2026-05-03T08:53:04.084Z</time></trkpt><trkpt lat="45.6121363" lon="11.413134"><ele>218.6</ele><time>2026-05-03T08:53:05.084Z</time></trkpt><trkpt lat="45.6122209" lon="11.4130519"><ele>220.0</ele><time>2026-05-03T08:53:06.084Z</time></trkpt><trkpt lat="45.6123091" lon="11.4129772"><ele>220.0</ele><time>2026-05-03T08:53:07.085Z</time></trkpt><trkpt lat="45.6124004" lon="11.4129057"><ele>220.0</ele><time>2026-05-03T08:53:08.084Z</time></trkpt><trkpt lat="45.6124922" lon="11.4128434"><ele>220.0</ele><time>2026-05-03T08:53:09.084Z</time></trkpt><trkpt lat="45.612589" lon="11.4127832"><ele>220.0</ele><time>2026-05-03T08:53:10.084Z</time></trkpt><trkpt lat="45.6126826" lon="11.4127069"><ele>220.0</ele><time>2026-05-03T08:53:11.084Z</time></trkpt><trkpt lat="45.6127637" lon="11.4126204"><ele>222.8</ele><time>2026-05-03T08:53:12.084Z</time></trkpt><trkpt lat="45.612841" lon="11.4125221"><ele>225.6</ele><time>2026-05-03T08:53:13.084Z</time></trkpt><trkpt lat="45.6129087" lon="11.4124055"><ele>228.39999999999998</ele><time>2026-05-03T08:53:14.084Z</time></trkpt><trkpt lat="45.6129664" lon="11.4122803"><ele>231.2</ele><time>2026-05-03T08:53:15.084Z</time></trkpt><trkpt lat="45.6130111" lon="11.4121562"><ele>234.0</ele><time>2026-05-03T08:53:16.084Z</time></trkpt><trkpt lat="45.6130496" lon="11.4120387"><ele>234.0</ele><time>2026-05-03T08:53:17.083Z</time></trkpt><trkpt lat="45.6130843" lon="11.4119258"><ele>234.0</ele><time>2026-05-03T08:53:18.084Z</time></trkpt><trkpt lat="45.6131123" lon="11.4118285"><ele>234.0</ele><time>2026-05-03T08:53:19.084Z</time></trkpt><trkpt lat="45.6131337" lon="11.4117433"><ele>234.0</ele><time>2026-05-03T08:53:20.084Z</time></trkpt><trkpt lat="45.6131827" lon="11.4116132"><ele>234.0</ele><time>2026-05-03T08:53:22.085Z</time></trkpt><trkpt lat="45.6132638" lon="11.4115903"><ele>234.0</ele><time>2026-05-03T08:53:24.084Z</time></trkpt><trkpt lat="45.6133081" lon="11.4116811"><ele>234.0</ele><time>2026-05-03T08:53:26.084Z</time></trkpt><trkpt lat="45.6132938" lon="11.4118109"><ele>233.99999999999997</ele><time>2026-05-03T08:53:28.084Z</time></trkpt><trkpt lat="45.6132692" lon="11.4119151"><ele>233.99999999999997</ele><time>2026-05-03T08:53:29.084Z</time></trkpt><trkpt lat="45.6132385" lon="11.4120493"><ele>234.0</ele><time>2026-05-03T08:53:30.084Z</time></trkpt><trkpt lat="45.6131969" lon="11.4121972"><ele>234.0</ele><time>2026-05-03T08:53:31.084Z</time></trkpt><trkpt lat="45.6131522" lon="11.4123581"><ele>237.0</ele><time>2026-05-03T08:53:32.084Z</time></trkpt><trkpt lat="45.6131084" lon="11.4125264"><ele>240.0</ele><time>2026-05-03T08:53:33.085Z</time></trkpt><trkpt lat="45.6130632" lon="11.4126968"><ele>243.0</ele><time>2026-05-03T08:53:34.084Z</time></trkpt><trkpt lat="45.6130225" lon="11.412851"><ele>246.0</ele><time>2026-05-03T08:53:35.084Z</time></trkpt><trkpt lat="45.6129867" lon="11.4129864"><ele>249.20000000000002</ele><time>2026-05-03T08:53:36.084Z</time></trkpt><trkpt lat="45.6129547" lon="11.41312"><ele>252.40000000000003</ele><time>2026-05-03T08:53:37.084Z</time></trkpt><trkpt lat="45.6129303" lon="11.4132597"><ele>255.6</ele><time>2026-05-03T08:53:38.084Z</time></trkpt><trkpt lat="45.6129167" lon="11.4134093"><ele>258.8</ele><time>2026-05-03T08:53:39.083Z</time></trkpt><trkpt lat="45.6129128" lon="11.4135653"><ele>262.0</ele><time>2026-05-03T08:53:40.083Z</time></trkpt><trkpt lat="45.6129188" lon="11.4137266"><ele>264.75</ele><time>2026-05-03T08:53:41.084Z</time></trkpt><trkpt lat="45.6129293" lon="11.413892"><ele>267.5</ele><time>2026-05-03T08:53:42.085Z</time></trkpt><trkpt lat="45.6129444" lon="11.4140625"><ele>270.25</ele><time>2026-05-03T08:53:43.084Z</time></trkpt><trkpt lat="45.6129555" lon="11.4142383"><ele>273.0</ele><time>2026-05-03T08:53:44.084Z</time></trkpt><trkpt lat="45.6129685" lon="11.4144138"><ele>273.0</ele><time>2026-05-03T08:53:45.084Z</time></trkpt><trkpt lat="45.6129825" lon="11.41459"><ele>273.0</ele><time>2026-05-03T08:53:46.084Z</time></trkpt><trkpt lat="45.6130018" lon="11.4147636"><ele>273.0</ele><time>2026-05-03T08:53:47.085Z</time></trkpt><trkpt lat="45.6130249" lon="11.4149329"><ele>273.0</ele><time>2026-05-03T08:53:48.084Z</time></trkpt><trkpt lat="45.6130488" lon="11.4150942"><ele>274.0</ele><time>2026-05-03T08:53:49.085Z</time></trkpt><trkpt lat="45.6130732" lon="11.4152488"><ele>275.0</ele><time>2026-05-03T08:53:50.084Z</time></trkpt><trkpt lat="45.6130962" lon="11.4153938"><ele>276.0</ele><time>2026-05-03T08:53:51.084Z</time></trkpt><trkpt lat="45.6131159" lon="11.4155303"><ele>277.0</ele><time>2026-05-03T08:53:52.084Z</time></trkpt><trkpt lat="45.6131386" lon="11.4156576"><ele>278.0</ele><time>2026-05-03T08:53:53.085Z</time></trkpt><trkpt lat="45.6131572" lon="11.4157934"><ele>278.0</ele><time>2026-05-03T08:53:54.086Z</time></trkpt><trkpt lat="45.613172" lon="11.4159243"><ele>278.0</ele><time>2026-05-03T08:53:55.084Z</time></trkpt><trkpt lat="45.6131709" lon="11.4160473"><ele>278.0</ele><time>2026-05-03T08:53:56.084Z</time></trkpt><trkpt lat="45.6131478" lon="11.4161495"><ele>278.0</ele><time>2026-05-03T08:53:57.083Z</time></trkpt><trkpt lat="45.6130969" lon="11.4162197"><ele>278.0</ele><time>2026-05-03T08:53:58.086Z</time></trkpt><trkpt lat="45.6130228" lon="11.4162428"><ele>278.0</ele><time>2026-05-03T08:53:59.084Z</time></trkpt><trkpt lat="45.6129458" lon="11.4162193"><ele>278.0</ele><time>2026-05-03T08:54:00.084Z</time></trkpt><trkpt lat="45.6128603" lon="11.416175"><ele>278.0</ele><time>2026-05-03T08:54:01.084Z</time></trkpt><trkpt lat="45.6127641" lon="11.4161482"><ele>278.0</ele><time>2026-05-03T08:54:02.084Z</time></trkpt><trkpt lat="45.6126662" lon="11.4161407"><ele>278.0</ele><time>2026-05-03T08:54:03.085Z</time></trkpt><trkpt lat="45.6125704" lon="11.4161513"><ele>278.0</ele><time>2026-05-03T08:54:04.084Z</time></trkpt><trkpt lat="45.6124711" lon="11.4161697"><ele>279.6</ele><time>2026-05-03T08:54:05.084Z</time></trkpt><trkpt lat="45.6123726" lon="11.4162046"><ele>281.20000000000005</ele><time>2026-05-03T08:54:06.084Z</time></trkpt><trkpt lat="45.6122746" lon="11.4162548"><ele>282.8</ele><time>2026-05-03T08:54:07.084Z</time></trkpt><trkpt lat="45.6121779" lon="11.416325"><ele>284.40000000000003</ele><time>2026-05-03T08:54:08.085Z</time></trkpt><trkpt lat="45.6120889" lon="11.4164146"><ele>286.0</ele><time>2026-05-03T08:54:09.084Z</time></trkpt><trkpt lat="45.6120029" lon="11.4165187"><ele>284.6</ele><time>2026-05-03T08:54:10.085Z</time></trkpt><trkpt lat="45.6119195" lon="11.4166223"><ele>283.20000000000005</ele><time>2026-05-03T08:54:11.084Z</time></trkpt><trkpt lat="45.6118304" lon="11.4167022"><ele>281.79999999999995</ele><time>2026-05-03T08:54:12.084Z</time></trkpt><trkpt lat="45.6117354" lon="11.4167347"><ele>280.4</ele><time>2026-05-03T08:54:13.084Z</time></trkpt><trkpt lat="45.6116455" lon="11.4167217"><ele>279.0</ele><time>2026-05-03T08:54:14.084Z</time></trkpt><trkpt lat="45.6115564" lon="11.4166896"><ele>279.0</ele><time>2026-05-03T08:54:15.084Z</time></trkpt><trkpt lat="45.6114601" lon="11.4166528"><ele>279.0</ele><time>2026-05-03T08:54:16.084Z</time></trkpt><trkpt lat="45.6113619" lon="11.4166131"><ele>279.0</ele><time>2026-05-03T08:54:17.084Z</time></trkpt><trkpt lat="45.6112686" lon="11.4165733"><ele>279.0</ele><time>2026-05-03T08:54:18.084Z</time></trkpt><trkpt lat="45.6111917" lon="11.4165503"><ele>279.0</ele><time>2026-05-03T08:54:19.084Z</time></trkpt><trkpt lat="45.6110963" lon="11.4166144"><ele>279.0</ele><time>2026-05-03T08:54:21.084Z</time></trkpt><trkpt lat="45.6111251" lon="11.4167298"><ele>279.0</ele><time>2026-05-03T08:54:23.084Z</time></trkpt><trkpt lat="45.6112328" lon="11.4167723"><ele>279.0</ele><time>2026-05-03T08:54:25.084Z</time></trkpt><trkpt lat="45.6113602" lon="11.4167865"><ele>279.0</ele><time>2026-05-03T08:54:27.084Z</time></trkpt><trkpt lat="45.6114295" lon="11.4167972"><ele>279.0</ele><time>2026-05-03T08:54:28.085Z</time></trkpt><trkpt lat="45.6115003" lon="11.4168143"><ele>279.0</ele><time>2026-05-03T08:54:29.084Z</time></trkpt><trkpt lat="45.6115747" lon="11.4168502"><ele>279.0</ele><time>2026-05-03T08:54:30.086Z</time></trkpt><trkpt lat="45.6116443" lon="11.4169064"><ele>279.0</ele><time>2026-05-03T08:54:31.084Z</time></trkpt><trkpt lat="45.6117082" lon="11.4169705"><ele>279.0</ele><time>2026-05-03T08:54:32.084Z</time></trkpt><trkpt lat="45.6117749" lon="11.4170101"><ele>279.0</ele><time>2026-05-03T08:54:33.084Z</time></trkpt><trkpt lat="45.6118475" lon="11.417013"><ele>279.0</ele><time>2026-05-03T08:54:34.084Z</time></trkpt><trkpt lat="45.6119219" lon="11.4169736"><ele>280.4</ele><time>2026-05-03T08:54:35.084Z</time></trkpt><trkpt lat="45.612" lon="11.4169168"><ele>281.79999999999995</ele><time>2026-05-03T08:54:36.084Z</time></trkpt><trkpt lat="45.6120817" lon="11.416851"><ele>283.20000000000005</ele><time>2026-05-03T08:54:37.084Z</time></trkpt><trkpt lat="45.6121668" lon="11.4167838"><ele>284.6</ele><time>2026-05-03T08:54:38.085Z</time></trkpt><trkpt lat="45.6122569" lon="11.4167167"><ele>286.0</ele><time>2026-05-03T08:54:39.084Z</time></trkpt><trkpt lat="45.6123454" lon="11.4166617"><ele>286.0</ele><time>2026-05-03T08:54:40.084Z</time></trkpt><trkpt lat="45.6124402" lon="11.416646"><ele>286.0</ele><time>2026-05-03T08:54:41.084Z</time></trkpt><trkpt lat="45.6125317" lon="11.4166733"><ele>286.0</ele><time>2026-05-03T08:54:42.084Z</time></trkpt><trkpt lat="45.6126194" lon="11.4167418"><ele>286.0</ele><time>2026-05-03T08:54:43.084Z</time></trkpt><trkpt lat="45.6126985" lon="11.4168395"><ele>286.0</ele><time>2026-05-03T08:54:44.084Z</time></trkpt><trkpt lat="45.6127719" lon="11.4169571"><ele>285.8</ele><time>2026-05-03T08:54:45.084Z</time></trkpt><trkpt lat="45.6128377" lon="11.4170808"><ele>285.6</ele><time>2026-05-03T08:54:46.084Z</time></trkpt><trkpt lat="45.6128996" lon="11.4172021"><ele>285.4</ele><time>2026-05-03T08:54:47.084Z</time></trkpt><trkpt lat="45.6129652" lon="11.4173031"><ele>285.2</ele><time>2026-05-03T08:54:48.084Z</time></trkpt><trkpt lat="45.6130264" lon="11.4173855"><ele>285.0</ele><time>2026-05-03T08:54:49.084Z</time></trkpt><trkpt lat="45.6130908" lon="11.4174591"><ele>287.3333333333333</ele><time>2026-05-03T08:54:50.084Z</time></trkpt><trkpt lat="45.6131444" lon="11.4175216"><ele>289.6666666666667</ele><time>2026-05-03T08:54:51.084Z</time></trkpt><trkpt lat="45.6132095" lon="11.4176692"><ele>292.0</ele><time>2026-05-03T08:54:53.085Z</time></trkpt><trkpt lat="45.613223" lon="11.4177683"><ele>294.33333333333337</ele><time>2026-05-03T08:54:54.084Z</time></trkpt><trkpt lat="45.6132264" lon="11.4178757"><ele>296.6666666666667</ele><time>2026-05-03T08:54:55.084Z</time></trkpt><trkpt lat="45.6132296" lon="11.4179879"><ele>299.0</ele><time>2026-05-03T08:54:56.084Z</time></trkpt><trkpt lat="45.61326" lon="11.4180918"><ele>301.0</ele><time>2026-05-03T08:54:57.084Z</time></trkpt><trkpt lat="45.6132942" lon="11.4181756"><ele>303.0</ele><time>2026-05-03T08:54:58.084Z</time></trkpt><trkpt lat="45.6133614" lon="11.4182319"><ele>305.0</ele><time>2026-05-03T08:54:59.084Z</time></trkpt><trkpt lat="45.6134343" lon="11.4182532"><ele>307.0</ele><time>2026-05-03T08:55:00.084Z</time></trkpt><trkpt lat="45.6135101" lon="11.4182454"><ele>309.0</ele><time>2026-05-03T08:55:01.085Z</time></trkpt><trkpt lat="45.6135825" lon="11.4182028"><ele>311.0</ele><time>2026-05-03T08:55:02.084Z</time></trkpt><trkpt lat="45.6136419" lon="11.4181282"><ele>311.0</ele><time>2026-05-03T08:55:03.084Z</time></trkpt><trkpt lat="45.6136935" lon="11.4180533"><ele>311.0</ele><time>2026-05-03T08:55:04.084Z</time></trkpt><trkpt lat="45.6137898" lon="11.418023"><ele>311.0</ele><time>2026-05-03T08:55:06.085Z</time></trkpt><trkpt lat="45.613807" lon="11.4181564"><ele>311.0</ele><time>2026-05-03T08:55:08.084Z</time></trkpt><trkpt lat="45.613769" lon="11.4182316"><ele>311.0</ele><time>2026-05-03T08:55:09.084Z</time></trkpt><trkpt lat="45.6136987" lon="11.4182956"><ele>311.0</ele><time>2026-05-03T08:55:10.084Z</time></trkpt><trkpt lat="45.6136167" lon="11.4183643"><ele>311.0</ele><time>2026-05-03T08:55:11.084Z</time></trkpt><trkpt lat="45.6135292" lon="11.4184353"><ele>311.0</ele><time>2026-05-03T08:55:12.084Z</time></trkpt><trkpt lat="45.6134395" lon="11.4184988"><ele>311.0</ele><time>2026-05-03T08:55:13.084Z</time></trkpt><trkpt lat="45.6133584" lon="11.4185536"><ele>311.0</ele><time>2026-05-03T08:55:14.085Z</time></trkpt><trkpt lat="45.6132955" lon="11.4186006"><ele>311.0</ele><time>2026-05-03T08:55:15.084Z</time></trkpt><trkpt lat="45.6132264" lon="11.4186775"><ele>311.0</ele><time>2026-05-03T08:55:17.084Z</time></trkpt><trkpt lat="45.6131595" lon="11.4187358"><ele>311.0</ele><time>2026-05-03T08:55:19.084Z</time></trkpt><trkpt lat="45.6130364" lon="11.4187865"><ele>311.0</ele><time>2026-05-03T08:55:21.085Z</time></trkpt><trkpt lat="45.6129609" lon="11.4188171"><ele>311.0</ele><time>2026-05-03T08:55:22.084Z</time></trkpt><trkpt lat="45.6128752" lon="11.4188426"><ele>311.0</ele><time>2026-05-03T08:55:23.084Z</time></trkpt><trkpt lat="45.6127872" lon="11.4188649"><ele>311.0</ele><time>2026-05-03T08:55:24.084Z</time></trkpt><trkpt lat="45.6127017" lon="11.4188988"><ele>312.8</ele><time>2026-05-03T08:55:25.084Z</time></trkpt><trkpt lat="45.6126188" lon="11.4189696"><ele>314.6</ele><time>2026-05-03T08:55:26.084Z</time></trkpt><trkpt lat="45.6125511" lon="11.4190711"><ele>316.4</ele><time>2026-05-03T08:55:27.084Z</time></trkpt><trkpt lat="45.612492" lon="11.419193"><ele>318.2</ele><time>2026-05-03T08:55:28.084Z</time></trkpt><trkpt lat="45.6124302" lon="11.4193189"><ele>320.0</ele><time>2026-05-03T08:55:29.085Z</time></trkpt><trkpt lat="45.6123608" lon="11.4194404"><ele>320.0</ele><time>2026-05-03T08:55:30.084Z</time></trkpt><trkpt lat="45.6122833" lon="11.4195542"><ele>320.0</ele><time>2026-05-03T08:55:31.084Z</time></trkpt><trkpt lat="45.6121954" lon="11.4196571"><ele>320.0</ele><time>2026-05-03T08:55:32.084Z</time></trkpt><trkpt lat="45.6121005" lon="11.4197633"><ele>320.0</ele><time>2026-05-03T08:55:33.085Z</time></trkpt><trkpt lat="45.6120041" lon="11.419872"><ele>322.25</ele><time>2026-05-03T08:55:34.084Z</time></trkpt><trkpt lat="45.6119007" lon="11.4199834"><ele>324.5</ele><time>2026-05-03T08:55:35.084Z</time></trkpt><trkpt lat="45.6117996" lon="11.4200835"><ele>326.75</ele><time>2026-05-03T08:55:36.085Z</time></trkpt><trkpt lat="45.6117023" lon="11.4201721"><ele>329.0</ele><time>2026-05-03T08:55:37.085Z</time></trkpt><trkpt lat="45.6116014" lon="11.4202477"><ele>329.0</ele><time>2026-05-03T08:55:38.084Z</time></trkpt><trkpt lat="45.6114952" lon="11.4203103"><ele>329.0</ele><time>2026-05-03T08:55:39.084Z</time></trkpt><trkpt lat="45.6113789" lon="11.4203627"><ele>329.0</ele><time>2026-05-03T08:55:40.084Z</time></trkpt><trkpt lat="45.6112521" lon="11.420405"><ele>329.0</ele><time>2026-05-03T08:55:41.084Z</time></trkpt><trkpt lat="45.6111227" lon="11.4204354"><ele>327.25</ele><time>2026-05-03T08:55:42.084Z</time></trkpt><trkpt lat="45.6109959" lon="11.4204616"><ele>325.5</ele><time>2026-05-03T08:55:43.085Z</time></trkpt><trkpt lat="45.6108742" lon="11.4204901"><ele>323.75</ele><time>2026-05-03T08:55:44.084Z</time></trkpt><trkpt lat="45.6107491" lon="11.4205216"><ele>322.0</ele><time>2026-05-03T08:55:45.085Z</time></trkpt><trkpt lat="45.6106294" lon="11.4205467"><ele>326.75</ele><time>2026-05-03T08:55:46.084Z</time></trkpt><trkpt lat="45.6105158" lon="11.4205871"><ele>331.5</ele><time>2026-05-03T08:55:47.084Z</time></trkpt><trkpt lat="45.6104091" lon="11.4206432"><ele>336.25</ele><time>2026-05-03T08:55:48.084Z</time></trkpt><trkpt lat="45.6103076" lon="11.4207186"><ele>341.0</ele><time>2026-05-03T08:55:49.084Z</time></trkpt><trkpt lat="45.610211" lon="11.4207955"><ele>341.0</ele><time>2026-05-03T08:55:50.083Z</time></trkpt><trkpt lat="45.6101231" lon="11.4208657"><ele>341.0</ele><time>2026-05-03T08:55:51.084Z</time></trkpt><trkpt lat="45.6100423" lon="11.4209357"><ele>341.0</ele><time>2026-05-03T08:55:52.085Z</time></trkpt><trkpt lat="45.6099699" lon="11.4210083"><ele>341.0</ele><time>2026-05-03T08:55:53.084Z</time></trkpt><trkpt lat="45.6099142" lon="11.4210838"><ele>341.0</ele><time>2026-05-03T08:55:54.084Z</time></trkpt><trkpt lat="45.6098886" lon="11.421174"><ele>341.0</ele><time>2026-05-03T08:55:55.084Z</time></trkpt><trkpt lat="45.6098973" lon="11.4212688"><ele>342.20000000000005</ele><time>2026-05-03T08:55:56.085Z</time></trkpt><trkpt lat="45.6099321" lon="11.4213769"><ele>343.40000000000003</ele><time>2026-05-03T08:55:57.085Z</time></trkpt><trkpt lat="45.6099787" lon="11.4215035"><ele>344.6</ele><time>2026-05-03T08:55:58.084Z</time></trkpt><trkpt lat="45.6100283" lon="11.4216449"><ele>345.8</ele><time>2026-05-03T08:55:59.085Z</time></trkpt><trkpt lat="45.6100759" lon="11.4217965"><ele>347.0</ele><time>2026-05-03T08:56:00.085Z</time></trkpt><trkpt lat="45.6101247" lon="11.4219546"><ele>347.0</ele><time>2026-05-03T08:56:01.084Z</time></trkpt><trkpt lat="45.6101736" lon="11.422118"><ele>347.0</ele><time>2026-05-03T08:56:02.084Z</time></trkpt><trkpt lat="45.6102213" lon="11.4222797"><ele>347.0</ele><time>2026-05-03T08:56:03.084Z</time></trkpt><trkpt lat="45.6102681" lon="11.4224398"><ele>347.0</ele><time>2026-05-03T08:56:04.084Z</time></trkpt><trkpt lat="45.610317" lon="11.4226024"><ele>350.0</ele><time>2026-05-03T08:56:05.084Z</time></trkpt><trkpt lat="45.6103635" lon="11.4227665"><ele>353.0</ele><time>2026-05-03T08:56:06.084Z</time></trkpt><trkpt lat="45.6103955" lon="11.4229302"><ele>356.0</ele><time>2026-05-03T08:56:07.084Z</time></trkpt><trkpt lat="45.6104119" lon="11.423106"><ele>359.0</ele><time>2026-05-03T08:56:08.084Z</time></trkpt><trkpt lat="45.6104159" lon="11.4232874"><ele>359.0</ele><time>2026-05-03T08:56:09.085Z</time></trkpt><trkpt lat="45.6104092" lon="11.4234637"><ele>359.0</ele><time>2026-05-03T08:56:10.085Z</time></trkpt><trkpt lat="45.6103959" lon="11.4236239"><ele>359.0</ele><time>2026-05-03T08:56:11.084Z</time></trkpt><trkpt lat="45.6103934" lon="11.4237761"><ele>359.0</ele><time>2026-05-03T08:56:12.084Z</time></trkpt><trkpt lat="45.6103952" lon="11.4239265"><ele>359.0</ele><time>2026-05-03T08:56:13.084Z</time></trkpt><trkpt lat="45.610394" lon="11.4240743"><ele>360.0</ele><time>2026-05-03T08:56:14.084Z</time></trkpt><trkpt lat="45.6103839" lon="11.4242236"><ele>361.0</ele><time>2026-05-03T08:56:15.085Z</time></trkpt><trkpt lat="45.6103646" lon="11.4243771"><ele>362.0</ele><time>2026-05-03T08:56:16.085Z</time></trkpt><trkpt lat="45.6103306" lon="11.4245307"><ele>363.0</ele><time>2026-05-03T08:56:17.085Z</time></trkpt><trkpt lat="45.6102888" lon="11.4246866"><ele>364.0</ele><time>2026-05-03T08:56:18.084Z</time></trkpt><trkpt lat="45.6102517" lon="11.4248513"><ele>360.5</ele><time>2026-05-03T08:56:19.085Z</time></trkpt><trkpt lat="45.6102121" lon="11.4250174"><ele>357.0</ele><time>2026-05-03T08:56:20.084Z</time></trkpt><trkpt lat="45.6101733" lon="11.4251876"><ele>353.5</ele><time>2026-05-03T08:56:21.085Z</time></trkpt><trkpt lat="45.610137" lon="11.4253664"><ele>350.0</ele><time>2026-05-03T08:56:22.085Z</time></trkpt><trkpt lat="45.6101025" lon="11.4255484"><ele>350.0</ele><time>2026-05-03T08:56:23.084Z</time></trkpt><trkpt lat="45.6100675" lon="11.4257287"><ele>350.0</ele><time>2026-05-03T08:56:24.084Z</time></trkpt><trkpt lat="45.6100389" lon="11.4259028"><ele>350.0</ele><time>2026-05-03T08:56:25.084Z</time></trkpt><trkpt lat="45.6100131" lon="11.4260654"><ele>350.0</ele><time>2026-05-03T08:56:26.085Z</time></trkpt><trkpt lat="45.6099868" lon="11.4262152"><ele>352.2</ele><time>2026-05-03T08:56:27.085Z</time></trkpt><trkpt lat="45.6099606" lon="11.426357"><ele>354.4</ele><time>2026-05-03T08:56:28.084Z</time></trkpt><trkpt lat="45.6099291" lon="11.4264873"><ele>356.6</ele><time>2026-05-03T08:56:29.084Z</time></trkpt><trkpt lat="45.6098948" lon="11.4266024"><ele>358.8</ele><time>2026-05-03T08:56:30.084Z</time></trkpt><trkpt lat="45.6098571" lon="11.426712"><ele>361.0</ele><time>2026-05-03T08:56:31.084Z</time></trkpt><trkpt lat="45.6098154" lon="11.4268186"><ele>361.0</ele><time>2026-05-03T08:56:32.084Z</time></trkpt><trkpt lat="45.6097637" lon="11.4269138"><ele>361.0</ele><time>2026-05-03T08:56:33.084Z</time></trkpt><trkpt lat="45.6097084" lon="11.4270097"><ele>361.0</ele><time>2026-05-03T08:56:34.084Z</time></trkpt><trkpt lat="45.6096471" lon="11.4271079"><ele>361.0</ele><time>2026-05-03T08:56:35.084Z</time></trkpt><trkpt lat="45.6095876" lon="11.427202"><ele>361.0</ele><time>2026-05-03T08:56:36.085Z</time></trkpt><trkpt lat="45.6095392" lon="11.4272977"><ele>361.0</ele><time>2026-05-03T08:56:37.085Z</time></trkpt><trkpt lat="45.6095028" lon="11.427394"><ele>359.5</ele><time>2026-05-03T08:56:38.085Z</time></trkpt><trkpt lat="45.6094792" lon="11.4274999"><ele>358.0</ele><time>2026-05-03T08:56:39.084Z</time></trkpt><trkpt lat="45.6094654" lon="11.4276058"><ele>356.5</ele><time>2026-05-03T08:56:40.084Z</time></trkpt><trkpt lat="45.6094447" lon="11.4277045"><ele>355.0</ele><time>2026-05-03T08:56:41.084Z</time></trkpt><trkpt lat="45.6094083" lon="11.4277972"><ele>353.5</ele><time>2026-05-03T08:56:42.084Z</time></trkpt><trkpt lat="45.6093576" lon="11.4278849"><ele>352.0</ele><time>2026-05-03T08:56:43.084Z</time></trkpt><trkpt lat="45.609298" lon="11.4279781"><ele>352.0</ele><time>2026-05-03T08:56:44.084Z</time></trkpt><trkpt lat="45.6092312" lon="11.4280779"><ele>352.0</ele><time>2026-05-03T08:56:45.084Z</time></trkpt><trkpt lat="45.6091621" lon="11.428184"><ele>352.0</ele><time>2026-05-03T08:56:46.084Z</time></trkpt><trkpt lat="45.6090956" lon="11.428291"><ele>352.0</ele><time>2026-05-03T08:56:47.084Z</time></trkpt><trkpt lat="45.6090276" lon="11.4283978"><ele>352.0</ele><time>2026-05-03T08:56:48.084Z</time></trkpt><trkpt lat="45.6089611" lon="11.4284988"><ele>352.0</ele><time>2026-05-03T08:56:49.085Z</time></trkpt><trkpt lat="45.6088917" lon="11.4285902"><ele>352.0</ele><time>2026-05-03T08:56:50.083Z</time></trkpt><trkpt lat="45.6088217" lon="11.4286798"><ele>352.0</ele><time>2026-05-03T08:56:51.084Z</time></trkpt><trkpt lat="45.6087492" lon="11.4287768"><ele>352.0</ele><time>2026-05-03T08:56:52.085Z</time></trkpt><trkpt lat="45.6086716" lon="11.4288821"><ele>352.0</ele><time>2026-05-03T08:56:53.085Z</time></trkpt><trkpt lat="45.608589" lon="11.4289891"><ele>350.25</ele><time>2026-05-03T08:56:54.084Z</time></trkpt><trkpt lat="45.6084978" lon="11.4290996"><ele>348.5</ele><time>2026-05-03T08:56:55.084Z</time></trkpt><trkpt lat="45.6083972" lon="11.4292125"><ele>346.75</ele><time>2026-05-03T08:56:56.084Z</time></trkpt><trkpt lat="45.608288" lon="11.4293184"><ele>345.0</ele><time>2026-05-03T08:56:57.084Z</time></trkpt><trkpt lat="45.60818" lon="11.4294212"><ele>345.0</ele><time>2026-05-03T08:56:58.085Z</time></trkpt><trkpt lat="45.6080727" lon="11.4295186"><ele>345.0</ele><time>2026-05-03T08:56:59.085Z</time></trkpt><trkpt lat="45.6079712" lon="11.4296031"><ele>345.0</ele><time>2026-05-03T08:57:00.084Z</time></trkpt><trkpt lat="45.607878" lon="11.4296756"><ele>345.0</ele><time>2026-05-03T08:57:01.084Z</time></trkpt><trkpt lat="45.6077923" lon="11.4297388"><ele>345.0</ele><time>2026-05-03T08:57:02.084Z</time></trkpt><trkpt lat="45.6077037" lon="11.4297916"><ele>343.4</ele><time>2026-05-03T08:57:03.084Z</time></trkpt><trkpt lat="45.6076143" lon="11.4298308"><ele>341.8</ele><time>2026-05-03T08:57:04.083Z</time></trkpt><trkpt lat="45.6075204" lon="11.4298571"><ele>340.20000000000005</ele><time>2026-05-03T08:57:05.084Z</time></trkpt><trkpt lat="45.6074225" lon="11.4298936"><ele>338.6</ele><time>2026-05-03T08:57:06.083Z</time></trkpt><trkpt lat="45.6073294" lon="11.4299424"><ele>337.0</ele><time>2026-05-03T08:57:07.084Z</time></trkpt><trkpt lat="45.607246" lon="11.4300127"><ele>337.0</ele><time>2026-05-03T08:57:08.084Z</time></trkpt><trkpt lat="45.6071676" lon="11.4300866"><ele>337.0</ele><time>2026-05-03T08:57:09.084Z</time></trkpt><trkpt lat="45.6070911" lon="11.4301629"><ele>337.0</ele><time>2026-05-03T08:57:10.084Z</time></trkpt><trkpt lat="45.6070179" lon="11.4302388"><ele>337.0</ele><time>2026-05-03T08:57:11.083Z</time></trkpt><trkpt lat="45.606949" lon="11.4303149"><ele>337.0</ele><time>2026-05-03T08:57:12.084Z</time></trkpt><trkpt lat="45.6068753" lon="11.4303937"><ele>336.8</ele><time>2026-05-03T08:57:13.084Z</time></trkpt><trkpt lat="45.6067957" lon="11.4304677"><ele>336.6</ele><time>2026-05-03T08:57:14.084Z</time></trkpt><trkpt lat="45.6067058" lon="11.4305345"><ele>336.40000000000003</ele><time>2026-05-03T08:57:15.085Z</time></trkpt><trkpt lat="45.6066133" lon="11.4305934"><ele>336.20000000000005</ele><time>2026-05-03T08:57:16.084Z</time></trkpt><trkpt lat="45.6065205" lon="11.430657"><ele>336.0</ele><time>2026-05-03T08:57:17.085Z</time></trkpt><trkpt lat="45.6064236" lon="11.4307364"><ele>335.5</ele><time>2026-05-03T08:57:18.085Z</time></trkpt><trkpt lat="45.6063244" lon="11.4308508"><ele>335.0</ele><time>2026-05-03T08:57:19.084Z</time></trkpt><trkpt lat="45.6062129" lon="11.4309991"><ele>334.5</ele><time>2026-05-03T08:57:20.084Z</time></trkpt><trkpt lat="45.6060905" lon="11.4311546"><ele>334.0</ele><time>2026-05-03T08:57:21.084Z</time></trkpt><trkpt lat="45.6059668" lon="11.4313041"><ele>329.3333333333333</ele><time>2026-05-03T08:57:22.085Z</time></trkpt><trkpt lat="45.6058448" lon="11.4314522"><ele>324.6666666666667</ele><time>2026-05-03T08:57:23.084Z</time></trkpt><trkpt lat="45.6057215" lon="11.4315938"><ele>320.0</ele><time>2026-05-03T08:57:24.084Z</time></trkpt><trkpt lat="45.6056023" lon="11.4317295"><ele>320.0</ele><time>2026-05-03T08:57:25.084Z</time></trkpt><trkpt lat="45.6054933" lon="11.4318583"><ele>320.0</ele><time>2026-05-03T08:57:26.084Z</time></trkpt><trkpt lat="45.6053842" lon="11.4319828"><ele>320.0</ele><time>2026-05-03T08:57:27.084Z</time></trkpt><trkpt lat="45.6052741" lon="11.4321106"><ele>320.0</ele><time>2026-05-03T08:57:28.085Z</time></trkpt><trkpt lat="45.6051709" lon="11.4322419"><ele>319.75</ele><time>2026-05-03T08:57:29.084Z</time></trkpt><trkpt lat="45.6050743" lon="11.4323744"><ele>319.5</ele><time>2026-05-03T08:57:30.085Z</time></trkpt><trkpt lat="45.6049888" lon="11.4325135"><ele>319.25</ele><time>2026-05-03T08:57:31.084Z</time></trkpt><trkpt lat="45.6049019" lon="11.4326568"><ele>319.0</ele><time>2026-05-03T08:57:32.085Z</time></trkpt><trkpt lat="45.6048142" lon="11.4327999"><ele>319.0</ele><time>2026-05-03T08:57:33.084Z</time></trkpt><trkpt lat="45.6047258" lon="11.4329383"><ele>319.0</ele><time>2026-05-03T08:57:34.084Z</time></trkpt><trkpt lat="45.6046363" lon="11.4330728"><ele>319.0</ele><time>2026-05-03T08:57:35.084Z</time></trkpt><trkpt lat="45.6045528" lon="11.4332007"><ele>319.0</ele><time>2026-05-03T08:57:36.085Z</time></trkpt><trkpt lat="45.6044704" lon="11.4333252"><ele>318.5</ele><time>2026-05-03T08:57:37.084Z</time></trkpt><trkpt lat="45.6043905" lon="11.4334467"><ele>318.0</ele><time>2026-05-03T08:57:38.084Z</time></trkpt><trkpt lat="45.6043086" lon="11.4335795"><ele>317.5</ele><time>2026-05-03T08:57:39.084Z</time></trkpt><trkpt lat="45.6042312" lon="11.4337239"><ele>317.0</ele><time>2026-05-03T08:57:40.084Z</time></trkpt><trkpt lat="45.6041502" lon="11.4338694"><ele>315.75</ele><time>2026-05-03T08:57:41.084Z</time></trkpt><trkpt lat="45.6040721" lon="11.4340251"><ele>314.5</ele><time>2026-05-03T08:57:42.084Z</time></trkpt><trkpt lat="45.6039956" lon="11.4341838"><ele>313.25</ele><time>2026-05-03T08:57:43.084Z</time></trkpt><trkpt lat="45.6039205" lon="11.4343288"><ele>312.0</ele><time>2026-05-03T08:57:44.085Z</time></trkpt><trkpt lat="45.6038513" lon="11.4344601"><ele>312.0</ele><time>2026-05-03T08:57:45.084Z</time></trkpt><trkpt lat="45.6037909" lon="11.4345799"><ele>312.0</ele><time>2026-05-03T08:57:46.084Z</time></trkpt><trkpt lat="45.6037267" lon="11.4346993"><ele>312.0</ele><time>2026-05-03T08:57:47.084Z</time></trkpt><trkpt lat="45.6036582" lon="11.4348202"><ele>312.0</ele><time>2026-05-03T08:57:48.085Z</time></trkpt><trkpt lat="45.6035864" lon="11.4349336"><ele>312.0</ele><time>2026-05-03T08:57:49.084Z</time></trkpt><trkpt lat="45.6035103" lon="11.4350361"><ele>314.2</ele><time>2026-05-03T08:57:50.085Z</time></trkpt><trkpt lat="45.6034352" lon="11.4351286"><ele>316.4</ele><time>2026-05-03T08:57:51.084Z</time></trkpt><trkpt lat="45.6033598" lon="11.4352172"><ele>318.59999999999997</ele><time>2026-05-03T08:57:52.084Z</time></trkpt><trkpt lat="45.6032845" lon="11.4353061"><ele>320.79999999999995</ele><time>2026-05-03T08:57:53.084Z</time></trkpt><trkpt lat="45.6032101" lon="11.4354031"><ele>323.0</ele><time>2026-05-03T08:57:54.085Z</time></trkpt><trkpt lat="45.6031313" lon="11.4355022"><ele>322.59999999999997</ele><time>2026-05-03T08:57:55.084Z</time></trkpt><trkpt lat="45.6030467" lon="11.4356002"><ele>322.2</ele><time>2026-05-03T08:57:56.084Z</time></trkpt><trkpt lat="45.602953" lon="11.4356853"><ele>321.8</ele><time>2026-05-03T08:57:57.084Z</time></trkpt><trkpt lat="45.6028592" lon="11.4357544"><ele>321.4</ele><time>2026-05-03T08:57:58.084Z</time></trkpt><trkpt lat="45.6027668" lon="11.4358181"><ele>321.0</ele><time>2026-05-03T08:57:59.084Z</time></trkpt><trkpt lat="45.6026802" lon="11.4358917"><ele>321.0</ele><time>2026-05-03T08:58:00.084Z</time></trkpt><trkpt lat="45.6025965" lon="11.4359784"><ele>321.0</ele><time>2026-05-03T08:58:01.084Z</time></trkpt><trkpt lat="45.6025082" lon="11.4360732"><ele>321.0</ele><time>2026-05-03T08:58:02.084Z</time></trkpt><trkpt lat="45.6024184" lon="11.4361733"><ele>321.0</ele><time>2026-05-03T08:58:03.084Z</time></trkpt><trkpt lat="45.6023302" lon="11.4362706"><ele>321.0</ele><time>2026-05-03T08:58:04.085Z</time></trkpt><trkpt lat="45.6022408" lon="11.4363708"><ele>321.5</ele><time>2026-05-03T08:58:05.084Z</time></trkpt><trkpt lat="45.6021464" lon="11.4364609"><ele>322.0</ele><time>2026-05-03T08:58:06.084Z</time></trkpt><trkpt lat="45.6020464" lon="11.4365401"><ele>322.5</ele><time>2026-05-03T08:58:07.085Z</time></trkpt><trkpt lat="45.6019475" lon="11.4366077"><ele>323.0</ele><time>2026-05-03T08:58:08.085Z</time></trkpt><trkpt lat="45.6018431" lon="11.4366734"><ele>323.0</ele><time>2026-05-03T08:58:09.084Z</time></trkpt><trkpt lat="45.601734" lon="11.4367249"><ele>323.0</ele><time>2026-05-03T08:58:10.085Z</time></trkpt><trkpt lat="45.6016205" lon="11.4367821"><ele>323.0</ele><time>2026-05-03T08:58:11.085Z</time></trkpt><trkpt lat="45.6015075" lon="11.4368406"><ele>323.0</ele><time>2026-05-03T08:58:12.085Z</time></trkpt><trkpt lat="45.6014046" lon="11.4369073"><ele>323.0</ele><time>2026-05-03T08:58:13.084Z</time></trkpt><trkpt lat="45.6013105" lon="11.4369852"><ele>323.0</ele><time>2026-05-03T08:58:14.084Z</time></trkpt><trkpt lat="45.6012274" lon="11.4370775"><ele>323.0</ele><time>2026-05-03T08:58:15.084Z</time></trkpt><trkpt lat="45.6011475" lon="11.4371801"><ele>323.0</ele><time>2026-05-03T08:58:16.084Z</time></trkpt><trkpt lat="45.6010693" lon="11.4372883"><ele>323.0</ele><time>2026-05-03T08:58:17.085Z</time></trkpt><trkpt lat="45.6009858" lon="11.4373975"><ele>323.25</ele><time>2026-05-03T08:58:18.084Z</time></trkpt><trkpt lat="45.6008962" lon="11.4374967"><ele>323.5</ele><time>2026-05-03T08:58:19.084Z</time></trkpt><trkpt lat="45.6007974" lon="11.4375814"><ele>323.75</ele><time>2026-05-03T08:58:20.085Z</time></trkpt><trkpt lat="45.6006962" lon="11.437651"><ele>324.0</ele><time>2026-05-03T08:58:21.084Z</time></trkpt><trkpt lat="45.6005921" lon="11.4377033"><ele>324.0</ele><time>2026-05-03T08:58:22.084Z</time></trkpt><trkpt lat="45.6004907" lon="11.43775"><ele>324.0</ele><time>2026-05-03T08:58:23.084Z</time></trkpt><trkpt lat="45.6003918" lon="11.4377965"><ele>324.0</ele><time>2026-05-03T08:58:24.084Z</time></trkpt><trkpt lat="45.6002992" lon="11.437846"><ele>324.0</ele><time>2026-05-03T08:58:25.084Z</time></trkpt><trkpt lat="45.6002065" lon="11.4379072"><ele>324.0</ele><time>2026-05-03T08:58:26.085Z</time></trkpt><trkpt lat="45.6001105" lon="11.4379726"><ele>324.6</ele><time>2026-05-03T08:58:27.084Z</time></trkpt><trkpt lat="45.6000231" lon="11.4380408"><ele>325.2</ele><time>2026-05-03T08:58:28.084Z</time></trkpt><trkpt lat="45.5999461" lon="11.4381164"><ele>325.8</ele><time>2026-05-03T08:58:29.085Z</time></trkpt><trkpt lat="45.5998832" lon="11.4382015"><ele>326.40000000000003</ele><time>2026-05-03T08:58:30.085Z</time></trkpt><trkpt lat="45.5998329" lon="11.4382998"><ele>327.0</ele><time>2026-05-03T08:58:31.084Z</time></trkpt><trkpt lat="45.5997989" lon="11.4384112"><ele>327.0</ele><time>2026-05-03T08:58:32.084Z</time></trkpt><trkpt lat="45.5997789" lon="11.43854"><ele>327.0</ele><time>2026-05-03T08:58:33.084Z</time></trkpt><trkpt lat="45.599776" lon="11.4386798"><ele>327.0</ele><time>2026-05-03T08:58:34.085Z</time></trkpt><trkpt lat="45.5997774" lon="11.4388249"><ele>327.0</ele><time>2026-05-03T08:58:35.084Z</time></trkpt><trkpt lat="45.5997868" lon="11.438979"><ele>327.0</ele><time>2026-05-03T08:58:36.084Z</time></trkpt><trkpt lat="45.5997973" lon="11.4391408"><ele>328.25</ele><time>2026-05-03T08:58:37.084Z</time></trkpt><trkpt lat="45.5997986" lon="11.4393115"><ele>329.5</ele><time>2026-05-03T08:58:38.084Z</time></trkpt><trkpt lat="45.5997823" lon="11.4394766"><ele>330.75</ele><time>2026-05-03T08:58:39.084Z</time></trkpt><trkpt lat="45.5997605" lon="11.439633"><ele>332.0</ele><time>2026-05-03T08:58:40.084Z</time></trkpt><trkpt lat="45.5997442" lon="11.4397821"><ele>332.20000000000005</ele><time>2026-05-03T08:58:41.084Z</time></trkpt><trkpt lat="45.5997394" lon="11.4399311"><ele>332.4</ele><time>2026-05-03T08:58:42.084Z</time></trkpt><trkpt lat="45.5997501" lon="11.4400815"><ele>332.6</ele><time>2026-05-03T08:58:43.084Z</time></trkpt><trkpt lat="45.599773" lon="11.4402363"><ele>332.79999999999995</ele><time>2026-05-03T08:58:44.084Z</time></trkpt><trkpt lat="45.5998049" lon="11.4403958"><ele>333.0</ele><time>2026-05-03T08:58:45.084Z</time></trkpt><trkpt lat="45.5998417" lon="11.44056"><ele>332.25</ele><time>2026-05-03T08:58:46.084Z</time></trkpt><trkpt lat="45.5998742" lon="11.4407298"><ele>331.5</ele><time>2026-05-03T08:58:47.084Z</time></trkpt><trkpt lat="45.5999093" lon="11.4409071"><ele>330.75</ele><time>2026-05-03T08:58:48.084Z</time></trkpt><trkpt lat="45.5999401" lon="11.4410866"><ele>330.0</ele><time>2026-05-03T08:58:49.084Z</time></trkpt><trkpt lat="45.5999681" lon="11.4412729"><ele>328.25</ele><time>2026-05-03T08:58:50.084Z</time></trkpt><trkpt lat="45.5999951" lon="11.4414672"><ele>326.5</ele><time>2026-05-03T08:58:51.085Z</time></trkpt><trkpt lat="45.6000181" lon="11.4416647"><ele>324.75</ele><time>2026-05-03T08:58:52.085Z</time></trkpt><trkpt lat="45.6000416" lon="11.4418625"><ele>323.0</ele><time>2026-05-03T08:58:53.084Z</time></trkpt><trkpt lat="45.6000625" lon="11.4420502"><ele>320.25</ele><time>2026-05-03T08:58:54.084Z</time></trkpt><trkpt lat="45.6000843" lon="11.4422211"><ele>317.5</ele><time>2026-05-03T08:58:55.084Z</time></trkpt><trkpt lat="45.6001093" lon="11.4423882"><ele>314.75</ele><time>2026-05-03T08:58:56.085Z</time></trkpt><trkpt lat="45.6001748" lon="11.4425124"><ele>312.0</ele><time>2026-05-03T08:58:57.084Z</time></trkpt><trkpt lat="45.6002302" lon="11.4426415"><ele>312.0</ele><time>2026-05-03T08:58:58.085Z</time></trkpt><trkpt lat="45.6002954" lon="11.4427563"><ele>312.0</ele><time>2026-05-03T08:58:59.085Z</time></trkpt><trkpt lat="45.6003722" lon="11.4428521"><ele>312.0</ele><time>2026-05-03T08:59:00.084Z</time></trkpt><trkpt lat="45.6004451" lon="11.4429375"><ele>312.0</ele><time>2026-05-03T08:59:01.084Z</time></trkpt><trkpt lat="45.6005011" lon="11.4430352"><ele>312.0</ele><time>2026-05-03T08:59:02.083Z</time></trkpt><trkpt lat="45.6005552" lon="11.4431433"><ele>315.6</ele><time>2026-05-03T08:59:03.084Z</time></trkpt><trkpt lat="45.6006063" lon="11.4432536"><ele>319.2</ele><time>2026-05-03T08:59:04.085Z</time></trkpt><trkpt lat="45.600654" lon="11.4433711"><ele>322.8</ele><time>2026-05-03T08:59:05.084Z</time></trkpt><trkpt lat="45.6007005" lon="11.4434884"><ele>326.4</ele><time>2026-05-03T08:59:06.085Z</time></trkpt><trkpt lat="45.6007374" lon="11.443628"><ele>330.0</ele><time>2026-05-03T08:59:07.084Z</time></trkpt><trkpt lat="45.6007713" lon="11.4437675"><ele>328.4</ele><time>2026-05-03T08:59:08.084Z</time></trkpt><trkpt lat="45.6007929" lon="11.4439128"><ele>326.8</ele><time>2026-05-03T08:59:09.084Z</time></trkpt><trkpt lat="45.6007981" lon="11.4440654"><ele>325.20000000000005</ele><time>2026-05-03T08:59:10.084Z</time></trkpt><trkpt lat="45.6007865" lon="11.4442147"><ele>323.6</ele><time>2026-05-03T08:59:11.084Z</time></trkpt><trkpt lat="45.6007521" lon="11.4443592"><ele>322.0</ele><time>2026-05-03T08:59:12.085Z</time></trkpt><trkpt lat="45.6007153" lon="11.4445012"><ele>322.20000000000005</ele><time>2026-05-03T08:59:13.084Z</time></trkpt><trkpt lat="45.6006822" lon="11.4446394"><ele>322.4</ele><time>2026-05-03T08:59:14.084Z</time></trkpt><trkpt lat="45.6006557" lon="11.4447711"><ele>322.6</ele><time>2026-05-03T08:59:15.084Z</time></trkpt><trkpt lat="45.6006471" lon="11.4448993"><ele>322.79999999999995</ele><time>2026-05-03T08:59:16.084Z</time></trkpt><trkpt lat="45.6006627" lon="11.4450252"><ele>323.0</ele><time>2026-05-03T08:59:17.084Z</time></trkpt><trkpt lat="45.6006893" lon="11.4451485"><ele>323.0</ele><time>2026-05-03T08:59:18.085Z</time></trkpt><trkpt lat="45.6007173" lon="11.4452703"><ele>323.0</ele><time>2026-05-03T08:59:19.085Z</time></trkpt><trkpt lat="45.600749" lon="11.4453985"><ele>323.0</ele><time>2026-05-03T08:59:20.083Z</time></trkpt><trkpt lat="45.6007709" lon="11.4455364"><ele>323.0</ele><time>2026-05-03T08:59:21.084Z</time></trkpt><trkpt lat="45.6007759" lon="11.4456829"><ele>323.0</ele><time>2026-05-03T08:59:22.084Z</time></trkpt><trkpt lat="45.6007683" lon="11.4458212"><ele>323.0</ele><time>2026-05-03T08:59:23.085Z</time></trkpt><trkpt lat="45.6007477" lon="11.4459519"><ele>323.0</ele><time>2026-05-03T08:59:24.084Z</time></trkpt><trkpt lat="45.6007189" lon="11.4460835"><ele>323.0</ele><time>2026-05-03T08:59:25.084Z</time></trkpt><trkpt lat="45.6006849" lon="11.4462175"><ele>323.0</ele><time>2026-05-03T08:59:26.084Z</time></trkpt><trkpt lat="45.6006441" lon="11.446358"><ele>323.0</ele><time>2026-05-03T08:59:27.085Z</time></trkpt><trkpt lat="45.6005971" lon="11.4465009"><ele>324.0</ele><time>2026-05-03T08:59:28.085Z</time></trkpt><trkpt lat="45.6005472" lon="11.4466474"><ele>325.0</ele><time>2026-05-03T08:59:29.084Z</time></trkpt><trkpt lat="45.6004889" lon="11.4467873"><ele>326.0</ele><time>2026-05-03T08:59:30.084Z</time></trkpt><trkpt lat="45.6004212" lon="11.446919"><ele>327.0</ele><time>2026-05-03T08:59:31.084Z</time></trkpt><trkpt lat="45.6003484" lon="11.4470451"><ele>324.5</ele><time>2026-05-03T08:59:32.084Z</time></trkpt><trkpt lat="45.6002691" lon="11.4471692"><ele>322.0</ele><time>2026-05-03T08:59:33.084Z</time></trkpt><trkpt lat="45.6001899" lon="11.4472965"><ele>319.5</ele><time>2026-05-03T08:59:34.084Z</time></trkpt><trkpt lat="45.6001184" lon="11.447425"><ele>317.0</ele><time>2026-05-03T08:59:35.083Z</time></trkpt><trkpt lat="45.6000519" lon="11.4475587"><ele>317.0</ele><time>2026-05-03T08:59:36.084Z</time></trkpt><trkpt lat="45.5999914" lon="11.4476959"><ele>317.0</ele><time>2026-05-03T08:59:37.084Z</time></trkpt><trkpt lat="45.5999359" lon="11.4478347"><ele>317.0</ele><time>2026-05-03T08:59:38.084Z</time></trkpt><trkpt lat="45.5998805" lon="11.447972"><ele>317.0</ele><time>2026-05-03T08:59:39.085Z</time></trkpt><trkpt lat="45.5998135" lon="11.4480955"><ele>317.0</ele><time>2026-05-03T08:59:40.085Z</time></trkpt><trkpt lat="45.599736" lon="11.4482067"><ele>315.8</ele><time>2026-05-03T08:59:41.084Z</time></trkpt><trkpt lat="45.5996542" lon="11.4483059"><ele>314.6</ele><time>2026-05-03T08:59:42.085Z</time></trkpt><trkpt lat="45.5995827" lon="11.448412"><ele>313.40000000000003</ele><time>2026-05-03T08:59:43.084Z</time></trkpt><trkpt lat="45.5995134" lon="11.4485222"><ele>312.2</ele><time>2026-05-03T08:59:44.084Z</time></trkpt><trkpt lat="45.5994423" lon="11.4486407"><ele>311.0</ele><time>2026-05-03T08:59:45.084Z</time></trkpt><trkpt lat="45.5993712" lon="11.4487543"><ele>310.2</ele><time>2026-05-03T08:59:46.085Z</time></trkpt><trkpt lat="45.5993038" lon="11.4488672"><ele>309.40000000000003</ele><time>2026-05-03T08:59:47.084Z</time></trkpt><trkpt lat="45.5992431" lon="11.4489694"><ele>308.6</ele><time>2026-05-03T08:59:48.085Z</time></trkpt><trkpt lat="45.5991886" lon="11.4490677"><ele>307.8</ele><time>2026-05-03T08:59:49.085Z</time></trkpt><trkpt lat="45.5991167" lon="11.4491629"><ele>307.0</ele><time>2026-05-03T08:59:50.084Z</time></trkpt><trkpt lat="45.599029" lon="11.4492488"><ele>307.0</ele><time>2026-05-03T08:59:51.084Z</time></trkpt><trkpt lat="45.5989345" lon="11.4493153"><ele>307.0</ele><time>2026-05-03T08:59:52.084Z</time></trkpt><trkpt lat="45.598834" lon="11.4493707"><ele>307.0</ele><time>2026-05-03T08:59:53.084Z</time></trkpt><trkpt lat="45.5987222" lon="11.4494247"><ele>307.0</ele><time>2026-05-03T08:59:54.084Z</time></trkpt><trkpt lat="45.5986022" lon="11.4494761"><ele>305.25</ele><time>2026-05-03T08:59:55.084Z</time></trkpt><trkpt lat="45.5984782" lon="11.4495127"><ele>303.5</ele><time>2026-05-03T08:59:56.085Z</time></trkpt><trkpt lat="45.5983497" lon="11.449539"><ele>301.75</ele><time>2026-05-03T08:59:57.084Z</time></trkpt><trkpt lat="45.5982244" lon="11.4495608"><ele>300.0</ele><time>2026-05-03T08:59:58.084Z</time></trkpt><trkpt lat="45.5981027" lon="11.4495818"><ele>300.0</ele><time>2026-05-03T08:59:59.084Z</time></trkpt><trkpt lat="45.5979861" lon="11.4496026"><ele>300.0</ele><time>2026-05-03T09:00:00.084Z</time></trkpt><trkpt lat="45.5978745" lon="11.4496214"><ele>300.0</ele><time>2026-05-03T09:00:01.084Z</time></trkpt><trkpt lat="45.5977727" lon="11.4496357"><ele>300.0</ele><time>2026-05-03T09:00:02.085Z</time></trkpt><trkpt lat="45.5976753" lon="11.4496514"><ele>300.0</ele><time>2026-05-03T09:00:03.085Z</time></trkpt><trkpt lat="45.5975848" lon="11.4496727"><ele>300.8333333333333</ele><time>2026-05-03T09:00:04.084Z</time></trkpt><trkpt lat="45.5974968" lon="11.449705"><ele>301.6666666666667</ele><time>2026-05-03T09:00:05.084Z</time></trkpt><trkpt lat="45.5974161" lon="11.4497524"><ele>302.5</ele><time>2026-05-03T09:00:06.084Z</time></trkpt><trkpt lat="45.597341" lon="11.449821"><ele>303.33333333333337</ele><time>2026-05-03T09:00:07.084Z</time></trkpt><trkpt lat="45.5972726" lon="11.4499004"><ele>304.1666666666667</ele><time>2026-05-03T09:00:08.085Z</time></trkpt><trkpt lat="45.5972046" lon="11.4499844"><ele>305.0</ele><time>2026-05-03T09:00:09.084Z</time></trkpt><trkpt lat="45.597146" lon="11.4500706"><ele>305.0</ele><time>2026-05-03T09:00:10.084Z</time></trkpt><trkpt lat="45.5971017" lon="11.4501608"><ele>305.0</ele><time>2026-05-03T09:00:11.084Z</time></trkpt><trkpt lat="45.5970698" lon="11.4502669"><ele>305.0</ele><time>2026-05-03T09:00:12.085Z</time></trkpt><trkpt lat="45.5970476" lon="11.4503826"><ele>305.0</ele><time>2026-05-03T09:00:13.084Z</time></trkpt><trkpt lat="45.5970218" lon="11.4505025"><ele>305.0</ele><time>2026-05-03T09:00:14.084Z</time></trkpt><trkpt lat="45.5969957" lon="11.4506239"><ele>305.0</ele><time>2026-05-03T09:00:15.084Z</time></trkpt><trkpt lat="45.5969706" lon="11.4507443"><ele>302.4</ele><time>2026-05-03T09:00:16.085Z</time></trkpt><trkpt lat="45.5969446" lon="11.4508626"><ele>299.8</ele><time>2026-05-03T09:00:17.085Z</time></trkpt><trkpt lat="45.596913" lon="11.4509884"><ele>297.2</ele><time>2026-05-03T09:00:18.085Z</time></trkpt><trkpt lat="45.5968746" lon="11.4511131"><ele>294.6</ele><time>2026-05-03T09:00:19.085Z</time></trkpt><trkpt lat="45.5968373" lon="11.4512407"><ele>292.0</ele><time>2026-05-03T09:00:20.084Z</time></trkpt><trkpt lat="45.5967969" lon="11.4513622"><ele>292.0</ele><time>2026-05-03T09:00:21.084Z</time></trkpt><trkpt lat="45.5967512" lon="11.4514698"><ele>292.0</ele><time>2026-05-03T09:00:22.084Z</time></trkpt><trkpt lat="45.596702" lon="11.4515668"><ele>292.0</ele><time>2026-05-03T09:00:23.084Z</time></trkpt><trkpt lat="45.5966517" lon="11.4516408"><ele>292.0</ele><time>2026-05-03T09:00:24.083Z</time></trkpt><trkpt lat="45.5966117" lon="11.4517672"><ele>292.0</ele><time>2026-05-03T09:00:26.084Z</time></trkpt><trkpt lat="45.5966866" lon="11.4518352"><ele>292.0</ele><time>2026-05-03T09:00:28.084Z</time></trkpt><trkpt lat="45.5968065" lon="11.4518612"><ele>292.0</ele><time>2026-05-03T09:00:30.084Z</time></trkpt><trkpt lat="45.5968795" lon="11.4518602"><ele>292.0</ele><time>2026-05-03T09:00:31.083Z</time></trkpt><trkpt lat="45.5969471" lon="11.4518647"><ele>292.0</ele><time>2026-05-03T09:00:32.084Z</time></trkpt><trkpt lat="45.5970532" lon="11.4518895"><ele>292.0</ele><time>2026-05-03T09:00:34.084Z</time></trkpt><trkpt lat="45.5970917" lon="11.4519964"><ele>292.0</ele><time>2026-05-03T09:00:36.084Z</time></trkpt><trkpt lat="45.5970081" lon="11.4520846"><ele>292.0</ele><time>2026-05-03T09:00:38.084Z</time></trkpt><trkpt lat="45.5969352" lon="11.4521112"><ele>291.2</ele><time>2026-05-03T09:00:39.083Z</time></trkpt><trkpt lat="45.5968642" lon="11.4521673"><ele>290.4</ele><time>2026-05-03T09:00:40.083Z</time></trkpt><trkpt lat="45.5967995" lon="11.4522602"><ele>289.6</ele><time>2026-05-03T09:00:41.084Z</time></trkpt><trkpt lat="45.5967414" lon="11.452379"><ele>288.8</ele><time>2026-05-03T09:00:42.084Z</time></trkpt><trkpt lat="45.5966803" lon="11.4525055"><ele>288.0</ele><time>2026-05-03T09:00:43.084Z</time></trkpt><trkpt lat="45.5966147" lon="11.4526307"><ele>288.0</ele><time>2026-05-03T09:00:44.084Z</time></trkpt><trkpt lat="45.596547" lon="11.4527495"><ele>288.0</ele><time>2026-05-03T09:00:45.084Z</time></trkpt><trkpt lat="45.5964722" lon="11.4528531"><ele>288.0</ele><time>2026-05-03T09:00:46.084Z</time></trkpt><trkpt lat="45.5963797" lon="11.4529391"><ele>288.0</ele><time>2026-05-03T09:00:47.084Z</time></trkpt><trkpt lat="45.5962703" lon="11.4530079"><ele>288.0</ele><time>2026-05-03T09:00:48.085Z</time></trkpt><trkpt lat="45.5961452" lon="11.4530477"><ele>283.0</ele><time>2026-05-03T09:00:49.084Z</time></trkpt><trkpt lat="45.5959962" lon="11.4530564"><ele>278.0</ele><time>2026-05-03T09:00:50.084Z</time></trkpt><trkpt lat="45.5958116" lon="11.4530509"><ele>273.0</ele><time>2026-05-03T09:00:51.084Z</time></trkpt><trkpt lat="45.5956109" lon="11.4530582"><ele>273.0</ele><time>2026-05-03T09:00:52.084Z</time></trkpt><trkpt lat="45.5954045" lon="11.4530992"><ele>273.0</ele><time>2026-05-03T09:00:53.084Z</time></trkpt><trkpt lat="45.5952005" lon="11.4531761"><ele>273.0</ele><time>2026-05-03T09:00:54.084Z</time></trkpt><trkpt lat="45.5950136" lon="11.4532582"><ele>271.75</ele><time>2026-05-03T09:00:55.084Z</time></trkpt><trkpt lat="45.5948554" lon="11.4533408"><ele>270.5</ele><time>2026-05-03T09:00:56.084Z</time></trkpt><trkpt lat="45.5947233" lon="11.4534069"><ele>269.25</ele><time>2026-05-03T09:00:57.084Z</time></trkpt><trkpt lat="45.5946107" lon="11.4534566"><ele>268.0</ele><time>2026-05-03T09:00:58.085Z</time></trkpt><trkpt lat="45.5945148" lon="11.4535027"><ele>267.8333333333333</ele><time>2026-05-03T09:00:59.085Z</time></trkpt><trkpt lat="45.5944359" lon="11.4535371"><ele>267.66666666666663</ele><time>2026-05-03T09:01:00.085Z</time></trkpt><trkpt lat="45.5943718" lon="11.4535681"><ele>267.5</ele><time>2026-05-03T09:01:01.084Z</time></trkpt><trkpt lat="45.5942932" lon="11.4536733"><ele>267.3333333333333</ele><time>2026-05-03T09:01:03.084Z</time></trkpt><trkpt lat="45.5943061" lon="11.4537643"><ele>267.1666666666667</ele><time>2026-05-03T09:01:04.084Z</time></trkpt><trkpt lat="45.594351" lon="11.4538384"><ele>267.0</ele><time>2026-05-03T09:01:05.085Z</time></trkpt><trkpt lat="45.594408" lon="11.4539055"><ele>265.5</ele><time>2026-05-03T09:01:06.084Z</time></trkpt><trkpt lat="45.5944644" lon="11.453985"><ele>264.0</ele><time>2026-05-03T09:01:07.084Z</time></trkpt><trkpt lat="45.5945086" lon="11.4540833"><ele>262.5</ele><time>2026-05-03T09:01:08.084Z</time></trkpt><trkpt lat="45.5945334" lon="11.4542003"><ele>261.0</ele><time>2026-05-03T09:01:09.084Z</time></trkpt><trkpt lat="45.5945379" lon="11.4543219"><ele>259.5</ele><time>2026-05-03T09:01:10.084Z</time></trkpt><trkpt lat="45.5945377" lon="11.4544407"><ele>258.0</ele><time>2026-05-03T09:01:11.084Z</time></trkpt><trkpt lat="45.5945428" lon="11.4545528"><ele>256.5</ele><time>2026-05-03T09:01:12.083Z</time></trkpt><trkpt lat="45.5945542" lon="11.454664"><ele>255.0</ele><time>2026-05-03T09:01:13.084Z</time></trkpt><trkpt lat="45.5945766" lon="11.4547686"><ele>253.5</ele><time>2026-05-03T09:01:14.084Z</time></trkpt><trkpt lat="45.5946257" lon="11.4548472"><ele>252.0</ele><time>2026-05-03T09:01:15.084Z</time></trkpt><trkpt lat="45.594697" lon="11.4548911"><ele>250.5</ele><time>2026-05-03T09:01:16.084Z</time></trkpt><trkpt lat="45.5947881" lon="11.454916"><ele>249.0</ele><time>2026-05-03T09:01:17.084Z</time></trkpt><trkpt lat="45.5948882" lon="11.4549334"><ele>249.0</ele><time>2026-05-03T09:01:18.084Z</time></trkpt><trkpt lat="45.5949923" lon="11.4549481"><ele>248.99999999999997</ele><time>2026-05-03T09:01:19.083Z</time></trkpt><trkpt lat="45.5950925" lon="11.4549637"><ele>248.99999999999997</ele><time>2026-05-03T09:01:20.084Z</time></trkpt><trkpt lat="45.5951865" lon="11.4549723"><ele>249.0</ele><time>2026-05-03T09:01:21.084Z</time></trkpt><trkpt lat="45.5952767" lon="11.4549728"><ele>249.0</ele><time>2026-05-03T09:01:22.084Z</time></trkpt><trkpt lat="45.595365" lon="11.454976"><ele>248.66666666666666</ele><time>2026-05-03T09:01:23.084Z</time></trkpt><trkpt lat="45.5954468" lon="11.4549731"><ele>248.33333333333331</ele><time>2026-05-03T09:01:24.084Z</time></trkpt><trkpt lat="45.5955245" lon="11.4549765"><ele>248.0</ele><time>2026-05-03T09:01:25.085Z</time></trkpt><trkpt lat="45.5956018" lon="11.4549985"><ele>247.66666666666666</ele><time>2026-05-03T09:01:26.085Z</time></trkpt><trkpt lat="45.5956677" lon="11.4550473"><ele>247.33333333333331</ele><time>2026-05-03T09:01:27.085Z</time></trkpt><trkpt lat="45.5957228" lon="11.4551158"><ele>247.0</ele><time>2026-05-03T09:01:28.085Z</time></trkpt><trkpt lat="45.5957739" lon="11.4551997"><ele>246.99999999999997</ele><time>2026-05-03T09:01:29.084Z</time></trkpt><trkpt lat="45.5958266" lon="11.455288"><ele>247.0</ele><time>2026-05-03T09:01:30.084Z</time></trkpt><trkpt lat="45.5958917" lon="11.4553633"><ele>247.0</ele><time>2026-05-03T09:01:31.084Z</time></trkpt><trkpt lat="45.5959693" lon="11.45542"><ele>247.0</ele><time>2026-05-03T09:01:32.085Z</time></trkpt><trkpt lat="45.5960549" lon="11.455467"><ele>246.99999999999997</ele><time>2026-05-03T09:01:33.084Z</time></trkpt><trkpt lat="45.5961413" lon="11.4555136"><ele>247.0</ele><time>2026-05-03T09:01:34.083Z</time></trkpt><trkpt lat="45.5962357" lon="11.455556"><ele>245.6</ele><time>2026-05-03T09:01:35.084Z</time></trkpt><trkpt lat="45.5963358" lon="11.4555998"><ele>244.2</ele><time>2026-05-03T09:01:36.084Z</time></trkpt><trkpt lat="45.5964411" lon="11.4556444"><ele>242.8</ele><time>2026-05-03T09:01:37.084Z</time></trkpt><trkpt lat="45.5965445" lon="11.455687"><ele>241.4</ele><time>2026-05-03T09:01:38.084Z</time></trkpt><trkpt lat="45.5966462" lon="11.4557242"><ele>240.0</ele><time>2026-05-03T09:01:39.083Z</time></trkpt><trkpt lat="45.5967421" lon="11.4557633"><ele>240.0</ele><time>2026-05-03T09:01:40.084Z</time></trkpt><trkpt lat="45.5968344" lon="11.4557961"><ele>240.0</ele><time>2026-05-03T09:01:41.084Z</time></trkpt><trkpt lat="45.5969211" lon="11.4558271"><ele>240.0</ele><time>2026-05-03T09:01:42.084Z</time></trkpt><trkpt lat="45.5970005" lon="11.4558703"><ele>240.0</ele><time>2026-05-03T09:01:43.084Z</time></trkpt><trkpt lat="45.5970638" lon="11.4559353"><ele>240.0</ele><time>2026-05-03T09:01:44.084Z</time></trkpt><trkpt lat="45.5971095" lon="11.4560261"><ele>240.0</ele><time>2026-05-03T09:01:45.084Z</time></trkpt><trkpt lat="45.5971278" lon="11.456136"><ele>239.66666666666666</ele><time>2026-05-03T09:01:46.084Z</time></trkpt><trkpt lat="45.5971272" lon="11.4562486"><ele>239.33333333333331</ele><time>2026-05-03T09:01:47.084Z</time></trkpt><trkpt lat="45.5971361" lon="11.456362"><ele>239.0</ele><time>2026-05-03T09:01:48.083Z</time></trkpt><trkpt lat="45.5971547" lon="11.4564665"><ele>238.66666666666666</ele><time>2026-05-03T09:01:49.084Z</time></trkpt><trkpt lat="45.597165" lon="11.4565708"><ele>238.33333333333331</ele><time>2026-05-03T09:01:50.084Z</time></trkpt><trkpt lat="45.5971725" lon="11.4566745"><ele>238.0</ele><time>2026-05-03T09:01:51.084Z</time></trkpt><trkpt lat="45.597172" lon="11.4567767"><ele>236.66666666666666</ele><time>2026-05-03T09:01:52.084Z</time></trkpt><trkpt lat="45.5971585" lon="11.4568766"><ele>235.33333333333331</ele><time>2026-05-03T09:01:53.084Z</time></trkpt><trkpt lat="45.5971241" lon="11.4569746"><ele>234.0</ele><time>2026-05-03T09:01:54.084Z</time></trkpt><trkpt lat="45.5970684" lon="11.4570747"><ele>232.66666666666669</ele><time>2026-05-03T09:01:55.084Z</time></trkpt><trkpt lat="45.5970088" lon="11.4571834"><ele>231.33333333333334</ele><time>2026-05-03T09:01:56.084Z</time></trkpt><trkpt lat="45.5969485" lon="11.457303"><ele>230.0</ele><time>2026-05-03T09:01:57.084Z</time></trkpt><trkpt lat="45.596899" lon="11.4574344"><ele>228.6</ele><time>2026-05-03T09:01:58.084Z</time></trkpt><trkpt lat="45.5968563" lon="11.457567"><ele>227.2</ele><time>2026-05-03T09:01:59.084Z</time></trkpt><trkpt lat="45.596818" lon="11.4577042"><ele>225.8</ele><time>2026-05-03T09:02:00.085Z</time></trkpt><trkpt lat="45.5967842" lon="11.4578479"><ele>224.4</ele><time>2026-05-03T09:02:01.084Z</time></trkpt><trkpt lat="45.5967624" lon="11.4579964"><ele>223.0</ele><time>2026-05-03T09:02:02.084Z</time></trkpt><trkpt lat="45.5967483" lon="11.4581452"><ele>222.4</ele><time>2026-05-03T09:02:03.084Z</time></trkpt><trkpt lat="45.5967391" lon="11.458294"><ele>221.8</ele><time>2026-05-03T09:02:04.084Z</time></trkpt><trkpt lat="45.59673" lon="11.4584418"><ele>221.2</ele><time>2026-05-03T09:02:05.084Z</time></trkpt><trkpt lat="45.5967238" lon="11.4585882"><ele>220.6</ele><time>2026-05-03T09:02:06.084Z</time></trkpt><trkpt lat="45.5967193" lon="11.4587312"><ele>220.0</ele><time>2026-05-03T09:02:07.084Z</time></trkpt><trkpt lat="45.5967211" lon="11.4588769"><ele>218.0</ele><time>2026-05-03T09:02:08.084Z</time></trkpt><trkpt lat="45.5967241" lon="11.4590199"><ele>216.0</ele><time>2026-05-03T09:02:09.085Z</time></trkpt><trkpt lat="45.5967298" lon="11.4591596"><ele>214.0</ele><time>2026-05-03T09:02:10.085Z</time></trkpt><trkpt lat="45.5967354" lon="11.4592962"><ele>212.0</ele><time>2026-05-03T09:02:11.084Z</time></trkpt><trkpt lat="45.5967395" lon="11.4594347"><ele>210.0</ele><time>2026-05-03T09:02:12.084Z</time></trkpt><trkpt lat="45.5967309" lon="11.4595747"><ele>209.0</ele><time>2026-05-03T09:02:13.084Z</time></trkpt><trkpt lat="45.5967132" lon="11.4597068"><ele>208.0</ele><time>2026-05-03T09:02:14.083Z</time></trkpt><trkpt lat="45.5966881" lon="11.4598229"><ele>207.0</ele><time>2026-05-03T09:02:15.084Z</time></trkpt><trkpt lat="45.5966744" lon="11.4599359"><ele>206.0</ele><time>2026-05-03T09:02:16.084Z</time></trkpt><trkpt lat="45.5966843" lon="11.4600533"><ele>205.0</ele><time>2026-05-03T09:02:17.084Z</time></trkpt><trkpt lat="45.5967238" lon="11.4601582"><ele>204.0</ele><time>2026-05-03T09:02:18.084Z</time></trkpt><trkpt lat="45.5967799" lon="11.4602509"><ele>204.0</ele><time>2026-05-03T09:02:19.084Z</time></trkpt><trkpt lat="45.5968387" lon="11.4603511"><ele>204.0</ele><time>2026-05-03T09:02:20.084Z</time></trkpt><trkpt lat="45.5968979" lon="11.460459"><ele>204.0</ele><time>2026-05-03T09:02:21.084Z</time></trkpt><trkpt lat="45.5969628" lon="11.4605608"><ele>204.0</ele><time>2026-05-03T09:02:22.084Z</time></trkpt><trkpt lat="45.5970292" lon="11.4606579"><ele>204.0</ele><time>2026-05-03T09:02:23.085Z</time></trkpt><trkpt lat="45.5971027" lon="11.4607499"><ele>202.33333333333334</ele><time>2026-05-03T09:02:24.084Z</time></trkpt><trkpt lat="45.5971809" lon="11.4608193"><ele>200.66666666666669</ele><time>2026-05-03T09:02:25.084Z</time></trkpt><trkpt lat="45.597257" lon="11.4608719"><ele>199.0</ele><time>2026-05-03T09:02:26.084Z</time></trkpt><trkpt lat="45.5973139" lon="11.4609404"><ele>197.33333333333334</ele><time>2026-05-03T09:02:27.084Z</time></trkpt><trkpt lat="45.5973442" lon="11.4610352"><ele>195.66666666666669</ele><time>2026-05-03T09:02:28.085Z</time></trkpt><trkpt lat="45.5973367" lon="11.4611447"><ele>194.0</ele><time>2026-05-03T09:02:29.084Z</time></trkpt><trkpt lat="45.5972985" lon="11.4612419"><ele>193.66666666666669</ele><time>2026-05-03T09:02:30.084Z</time></trkpt><trkpt lat="45.597247" lon="11.4613356"><ele>193.33333333333334</ele><time>2026-05-03T09:02:31.085Z</time></trkpt><trkpt lat="45.5971772" lon="11.4614101"><ele>193.0</ele><time>2026-05-03T09:02:32.084Z</time></trkpt><trkpt lat="45.5970996" lon="11.4614592"><ele>192.66666666666669</ele><time>2026-05-03T09:02:33.085Z</time></trkpt><trkpt lat="45.59703" lon="11.4615083"><ele>192.33333333333334</ele><time>2026-05-03T09:02:34.084Z</time></trkpt><trkpt lat="45.5969677" lon="11.461576"><ele>192.0</ele><time>2026-05-03T09:02:35.085Z</time></trkpt><trkpt lat="45.5969205" lon="11.4616616"><ele>192.0</ele><time>2026-05-03T09:02:36.085Z</time></trkpt><trkpt lat="45.5968811" lon="11.461772"><ele>192.0</ele><time>2026-05-03T09:02:37.085Z</time></trkpt><trkpt lat="45.5968562" lon="11.4618955"><ele>192.0</ele><time>2026-05-03T09:02:38.084Z</time></trkpt><trkpt lat="45.5968384" lon="11.4620328"><ele>192.0</ele><time>2026-05-03T09:02:39.085Z</time></trkpt><trkpt lat="45.5968195" lon="11.4621743"><ele>192.0</ele><time>2026-05-03T09:02:40.085Z</time></trkpt><trkpt lat="45.5968025" lon="11.4623193"><ele>191.39999999999998</ele><time>2026-05-03T09:02:41.085Z</time></trkpt><trkpt lat="45.5967746" lon="11.4624601"><ele>190.79999999999998</ele><time>2026-05-03T09:02:42.084Z</time></trkpt><trkpt lat="45.5967409" lon="11.462596"><ele>190.2</ele><time>2026-05-03T09:02:43.083Z</time></trkpt><trkpt lat="45.596699" lon="11.4627318"><ele>189.6</ele><time>2026-05-03T09:02:44.084Z</time></trkpt><trkpt lat="45.5966557" lon="11.4628715"><ele>189.0</ele><time>2026-05-03T09:02:45.084Z</time></trkpt><trkpt lat="45.5966066" lon="11.4630103"><ele>187.2</ele><time>2026-05-03T09:02:46.085Z</time></trkpt><trkpt lat="45.596559" lon="11.4631485"><ele>185.39999999999998</ele><time>2026-05-03T09:02:47.084Z</time></trkpt><trkpt lat="45.5965066" lon="11.4632798"><ele>183.6</ele><time>2026-05-03T09:02:48.083Z</time></trkpt><trkpt lat="45.5964555" lon="11.4634156"><ele>181.8</ele><time>2026-05-03T09:02:49.085Z</time></trkpt><trkpt lat="45.5964033" lon="11.4635475"><ele>180.0</ele><time>2026-05-03T09:02:50.084Z</time></trkpt><trkpt lat="45.5963478" lon="11.4636768"><ele>179.0</ele><time>2026-05-03T09:02:51.084Z</time></trkpt><trkpt lat="45.5962831" lon="11.463794"><ele>178.0</ele><time>2026-05-03T09:02:52.085Z</time></trkpt><trkpt lat="45.5962092" lon="11.4638888"><ele>177.0</ele><time>2026-05-03T09:02:53.084Z</time></trkpt><trkpt lat="45.5961294" lon="11.4639632"><ele>176.0</ele><time>2026-05-03T09:02:54.085Z</time></trkpt><trkpt lat="45.5960511" lon="11.4640317"><ele>175.0</ele><time>2026-05-03T09:02:55.084Z</time></trkpt><trkpt lat="45.5959774" lon="11.464088"><ele>175.0</ele><time>2026-05-03T09:02:56.084Z</time></trkpt><trkpt lat="45.5959064" lon="11.4641414"><ele>175.0</ele><time>2026-05-03T09:02:57.084Z</time></trkpt><trkpt lat="45.5958393" lon="11.4641801"><ele>175.0</ele><time>2026-05-03T09:02:58.084Z</time></trkpt><trkpt lat="45.5957517" lon="11.464256"><ele>175.0</ele><time>2026-05-03T09:03:00.084Z</time></trkpt><trkpt lat="45.5957437" lon="11.4643777"><ele>175.0</ele><time>2026-05-03T09:03:02.084Z</time></trkpt><trkpt lat="45.5958277" lon="11.4644243"><ele>175.0</ele><time>2026-05-03T09:03:04.084Z</time></trkpt><trkpt lat="45.5958916" lon="11.4644132"><ele>175.0</ele><time>2026-05-03T09:03:05.084Z</time></trkpt><trkpt lat="45.5959607" lon="11.464387"><ele>175.0</ele><time>2026-05-03T09:03:06.084Z</time></trkpt><trkpt lat="45.5960275" lon="11.4643602"><ele>175.0</ele><time>2026-05-03T09:03:07.084Z</time></trkpt><trkpt lat="45.5960974" lon="11.4643331"><ele>175.0</ele><time>2026-05-03T09:03:08.085Z</time></trkpt><trkpt lat="45.5961653" lon="11.4643021"><ele>175.0</ele><time>2026-05-03T09:03:09.084Z</time></trkpt><trkpt lat="45.5962287" lon="11.4642705"><ele>175.0</ele><time>2026-05-03T09:03:10.084Z</time></trkpt><trkpt lat="45.5963297" lon="11.4642558"><ele>175.0</ele><time>2026-05-03T09:03:12.083Z</time></trkpt><trkpt lat="45.5963742" lon="11.464366"><ele>175.0</ele><time>2026-05-03T09:03:14.084Z</time></trkpt><trkpt lat="45.5962925" lon="11.4644553"><ele>175.0</ele><time>2026-05-03T09:03:16.085Z</time></trkpt><trkpt lat="45.5962248" lon="11.46449"><ele>175.0</ele><time>2026-05-03T09:03:17.085Z</time></trkpt><trkpt lat="45.5961507" lon="11.4645326"><ele>175.0</ele><time>2026-05-03T09:03:18.085Z</time></trkpt><trkpt lat="45.596074" lon="11.4645726"><ele>175.0</ele><time>2026-05-03T09:03:19.084Z</time></trkpt><trkpt lat="45.5959972" lon="11.4646107"><ele>173.16666666666669</ele><time>2026-05-03T09:03:20.083Z</time></trkpt><trkpt lat="45.5959247" lon="11.4646497"><ele>171.33333333333334</ele><time>2026-05-03T09:03:21.084Z</time></trkpt><trkpt lat="45.5958527" lon="11.4646927"><ele>169.5</ele><time>2026-05-03T09:03:22.084Z</time></trkpt><trkpt lat="45.5957809" lon="11.4647394"><ele>167.66666666666666</ele><time>2026-05-03T09:03:23.084Z</time></trkpt><trkpt lat="45.5957098" lon="11.4647812"><ele>165.83333333333331</ele><time>2026-05-03T09:03:24.084Z</time></trkpt><trkpt lat="45.5956383" lon="11.4648241"><ele>164.0</ele><time>2026-05-03T09:03:25.084Z</time></trkpt><trkpt lat="45.5955694" lon="11.4648712"><ele>164.0</ele><time>2026-05-03T09:03:26.084Z</time></trkpt><trkpt lat="45.5954941" lon="11.4649358"><ele>164.0</ele><time>2026-05-03T09:03:27.085Z</time></trkpt><trkpt lat="45.5954313" lon="11.4650273"><ele>164.0</ele><time>2026-05-03T09:03:28.084Z</time></trkpt><trkpt lat="45.59538" lon="11.4651355"><ele>164.0</ele><time>2026-05-03T09:03:29.084Z</time></trkpt><trkpt lat="45.5953452" lon="11.4652541"><ele>164.0</ele><time>2026-05-03T09:03:30.084Z</time></trkpt><trkpt lat="45.5953248" lon="11.4653772"><ele>164.0</ele><time>2026-05-03T09:03:31.085Z</time></trkpt><trkpt lat="45.595317" lon="11.4655011"><ele>164.5</ele><time>2026-05-03T09:03:32.084Z</time></trkpt><trkpt lat="45.5953359" lon="11.4656199"><ele>165.0</ele><time>2026-05-03T09:03:33.084Z</time></trkpt><trkpt lat="45.5953801" lon="11.4657192"><ele>165.5</ele><time>2026-05-03T09:03:34.084Z</time></trkpt><trkpt lat="45.5954418" lon="11.4657906"><ele>166.0</ele><time>2026-05-03T09:03:35.084Z</time></trkpt><trkpt lat="45.5955108" lon="11.4658452"><ele>166.5</ele><time>2026-05-03T09:03:36.084Z</time></trkpt><trkpt lat="45.5955842" lon="11.4658975"><ele>167.0</ele><time>2026-05-03T09:03:37.085Z</time></trkpt><trkpt lat="45.5956497" lon="11.4659671"><ele>165.5</ele><time>2026-05-03T09:03:38.084Z</time></trkpt><trkpt lat="45.5956789" lon="11.4660729"><ele>164.0</ele><time>2026-05-03T09:03:39.084Z</time></trkpt><trkpt lat="45.5956663" lon="11.4661827"><ele>162.5</ele><time>2026-05-03T09:03:40.085Z</time></trkpt><trkpt lat="45.5956119" lon="11.4662658"><ele>161.0</ele><time>2026-05-03T09:03:41.085Z</time></trkpt><trkpt lat="45.595527" lon="11.4663195"><ele>159.5</ele><time>2026-05-03T09:03:42.084Z</time></trkpt><trkpt lat="45.5954252" lon="11.4663799"><ele>158.0</ele><time>2026-05-03T09:03:43.084Z</time></trkpt><trkpt lat="45.5953202" lon="11.466445"><ele>157.6</ele><time>2026-05-03T09:03:44.084Z</time></trkpt><trkpt lat="45.5952176" lon="11.4665042"><ele>157.20000000000002</ele><time>2026-05-03T09:03:45.084Z</time></trkpt><trkpt lat="45.5951221" lon="11.4665938"><ele>156.8</ele><time>2026-05-03T09:03:46.084Z</time></trkpt><trkpt lat="45.5950502" lon="11.466715"><ele>156.4</ele><time>2026-05-03T09:03:47.084Z</time></trkpt><trkpt lat="45.5950061" lon="11.4668536"><ele>156.0</ele><time>2026-05-03T09:03:48.085Z</time></trkpt><trkpt lat="45.5949774" lon="11.4669993"><ele>154.33333333333334</ele><time>2026-05-03T09:03:49.083Z</time></trkpt><trkpt lat="45.5949515" lon="11.4671379"><ele>152.66666666666666</ele><time>2026-05-03T09:03:50.084Z</time></trkpt><trkpt lat="45.5949289" lon="11.4672697"><ele>151.0</ele><time>2026-05-03T09:03:51.085Z</time></trkpt><trkpt lat="45.5949106" lon="11.4673846"><ele>149.33333333333331</ele><time>2026-05-03T09:03:52.084Z</time></trkpt><trkpt lat="45.594897" lon="11.4674729"><ele>147.66666666666666</ele><time>2026-05-03T09:03:53.083Z</time></trkpt><trkpt lat="45.5948809" lon="11.4675624"><ele>146.0</ele><time>2026-05-03T09:03:54.085Z</time></trkpt><trkpt lat="45.5948508" lon="11.4676529"><ele>146.0</ele><time>2026-05-03T09:03:55.084Z</time></trkpt><trkpt lat="45.5948127" lon="11.4677504"><ele>146.0</ele><time>2026-05-03T09:03:56.084Z</time></trkpt><trkpt lat="45.5947726" lon="11.467863"><ele>146.0</ele><time>2026-05-03T09:03:57.084Z</time></trkpt><trkpt lat="45.5947338" lon="11.4679964"><ele>146.0</ele><time>2026-05-03T09:03:58.084Z</time></trkpt><trkpt lat="45.5947025" lon="11.4681512"><ele>146.0</ele><time>2026-05-03T09:03:59.084Z</time></trkpt><trkpt lat="45.5946746" lon="11.4683373"><ele>145.0</ele><time>2026-05-03T09:04:00.084Z</time></trkpt><trkpt lat="45.5946545" lon="11.4685345"><ele>144.0</ele><time>2026-05-03T09:04:01.085Z</time></trkpt><trkpt lat="45.5946335" lon="11.4687373"><ele>143.0</ele><time>2026-05-03T09:04:02.084Z</time></trkpt><trkpt lat="45.5946121" lon="11.4689456"><ele>142.0</ele><time>2026-05-03T09:04:03.084Z</time></trkpt><trkpt lat="45.5945925" lon="11.4691588"><ele>140.0</ele><time>2026-05-03T09:04:04.085Z</time></trkpt><trkpt lat="45.5945744" lon="11.4693717"><ele>138.0</ele><time>2026-05-03T09:04:05.084Z</time></trkpt><trkpt lat="45.594555" lon="11.4695916"><ele>136.0</ele><time>2026-05-03T09:04:06.084Z</time></trkpt><trkpt lat="45.5945373" lon="11.4698119"><ele>133.0</ele><time>2026-05-03T09:04:07.085Z</time></trkpt><trkpt lat="45.5945258" lon="11.4700361"><ele>130.0</ele><time>2026-05-03T09:04:08.084Z</time></trkpt><trkpt lat="45.5945171" lon="11.4702539"><ele>127.0</ele><time>2026-05-03T09:04:09.085Z</time></trkpt><trkpt lat="45.5945122" lon="11.4704661"><ele>125.25</ele><time>2026-05-03T09:04:10.085Z</time></trkpt><trkpt lat="45.5945094" lon="11.4706786"><ele>123.5</ele><time>2026-05-03T09:04:11.084Z</time></trkpt><trkpt lat="45.5945072" lon="11.4708852"><ele>121.75</ele><time>2026-05-03T09:04:12.084Z</time></trkpt><trkpt lat="45.5945071" lon="11.4710883"><ele>120.0</ele><time>2026-05-03T09:04:13.084Z</time></trkpt><trkpt lat="45.5945113" lon="11.4712835"><ele>118.5</ele><time>2026-05-03T09:04:14.084Z</time></trkpt><trkpt lat="45.5945154" lon="11.4714718"><ele>117.0</ele><time>2026-05-03T09:04:15.084Z</time></trkpt><trkpt lat="45.5945121" lon="11.4716542"><ele>115.5</ele><time>2026-05-03T09:04:16.084Z</time></trkpt><trkpt lat="45.5944894" lon="11.4718385"><ele>114.0</ele><time>2026-05-03T09:04:17.083Z</time></trkpt><trkpt lat="45.5944521" lon="11.472021"><ele>112.25</ele><time>2026-05-03T09:04:18.085Z</time></trkpt><trkpt lat="45.594415" lon="11.4722043"><ele>110.5</ele><time>2026-05-03T09:04:19.084Z</time></trkpt><trkpt lat="45.5943822" lon="11.4723938"><ele>108.75</ele><time>2026-05-03T09:04:20.085Z</time></trkpt><trkpt lat="45.5943594" lon="11.4725896"><ele>107.0</ele><time>2026-05-03T09:04:21.085Z</time></trkpt><trkpt lat="45.5943463" lon="11.4727899"><ele>104.0</ele><time>2026-05-03T09:04:22.083Z</time></trkpt><trkpt lat="45.5943369" lon="11.4729955"><ele>101.0</ele><time>2026-05-03T09:04:23.084Z</time></trkpt><trkpt lat="45.5943333" lon="11.473204"><ele>98.0</ele><time>2026-05-03T09:04:24.084Z</time></trkpt><trkpt lat="45.5943324" lon="11.4734021"><ele>95.0</ele><time>2026-05-03T09:04:25.084Z</time></trkpt><trkpt lat="45.5943369" lon="11.4736005"><ele>93.25</ele><time>2026-05-03T09:04:26.084Z</time></trkpt><trkpt lat="45.5943436" lon="11.4737974"><ele>91.5</ele><time>2026-05-03T09:04:27.084Z</time></trkpt><trkpt lat="45.5943567" lon="11.473993"><ele>89.75</ele><time>2026-05-03T09:04:28.084Z</time></trkpt><trkpt lat="45.5943726" lon="11.4741801"><ele>88.0</ele><time>2026-05-03T09:04:29.084Z</time></trkpt><trkpt lat="45.5943687" lon="11.474361"><ele>88.0</ele><time>2026-05-03T09:04:30.085Z</time></trkpt><trkpt lat="45.5943395" lon="11.4745472"><ele>88.0</ele><time>2026-05-03T09:04:31.084Z</time></trkpt><trkpt lat="45.5942979" lon="11.4747373"><ele>88.0</ele><time>2026-05-03T09:04:32.084Z</time></trkpt><trkpt lat="45.5942562" lon="11.4749302"><ele>88.0</ele><time>2026-05-03T09:04:33.084Z</time></trkpt><trkpt lat="45.5942152" lon="11.4751207"><ele>86.25</ele><time>2026-05-03T09:04:34.084Z</time></trkpt><trkpt lat="45.5941736" lon="11.4753066"><ele>84.5</ele><time>2026-05-03T09:04:35.084Z</time></trkpt><trkpt lat="45.5941333" lon="11.4754856"><ele>82.75</ele><time>2026-05-03T09:04:36.085Z</time></trkpt><trkpt lat="45.5940917" lon="11.4756603"><ele>81.0</ele><time>2026-05-03T09:04:37.084Z</time></trkpt><trkpt lat="45.5940564" lon="11.4758291"><ele>79.8</ele><time>2026-05-03T09:04:38.084Z</time></trkpt><trkpt lat="45.5940265" lon="11.4759922"><ele>78.6</ele><time>2026-05-03T09:04:39.084Z</time></trkpt><trkpt lat="45.5940037" lon="11.4761518"><ele>77.4</ele><time>2026-05-03T09:04:40.084Z</time></trkpt><trkpt lat="45.5939857" lon="11.4763091"><ele>76.2</ele><time>2026-05-03T09:04:41.084Z</time></trkpt><trkpt lat="45.5939686" lon="11.4764585"><ele>75.0</ele><time>2026-05-03T09:04:42.084Z</time></trkpt><trkpt lat="45.59395" lon="11.4765986"><ele>74.16666666666667</ele><time>2026-05-03T09:04:43.085Z</time></trkpt><trkpt lat="45.5939223" lon="11.4767279"><ele>73.33333333333333</ele><time>2026-05-03T09:04:44.084Z</time></trkpt><trkpt lat="45.5938801" lon="11.4768386"><ele>72.5</ele><time>2026-05-03T09:04:45.085Z</time></trkpt><trkpt lat="45.593826" lon="11.4769247"><ele>71.66666666666666</ele><time>2026-05-03T09:04:46.084Z</time></trkpt><trkpt lat="45.5937569" lon="11.4769869"><ele>70.83333333333333</ele><time>2026-05-03T09:04:47.084Z</time></trkpt><trkpt lat="45.5936836" lon="11.4770458"><ele>70.0</ele><time>2026-05-03T09:04:48.085Z</time></trkpt><trkpt lat="45.5936225" lon="11.4771405"><ele>68.0</ele><time>2026-05-03T09:04:49.083Z</time></trkpt><trkpt lat="45.5935682" lon="11.4772505"><ele>66.0</ele><time>2026-05-03T09:04:50.084Z</time></trkpt><trkpt lat="45.5935224" lon="11.4773747"><ele>64.0</ele><time>2026-05-03T09:04:51.084Z</time></trkpt><trkpt lat="45.5934805" lon="11.4775004"><ele>62.0</ele><time>2026-05-03T09:04:52.083Z</time></trkpt><trkpt lat="45.5934373" lon="11.4776241"><ele>60.0</ele><time>2026-05-03T09:04:53.084Z</time></trkpt><trkpt lat="45.593389" lon="11.4777401"><ele>60.0</ele><time>2026-05-03T09:04:54.084Z</time></trkpt><trkpt lat="45.5933296" lon="11.4778428"><ele>60.0</ele><time>2026-05-03T09:04:55.084Z</time></trkpt><trkpt lat="45.5932689" lon="11.4779346"><ele>60.0</ele><time>2026-05-03T09:04:56.084Z</time></trkpt><trkpt lat="45.5932117" lon="11.4780376"><ele>60.0</ele><time>2026-05-03T09:04:57.085Z</time></trkpt><trkpt lat="45.5931727" lon="11.4781387"><ele>60.0</ele><time>2026-05-03T09:04:58.084Z</time></trkpt><trkpt lat="45.5931452" lon="11.4782456"><ele>60.0</ele><time>2026-05-03T09:04:59.085Z</time></trkpt><trkpt lat="45.5931204" lon="11.4783402"><ele>59.42857142857143</ele><time>2026-05-03T09:05:00.084Z</time></trkpt><trkpt lat="45.5930893" lon="11.4784232"><ele>58.857142857142854</ele><time>2026-05-03T09:05:01.085Z</time></trkpt><trkpt lat="45.5930555" lon="11.4785041"><ele>58.285714285714285</ele><time>2026-05-03T09:05:02.084Z</time></trkpt><trkpt lat="45.5930161" lon="11.4785834"><ele>57.714285714285715</ele><time>2026-05-03T09:05:03.084Z</time></trkpt><trkpt lat="45.592968" lon="11.4786544"><ele>57.14285714285714</ele><time>2026-05-03T09:05:04.084Z</time></trkpt><trkpt lat="45.5929115" lon="11.4787117"><ele>56.57142857142857</ele><time>2026-05-03T09:05:05.084Z</time></trkpt><trkpt lat="45.5928497" lon="11.478747"><ele>56.0</ele><time>2026-05-03T09:05:06.084Z</time></trkpt><trkpt lat="45.5927824" lon="11.4787607"><ele>55.42857142857143</ele><time>2026-05-03T09:05:07.084Z</time></trkpt><trkpt lat="45.5927184" lon="11.4787654"><ele>54.85714285714286</ele><time>2026-05-03T09:05:08.084Z</time></trkpt><trkpt lat="45.5926538" lon="11.47877"><ele>54.285714285714285</ele><time>2026-05-03T09:05:09.084Z</time></trkpt><trkpt lat="45.5925894" lon="11.4787743"><ele>53.714285714285715</ele><time>2026-05-03T09:05:10.084Z</time></trkpt><trkpt lat="45.5925257" lon="11.4787768"><ele>53.142857142857146</ele><time>2026-05-03T09:05:11.084Z</time></trkpt><trkpt lat="45.5924025" lon="11.4787786"><ele>52.57142857142857</ele><time>2026-05-03T09:05:13.085Z</time></trkpt><trkpt lat="45.5923377" lon="11.4787839"><ele>52.0</ele><time>2026-05-03T09:05:14.085Z</time></trkpt><trkpt lat="45.5922687" lon="11.4787878"><ele>51.83333333333333</ele><time>2026-05-03T09:05:15.084Z</time></trkpt><trkpt lat="45.5921952" lon="11.4787923"><ele>51.666666666666664</ele><time>2026-05-03T09:05:16.084Z</time></trkpt><trkpt lat="45.5921217" lon="11.4787972"><ele>51.5</ele><time>2026-05-03T09:05:17.085Z</time></trkpt><trkpt lat="45.5920489" lon="11.4788024"><ele>51.33333333333333</ele><time>2026-05-03T09:05:18.084Z</time></trkpt><trkpt lat="45.5919714" lon="11.47881"><ele>51.166666666666664</ele><time>2026-05-03T09:05:19.084Z</time></trkpt><trkpt lat="45.5918854" lon="11.4788173"><ele>51.0</ele><time>2026-05-03T09:05:20.084Z</time></trkpt><trkpt lat="45.5917822" lon="11.4788225"><ele>50.75</ele><time>2026-05-03T09:05:21.084Z</time></trkpt><trkpt lat="45.5916697" lon="11.4788337"><ele>50.5</ele><time>2026-05-03T09:05:22.084Z</time></trkpt><trkpt lat="45.5915401" lon="11.4788523"><ele>50.25</ele><time>2026-05-03T09:05:23.084Z</time></trkpt><trkpt lat="45.591402" lon="11.4788766"><ele>50.0</ele><time>2026-05-03T09:05:24.084Z</time></trkpt><trkpt lat="45.5912579" lon="11.4789006"><ele>49.5</ele><time>2026-05-03T09:05:25.084Z</time></trkpt><trkpt lat="45.5911126" lon="11.4789121"><ele>49.0</ele><time>2026-05-03T09:05:26.084Z</time></trkpt><trkpt lat="45.5909701" lon="11.4789181"><ele>48.5</ele><time>2026-05-03T09:05:27.084Z</time></trkpt><trkpt lat="45.5908277" lon="11.4789295"><ele>48.0</ele><time>2026-05-03T09:05:28.084Z</time></trkpt><trkpt lat="45.5906939" lon="11.4789525"><ele>48.0</ele><time>2026-05-03T09:05:29.085Z</time></trkpt><trkpt lat="45.590571" lon="11.4789874"><ele>48.0</ele><time>2026-05-03T09:05:30.085Z</time></trkpt><trkpt lat="45.5904529" lon="11.4790337"><ele>48.0</ele><time>2026-05-03T09:05:31.085Z</time></trkpt><trkpt lat="45.5903433" lon="11.4790892"><ele>48.0</ele><time>2026-05-03T09:05:32.085Z</time></trkpt><trkpt lat="45.5902462" lon="11.479149"><ele>48.0</ele><time>2026-05-03T09:05:33.085Z</time></trkpt><trkpt lat="45.590163" lon="11.4792154"><ele>48.0</ele><time>2026-05-03T09:05:34.084Z</time></trkpt><trkpt lat="45.5901023" lon="11.479277"><ele>48.0</ele><time>2026-05-03T09:05:35.084Z</time></trkpt><trkpt lat="45.5900105" lon="11.4793552"><ele>48.0</ele><time>2026-05-03T09:05:37.084Z</time></trkpt><trkpt lat="45.5899139" lon="11.479373"><ele>48.0</ele><time>2026-05-03T09:05:39.084Z</time></trkpt><trkpt lat="45.5898092" lon="11.4792988"><ele>48.0</ele><time>2026-05-03T09:05:41.085Z</time></trkpt><trkpt lat="45.5897665" lon="11.4792152"><ele>48.0</ele><time>2026-05-03T09:05:42.084Z</time></trkpt><trkpt lat="45.589741" lon="11.4790986"><ele>48.0</ele><time>2026-05-03T09:05:43.084Z</time></trkpt><trkpt lat="45.5897181" lon="11.4789558"><ele>48.0</ele><time>2026-05-03T09:05:44.085Z</time></trkpt><trkpt lat="45.5896906" lon="11.4787952"><ele>48.0</ele><time>2026-05-03T09:05:45.084Z</time></trkpt><trkpt lat="45.5896583" lon="11.4786187"><ele>48.25</ele><time>2026-05-03T09:05:46.084Z</time></trkpt><trkpt lat="45.5896235" lon="11.4784306"><ele>48.5</ele><time>2026-05-03T09:05:47.084Z</time></trkpt><trkpt lat="45.5895859" lon="11.4782344"><ele>48.75</ele><time>2026-05-03T09:05:48.085Z</time></trkpt><trkpt lat="45.5895436" lon="11.4780252"><ele>49.0</ele><time>2026-05-03T09:05:49.085Z</time></trkpt><trkpt lat="45.5894996" lon="11.4778086"><ele>47.666666666666664</ele><time>2026-05-03T09:05:50.085Z</time></trkpt><trkpt lat="45.5894584" lon="11.4775862"><ele>46.33333333333333</ele><time>2026-05-03T09:05:51.084Z</time></trkpt><trkpt lat="45.5894177" lon="11.4773534"><ele>45.0</ele><time>2026-05-03T09:05:52.084Z</time></trkpt><trkpt lat="45.5893933" lon="11.4771184"><ele>46.0</ele><time>2026-05-03T09:05:53.085Z</time></trkpt><trkpt lat="45.589371" lon="11.4768834"><ele>47.0</ele><time>2026-05-03T09:05:54.084Z</time></trkpt><trkpt lat="45.5893473" lon="11.4766599"><ele>48.0</ele><time>2026-05-03T09:05:55.084Z</time></trkpt><trkpt lat="45.5893183" lon="11.4764488"><ele>48.25</ele><time>2026-05-03T09:05:56.084Z</time></trkpt><trkpt lat="45.589284" lon="11.4762492"><ele>48.5</ele><time>2026-05-03T09:05:57.084Z</time></trkpt><trkpt lat="45.5892385" lon="11.4760537"><ele>48.75</ele><time>2026-05-03T09:05:58.084Z</time></trkpt><trkpt lat="45.5891976" lon="11.4758654"><ele>49.0</ele><time>2026-05-03T09:05:59.084Z</time></trkpt><trkpt lat="45.5891608" lon="11.4756893"><ele>49.0</ele><time>2026-05-03T09:06:00.085Z</time></trkpt><trkpt lat="45.5891256" lon="11.4755265"><ele>49.0</ele><time>2026-05-03T09:06:01.084Z</time></trkpt><trkpt lat="45.58909" lon="11.475367"><ele>49.0</ele><time>2026-05-03T09:06:02.084Z</time></trkpt><trkpt lat="45.5890562" lon="11.4752131"><ele>49.0</ele><time>2026-05-03T09:06:03.085Z</time></trkpt><trkpt lat="45.5890253" lon="11.4750595"><ele>49.25</ele><time>2026-05-03T09:06:04.084Z</time></trkpt><trkpt lat="45.5889938" lon="11.4748999"><ele>49.5</ele><time>2026-05-03T09:06:05.085Z</time></trkpt><trkpt lat="45.5889605" lon="11.4747367"><ele>49.75</ele><time>2026-05-03T09:06:06.084Z</time></trkpt><trkpt lat="45.5889321" lon="11.4745713"><ele>50.0</ele><time>2026-05-03T09:06:07.084Z</time></trkpt><trkpt lat="45.5889008" lon="11.474404"><ele>50.0</ele><time>2026-05-03T09:06:08.084Z</time></trkpt><trkpt lat="45.5888679" lon="11.4742338"><ele>50.0</ele><time>2026-05-03T09:06:09.084Z</time></trkpt><trkpt lat="45.5888392" lon="11.4740669"><ele>50.0</ele><time>2026-05-03T09:06:10.084Z</time></trkpt><trkpt lat="45.5888167" lon="11.4738995"><ele>50.0</ele><time>2026-05-03T09:06:11.085Z</time></trkpt><trkpt lat="45.5888016" lon="11.4737271"><ele>50.25</ele><time>2026-05-03T09:06:12.085Z</time></trkpt><trkpt lat="45.5887933" lon="11.4735505"><ele>50.5</ele><time>2026-05-03T09:06:13.085Z</time></trkpt><trkpt lat="45.5887888" lon="11.4733747"><ele>50.75</ele><time>2026-05-03T09:06:14.085Z</time></trkpt><trkpt lat="45.5887884" lon="11.473193"><ele>51.0</ele><time>2026-05-03T09:06:15.084Z</time></trkpt><trkpt lat="45.5887923" lon="11.4730102"><ele>51.5</ele><time>2026-05-03T09:06:16.084Z</time></trkpt><trkpt lat="45.5887954" lon="11.4728334"><ele>52.0</ele><time>2026-05-03T09:06:17.085Z</time></trkpt><trkpt lat="45.5887952" lon="11.4726544"><ele>52.5</ele><time>2026-05-03T09:06:18.084Z</time></trkpt><trkpt lat="45.5887853" lon="11.4724759"><ele>53.0</ele><time>2026-05-03T09:06:19.084Z</time></trkpt><trkpt lat="45.5887614" lon="11.4723004"><ele>53.0</ele><time>2026-05-03T09:06:20.085Z</time></trkpt><trkpt lat="45.5887207" lon="11.47213"><ele>53.0</ele><time>2026-05-03T09:06:21.085Z</time></trkpt><trkpt lat="45.5886726" lon="11.4719664"><ele>53.0</ele><time>2026-05-03T09:06:22.084Z</time></trkpt><trkpt lat="45.5886171" lon="11.4718061"><ele>53.0</ele><time>2026-05-03T09:06:23.084Z</time></trkpt><trkpt lat="45.5885633" lon="11.4716449"><ele>53.2</ele><time>2026-05-03T09:06:24.083Z</time></trkpt><trkpt lat="45.5885261" lon="11.471488"><ele>53.4</ele><time>2026-05-03T09:06:25.084Z</time></trkpt><trkpt lat="45.5884936" lon="11.4713404"><ele>53.60000000000001</ele><time>2026-05-03T09:06:26.084Z</time></trkpt><trkpt lat="45.5884663" lon="11.4712129"><ele>53.800000000000004</ele><time>2026-05-03T09:06:27.085Z</time></trkpt><trkpt lat="45.5884474" lon="11.4710986"><ele>54.0</ele><time>2026-05-03T09:06:28.084Z</time></trkpt><trkpt lat="45.588443" lon="11.4709876"><ele>54.0</ele><time>2026-05-03T09:06:29.084Z</time></trkpt><trkpt lat="45.5884486" lon="11.4708837"><ele>54.0</ele><time>2026-05-03T09:06:30.085Z</time></trkpt><trkpt lat="45.5884628" lon="11.4707895"><ele>54.0</ele><time>2026-05-03T09:06:31.085Z</time></trkpt><trkpt lat="45.5884407" lon="11.4706254"><ele>54.0</ele><time>2026-05-03T09:06:33.084Z</time></trkpt><trkpt lat="45.5883881" lon="11.4705541"><ele>54.0</ele><time>2026-05-03T09:06:35.084Z</time></trkpt><trkpt lat="45.5883186" lon="11.4704983"><ele>54.0</ele><time>2026-05-03T09:06:38.084Z</time></trkpt><trkpt lat="45.588257" lon="11.4704244"><ele>54.833333333333336</ele><time>2026-05-03T09:06:40.085Z</time></trkpt><trkpt lat="45.5881905" lon="11.47029"><ele>55.66666666666667</ele><time>2026-05-03T09:06:42.084Z</time></trkpt><trkpt lat="45.5881607" lon="11.4701958"><ele>56.5</ele><time>2026-05-03T09:06:43.085Z</time></trkpt><trkpt lat="45.5881314" lon="11.4700922"><ele>57.333333333333336</ele><time>2026-05-03T09:06:44.084Z</time></trkpt><trkpt lat="45.5881079" lon="11.46999"><ele>58.16666666666667</ele><time>2026-05-03T09:06:45.084Z</time></trkpt><trkpt lat="45.5880832" lon="11.4698849"><ele>59.0</ele><time>2026-05-03T09:06:46.084Z</time></trkpt><trkpt lat="45.5880594" lon="11.4697816"><ele>59.0</ele><time>2026-05-03T09:06:47.084Z</time></trkpt><trkpt lat="45.5880385" lon="11.4696767"><ele>59.0</ele><time>2026-05-03T09:06:48.084Z</time></trkpt><trkpt lat="45.5880183" lon="11.4695781"><ele>59.0</ele><time>2026-05-03T09:06:49.084Z</time></trkpt><trkpt lat="45.5879921" lon="11.4694831"><ele>59.0</ele><time>2026-05-03T09:06:50.084Z</time></trkpt><trkpt lat="45.587963" lon="11.4693906"><ele>59.0</ele><time>2026-05-03T09:06:51.085Z</time></trkpt><trkpt lat="45.5879343" lon="11.469301"><ele>59.0</ele><time>2026-05-03T09:06:52.084Z</time></trkpt><trkpt lat="45.5879029" lon="11.4692137"><ele>59.0</ele><time>2026-05-03T09:06:53.084Z</time></trkpt><trkpt lat="45.5878622" lon="11.4691143"><ele>60.0</ele><time>2026-05-03T09:06:54.085Z</time></trkpt><trkpt lat="45.5878035" lon="11.4690039"><ele>61.0</ele><time>2026-05-03T09:06:55.084Z</time></trkpt><trkpt lat="45.5877291" lon="11.4688539"><ele>62.0</ele><time>2026-05-03T09:06:56.084Z</time></trkpt><trkpt lat="45.5876557" lon="11.4686695"><ele>63.0</ele><time>2026-05-03T09:06:57.084Z</time></trkpt><trkpt lat="45.587601" lon="11.4685175"><ele>66.8</ele><time>2026-05-03T09:06:58.084Z</time></trkpt><trkpt lat="45.5875482" lon="11.4683768"><ele>70.6</ele><time>2026-05-03T09:06:59.084Z</time></trkpt><trkpt lat="45.5875013" lon="11.4682437"><ele>74.39999999999999</ele><time>2026-05-03T09:07:00.084Z</time></trkpt><trkpt lat="45.587458" lon="11.4681169"><ele>78.19999999999999</ele><time>2026-05-03T09:07:01.084Z</time></trkpt><trkpt lat="45.5874169" lon="11.4680074"><ele>82.0</ele><time>2026-05-03T09:07:02.085Z</time></trkpt><trkpt lat="45.587383" lon="11.467922"><ele>85.8</ele><time>2026-05-03T09:07:03.084Z</time></trkpt><trkpt lat="45.5873353" lon="11.4678139"><ele>89.6</ele><time>2026-05-03T09:07:05.084Z</time></trkpt><trkpt lat="45.5872809" lon="11.4677253"><ele>93.39999999999999</ele><time>2026-05-03T09:07:07.085Z</time></trkpt><trkpt lat="45.5872168" lon="11.4675491"><ele>97.19999999999999</ele><time>2026-05-03T09:07:09.084Z</time></trkpt><trkpt lat="45.587178" lon="11.4674465"><ele>101.0</ele><time>2026-05-03T09:07:10.084Z</time></trkpt><trkpt lat="45.5871332" lon="11.4673467"><ele>101.0</ele><time>2026-05-03T09:07:11.085Z</time></trkpt><trkpt lat="45.5870967" lon="11.4672271"><ele>101.0</ele><time>2026-05-03T09:07:12.084Z</time></trkpt><trkpt lat="45.5870736" lon="11.4670949"><ele>101.0</ele><time>2026-05-03T09:07:13.084Z</time></trkpt><trkpt lat="45.5870414" lon="11.4669638"><ele>101.0</ele><time>2026-05-03T09:07:14.084Z</time></trkpt><trkpt lat="45.5870142" lon="11.4668367"><ele>101.0</ele><time>2026-05-03T09:07:15.084Z</time></trkpt><trkpt lat="45.5869864" lon="11.4667325"><ele>98.99999999999999</ele><time>2026-05-03T09:07:16.084Z</time></trkpt><trkpt lat="45.5869633" lon="11.4666392"><ele>97.0</ele><time>2026-05-03T09:07:17.084Z</time></trkpt><trkpt lat="45.5869269" lon="11.4665017"><ele>95.0</ele><time>2026-05-03T09:07:19.084Z</time></trkpt><trkpt lat="45.586887" lon="11.4663826"><ele>93.0</ele><time>2026-05-03T09:07:21.084Z</time></trkpt><trkpt lat="45.5869252" lon="11.4663051"><ele>91.0</ele><time>2026-05-03T09:07:23.084Z</time></trkpt><trkpt lat="45.586982" lon="11.4663484"><ele>89.0</ele><time>2026-05-03T09:07:25.084Z</time></trkpt><trkpt lat="45.5870364" lon="11.4664928"><ele>93.16666666666667</ele><time>2026-05-03T09:07:27.083Z</time></trkpt><trkpt lat="45.5870712" lon="11.4665803"><ele>97.33333333333334</ele><time>2026-05-03T09:07:28.084Z</time></trkpt><trkpt lat="45.5871081" lon="11.4666695"><ele>101.5</ele><time>2026-05-03T09:07:29.084Z</time></trkpt><trkpt lat="45.5871397" lon="11.4667549"><ele>105.66666666666667</ele><time>2026-05-03T09:07:30.084Z</time></trkpt><trkpt lat="45.587198" lon="11.4668684"><ele>109.83333333333333</ele><time>2026-05-03T09:07:32.084Z</time></trkpt><trkpt lat="45.5872663" lon="11.4668391"><ele>114.0</ele><time>2026-05-03T09:07:34.085Z</time></trkpt><trkpt lat="45.5872631" lon="11.4667052"><ele>114.0</ele><time>2026-05-03T09:07:36.084Z</time></trkpt><trkpt lat="45.58725" lon="11.466601"><ele>114.0</ele><time>2026-05-03T09:07:37.083Z</time></trkpt><trkpt lat="45.5872424" lon="11.4664673"><ele>114.0</ele><time>2026-05-03T09:07:38.084Z</time></trkpt><trkpt lat="45.5872239" lon="11.4663225"><ele>114.0</ele><time>2026-05-03T09:07:39.084Z</time></trkpt><trkpt lat="45.5871983" lon="11.4661661"><ele>114.0</ele><time>2026-05-03T09:07:40.084Z</time></trkpt><trkpt lat="45.5871742" lon="11.4660107"><ele>115.0</ele><time>2026-05-03T09:07:41.084Z</time></trkpt><trkpt lat="45.58714" lon="11.4658545"><ele>116.0</ele><time>2026-05-03T09:07:42.084Z</time></trkpt><trkpt lat="45.5871036" lon="11.4657005"><ele>117.0</ele><time>2026-05-03T09:07:43.085Z</time></trkpt><trkpt lat="45.5870707" lon="11.465553"><ele>118.0</ele><time>2026-05-03T09:07:44.085Z</time></trkpt><trkpt lat="45.5870341" lon="11.4654003"><ele>117.60000000000001</ele><time>2026-05-03T09:07:45.084Z</time></trkpt><trkpt lat="45.5869967" lon="11.4652583"><ele>117.20000000000002</ele><time>2026-05-03T09:07:46.085Z</time></trkpt><trkpt lat="45.5869548" lon="11.4651142"><ele>116.8</ele><time>2026-05-03T09:07:47.084Z</time></trkpt><trkpt lat="45.5869193" lon="11.4649673"><ele>116.4</ele><time>2026-05-03T09:07:48.084Z</time></trkpt><trkpt lat="45.586889" lon="11.4648336"><ele>116.0</ele><time>2026-05-03T09:07:49.085Z</time></trkpt><trkpt lat="45.586872" lon="11.4646871"><ele>118.25</ele><time>2026-05-03T09:07:50.084Z</time></trkpt><trkpt lat="45.5868645" lon="11.4645427"><ele>120.5</ele><time>2026-05-03T09:07:51.085Z</time></trkpt><trkpt lat="45.5868695" lon="11.4643859"><ele>122.75</ele><time>2026-05-03T09:07:52.084Z</time></trkpt><trkpt lat="45.5868887" lon="11.464216"><ele>125.0</ele><time>2026-05-03T09:07:53.084Z</time></trkpt><trkpt lat="45.58691" lon="11.4640394"><ele>125.0</ele><time>2026-05-03T09:07:54.083Z</time></trkpt><trkpt lat="45.5869282" lon="11.4638554"><ele>125.0</ele><time>2026-05-03T09:07:55.084Z</time></trkpt><trkpt lat="45.5869459" lon="11.4636641"><ele>125.0</ele><time>2026-05-03T09:07:56.084Z</time></trkpt><trkpt lat="45.5869614" lon="11.4634736"><ele>125.0</ele><time>2026-05-03T09:07:57.084Z</time></trkpt><trkpt lat="45.5869708" lon="11.4632885"><ele>126.25</ele><time>2026-05-03T09:07:58.084Z</time></trkpt><trkpt lat="45.5869719" lon="11.4631046"><ele>127.5</ele><time>2026-05-03T09:07:59.084Z</time></trkpt><trkpt lat="45.5869635" lon="11.4629259"><ele>128.75</ele><time>2026-05-03T09:08:00.084Z</time></trkpt><trkpt lat="45.5869369" lon="11.4627546"><ele>130.0</ele><time>2026-05-03T09:08:01.084Z</time></trkpt><trkpt lat="45.5868947" lon="11.462598"><ele>131.8</ele><time>2026-05-03T09:08:02.084Z</time></trkpt><trkpt lat="45.5868507" lon="11.46245"><ele>133.6</ele><time>2026-05-03T09:08:03.084Z</time></trkpt><trkpt lat="45.5868194" lon="11.4622955"><ele>135.4</ele><time>2026-05-03T09:08:04.085Z</time></trkpt><trkpt lat="45.5868015" lon="11.4621337"><ele>137.2</ele><time>2026-05-03T09:08:05.084Z</time></trkpt><trkpt lat="45.5867921" lon="11.4620001"><ele>139.0</ele><time>2026-05-03T09:08:06.085Z</time></trkpt><trkpt lat="45.5867856" lon="11.4618815"><ele>141.66666666666669</ele><time>2026-05-03T09:08:07.084Z</time></trkpt><trkpt lat="45.5867721" lon="11.4617726"><ele>144.33333333333334</ele><time>2026-05-03T09:08:08.084Z</time></trkpt><trkpt lat="45.5867336" lon="11.4616784"><ele>147.0</ele><time>2026-05-03T09:08:09.084Z</time></trkpt><trkpt lat="45.5866813" lon="11.4615842"><ele>149.66666666666666</ele><time>2026-05-03T09:08:10.084Z</time></trkpt><trkpt lat="45.5866196" lon="11.4614957"><ele>152.33333333333331</ele><time>2026-05-03T09:08:11.084Z</time></trkpt><trkpt lat="45.5865486" lon="11.4614045"><ele>155.0</ele><time>2026-05-03T09:08:12.084Z</time></trkpt><trkpt lat="45.5864764" lon="11.4613159"><ele>156.6</ele><time>2026-05-03T09:08:13.084Z</time></trkpt><trkpt lat="45.5864005" lon="11.4612171"><ele>158.2</ele><time>2026-05-03T09:08:14.084Z</time></trkpt><trkpt lat="45.5863211" lon="11.4611167"><ele>159.8</ele><time>2026-05-03T09:08:15.084Z</time></trkpt><trkpt lat="45.58624" lon="11.4610141"><ele>161.4</ele><time>2026-05-03T09:08:16.084Z</time></trkpt><trkpt lat="45.5861622" lon="11.4609099"><ele>163.0</ele><time>2026-05-03T09:08:17.084Z</time></trkpt><trkpt lat="45.5860852" lon="11.4608072"><ele>163.0</ele><time>2026-05-03T09:08:18.084Z</time></trkpt><trkpt lat="45.5860091" lon="11.460703"><ele>163.0</ele><time>2026-05-03T09:08:19.084Z</time></trkpt><trkpt lat="45.5859409" lon="11.4606062"><ele>163.0</ele><time>2026-05-03T09:08:20.085Z</time></trkpt><trkpt lat="45.5858759" lon="11.4605102"><ele>163.0</ele><time>2026-05-03T09:08:21.085Z</time></trkpt><trkpt lat="45.5858095" lon="11.4604124"><ele>163.0</ele><time>2026-05-03T09:08:22.084Z</time></trkpt><trkpt lat="45.5857444" lon="11.4603096"><ele>166.0</ele><time>2026-05-03T09:08:23.084Z</time></trkpt><trkpt lat="45.5856773" lon="11.4601903"><ele>169.0</ele><time>2026-05-03T09:08:24.084Z</time></trkpt><trkpt lat="45.5856204" lon="11.4600585"><ele>172.0</ele><time>2026-05-03T09:08:25.084Z</time></trkpt><trkpt lat="45.5855646" lon="11.4599219"><ele>175.0</ele><time>2026-05-03T09:08:26.084Z</time></trkpt><trkpt lat="45.5855045" lon="11.4597847"><ele>178.0</ele><time>2026-05-03T09:08:27.084Z</time></trkpt><trkpt lat="45.5854457" lon="11.4596439"><ele>179.4</ele><time>2026-05-03T09:08:28.084Z</time></trkpt><trkpt lat="45.5853909" lon="11.4595136"><ele>180.8</ele><time>2026-05-03T09:08:29.084Z</time></trkpt><trkpt lat="45.5853302" lon="11.459392"><ele>182.2</ele><time>2026-05-03T09:08:30.084Z</time></trkpt><trkpt lat="45.5852554" lon="11.4592824"><ele>183.6</ele><time>2026-05-03T09:08:31.085Z</time></trkpt><trkpt lat="45.5851821" lon="11.4591763"><ele>185.0</ele><time>2026-05-03T09:08:32.084Z</time></trkpt><trkpt lat="45.5851071" lon="11.4590827"><ele>185.0</ele><time>2026-05-03T09:08:33.084Z</time></trkpt><trkpt lat="45.5850375" lon="11.4589788"><ele>185.0</ele><time>2026-05-03T09:08:34.084Z</time></trkpt><trkpt lat="45.5849757" lon="11.4588742"><ele>185.0</ele><time>2026-05-03T09:08:35.085Z</time></trkpt><trkpt lat="45.5849331" lon="11.4587583"><ele>185.0</ele><time>2026-05-03T09:08:36.084Z</time></trkpt><trkpt lat="45.5849087" lon="11.4586364"><ele>185.0</ele><time>2026-05-03T09:08:37.084Z</time></trkpt><trkpt lat="45.5848985" lon="11.4584966"><ele>186.0</ele><time>2026-05-03T09:08:38.084Z</time></trkpt><trkpt lat="45.5849" lon="11.4583564"><ele>187.0</ele><time>2026-05-03T09:08:39.085Z</time></trkpt><trkpt lat="45.5849009" lon="11.4582423"><ele>188.0</ele><time>2026-05-03T09:08:40.084Z</time></trkpt><trkpt lat="45.5848728" lon="11.4581336"><ele>189.0</ele><time>2026-05-03T09:08:41.084Z</time></trkpt><trkpt lat="45.5848503" lon="11.4580287"><ele>190.0</ele><time>2026-05-03T09:08:42.083Z</time></trkpt><trkpt lat="45.5847478" lon="11.4580036"><ele>191.0</ele><time>2026-05-03T09:08:43.085Z</time></trkpt><trkpt lat="45.5846899" lon="11.4579196"><ele>193.4</ele><time>2026-05-03T09:08:44.083Z</time></trkpt><trkpt lat="45.5846375" lon="11.4578132"><ele>195.8</ele><time>2026-05-03T09:08:45.085Z</time></trkpt><trkpt lat="45.5845815" lon="11.4576932"><ele>198.20000000000002</ele><time>2026-05-03T09:08:46.084Z</time></trkpt><trkpt lat="45.5845295" lon="11.4575739"><ele>200.60000000000002</ele><time>2026-05-03T09:08:47.084Z</time></trkpt><trkpt lat="45.584478" lon="11.4574792"><ele>203.0</ele><time>2026-05-03T09:08:48.085Z</time></trkpt><trkpt lat="45.5844144" lon="11.4574173"><ele>203.66666666666669</ele><time>2026-05-03T09:08:49.084Z</time></trkpt><trkpt lat="45.5843394" lon="11.4573951"><ele>204.33333333333334</ele><time>2026-05-03T09:08:50.084Z</time></trkpt><trkpt lat="45.5842589" lon="11.457409"><ele>205.0</ele><time>2026-05-03T09:08:51.084Z</time></trkpt><trkpt lat="45.5841831" lon="11.4574222"><ele>205.66666666666669</ele><time>2026-05-03T09:08:52.084Z</time></trkpt><trkpt lat="45.5841173" lon="11.4574164"><ele>206.33333333333334</ele><time>2026-05-03T09:08:53.084Z</time></trkpt><trkpt lat="45.5840391" lon="11.4572918"><ele>207.0</ele><time>2026-05-03T09:08:55.084Z</time></trkpt><trkpt lat="45.5840255" lon="11.4572026"><ele>208.00000000000003</ele><time>2026-05-03T09:08:56.084Z</time></trkpt><trkpt lat="45.5840201" lon="11.4571029"><ele>209.0</ele><time>2026-05-03T09:08:57.084Z</time></trkpt><trkpt lat="45.5840436" lon="11.4570109"><ele>210.0</ele><time>2026-05-03T09:08:58.084Z</time></trkpt><trkpt lat="45.5840901" lon="11.4569416"><ele>211.0</ele><time>2026-05-03T09:08:59.084Z</time></trkpt><trkpt lat="45.5841516" lon="11.4568932"><ele>212.0</ele><time>2026-05-03T09:09:00.084Z</time></trkpt><trkpt lat="45.5842141" lon="11.4568328"><ele>213.00000000000003</ele><time>2026-05-03T09:09:01.084Z</time></trkpt><trkpt lat="45.5842794" lon="11.456773"><ele>214.0</ele><time>2026-05-03T09:09:02.084Z</time></trkpt><trkpt lat="45.5843481" lon="11.4567106"><ele>214.0</ele><time>2026-05-03T09:09:03.083Z</time></trkpt><trkpt lat="45.5844122" lon="11.4566529"><ele>213.99999999999997</ele><time>2026-05-03T09:09:04.084Z</time></trkpt><trkpt lat="45.584467" lon="11.4566017"><ele>213.99999999999997</ele><time>2026-05-03T09:09:05.084Z</time></trkpt><trkpt lat="45.5845063" lon="11.4564653"><ele>214.0</ele><time>2026-05-03T09:09:07.082Z</time></trkpt><trkpt lat="45.584425" lon="11.4563883"><ele>214.0</ele><time>2026-05-03T09:09:09.085Z</time></trkpt><trkpt lat="45.5842954" lon="11.4563946"><ele>214.00000000000003</ele><time>2026-05-03T09:09:11.084Z</time></trkpt><trkpt lat="45.5842225" lon="11.456404"><ele>214.0</ele><time>2026-05-03T09:09:12.085Z</time></trkpt><trkpt lat="45.5841501" lon="11.4564063"><ele>214.0</ele><time>2026-05-03T09:09:13.084Z</time></trkpt><trkpt lat="45.584078" lon="11.4563885"><ele>214.0</ele><time>2026-05-03T09:09:14.084Z</time></trkpt><trkpt lat="45.5840036" lon="11.4563578"><ele>214.0</ele><time>2026-05-03T09:09:15.084Z</time></trkpt><trkpt lat="45.5839364" lon="11.4563111"><ele>214.00000000000003</ele><time>2026-05-03T09:09:16.085Z</time></trkpt><trkpt lat="45.5838807" lon="11.4562532"><ele>214.0</ele><time>2026-05-03T09:09:17.084Z</time></trkpt><trkpt lat="45.5838268" lon="11.4561149"><ele>214.66666666666666</ele><time>2026-05-03T09:09:19.085Z</time></trkpt><trkpt lat="45.5838106" lon="11.4560101"><ele>215.33333333333331</ele><time>2026-05-03T09:09:22.084Z</time></trkpt><trkpt lat="45.5837548" lon="11.4559559"><ele>216.0</ele><time>2026-05-03T09:09:28.083Z</time></trkpt><trkpt lat="45.5836459" lon="11.4560023"><ele>216.66666666666669</ele><time>2026-05-03T09:09:30.084Z</time></trkpt><trkpt lat="45.5835827" lon="11.456039"><ele>217.33333333333334</ele><time>2026-05-03T09:09:31.084Z</time></trkpt><trkpt lat="45.5835112" lon="11.4560822"><ele>218.0</ele><time>2026-05-03T09:09:32.084Z</time></trkpt><trkpt lat="45.5834311" lon="11.4561269"><ele>218.4</ele><time>2026-05-03T09:09:33.084Z</time></trkpt><trkpt lat="45.5833429" lon="11.4561732"><ele>218.8</ele><time>2026-05-03T09:09:34.084Z</time></trkpt><trkpt lat="45.5832506" lon="11.4562218"><ele>219.2</ele><time>2026-05-03T09:09:35.084Z</time></trkpt><trkpt lat="45.5831512" lon="11.4562711"><ele>219.6</ele><time>2026-05-03T09:09:36.084Z</time></trkpt><trkpt lat="45.5830435" lon="11.4563288"><ele>220.0</ele><time>2026-05-03T09:09:37.084Z</time></trkpt><trkpt lat="45.5829293" lon="11.4563877"><ele>220.75</ele><time>2026-05-03T09:09:38.084Z</time></trkpt><trkpt lat="45.5828103" lon="11.4564472"><ele>221.5</ele><time>2026-05-03T09:09:39.085Z</time></trkpt><trkpt lat="45.5826891" lon="11.4565076"><ele>222.25</ele><time>2026-05-03T09:09:40.084Z</time></trkpt><trkpt lat="45.5825683" lon="11.4565667"><ele>223.0</ele><time>2026-05-03T09:09:41.084Z</time></trkpt><trkpt lat="45.5824499" lon="11.4566243"><ele>223.0</ele><time>2026-05-03T09:09:42.084Z</time></trkpt><trkpt lat="45.5823326" lon="11.4566785"><ele>223.0</ele><time>2026-05-03T09:09:43.084Z</time></trkpt><trkpt lat="45.5822111" lon="11.4567317"><ele>223.0</ele><time>2026-05-03T09:09:44.084Z</time></trkpt><trkpt lat="45.5820882" lon="11.4567838"><ele>223.0</ele><time>2026-05-03T09:09:45.084Z</time></trkpt><trkpt lat="45.5819617" lon="11.4568373"><ele>222.5</ele><time>2026-05-03T09:09:46.085Z</time></trkpt><trkpt lat="45.5818324" lon="11.456888"><ele>222.0</ele><time>2026-05-03T09:09:47.085Z</time></trkpt><trkpt lat="45.5817009" lon="11.4569294"><ele>221.5</ele><time>2026-05-03T09:09:48.085Z</time></trkpt><trkpt lat="45.5815614" lon="11.4569673"><ele>221.0</ele><time>2026-05-03T09:09:49.084Z</time></trkpt><trkpt lat="45.5814201" lon="11.4570011"><ele>221.0</ele><time>2026-05-03T09:09:50.084Z</time></trkpt><trkpt lat="45.5812794" lon="11.4570284"><ele>221.0</ele><time>2026-05-03T09:09:51.084Z</time></trkpt><trkpt lat="45.5811395" lon="11.4570574"><ele>221.0</ele><time>2026-05-03T09:09:52.085Z</time></trkpt><trkpt lat="45.5809998" lon="11.4570887"><ele>221.0</ele><time>2026-05-03T09:09:53.084Z</time></trkpt><trkpt lat="45.5808589" lon="11.4571183"><ele>221.0</ele><time>2026-05-03T09:09:54.084Z</time></trkpt><trkpt lat="45.5807148" lon="11.4571494"><ele>221.0</ele><time>2026-05-03T09:09:55.084Z</time></trkpt><trkpt lat="45.5805652" lon="11.4571801"><ele>221.0</ele><time>2026-05-03T09:09:56.084Z</time></trkpt><trkpt lat="45.5804129" lon="11.4572102"><ele>220.25</ele><time>2026-05-03T09:09:57.084Z</time></trkpt><trkpt lat="45.5802661" lon="11.4572433"><ele>219.5</ele><time>2026-05-03T09:09:58.084Z</time></trkpt><trkpt lat="45.5801259" lon="11.457272"><ele>218.75</ele><time>2026-05-03T09:09:59.083Z</time></trkpt><trkpt lat="45.5799846" lon="11.4573"><ele>218.0</ele><time>2026-05-03T09:10:00.084Z</time></trkpt><trkpt lat="45.5798413" lon="11.4573286"><ele>218.0</ele><time>2026-05-03T09:10:01.084Z</time></trkpt><trkpt lat="45.5797002" lon="11.4573618"><ele>218.0</ele><time>2026-05-03T09:10:02.084Z</time></trkpt><trkpt lat="45.5795611" lon="11.4573913"><ele>218.0</ele><time>2026-05-03T09:10:03.084Z</time></trkpt><trkpt lat="45.5794239" lon="11.457417"><ele>218.0</ele><time>2026-05-03T09:10:04.084Z</time></trkpt><trkpt lat="45.5792821" lon="11.457436"><ele>217.5</ele><time>2026-05-03T09:10:05.084Z</time></trkpt><trkpt lat="45.5791455" lon="11.4574463"><ele>217.0</ele><time>2026-05-03T09:10:06.084Z</time></trkpt><trkpt lat="45.5790061" lon="11.4574393"><ele>216.5</ele><time>2026-05-03T09:10:07.084Z</time></trkpt><trkpt lat="45.5788665" lon="11.4574183"><ele>216.0</ele><time>2026-05-03T09:10:08.084Z</time></trkpt><trkpt lat="45.5787271" lon="11.4573838"><ele>216.5</ele><time>2026-05-03T09:10:09.084Z</time></trkpt><trkpt lat="45.5785864" lon="11.4573369"><ele>217.0</ele><time>2026-05-03T09:10:10.084Z</time></trkpt><trkpt lat="45.5784492" lon="11.4572717"><ele>217.5</ele><time>2026-05-03T09:10:11.084Z</time></trkpt><trkpt lat="45.5783148" lon="11.4571874"><ele>218.0</ele><time>2026-05-03T09:10:12.085Z</time></trkpt><trkpt lat="45.5781869" lon="11.4570981"><ele>218.0</ele><time>2026-05-03T09:10:13.084Z</time></trkpt><trkpt lat="45.5780653" lon="11.4570113"><ele>218.0</ele><time>2026-05-03T09:10:14.083Z</time></trkpt><trkpt lat="45.5779438" lon="11.4569262"><ele>218.0</ele><time>2026-05-03T09:10:15.084Z</time></trkpt><trkpt lat="45.5778226" lon="11.4568353"><ele>218.0</ele><time>2026-05-03T09:10:16.084Z</time></trkpt><trkpt lat="45.5777026" lon="11.4567375"><ele>217.25</ele><time>2026-05-03T09:10:17.085Z</time></trkpt><trkpt lat="45.5775777" lon="11.4566342"><ele>216.5</ele><time>2026-05-03T09:10:18.084Z</time></trkpt><trkpt lat="45.5774466" lon="11.4565326"><ele>215.75</ele><time>2026-05-03T09:10:19.085Z</time></trkpt><trkpt lat="45.5773177" lon="11.4564412"><ele>215.0</ele><time>2026-05-03T09:10:20.084Z</time></trkpt><trkpt lat="45.5771894" lon="11.4563622"><ele>215.0</ele><time>2026-05-03T09:10:21.084Z</time></trkpt><trkpt lat="45.5770602" lon="11.4562996"><ele>215.0</ele><time>2026-05-03T09:10:22.084Z</time></trkpt><trkpt lat="45.5769251" lon="11.456249"><ele>215.0</ele><time>2026-05-03T09:10:23.083Z</time></trkpt><trkpt lat="45.5767836" lon="11.4562136"><ele>215.0</ele><time>2026-05-03T09:10:24.084Z</time></trkpt><trkpt lat="45.5766424" lon="11.4561959"><ele>213.75</ele><time>2026-05-03T09:10:25.084Z</time></trkpt><trkpt lat="45.5765026" lon="11.456198"><ele>212.5</ele><time>2026-05-03T09:10:26.084Z</time></trkpt><trkpt lat="45.5763653" lon="11.4562215"><ele>211.25</ele><time>2026-05-03T09:10:27.084Z</time></trkpt><trkpt lat="45.5762308" lon="11.4562541"><ele>210.0</ele><time>2026-05-03T09:10:28.084Z</time></trkpt><trkpt lat="45.5761059" lon="11.4562981"><ele>208.75</ele><time>2026-05-03T09:10:29.085Z</time></trkpt><trkpt lat="45.5759889" lon="11.4563491"><ele>207.5</ele><time>2026-05-03T09:10:30.084Z</time></trkpt><trkpt lat="45.5758758" lon="11.4564001"><ele>206.25</ele><time>2026-05-03T09:10:31.084Z</time></trkpt><trkpt lat="45.5757686" lon="11.4564412"><ele>205.0</ele><time>2026-05-03T09:10:32.084Z</time></trkpt><trkpt lat="45.5756544" lon="11.4564737"><ele>205.0</ele><time>2026-05-03T09:10:33.084Z</time></trkpt><trkpt lat="45.5755392" lon="11.4564837"><ele>205.0</ele><time>2026-05-03T09:10:34.084Z</time></trkpt><trkpt lat="45.5754289" lon="11.4564617"><ele>205.0</ele><time>2026-05-03T09:10:35.084Z</time></trkpt><trkpt lat="45.5753188" lon="11.456412"><ele>205.0</ele><time>2026-05-03T09:10:36.084Z</time></trkpt><trkpt lat="45.575211" lon="11.456338"><ele>206.0</ele><time>2026-05-03T09:10:37.084Z</time></trkpt><trkpt lat="45.5751094" lon="11.4562534"><ele>207.0</ele><time>2026-05-03T09:10:38.084Z</time></trkpt><trkpt lat="45.5750094" lon="11.4561697"><ele>208.0</ele><time>2026-05-03T09:10:39.083Z</time></trkpt><trkpt lat="45.5748929" lon="11.4560968"><ele>209.0</ele><time>2026-05-03T09:10:40.084Z</time></trkpt><trkpt lat="45.5747622" lon="11.4560433"><ele>209.0</ele><time>2026-05-03T09:10:41.084Z</time></trkpt><trkpt lat="45.5746178" lon="11.4559959"><ele>209.0</ele><time>2026-05-03T09:10:42.084Z</time></trkpt><trkpt lat="45.5744771" lon="11.4559523"><ele>209.0</ele><time>2026-05-03T09:10:43.084Z</time></trkpt><trkpt lat="45.5743429" lon="11.4559132"><ele>209.0</ele><time>2026-05-03T09:10:44.085Z</time></trkpt><trkpt lat="45.5742088" lon="11.4558755"><ele>207.5</ele><time>2026-05-03T09:10:45.085Z</time></trkpt><trkpt lat="45.5740756" lon="11.455834"><ele>206.0</ele><time>2026-05-03T09:10:46.084Z</time></trkpt><trkpt lat="45.57394" lon="11.4557879"><ele>204.5</ele><time>2026-05-03T09:10:47.084Z</time></trkpt><trkpt lat="45.5738002" lon="11.4557472"><ele>203.0</ele><time>2026-05-03T09:10:48.085Z</time></trkpt><trkpt lat="45.5736615" lon="11.4557239"><ele>202.5</ele><time>2026-05-03T09:10:49.084Z</time></trkpt><trkpt lat="45.5735175" lon="11.4557169"><ele>202.0</ele><time>2026-05-03T09:10:50.085Z</time></trkpt><trkpt lat="45.5733761" lon="11.4557189"><ele>201.5</ele><time>2026-05-03T09:10:51.084Z</time></trkpt><trkpt lat="45.5732381" lon="11.4557245"><ele>201.0</ele><time>2026-05-03T09:10:52.084Z</time></trkpt><trkpt lat="45.5731042" lon="11.4557268"><ele>201.0</ele><time>2026-05-03T09:10:53.084Z</time></trkpt><trkpt lat="45.5729732" lon="11.4557243"><ele>201.0</ele><time>2026-05-03T09:10:54.084Z</time></trkpt><trkpt lat="45.5728446" lon="11.4557183"><ele>201.0</ele><time>2026-05-03T09:10:55.084Z</time></trkpt><trkpt lat="45.5727179" lon="11.4557116"><ele>201.0</ele><time>2026-05-03T09:10:56.084Z</time></trkpt><trkpt lat="45.572602" lon="11.455695"><ele>200.0</ele><time>2026-05-03T09:10:57.084Z</time></trkpt><trkpt lat="45.5724885" lon="11.4556732"><ele>199.0</ele><time>2026-05-03T09:10:58.084Z</time></trkpt><trkpt lat="45.5723768" lon="11.4556279"><ele>198.0</ele><time>2026-05-03T09:10:59.084Z</time></trkpt><trkpt lat="45.5722671" lon="11.4555484"><ele>197.0</ele><time>2026-05-03T09:11:00.084Z</time></trkpt><trkpt lat="45.5721676" lon="11.4554438"><ele>197.0</ele><time>2026-05-03T09:11:01.085Z</time></trkpt><trkpt lat="45.5720735" lon="11.4553208"><ele>197.0</ele><time>2026-05-03T09:11:02.084Z</time></trkpt><trkpt lat="45.5719854" lon="11.4551958"><ele>197.0</ele><time>2026-05-03T09:11:03.084Z</time></trkpt><trkpt lat="45.5718934" lon="11.4550816"><ele>197.0</ele><time>2026-05-03T09:11:04.084Z</time></trkpt><trkpt lat="45.5717883" lon="11.4549934"><ele>194.5</ele><time>2026-05-03T09:11:05.084Z</time></trkpt><trkpt lat="45.5716766" lon="11.4549324"><ele>192.0</ele><time>2026-05-03T09:11:06.085Z</time></trkpt><trkpt lat="45.571564" lon="11.4548777"><ele>189.5</ele><time>2026-05-03T09:11:07.085Z</time></trkpt><trkpt lat="45.5714552" lon="11.454819"><ele>187.0</ele><time>2026-05-03T09:11:08.085Z</time></trkpt><trkpt lat="45.5713501" lon="11.4547462"><ele>187.0</ele><time>2026-05-03T09:11:09.084Z</time></trkpt><trkpt lat="45.5712537" lon="11.4546647"><ele>187.0</ele><time>2026-05-03T09:11:10.085Z</time></trkpt><trkpt lat="45.5711578" lon="11.454579"><ele>187.0</ele><time>2026-05-03T09:11:11.083Z</time></trkpt><trkpt lat="45.5710597" lon="11.4544985"><ele>187.0</ele><time>2026-05-03T09:11:12.085Z</time></trkpt><trkpt lat="45.5709554" lon="11.4544408"><ele>183.25</ele><time>2026-05-03T09:11:13.084Z</time></trkpt><trkpt lat="45.570846" lon="11.4544034"><ele>179.5</ele><time>2026-05-03T09:11:14.085Z</time></trkpt><trkpt lat="45.5707277" lon="11.4543827"><ele>175.75</ele><time>2026-05-03T09:11:15.084Z</time></trkpt><trkpt lat="45.5706097" lon="11.4543694"><ele>172.0</ele><time>2026-05-03T09:11:16.084Z</time></trkpt><trkpt lat="45.5704945" lon="11.4543558"><ele>172.0</ele><time>2026-05-03T09:11:17.085Z</time></trkpt><trkpt lat="45.5703842" lon="11.4543471"><ele>172.0</ele><time>2026-05-03T09:11:18.084Z</time></trkpt><trkpt lat="45.5702776" lon="11.4543435"><ele>172.0</ele><time>2026-05-03T09:11:19.084Z</time></trkpt><trkpt lat="45.570179" lon="11.4543548"><ele>172.0</ele><time>2026-05-03T09:11:20.085Z</time></trkpt><trkpt lat="45.5700854" lon="11.4543916"><ele>172.0</ele><time>2026-05-03T09:11:21.085Z</time></trkpt><trkpt lat="45.5699975" lon="11.4544554"><ele>172.2</ele><time>2026-05-03T09:11:22.085Z</time></trkpt><trkpt lat="45.569915" lon="11.4545361"><ele>172.39999999999998</ele><time>2026-05-03T09:11:23.083Z</time></trkpt><trkpt lat="45.5698252" lon="11.4546103"><ele>172.60000000000002</ele><time>2026-05-03T09:11:24.084Z</time></trkpt><trkpt lat="45.569721" lon="11.4546574"><ele>172.8</ele><time>2026-05-03T09:11:25.084Z</time></trkpt><trkpt lat="45.5696106" lon="11.4546761"><ele>173.0</ele><time>2026-05-03T09:11:26.084Z</time></trkpt><trkpt lat="45.5694936" lon="11.454674"><ele>172.5</ele><time>2026-05-03T09:11:27.084Z</time></trkpt><trkpt lat="45.5693727" lon="11.454674"><ele>172.0</ele><time>2026-05-03T09:11:28.084Z</time></trkpt><trkpt lat="45.5692486" lon="11.454678"><ele>171.5</ele><time>2026-05-03T09:11:29.084Z</time></trkpt><trkpt lat="45.5691298" lon="11.4546859"><ele>171.0</ele><time>2026-05-03T09:11:30.084Z</time></trkpt><trkpt lat="45.5690181" lon="11.4547042"><ele>171.0</ele><time>2026-05-03T09:11:31.084Z</time></trkpt><trkpt lat="45.5689123" lon="11.4547165"><ele>171.0</ele><time>2026-05-03T09:11:32.084Z</time></trkpt><trkpt lat="45.5688141" lon="11.4547302"><ele>171.0</ele><time>2026-05-03T09:11:33.084Z</time></trkpt><trkpt lat="45.5687169" lon="11.4547397"><ele>171.0</ele><time>2026-05-03T09:11:34.085Z</time></trkpt><trkpt lat="45.5686153" lon="11.4547416"><ele>171.0</ele><time>2026-05-03T09:11:35.084Z</time></trkpt><trkpt lat="45.5685087" lon="11.4547324"><ele>171.0</ele><time>2026-05-03T09:11:36.084Z</time></trkpt><trkpt lat="45.5683973" lon="11.4547103"><ele>171.0</ele><time>2026-05-03T09:11:37.084Z</time></trkpt><trkpt lat="45.5682817" lon="11.4546765"><ele>171.0</ele><time>2026-05-03T09:11:38.084Z</time></trkpt><trkpt lat="45.5681702" lon="11.4546233"><ele>171.0</ele><time>2026-05-03T09:11:39.084Z</time></trkpt><trkpt lat="45.5680575" lon="11.4545517"><ele>171.0</ele><time>2026-05-03T09:11:40.084Z</time></trkpt><trkpt lat="45.5679463" lon="11.4544662"><ele>171.0</ele><time>2026-05-03T09:11:41.083Z</time></trkpt><trkpt lat="45.5678324" lon="11.4543791"><ele>171.0</ele><time>2026-05-03T09:11:42.084Z</time></trkpt><trkpt lat="45.5677178" lon="11.4542919"><ele>171.0</ele><time>2026-05-03T09:11:43.084Z</time></trkpt><trkpt lat="45.5676083" lon="11.4542033"><ele>169.75</ele><time>2026-05-03T09:11:44.084Z</time></trkpt><trkpt lat="45.5675033" lon="11.4541175"><ele>168.5</ele><time>2026-05-03T09:11:45.084Z</time></trkpt><trkpt lat="45.5673931" lon="11.4540396"><ele>167.25</ele><time>2026-05-03T09:11:46.084Z</time></trkpt><trkpt lat="45.5672794" lon="11.4539742"><ele>166.0</ele><time>2026-05-03T09:11:47.084Z</time></trkpt><trkpt lat="45.5671573" lon="11.4539242"><ele>166.0</ele><time>2026-05-03T09:11:48.084Z</time></trkpt><trkpt lat="45.5670325" lon="11.4538765"><ele>166.0</ele><time>2026-05-03T09:11:49.084Z</time></trkpt><trkpt lat="45.5669023" lon="11.4538305"><ele>166.0</ele><time>2026-05-03T09:11:50.085Z</time></trkpt><trkpt lat="45.566773" lon="11.4537861"><ele>166.0</ele><time>2026-05-03T09:11:51.085Z</time></trkpt><trkpt lat="45.5666431" lon="11.4537475"><ele>167.0</ele><time>2026-05-03T09:11:52.084Z</time></trkpt><trkpt lat="45.5665116" lon="11.4537137"><ele>168.0</ele><time>2026-05-03T09:11:53.084Z</time></trkpt><trkpt lat="45.5663795" lon="11.453687"><ele>169.0</ele><time>2026-05-03T09:11:54.084Z</time></trkpt><trkpt lat="45.5662439" lon="11.4536748"><ele>170.0</ele><time>2026-05-03T09:11:55.084Z</time></trkpt><trkpt lat="45.5661107" lon="11.4536707"><ele>170.0</ele><time>2026-05-03T09:11:56.084Z</time></trkpt><trkpt lat="45.5659828" lon="11.4536567"><ele>170.0</ele><time>2026-05-03T09:11:57.084Z</time></trkpt><trkpt lat="45.5658608" lon="11.453615"><ele>170.0</ele><time>2026-05-03T09:11:58.085Z</time></trkpt><trkpt lat="45.5657401" lon="11.4535456"><ele>170.0</ele><time>2026-05-03T09:11:59.085Z</time></trkpt><trkpt lat="45.5656206" lon="11.4534646"><ele>170.0</ele><time>2026-05-03T09:12:00.083Z</time></trkpt><trkpt lat="45.5654955" lon="11.4533902"><ele>170.0</ele><time>2026-05-03T09:12:01.084Z</time></trkpt><trkpt lat="45.5653723" lon="11.4533301"><ele>170.0</ele><time>2026-05-03T09:12:02.085Z</time></trkpt><trkpt lat="45.565244" lon="11.4532926"><ele>170.0</ele><time>2026-05-03T09:12:03.084Z</time></trkpt><trkpt lat="45.5651144" lon="11.4532819"><ele>168.75</ele><time>2026-05-03T09:12:04.084Z</time></trkpt><trkpt lat="45.5649879" lon="11.4532819"><ele>167.5</ele><time>2026-05-03T09:12:05.084Z</time></trkpt><trkpt lat="45.5648679" lon="11.4532941"><ele>166.25</ele><time>2026-05-03T09:12:06.084Z</time></trkpt><trkpt lat="45.5647536" lon="11.453291"><ele>165.0</ele><time>2026-05-03T09:12:07.085Z</time></trkpt><trkpt lat="45.5646368" lon="11.4532846"><ele>163.75</ele><time>2026-05-03T09:12:08.086Z</time></trkpt><trkpt lat="45.5645168" lon="11.4532824"><ele>162.5</ele><time>2026-05-03T09:12:09.084Z</time></trkpt><trkpt lat="45.564396" lon="11.4532969"><ele>161.25</ele><time>2026-05-03T09:12:10.085Z</time></trkpt><trkpt lat="45.5642728" lon="11.4533323"><ele>160.0</ele><time>2026-05-03T09:12:11.085Z</time></trkpt><trkpt lat="45.5641494" lon="11.4533765"><ele>160.0</ele><time>2026-05-03T09:12:12.084Z</time></trkpt><trkpt lat="45.5640237" lon="11.4534339"><ele>160.0</ele><time>2026-05-03T09:12:13.084Z</time></trkpt><trkpt lat="45.5639006" lon="11.4535007"><ele>160.0</ele><time>2026-05-03T09:12:14.084Z</time></trkpt><trkpt lat="45.56378" lon="11.4535814"><ele>160.0</ele><time>2026-05-03T09:12:15.085Z</time></trkpt><trkpt lat="45.5636652" lon="11.4536698"><ele>159.0</ele><time>2026-05-03T09:12:16.085Z</time></trkpt><trkpt lat="45.5635561" lon="11.4537579"><ele>158.0</ele><time>2026-05-03T09:12:17.084Z</time></trkpt><trkpt lat="45.5634505" lon="11.4538388"><ele>157.0</ele><time>2026-05-03T09:12:18.084Z</time></trkpt><trkpt lat="45.5633424" lon="11.4539105"><ele>156.0</ele><time>2026-05-03T09:12:19.084Z</time></trkpt><trkpt lat="45.5632365" lon="11.4539665"><ele>154.0</ele><time>2026-05-03T09:12:20.084Z</time></trkpt><trkpt lat="45.5631233" lon="11.4539855"><ele>152.0</ele><time>2026-05-03T09:12:21.084Z</time></trkpt><trkpt lat="45.5630055" lon="11.4539845"><ele>150.0</ele><time>2026-05-03T09:12:22.084Z</time></trkpt><trkpt lat="45.5628833" lon="11.4539699"><ele>148.0</ele><time>2026-05-03T09:12:23.084Z</time></trkpt><trkpt lat="45.5627626" lon="11.4539442"><ele>147.8</ele><time>2026-05-03T09:12:24.084Z</time></trkpt><trkpt lat="45.5626498" lon="11.4539354"><ele>147.60000000000002</ele><time>2026-05-03T09:12:25.084Z</time></trkpt><trkpt lat="45.5625496" lon="11.4539561"><ele>147.39999999999998</ele><time>2026-05-03T09:12:26.084Z</time></trkpt><trkpt lat="45.5624563" lon="11.4539938"><ele>147.2</ele><time>2026-05-03T09:12:27.085Z</time></trkpt><trkpt lat="45.562368" lon="11.4540403"><ele>147.0</ele><time>2026-05-03T09:12:28.084Z</time></trkpt><trkpt lat="45.5622896" lon="11.4540962"><ele>147.0</ele><time>2026-05-03T09:12:29.085Z</time></trkpt><trkpt lat="45.5622184" lon="11.4541609"><ele>147.0</ele><time>2026-05-03T09:12:30.085Z</time></trkpt><trkpt lat="45.5621516" lon="11.4542395"><ele>147.0</ele><time>2026-05-03T09:12:31.084Z</time></trkpt><trkpt lat="45.5620841" lon="11.4543295"><ele>147.0</ele><time>2026-05-03T09:12:32.084Z</time></trkpt><trkpt lat="45.5620133" lon="11.4544243"><ele>147.0</ele><time>2026-05-03T09:12:33.085Z</time></trkpt><trkpt lat="45.5619364" lon="11.4545185"><ele>148.0</ele><time>2026-05-03T09:12:34.084Z</time></trkpt><trkpt lat="45.5618589" lon="11.4546213"><ele>149.0</ele><time>2026-05-03T09:12:35.084Z</time></trkpt><trkpt lat="45.5617787" lon="11.4547221"><ele>150.0</ele><time>2026-05-03T09:12:36.084Z</time></trkpt><trkpt lat="45.561701" lon="11.4548209"><ele>151.0</ele><time>2026-05-03T09:12:37.084Z</time></trkpt><trkpt lat="45.561625" lon="11.4549183"><ele>152.0</ele><time>2026-05-03T09:12:38.083Z</time></trkpt><trkpt lat="45.5615454" lon="11.4550187"><ele>152.0</ele><time>2026-05-03T09:12:39.085Z</time></trkpt><trkpt lat="45.5614664" lon="11.4551214"><ele>152.0</ele><time>2026-05-03T09:12:40.084Z</time></trkpt><trkpt lat="45.5613955" lon="11.4552371"><ele>152.0</ele><time>2026-05-03T09:12:41.084Z</time></trkpt><trkpt lat="45.5613335" lon="11.4553619"><ele>152.0</ele><time>2026-05-03T09:12:42.083Z</time></trkpt><trkpt lat="45.5612927" lon="11.4554903"><ele>152.0</ele><time>2026-05-03T09:12:43.084Z</time></trkpt><trkpt lat="45.5612671" lon="11.4556335"><ele>152.0</ele><time>2026-05-03T09:12:44.084Z</time></trkpt><trkpt lat="45.5612479" lon="11.4557914"><ele>152.0</ele><time>2026-05-03T09:12:45.085Z</time></trkpt><trkpt lat="45.5612255" lon="11.4559548"><ele>152.0</ele><time>2026-05-03T09:12:46.084Z</time></trkpt><trkpt lat="45.5612029" lon="11.4561226"><ele>152.0</ele><time>2026-05-03T09:12:47.084Z</time></trkpt><trkpt lat="45.5611766" lon="11.4562949"><ele>154.75</ele><time>2026-05-03T09:12:48.084Z</time></trkpt><trkpt lat="45.561151" lon="11.4564591"><ele>157.5</ele><time>2026-05-03T09:12:49.084Z</time></trkpt><trkpt lat="45.561121" lon="11.4566169"><ele>160.25</ele><time>2026-05-03T09:12:50.084Z</time></trkpt><trkpt lat="45.5610757" lon="11.4567672"><ele>163.0</ele><time>2026-05-03T09:12:51.084Z</time></trkpt><trkpt lat="45.5610153" lon="11.456913"><ele>163.0</ele><time>2026-05-03T09:12:52.084Z</time></trkpt><trkpt lat="45.5609541" lon="11.4570542"><ele>163.0</ele><time>2026-05-03T09:12:53.084Z</time></trkpt><trkpt lat="45.5608888" lon="11.4571883"><ele>163.0</ele><time>2026-05-03T09:12:54.084Z</time></trkpt><trkpt lat="45.5608301" lon="11.4573124"><ele>163.0</ele><time>2026-05-03T09:12:55.084Z</time></trkpt><trkpt lat="45.5607754" lon="11.4574281"><ele>163.0</ele><time>2026-05-03T09:12:56.084Z</time></trkpt><trkpt lat="45.5607283" lon="11.4575358"><ele>161.8</ele><time>2026-05-03T09:12:57.084Z</time></trkpt><trkpt lat="45.5606855" lon="11.4576404"><ele>160.60000000000002</ele><time>2026-05-03T09:12:58.084Z</time></trkpt><trkpt lat="45.5606459" lon="11.4577401"><ele>159.39999999999998</ele><time>2026-05-03T09:12:59.084Z</time></trkpt><trkpt lat="45.5606152" lon="11.4578345"><ele>158.2</ele><time>2026-05-03T09:13:00.084Z</time></trkpt><trkpt lat="45.5605482" lon="11.4579645"><ele>157.0</ele><time>2026-05-03T09:13:02.084Z</time></trkpt><trkpt lat="45.5604316" lon="11.4579978"><ele>156.83333333333334</ele><time>2026-05-03T09:13:04.084Z</time></trkpt><trkpt lat="45.5603598" lon="11.4579944"><ele>156.66666666666669</ele><time>2026-05-03T09:13:05.084Z</time></trkpt><trkpt lat="45.5602799" lon="11.4579925"><ele>156.5</ele><time>2026-05-03T09:13:06.084Z</time></trkpt><trkpt lat="45.5601959" lon="11.4579864"><ele>156.33333333333334</ele><time>2026-05-03T09:13:07.084Z</time></trkpt><trkpt lat="45.5601135" lon="11.4579674"><ele>156.16666666666666</ele><time>2026-05-03T09:13:08.084Z</time></trkpt><trkpt lat="45.5600228" lon="11.4579359"><ele>156.0</ele><time>2026-05-03T09:13:09.084Z</time></trkpt><trkpt lat="45.5599246" lon="11.4578965"><ele>156.0</ele><time>2026-05-03T09:13:10.085Z</time></trkpt><trkpt lat="45.5598246" lon="11.4578568"><ele>156.0</ele><time>2026-05-03T09:13:11.084Z</time></trkpt><trkpt lat="45.5597295" lon="11.4578132"><ele>156.0</ele><time>2026-05-03T09:13:12.084Z</time></trkpt><trkpt lat="45.5596422" lon="11.4577755"><ele>156.0</ele><time>2026-05-03T09:13:13.085Z</time></trkpt><trkpt lat="45.5595611" lon="11.457745"><ele>156.0</ele><time>2026-05-03T09:13:14.084Z</time></trkpt><trkpt lat="45.559485" lon="11.457712"><ele>156.0</ele><time>2026-05-03T09:13:15.084Z</time></trkpt><trkpt lat="45.5594107" lon="11.4576801"><ele>156.0</ele><time>2026-05-03T09:13:16.084Z</time></trkpt><trkpt lat="45.5593376" lon="11.4576471"><ele>156.0</ele><time>2026-05-03T09:13:17.084Z</time></trkpt><trkpt lat="45.5592618" lon="11.4576132"><ele>156.0</ele><time>2026-05-03T09:13:18.083Z</time></trkpt><trkpt lat="45.559185" lon="11.457584"><ele>156.0</ele><time>2026-05-03T09:13:19.084Z</time></trkpt><trkpt lat="45.5591058" lon="11.4575475"><ele>156.0</ele><time>2026-05-03T09:13:20.084Z</time></trkpt><trkpt lat="45.5590208" lon="11.4575086"><ele>156.0</ele><time>2026-05-03T09:13:21.084Z</time></trkpt><trkpt lat="45.5589381" lon="11.4574681"><ele>156.0</ele><time>2026-05-03T09:13:22.084Z</time></trkpt><trkpt lat="45.5588542" lon="11.4574336"><ele>156.0</ele><time>2026-05-03T09:13:23.085Z</time></trkpt><trkpt lat="45.5587667" lon="11.4573951"><ele>156.0</ele><time>2026-05-03T09:13:24.085Z</time></trkpt><trkpt lat="45.5586748" lon="11.4573668"><ele>156.0</ele><time>2026-05-03T09:13:25.084Z</time></trkpt><trkpt lat="45.5585811" lon="11.4573431"><ele>154.2</ele><time>2026-05-03T09:13:26.084Z</time></trkpt><trkpt lat="45.5584885" lon="11.4573382"><ele>152.39999999999998</ele><time>2026-05-03T09:13:27.084Z</time></trkpt><trkpt lat="45.5583952" lon="11.4573419"><ele>150.6</ele><time>2026-05-03T09:13:28.083Z</time></trkpt><trkpt lat="45.5582997" lon="11.4573498"><ele>148.79999999999998</ele><time>2026-05-03T09:13:29.084Z</time></trkpt><trkpt lat="45.5582007" lon="11.4573776"><ele>147.0</ele><time>2026-05-03T09:13:30.083Z</time></trkpt><trkpt lat="45.5580994" lon="11.4574239"><ele>147.0</ele><time>2026-05-03T09:13:31.085Z</time></trkpt><trkpt lat="45.5580015" lon="11.4574848"><ele>147.0</ele><time>2026-05-03T09:13:32.085Z</time></trkpt><trkpt lat="45.5578997" lon="11.4575484"><ele>147.0</ele><time>2026-05-03T09:13:33.084Z</time></trkpt><trkpt lat="45.5577894" lon="11.4576095"><ele>147.0</ele><time>2026-05-03T09:13:34.084Z</time></trkpt><trkpt lat="45.5576813" lon="11.4576788"><ele>147.25</ele><time>2026-05-03T09:13:35.084Z</time></trkpt><trkpt lat="45.5575695" lon="11.4577599"><ele>147.5</ele><time>2026-05-03T09:13:36.085Z</time></trkpt><trkpt lat="45.5574575" lon="11.4578429"><ele>147.75</ele><time>2026-05-03T09:13:37.084Z</time></trkpt><trkpt lat="45.5573467" lon="11.4579235"><ele>148.0</ele><time>2026-05-03T09:13:38.084Z</time></trkpt><trkpt lat="45.5572439" lon="11.4579893"><ele>145.0</ele><time>2026-05-03T09:13:39.084Z</time></trkpt><trkpt lat="45.5571446" lon="11.4580347"><ele>142.0</ele><time>2026-05-03T09:13:40.084Z</time></trkpt><trkpt lat="45.557043" lon="11.4580538"><ele>139.0</ele><time>2026-05-03T09:13:41.084Z</time></trkpt><trkpt lat="45.5569398" lon="11.4580599"><ele>136.0</ele><time>2026-05-03T09:13:42.085Z</time></trkpt><trkpt lat="45.5568354" lon="11.4580656"><ele>133.0</ele><time>2026-05-03T09:13:43.084Z</time></trkpt><trkpt lat="45.5567395" lon="11.4580587"><ele>133.0</ele><time>2026-05-03T09:13:44.084Z</time></trkpt><trkpt lat="45.5566482" lon="11.4580413"><ele>133.0</ele><time>2026-05-03T09:13:45.084Z</time></trkpt><trkpt lat="45.5565622" lon="11.4579833"><ele>133.0</ele><time>2026-05-03T09:13:46.084Z</time></trkpt><trkpt lat="45.5564938" lon="11.4578861"><ele>133.0</ele><time>2026-05-03T09:13:47.084Z</time></trkpt><trkpt lat="45.5564401" lon="11.4577604"><ele>133.0</ele><time>2026-05-03T09:13:48.084Z</time></trkpt><trkpt lat="45.556391" lon="11.4576203"><ele>133.25</ele><time>2026-05-03T09:13:49.084Z</time></trkpt><trkpt lat="45.5563392" lon="11.4574735"><ele>133.5</ele><time>2026-05-03T09:13:50.085Z</time></trkpt><trkpt lat="45.5562853" lon="11.4573169"><ele>133.75</ele><time>2026-05-03T09:13:51.085Z</time></trkpt><trkpt lat="45.5562366" lon="11.4571544"><ele>134.0</ele><time>2026-05-03T09:13:52.084Z</time></trkpt><trkpt lat="45.5561904" lon="11.456992"><ele>134.0</ele><time>2026-05-03T09:13:53.084Z</time></trkpt><trkpt lat="45.5561421" lon="11.4568339"><ele>134.0</ele><time>2026-05-03T09:13:54.083Z</time></trkpt><trkpt lat="45.5560988" lon="11.4566912"><ele>134.0</ele><time>2026-05-03T09:13:55.085Z</time></trkpt><trkpt lat="45.5560517" lon="11.4565672"><ele>134.0</ele><time>2026-05-03T09:13:56.084Z</time></trkpt><trkpt lat="45.5560121" lon="11.4564653"><ele>134.0</ele><time>2026-05-03T09:13:57.084Z</time></trkpt><trkpt lat="45.5559877" lon="11.4563704"><ele>135.83333333333331</ele><time>2026-05-03T09:13:58.084Z</time></trkpt><trkpt lat="45.5559718" lon="11.4562802"><ele>137.66666666666666</ele><time>2026-05-03T09:13:59.084Z</time></trkpt><trkpt lat="45.5559319" lon="11.4562017"><ele>139.5</ele><time>2026-05-03T09:14:00.084Z</time></trkpt><trkpt lat="45.5558736" lon="11.4561293"><ele>141.33333333333334</ele><time>2026-05-03T09:14:01.084Z</time></trkpt><trkpt lat="45.5558199" lon="11.4560323"><ele>143.16666666666669</ele><time>2026-05-03T09:14:02.084Z</time></trkpt><trkpt lat="45.555768" lon="11.4559177"><ele>145.0</ele><time>2026-05-03T09:14:03.084Z</time></trkpt><trkpt lat="45.5557117" lon="11.4557962"><ele>145.0</ele><time>2026-05-03T09:14:04.084Z</time></trkpt><trkpt lat="45.5556484" lon="11.4556691"><ele>145.0</ele><time>2026-05-03T09:14:05.083Z</time></trkpt><trkpt lat="45.5555838" lon="11.4555428"><ele>145.0</ele><time>2026-05-03T09:14:06.084Z</time></trkpt><trkpt lat="45.5555228" lon="11.4554273"><ele>145.0</ele><time>2026-05-03T09:14:07.084Z</time></trkpt><trkpt lat="45.5554653" lon="11.4553291"><ele>145.0</ele><time>2026-05-03T09:14:08.084Z</time></trkpt><trkpt lat="45.5553989" lon="11.4552596"><ele>144.4</ele><time>2026-05-03T09:14:09.084Z</time></trkpt><trkpt lat="45.5553182" lon="11.4552156"><ele>143.8</ele><time>2026-05-03T09:14:10.084Z</time></trkpt><trkpt lat="45.555226" lon="11.4551874"><ele>143.2</ele><time>2026-05-03T09:14:11.085Z</time></trkpt><trkpt lat="45.5551224" lon="11.4551719"><ele>142.6</ele><time>2026-05-03T09:14:12.084Z</time></trkpt><trkpt lat="45.5550114" lon="11.4551683"><ele>142.0</ele><time>2026-05-03T09:14:13.084Z</time></trkpt><trkpt lat="45.5548967" lon="11.4551806"><ele>142.0</ele><time>2026-05-03T09:14:14.084Z</time></trkpt><trkpt lat="45.5547871" lon="11.4552145"><ele>142.0</ele><time>2026-05-03T09:14:15.084Z</time></trkpt><trkpt lat="45.5546867" lon="11.4552581"><ele>142.0</ele><time>2026-05-03T09:14:16.085Z</time></trkpt><trkpt lat="45.5545969" lon="11.4552869"><ele>142.0</ele><time>2026-05-03T09:14:17.084Z</time></trkpt><trkpt lat="45.5545118" lon="11.4552991"><ele>142.0</ele><time>2026-05-03T09:14:18.084Z</time></trkpt><trkpt lat="45.5544282" lon="11.4552913"><ele>142.83333333333334</ele><time>2026-05-03T09:14:19.084Z</time></trkpt><trkpt lat="45.5543455" lon="11.4552633"><ele>143.66666666666669</ele><time>2026-05-03T09:14:20.084Z</time></trkpt><trkpt lat="45.5542654" lon="11.4552263"><ele>144.5</ele><time>2026-05-03T09:14:21.084Z</time></trkpt><trkpt lat="45.5541925" lon="11.4551942"><ele>145.33333333333334</ele><time>2026-05-03T09:14:22.084Z</time></trkpt><trkpt lat="45.5541259" lon="11.4551602"><ele>146.16666666666666</ele><time>2026-05-03T09:14:23.085Z</time></trkpt><trkpt lat="45.5540561" lon="11.4551201"><ele>147.0</ele><time>2026-05-03T09:14:24.084Z</time></trkpt><trkpt lat="45.5539864" lon="11.4550821"><ele>147.0</ele><time>2026-05-03T09:14:25.084Z</time></trkpt><trkpt lat="45.5539077" lon="11.4550419"><ele>147.0</ele><time>2026-05-03T09:14:26.084Z</time></trkpt><trkpt lat="45.5538237" lon="11.4549973"><ele>147.0</ele><time>2026-05-03T09:14:27.084Z</time></trkpt><trkpt lat="45.5537286" lon="11.4549513"><ele>147.0</ele><time>2026-05-03T09:14:28.084Z</time></trkpt><trkpt lat="45.5536278" lon="11.4548982"><ele>147.0</ele><time>2026-05-03T09:14:29.084Z</time></trkpt><trkpt lat="45.5535259" lon="11.4548461"><ele>148.4</ele><time>2026-05-03T09:14:30.084Z</time></trkpt><trkpt lat="45.5534313" lon="11.4547971"><ele>149.79999999999998</ele><time>2026-05-03T09:14:31.085Z</time></trkpt><trkpt lat="45.5533389" lon="11.4547642"><ele>151.2</ele><time>2026-05-03T09:14:32.083Z</time></trkpt><trkpt lat="45.5532404" lon="11.4547479"><ele>152.6</ele><time>2026-05-03T09:14:33.084Z</time></trkpt><trkpt lat="45.55314" lon="11.4547539"><ele>154.0</ele><time>2026-05-03T09:14:34.085Z</time></trkpt><trkpt lat="45.5530348" lon="11.4547691"><ele>154.0</ele><time>2026-05-03T09:14:35.085Z</time></trkpt><trkpt lat="45.5529252" lon="11.4547819"><ele>154.0</ele><time>2026-05-03T09:14:36.084Z</time></trkpt><trkpt lat="45.5528134" lon="11.4547842"><ele>154.0</ele><time>2026-05-03T09:14:37.084Z</time></trkpt><trkpt lat="45.5527044" lon="11.4547677"><ele>154.0</ele><time>2026-05-03T09:14:38.084Z</time></trkpt><trkpt lat="45.5525935" lon="11.4547396"><ele>154.0</ele><time>2026-05-03T09:14:39.084Z</time></trkpt><trkpt lat="45.5524801" lon="11.4547033"><ele>154.0</ele><time>2026-05-03T09:14:40.084Z</time></trkpt><trkpt lat="45.5523681" lon="11.4546647"><ele>154.0</ele><time>2026-05-03T09:14:41.085Z</time></trkpt><trkpt lat="45.5522558" lon="11.454642"><ele>154.0</ele><time>2026-05-03T09:14:42.085Z</time></trkpt><trkpt lat="45.5521417" lon="11.4546365"><ele>154.0</ele><time>2026-05-03T09:14:43.084Z</time></trkpt><trkpt lat="45.5520228" lon="11.4546464"><ele>154.0</ele><time>2026-05-03T09:14:44.084Z</time></trkpt><trkpt lat="45.5519007" lon="11.4546622"><ele>154.0</ele><time>2026-05-03T09:14:45.084Z</time></trkpt><trkpt lat="45.5517787" lon="11.4546803"><ele>154.0</ele><time>2026-05-03T09:14:46.084Z</time></trkpt><trkpt lat="45.5516489" lon="11.4546942"><ele>154.0</ele><time>2026-05-03T09:14:47.084Z</time></trkpt><trkpt lat="45.551516" lon="11.4547013"><ele>154.0</ele><time>2026-05-03T09:14:48.085Z</time></trkpt><trkpt lat="45.5513796" lon="11.4547077"><ele>154.0</ele><time>2026-05-03T09:14:49.085Z</time></trkpt><trkpt lat="45.551245" lon="11.4547117"><ele>154.0</ele><time>2026-05-03T09:14:50.084Z</time></trkpt><trkpt lat="45.5511159" lon="11.454719"><ele>154.0</ele><time>2026-05-03T09:14:51.084Z</time></trkpt><trkpt lat="45.5509936" lon="11.4547299"><ele>152.75</ele><time>2026-05-03T09:14:52.084Z</time></trkpt><trkpt lat="45.5508754" lon="11.4547403"><ele>151.5</ele><time>2026-05-03T09:14:53.084Z</time></trkpt><trkpt lat="45.5507629" lon="11.4547504"><ele>150.25</ele><time>2026-05-03T09:14:54.084Z</time></trkpt><trkpt lat="45.550655" lon="11.454771"><ele>149.0</ele><time>2026-05-03T09:14:55.084Z</time></trkpt><trkpt lat="45.5505494" lon="11.454819"><ele>149.0</ele><time>2026-05-03T09:14:56.084Z</time></trkpt><trkpt lat="45.5504549" lon="11.4549038"><ele>149.0</ele><time>2026-05-03T09:14:57.084Z</time></trkpt><trkpt lat="45.5503678" lon="11.4550172"><ele>149.0</ele><time>2026-05-03T09:14:58.084Z</time></trkpt><trkpt lat="45.5502826" lon="11.4551493"><ele>149.0</ele><time>2026-05-03T09:14:59.085Z</time></trkpt><trkpt lat="45.5502013" lon="11.4552952"><ele>147.5</ele><time>2026-05-03T09:15:00.084Z</time></trkpt><trkpt lat="45.5501146" lon="11.4554386"><ele>146.0</ele><time>2026-05-03T09:15:01.085Z</time></trkpt><trkpt lat="45.5500281" lon="11.4555756"><ele>144.5</ele><time>2026-05-03T09:15:02.085Z</time></trkpt><trkpt lat="45.5499444" lon="11.4557139"><ele>143.0</ele><time>2026-05-03T09:15:03.084Z</time></trkpt><trkpt lat="45.5498665" lon="11.4558588"><ele>146.25</ele><time>2026-05-03T09:15:04.085Z</time></trkpt><trkpt lat="45.5497899" lon="11.4559998"><ele>149.5</ele><time>2026-05-03T09:15:05.084Z</time></trkpt><trkpt lat="45.5497217" lon="11.4561335"><ele>152.75</ele><time>2026-05-03T09:15:06.084Z</time></trkpt><trkpt lat="45.5496539" lon="11.4562679"><ele>156.0</ele><time>2026-05-03T09:15:07.085Z</time></trkpt><trkpt lat="45.5495881" lon="11.4563957"><ele>156.6</ele><time>2026-05-03T09:15:08.084Z</time></trkpt><trkpt lat="45.5495245" lon="11.4565095"><ele>157.2</ele><time>2026-05-03T09:15:09.084Z</time></trkpt><trkpt lat="45.5494697" lon="11.4566058"><ele>157.8</ele><time>2026-05-03T09:15:10.084Z</time></trkpt><trkpt lat="45.5494189" lon="11.45669"><ele>158.4</ele><time>2026-05-03T09:15:11.085Z</time></trkpt><trkpt lat="45.5493596" lon="11.4567843"><ele>159.0</ele><time>2026-05-03T09:15:12.084Z</time></trkpt><trkpt lat="45.5492902" lon="11.456878"><ele>159.0</ele><time>2026-05-03T09:15:13.084Z</time></trkpt><trkpt lat="45.5492154" lon="11.4569779"><ele>159.0</ele><time>2026-05-03T09:15:14.084Z</time></trkpt><trkpt lat="45.5491402" lon="11.4570868"><ele>159.0</ele><time>2026-05-03T09:15:15.084Z</time></trkpt><trkpt lat="45.5490536" lon="11.45719"><ele>159.0</ele><time>2026-05-03T09:15:16.084Z</time></trkpt><trkpt lat="45.548974" lon="11.4572947"><ele>159.0</ele><time>2026-05-03T09:15:17.084Z</time></trkpt><trkpt lat="45.5489003" lon="11.4573953"><ele>159.0</ele><time>2026-05-03T09:15:18.084Z</time></trkpt><trkpt lat="45.5488328" lon="11.4574818"><ele>159.0</ele><time>2026-05-03T09:15:19.085Z</time></trkpt><trkpt lat="45.5487647" lon="11.457564"><ele>159.0</ele><time>2026-05-03T09:15:20.084Z</time></trkpt><trkpt lat="45.5486801" lon="11.4576522"><ele>159.0</ele><time>2026-05-03T09:15:21.084Z</time></trkpt><trkpt lat="45.5485798" lon="11.4577397"><ele>159.0</ele><time>2026-05-03T09:15:22.084Z</time></trkpt><trkpt lat="45.5484585" lon="11.4578258"><ele>159.0</ele><time>2026-05-03T09:15:23.084Z</time></trkpt><trkpt lat="45.5483324" lon="11.4579182"><ele>159.0</ele><time>2026-05-03T09:15:24.084Z</time></trkpt><trkpt lat="45.5482069" lon="11.4580062"><ele>159.0</ele><time>2026-05-03T09:15:25.084Z</time></trkpt><trkpt lat="45.5480804" lon="11.4580866"><ele>159.0</ele><time>2026-05-03T09:15:26.084Z</time></trkpt><trkpt lat="45.5479531" lon="11.4581552"><ele>164.0</ele><time>2026-05-03T09:15:27.084Z</time></trkpt><trkpt lat="45.5478237" lon="11.4582062"><ele>169.0</ele><time>2026-05-03T09:15:28.084Z</time></trkpt><trkpt lat="45.5476975" lon="11.4582445"><ele>174.0</ele><time>2026-05-03T09:15:29.084Z</time></trkpt><trkpt lat="45.547574" lon="11.4582844"><ele>179.0</ele><time>2026-05-03T09:15:30.084Z</time></trkpt><trkpt lat="45.5474509" lon="11.4583131"><ele>179.0</ele><time>2026-05-03T09:15:31.084Z</time></trkpt><trkpt lat="45.547332" lon="11.4583426"><ele>179.0</ele><time>2026-05-03T09:15:32.084Z</time></trkpt><trkpt lat="45.5472222" lon="11.4583745"><ele>179.0</ele><time>2026-05-03T09:15:33.084Z</time></trkpt><trkpt lat="45.5471217" lon="11.4584012"><ele>179.0</ele><time>2026-05-03T09:15:34.085Z</time></trkpt><trkpt lat="45.5470213" lon="11.4584377"><ele>179.0</ele><time>2026-05-03T09:15:35.084Z</time></trkpt><trkpt lat="45.5469268" lon="11.4584925"><ele>179.39999999999998</ele><time>2026-05-03T09:15:36.084Z</time></trkpt><trkpt lat="45.5468493" lon="11.4585749"><ele>179.8</ele><time>2026-05-03T09:15:37.084Z</time></trkpt><trkpt lat="45.5467814" lon="11.4586814"><ele>180.2</ele><time>2026-05-03T09:15:38.084Z</time></trkpt><trkpt lat="45.5467334" lon="11.4588082"><ele>180.60000000000002</ele><time>2026-05-03T09:15:39.084Z</time></trkpt><trkpt lat="45.5466977" lon="11.4589424"><ele>181.0</ele><time>2026-05-03T09:15:40.085Z</time></trkpt><trkpt lat="45.5466792" lon="11.4590702"><ele>183.60000000000002</ele><time>2026-05-03T09:15:41.084Z</time></trkpt><trkpt lat="45.5466902" lon="11.45919"><ele>186.2</ele><time>2026-05-03T09:15:42.085Z</time></trkpt><trkpt lat="45.5467177" lon="11.4593094"><ele>188.8</ele><time>2026-05-03T09:15:43.084Z</time></trkpt><trkpt lat="45.5467599" lon="11.4594276"><ele>191.39999999999998</ele><time>2026-05-03T09:15:44.084Z</time></trkpt><trkpt lat="45.546805" lon="11.4595468"><ele>194.0</ele><time>2026-05-03T09:15:45.084Z</time></trkpt><trkpt lat="45.5468551" lon="11.4596806"><ele>194.0</ele><time>2026-05-03T09:15:46.084Z</time></trkpt><trkpt lat="45.5469104" lon="11.4598193"><ele>194.0</ele><time>2026-05-03T09:15:47.084Z</time></trkpt><trkpt lat="45.546968" lon="11.4599569"><ele>194.0</ele><time>2026-05-03T09:15:48.084Z</time></trkpt><trkpt lat="45.5470262" lon="11.4600983"><ele>194.0</ele><time>2026-05-03T09:15:49.084Z</time></trkpt><trkpt lat="45.5470827" lon="11.4602326"><ele>194.0</ele><time>2026-05-03T09:15:50.084Z</time></trkpt><trkpt lat="45.5471363" lon="11.4603621"><ele>195.39999999999998</ele><time>2026-05-03T09:15:51.085Z</time></trkpt><trkpt lat="45.5471853" lon="11.4604923"><ele>196.8</ele><time>2026-05-03T09:15:52.084Z</time></trkpt><trkpt lat="45.5472153" lon="11.460633"><ele>198.2</ele><time>2026-05-03T09:15:53.084Z</time></trkpt><trkpt lat="45.5472278" lon="11.4607762"><ele>199.60000000000002</ele><time>2026-05-03T09:15:54.085Z</time></trkpt><trkpt lat="45.5472263" lon="11.4609216"><ele>201.0</ele><time>2026-05-03T09:15:55.085Z</time></trkpt><trkpt lat="45.5472095" lon="11.4610709"><ele>201.0</ele><time>2026-05-03T09:15:56.085Z</time></trkpt><trkpt lat="45.5471895" lon="11.4612196"><ele>201.0</ele><time>2026-05-03T09:15:57.085Z</time></trkpt><trkpt lat="45.5471633" lon="11.4613636"><ele>201.0</ele><time>2026-05-03T09:15:58.084Z</time></trkpt><trkpt lat="45.5471285" lon="11.4615064"><ele>201.0</ele><time>2026-05-03T09:15:59.083Z</time></trkpt><trkpt lat="45.5470819" lon="11.4616464"><ele>201.0</ele><time>2026-05-03T09:16:00.084Z</time></trkpt><trkpt lat="45.5470191" lon="11.4617758"><ele>199.75</ele><time>2026-05-03T09:16:01.083Z</time></trkpt><trkpt lat="45.5469339" lon="11.4618986"><ele>198.5</ele><time>2026-05-03T09:16:02.085Z</time></trkpt><trkpt lat="45.5468388" lon="11.4620197"><ele>197.25</ele><time>2026-05-03T09:16:03.084Z</time></trkpt><trkpt lat="45.5467346" lon="11.4621441"><ele>196.0</ele><time>2026-05-03T09:16:04.085Z</time></trkpt><trkpt lat="45.546624" lon="11.4622735"><ele>196.0</ele><time>2026-05-03T09:16:05.084Z</time></trkpt><trkpt lat="45.5465057" lon="11.4623995"><ele>196.0</ele><time>2026-05-03T09:16:06.084Z</time></trkpt><trkpt lat="45.5463869" lon="11.4625273"><ele>196.0</ele><time>2026-05-03T09:16:07.084Z</time></trkpt><trkpt lat="45.5462703" lon="11.4626584"><ele>196.0</ele><time>2026-05-03T09:16:08.084Z</time></trkpt><trkpt lat="45.5461562" lon="11.4627831"><ele>195.75</ele><time>2026-05-03T09:16:09.084Z</time></trkpt><trkpt lat="45.5460501" lon="11.4629013"><ele>195.5</ele><time>2026-05-03T09:16:10.084Z</time></trkpt><trkpt lat="45.545955" lon="11.4630088"><ele>195.25</ele><time>2026-05-03T09:16:11.084Z</time></trkpt><trkpt lat="45.5458706" lon="11.4630988"><ele>195.0</ele><time>2026-05-03T09:16:12.084Z</time></trkpt><trkpt lat="45.5457812" lon="11.4631825"><ele>194.6</ele><time>2026-05-03T09:16:13.085Z</time></trkpt><trkpt lat="45.5456802" lon="11.4632324"><ele>194.2</ele><time>2026-05-03T09:16:14.084Z</time></trkpt><trkpt lat="45.5455778" lon="11.4632927"><ele>193.8</ele><time>2026-05-03T09:16:15.085Z</time></trkpt><trkpt lat="45.5454734" lon="11.4633504"><ele>193.4</ele><time>2026-05-03T09:16:16.084Z</time></trkpt><trkpt lat="45.5453709" lon="11.4634022"><ele>193.0</ele><time>2026-05-03T09:16:17.085Z</time></trkpt><trkpt lat="45.5452691" lon="11.4634461"><ele>191.0</ele><time>2026-05-03T09:16:18.084Z</time></trkpt><trkpt lat="45.545167" lon="11.4634855"><ele>189.0</ele><time>2026-05-03T09:16:19.084Z</time></trkpt><trkpt lat="45.5450684" lon="11.4635248"><ele>187.0</ele><time>2026-05-03T09:16:20.084Z</time></trkpt><trkpt lat="45.5449753" lon="11.4635937"><ele>185.0</ele><time>2026-05-03T09:16:21.085Z</time></trkpt><trkpt lat="45.5448845" lon="11.4636893"><ele>183.0</ele><time>2026-05-03T09:16:22.084Z</time></trkpt><trkpt lat="45.5447974" lon="11.463801"><ele>183.0</ele><time>2026-05-03T09:16:23.084Z</time></trkpt><trkpt lat="45.5447043" lon="11.463908"><ele>183.0</ele><time>2026-05-03T09:16:24.084Z</time></trkpt><trkpt lat="45.5446055" lon="11.464017"><ele>183.0</ele><time>2026-05-03T09:16:25.084Z</time></trkpt><trkpt lat="45.5445086" lon="11.4641202"><ele>183.0</ele><time>2026-05-03T09:16:26.084Z</time></trkpt><trkpt lat="45.544417" lon="11.4642245"><ele>182.60000000000002</ele><time>2026-05-03T09:16:27.084Z</time></trkpt><trkpt lat="45.544334" lon="11.4643224"><ele>182.20000000000002</ele><time>2026-05-03T09:16:28.084Z</time></trkpt><trkpt lat="45.5442617" lon="11.4644053"><ele>181.8</ele><time>2026-05-03T09:16:29.085Z</time></trkpt><trkpt lat="45.5441929" lon="11.4644674"><ele>181.4</ele><time>2026-05-03T09:16:30.084Z</time></trkpt><trkpt lat="45.5441195" lon="11.4645083"><ele>181.0</ele><time>2026-05-03T09:16:31.084Z</time></trkpt><trkpt lat="45.5440279" lon="11.4645356"><ele>181.0</ele><time>2026-05-03T09:16:32.085Z</time></trkpt><trkpt lat="45.5439241" lon="11.4645655"><ele>181.0</ele><time>2026-05-03T09:16:33.084Z</time></trkpt><trkpt lat="45.5438097" lon="11.4646027"><ele>181.0</ele><time>2026-05-03T09:16:34.085Z</time></trkpt><trkpt lat="45.5436869" lon="11.4646434"><ele>181.0</ele><time>2026-05-03T09:16:35.084Z</time></trkpt><trkpt lat="45.5435604" lon="11.4646784"><ele>179.5</ele><time>2026-05-03T09:16:36.085Z</time></trkpt><trkpt lat="45.543433" lon="11.4647184"><ele>178.0</ele><time>2026-05-03T09:16:37.084Z</time></trkpt><trkpt lat="45.5433082" lon="11.4647614"><ele>176.5</ele><time>2026-05-03T09:16:38.084Z</time></trkpt><trkpt lat="45.5431861" lon="11.4648041"><ele>175.0</ele><time>2026-05-03T09:16:39.084Z</time></trkpt><trkpt lat="45.5430678" lon="11.4648494"><ele>175.0</ele><time>2026-05-03T09:16:40.084Z</time></trkpt><trkpt lat="45.5429507" lon="11.4649012"><ele>175.0</ele><time>2026-05-03T09:16:41.083Z</time></trkpt><trkpt lat="45.542833" lon="11.4649449"><ele>175.0</ele><time>2026-05-03T09:16:42.084Z</time></trkpt><trkpt lat="45.5427157" lon="11.4649915"><ele>175.0</ele><time>2026-05-03T09:16:43.084Z</time></trkpt><trkpt lat="45.5426004" lon="11.4650423"><ele>175.75</ele><time>2026-05-03T09:16:44.084Z</time></trkpt><trkpt lat="45.5424884" lon="11.4651129"><ele>176.5</ele><time>2026-05-03T09:16:45.085Z</time></trkpt><trkpt lat="45.5423787" lon="11.4652028"><ele>177.25</ele><time>2026-05-03T09:16:46.084Z</time></trkpt><trkpt lat="45.5422701" lon="11.4652995"><ele>178.0</ele><time>2026-05-03T09:16:47.084Z</time></trkpt><trkpt lat="45.5421639" lon="11.4654074"><ele>176.5</ele><time>2026-05-03T09:16:48.084Z</time></trkpt><trkpt lat="45.542058" lon="11.4655205"><ele>175.0</ele><time>2026-05-03T09:16:49.085Z</time></trkpt><trkpt lat="45.5419534" lon="11.4656319"><ele>173.5</ele><time>2026-05-03T09:16:50.084Z</time></trkpt><trkpt lat="45.5418523" lon="11.4657476"><ele>172.0</ele><time>2026-05-03T09:16:51.084Z</time></trkpt><trkpt lat="45.541754" lon="11.4658662"><ele>172.0</ele><time>2026-05-03T09:16:52.084Z</time></trkpt><trkpt lat="45.5416581" lon="11.4659785"><ele>172.0</ele><time>2026-05-03T09:16:53.085Z</time></trkpt><trkpt lat="45.5415628" lon="11.4660836"><ele>172.0</ele><time>2026-05-03T09:16:54.084Z</time></trkpt><trkpt lat="45.5414588" lon="11.4661784"><ele>172.0</ele><time>2026-05-03T09:16:55.084Z</time></trkpt><trkpt lat="45.5413557" lon="11.4662714"><ele>174.0</ele><time>2026-05-03T09:16:56.084Z</time></trkpt><trkpt lat="45.5412428" lon="11.4663408"><ele>176.0</ele><time>2026-05-03T09:16:57.084Z</time></trkpt><trkpt lat="45.5411255" lon="11.4663802"><ele>178.0</ele><time>2026-05-03T09:16:58.085Z</time></trkpt><trkpt lat="45.5410102" lon="11.4664027"><ele>180.0</ele><time>2026-05-03T09:16:59.084Z</time></trkpt><trkpt lat="45.5408983" lon="11.4664269"><ele>180.0</ele><time>2026-05-03T09:17:00.084Z</time></trkpt><trkpt lat="45.540784" lon="11.4664519"><ele>180.0</ele><time>2026-05-03T09:17:01.084Z</time></trkpt><trkpt lat="45.5406661" lon="11.4664731"><ele>180.0</ele><time>2026-05-03T09:17:02.084Z</time></trkpt><trkpt lat="45.540544" lon="11.4664707"><ele>180.0</ele><time>2026-05-03T09:17:03.084Z</time></trkpt><trkpt lat="45.5404186" lon="11.46646"><ele>179.0</ele><time>2026-05-03T09:17:04.083Z</time></trkpt><trkpt lat="45.5402925" lon="11.4664436"><ele>178.0</ele><time>2026-05-03T09:17:05.083Z</time></trkpt><trkpt lat="45.5401772" lon="11.4664214"><ele>177.0</ele><time>2026-05-03T09:17:06.084Z</time></trkpt><trkpt lat="45.5400768" lon="11.4663945"><ele>176.0</ele><time>2026-05-03T09:17:07.084Z</time></trkpt><trkpt lat="45.5399852" lon="11.4663613"><ele>175.0</ele><time>2026-05-03T09:17:08.084Z</time></trkpt><trkpt lat="45.5399012" lon="11.4663073"><ele>174.0</ele><time>2026-05-03T09:17:09.084Z</time></trkpt><trkpt lat="45.5398439" lon="11.4662306"><ele>173.0</ele><time>2026-05-03T09:17:10.085Z</time></trkpt><trkpt lat="45.5398044" lon="11.4661235"><ele>172.0</ele><time>2026-05-03T09:17:11.084Z</time></trkpt><trkpt lat="45.5397763" lon="11.4659995"><ele>171.0</ele><time>2026-05-03T09:17:12.084Z</time></trkpt><trkpt lat="45.53974" lon="11.4658715"><ele>170.0</ele><time>2026-05-03T09:17:13.085Z</time></trkpt><trkpt lat="45.5397004" lon="11.4657589"><ele>169.0</ele><time>2026-05-03T09:17:14.084Z</time></trkpt><trkpt lat="45.5396641" lon="11.4656536"><ele>169.0</ele><time>2026-05-03T09:17:15.084Z</time></trkpt><trkpt lat="45.5396289" lon="11.4655601"><ele>169.0</ele><time>2026-05-03T09:17:16.084Z</time></trkpt><trkpt lat="45.5395805" lon="11.4654773"><ele>169.0</ele><time>2026-05-03T09:17:17.084Z</time></trkpt><trkpt lat="45.5395195" lon="11.4654118"><ele>169.0</ele><time>2026-05-03T09:17:18.085Z</time></trkpt><trkpt lat="45.5394349" lon="11.4653733"><ele>169.0</ele><time>2026-05-03T09:17:19.084Z</time></trkpt><trkpt lat="45.5393424" lon="11.4653446"><ele>169.0</ele><time>2026-05-03T09:17:20.084Z</time></trkpt><trkpt lat="45.5392486" lon="11.4653155"><ele>167.0</ele><time>2026-05-03T09:17:21.085Z</time></trkpt><trkpt lat="45.5391591" lon="11.4652957"><ele>165.0</ele><time>2026-05-03T09:17:22.083Z</time></trkpt><trkpt lat="45.5390762" lon="11.4652982"><ele>163.0</ele><time>2026-05-03T09:17:23.084Z</time></trkpt><trkpt lat="45.5390056" lon="11.4653298"><ele>161.0</ele><time>2026-05-03T09:17:24.085Z</time></trkpt><trkpt lat="45.5389524" lon="11.4653933"><ele>159.0</ele><time>2026-05-03T09:17:25.084Z</time></trkpt><trkpt lat="45.5389185" lon="11.4654831"><ele>157.0</ele><time>2026-05-03T09:17:26.085Z</time></trkpt><trkpt lat="45.5389121" lon="11.4655935"><ele>157.0</ele><time>2026-05-03T09:17:27.084Z</time></trkpt><trkpt lat="45.5389141" lon="11.4657151"><ele>157.0</ele><time>2026-05-03T09:17:28.085Z</time></trkpt><trkpt lat="45.5389178" lon="11.4658467"><ele>157.0</ele><time>2026-05-03T09:17:29.084Z</time></trkpt><trkpt lat="45.5389224" lon="11.4659803"><ele>157.0</ele><time>2026-05-03T09:17:30.084Z</time></trkpt><trkpt lat="45.538928" lon="11.4661093"><ele>157.0</ele><time>2026-05-03T09:17:31.084Z</time></trkpt><trkpt lat="45.5389351" lon="11.4662298"><ele>157.0</ele><time>2026-05-03T09:17:32.084Z</time></trkpt><trkpt lat="45.5389428" lon="11.4663476"><ele>157.83333333333334</ele><time>2026-05-03T09:17:33.084Z</time></trkpt><trkpt lat="45.5389535" lon="11.4664627"><ele>158.66666666666669</ele><time>2026-05-03T09:17:34.084Z</time></trkpt><trkpt lat="45.5389562" lon="11.4665814"><ele>159.5</ele><time>2026-05-03T09:17:35.084Z</time></trkpt><trkpt lat="45.538959" lon="11.4667043"><ele>160.33333333333334</ele><time>2026-05-03T09:17:36.084Z</time></trkpt><trkpt lat="45.5389553" lon="11.46683"><ele>161.16666666666666</ele><time>2026-05-03T09:17:37.084Z</time></trkpt><trkpt lat="45.5389405" lon="11.4669573"><ele>162.0</ele><time>2026-05-03T09:17:38.084Z</time></trkpt><trkpt lat="45.5389104" lon="11.4670843"><ele>163.0</ele><time>2026-05-03T09:17:39.084Z</time></trkpt><trkpt lat="45.5388809" lon="11.4672156"><ele>164.0</ele><time>2026-05-03T09:17:40.084Z</time></trkpt><trkpt lat="45.5388516" lon="11.4673447"><ele>165.0</ele><time>2026-05-03T09:17:41.084Z</time></trkpt><trkpt lat="45.538824" lon="11.4674711"><ele>166.0</ele><time>2026-05-03T09:17:42.084Z</time></trkpt><trkpt lat="45.5387953" lon="11.4675871"><ele>167.0</ele><time>2026-05-03T09:17:43.085Z</time></trkpt><trkpt lat="45.5387538" lon="11.4676957"><ele>163.0</ele><time>2026-05-03T09:17:44.085Z</time></trkpt><trkpt lat="45.5387024" lon="11.4677922"><ele>159.0</ele><time>2026-05-03T09:17:45.084Z</time></trkpt><trkpt lat="45.5386404" lon="11.4678833"><ele>155.0</ele><time>2026-05-03T09:17:46.084Z</time></trkpt><trkpt lat="45.5385716" lon="11.4679525"><ele>151.0</ele><time>2026-05-03T09:17:47.084Z</time></trkpt><trkpt lat="45.5384823" lon="11.4680052"><ele>147.0</ele><time>2026-05-03T09:17:48.084Z</time></trkpt><trkpt lat="45.538396" lon="11.4680454"><ele>143.0</ele><time>2026-05-03T09:17:49.084Z</time></trkpt><trkpt lat="45.5383013" lon="11.468058"><ele>143.0</ele><time>2026-05-03T09:17:50.085Z</time></trkpt><trkpt lat="45.5382133" lon="11.4680749"><ele>143.0</ele><time>2026-05-03T09:17:51.084Z</time></trkpt><trkpt lat="45.5381356" lon="11.4681156"><ele>143.0</ele><time>2026-05-03T09:17:52.084Z</time></trkpt><trkpt lat="45.5380603" lon="11.4681698"><ele>143.0</ele><time>2026-05-03T09:17:53.084Z</time></trkpt><trkpt lat="45.537989" lon="11.4682403"><ele>143.0</ele><time>2026-05-03T09:17:54.084Z</time></trkpt><trkpt lat="45.537935" lon="11.4683321"><ele>143.0</ele><time>2026-05-03T09:17:55.084Z</time></trkpt><trkpt lat="45.5379005" lon="11.4684538"><ele>138.6</ele><time>2026-05-03T09:17:56.084Z</time></trkpt><trkpt lat="45.5378711" lon="11.4685855"><ele>134.20000000000002</ele><time>2026-05-03T09:17:57.084Z</time></trkpt><trkpt lat="45.5378382" lon="11.4687252"><ele>129.8</ele><time>2026-05-03T09:17:58.084Z</time></trkpt><trkpt lat="45.5377955" lon="11.4688756"><ele>125.4</ele><time>2026-05-03T09:17:59.084Z</time></trkpt><trkpt lat="45.5377451" lon="11.4690201"><ele>121.0</ele><time>2026-05-03T09:18:00.084Z</time></trkpt><trkpt lat="45.5376922" lon="11.4691626"><ele>120.8</ele><time>2026-05-03T09:18:01.084Z</time></trkpt><trkpt lat="45.5376405" lon="11.4693074"><ele>120.6</ele><time>2026-05-03T09:18:02.084Z</time></trkpt><trkpt lat="45.5375821" lon="11.4694462"><ele>120.4</ele><time>2026-05-03T09:18:03.085Z</time></trkpt><trkpt lat="45.5375256" lon="11.4695795"><ele>120.2</ele><time>2026-05-03T09:18:04.084Z</time></trkpt><trkpt lat="45.5374767" lon="11.4697088"><ele>120.0</ele><time>2026-05-03T09:18:05.083Z</time></trkpt><trkpt lat="45.5374314" lon="11.4698216"><ele>119.33333333333333</ele><time>2026-05-03T09:18:06.084Z</time></trkpt><trkpt lat="45.5373961" lon="11.4699219"><ele>118.66666666666666</ele><time>2026-05-03T09:18:07.084Z</time></trkpt><trkpt lat="45.5373645" lon="11.470006"><ele>118.0</ele><time>2026-05-03T09:18:08.085Z</time></trkpt><trkpt lat="45.5372689" lon="11.4700811"><ele>117.33333333333333</ele><time>2026-05-03T09:18:10.085Z</time></trkpt><trkpt lat="45.5371617" lon="11.4699972"><ele>116.66666666666666</ele><time>2026-05-03T09:18:12.084Z</time></trkpt><trkpt lat="45.5370965" lon="11.469955"><ele>116.0</ele><time>2026-05-03T09:18:13.084Z</time></trkpt><trkpt lat="45.5370276" lon="11.469965"><ele>114.57142857142858</ele><time>2026-05-03T09:18:14.084Z</time></trkpt><trkpt lat="45.5369738" lon="11.4700249"><ele>113.14285714285714</ele><time>2026-05-03T09:18:15.084Z</time></trkpt><trkpt lat="45.5369297" lon="11.4701088"><ele>111.71428571428572</ele><time>2026-05-03T09:18:16.084Z</time></trkpt><trkpt lat="45.5369043" lon="11.4702159"><ele>110.28571428571429</ele><time>2026-05-03T09:18:17.084Z</time></trkpt><trkpt lat="45.5368814" lon="11.4703156"><ele>108.85714285714286</ele><time>2026-05-03T09:18:18.084Z</time></trkpt><trkpt lat="45.5368701" lon="11.4704125"><ele>107.42857142857143</ele><time>2026-05-03T09:18:19.084Z</time></trkpt><trkpt lat="45.5368437" lon="11.4704944"><ele>106.0</ele><time>2026-05-03T09:18:20.084Z</time></trkpt><trkpt lat="45.5367441" lon="11.4706177"><ele>105.28571428571429</ele><time>2026-05-03T09:18:22.084Z</time></trkpt><trkpt lat="45.5366864" lon="11.4706633"><ele>104.57142857142857</ele><time>2026-05-03T09:18:23.084Z</time></trkpt><trkpt lat="45.5366207" lon="11.4706992"><ele>103.85714285714286</ele><time>2026-05-03T09:18:24.084Z</time></trkpt><trkpt lat="45.5365751" lon="11.470762"><ele>103.14285714285714</ele><time>2026-05-03T09:18:25.084Z</time></trkpt><trkpt lat="45.5365325" lon="11.4708317"><ele>102.42857142857142</ele><time>2026-05-03T09:18:26.084Z</time></trkpt><trkpt lat="45.5364925" lon="11.4709049"><ele>101.71428571428571</ele><time>2026-05-03T09:18:27.084Z</time></trkpt><trkpt lat="45.5364396" lon="11.4709702"><ele>101.0</ele><time>2026-05-03T09:18:28.083Z</time></trkpt><trkpt lat="45.536382" lon="11.4710299"><ele>100.99999999999999</ele><time>2026-05-03T09:18:29.085Z</time></trkpt><trkpt lat="45.5362995" lon="11.4710605"><ele>101.0</ele><time>2026-05-03T09:18:30.084Z</time></trkpt><trkpt lat="45.5362199" lon="11.4711039"><ele>101.0</ele><time>2026-05-03T09:18:31.084Z</time></trkpt><trkpt lat="45.5361333" lon="11.4711336"><ele>101.0</ele><time>2026-05-03T09:18:32.084Z</time></trkpt><trkpt lat="45.536044" lon="11.4711767"><ele>100.99999999999999</ele><time>2026-05-03T09:18:33.085Z</time></trkpt><trkpt lat="45.5359604" lon="11.471232"><ele>101.0</ele><time>2026-05-03T09:18:34.084Z</time></trkpt><trkpt lat="45.5358877" lon="11.4712938"><ele>99.83333333333333</ele><time>2026-05-03T09:18:35.084Z</time></trkpt><trkpt lat="45.5358183" lon="11.4713564"><ele>98.66666666666666</ele><time>2026-05-03T09:18:36.084Z</time></trkpt><trkpt lat="45.5357407" lon="11.4714052"><ele>97.5</ele><time>2026-05-03T09:18:37.084Z</time></trkpt><trkpt lat="45.535672" lon="11.4714135"><ele>96.33333333333333</ele><time>2026-05-03T09:18:38.084Z</time></trkpt><trkpt lat="45.5356071" lon="11.4713986"><ele>95.16666666666666</ele><time>2026-05-03T09:18:39.084Z</time></trkpt><trkpt lat="45.5355238" lon="11.471277"><ele>94.0</ele><time>2026-05-03T09:18:41.084Z</time></trkpt><trkpt lat="45.5355174" lon="11.4711735"><ele>94.0</ele><time>2026-05-03T09:18:42.084Z</time></trkpt><trkpt lat="45.5355335" lon="11.4710683"><ele>94.0</ele><time>2026-05-03T09:18:43.084Z</time></trkpt><trkpt lat="45.5355432" lon="11.4709743"><ele>94.0</ele><time>2026-05-03T09:18:44.084Z</time></trkpt><trkpt lat="45.5354991" lon="11.4708513"><ele>94.0</ele><time>2026-05-03T09:18:46.084Z</time></trkpt><trkpt lat="45.5354213" lon="11.4709161"><ele>94.0</ele><time>2026-05-03T09:18:47.085Z</time></trkpt><trkpt lat="45.5353516" lon="11.4710755"><ele>92.0</ele><time>2026-05-03T09:18:49.083Z</time></trkpt><trkpt lat="45.5353435" lon="11.4711837"><ele>90.0</ele><time>2026-05-03T09:18:50.084Z</time></trkpt><trkpt lat="45.5353581" lon="11.4713006"><ele>88.0</ele><time>2026-05-03T09:18:51.084Z</time></trkpt><trkpt lat="45.535386" lon="11.471414"><ele>86.0</ele><time>2026-05-03T09:18:52.084Z</time></trkpt><trkpt lat="45.5354398" lon="11.471514"><ele>84.0</ele><time>2026-05-03T09:18:53.084Z</time></trkpt><trkpt lat="45.5355062" lon="11.4715893"><ele>82.0</ele><time>2026-05-03T09:18:54.084Z</time></trkpt><trkpt lat="45.5355822" lon="11.4716323"><ele>82.0</ele><time>2026-05-03T09:18:55.084Z</time></trkpt><trkpt lat="45.5356565" lon="11.4716493"><ele>82.0</ele><time>2026-05-03T09:18:56.084Z</time></trkpt><trkpt lat="45.5357512" lon="11.4716768"><ele>82.0</ele><time>2026-05-03T09:18:58.085Z</time></trkpt><trkpt lat="45.5357721" lon="11.4717854"><ele>82.0</ele><time>2026-05-03T09:19:01.084Z</time></trkpt><trkpt lat="45.535698" lon="11.4717664"><ele>82.0</ele><time>2026-05-03T09:19:03.084Z</time></trkpt><trkpt lat="45.5356314" lon="11.4717612"><ele>82.0</ele><time>2026-05-03T09:19:04.084Z</time></trkpt><trkpt lat="45.535554" lon="11.471746"><ele>82.0</ele><time>2026-05-03T09:19:05.084Z</time></trkpt><trkpt lat="45.5354787" lon="11.471729"><ele>82.0</ele><time>2026-05-03T09:19:06.084Z</time></trkpt><trkpt lat="45.5354095" lon="11.4717119"><ele>82.0</ele><time>2026-05-03T09:19:07.084Z</time></trkpt><trkpt lat="45.5353442" lon="11.4717145"><ele>82.0</ele><time>2026-05-03T09:19:08.084Z</time></trkpt><trkpt lat="45.5352661" lon="11.4718246"><ele>82.0</ele><time>2026-05-03T09:19:10.084Z</time></trkpt><trkpt lat="45.535321" lon="11.4719949"><ele>82.0</ele><time>2026-05-03T09:19:12.084Z</time></trkpt><trkpt lat="45.5353809" lon="11.4720751"><ele>82.0</ele><time>2026-05-03T09:19:13.084Z</time></trkpt><trkpt lat="45.5354527" lon="11.4721419"><ele>82.0</ele><time>2026-05-03T09:19:14.085Z</time></trkpt><trkpt lat="45.5355316" lon="11.4721875"><ele>82.0</ele><time>2026-05-03T09:19:15.083Z</time></trkpt><trkpt lat="45.5356102" lon="11.4721883"><ele>82.0</ele><time>2026-05-03T09:19:16.084Z</time></trkpt><trkpt lat="45.5356815" lon="11.4721492"><ele>82.0</ele><time>2026-05-03T09:19:17.084Z</time></trkpt><trkpt lat="45.5357482" lon="11.4720949"><ele>82.0</ele><time>2026-05-03T09:19:18.084Z</time></trkpt><trkpt lat="45.5358068" lon="11.4720473"><ele>82.0</ele><time>2026-05-03T09:19:19.085Z</time></trkpt><trkpt lat="45.5359055" lon="11.4720167"><ele>82.0</ele><time>2026-05-03T09:19:21.084Z</time></trkpt><trkpt lat="45.5359383" lon="11.4721256"><ele>82.0</ele><time>2026-05-03T09:19:23.084Z</time></trkpt><trkpt lat="45.5358531" lon="11.4722378"><ele>82.0</ele><time>2026-05-03T09:19:25.085Z</time></trkpt><trkpt lat="45.5357905" lon="11.4723043"><ele>82.0</ele><time>2026-05-03T09:19:26.084Z</time></trkpt><trkpt lat="45.5357252" lon="11.4723766"><ele>78.6</ele><time>2026-05-03T09:19:27.084Z</time></trkpt><trkpt lat="45.5356643" lon="11.4724549"><ele>75.19999999999999</ele><time>2026-05-03T09:19:28.084Z</time></trkpt><trkpt lat="45.5355915" lon="11.4725237"><ele>71.8</ele><time>2026-05-03T09:19:29.084Z</time></trkpt><trkpt lat="45.535502" lon="11.4725864"><ele>68.4</ele><time>2026-05-03T09:19:30.084Z</time></trkpt><trkpt lat="45.5354053" lon="11.4726405"><ele>65.0</ele><time>2026-05-03T09:19:31.084Z</time></trkpt><trkpt lat="45.5353047" lon="11.4726959"><ele>64.5</ele><time>2026-05-03T09:19:32.084Z</time></trkpt><trkpt lat="45.5352027" lon="11.4727459"><ele>64.0</ele><time>2026-05-03T09:19:33.084Z</time></trkpt><trkpt lat="45.5351074" lon="11.4727931"><ele>63.5</ele><time>2026-05-03T09:19:34.084Z</time></trkpt><trkpt lat="45.5350203" lon="11.4728337"><ele>63.0</ele><time>2026-05-03T09:19:35.084Z</time></trkpt><trkpt lat="45.5349446" lon="11.4728653"><ele>62.50000000000001</ele><time>2026-05-03T09:19:36.084Z</time></trkpt><trkpt lat="45.5348837" lon="11.4729148"><ele>62.0</ele><time>2026-05-03T09:19:37.084Z</time></trkpt><trkpt lat="45.5348483" lon="11.4730098"><ele>60.66666666666667</ele><time>2026-05-03T09:19:38.084Z</time></trkpt><trkpt lat="45.5348386" lon="11.4731154"><ele>59.333333333333336</ele><time>2026-05-03T09:19:39.084Z</time></trkpt><trkpt lat="45.5348493" lon="11.4732295"><ele>58.0</ele><time>2026-05-03T09:19:40.085Z</time></trkpt><trkpt lat="45.5348598" lon="11.4733544"><ele>56.66666666666667</ele><time>2026-05-03T09:19:41.084Z</time></trkpt><trkpt lat="45.5348752" lon="11.4734777"><ele>55.333333333333336</ele><time>2026-05-03T09:19:42.084Z</time></trkpt><trkpt lat="45.534888" lon="11.4735988"><ele>54.0</ele><time>2026-05-03T09:19:43.084Z</time></trkpt><trkpt lat="45.534887" lon="11.4737182"><ele>52.166666666666664</ele><time>2026-05-03T09:19:44.084Z</time></trkpt><trkpt lat="45.5348654" lon="11.4738302"><ele>50.333333333333336</ele><time>2026-05-03T09:19:45.085Z</time></trkpt><trkpt lat="45.534821" lon="11.4739346"><ele>48.5</ele><time>2026-05-03T09:19:46.084Z</time></trkpt><trkpt lat="45.5347663" lon="11.4740351"><ele>46.66666666666667</ele><time>2026-05-03T09:19:47.085Z</time></trkpt><trkpt lat="45.5347073" lon="11.4741382"><ele>44.833333333333336</ele><time>2026-05-03T09:19:48.084Z</time></trkpt><trkpt lat="45.5346486" lon="11.474244"><ele>43.0</ele><time>2026-05-03T09:19:49.084Z</time></trkpt><trkpt lat="45.5345909" lon="11.4743476"><ele>42.833333333333336</ele><time>2026-05-03T09:19:50.084Z</time></trkpt><trkpt lat="45.5345348" lon="11.4744494"><ele>42.66666666666667</ele><time>2026-05-03T09:19:51.085Z</time></trkpt><trkpt lat="45.5344788" lon="11.4745427"><ele>42.5</ele><time>2026-05-03T09:19:52.085Z</time></trkpt><trkpt lat="45.5344164" lon="11.4746224"><ele>42.333333333333336</ele><time>2026-05-03T09:19:53.084Z</time></trkpt><trkpt lat="45.5343451" lon="11.4746788"><ele>42.166666666666664</ele><time>2026-05-03T09:19:54.084Z</time></trkpt><trkpt lat="45.5342629" lon="11.4747051"><ele>42.0</ele><time>2026-05-03T09:19:55.085Z</time></trkpt><trkpt lat="45.534174" lon="11.4747051"><ele>41.833333333333336</ele><time>2026-05-03T09:19:56.085Z</time></trkpt><trkpt lat="45.5340859" lon="11.474698"><ele>41.666666666666664</ele><time>2026-05-03T09:19:57.084Z</time></trkpt><trkpt lat="45.5340059" lon="11.4746917"><ele>41.5</ele><time>2026-05-03T09:19:58.084Z</time></trkpt><trkpt lat="45.5339346" lon="11.474685"><ele>41.33333333333333</ele><time>2026-05-03T09:19:59.083Z</time></trkpt><trkpt lat="45.5338693" lon="11.4746813"><ele>41.166666666666664</ele><time>2026-05-03T09:20:00.084Z</time></trkpt><trkpt lat="45.5337557" lon="11.4746939"><ele>41.0</ele><time>2026-05-03T09:20:02.085Z</time></trkpt><trkpt lat="45.53367" lon="11.4747683"><ele>41.0</ele><time>2026-05-03T09:20:04.084Z</time></trkpt><trkpt lat="45.533607" lon="11.4749225"><ele>41.0</ele><time>2026-05-03T09:20:06.084Z</time></trkpt><trkpt lat="45.5335781" lon="11.4750278"><ele>41.0</ele><time>2026-05-03T09:20:07.084Z</time></trkpt><trkpt lat="45.5335463" lon="11.475152"><ele>41.0</ele><time>2026-05-03T09:20:08.085Z</time></trkpt><trkpt lat="45.5335102" lon="11.4752935"><ele>41.0</ele><time>2026-05-03T09:20:09.084Z</time></trkpt><trkpt lat="45.5334693" lon="11.4754493"><ele>41.0</ele><time>2026-05-03T09:20:10.084Z</time></trkpt><trkpt lat="45.5334303" lon="11.4756064"><ele>41.0</ele><time>2026-05-03T09:20:11.084Z</time></trkpt><trkpt lat="45.5333876" lon="11.4757684"><ele>41.0</ele><time>2026-05-03T09:20:12.085Z</time></trkpt><trkpt lat="45.5333416" lon="11.4759232"><ele>41.0</ele><time>2026-05-03T09:20:13.084Z</time></trkpt><trkpt lat="45.5332937" lon="11.4760711"><ele>41.0</ele><time>2026-05-03T09:20:14.084Z</time></trkpt><trkpt lat="45.5332459" lon="11.476212"><ele>41.0</ele><time>2026-05-03T09:20:15.084Z</time></trkpt><trkpt lat="45.5332011" lon="11.476351"><ele>41.0</ele><time>2026-05-03T09:20:16.085Z</time></trkpt><trkpt lat="45.5331526" lon="11.4764952"><ele>41.0</ele><time>2026-05-03T09:20:17.084Z</time></trkpt><trkpt lat="45.5331097" lon="11.4766417"><ele>41.0</ele><time>2026-05-03T09:20:18.084Z</time></trkpt><trkpt lat="45.5330757" lon="11.4767956"><ele>41.0</ele><time>2026-05-03T09:20:19.084Z</time></trkpt><trkpt lat="45.5330514" lon="11.4769551"><ele>41.0</ele><time>2026-05-03T09:20:20.084Z</time></trkpt><trkpt lat="45.5330361" lon="11.4771193"><ele>41.0</ele><time>2026-05-03T09:20:21.084Z</time></trkpt><trkpt lat="45.5330316" lon="11.477284"><ele>41.0</ele><time>2026-05-03T09:20:22.084Z</time></trkpt><trkpt lat="45.5330326" lon="11.477444"><ele>40.8</ele><time>2026-05-03T09:20:23.085Z</time></trkpt><trkpt lat="45.5330388" lon="11.4775973"><ele>40.599999999999994</ele><time>2026-05-03T09:20:24.084Z</time></trkpt><trkpt lat="45.533044" lon="11.4777407"><ele>40.4</ele><time>2026-05-03T09:20:25.084Z</time></trkpt><trkpt lat="45.5330527" lon="11.4778734"><ele>40.2</ele><time>2026-05-03T09:20:26.085Z</time></trkpt><trkpt lat="45.5330579" lon="11.4779966"><ele>40.0</ele><time>2026-05-03T09:20:27.084Z</time></trkpt><trkpt lat="45.533063" lon="11.4781111"><ele>39.333333333333336</ele><time>2026-05-03T09:20:28.084Z</time></trkpt><trkpt lat="45.5330608" lon="11.4782219"><ele>38.66666666666667</ele><time>2026-05-03T09:20:29.085Z</time></trkpt><trkpt lat="45.5330394" lon="11.4783374"><ele>38.0</ele><time>2026-05-03T09:20:30.085Z</time></trkpt><trkpt lat="45.5330188" lon="11.4784542"><ele>37.333333333333336</ele><time>2026-05-03T09:20:31.084Z</time></trkpt><trkpt lat="45.5330279" lon="11.4785707"><ele>36.666666666666664</ele><time>2026-05-03T09:20:32.084Z</time></trkpt><trkpt lat="45.5330677" lon="11.4786632"><ele>36.0</ele><time>2026-05-03T09:20:33.084Z</time></trkpt><trkpt lat="45.5331281" lon="11.4787153"><ele>36.0</ele><time>2026-05-03T09:20:34.085Z</time></trkpt><trkpt lat="45.5332039" lon="11.4787314"><ele>36.0</ele><time>2026-05-03T09:20:35.084Z</time></trkpt><trkpt lat="45.5332915" lon="11.4787716"><ele>36.0</ele><time>2026-05-03T09:20:36.084Z</time></trkpt><trkpt lat="45.5333718" lon="11.478854"><ele>36.0</ele><time>2026-05-03T09:20:37.084Z</time></trkpt><trkpt lat="45.5334504" lon="11.4789562"><ele>36.0</ele><time>2026-05-03T09:20:38.084Z</time></trkpt><trkpt lat="45.5335319" lon="11.4790712"><ele>36.0</ele><time>2026-05-03T09:20:39.084Z</time></trkpt><trkpt lat="45.5336161" lon="11.4791918"><ele>36.0</ele><time>2026-05-03T09:20:40.084Z</time></trkpt><trkpt lat="45.5337002" lon="11.4793126"><ele>36.0</ele><time>2026-05-03T09:20:41.084Z</time></trkpt><trkpt lat="45.5337804" lon="11.4794247"><ele>36.0</ele><time>2026-05-03T09:20:42.085Z</time></trkpt><trkpt lat="45.533859" lon="11.4795413"><ele>35.75</ele><time>2026-05-03T09:20:43.084Z</time></trkpt><trkpt lat="45.5339359" lon="11.4796556"><ele>35.5</ele><time>2026-05-03T09:20:44.084Z</time></trkpt><trkpt lat="45.5340159" lon="11.4797758"><ele>35.25</ele><time>2026-05-03T09:20:45.084Z</time></trkpt><trkpt lat="45.5340999" lon="11.4799028"><ele>35.0</ele><time>2026-05-03T09:20:46.084Z</time></trkpt><trkpt lat="45.5341863" lon="11.4800381"><ele>35.0</ele><time>2026-05-03T09:20:47.084Z</time></trkpt><trkpt lat="45.5342706" lon="11.4801797"><ele>35.0</ele><time>2026-05-03T09:20:48.084Z</time></trkpt><trkpt lat="45.5343488" lon="11.4803288"><ele>35.0</ele><time>2026-05-03T09:20:49.084Z</time></trkpt><trkpt lat="45.5344247" lon="11.4804799"><ele>35.0</ele><time>2026-05-03T09:20:50.085Z</time></trkpt><trkpt lat="45.5345013" lon="11.480628"><ele>34.75</ele><time>2026-05-03T09:20:51.085Z</time></trkpt><trkpt lat="45.5345765" lon="11.4807681"><ele>34.5</ele><time>2026-05-03T09:20:52.084Z</time></trkpt><trkpt lat="45.534646" lon="11.4808963"><ele>34.25</ele><time>2026-05-03T09:20:53.084Z</time></trkpt><trkpt lat="45.534715" lon="11.4810278"><ele>34.0</ele><time>2026-05-03T09:20:54.084Z</time></trkpt><trkpt lat="45.5347861" lon="11.481162"><ele>34.0</ele><time>2026-05-03T09:20:55.083Z</time></trkpt><trkpt lat="45.5348533" lon="11.4813094"><ele>34.0</ele><time>2026-05-03T09:20:56.084Z</time></trkpt><trkpt lat="45.5349213" lon="11.4814662"><ele>34.0</ele><time>2026-05-03T09:20:57.085Z</time></trkpt><trkpt lat="45.534984" lon="11.4816317"><ele>34.0</ele><time>2026-05-03T09:20:58.085Z</time></trkpt><trkpt lat="45.5350445" lon="11.4818086"><ele>34.0</ele><time>2026-05-03T09:20:59.084Z</time></trkpt><trkpt lat="45.5351014" lon="11.4819924"><ele>34.0</ele><time>2026-05-03T09:21:00.085Z</time></trkpt><trkpt lat="45.5351603" lon="11.4821845"><ele>34.0</ele><time>2026-05-03T09:21:01.085Z</time></trkpt><trkpt lat="45.5352193" lon="11.48238"><ele>34.0</ele><time>2026-05-03T09:21:02.084Z</time></trkpt><trkpt lat="45.5352753" lon="11.4825699"><ele>34.25</ele><time>2026-05-03T09:21:03.084Z</time></trkpt><trkpt lat="45.5353282" lon="11.4827462"><ele>34.5</ele><time>2026-05-03T09:21:04.084Z</time></trkpt><trkpt lat="45.5353791" lon="11.4829228"><ele>34.75</ele><time>2026-05-03T09:21:05.084Z</time></trkpt><trkpt lat="45.5354278" lon="11.4830942"><ele>35.0</ele><time>2026-05-03T09:21:06.084Z</time></trkpt><trkpt lat="45.5354754" lon="11.4832686"><ele>35.0</ele><time>2026-05-03T09:21:07.084Z</time></trkpt><trkpt lat="45.5355283" lon="11.4834528"><ele>35.0</ele><time>2026-05-03T09:21:08.084Z</time></trkpt><trkpt lat="45.5355842" lon="11.4836457"><ele>35.0</ele><time>2026-05-03T09:21:09.084Z</time></trkpt><trkpt lat="45.5356372" lon="11.4838395"><ele>35.0</ele><time>2026-05-03T09:21:10.084Z</time></trkpt><trkpt lat="45.535692" lon="11.4840342"><ele>35.0</ele><time>2026-05-03T09:21:11.085Z</time></trkpt><trkpt lat="45.5357466" lon="11.4842242"><ele>35.0</ele><time>2026-05-03T09:21:12.084Z</time></trkpt><trkpt lat="45.535798" lon="11.4844043"><ele>35.0</ele><time>2026-05-03T09:21:13.085Z</time></trkpt><trkpt lat="45.5358481" lon="11.4845742"><ele>35.0</ele><time>2026-05-03T09:21:14.084Z</time></trkpt><trkpt lat="45.5359017" lon="11.4847396"><ele>34.5</ele><time>2026-05-03T09:21:15.085Z</time></trkpt><trkpt lat="45.5359611" lon="11.4849001"><ele>34.0</ele><time>2026-05-03T09:21:16.085Z</time></trkpt><trkpt lat="45.5360248" lon="11.4850665"><ele>33.5</ele><time>2026-05-03T09:21:17.084Z</time></trkpt><trkpt lat="45.5360888" lon="11.4852392"><ele>33.0</ele><time>2026-05-03T09:21:18.084Z</time></trkpt><trkpt lat="45.5361548" lon="11.4854194"><ele>33.5</ele><time>2026-05-03T09:21:19.085Z</time></trkpt><trkpt lat="45.5362291" lon="11.4856009"><ele>34.0</ele><time>2026-05-03T09:21:20.085Z</time></trkpt><trkpt lat="45.5363047" lon="11.4857814"><ele>34.5</ele><time>2026-05-03T09:21:21.084Z</time></trkpt><trkpt lat="45.5363795" lon="11.4859695"><ele>35.0</ele><time>2026-05-03T09:21:22.084Z</time></trkpt><trkpt lat="45.5364515" lon="11.4861607"><ele>34.75</ele><time>2026-05-03T09:21:23.084Z</time></trkpt><trkpt lat="45.5365176" lon="11.4863485"><ele>34.5</ele><time>2026-05-03T09:21:24.084Z</time></trkpt><trkpt lat="45.5365761" lon="11.4865311"><ele>34.25</ele><time>2026-05-03T09:21:25.083Z</time></trkpt><trkpt lat="45.5366299" lon="11.4867071"><ele>34.0</ele><time>2026-05-03T09:21:26.084Z</time></trkpt><trkpt lat="45.536675" lon="11.4868616"><ele>34.0</ele><time>2026-05-03T09:21:27.084Z</time></trkpt><trkpt lat="45.5367109" lon="11.486993"><ele>34.0</ele><time>2026-05-03T09:21:28.085Z</time></trkpt><trkpt lat="45.5367463" lon="11.4871208"><ele>34.0</ele><time>2026-05-03T09:21:29.084Z</time></trkpt><trkpt lat="45.5367841" lon="11.4872605"><ele>34.0</ele><time>2026-05-03T09:21:30.085Z</time></trkpt><trkpt lat="45.5368247" lon="11.4874093"><ele>34.0</ele><time>2026-05-03T09:21:31.084Z</time></trkpt><trkpt lat="45.5368699" lon="11.4875637"><ele>34.0</ele><time>2026-05-03T09:21:32.085Z</time></trkpt><trkpt lat="45.5369159" lon="11.4877251"><ele>34.0</ele><time>2026-05-03T09:21:33.084Z</time></trkpt><trkpt lat="45.5369648" lon="11.487889"><ele>34.0</ele><time>2026-05-03T09:21:34.084Z</time></trkpt><trkpt lat="45.5370167" lon="11.4880572"><ele>34.0</ele><time>2026-05-03T09:21:35.085Z</time></trkpt><trkpt lat="45.5370706" lon="11.4882174"><ele>33.8</ele><time>2026-05-03T09:21:36.084Z</time></trkpt><trkpt lat="45.5371185" lon="11.4883708"><ele>33.599999999999994</ele><time>2026-05-03T09:21:37.084Z</time></trkpt><trkpt lat="45.5371639" lon="11.4885083"><ele>33.4</ele><time>2026-05-03T09:21:38.084Z</time></trkpt><trkpt lat="45.5372033" lon="11.4886286"><ele>33.199999999999996</ele><time>2026-05-03T09:21:39.084Z</time></trkpt><trkpt lat="45.5372413" lon="11.4887424"><ele>33.0</ele><time>2026-05-03T09:21:40.084Z</time></trkpt><trkpt lat="45.5372825" lon="11.4888588"><ele>33.0</ele><time>2026-05-03T09:21:41.084Z</time></trkpt><trkpt lat="45.537324" lon="11.4889895"><ele>33.0</ele><time>2026-05-03T09:21:42.084Z</time></trkpt><trkpt lat="45.5373609" lon="11.4891257"><ele>33.0</ele><time>2026-05-03T09:21:43.084Z</time></trkpt><trkpt lat="45.5373913" lon="11.4892779"><ele>33.0</ele><time>2026-05-03T09:21:44.084Z</time></trkpt><trkpt lat="45.5374083" lon="11.4894394"><ele>33.0</ele><time>2026-05-03T09:21:45.084Z</time></trkpt><trkpt lat="45.5374091" lon="11.4896047"><ele>33.0</ele><time>2026-05-03T09:21:46.084Z</time></trkpt><trkpt lat="45.5373963" lon="11.4897747"><ele>33.0</ele><time>2026-05-03T09:21:47.084Z</time></trkpt><trkpt lat="45.537367" lon="11.489937"><ele>33.0</ele><time>2026-05-03T09:21:48.084Z</time></trkpt><trkpt lat="45.5373245" lon="11.4900796"><ele>33.0</ele><time>2026-05-03T09:21:49.084Z</time></trkpt><trkpt lat="45.5372838" lon="11.4902079"><ele>33.0</ele><time>2026-05-03T09:21:50.084Z</time></trkpt><trkpt lat="45.5372442" lon="11.4903373"><ele>32.6</ele><time>2026-05-03T09:21:51.084Z</time></trkpt><trkpt lat="45.5372039" lon="11.4904636"><ele>32.199999999999996</ele><time>2026-05-03T09:21:52.084Z</time></trkpt><trkpt lat="45.5371656" lon="11.4905938"><ele>31.8</ele><time>2026-05-03T09:21:53.085Z</time></trkpt><trkpt lat="45.5371376" lon="11.4907385"><ele>31.4</ele><time>2026-05-03T09:21:54.084Z</time></trkpt><trkpt lat="45.5371214" lon="11.4908921"><ele>31.0</ele><time>2026-05-03T09:21:55.084Z</time></trkpt><trkpt lat="45.5371201" lon="11.4910478"><ele>31.0</ele><time>2026-05-03T09:21:56.085Z</time></trkpt><trkpt lat="45.5371247" lon="11.4912025"><ele>31.0</ele><time>2026-05-03T09:21:57.085Z</time></trkpt><trkpt lat="45.5371348" lon="11.4913523"><ele>31.0</ele><time>2026-05-03T09:21:58.085Z</time></trkpt><trkpt lat="45.5371438" lon="11.4914919"><ele>31.0</ele><time>2026-05-03T09:21:59.084Z</time></trkpt><trkpt lat="45.5371499" lon="11.4916199"><ele>31.0</ele><time>2026-05-03T09:22:00.084Z</time></trkpt><trkpt lat="45.537145" lon="11.4917458"><ele>31.0</ele><time>2026-05-03T09:22:01.084Z</time></trkpt><trkpt lat="45.5371228" lon="11.4918784"><ele>31.0</ele><time>2026-05-03T09:22:02.085Z</time></trkpt><trkpt lat="45.5370761" lon="11.4920116"><ele>31.0</ele><time>2026-05-03T09:22:03.084Z</time></trkpt><trkpt lat="45.5370051" lon="11.4921376"><ele>31.0</ele><time>2026-05-03T09:22:04.085Z</time></trkpt><trkpt lat="45.5369116" lon="11.4922539"><ele>31.0</ele><time>2026-05-03T09:22:05.084Z</time></trkpt><trkpt lat="45.5368017" lon="11.4923659"><ele>31.25</ele><time>2026-05-03T09:22:06.084Z</time></trkpt><trkpt lat="45.5366847" lon="11.4924844"><ele>31.5</ele><time>2026-05-03T09:22:07.083Z</time></trkpt><trkpt lat="45.5365632" lon="11.4926124"><ele>31.75</ele><time>2026-05-03T09:22:08.084Z</time></trkpt><trkpt lat="45.53644" lon="11.4927425"><ele>32.0</ele><time>2026-05-03T09:22:09.084Z</time></trkpt><trkpt lat="45.5363186" lon="11.4928753"><ele>31.75</ele><time>2026-05-03T09:22:10.084Z</time></trkpt><trkpt lat="45.5361972" lon="11.4930033"><ele>31.5</ele><time>2026-05-03T09:22:11.085Z</time></trkpt><trkpt lat="45.5360788" lon="11.4931305"><ele>31.25</ele><time>2026-05-03T09:22:12.083Z</time></trkpt><trkpt lat="45.5359689" lon="11.4932463"><ele>31.0</ele><time>2026-05-03T09:22:13.084Z</time></trkpt><trkpt lat="45.5358621" lon="11.4933551"><ele>31.0</ele><time>2026-05-03T09:22:14.084Z</time></trkpt><trkpt lat="45.5357527" lon="11.4934634"><ele>31.0</ele><time>2026-05-03T09:22:15.084Z</time></trkpt><trkpt lat="45.535652" lon="11.4935694"><ele>31.0</ele><time>2026-05-03T09:22:16.084Z</time></trkpt><trkpt lat="45.5355491" lon="11.4936777"><ele>31.0</ele><time>2026-05-03T09:22:17.085Z</time></trkpt><trkpt lat="45.535435" lon="11.4937956"><ele>31.0</ele><time>2026-05-03T09:22:18.084Z</time></trkpt><trkpt lat="45.5353082" lon="11.4939237"><ele>31.0</ele><time>2026-05-03T09:22:19.084Z</time></trkpt><trkpt lat="45.5351735" lon="11.4940612"><ele>31.0</ele><time>2026-05-03T09:22:20.084Z</time></trkpt><trkpt lat="45.5350352" lon="11.4942078"><ele>31.0</ele><time>2026-05-03T09:22:21.084Z</time></trkpt><trkpt lat="45.5348914" lon="11.4943571"><ele>31.0</ele><time>2026-05-03T09:22:22.084Z</time></trkpt><trkpt lat="45.534746" lon="11.4945097"><ele>31.0</ele><time>2026-05-03T09:22:23.084Z</time></trkpt><trkpt lat="45.534601" lon="11.4946568"><ele>31.0</ele><time>2026-05-03T09:22:24.084Z</time></trkpt><trkpt lat="45.5344635" lon="11.4948028"><ele>31.0</ele><time>2026-05-03T09:22:25.084Z</time></trkpt><trkpt lat="45.5343317" lon="11.4949394"><ele>31.0</ele><time>2026-05-03T09:22:26.084Z</time></trkpt><trkpt lat="45.5342041" lon="11.4950694"><ele>31.0</ele><time>2026-05-03T09:22:27.084Z</time></trkpt><trkpt lat="45.5340808" lon="11.4951993"><ele>31.0</ele><time>2026-05-03T09:22:28.084Z</time></trkpt><trkpt lat="45.533957" lon="11.4953275"><ele>31.0</ele><time>2026-05-03T09:22:29.085Z</time></trkpt><trkpt lat="45.5338324" lon="11.4954583"><ele>31.666666666666668</ele><time>2026-05-03T09:22:30.084Z</time></trkpt><trkpt lat="45.5337052" lon="11.4955919"><ele>32.333333333333336</ele><time>2026-05-03T09:22:31.084Z</time></trkpt><trkpt lat="45.5335787" lon="11.495721"><ele>33.0</ele><time>2026-05-03T09:22:32.084Z</time></trkpt><trkpt lat="45.5334528" lon="11.4958503"><ele>33.0</ele><time>2026-05-03T09:22:33.085Z</time></trkpt><trkpt lat="45.5333264" lon="11.4959809"><ele>33.0</ele><time>2026-05-03T09:22:34.084Z</time></trkpt><trkpt lat="45.5332031" lon="11.4961179"><ele>33.0</ele><time>2026-05-03T09:22:35.084Z</time></trkpt><trkpt lat="45.5330875" lon="11.496259"><ele>33.0</ele><time>2026-05-03T09:22:36.084Z</time></trkpt><trkpt lat="45.5329831" lon="11.4964133"><ele>33.0</ele><time>2026-05-03T09:22:37.084Z</time></trkpt><trkpt lat="45.5328825" lon="11.4965829"><ele>33.0</ele><time>2026-05-03T09:22:38.084Z</time></trkpt><trkpt lat="45.5327765" lon="11.4967474"><ele>33.0</ele><time>2026-05-03T09:22:39.085Z</time></trkpt><trkpt lat="45.5326713" lon="11.496916"><ele>33.0</ele><time>2026-05-03T09:22:40.084Z</time></trkpt><trkpt lat="45.5325633" lon="11.4970887"><ele>33.0</ele><time>2026-05-03T09:22:41.084Z</time></trkpt><trkpt lat="45.5324563" lon="11.4972628"><ele>32.75</ele><time>2026-05-03T09:22:42.084Z</time></trkpt><trkpt lat="45.5323516" lon="11.4974262"><ele>32.5</ele><time>2026-05-03T09:22:43.084Z</time></trkpt><trkpt lat="45.532253" lon="11.4975782"><ele>32.25</ele><time>2026-05-03T09:22:44.084Z</time></trkpt><trkpt lat="45.5321566" lon="11.4977217"><ele>32.0</ele><time>2026-05-03T09:22:45.084Z</time></trkpt><trkpt lat="45.5320702" lon="11.4978527"><ele>32.25</ele><time>2026-05-03T09:22:46.084Z</time></trkpt><trkpt lat="45.5319874" lon="11.4979743"><ele>32.5</ele><time>2026-05-03T09:22:47.084Z</time></trkpt><trkpt lat="45.5319075" lon="11.4980797"><ele>32.75</ele><time>2026-05-03T09:22:48.084Z</time></trkpt><trkpt lat="45.5318171" lon="11.49818"><ele>33.0</ele><time>2026-05-03T09:22:49.084Z</time></trkpt><trkpt lat="45.5317167" lon="11.4982756"><ele>33.0</ele><time>2026-05-03T09:22:50.084Z</time></trkpt><trkpt lat="45.5316051" lon="11.4983718"><ele>33.0</ele><time>2026-05-03T09:22:51.085Z</time></trkpt><trkpt lat="45.5314925" lon="11.498475"><ele>33.0</ele><time>2026-05-03T09:22:52.084Z</time></trkpt><trkpt lat="45.5313808" lon="11.4985844"><ele>33.0</ele><time>2026-05-03T09:22:53.084Z</time></trkpt><trkpt lat="45.5312666" lon="11.4986924"><ele>33.25</ele><time>2026-05-03T09:22:54.084Z</time></trkpt><trkpt lat="45.5311507" lon="11.4987972"><ele>33.5</ele><time>2026-05-03T09:22:55.084Z</time></trkpt><trkpt lat="45.5310345" lon="11.498901"><ele>33.75</ele><time>2026-05-03T09:22:56.084Z</time></trkpt><trkpt lat="45.5309168" lon="11.4990097"><ele>34.0</ele><time>2026-05-03T09:22:57.085Z</time></trkpt><trkpt lat="45.5308009" lon="11.4991172"><ele>34.0</ele><time>2026-05-03T09:22:58.084Z</time></trkpt><trkpt lat="45.5306912" lon="11.4992164"><ele>34.0</ele><time>2026-05-03T09:22:59.084Z</time></trkpt><trkpt lat="45.5305906" lon="11.4993133"><ele>34.0</ele><time>2026-05-03T09:23:00.085Z</time></trkpt><trkpt lat="45.5304981" lon="11.4994021"><ele>34.0</ele><time>2026-05-03T09:23:01.084Z</time></trkpt><trkpt lat="45.5304106" lon="11.499486"><ele>34.0</ele><time>2026-05-03T09:23:02.084Z</time></trkpt><trkpt lat="45.5303317" lon="11.4995639"><ele>34.0</ele><time>2026-05-03T09:23:03.084Z</time></trkpt><trkpt lat="45.5302583" lon="11.4996287"><ele>34.0</ele><time>2026-05-03T09:23:04.084Z</time></trkpt><trkpt lat="45.5302017" lon="11.4996859"><ele>34.0</ele><time>2026-05-03T09:23:05.084Z</time></trkpt><trkpt lat="45.5301237" lon="11.4997615"><ele>34.0</ele><time>2026-05-03T09:23:07.085Z</time></trkpt><trkpt lat="45.5300672" lon="11.4998052"><ele>34.0</ele><time>2026-05-03T09:23:23.084Z</time></trkpt><trkpt lat="45.5299943" lon="11.4998752"><ele>34.0</ele><time>2026-05-03T09:23:25.084Z</time></trkpt><trkpt lat="45.5299011" lon="11.4999838"><ele>34.0</ele><time>2026-05-03T09:23:27.084Z</time></trkpt><trkpt lat="45.5298968" lon="11.5001559"><ele>34.0</ele><time>2026-05-03T09:23:29.084Z</time></trkpt><trkpt lat="45.529928" lon="11.5002499"><ele>34.0</ele><time>2026-05-03T09:23:30.084Z</time></trkpt><trkpt lat="45.5299779" lon="11.5003435"><ele>34.0</ele><time>2026-05-03T09:23:31.084Z</time></trkpt><trkpt lat="45.5300376" lon="11.5004405"><ele>34.0</ele><time>2026-05-03T09:23:32.084Z</time></trkpt><trkpt lat="45.5301043" lon="11.5005474"><ele>34.0</ele><time>2026-05-03T09:23:33.084Z</time></trkpt><trkpt lat="45.530177" lon="11.500663"><ele>34.0</ele><time>2026-05-03T09:23:34.084Z</time></trkpt><trkpt lat="45.5302524" lon="11.5007836"><ele>34.0</ele><time>2026-05-03T09:23:35.085Z</time></trkpt><trkpt lat="45.5303323" lon="11.500907"><ele>34.0</ele><time>2026-05-03T09:23:36.083Z</time></trkpt><trkpt lat="45.5304175" lon="11.5010399"><ele>34.25</ele><time>2026-05-03T09:23:37.084Z</time></trkpt><trkpt lat="45.5305061" lon="11.5011789"><ele>34.5</ele><time>2026-05-03T09:23:38.085Z</time></trkpt><trkpt lat="45.5305991" lon="11.5013287"><ele>34.75</ele><time>2026-05-03T09:23:39.084Z</time></trkpt><trkpt lat="45.5306962" lon="11.5014835"><ele>35.0</ele><time>2026-05-03T09:23:40.084Z</time></trkpt><trkpt lat="45.5307968" lon="11.5016459"><ele>34.666666666666664</ele><time>2026-05-03T09:23:41.084Z</time></trkpt><trkpt lat="45.5309016" lon="11.501808"><ele>34.333333333333336</ele><time>2026-05-03T09:23:42.085Z</time></trkpt><trkpt lat="45.531005" lon="11.5019685"><ele>34.0</ele><time>2026-05-03T09:23:43.085Z</time></trkpt><trkpt lat="45.5311083" lon="11.5021262"><ele>34.0</ele><time>2026-05-03T09:23:44.084Z</time></trkpt><trkpt lat="45.5312069" lon="11.5022743"><ele>34.0</ele><time>2026-05-03T09:23:45.083Z</time></trkpt><trkpt lat="45.5313058" lon="11.5024233"><ele>34.0</ele><time>2026-05-03T09:23:46.084Z</time></trkpt><trkpt lat="45.5314015" lon="11.5025667"><ele>34.0</ele><time>2026-05-03T09:23:47.083Z</time></trkpt><trkpt lat="45.5314981" lon="11.502705"><ele>34.0</ele><time>2026-05-03T09:23:48.083Z</time></trkpt><trkpt lat="45.531594" lon="11.5028471"><ele>34.0</ele><time>2026-05-03T09:23:49.084Z</time></trkpt><trkpt lat="45.5316913" lon="11.5029912"><ele>34.0</ele><time>2026-05-03T09:23:50.086Z</time></trkpt><trkpt lat="45.5317889" lon="11.5031385"><ele>34.0</ele><time>2026-05-03T09:23:51.084Z</time></trkpt><trkpt lat="45.5318872" lon="11.5032859"><ele>33.5</ele><time>2026-05-03T09:23:52.084Z</time></trkpt><trkpt lat="45.5319849" lon="11.5034296"><ele>33.0</ele><time>2026-05-03T09:23:53.084Z</time></trkpt><trkpt lat="45.5320795" lon="11.5035686"><ele>32.5</ele><time>2026-05-03T09:23:54.085Z</time></trkpt><trkpt lat="45.5321688" lon="11.5037059"><ele>32.0</ele><time>2026-05-03T09:23:55.083Z</time></trkpt><trkpt lat="45.5322516" lon="11.5038351"><ele>31.8</ele><time>2026-05-03T09:23:56.084Z</time></trkpt><trkpt lat="45.5323266" lon="11.5039527"><ele>31.6</ele><time>2026-05-03T09:23:57.084Z</time></trkpt><trkpt lat="45.5323958" lon="11.5040592"><ele>31.400000000000002</ele><time>2026-05-03T09:23:58.084Z</time></trkpt><trkpt lat="45.5324585" lon="11.5041638"><ele>31.200000000000003</ele><time>2026-05-03T09:23:59.084Z</time></trkpt><trkpt lat="45.5325089" lon="11.5042774"><ele>31.0</ele><time>2026-05-03T09:24:00.084Z</time></trkpt><trkpt lat="45.5325374" lon="11.5044085"><ele>31.0</ele><time>2026-05-03T09:24:01.084Z</time></trkpt><trkpt lat="45.5325408" lon="11.5045457"><ele>31.0</ele><time>2026-05-03T09:24:02.084Z</time></trkpt><trkpt lat="45.5325198" lon="11.5046751"><ele>31.0</ele><time>2026-05-03T09:24:03.084Z</time></trkpt><trkpt lat="45.5324907" lon="11.5048066"><ele>31.0</ele><time>2026-05-03T09:24:04.084Z</time></trkpt><trkpt lat="45.5324782" lon="11.5049497"><ele>31.0</ele><time>2026-05-03T09:24:05.084Z</time></trkpt><trkpt lat="45.5324904" lon="11.5050891"><ele>31.0</ele><time>2026-05-03T09:24:06.084Z</time></trkpt><trkpt lat="45.5325233" lon="11.5052277"><ele>31.0</ele><time>2026-05-03T09:24:07.084Z</time></trkpt><trkpt lat="45.5325747" lon="11.5053674"><ele>31.0</ele><time>2026-05-03T09:24:08.084Z</time></trkpt><trkpt lat="45.5326301" lon="11.5055317"><ele>31.0</ele><time>2026-05-03T09:24:09.084Z</time></trkpt><trkpt lat="45.5326851" lon="11.5057506"><ele>31.0</ele><time>2026-05-03T09:24:10.084Z</time></trkpt><trkpt lat="45.5327532" lon="11.5060095"><ele>31.0</ele><time>2026-05-03T09:24:11.085Z</time></trkpt><trkpt lat="45.5328228" lon="11.5062887"><ele>31.0</ele><time>2026-05-03T09:24:12.085Z</time></trkpt><trkpt lat="45.5328816" lon="11.5065443"><ele>31.666666666666668</ele><time>2026-05-03T09:24:13.084Z</time></trkpt><trkpt lat="45.5329368" lon="11.5067901"><ele>32.333333333333336</ele><time>2026-05-03T09:24:14.084Z</time></trkpt><trkpt lat="45.5329898" lon="11.5070243"><ele>33.0</ele><time>2026-05-03T09:24:15.085Z</time></trkpt><trkpt lat="45.5330424" lon="11.507253"><ele>33.666666666666664</ele><time>2026-05-03T09:24:16.084Z</time></trkpt><trkpt lat="45.5330945" lon="11.507468"><ele>34.33333333333333</ele><time>2026-05-03T09:24:17.084Z</time></trkpt><trkpt lat="45.53314" lon="11.5076709"><ele>35.0</ele><time>2026-05-03T09:24:18.084Z</time></trkpt><trkpt lat="45.5331672" lon="11.5078685"><ele>35.0</ele><time>2026-05-03T09:24:19.084Z</time></trkpt><trkpt lat="45.5331629" lon="11.5080655"><ele>35.0</ele><time>2026-05-03T09:24:20.084Z</time></trkpt><trkpt lat="45.5331245" lon="11.5082475"><ele>35.0</ele><time>2026-05-03T09:24:21.084Z</time></trkpt><trkpt lat="45.5330498" lon="11.5083967"><ele>35.0</ele><time>2026-05-03T09:24:22.084Z</time></trkpt><trkpt lat="45.53295" lon="11.5085085"><ele>34.5</ele><time>2026-05-03T09:24:23.084Z</time></trkpt><trkpt lat="45.5328315" lon="11.5085861"><ele>34.0</ele><time>2026-05-03T09:24:24.084Z</time></trkpt><trkpt lat="45.532709" lon="11.5086586"><ele>33.5</ele><time>2026-05-03T09:24:25.083Z</time></trkpt><trkpt lat="45.5325871" lon="11.5087363"><ele>33.0</ele><time>2026-05-03T09:24:26.084Z</time></trkpt><trkpt lat="45.5324668" lon="11.5088151"><ele>33.0</ele><time>2026-05-03T09:24:27.084Z</time></trkpt><trkpt lat="45.5323467" lon="11.5088994"><ele>33.0</ele><time>2026-05-03T09:24:28.084Z</time></trkpt><trkpt lat="45.5322267" lon="11.5089832"><ele>33.0</ele><time>2026-05-03T09:24:29.084Z</time></trkpt><trkpt lat="45.5321012" lon="11.5090668"><ele>33.0</ele><time>2026-05-03T09:24:30.085Z</time></trkpt><trkpt lat="45.5319802" lon="11.509151"><ele>33.25</ele><time>2026-05-03T09:24:31.084Z</time></trkpt><trkpt lat="45.5318614" lon="11.5092384"><ele>33.5</ele><time>2026-05-03T09:24:32.083Z</time></trkpt><trkpt lat="45.5317401" lon="11.5093289"><ele>33.75</ele><time>2026-05-03T09:24:33.085Z</time></trkpt><trkpt lat="45.5316155" lon="11.509417"><ele>34.0</ele><time>2026-05-03T09:24:34.084Z</time></trkpt><trkpt lat="45.5314838" lon="11.5094968"><ele>34.0</ele><time>2026-05-03T09:24:35.084Z</time></trkpt><trkpt lat="45.5313461" lon="11.5095696"><ele>34.0</ele><time>2026-05-03T09:24:36.085Z</time></trkpt><trkpt lat="45.5312028" lon="11.5096351"><ele>34.0</ele><time>2026-05-03T09:24:37.084Z</time></trkpt><trkpt lat="45.531052" lon="11.5096899"><ele>32.333333333333336</ele><time>2026-05-03T09:24:38.085Z</time></trkpt><trkpt lat="45.5308934" lon="11.5097285"><ele>30.666666666666664</ele><time>2026-05-03T09:24:39.084Z</time></trkpt><trkpt lat="45.5307137" lon="11.5097526"><ele>29.0</ele><time>2026-05-03T09:24:40.084Z</time></trkpt><trkpt lat="45.530511" lon="11.5097473"><ele>29.333333333333332</ele><time>2026-05-03T09:24:41.084Z</time></trkpt><trkpt lat="45.5303033" lon="11.50971"><ele>29.666666666666664</ele><time>2026-05-03T09:24:42.084Z</time></trkpt><trkpt lat="45.530097" lon="11.5096547"><ele>30.0</ele><time>2026-05-03T09:24:43.085Z</time></trkpt><trkpt lat="45.5298941" lon="11.5095858"><ele>30.333333333333336</ele><time>2026-05-03T09:24:44.083Z</time></trkpt><trkpt lat="45.5296994" lon="11.5095135"><ele>30.666666666666668</ele><time>2026-05-03T09:24:45.084Z</time></trkpt><trkpt lat="45.529511" lon="11.5094439"><ele>31.0</ele><time>2026-05-03T09:24:46.083Z</time></trkpt><trkpt lat="45.5293306" lon="11.5093803"><ele>32.0</ele><time>2026-05-03T09:24:47.083Z</time></trkpt><trkpt lat="45.5291512" lon="11.5093119"><ele>33.0</ele><time>2026-05-03T09:24:48.085Z</time></trkpt><trkpt lat="45.5289659" lon="11.5092332"><ele>34.0</ele><time>2026-05-03T09:24:49.083Z</time></trkpt><trkpt lat="45.5287834" lon="11.5091432"><ele>33.333333333333336</ele><time>2026-05-03T09:24:50.084Z</time></trkpt><trkpt lat="45.5286021" lon="11.5090448"><ele>32.666666666666664</ele><time>2026-05-03T09:24:51.084Z</time></trkpt><trkpt lat="45.5284221" lon="11.5089491"><ele>32.0</ele><time>2026-05-03T09:24:52.084Z</time></trkpt><trkpt lat="45.5282378" lon="11.50886"><ele>32.0</ele><time>2026-05-03T09:24:53.084Z</time></trkpt><trkpt lat="45.5280567" lon="11.5087771"><ele>32.0</ele><time>2026-05-03T09:24:54.084Z</time></trkpt><trkpt lat="45.527874" lon="11.5087044"><ele>32.0</ele><time>2026-05-03T09:24:55.084Z</time></trkpt><trkpt lat="45.5277022" lon="11.5086445"><ele>31.666666666666664</ele><time>2026-05-03T09:24:56.084Z</time></trkpt><trkpt lat="45.5275393" lon="11.5085886"><ele>31.333333333333336</ele><time>2026-05-03T09:24:57.084Z</time></trkpt><trkpt lat="45.5273859" lon="11.5085318"><ele>31.0</ele><time>2026-05-03T09:24:58.085Z</time></trkpt><trkpt lat="45.5272403" lon="11.5084728"><ele>31.0</ele><time>2026-05-03T09:24:59.085Z</time></trkpt><trkpt lat="45.5271026" lon="11.5084238"><ele>31.0</ele><time>2026-05-03T09:25:00.085Z</time></trkpt><trkpt lat="45.5269741" lon="11.5083792"><ele>31.0</ele><time>2026-05-03T09:25:01.085Z</time></trkpt><trkpt lat="45.5268499" lon="11.5083355"><ele>31.0</ele><time>2026-05-03T09:25:02.084Z</time></trkpt><trkpt lat="45.5267288" lon="11.5082969"><ele>31.4</ele><time>2026-05-03T09:25:03.084Z</time></trkpt><trkpt lat="45.5266219" lon="11.5082596"><ele>31.8</ele><time>2026-05-03T09:25:04.084Z</time></trkpt><trkpt lat="45.5265281" lon="11.5082267"><ele>32.199999999999996</ele><time>2026-05-03T09:25:05.084Z</time></trkpt><trkpt lat="45.526454" lon="11.5081977"><ele>32.6</ele><time>2026-05-03T09:25:06.084Z</time></trkpt><trkpt lat="45.5263553" lon="11.5081595"><ele>33.0</ele><time>2026-05-03T09:25:08.084Z</time></trkpt><trkpt lat="45.5262924" lon="11.5081269"><ele>33.0</ele><time>2026-05-03T09:25:12.084Z</time></trkpt><trkpt lat="45.5262269" lon="11.5081007"><ele>33.0</ele><time>2026-05-03T09:25:17.084Z</time></trkpt><trkpt lat="45.5261608" lon="11.5080677"><ele>33.0</ele><time>2026-05-03T09:25:21.084Z</time></trkpt><trkpt lat="45.5260745" lon="11.5079879"><ele>33.0</ele><time>2026-05-03T09:25:23.084Z</time></trkpt><trkpt lat="45.5260147" lon="11.5079522"><ele>33.0</ele><time>2026-05-03T09:25:24.084Z</time></trkpt><trkpt lat="45.5259446" lon="11.5079413"><ele>33.0</ele><time>2026-05-03T09:25:25.085Z</time></trkpt><trkpt lat="45.525875" lon="11.5079632"><ele>33.0</ele><time>2026-05-03T09:25:26.083Z</time></trkpt><trkpt lat="45.5258119" lon="11.5080093"><ele>33.0</ele><time>2026-05-03T09:25:27.084Z</time></trkpt><trkpt lat="45.5257831" lon="11.5081058"><ele>33.0</ele><time>2026-05-03T09:25:28.083Z</time></trkpt><trkpt lat="45.5257525" lon="11.5081975"><ele>33.0</ele><time>2026-05-03T09:25:29.083Z</time></trkpt><trkpt lat="45.5257741" lon="11.5083203"><ele>33.0</ele><time>2026-05-03T09:25:30.083Z</time></trkpt><trkpt lat="45.5257832" lon="11.5084417"><ele>33.0</ele><time>2026-05-03T09:25:31.083Z</time></trkpt><trkpt lat="45.5257854" lon="11.5085753"><ele>33.0</ele><time>2026-05-03T09:25:32.083Z</time></trkpt><trkpt lat="45.5257767" lon="11.5087077"><ele>33.0</ele><time>2026-05-03T09:25:33.083Z</time></trkpt><trkpt lat="45.5257517" lon="11.5088498"><ele>33.0</ele><time>2026-05-03T09:25:34.083Z</time></trkpt><trkpt lat="45.5257216" lon="11.5089976"><ele>33.0</ele><time>2026-05-03T09:25:35.083Z</time></trkpt><trkpt lat="45.525691" lon="11.5091513"><ele>33.0</ele><time>2026-05-03T09:25:36.083Z</time></trkpt><trkpt lat="45.5256623" lon="11.5093104"><ele>33.0</ele><time>2026-05-03T09:25:37.083Z</time></trkpt><trkpt lat="45.5256324" lon="11.5094695"><ele>33.0</ele><time>2026-05-03T09:25:38.084Z</time></trkpt><trkpt lat="45.5256036" lon="11.5096291"><ele>33.0</ele><time>2026-05-03T09:25:39.083Z</time></trkpt><trkpt lat="45.5255768" lon="11.509777"><ele>33.0</ele><time>2026-05-03T09:25:40.083Z</time></trkpt><trkpt lat="45.5255554" lon="11.5099158"><ele>33.0</ele><time>2026-05-03T09:25:41.083Z</time></trkpt><trkpt lat="45.5255385" lon="11.5100423"><ele>33.0</ele><time>2026-05-03T09:25:42.083Z</time></trkpt><trkpt lat="45.5255217" lon="11.5101565"><ele>33.0</ele><time>2026-05-03T09:25:43.083Z</time></trkpt><trkpt lat="45.5254956" lon="11.5102591"><ele>33.0</ele><time>2026-05-03T09:25:44.083Z</time></trkpt><trkpt lat="45.5254513" lon="11.5103379"><ele>33.0</ele><time>2026-05-03T09:25:45.083Z</time></trkpt><trkpt lat="45.5253922" lon="11.5103857"><ele>33.0</ele><time>2026-05-03T09:25:46.083Z</time></trkpt><trkpt lat="45.5253151" lon="11.5103903"><ele>33.0</ele><time>2026-05-03T09:25:47.083Z</time></trkpt><trkpt lat="45.525231" lon="11.5103575"><ele>33.0</ele><time>2026-05-03T09:25:48.083Z</time></trkpt><trkpt lat="45.5251421" lon="11.510312"><ele>32.8</ele><time>2026-05-03T09:25:49.083Z</time></trkpt><trkpt lat="45.5250492" lon="11.5102656"><ele>32.599999999999994</ele><time>2026-05-03T09:25:50.084Z</time></trkpt><trkpt lat="45.5249543" lon="11.5102258"><ele>32.400000000000006</ele><time>2026-05-03T09:25:51.084Z</time></trkpt><trkpt lat="45.5248522" lon="11.510188"><ele>32.2</ele><time>2026-05-03T09:25:52.083Z</time></trkpt><trkpt lat="45.5247442" lon="11.5101491"><ele>32.0</ele><time>2026-05-03T09:25:53.084Z</time></trkpt><trkpt lat="45.5246316" lon="11.5101152"><ele>32.75</ele><time>2026-05-03T09:25:54.084Z</time></trkpt><trkpt lat="45.5245154" lon="11.5100796"><ele>33.5</ele><time>2026-05-03T09:25:55.084Z</time></trkpt><trkpt lat="45.5243901" lon="11.5100375"><ele>34.25</ele><time>2026-05-03T09:25:56.083Z</time></trkpt><trkpt lat="45.5242582" lon="11.5099904"><ele>35.0</ele><time>2026-05-03T09:25:57.083Z</time></trkpt><trkpt lat="45.5241205" lon="11.5099457"><ele>35.0</ele><time>2026-05-03T09:25:58.083Z</time></trkpt><trkpt lat="45.5239786" lon="11.5098995"><ele>35.0</ele><time>2026-05-03T09:25:59.083Z</time></trkpt><trkpt lat="45.5238318" lon="11.5098502"><ele>35.0</ele><time>2026-05-03T09:26:00.083Z</time></trkpt><trkpt lat="45.5236803" lon="11.5097975"><ele>35.0</ele><time>2026-05-03T09:26:01.083Z</time></trkpt><trkpt lat="45.5235279" lon="11.5097459"><ele>35.0</ele><time>2026-05-03T09:26:02.083Z</time></trkpt><trkpt lat="45.52337" lon="11.5096844"><ele>35.0</ele><time>2026-05-03T09:26:03.083Z</time></trkpt><trkpt lat="45.5232197" lon="11.5096188"><ele>34.666666666666664</ele><time>2026-05-03T09:26:04.083Z</time></trkpt><trkpt lat="45.5230735" lon="11.5095503"><ele>34.333333333333336</ele><time>2026-05-03T09:26:05.083Z</time></trkpt><trkpt lat="45.5229319" lon="11.5094848"><ele>34.0</ele><time>2026-05-03T09:26:06.083Z</time></trkpt><trkpt lat="45.5227923" lon="11.5094182"><ele>34.0</ele><time>2026-05-03T09:26:07.083Z</time></trkpt><trkpt lat="45.5226556" lon="11.5093528"><ele>34.0</ele><time>2026-05-03T09:26:08.083Z</time></trkpt><trkpt lat="45.522521" lon="11.5092907"><ele>34.0</ele><time>2026-05-03T09:26:09.083Z</time></trkpt><trkpt lat="45.522388" lon="11.5092271"><ele>34.0</ele><time>2026-05-03T09:26:10.083Z</time></trkpt><trkpt lat="45.5222549" lon="11.5091675"><ele>34.0</ele><time>2026-05-03T09:26:11.083Z</time></trkpt><trkpt lat="45.5221191" lon="11.509111"><ele>34.0</ele><time>2026-05-03T09:26:12.083Z</time></trkpt><trkpt lat="45.5219845" lon="11.5090636"><ele>34.0</ele><time>2026-05-03T09:26:13.083Z</time></trkpt><trkpt lat="45.5218484" lon="11.5090237"><ele>34.0</ele><time>2026-05-03T09:26:14.083Z</time></trkpt><trkpt lat="45.5217072" lon="11.5089857"><ele>34.0</ele><time>2026-05-03T09:26:15.083Z</time></trkpt><trkpt lat="45.5215642" lon="11.5089532"><ele>34.0</ele><time>2026-05-03T09:26:16.083Z</time></trkpt><trkpt lat="45.5214241" lon="11.508918"><ele>34.0</ele><time>2026-05-03T09:26:17.083Z</time></trkpt><trkpt lat="45.5212891" lon="11.5088781"><ele>34.0</ele><time>2026-05-03T09:26:18.083Z</time></trkpt><trkpt lat="45.5211531" lon="11.5088376"><ele>34.0</ele><time>2026-05-03T09:26:19.083Z</time></trkpt><trkpt lat="45.5210168" lon="11.5087969"><ele>34.0</ele><time>2026-05-03T09:26:20.083Z</time></trkpt><trkpt lat="45.5208793" lon="11.5087587"><ele>34.0</ele><time>2026-05-03T09:26:21.082Z</time></trkpt><trkpt lat="45.5207467" lon="11.5087194"><ele>34.0</ele><time>2026-05-03T09:26:22.083Z</time></trkpt><trkpt lat="45.5206131" lon="11.5086795"><ele>34.0</ele><time>2026-05-03T09:26:23.084Z</time></trkpt><trkpt lat="45.5204844" lon="11.508645"><ele>34.0</ele><time>2026-05-03T09:26:24.083Z</time></trkpt><trkpt lat="45.5203652" lon="11.508615"><ele>34.0</ele><time>2026-05-03T09:26:25.083Z</time></trkpt><trkpt lat="45.5202549" lon="11.5085882"><ele>34.0</ele><time>2026-05-03T09:26:26.083Z</time></trkpt><trkpt lat="45.5201482" lon="11.508572"><ele>33.833333333333336</ele><time>2026-05-03T09:26:27.083Z</time></trkpt><trkpt lat="45.520048" lon="11.5085817"><ele>33.66666666666667</ele><time>2026-05-03T09:26:28.084Z</time></trkpt><trkpt lat="45.5199615" lon="11.5086194"><ele>33.5</ele><time>2026-05-03T09:26:29.083Z</time></trkpt><trkpt lat="45.5198909" lon="11.508686"><ele>33.333333333333336</ele><time>2026-05-03T09:26:30.084Z</time></trkpt><trkpt lat="45.5198394" lon="11.5087802"><ele>33.166666666666664</ele><time>2026-05-03T09:26:31.083Z</time></trkpt><trkpt lat="45.5198029" lon="11.5088963"><ele>33.0</ele><time>2026-05-03T09:26:32.084Z</time></trkpt><trkpt lat="45.5197782" lon="11.5090248"><ele>33.0</ele><time>2026-05-03T09:26:33.083Z</time></trkpt><trkpt lat="45.5197591" lon="11.5091528"><ele>33.0</ele><time>2026-05-03T09:26:34.083Z</time></trkpt><trkpt lat="45.5197433" lon="11.5092765"><ele>33.0</ele><time>2026-05-03T09:26:35.084Z</time></trkpt><trkpt lat="45.5197284" lon="11.5094044"><ele>33.0</ele><time>2026-05-03T09:26:36.083Z</time></trkpt><trkpt lat="45.5197118" lon="11.5095307"><ele>33.0</ele><time>2026-05-03T09:26:37.083Z</time></trkpt><trkpt lat="45.5196938" lon="11.5096563"><ele>33.0</ele><time>2026-05-03T09:26:38.084Z</time></trkpt><trkpt lat="45.5196786" lon="11.5097795"><ele>33.0</ele><time>2026-05-03T09:26:39.084Z</time></trkpt><trkpt lat="45.5196635" lon="11.5098976"><ele>33.0</ele><time>2026-05-03T09:26:40.083Z</time></trkpt><trkpt lat="45.5196476" lon="11.5100189"><ele>33.0</ele><time>2026-05-03T09:26:41.083Z</time></trkpt><trkpt lat="45.5196341" lon="11.5101434"><ele>33.0</ele><time>2026-05-03T09:26:42.083Z</time></trkpt><trkpt lat="45.5196188" lon="11.5102739"><ele>33.0</ele><time>2026-05-03T09:26:43.084Z</time></trkpt><trkpt lat="45.5196032" lon="11.5104126"><ele>33.0</ele><time>2026-05-03T09:26:44.083Z</time></trkpt><trkpt lat="45.5195873" lon="11.5105564"><ele>33.0</ele><time>2026-05-03T09:26:45.083Z</time></trkpt><trkpt lat="45.5195735" lon="11.5107047"><ele>33.0</ele><time>2026-05-03T09:26:46.083Z</time></trkpt><trkpt lat="45.5195721" lon="11.5108518"><ele>33.0</ele><time>2026-05-03T09:26:47.083Z</time></trkpt><trkpt lat="45.5195919" lon="11.5109976"><ele>33.0</ele><time>2026-05-03T09:26:48.084Z</time></trkpt><trkpt lat="45.5196286" lon="11.5111356"><ele>32.8</ele><time>2026-05-03T09:26:49.083Z</time></trkpt><trkpt lat="45.5196877" lon="11.5112585"><ele>32.599999999999994</ele><time>2026-05-03T09:26:50.084Z</time></trkpt><trkpt lat="45.5197626" lon="11.5113622"><ele>32.400000000000006</ele><time>2026-05-03T09:26:51.084Z</time></trkpt><trkpt lat="45.5198541" lon="11.5114482"><ele>32.2</ele><time>2026-05-03T09:26:52.083Z</time></trkpt><trkpt lat="45.5199548" lon="11.5115265"><ele>32.0</ele><time>2026-05-03T09:26:53.084Z</time></trkpt><trkpt lat="45.5200649" lon="11.5115999"><ele>32.0</ele><time>2026-05-03T09:26:54.084Z</time></trkpt><trkpt lat="45.5201818" lon="11.5116716"><ele>32.0</ele><time>2026-05-03T09:26:55.083Z</time></trkpt><trkpt lat="45.5203047" lon="11.5117475"><ele>32.0</ele><time>2026-05-03T09:26:56.083Z</time></trkpt><trkpt lat="45.5204318" lon="11.5118223"><ele>32.0</ele><time>2026-05-03T09:26:57.084Z</time></trkpt><trkpt lat="45.5205617" lon="11.5119"><ele>32.0</ele><time>2026-05-03T09:26:58.083Z</time></trkpt><trkpt lat="45.520691" lon="11.5119797"><ele>32.0</ele><time>2026-05-03T09:26:59.083Z</time></trkpt><trkpt lat="45.5208192" lon="11.512062"><ele>32.0</ele><time>2026-05-03T09:27:00.083Z</time></trkpt><trkpt lat="45.520945" lon="11.512144"><ele>32.0</ele><time>2026-05-03T09:27:01.084Z</time></trkpt><trkpt lat="45.5210723" lon="11.5122293"><ele>32.0</ele><time>2026-05-03T09:27:02.083Z</time></trkpt><trkpt lat="45.5211962" lon="11.512314"><ele>32.0</ele><time>2026-05-03T09:27:03.084Z</time></trkpt><trkpt lat="45.5213166" lon="11.5124041"><ele>32.0</ele><time>2026-05-03T09:27:04.083Z</time></trkpt><trkpt lat="45.5214305" lon="11.5124911"><ele>32.0</ele><time>2026-05-03T09:27:05.083Z</time></trkpt><trkpt lat="45.5215392" lon="11.5125762"><ele>32.0</ele><time>2026-05-03T09:27:06.083Z</time></trkpt><trkpt lat="45.521644" lon="11.512657"><ele>32.0</ele><time>2026-05-03T09:27:07.083Z</time></trkpt><trkpt lat="45.5217392" lon="11.512726"><ele>32.0</ele><time>2026-05-03T09:27:08.083Z</time></trkpt><trkpt lat="45.5218212" lon="11.5127829"><ele>32.0</ele><time>2026-05-03T09:27:09.083Z</time></trkpt><trkpt lat="45.5218855" lon="11.5128295"><ele>32.0</ele><time>2026-05-03T09:27:10.083Z</time></trkpt><trkpt lat="45.5219683" lon="11.5129096"><ele>31.999999999999996</ele><time>2026-05-03T09:27:12.083Z</time></trkpt><trkpt lat="45.5220273" lon="11.5130501"><ele>32.0</ele><time>2026-05-03T09:27:14.083Z</time></trkpt><trkpt lat="45.5220393" lon="11.5131458"><ele>32.0</ele><time>2026-05-03T09:27:15.083Z</time></trkpt><trkpt lat="45.5220433" lon="11.5132587"><ele>32.0</ele><time>2026-05-03T09:27:16.084Z</time></trkpt><trkpt lat="45.5220448" lon="11.5133866"><ele>31.999999999999996</ele><time>2026-05-03T09:27:17.083Z</time></trkpt><trkpt lat="45.5220465" lon="11.5135199"><ele>32.0</ele><time>2026-05-03T09:27:18.083Z</time></trkpt><trkpt lat="45.5220482" lon="11.5136552"><ele>31.999999999999996</ele><time>2026-05-03T09:27:19.083Z</time></trkpt><trkpt lat="45.5220424" lon="11.513783"><ele>32.0</ele><time>2026-05-03T09:27:20.083Z</time></trkpt><trkpt lat="45.5220254" lon="11.5139024"><ele>32.0</ele><time>2026-05-03T09:27:21.083Z</time></trkpt><trkpt lat="45.5220013" lon="11.5140084"><ele>32.0</ele><time>2026-05-03T09:27:22.082Z</time></trkpt><trkpt lat="45.5219528" lon="11.5140912"><ele>31.999999999999996</ele><time>2026-05-03T09:27:23.084Z</time></trkpt><trkpt lat="45.5218999" lon="11.514152"><ele>32.0</ele><time>2026-05-03T09:27:24.083Z</time></trkpt><trkpt lat="45.5217671" lon="11.5141758"><ele>32.0</ele><time>2026-05-03T09:27:26.084Z</time></trkpt><trkpt lat="45.521686" lon="11.5141477"><ele>32.0</ele><time>2026-05-03T09:27:27.083Z</time></trkpt><trkpt lat="45.5215979" lon="11.5141042"><ele>32.0</ele><time>2026-05-03T09:27:28.083Z</time></trkpt><trkpt lat="45.5215012" lon="11.5140509"><ele>32.0</ele><time>2026-05-03T09:27:29.083Z</time></trkpt><trkpt lat="45.5213993" lon="11.5139917"><ele>32.0</ele><time>2026-05-03T09:27:30.083Z</time></trkpt><trkpt lat="45.5212903" lon="11.5139184"><ele>32.0</ele><time>2026-05-03T09:27:31.082Z</time></trkpt><trkpt lat="45.521174" lon="11.513841"><ele>32.0</ele><time>2026-05-03T09:27:32.082Z</time></trkpt><trkpt lat="45.5210524" lon="11.5137609"><ele>32.0</ele><time>2026-05-03T09:27:33.083Z</time></trkpt><trkpt lat="45.5209248" lon="11.5136795"><ele>32.0</ele><time>2026-05-03T09:27:34.083Z</time></trkpt><trkpt lat="45.5207862" lon="11.5135906"><ele>32.0</ele><time>2026-05-03T09:27:35.083Z</time></trkpt><trkpt lat="45.5206511" lon="11.5134946"><ele>32.0</ele><time>2026-05-03T09:27:36.083Z</time></trkpt><trkpt lat="45.5205153" lon="11.5133888"><ele>32.0</ele><time>2026-05-03T09:27:37.084Z</time></trkpt><trkpt lat="45.5203791" lon="11.5132802"><ele>32.33333333333333</ele><time>2026-05-03T09:27:38.084Z</time></trkpt><trkpt lat="45.5202451" lon="11.5131707"><ele>32.666666666666664</ele><time>2026-05-03T09:27:39.083Z</time></trkpt><trkpt lat="45.5201086" lon="11.5130595"><ele>33.0</ele><time>2026-05-03T09:27:40.083Z</time></trkpt><trkpt lat="45.519976" lon="11.5129506"><ele>32.75</ele><time>2026-05-03T09:27:41.084Z</time></trkpt><trkpt lat="45.5198477" lon="11.5128439"><ele>32.5</ele><time>2026-05-03T09:27:42.084Z</time></trkpt><trkpt lat="45.5197245" lon="11.5127536"><ele>32.25</ele><time>2026-05-03T09:27:43.083Z</time></trkpt><trkpt lat="45.519601" lon="11.5126957"><ele>32.0</ele><time>2026-05-03T09:27:44.083Z</time></trkpt><trkpt lat="45.5194718" lon="11.512668"><ele>31.75</ele><time>2026-05-03T09:27:45.083Z</time></trkpt><trkpt lat="45.5193386" lon="11.5126565"><ele>31.5</ele><time>2026-05-03T09:27:46.083Z</time></trkpt><trkpt lat="45.5192049" lon="11.5126368"><ele>31.25</ele><time>2026-05-03T09:27:47.083Z</time></trkpt><trkpt lat="45.5190824" lon="11.5125794"><ele>31.0</ele><time>2026-05-03T09:27:48.084Z</time></trkpt><trkpt lat="45.5189711" lon="11.5124759"><ele>31.0</ele><time>2026-05-03T09:27:49.083Z</time></trkpt><trkpt lat="45.5188714" lon="11.5123438"><ele>31.0</ele><time>2026-05-03T09:27:50.083Z</time></trkpt><trkpt lat="45.5187586" lon="11.5122173"><ele>31.0</ele><time>2026-05-03T09:27:51.084Z</time></trkpt><trkpt lat="45.5186296" lon="11.5121053"><ele>31.0</ele><time>2026-05-03T09:27:52.083Z</time></trkpt><trkpt lat="45.5184955" lon="11.5119997"><ele>31.0</ele><time>2026-05-03T09:27:53.083Z</time></trkpt><trkpt lat="45.5183574" lon="11.5118988"><ele>31.0</ele><time>2026-05-03T09:27:54.083Z</time></trkpt><trkpt lat="45.5182214" lon="11.511801"><ele>31.0</ele><time>2026-05-03T09:27:55.082Z</time></trkpt><trkpt lat="45.5180837" lon="11.5117019"><ele>31.0</ele><time>2026-05-03T09:27:56.083Z</time></trkpt><trkpt lat="45.5179326" lon="11.5116006"><ele>31.0</ele><time>2026-05-03T09:27:57.083Z</time></trkpt><trkpt lat="45.5177594" lon="11.5115093"><ele>31.0</ele><time>2026-05-03T09:27:58.082Z</time></trkpt><trkpt lat="45.5176312" lon="11.511404"><ele>30.75</ele><time>2026-05-03T09:27:59.083Z</time></trkpt><trkpt lat="45.5174885" lon="11.5113048"><ele>30.5</ele><time>2026-05-03T09:28:00.084Z</time></trkpt><trkpt lat="45.5173592" lon="11.5112113"><ele>30.25</ele><time>2026-05-03T09:28:01.084Z</time></trkpt><trkpt lat="45.5172364" lon="11.5111219"><ele>30.0</ele><time>2026-05-03T09:28:02.083Z</time></trkpt><trkpt lat="45.5171053" lon="11.5110322"><ele>30.5</ele><time>2026-05-03T09:28:03.083Z</time></trkpt><trkpt lat="45.5169757" lon="11.5109424"><ele>31.0</ele><time>2026-05-03T09:28:04.084Z</time></trkpt><trkpt lat="45.5168478" lon="11.5108516"><ele>31.5</ele><time>2026-05-03T09:28:05.083Z</time></trkpt><trkpt lat="45.5167224" lon="11.5107611"><ele>32.0</ele><time>2026-05-03T09:28:06.083Z</time></trkpt><trkpt lat="45.516594" lon="11.510674"><ele>32.0</ele><time>2026-05-03T09:28:07.083Z</time></trkpt><trkpt lat="45.516462" lon="11.5105883"><ele>32.0</ele><time>2026-05-03T09:28:08.083Z</time></trkpt><trkpt lat="45.5163293" lon="11.5104996"><ele>32.0</ele><time>2026-05-03T09:28:09.083Z</time></trkpt><trkpt lat="45.5161973" lon="11.5104072"><ele>32.0</ele><time>2026-05-03T09:28:10.083Z</time></trkpt><trkpt lat="45.5160702" lon="11.5103177"><ele>31.75</ele><time>2026-05-03T09:28:11.083Z</time></trkpt><trkpt lat="45.5159414" lon="11.5102294"><ele>31.5</ele><time>2026-05-03T09:28:12.083Z</time></trkpt><trkpt lat="45.5158139" lon="11.5101437"><ele>31.25</ele><time>2026-05-03T09:28:13.084Z</time></trkpt><trkpt lat="45.5156835" lon="11.5100589"><ele>31.0</ele><time>2026-05-03T09:28:14.083Z</time></trkpt><trkpt lat="45.5155592" lon="11.5099729"><ele>31.0</ele><time>2026-05-03T09:28:15.083Z</time></trkpt><trkpt lat="45.5154377" lon="11.5098907"><ele>31.0</ele><time>2026-05-03T09:28:16.083Z</time></trkpt><trkpt lat="45.5153194" lon="11.5098082"><ele>31.0</ele><time>2026-05-03T09:28:17.083Z</time></trkpt><trkpt lat="45.5151988" lon="11.5097252"><ele>31.0</ele><time>2026-05-03T09:28:18.083Z</time></trkpt><trkpt lat="45.5150797" lon="11.5096434"><ele>30.5</ele><time>2026-05-03T09:28:19.083Z</time></trkpt><trkpt lat="45.5149591" lon="11.5095625"><ele>30.0</ele><time>2026-05-03T09:28:20.083Z</time></trkpt><trkpt lat="45.5148395" lon="11.5094794"><ele>29.5</ele><time>2026-05-03T09:28:21.083Z</time></trkpt><trkpt lat="45.5147217" lon="11.5093981"><ele>29.0</ele><time>2026-05-03T09:28:22.083Z</time></trkpt><trkpt lat="45.514602" lon="11.5093159"><ele>30.0</ele><time>2026-05-03T09:28:23.083Z</time></trkpt><trkpt lat="45.5144826" lon="11.509232"><ele>31.0</ele><time>2026-05-03T09:28:24.083Z</time></trkpt><trkpt lat="45.514365" lon="11.5091493"><ele>32.0</ele><time>2026-05-03T09:28:25.083Z</time></trkpt><trkpt lat="45.5142503" lon="11.5090666"><ele>33.0</ele><time>2026-05-03T09:28:26.083Z</time></trkpt><trkpt lat="45.5141435" lon="11.5089926"><ele>33.0</ele><time>2026-05-03T09:28:27.083Z</time></trkpt><trkpt lat="45.5140373" lon="11.5089212"><ele>33.0</ele><time>2026-05-03T09:28:28.084Z</time></trkpt><trkpt lat="45.5139333" lon="11.5088506"><ele>33.0</ele><time>2026-05-03T09:28:29.084Z</time></trkpt><trkpt lat="45.513833" lon="11.5087831"><ele>33.0</ele><time>2026-05-03T09:28:30.083Z</time></trkpt><trkpt lat="45.5137289" lon="11.5087097"><ele>33.0</ele><time>2026-05-03T09:28:31.083Z</time></trkpt><trkpt lat="45.5136278" lon="11.5086351"><ele>33.0</ele><time>2026-05-03T09:28:32.084Z</time></trkpt><trkpt lat="45.5135238" lon="11.508558"><ele>33.0</ele><time>2026-05-03T09:28:33.084Z</time></trkpt><trkpt lat="45.5134204" lon="11.5084839"><ele>33.0</ele><time>2026-05-03T09:28:34.083Z</time></trkpt><trkpt lat="45.5133135" lon="11.5084132"><ele>33.0</ele><time>2026-05-03T09:28:35.083Z</time></trkpt><trkpt lat="45.5132046" lon="11.5083404"><ele>33.0</ele><time>2026-05-03T09:28:36.083Z</time></trkpt><trkpt lat="45.5130937" lon="11.5082655"><ele>33.0</ele><time>2026-05-03T09:28:37.083Z</time></trkpt><trkpt lat="45.5129826" lon="11.5081837"><ele>33.0</ele><time>2026-05-03T09:28:38.083Z</time></trkpt><trkpt lat="45.5128664" lon="11.5081054"><ele>33.0</ele><time>2026-05-03T09:28:39.083Z</time></trkpt><trkpt lat="45.5127471" lon="11.5080259"><ele>33.0</ele><time>2026-05-03T09:28:40.083Z</time></trkpt><trkpt lat="45.5126278" lon="11.5079483"><ele>33.0</ele><time>2026-05-03T09:28:41.083Z</time></trkpt><trkpt lat="45.5125084" lon="11.5078673"><ele>33.0</ele><time>2026-05-03T09:28:42.082Z</time></trkpt><trkpt lat="45.5123877" lon="11.5077851"><ele>33.0</ele><time>2026-05-03T09:28:43.083Z</time></trkpt><trkpt lat="45.5122647" lon="11.5077053"><ele>33.0</ele><time>2026-05-03T09:28:44.084Z</time></trkpt><trkpt lat="45.5121411" lon="11.5076212"><ele>33.0</ele><time>2026-05-03T09:28:45.083Z</time></trkpt><trkpt lat="45.512022" lon="11.5075412"><ele>33.0</ele><time>2026-05-03T09:28:46.083Z</time></trkpt><trkpt lat="45.5119044" lon="11.507463"><ele>33.25</ele><time>2026-05-03T09:28:47.083Z</time></trkpt><trkpt lat="45.5117841" lon="11.5073852"><ele>33.5</ele><time>2026-05-03T09:28:48.083Z</time></trkpt><trkpt lat="45.511664" lon="11.507309"><ele>33.75</ele><time>2026-05-03T09:28:49.083Z</time></trkpt><trkpt lat="45.5115399" lon="11.5072425"><ele>34.0</ele><time>2026-05-03T09:28:50.084Z</time></trkpt><trkpt lat="45.5114159" lon="11.5071791"><ele>34.0</ele><time>2026-05-03T09:28:51.083Z</time></trkpt><trkpt lat="45.5112914" lon="11.5071159"><ele>34.0</ele><time>2026-05-03T09:28:52.083Z</time></trkpt><trkpt lat="45.5111669" lon="11.5070536"><ele>34.0</ele><time>2026-05-03T09:28:53.083Z</time></trkpt><trkpt lat="45.5110445" lon="11.5069939"><ele>34.0</ele><time>2026-05-03T09:28:54.084Z</time></trkpt><trkpt lat="45.5109235" lon="11.5069383"><ele>34.0</ele><time>2026-05-03T09:28:55.084Z</time></trkpt><trkpt lat="45.5108044" lon="11.5068824"><ele>34.0</ele><time>2026-05-03T09:28:56.083Z</time></trkpt><trkpt lat="45.5106841" lon="11.5068271"><ele>34.0</ele><time>2026-05-03T09:28:57.083Z</time></trkpt><trkpt lat="45.5105662" lon="11.5067636"><ele>34.0</ele><time>2026-05-03T09:28:58.083Z</time></trkpt><trkpt lat="45.5104456" lon="11.5067014"><ele>34.5</ele><time>2026-05-03T09:28:59.084Z</time></trkpt><trkpt lat="45.5103228" lon="11.5066438"><ele>35.0</ele><time>2026-05-03T09:29:00.083Z</time></trkpt><trkpt lat="45.5102002" lon="11.5065903"><ele>35.5</ele><time>2026-05-03T09:29:01.083Z</time></trkpt><trkpt lat="45.5100758" lon="11.5065407"><ele>36.0</ele><time>2026-05-03T09:29:02.083Z</time></trkpt><trkpt lat="45.5099514" lon="11.5064955"><ele>36.0</ele><time>2026-05-03T09:29:03.083Z</time></trkpt><trkpt lat="45.5098272" lon="11.5064528"><ele>36.0</ele><time>2026-05-03T09:29:04.083Z</time></trkpt><trkpt lat="45.5097044" lon="11.5064137"><ele>36.0</ele><time>2026-05-03T09:29:05.083Z</time></trkpt><trkpt lat="45.5095823" lon="11.506385"><ele>36.0</ele><time>2026-05-03T09:29:06.084Z</time></trkpt><trkpt lat="45.5094575" lon="11.5063703"><ele>35.75</ele><time>2026-05-03T09:29:07.083Z</time></trkpt><trkpt lat="45.5093372" lon="11.5063527"><ele>35.5</ele><time>2026-05-03T09:29:08.083Z</time></trkpt><trkpt lat="45.5092182" lon="11.506328"><ele>35.25</ele><time>2026-05-03T09:29:09.084Z</time></trkpt><trkpt lat="45.5091001" lon="11.5062982"><ele>35.0</ele><time>2026-05-03T09:29:10.082Z</time></trkpt><trkpt lat="45.5089821" lon="11.5062641"><ele>40.5</ele><time>2026-05-03T09:29:11.083Z</time></trkpt><trkpt lat="45.5088605" lon="11.5062246"><ele>46.0</ele><time>2026-05-03T09:29:12.083Z</time></trkpt><trkpt lat="45.5087364" lon="11.5061832"><ele>51.5</ele><time>2026-05-03T09:29:13.083Z</time></trkpt><trkpt lat="45.5086095" lon="11.5061464"><ele>57.0</ele><time>2026-05-03T09:29:14.083Z</time></trkpt><trkpt lat="45.5084797" lon="11.5061083"><ele>57.0</ele><time>2026-05-03T09:29:15.084Z</time></trkpt><trkpt lat="45.5083477" lon="11.5060674"><ele>57.0</ele><time>2026-05-03T09:29:16.083Z</time></trkpt><trkpt lat="45.5082107" lon="11.5060223"><ele>57.0</ele><time>2026-05-03T09:29:17.083Z</time></trkpt><trkpt lat="45.5080691" lon="11.5059701"><ele>57.0</ele><time>2026-05-03T09:29:18.083Z</time></trkpt><trkpt lat="45.5079339" lon="11.5059267"><ele>54.5</ele><time>2026-05-03T09:29:19.083Z</time></trkpt><trkpt lat="45.5077955" lon="11.5058779"><ele>52.0</ele><time>2026-05-03T09:29:20.084Z</time></trkpt><trkpt lat="45.5076592" lon="11.5058293"><ele>49.5</ele><time>2026-05-03T09:29:21.083Z</time></trkpt><trkpt lat="45.5075256" lon="11.5057872"><ele>47.0</ele><time>2026-05-03T09:29:22.083Z</time></trkpt><trkpt lat="45.5073913" lon="11.5057483"><ele>47.0</ele><time>2026-05-03T09:29:23.084Z</time></trkpt><trkpt lat="45.5072555" lon="11.5057156"><ele>47.0</ele><time>2026-05-03T09:29:24.083Z</time></trkpt><trkpt lat="45.5071203" lon="11.5056989"><ele>47.0</ele><time>2026-05-03T09:29:25.084Z</time></trkpt><trkpt lat="45.5069808" lon="11.5056869"><ele>47.0</ele><time>2026-05-03T09:29:26.083Z</time></trkpt><trkpt lat="45.5068391" lon="11.5056791"><ele>46.5</ele><time>2026-05-03T09:29:27.084Z</time></trkpt><trkpt lat="45.5066973" lon="11.5056743"><ele>46.0</ele><time>2026-05-03T09:29:28.083Z</time></trkpt><trkpt lat="45.5065543" lon="11.5056696"><ele>45.5</ele><time>2026-05-03T09:29:29.084Z</time></trkpt><trkpt lat="45.5064173" lon="11.505668"><ele>45.0</ele><time>2026-05-03T09:29:30.084Z</time></trkpt><trkpt lat="45.506288" lon="11.5056696"><ele>45.25</ele><time>2026-05-03T09:29:31.083Z</time></trkpt><trkpt lat="45.5061556" lon="11.5056694"><ele>45.5</ele><time>2026-05-03T09:29:32.083Z</time></trkpt><trkpt lat="45.5060257" lon="11.5056772"><ele>45.75</ele><time>2026-05-03T09:29:33.083Z</time></trkpt><trkpt lat="45.5058993" lon="11.5056775"><ele>46.0</ele><time>2026-05-03T09:29:34.082Z</time></trkpt><trkpt lat="45.5057803" lon="11.5056681"><ele>46.0</ele><time>2026-05-03T09:29:35.083Z</time></trkpt><trkpt lat="45.5056599" lon="11.5056609"><ele>46.0</ele><time>2026-05-03T09:29:36.084Z</time></trkpt><trkpt lat="45.5055393" lon="11.5056538"><ele>46.0</ele><time>2026-05-03T09:29:37.083Z</time></trkpt><trkpt lat="45.5054174" lon="11.5056448"><ele>46.0</ele><time>2026-05-03T09:29:38.083Z</time></trkpt><trkpt lat="45.5052954" lon="11.5056367"><ele>45.0</ele><time>2026-05-03T09:29:39.083Z</time></trkpt><trkpt lat="45.5051769" lon="11.505634"><ele>44.0</ele><time>2026-05-03T09:29:40.083Z</time></trkpt><trkpt lat="45.505059" lon="11.5056299"><ele>43.0</ele><time>2026-05-03T09:29:41.083Z</time></trkpt><trkpt lat="45.5049431" lon="11.5056307"><ele>42.0</ele><time>2026-05-03T09:29:42.084Z</time></trkpt><trkpt lat="45.5048309" lon="11.5056393"><ele>42.0</ele><time>2026-05-03T09:29:43.083Z</time></trkpt><trkpt lat="45.5047178" lon="11.505641"><ele>42.0</ele><time>2026-05-03T09:29:44.084Z</time></trkpt><trkpt lat="45.5046023" lon="11.5056197"><ele>42.0</ele><time>2026-05-03T09:29:45.083Z</time></trkpt><trkpt lat="45.5044814" lon="11.5055761"><ele>42.0</ele><time>2026-05-03T09:29:46.083Z</time></trkpt><trkpt lat="45.504356" lon="11.5055182"><ele>40.75</ele><time>2026-05-03T09:29:47.084Z</time></trkpt><trkpt lat="45.5042281" lon="11.5054489"><ele>39.5</ele><time>2026-05-03T09:29:48.083Z</time></trkpt><trkpt lat="45.5041036" lon="11.5053827"><ele>38.25</ele><time>2026-05-03T09:29:49.083Z</time></trkpt><trkpt lat="45.5039786" lon="11.505317"><ele>37.0</ele><time>2026-05-03T09:29:50.084Z</time></trkpt><trkpt lat="45.5038574" lon="11.5052475"><ele>41.75</ele><time>2026-05-03T09:29:51.083Z</time></trkpt><trkpt lat="45.5037337" lon="11.5051819"><ele>46.5</ele><time>2026-05-03T09:29:52.083Z</time></trkpt><trkpt lat="45.50361" lon="11.5051224"><ele>51.25</ele><time>2026-05-03T09:29:53.083Z</time></trkpt><trkpt lat="45.5034922" lon="11.5050652"><ele>56.0</ele><time>2026-05-03T09:29:54.083Z</time></trkpt><trkpt lat="45.5033825" lon="11.5050035"><ele>56.0</ele><time>2026-05-03T09:29:55.084Z</time></trkpt><trkpt lat="45.5032821" lon="11.5049472"><ele>55.99999999999999</ele><time>2026-05-03T09:29:56.083Z</time></trkpt><trkpt lat="45.5031836" lon="11.5048947"><ele>55.99999999999999</ele><time>2026-05-03T09:29:57.083Z</time></trkpt><trkpt lat="45.5030807" lon="11.5048455"><ele>56.0</ele><time>2026-05-03T09:29:58.084Z</time></trkpt><trkpt lat="45.5029817" lon="11.5047978"><ele>56.0</ele><time>2026-05-03T09:29:59.084Z</time></trkpt><trkpt lat="45.502898" lon="11.5047304"><ele>55.00000000000001</ele><time>2026-05-03T09:30:00.083Z</time></trkpt><trkpt lat="45.5028336" lon="11.5046373"><ele>54.0</ele><time>2026-05-03T09:30:01.083Z</time></trkpt><trkpt lat="45.502802" lon="11.504532"><ele>53.0</ele><time>2026-05-03T09:30:02.083Z</time></trkpt><trkpt lat="45.5028074" lon="11.5044223"><ele>52.0</ele><time>2026-05-03T09:30:03.083Z</time></trkpt><trkpt lat="45.5028447" lon="11.5043177"><ele>51.00000000000001</ele><time>2026-05-03T09:30:04.084Z</time></trkpt><trkpt lat="45.5029029" lon="11.5042213"><ele>50.0</ele><time>2026-05-03T09:30:05.083Z</time></trkpt><trkpt lat="45.5029706" lon="11.5041126"><ele>54.5</ele><time>2026-05-03T09:30:06.083Z</time></trkpt><trkpt lat="45.5030485" lon="11.5039935"><ele>59.0</ele><time>2026-05-03T09:30:07.083Z</time></trkpt><trkpt lat="45.503132" lon="11.5038594"><ele>63.5</ele><time>2026-05-03T09:30:08.083Z</time></trkpt><trkpt lat="45.5032222" lon="11.5037075"><ele>68.0</ele><time>2026-05-03T09:30:09.083Z</time></trkpt><trkpt lat="45.5033103" lon="11.5035439"><ele>68.0</ele><time>2026-05-03T09:30:10.083Z</time></trkpt><trkpt lat="45.5033905" lon="11.5033747"><ele>68.0</ele><time>2026-05-03T09:30:11.084Z</time></trkpt><trkpt lat="45.5034642" lon="11.5032042"><ele>68.0</ele><time>2026-05-03T09:30:12.083Z</time></trkpt><trkpt lat="45.5035382" lon="11.5030369"><ele>68.0</ele><time>2026-05-03T09:30:13.084Z</time></trkpt><trkpt lat="45.5036152" lon="11.50288"><ele>68.5</ele><time>2026-05-03T09:30:14.083Z</time></trkpt><trkpt lat="45.5037012" lon="11.5027297"><ele>69.0</ele><time>2026-05-03T09:30:15.083Z</time></trkpt><trkpt lat="45.5037977" lon="11.5025852"><ele>69.5</ele><time>2026-05-03T09:30:16.083Z</time></trkpt><trkpt lat="45.5038992" lon="11.5024538"><ele>70.0</ele><time>2026-05-03T09:30:17.083Z</time></trkpt><trkpt lat="45.5039988" lon="11.5023187"><ele>75.0</ele><time>2026-05-03T09:30:18.084Z</time></trkpt><trkpt lat="45.5041022" lon="11.5021908"><ele>80.0</ele><time>2026-05-03T09:30:19.084Z</time></trkpt><trkpt lat="45.504205" lon="11.5020743"><ele>85.0</ele><time>2026-05-03T09:30:20.083Z</time></trkpt><trkpt lat="45.5042957" lon="11.5019633"><ele>90.0</ele><time>2026-05-03T09:30:21.083Z</time></trkpt><trkpt lat="45.5043677" lon="11.5018481"><ele>90.6</ele><time>2026-05-03T09:30:22.083Z</time></trkpt><trkpt lat="45.5043991" lon="11.5017272"><ele>91.2</ele><time>2026-05-03T09:30:23.083Z</time></trkpt><trkpt lat="45.5043851" lon="11.5016112"><ele>91.80000000000001</ele><time>2026-05-03T09:30:24.083Z</time></trkpt><trkpt lat="45.5043255" lon="11.5015112"><ele>92.4</ele><time>2026-05-03T09:30:25.082Z</time></trkpt><trkpt lat="45.5042322" lon="11.5014363"><ele>93.0</ele><time>2026-05-03T09:30:26.084Z</time></trkpt><trkpt lat="45.5041225" lon="11.5013842"><ele>93.0</ele><time>2026-05-03T09:30:27.082Z</time></trkpt><trkpt lat="45.5040061" lon="11.5013354"><ele>93.0</ele><time>2026-05-03T09:30:28.083Z</time></trkpt><trkpt lat="45.5038916" lon="11.5012866"><ele>93.0</ele><time>2026-05-03T09:30:29.084Z</time></trkpt><trkpt lat="45.5037798" lon="11.5012289"><ele>93.0</ele><time>2026-05-03T09:30:30.084Z</time></trkpt><trkpt lat="45.5036756" lon="11.5011444"><ele>94.60000000000001</ele><time>2026-05-03T09:30:31.083Z</time></trkpt><trkpt lat="45.5035797" lon="11.5010327"><ele>96.2</ele><time>2026-05-03T09:30:32.084Z</time></trkpt><trkpt lat="45.5035015" lon="11.5009162"><ele>97.8</ele><time>2026-05-03T09:30:33.084Z</time></trkpt><trkpt lat="45.5034514" lon="11.5008057"><ele>99.4</ele><time>2026-05-03T09:30:34.083Z</time></trkpt><trkpt lat="45.5034327" lon="11.5006806"><ele>101.0</ele><time>2026-05-03T09:30:35.084Z</time></trkpt><trkpt lat="45.5034464" lon="11.5005418"><ele>101.8</ele><time>2026-05-03T09:30:36.083Z</time></trkpt><trkpt lat="45.503489" lon="11.5004033"><ele>102.6</ele><time>2026-05-03T09:30:37.084Z</time></trkpt><trkpt lat="45.5035363" lon="11.5002655"><ele>103.4</ele><time>2026-05-03T09:30:38.083Z</time></trkpt><trkpt lat="45.5035884" lon="11.5001366"><ele>104.2</ele><time>2026-05-03T09:30:39.083Z</time></trkpt><trkpt lat="45.5036551" lon="11.5000238"><ele>105.0</ele><time>2026-05-03T09:30:40.084Z</time></trkpt><trkpt lat="45.5037343" lon="11.4999255"><ele>107.75</ele><time>2026-05-03T09:30:41.083Z</time></trkpt><trkpt lat="45.50383" lon="11.4998343"><ele>110.5</ele><time>2026-05-03T09:30:42.083Z</time></trkpt><trkpt lat="45.5039318" lon="11.4997425"><ele>113.25</ele><time>2026-05-03T09:30:43.083Z</time></trkpt><trkpt lat="45.504035" lon="11.4996508"><ele>116.0</ele><time>2026-05-03T09:30:44.083Z</time></trkpt><trkpt lat="45.5041384" lon="11.4995694"><ele>117.6</ele><time>2026-05-03T09:30:45.083Z</time></trkpt><trkpt lat="45.5042316" lon="11.4994888"><ele>119.19999999999999</ele><time>2026-05-03T09:30:46.083Z</time></trkpt><trkpt lat="45.5043067" lon="11.4993985"><ele>120.80000000000001</ele><time>2026-05-03T09:30:47.083Z</time></trkpt><trkpt lat="45.504357" lon="11.4992895"><ele>122.4</ele><time>2026-05-03T09:30:48.083Z</time></trkpt><trkpt lat="45.504371" lon="11.4991624"><ele>124.0</ele><time>2026-05-03T09:30:49.084Z</time></trkpt><trkpt lat="45.5043465" lon="11.4990223"><ele>124.0</ele><time>2026-05-03T09:30:50.083Z</time></trkpt><trkpt lat="45.5042977" lon="11.4988803"><ele>124.0</ele><time>2026-05-03T09:30:51.083Z</time></trkpt><trkpt lat="45.5042235" lon="11.4987458"><ele>124.0</ele><time>2026-05-03T09:30:52.082Z</time></trkpt><trkpt lat="45.5041363" lon="11.4986182"><ele>124.0</ele><time>2026-05-03T09:30:53.083Z</time></trkpt><trkpt lat="45.5040464" lon="11.4985065"><ele>125.4</ele><time>2026-05-03T09:30:54.084Z</time></trkpt><trkpt lat="45.5039705" lon="11.4983912"><ele>126.80000000000001</ele><time>2026-05-03T09:30:55.083Z</time></trkpt><trkpt lat="45.5039087" lon="11.4982642"><ele>128.2</ele><time>2026-05-03T09:30:56.083Z</time></trkpt><trkpt lat="45.5038634" lon="11.4981328"><ele>129.6</ele><time>2026-05-03T09:30:57.083Z</time></trkpt><trkpt lat="45.5038669" lon="11.4979738"><ele>131.0</ele><time>2026-05-03T09:30:58.083Z</time></trkpt><trkpt lat="45.5038964" lon="11.4978312"><ele>131.0</ele><time>2026-05-03T09:30:59.083Z</time></trkpt><trkpt lat="45.5039517" lon="11.4977079"><ele>131.0</ele><time>2026-05-03T09:31:00.083Z</time></trkpt><trkpt lat="45.504029" lon="11.4976032"><ele>131.0</ele><time>2026-05-03T09:31:01.084Z</time></trkpt><trkpt lat="45.504125" lon="11.4975173"><ele>131.0</ele><time>2026-05-03T09:31:02.083Z</time></trkpt><trkpt lat="45.5042339" lon="11.4974493"><ele>131.0</ele><time>2026-05-03T09:31:03.083Z</time></trkpt><trkpt lat="45.5043566" lon="11.4974002"><ele>131.0</ele><time>2026-05-03T09:31:04.083Z</time></trkpt><trkpt lat="45.5044874" lon="11.4973631"><ele>131.0</ele><time>2026-05-03T09:31:05.083Z</time></trkpt><trkpt lat="45.5046188" lon="11.4973357"><ele>131.0</ele><time>2026-05-03T09:31:06.083Z</time></trkpt><trkpt lat="45.5047512" lon="11.4973116"><ele>131.0</ele><time>2026-05-03T09:31:07.083Z</time></trkpt><trkpt lat="45.5048802" lon="11.4972761"><ele>131.0</ele><time>2026-05-03T09:31:08.083Z</time></trkpt><trkpt lat="45.5049987" lon="11.497205"><ele>131.0</ele><time>2026-05-03T09:31:09.082Z</time></trkpt><trkpt lat="45.5051067" lon="11.4970841"><ele>131.0</ele><time>2026-05-03T09:31:10.083Z</time></trkpt><trkpt lat="45.5052034" lon="11.4969439"><ele>131.0</ele><time>2026-05-03T09:31:11.083Z</time></trkpt><trkpt lat="45.5052873" lon="11.4968068"><ele>131.0</ele><time>2026-05-03T09:31:12.083Z</time></trkpt><trkpt lat="45.5053547" lon="11.4966662"><ele>131.0</ele><time>2026-05-03T09:31:13.083Z</time></trkpt><trkpt lat="45.5053959" lon="11.4965161"><ele>131.0</ele><time>2026-05-03T09:31:14.083Z</time></trkpt><trkpt lat="45.5054105" lon="11.4963523"><ele>131.0</ele><time>2026-05-03T09:31:15.083Z</time></trkpt><trkpt lat="45.5054023" lon="11.4961799"><ele>131.0</ele><time>2026-05-03T09:31:16.083Z</time></trkpt><trkpt lat="45.5053759" lon="11.4960058"><ele>131.0</ele><time>2026-05-03T09:31:17.083Z</time></trkpt><trkpt lat="45.5053426" lon="11.4958392"><ele>131.0</ele><time>2026-05-03T09:31:18.083Z</time></trkpt><trkpt lat="45.5053109" lon="11.4956865"><ele>131.0</ele><time>2026-05-03T09:31:19.083Z</time></trkpt><trkpt lat="45.5052838" lon="11.4955518"><ele>131.0</ele><time>2026-05-03T09:31:20.083Z</time></trkpt><trkpt lat="45.5052684" lon="11.4954343"><ele>131.0</ele><time>2026-05-03T09:31:21.083Z</time></trkpt><trkpt lat="45.5052532" lon="11.4953357"><ele>131.0</ele><time>2026-05-03T09:31:22.083Z</time></trkpt><trkpt lat="45.5052277" lon="11.4952151"><ele>131.0</ele><time>2026-05-03T09:31:24.083Z</time></trkpt><trkpt lat="45.5051774" lon="11.4950978"><ele>131.0</ele><time>2026-05-03T09:31:45.083Z</time></trkpt><trkpt lat="45.5051087" lon="11.4949496"><ele>131.2</ele><time>2026-05-03T09:31:47.083Z</time></trkpt><trkpt lat="45.5050659" lon="11.4948595"><ele>131.39999999999998</ele><time>2026-05-03T09:31:48.083Z</time></trkpt><trkpt lat="45.5050177" lon="11.4947617"><ele>131.6</ele><time>2026-05-03T09:31:49.084Z</time></trkpt><trkpt lat="45.5049565" lon="11.4946601"><ele>131.79999999999998</ele><time>2026-05-03T09:31:50.084Z</time></trkpt><trkpt lat="45.5048868" lon="11.4945587"><ele>132.0</ele><time>2026-05-03T09:31:51.083Z</time></trkpt><trkpt lat="45.504815" lon="11.494467"><ele>132.0</ele><time>2026-05-03T09:31:52.083Z</time></trkpt><trkpt lat="45.5047454" lon="11.4943812"><ele>132.0</ele><time>2026-05-03T09:31:53.083Z</time></trkpt><trkpt lat="45.5046773" lon="11.4942952"><ele>132.0</ele><time>2026-05-03T09:31:54.083Z</time></trkpt><trkpt lat="45.504607" lon="11.4942114"><ele>132.0</ele><time>2026-05-03T09:31:55.083Z</time></trkpt><trkpt lat="45.5045359" lon="11.4941217"><ele>132.0</ele><time>2026-05-03T09:31:56.083Z</time></trkpt><trkpt lat="45.5044679" lon="11.4940184"><ele>132.6</ele><time>2026-05-03T09:31:57.083Z</time></trkpt><trkpt lat="45.504407" lon="11.493901"><ele>133.2</ele><time>2026-05-03T09:31:58.083Z</time></trkpt><trkpt lat="45.5043524" lon="11.493771"><ele>133.8</ele><time>2026-05-03T09:31:59.083Z</time></trkpt><trkpt lat="45.5043017" lon="11.4936507"><ele>134.4</ele><time>2026-05-03T09:32:00.083Z</time></trkpt><trkpt lat="45.5042345" lon="11.4935584"><ele>135.0</ele><time>2026-05-03T09:32:01.083Z</time></trkpt><trkpt lat="45.5041511" lon="11.4934898"><ele>136.2</ele><time>2026-05-03T09:32:02.083Z</time></trkpt><trkpt lat="45.5040597" lon="11.4934368"><ele>137.4</ele><time>2026-05-03T09:32:03.083Z</time></trkpt><trkpt lat="45.5039564" lon="11.4933927"><ele>138.6</ele><time>2026-05-03T09:32:04.083Z</time></trkpt><trkpt lat="45.5038456" lon="11.4933575"><ele>139.8</ele><time>2026-05-03T09:32:05.083Z</time></trkpt><trkpt lat="45.5037254" lon="11.4933251"><ele>141.0</ele><time>2026-05-03T09:32:06.083Z</time></trkpt><trkpt lat="45.5036041" lon="11.4932887"><ele>141.0</ele><time>2026-05-03T09:32:07.083Z</time></trkpt><trkpt lat="45.5034796" lon="11.4932524"><ele>141.0</ele><time>2026-05-03T09:32:08.082Z</time></trkpt><trkpt lat="45.5033599" lon="11.4932163"><ele>141.0</ele><time>2026-05-03T09:32:09.082Z</time></trkpt><trkpt lat="45.5032433" lon="11.493182"><ele>141.0</ele><time>2026-05-03T09:32:10.084Z</time></trkpt><trkpt lat="45.5031284" lon="11.4931531"><ele>141.0</ele><time>2026-05-03T09:32:11.083Z</time></trkpt><trkpt lat="45.5030182" lon="11.4931254"><ele>141.0</ele><time>2026-05-03T09:32:12.083Z</time></trkpt><trkpt lat="45.5029097" lon="11.4930968"><ele>141.0</ele><time>2026-05-03T09:32:13.083Z</time></trkpt><trkpt lat="45.5028188" lon="11.4930668"><ele>141.0</ele><time>2026-05-03T09:32:14.083Z</time></trkpt><trkpt lat="45.502729" lon="11.4930172"><ele>141.0</ele><time>2026-05-03T09:32:15.083Z</time></trkpt><trkpt lat="45.5026474" lon="11.4929427"><ele>140.4</ele><time>2026-05-03T09:32:16.082Z</time></trkpt><trkpt lat="45.5025739" lon="11.4928499"><ele>139.8</ele><time>2026-05-03T09:32:17.083Z</time></trkpt><trkpt lat="45.502516" lon="11.492734"><ele>139.20000000000002</ele><time>2026-05-03T09:32:18.083Z</time></trkpt><trkpt lat="45.5024937" lon="11.4926087"><ele>138.6</ele><time>2026-05-03T09:32:19.083Z</time></trkpt><trkpt lat="45.5024881" lon="11.4924812"><ele>138.0</ele><time>2026-05-03T09:32:20.083Z</time></trkpt><trkpt lat="45.502484" lon="11.492356"><ele>138.0</ele><time>2026-05-03T09:32:21.083Z</time></trkpt><trkpt lat="45.5024814" lon="11.4922307"><ele>138.0</ele><time>2026-05-03T09:32:22.083Z</time></trkpt><trkpt lat="45.5024765" lon="11.4921027"><ele>138.0</ele><time>2026-05-03T09:32:23.084Z</time></trkpt><trkpt lat="45.5024781" lon="11.4919744"><ele>138.0</ele><time>2026-05-03T09:32:24.084Z</time></trkpt><trkpt lat="45.5024887" lon="11.4918645"><ele>138.0</ele><time>2026-05-03T09:32:25.084Z</time></trkpt><trkpt lat="45.5024556" lon="11.4917217"><ele>137.6</ele><time>2026-05-03T09:32:27.084Z</time></trkpt><trkpt lat="45.5023468" lon="11.491705"><ele>137.20000000000002</ele><time>2026-05-03T09:32:29.083Z</time></trkpt><trkpt lat="45.5022715" lon="11.4917329"><ele>136.8</ele><time>2026-05-03T09:32:30.082Z</time></trkpt><trkpt lat="45.5021867" lon="11.4917649"><ele>136.4</ele><time>2026-05-03T09:32:31.083Z</time></trkpt><trkpt lat="45.5020948" lon="11.4917947"><ele>136.0</ele><time>2026-05-03T09:32:32.083Z</time></trkpt><trkpt lat="45.5019936" lon="11.4918105"><ele>136.0</ele><time>2026-05-03T09:32:33.083Z</time></trkpt><trkpt lat="45.5018843" lon="11.4918031"><ele>136.0</ele><time>2026-05-03T09:32:34.083Z</time></trkpt><trkpt lat="45.5017749" lon="11.4917688"><ele>136.0</ele><time>2026-05-03T09:32:35.083Z</time></trkpt><trkpt lat="45.5016632" lon="11.4917145"><ele>136.0</ele><time>2026-05-03T09:32:36.083Z</time></trkpt><trkpt lat="45.5015564" lon="11.4916349"><ele>136.0</ele><time>2026-05-03T09:32:37.084Z</time></trkpt><trkpt lat="45.501454" lon="11.4915368"><ele>136.0</ele><time>2026-05-03T09:32:38.084Z</time></trkpt><trkpt lat="45.5013641" lon="11.4914233"><ele>136.0</ele><time>2026-05-03T09:32:39.083Z</time></trkpt><trkpt lat="45.5012782" lon="11.4912921"><ele>136.0</ele><time>2026-05-03T09:32:40.083Z</time></trkpt><trkpt lat="45.5012016" lon="11.4911482"><ele>134.2</ele><time>2026-05-03T09:32:41.083Z</time></trkpt><trkpt lat="45.5011337" lon="11.4909974"><ele>132.39999999999998</ele><time>2026-05-03T09:32:42.083Z</time></trkpt><trkpt lat="45.5010855" lon="11.4908425"><ele>130.6</ele><time>2026-05-03T09:32:43.083Z</time></trkpt><trkpt lat="45.5010658" lon="11.4906943"><ele>128.79999999999998</ele><time>2026-05-03T09:32:44.083Z</time></trkpt><trkpt lat="45.5010746" lon="11.4905543"><ele>127.0</ele><time>2026-05-03T09:32:45.083Z</time></trkpt><trkpt lat="45.5011108" lon="11.4904262"><ele>127.0</ele><time>2026-05-03T09:32:46.083Z</time></trkpt><trkpt lat="45.5011712" lon="11.4903069"><ele>126.99999999999999</ele><time>2026-05-03T09:32:47.083Z</time></trkpt><trkpt lat="45.501244" lon="11.4902021"><ele>126.99999999999999</ele><time>2026-05-03T09:32:48.083Z</time></trkpt><trkpt lat="45.5013202" lon="11.4901038"><ele>127.0</ele><time>2026-05-03T09:32:49.083Z</time></trkpt><trkpt lat="45.501403" lon="11.4900142"><ele>127.0</ele><time>2026-05-03T09:32:50.083Z</time></trkpt><trkpt lat="45.501494" lon="11.48994"><ele>128.5</ele><time>2026-05-03T09:32:51.083Z</time></trkpt><trkpt lat="45.5015988" lon="11.4898721"><ele>130.0</ele><time>2026-05-03T09:32:52.083Z</time></trkpt><trkpt lat="45.5017134" lon="11.4897982"><ele>131.5</ele><time>2026-05-03T09:32:53.083Z</time></trkpt><trkpt lat="45.501829" lon="11.4897098"><ele>133.0</ele><time>2026-05-03T09:32:54.083Z</time></trkpt><trkpt lat="45.5019522" lon="11.4896055"><ele>128.0</ele><time>2026-05-03T09:32:55.083Z</time></trkpt><trkpt lat="45.5020776" lon="11.4894882"><ele>123.0</ele><time>2026-05-03T09:32:56.083Z</time></trkpt><trkpt lat="45.5022086" lon="11.4893581"><ele>118.0</ele><time>2026-05-03T09:32:57.084Z</time></trkpt><trkpt lat="45.5023397" lon="11.4892233"><ele>118.0</ele><time>2026-05-03T09:32:58.083Z</time></trkpt><trkpt lat="45.5024674" lon="11.4890919"><ele>118.0</ele><time>2026-05-03T09:32:59.083Z</time></trkpt><trkpt lat="45.5025959" lon="11.4889621"><ele>118.0</ele><time>2026-05-03T09:33:00.083Z</time></trkpt><trkpt lat="45.5027154" lon="11.4888186"><ele>115.75</ele><time>2026-05-03T09:33:01.083Z</time></trkpt><trkpt lat="45.5028255" lon="11.4886713"><ele>113.5</ele><time>2026-05-03T09:33:02.083Z</time></trkpt><trkpt lat="45.5029228" lon="11.4885312"><ele>111.25</ele><time>2026-05-03T09:33:03.083Z</time></trkpt><trkpt lat="45.5030141" lon="11.4884045"><ele>109.0</ele><time>2026-05-03T09:33:04.083Z</time></trkpt><trkpt lat="45.503121" lon="11.4882967"><ele>109.0</ele><time>2026-05-03T09:33:05.083Z</time></trkpt><trkpt lat="45.5032478" lon="11.48825"><ele>109.0</ele><time>2026-05-03T09:33:06.083Z</time></trkpt><trkpt lat="45.503386" lon="11.4882193"><ele>109.0</ele><time>2026-05-03T09:33:07.083Z</time></trkpt><trkpt lat="45.5035361" lon="11.4881808"><ele>109.0</ele><time>2026-05-03T09:33:08.084Z</time></trkpt><trkpt lat="45.5036846" lon="11.4881371"><ele>107.5</ele><time>2026-05-03T09:33:09.083Z</time></trkpt><trkpt lat="45.5038254" lon="11.4880217"><ele>106.0</ele><time>2026-05-03T09:33:10.083Z</time></trkpt><trkpt lat="45.5039594" lon="11.4879382"><ele>104.5</ele><time>2026-05-03T09:33:11.084Z</time></trkpt><trkpt lat="45.504072" lon="11.4878497"><ele>103.0</ele><time>2026-05-03T09:33:12.084Z</time></trkpt><trkpt lat="45.5041714" lon="11.4877708"><ele>100.80000000000001</ele><time>2026-05-03T09:33:13.083Z</time></trkpt><trkpt lat="45.5042416" lon="11.4876823"><ele>98.6</ele><time>2026-05-03T09:33:14.083Z</time></trkpt><trkpt lat="45.5042718" lon="11.4875702"><ele>96.4</ele><time>2026-05-03T09:33:15.083Z</time></trkpt><trkpt lat="45.5042609" lon="11.4874472"><ele>94.19999999999999</ele><time>2026-05-03T09:33:16.083Z</time></trkpt><trkpt lat="45.5042067" lon="11.4873361"><ele>92.0</ele><time>2026-05-03T09:33:17.083Z</time></trkpt><trkpt lat="45.5041252" lon="11.4872429"><ele>92.0</ele><time>2026-05-03T09:33:18.083Z</time></trkpt><trkpt lat="45.5040282" lon="11.4871603"><ele>92.0</ele><time>2026-05-03T09:33:19.083Z</time></trkpt><trkpt lat="45.5039196" lon="11.4870923"><ele>92.0</ele><time>2026-05-03T09:33:20.083Z</time></trkpt><trkpt lat="45.5038021" lon="11.4870494"><ele>92.0</ele><time>2026-05-03T09:33:21.083Z</time></trkpt><trkpt lat="45.503662" lon="11.4870661"><ele>92.0</ele><time>2026-05-03T09:33:22.083Z</time></trkpt><trkpt lat="45.5035341" lon="11.4870768"><ele>92.0</ele><time>2026-05-03T09:33:23.083Z</time></trkpt><trkpt lat="45.503418" lon="11.4870898"><ele>92.0</ele><time>2026-05-03T09:33:24.083Z</time></trkpt><trkpt lat="45.5033146" lon="11.4871147"><ele>92.0</ele><time>2026-05-03T09:33:25.084Z</time></trkpt><trkpt lat="45.5032305" lon="11.487134"><ele>92.0</ele><time>2026-05-03T09:33:26.083Z</time></trkpt><trkpt lat="45.5031607" lon="11.4871216"><ele>89.33333333333334</ele><time>2026-05-03T09:33:27.083Z</time></trkpt><trkpt lat="45.5031077" lon="11.4870656"><ele>86.66666666666667</ele><time>2026-05-03T09:33:28.083Z</time></trkpt><trkpt lat="45.5030856" lon="11.4869811"><ele>84.0</ele><time>2026-05-03T09:33:29.084Z</time></trkpt><trkpt lat="45.5031006" lon="11.4868803"><ele>81.33333333333333</ele><time>2026-05-03T09:33:30.084Z</time></trkpt><trkpt lat="45.5031504" lon="11.4867783"><ele>78.66666666666666</ele><time>2026-05-03T09:33:31.083Z</time></trkpt><trkpt lat="45.5032369" lon="11.4866831"><ele>76.0</ele><time>2026-05-03T09:33:32.083Z</time></trkpt><trkpt lat="45.5033505" lon="11.4865888"><ele>76.0</ele><time>2026-05-03T09:33:33.083Z</time></trkpt><trkpt lat="45.5034813" lon="11.4864905"><ele>76.0</ele><time>2026-05-03T09:33:34.084Z</time></trkpt><trkpt lat="45.5036283" lon="11.4863941"><ele>76.0</ele><time>2026-05-03T09:33:35.083Z</time></trkpt><trkpt lat="45.5037829" lon="11.4862913"><ele>72.66666666666666</ele><time>2026-05-03T09:33:36.084Z</time></trkpt><trkpt lat="45.5039356" lon="11.4862007"><ele>69.33333333333333</ele><time>2026-05-03T09:33:37.083Z</time></trkpt><trkpt lat="45.5040783" lon="11.4861152"><ele>66.0</ele><time>2026-05-03T09:33:38.084Z</time></trkpt><trkpt lat="45.5042182" lon="11.4860257"><ele>66.0</ele><time>2026-05-03T09:33:39.083Z</time></trkpt><trkpt lat="45.5043546" lon="11.4859326"><ele>66.0</ele><time>2026-05-03T09:33:40.083Z</time></trkpt><trkpt lat="45.5044712" lon="11.4858165"><ele>66.0</ele><time>2026-05-03T09:33:41.083Z</time></trkpt><trkpt lat="45.5045741" lon="11.485686"><ele>66.0</ele><time>2026-05-03T09:33:42.084Z</time></trkpt><trkpt lat="45.504672" lon="11.4855497"><ele>61.0</ele><time>2026-05-03T09:33:43.083Z</time></trkpt><trkpt lat="45.5047723" lon="11.4854233"><ele>56.0</ele><time>2026-05-03T09:33:44.084Z</time></trkpt><trkpt lat="45.5048736" lon="11.4853268"><ele>51.0</ele><time>2026-05-03T09:33:45.082Z</time></trkpt><trkpt lat="45.5049704" lon="11.485252"><ele>46.0</ele><time>2026-05-03T09:33:46.083Z</time></trkpt><trkpt lat="45.5050625" lon="11.4851986"><ele>46.0</ele><time>2026-05-03T09:33:47.083Z</time></trkpt><trkpt lat="45.505148" lon="11.4851931"><ele>46.0</ele><time>2026-05-03T09:33:48.083Z</time></trkpt><trkpt lat="45.5052154" lon="11.4852389"><ele>46.0</ele><time>2026-05-03T09:33:49.083Z</time></trkpt><trkpt lat="45.5052631" lon="11.4853314"><ele>46.0</ele><time>2026-05-03T09:33:50.083Z</time></trkpt><trkpt lat="45.505286" lon="11.4854558"><ele>46.0</ele><time>2026-05-03T09:33:51.083Z</time></trkpt><trkpt lat="45.5052806" lon="11.4856042"><ele>46.0</ele><time>2026-05-03T09:33:52.083Z</time></trkpt><trkpt lat="45.5052581" lon="11.4857653"><ele>49.0</ele><time>2026-05-03T09:33:53.084Z</time></trkpt><trkpt lat="45.5052538" lon="11.4859451"><ele>52.0</ele><time>2026-05-03T09:33:54.083Z</time></trkpt><trkpt lat="45.5052733" lon="11.4861325"><ele>55.0</ele><time>2026-05-03T09:33:55.083Z</time></trkpt><trkpt lat="45.5053137" lon="11.4863212"><ele>58.0</ele><time>2026-05-03T09:33:56.083Z</time></trkpt><trkpt lat="45.5053689" lon="11.4865067"><ele>59.75</ele><time>2026-05-03T09:33:57.084Z</time></trkpt><trkpt lat="45.505425" lon="11.4866858"><ele>61.5</ele><time>2026-05-03T09:33:58.084Z</time></trkpt><trkpt lat="45.5054761" lon="11.4868583"><ele>63.25</ele><time>2026-05-03T09:33:59.083Z</time></trkpt><trkpt lat="45.5055244" lon="11.4870143"><ele>65.0</ele><time>2026-05-03T09:34:00.084Z</time></trkpt><trkpt lat="45.5055805" lon="11.4871379"><ele>65.0</ele><time>2026-05-03T09:34:01.083Z</time></trkpt><trkpt lat="45.5056645" lon="11.4872114"><ele>65.0</ele><time>2026-05-03T09:34:02.082Z</time></trkpt><trkpt lat="45.5057586" lon="11.4872259"><ele>65.0</ele><time>2026-05-03T09:34:03.084Z</time></trkpt><trkpt lat="45.5058533" lon="11.4871953"><ele>65.0</ele><time>2026-05-03T09:34:04.083Z</time></trkpt><trkpt lat="45.5059546" lon="11.4871384"><ele>65.0</ele><time>2026-05-03T09:34:05.082Z</time></trkpt><trkpt lat="45.5060638" lon="11.4870694"><ele>61.0</ele><time>2026-05-03T09:34:06.083Z</time></trkpt><trkpt lat="45.5061794" lon="11.4869978"><ele>57.0</ele><time>2026-05-03T09:34:07.083Z</time></trkpt><trkpt lat="45.5062973" lon="11.4869264"><ele>53.0</ele><time>2026-05-03T09:34:08.083Z</time></trkpt><trkpt lat="45.506405" lon="11.4868574"><ele>49.0</ele><time>2026-05-03T09:34:09.083Z</time></trkpt><trkpt lat="45.5065025" lon="11.4867963"><ele>48.0</ele><time>2026-05-03T09:34:10.083Z</time></trkpt><trkpt lat="45.5065917" lon="11.4867426"><ele>47.0</ele><time>2026-05-03T09:34:11.083Z</time></trkpt><trkpt lat="45.5066625" lon="11.486705"><ele>46.0</ele><time>2026-05-03T09:34:12.083Z</time></trkpt><trkpt lat="45.5067537" lon="11.4866616"><ele>45.0</ele><time>2026-05-03T09:34:14.083Z</time></trkpt><trkpt lat="45.5068153" lon="11.4866096"><ele>44.0</ele><time>2026-05-03T09:34:16.083Z</time></trkpt><trkpt lat="45.5068528" lon="11.4864618"><ele>44.0</ele><time>2026-05-03T09:34:18.083Z</time></trkpt><trkpt lat="45.5068487" lon="11.4863507"><ele>44.0</ele><time>2026-05-03T09:34:19.084Z</time></trkpt><trkpt lat="45.506838" lon="11.4862128"><ele>44.0</ele><time>2026-05-03T09:34:20.084Z</time></trkpt><trkpt lat="45.5068188" lon="11.4860541"><ele>44.0</ele><time>2026-05-03T09:34:21.084Z</time></trkpt><trkpt lat="45.5067814" lon="11.4858852"><ele>44.0</ele><time>2026-05-03T09:34:22.083Z</time></trkpt><trkpt lat="45.5067245" lon="11.4857151"><ele>42.0</ele><time>2026-05-03T09:34:23.084Z</time></trkpt><trkpt lat="45.506655" lon="11.485554"><ele>40.0</ele><time>2026-05-03T09:34:24.083Z</time></trkpt><trkpt lat="45.5065811" lon="11.4854029"><ele>38.0</ele><time>2026-05-03T09:34:25.083Z</time></trkpt><trkpt lat="45.5065049" lon="11.4852653"><ele>36.0</ele><time>2026-05-03T09:34:26.083Z</time></trkpt><trkpt lat="45.5064297" lon="11.4851468"><ele>35.5</ele><time>2026-05-03T09:34:27.083Z</time></trkpt><trkpt lat="45.5063652" lon="11.4850442"><ele>35.0</ele><time>2026-05-03T09:34:28.083Z</time></trkpt><trkpt lat="45.5063176" lon="11.484944"><ele>34.5</ele><time>2026-05-03T09:34:29.083Z</time></trkpt><trkpt lat="45.5063076" lon="11.4848536"><ele>34.0</ele><time>2026-05-03T09:34:30.083Z</time></trkpt><trkpt lat="45.5063789" lon="11.4847172"><ele>33.5</ele><time>2026-05-03T09:34:32.083Z</time></trkpt><trkpt lat="45.5064582" lon="11.4846769"><ele>33.0</ele><time>2026-05-03T09:34:33.083Z</time></trkpt><trkpt lat="45.5065546" lon="11.4846316"><ele>33.0</ele><time>2026-05-03T09:34:34.083Z</time></trkpt><trkpt lat="45.5066652" lon="11.4845598"><ele>33.0</ele><time>2026-05-03T09:34:35.083Z</time></trkpt><trkpt lat="45.5067866" lon="11.4844815"><ele>33.0</ele><time>2026-05-03T09:34:36.083Z</time></trkpt><trkpt lat="45.5069128" lon="11.484396"><ele>33.0</ele><time>2026-05-03T09:34:37.083Z</time></trkpt><trkpt lat="45.5070399" lon="11.4843031"><ele>33.333333333333336</ele><time>2026-05-03T09:34:38.084Z</time></trkpt><trkpt lat="45.5071727" lon="11.4842079"><ele>33.66666666666667</ele><time>2026-05-03T09:34:39.083Z</time></trkpt><trkpt lat="45.5073109" lon="11.4841114"><ele>34.0</ele><time>2026-05-03T09:34:40.082Z</time></trkpt><trkpt lat="45.5074526" lon="11.4840147"><ele>34.0</ele><time>2026-05-03T09:34:41.082Z</time></trkpt><trkpt lat="45.5075954" lon="11.483919"><ele>34.0</ele><time>2026-05-03T09:34:42.083Z</time></trkpt><trkpt lat="45.5077366" lon="11.4838226"><ele>34.0</ele><time>2026-05-03T09:34:43.083Z</time></trkpt><trkpt lat="45.5078736" lon="11.4837299"><ele>33.5</ele><time>2026-05-03T09:34:44.083Z</time></trkpt><trkpt lat="45.5080078" lon="11.4836436"><ele>33.0</ele><time>2026-05-03T09:34:45.082Z</time></trkpt><trkpt lat="45.5081395" lon="11.4835619"><ele>32.5</ele><time>2026-05-03T09:34:46.082Z</time></trkpt><trkpt lat="45.5082662" lon="11.4834813"><ele>32.0</ele><time>2026-05-03T09:34:47.083Z</time></trkpt><trkpt lat="45.5083853" lon="11.4834024"><ele>32.0</ele><time>2026-05-03T09:34:48.084Z</time></trkpt><trkpt lat="45.5085023" lon="11.4833133"><ele>32.0</ele><time>2026-05-03T09:34:49.083Z</time></trkpt><trkpt lat="45.5086147" lon="11.4832096"><ele>32.0</ele><time>2026-05-03T09:34:50.083Z</time></trkpt><trkpt lat="45.5087226" lon="11.4830935"><ele>32.0</ele><time>2026-05-03T09:34:51.083Z</time></trkpt><trkpt lat="45.5088261" lon="11.4829673"><ele>33.0</ele><time>2026-05-03T09:34:52.083Z</time></trkpt><trkpt lat="45.5089294" lon="11.4828408"><ele>34.0</ele><time>2026-05-03T09:34:53.084Z</time></trkpt><trkpt lat="45.5090328" lon="11.4827194"><ele>35.0</ele><time>2026-05-03T09:34:54.084Z</time></trkpt><trkpt lat="45.5091271" lon="11.4826037"><ele>36.0</ele><time>2026-05-03T09:34:55.083Z</time></trkpt><trkpt lat="45.5092102" lon="11.4824822"><ele>36.0</ele><time>2026-05-03T09:34:56.083Z</time></trkpt><trkpt lat="45.5092695" lon="11.4823356"><ele>36.0</ele><time>2026-05-03T09:34:57.083Z</time></trkpt><trkpt lat="45.5093048" lon="11.4821729"><ele>36.0</ele><time>2026-05-03T09:34:58.083Z</time></trkpt><trkpt lat="45.5093057" lon="11.481999"><ele>36.0</ele><time>2026-05-03T09:34:59.083Z</time></trkpt><trkpt lat="45.5092813" lon="11.4818204"><ele>36.5</ele><time>2026-05-03T09:35:00.083Z</time></trkpt><trkpt lat="45.5092496" lon="11.4816395"><ele>37.0</ele><time>2026-05-03T09:35:01.084Z</time></trkpt><trkpt lat="45.5092208" lon="11.4814565"><ele>37.5</ele><time>2026-05-03T09:35:02.084Z</time></trkpt><trkpt lat="45.5091953" lon="11.481273"><ele>38.0</ele><time>2026-05-03T09:35:03.082Z</time></trkpt><trkpt lat="45.5091784" lon="11.4810879"><ele>38.25</ele><time>2026-05-03T09:35:04.083Z</time></trkpt><trkpt lat="45.5091779" lon="11.4808966"><ele>38.5</ele><time>2026-05-03T09:35:05.083Z</time></trkpt><trkpt lat="45.5091959" lon="11.4807056"><ele>38.75</ele><time>2026-05-03T09:35:06.084Z</time></trkpt><trkpt lat="45.5092293" lon="11.4805112"><ele>39.0</ele><time>2026-05-03T09:35:07.083Z</time></trkpt><trkpt lat="45.509272" lon="11.4803144"><ele>39.0</ele><time>2026-05-03T09:35:08.084Z</time></trkpt><trkpt lat="45.5093227" lon="11.4801181"><ele>39.0</ele><time>2026-05-03T09:35:09.084Z</time></trkpt><trkpt lat="45.5093742" lon="11.4799249"><ele>39.0</ele><time>2026-05-03T09:35:10.083Z</time></trkpt><trkpt lat="45.509421" lon="11.4797342"><ele>39.0</ele><time>2026-05-03T09:35:11.084Z</time></trkpt><trkpt lat="45.5094651" lon="11.4795529"><ele>38.5</ele><time>2026-05-03T09:35:12.084Z</time></trkpt><trkpt lat="45.5094993" lon="11.4793669"><ele>38.0</ele><time>2026-05-03T09:35:13.084Z</time></trkpt><trkpt lat="45.5095235" lon="11.4791775"><ele>37.5</ele><time>2026-05-03T09:35:14.084Z</time></trkpt><trkpt lat="45.50954" lon="11.4789813"><ele>37.0</ele><time>2026-05-03T09:35:15.084Z</time></trkpt><trkpt lat="45.5095469" lon="11.4787798"><ele>37.0</ele><time>2026-05-03T09:35:16.083Z</time></trkpt><trkpt lat="45.5095417" lon="11.4785821"><ele>37.0</ele><time>2026-05-03T09:35:17.083Z</time></trkpt><trkpt lat="45.5095214" lon="11.4783835"><ele>37.0</ele><time>2026-05-03T09:35:18.082Z</time></trkpt><trkpt lat="45.5094796" lon="11.4781847"><ele>37.0</ele><time>2026-05-03T09:35:19.083Z</time></trkpt><trkpt lat="45.5094251" lon="11.47799"><ele>37.0</ele><time>2026-05-03T09:35:20.084Z</time></trkpt><trkpt lat="45.5093623" lon="11.4777972"><ele>37.0</ele><time>2026-05-03T09:35:21.084Z</time></trkpt><trkpt lat="45.509293" lon="11.4776008"><ele>37.0</ele><time>2026-05-03T09:35:22.083Z</time></trkpt><trkpt lat="45.5092223" lon="11.4774072"><ele>37.0</ele><time>2026-05-03T09:35:23.083Z</time></trkpt><trkpt lat="45.5091534" lon="11.4772167"><ele>37.0</ele><time>2026-05-03T09:35:24.083Z</time></trkpt><trkpt lat="45.5090844" lon="11.4770184"><ele>37.0</ele><time>2026-05-03T09:35:25.083Z</time></trkpt><trkpt lat="45.5090137" lon="11.4768224"><ele>37.333333333333336</ele><time>2026-05-03T09:35:26.083Z</time></trkpt><trkpt lat="45.5089448" lon="11.4766245"><ele>37.666666666666664</ele><time>2026-05-03T09:35:27.083Z</time></trkpt><trkpt lat="45.5088747" lon="11.4764226"><ele>38.0</ele><time>2026-05-03T09:35:28.083Z</time></trkpt><trkpt lat="45.5088029" lon="11.4762242"><ele>38.0</ele><time>2026-05-03T09:35:29.084Z</time></trkpt><trkpt lat="45.5087289" lon="11.4760286"><ele>38.0</ele><time>2026-05-03T09:35:30.083Z</time></trkpt><trkpt lat="45.508655" lon="11.4758322"><ele>38.0</ele><time>2026-05-03T09:35:31.083Z</time></trkpt><trkpt lat="45.5085793" lon="11.4756342"><ele>38.0</ele><time>2026-05-03T09:35:32.084Z</time></trkpt><trkpt lat="45.5085015" lon="11.4754311"><ele>38.0</ele><time>2026-05-03T09:35:33.083Z</time></trkpt><trkpt lat="45.5084225" lon="11.4752228"><ele>38.0</ele><time>2026-05-03T09:35:34.084Z</time></trkpt><trkpt lat="45.5083426" lon="11.4750081"><ele>38.0</ele><time>2026-05-03T09:35:35.083Z</time></trkpt><trkpt lat="45.5082618" lon="11.4747951"><ele>38.0</ele><time>2026-05-03T09:35:36.084Z</time></trkpt><trkpt lat="45.5081823" lon="11.4745857"><ele>38.0</ele><time>2026-05-03T09:35:37.083Z</time></trkpt><trkpt lat="45.5081126" lon="11.4743908"><ele>38.0</ele><time>2026-05-03T09:35:38.083Z</time></trkpt><trkpt lat="45.5080406" lon="11.474205"><ele>38.0</ele><time>2026-05-03T09:35:39.084Z</time></trkpt><trkpt lat="45.5079729" lon="11.4740309"><ele>38.0</ele><time>2026-05-03T09:35:40.083Z</time></trkpt><trkpt lat="45.5079111" lon="11.4738646"><ele>38.0</ele><time>2026-05-03T09:35:41.084Z</time></trkpt><trkpt lat="45.5078583" lon="11.4737125"><ele>38.4</ele><time>2026-05-03T09:35:42.083Z</time></trkpt><trkpt lat="45.5078088" lon="11.4735841"><ele>38.8</ele><time>2026-05-03T09:35:43.084Z</time></trkpt><trkpt lat="45.5077677" lon="11.4734663"><ele>39.2</ele><time>2026-05-03T09:35:44.084Z</time></trkpt><trkpt lat="45.5077344" lon="11.4733765"><ele>39.6</ele><time>2026-05-03T09:35:45.083Z</time></trkpt><trkpt lat="45.5076941" lon="11.4732285"><ele>40.0</ele><time>2026-05-03T09:35:47.083Z</time></trkpt><trkpt lat="45.5076375" lon="11.4731272"><ele>40.0</ele><time>2026-05-03T09:35:49.083Z</time></trkpt><trkpt lat="45.5075429" lon="11.4731544"><ele>40.0</ele><time>2026-05-03T09:35:51.083Z</time></trkpt><trkpt lat="45.5074854" lon="11.4731976"><ele>40.0</ele><time>2026-05-03T09:35:52.083Z</time></trkpt><trkpt lat="45.5074235" lon="11.4732539"><ele>40.0</ele><time>2026-05-03T09:35:53.083Z</time></trkpt><trkpt lat="45.507357" lon="11.4733113"><ele>40.0</ele><time>2026-05-03T09:35:54.083Z</time></trkpt><trkpt lat="45.5072881" lon="11.4733707"><ele>40.0</ele><time>2026-05-03T09:35:55.083Z</time></trkpt><trkpt lat="45.5072128" lon="11.4734298"><ele>40.0</ele><time>2026-05-03T09:35:56.084Z</time></trkpt><trkpt lat="45.507128" lon="11.4734853"><ele>40.0</ele><time>2026-05-03T09:35:57.083Z</time></trkpt><trkpt lat="45.5070349" lon="11.47354"><ele>40.0</ele><time>2026-05-03T09:35:58.083Z</time></trkpt><trkpt lat="45.5069375" lon="11.4736085"><ele>40.0</ele><time>2026-05-03T09:35:59.083Z</time></trkpt><trkpt lat="45.5068402" lon="11.4736837"><ele>40.0</ele><time>2026-05-03T09:36:00.083Z</time></trkpt><trkpt lat="45.5067406" lon="11.473761"><ele>39.75</ele><time>2026-05-03T09:36:01.083Z</time></trkpt><trkpt lat="45.5066453" lon="11.4738496"><ele>39.5</ele><time>2026-05-03T09:36:02.083Z</time></trkpt><trkpt lat="45.506552" lon="11.4739474"><ele>39.25</ele><time>2026-05-03T09:36:03.083Z</time></trkpt><trkpt lat="45.5064576" lon="11.4740474"><ele>39.0</ele><time>2026-05-03T09:36:04.083Z</time></trkpt><trkpt lat="45.5063613" lon="11.4741512"><ele>39.0</ele><time>2026-05-03T09:36:05.084Z</time></trkpt><trkpt lat="45.5062621" lon="11.4742545"><ele>39.0</ele><time>2026-05-03T09:36:06.083Z</time></trkpt><trkpt lat="45.5061619" lon="11.4743626"><ele>39.0</ele><time>2026-05-03T09:36:07.083Z</time></trkpt><trkpt lat="45.5060675" lon="11.4744816"><ele>39.0</ele><time>2026-05-03T09:36:08.083Z</time></trkpt><trkpt lat="45.5059871" lon="11.4746182"><ele>38.25</ele><time>2026-05-03T09:36:09.083Z</time></trkpt><trkpt lat="45.5059196" lon="11.4747621"><ele>37.5</ele><time>2026-05-03T09:36:10.084Z</time></trkpt><trkpt lat="45.5058562" lon="11.4749056"><ele>36.75</ele><time>2026-05-03T09:36:11.084Z</time></trkpt><trkpt lat="45.5057932" lon="11.4750428"><ele>36.0</ele><time>2026-05-03T09:36:12.083Z</time></trkpt><trkpt lat="45.5057198" lon="11.4751741"><ele>36.0</ele><time>2026-05-03T09:36:13.083Z</time></trkpt><trkpt lat="45.5056344" lon="11.4752953"><ele>36.0</ele><time>2026-05-03T09:36:14.083Z</time></trkpt><trkpt lat="45.5055385" lon="11.4753984"><ele>36.0</ele><time>2026-05-03T09:36:15.083Z</time></trkpt><trkpt lat="45.5054332" lon="11.4754847"><ele>36.0</ele><time>2026-05-03T09:36:16.083Z</time></trkpt><trkpt lat="45.5053244" lon="11.4755633"><ele>36.6</ele><time>2026-05-03T09:36:17.083Z</time></trkpt><trkpt lat="45.5052154" lon="11.4756399"><ele>37.2</ele><time>2026-05-03T09:36:18.084Z</time></trkpt><trkpt lat="45.505109" lon="11.4757104"><ele>37.8</ele><time>2026-05-03T09:36:19.083Z</time></trkpt><trkpt lat="45.5050135" lon="11.4757721"><ele>38.4</ele><time>2026-05-03T09:36:20.084Z</time></trkpt><trkpt lat="45.5049327" lon="11.4758222"><ele>39.0</ele><time>2026-05-03T09:36:21.083Z</time></trkpt><trkpt lat="45.5048606" lon="11.4758653"><ele>39.0</ele><time>2026-05-03T09:36:22.084Z</time></trkpt><trkpt lat="45.5047903" lon="11.4759044"><ele>39.0</ele><time>2026-05-03T09:36:23.083Z</time></trkpt><trkpt lat="45.5047207" lon="11.475948"><ele>39.0</ele><time>2026-05-03T09:36:24.082Z</time></trkpt><trkpt lat="45.5046385" lon="11.4759844"><ele>39.0</ele><time>2026-05-03T09:36:25.083Z</time></trkpt><trkpt lat="45.5045445" lon="11.4760022"><ele>39.0</ele><time>2026-05-03T09:36:26.083Z</time></trkpt><trkpt lat="45.5044358" lon="11.4760147"><ele>39.0</ele><time>2026-05-03T09:36:27.083Z</time></trkpt><trkpt lat="45.5043197" lon="11.47604"><ele>38.75</ele><time>2026-05-03T09:36:28.083Z</time></trkpt><trkpt lat="45.5041985" lon="11.4760782"><ele>38.5</ele><time>2026-05-03T09:36:29.083Z</time></trkpt><trkpt lat="45.5040702" lon="11.4761127"><ele>38.25</ele><time>2026-05-03T09:36:30.083Z</time></trkpt><trkpt lat="45.5039387" lon="11.4761475"><ele>38.0</ele><time>2026-05-03T09:36:31.084Z</time></trkpt><trkpt lat="45.5037996" lon="11.4761827"><ele>37.75</ele><time>2026-05-03T09:36:32.083Z</time></trkpt><trkpt lat="45.5036578" lon="11.4762176"><ele>37.5</ele><time>2026-05-03T09:36:33.084Z</time></trkpt><trkpt lat="45.503511" lon="11.4762505"><ele>37.25</ele><time>2026-05-03T09:36:34.083Z</time></trkpt><trkpt lat="45.5033617" lon="11.4762821"><ele>37.0</ele><time>2026-05-03T09:36:35.083Z</time></trkpt><trkpt lat="45.5032116" lon="11.4763192"><ele>37.75</ele><time>2026-05-03T09:36:36.083Z</time></trkpt><trkpt lat="45.5030613" lon="11.4763528"><ele>38.5</ele><time>2026-05-03T09:36:37.083Z</time></trkpt><trkpt lat="45.5029156" lon="11.476377"><ele>39.25</ele><time>2026-05-03T09:36:38.084Z</time></trkpt><trkpt lat="45.5027748" lon="11.4764084"><ele>40.0</ele><time>2026-05-03T09:36:39.083Z</time></trkpt><trkpt lat="45.5026424" lon="11.4764456"><ele>42.75</ele><time>2026-05-03T09:36:40.083Z</time></trkpt><trkpt lat="45.5025125" lon="11.4764867"><ele>45.5</ele><time>2026-05-03T09:36:41.082Z</time></trkpt><trkpt lat="45.5023811" lon="11.4765088"><ele>48.25</ele><time>2026-05-03T09:36:42.083Z</time></trkpt><trkpt lat="45.5022474" lon="11.4765078"><ele>51.0</ele><time>2026-05-03T09:36:43.083Z</time></trkpt><trkpt lat="45.5021048" lon="11.4764769"><ele>49.5</ele><time>2026-05-03T09:36:44.083Z</time></trkpt><trkpt lat="45.5019622" lon="11.4764294"><ele>48.0</ele><time>2026-05-03T09:36:45.083Z</time></trkpt><trkpt lat="45.5018234" lon="11.476371"><ele>46.5</ele><time>2026-05-03T09:36:46.083Z</time></trkpt><trkpt lat="45.5016912" lon="11.4763136"><ele>45.0</ele><time>2026-05-03T09:36:47.083Z</time></trkpt><trkpt lat="45.5015647" lon="11.4762683"><ele>45.0</ele><time>2026-05-03T09:36:48.083Z</time></trkpt><trkpt lat="45.5014483" lon="11.476214"><ele>45.0</ele><time>2026-05-03T09:36:49.083Z</time></trkpt><trkpt lat="45.501364" lon="11.4761381"><ele>45.0</ele><time>2026-05-03T09:36:50.084Z</time></trkpt><trkpt lat="45.5012927" lon="11.4760816"><ele>45.0</ele><time>2026-05-03T09:36:51.083Z</time></trkpt><trkpt lat="45.5012292" lon="11.4760428"><ele>45.0</ele><time>2026-05-03T09:36:52.083Z</time></trkpt><trkpt lat="45.5011271" lon="11.4761005"><ele>48.75</ele><time>2026-05-03T09:36:54.084Z</time></trkpt><trkpt lat="45.5011268" lon="11.476298"><ele>52.5</ele><time>2026-05-03T09:36:56.083Z</time></trkpt><trkpt lat="45.5011293" lon="11.476439"><ele>56.25</ele><time>2026-05-03T09:36:57.083Z</time></trkpt><trkpt lat="45.50112" lon="11.4765877"><ele>60.0</ele><time>2026-05-03T09:36:58.083Z</time></trkpt><trkpt lat="45.5010891" lon="11.476736"><ele>60.0</ele><time>2026-05-03T09:36:59.084Z</time></trkpt><trkpt lat="45.5010405" lon="11.4768773"><ele>60.0</ele><time>2026-05-03T09:37:00.082Z</time></trkpt><trkpt lat="45.5009959" lon="11.4769834"><ele>60.0</ele><time>2026-05-03T09:37:01.083Z</time></trkpt><trkpt lat="45.500958" lon="11.4770822"><ele>60.0</ele><time>2026-05-03T09:37:02.084Z</time></trkpt><trkpt lat="45.5009134" lon="11.4771885"><ele>60.0</ele><time>2026-05-03T09:37:03.083Z</time></trkpt><trkpt lat="45.5008582" lon="11.4772955"><ele>60.5</ele><time>2026-05-03T09:37:04.084Z</time></trkpt><trkpt lat="45.500803" lon="11.4773881"><ele>61.0</ele><time>2026-05-03T09:37:05.084Z</time></trkpt><trkpt lat="45.5007401" lon="11.4774765"><ele>61.5</ele><time>2026-05-03T09:37:06.084Z</time></trkpt><trkpt lat="45.5006677" lon="11.4775472"><ele>62.0</ele><time>2026-05-03T09:37:07.083Z</time></trkpt><trkpt lat="45.5005926" lon="11.4776047"><ele>62.5</ele><time>2026-05-03T09:37:08.083Z</time></trkpt><trkpt lat="45.5005174" lon="11.4776646"><ele>63.0</ele><time>2026-05-03T09:37:09.083Z</time></trkpt><trkpt lat="45.500454" lon="11.4777426"><ele>64.0</ele><time>2026-05-03T09:37:10.084Z</time></trkpt><trkpt lat="45.5004107" lon="11.4778372"><ele>65.0</ele><time>2026-05-03T09:37:11.083Z</time></trkpt><trkpt lat="45.500392" lon="11.4779466"><ele>66.0</ele><time>2026-05-03T09:37:12.084Z</time></trkpt><trkpt lat="45.5003972" lon="11.4780626"><ele>67.0</ele><time>2026-05-03T09:37:13.084Z</time></trkpt><trkpt lat="45.5004103" lon="11.4781929"><ele>68.0</ele><time>2026-05-03T09:37:14.083Z</time></trkpt><trkpt lat="45.5004285" lon="11.4783273"><ele>69.0</ele><time>2026-05-03T09:37:15.083Z</time></trkpt><trkpt lat="45.5004509" lon="11.4784662"><ele>69.0</ele><time>2026-05-03T09:37:16.084Z</time></trkpt><trkpt lat="45.5004818" lon="11.4786028"><ele>69.0</ele><time>2026-05-03T09:37:17.083Z</time></trkpt><trkpt lat="45.5005161" lon="11.4787487"><ele>69.0</ele><time>2026-05-03T09:37:18.083Z</time></trkpt><trkpt lat="45.5005241" lon="11.4789015"><ele>69.0</ele><time>2026-05-03T09:37:19.082Z</time></trkpt><trkpt lat="45.5005247" lon="11.4790511"><ele>69.0</ele><time>2026-05-03T09:37:20.083Z</time></trkpt><trkpt lat="45.5005086" lon="11.4791995"><ele>69.4</ele><time>2026-05-03T09:37:21.084Z</time></trkpt><trkpt lat="45.5004835" lon="11.4793502"><ele>69.80000000000001</ele><time>2026-05-03T09:37:22.083Z</time></trkpt><trkpt lat="45.5004674" lon="11.4795094"><ele>70.19999999999999</ele><time>2026-05-03T09:37:23.084Z</time></trkpt><trkpt lat="45.500452" lon="11.4796716"><ele>70.6</ele><time>2026-05-03T09:37:24.084Z</time></trkpt><trkpt lat="45.5004423" lon="11.4798256"><ele>71.0</ele><time>2026-05-03T09:37:25.084Z</time></trkpt><trkpt lat="45.5004219" lon="11.479959"><ele>78.19999999999999</ele><time>2026-05-03T09:37:26.084Z</time></trkpt><trkpt lat="45.5003925" lon="11.4800863"><ele>85.39999999999999</ele><time>2026-05-03T09:37:27.083Z</time></trkpt><trkpt lat="45.5003672" lon="11.4802131"><ele>92.6</ele><time>2026-05-03T09:37:28.083Z</time></trkpt><trkpt lat="45.5003608" lon="11.4803456"><ele>99.8</ele><time>2026-05-03T09:37:29.083Z</time></trkpt><trkpt lat="45.5003673" lon="11.4804803"><ele>107.0</ele><time>2026-05-03T09:37:30.083Z</time></trkpt><trkpt lat="45.5003722" lon="11.4806246"><ele>108.75</ele><time>2026-05-03T09:37:31.083Z</time></trkpt><trkpt lat="45.5003683" lon="11.4807776"><ele>110.5</ele><time>2026-05-03T09:37:32.084Z</time></trkpt><trkpt lat="45.500361" lon="11.4809378"><ele>112.25</ele><time>2026-05-03T09:37:33.083Z</time></trkpt><trkpt lat="45.5003546" lon="11.4811046"><ele>114.0</ele><time>2026-05-03T09:37:34.083Z</time></trkpt><trkpt lat="45.5003493" lon="11.4812712"><ele>115.4</ele><time>2026-05-03T09:37:35.083Z</time></trkpt><trkpt lat="45.5003629" lon="11.4814262"><ele>116.80000000000001</ele><time>2026-05-03T09:37:36.083Z</time></trkpt><trkpt lat="45.5003929" lon="11.481567"><ele>118.19999999999999</ele><time>2026-05-03T09:37:37.083Z</time></trkpt><trkpt lat="45.5004276" lon="11.4817052"><ele>119.6</ele><time>2026-05-03T09:37:38.084Z</time></trkpt><trkpt lat="45.5004488" lon="11.4818526"><ele>121.0</ele><time>2026-05-03T09:37:39.083Z</time></trkpt><trkpt lat="45.5004503" lon="11.481999"><ele>120.50000000000001</ele><time>2026-05-03T09:37:40.083Z</time></trkpt><trkpt lat="45.5004509" lon="11.4821336"><ele>120.0</ele><time>2026-05-03T09:37:41.083Z</time></trkpt><trkpt lat="45.500443" lon="11.4822541"><ele>119.5</ele><time>2026-05-03T09:37:42.083Z</time></trkpt><trkpt lat="45.5004189" lon="11.4823472"><ele>119.0</ele><time>2026-05-03T09:37:43.083Z</time></trkpt><trkpt lat="45.5003721" lon="11.4824146"><ele>118.50000000000001</ele><time>2026-05-03T09:37:44.083Z</time></trkpt><trkpt lat="45.5002439" lon="11.482451"><ele>118.0</ele><time>2026-05-03T09:37:46.083Z</time></trkpt><trkpt lat="45.5001585" lon="11.4824552"><ele>118.00000000000001</ele><time>2026-05-03T09:37:47.083Z</time></trkpt><trkpt lat="45.5000677" lon="11.4824595"><ele>118.0</ele><time>2026-05-03T09:37:48.084Z</time></trkpt><trkpt lat="45.4999784" lon="11.4824501"><ele>118.0</ele><time>2026-05-03T09:37:49.084Z</time></trkpt><trkpt lat="45.499903" lon="11.4824137"><ele>118.0</ele><time>2026-05-03T09:37:50.082Z</time></trkpt><trkpt lat="45.4998399" lon="11.4823797"><ele>118.00000000000001</ele><time>2026-05-03T09:37:51.083Z</time></trkpt><trkpt lat="45.4997286" lon="11.4824147"><ele>118.0</ele><time>2026-05-03T09:37:53.083Z</time></trkpt><trkpt lat="45.499695" lon="11.482491"><ele>118.00000000000001</ele><time>2026-05-03T09:37:54.083Z</time></trkpt><trkpt lat="45.4996504" lon="11.4825653"><ele>118.0</ele><time>2026-05-03T09:37:55.083Z</time></trkpt><trkpt lat="45.4995873" lon="11.4826276"><ele>118.0</ele><time>2026-05-03T09:37:56.083Z</time></trkpt><trkpt lat="45.4995081" lon="11.4826626"><ele>118.0</ele><time>2026-05-03T09:37:57.083Z</time></trkpt><trkpt lat="45.4994283" lon="11.4826812"><ele>118.00000000000001</ele><time>2026-05-03T09:37:58.083Z</time></trkpt><trkpt lat="45.4993524" lon="11.482673"><ele>118.0</ele><time>2026-05-03T09:37:59.083Z</time></trkpt><trkpt lat="45.4992834" lon="11.4826358"><ele>121.00000000000001</ele><time>2026-05-03T09:38:00.083Z</time></trkpt><trkpt lat="45.4992226" lon="11.4825767"><ele>124.0</ele><time>2026-05-03T09:38:01.083Z</time></trkpt><trkpt lat="45.4991546" lon="11.4825205"><ele>127.0</ele><time>2026-05-03T09:38:02.083Z</time></trkpt><trkpt lat="45.4990907" lon="11.4824528"><ele>130.0</ele><time>2026-05-03T09:38:03.084Z</time></trkpt><trkpt lat="45.4990472" lon="11.4823616"><ele>133.0</ele><time>2026-05-03T09:38:04.082Z</time></trkpt><trkpt lat="45.4990235" lon="11.4822551"><ele>136.0</ele><time>2026-05-03T09:38:05.083Z</time></trkpt><trkpt lat="45.4990032" lon="11.4821429"><ele>136.0</ele><time>2026-05-03T09:38:06.083Z</time></trkpt><trkpt lat="45.4989857" lon="11.4820282"><ele>136.0</ele><time>2026-05-03T09:38:07.083Z</time></trkpt><trkpt lat="45.498969" lon="11.4819118"><ele>136.0</ele><time>2026-05-03T09:38:08.083Z</time></trkpt><trkpt lat="45.4989479" lon="11.4817915"><ele>136.0</ele><time>2026-05-03T09:38:09.083Z</time></trkpt><trkpt lat="45.4989284" lon="11.4816739"><ele>136.0</ele><time>2026-05-03T09:38:10.082Z</time></trkpt><trkpt lat="45.4989084" lon="11.4815597"><ele>136.0</ele><time>2026-05-03T09:38:11.083Z</time></trkpt><trkpt lat="45.4988825" lon="11.4814471"><ele>136.0</ele><time>2026-05-03T09:38:12.084Z</time></trkpt><trkpt lat="45.498845" lon="11.4813418"><ele>136.0</ele><time>2026-05-03T09:38:13.083Z</time></trkpt><trkpt lat="45.4987961" lon="11.4812449"><ele>136.0</ele><time>2026-05-03T09:38:14.083Z</time></trkpt><trkpt lat="45.4987403" lon="11.4811648"><ele>136.0</ele><time>2026-05-03T09:38:15.083Z</time></trkpt><trkpt lat="45.4986891" lon="11.4810968"><ele>136.0</ele><time>2026-05-03T09:38:16.082Z</time></trkpt><trkpt lat="45.4986371" lon="11.4810202"><ele>136.0</ele><time>2026-05-03T09:38:18.083Z</time></trkpt><trkpt lat="45.4985658" lon="11.4809612"><ele>139.6</ele><time>2026-05-03T09:38:20.083Z</time></trkpt><trkpt lat="45.4984812" lon="11.4808648"><ele>143.2</ele><time>2026-05-03T09:38:22.083Z</time></trkpt><trkpt lat="45.4984128" lon="11.4807486"><ele>146.8</ele><time>2026-05-03T09:38:24.083Z</time></trkpt><trkpt lat="45.4983679" lon="11.4806662"><ele>150.4</ele><time>2026-05-03T09:38:25.083Z</time></trkpt><trkpt lat="45.4983209" lon="11.4805659"><ele>154.0</ele><time>2026-05-03T09:38:26.083Z</time></trkpt><trkpt lat="45.4982705" lon="11.4804472"><ele>153.2</ele><time>2026-05-03T09:38:27.082Z</time></trkpt><trkpt lat="45.4982124" lon="11.4803231"><ele>152.4</ele><time>2026-05-03T09:38:28.083Z</time></trkpt><trkpt lat="45.4981559" lon="11.480187"><ele>151.6</ele><time>2026-05-03T09:38:29.083Z</time></trkpt><trkpt lat="45.4980973" lon="11.480046"><ele>150.8</ele><time>2026-05-03T09:38:30.084Z</time></trkpt><trkpt lat="45.4980377" lon="11.4799057"><ele>150.0</ele><time>2026-05-03T09:38:31.083Z</time></trkpt><trkpt lat="45.4979735" lon="11.4797884"><ele>152.4</ele><time>2026-05-03T09:38:32.083Z</time></trkpt><trkpt lat="45.4978993" lon="11.4796955"><ele>154.8</ele><time>2026-05-03T09:38:33.083Z</time></trkpt><trkpt lat="45.4978129" lon="11.4796441"><ele>157.2</ele><time>2026-05-03T09:38:34.083Z</time></trkpt><trkpt lat="45.497718" lon="11.4796273"><ele>159.6</ele><time>2026-05-03T09:38:35.083Z</time></trkpt><trkpt lat="45.4976208" lon="11.4796377"><ele>162.0</ele><time>2026-05-03T09:38:36.083Z</time></trkpt><trkpt lat="45.4975232" lon="11.4796684"><ele>162.0</ele><time>2026-05-03T09:38:37.083Z</time></trkpt><trkpt lat="45.4974272" lon="11.4797142"><ele>162.0</ele><time>2026-05-03T09:38:38.083Z</time></trkpt><trkpt lat="45.4973346" lon="11.4797678"><ele>162.0</ele><time>2026-05-03T09:38:39.082Z</time></trkpt><trkpt lat="45.4972512" lon="11.4798393"><ele>162.0</ele><time>2026-05-03T09:38:40.083Z</time></trkpt><trkpt lat="45.4971657" lon="11.4799183"><ele>162.0</ele><time>2026-05-03T09:38:41.082Z</time></trkpt><trkpt lat="45.4970927" lon="11.4800096"><ele>165.6</ele><time>2026-05-03T09:38:42.083Z</time></trkpt><trkpt lat="45.4970699" lon="11.480143"><ele>169.2</ele><time>2026-05-03T09:38:43.083Z</time></trkpt><trkpt lat="45.4970416" lon="11.4802582"><ele>172.8</ele><time>2026-05-03T09:38:44.083Z</time></trkpt><trkpt lat="45.4970422" lon="11.4803849"><ele>176.4</ele><time>2026-05-03T09:38:45.083Z</time></trkpt><trkpt lat="45.4970475" lon="11.4805137"><ele>180.0</ele><time>2026-05-03T09:38:46.083Z</time></trkpt><trkpt lat="45.4970607" lon="11.4806524"><ele>180.0</ele><time>2026-05-03T09:38:47.083Z</time></trkpt><trkpt lat="45.4970693" lon="11.4807897"><ele>180.0</ele><time>2026-05-03T09:38:48.083Z</time></trkpt><trkpt lat="45.4970795" lon="11.4809124"><ele>180.0</ele><time>2026-05-03T09:38:49.084Z</time></trkpt><trkpt lat="45.4970896" lon="11.48103"><ele>180.0</ele><time>2026-05-03T09:38:50.083Z</time></trkpt><trkpt lat="45.4970877" lon="11.4811467"><ele>180.0</ele><time>2026-05-03T09:38:51.084Z</time></trkpt><trkpt lat="45.4970859" lon="11.4812701"><ele>180.0</ele><time>2026-05-03T09:38:52.084Z</time></trkpt><trkpt lat="45.4970909" lon="11.4814069"><ele>178.6</ele><time>2026-05-03T09:38:53.084Z</time></trkpt><trkpt lat="45.4970977" lon="11.4815534"><ele>177.2</ele><time>2026-05-03T09:38:54.083Z</time></trkpt><trkpt lat="45.4971012" lon="11.4817086"><ele>175.8</ele><time>2026-05-03T09:38:55.083Z</time></trkpt><trkpt lat="45.4970882" lon="11.481872"><ele>174.4</ele><time>2026-05-03T09:38:56.083Z</time></trkpt><trkpt lat="45.4970641" lon="11.4820424"><ele>173.0</ele><time>2026-05-03T09:38:57.083Z</time></trkpt><trkpt lat="45.497035" lon="11.4822102"><ele>172.4</ele><time>2026-05-03T09:38:58.083Z</time></trkpt><trkpt lat="45.4970048" lon="11.4823716"><ele>171.8</ele><time>2026-05-03T09:38:59.083Z</time></trkpt><trkpt lat="45.4969754" lon="11.482522"><ele>171.2</ele><time>2026-05-03T09:39:00.084Z</time></trkpt><trkpt lat="45.4969452" lon="11.4826725"><ele>170.6</ele><time>2026-05-03T09:39:01.084Z</time></trkpt><trkpt lat="45.49691" lon="11.4828221"><ele>170.0</ele><time>2026-05-03T09:39:02.083Z</time></trkpt><trkpt lat="45.496875" lon="11.4829681"><ele>169.25</ele><time>2026-05-03T09:39:03.084Z</time></trkpt><trkpt lat="45.4968385" lon="11.4831209"><ele>168.5</ele><time>2026-05-03T09:39:04.083Z</time></trkpt><trkpt lat="45.4967986" lon="11.4832757"><ele>167.75</ele><time>2026-05-03T09:39:05.083Z</time></trkpt><trkpt lat="45.4967437" lon="11.483436"><ele>167.0</ele><time>2026-05-03T09:39:06.083Z</time></trkpt><trkpt lat="45.4966727" lon="11.4835939"><ele>167.0</ele><time>2026-05-03T09:39:07.083Z</time></trkpt><trkpt lat="45.4965864" lon="11.4837458"><ele>167.0</ele><time>2026-05-03T09:39:08.083Z</time></trkpt><trkpt lat="45.4964893" lon="11.4838822"><ele>167.0</ele><time>2026-05-03T09:39:09.083Z</time></trkpt><trkpt lat="45.4963873" lon="11.4840077"><ele>167.0</ele><time>2026-05-03T09:39:10.083Z</time></trkpt><trkpt lat="45.4962813" lon="11.4841263"><ele>165.25</ele><time>2026-05-03T09:39:11.084Z</time></trkpt><trkpt lat="45.4961747" lon="11.484244"><ele>163.5</ele><time>2026-05-03T09:39:12.083Z</time></trkpt><trkpt lat="45.4960684" lon="11.4843616"><ele>161.75</ele><time>2026-05-03T09:39:13.083Z</time></trkpt><trkpt lat="45.4959629" lon="11.484474"><ele>160.0</ele><time>2026-05-03T09:39:14.083Z</time></trkpt><trkpt lat="45.4958572" lon="11.4845913"><ele>159.75</ele><time>2026-05-03T09:39:15.083Z</time></trkpt><trkpt lat="45.4957544" lon="11.4847162"><ele>159.5</ele><time>2026-05-03T09:39:16.083Z</time></trkpt><trkpt lat="45.4956695" lon="11.4848569"><ele>159.25</ele><time>2026-05-03T09:39:17.083Z</time></trkpt><trkpt lat="45.4956054" lon="11.4850241"><ele>159.0</ele><time>2026-05-03T09:39:18.083Z</time></trkpt><trkpt lat="45.4955671" lon="11.485212"><ele>159.0</ele><time>2026-05-03T09:39:19.083Z</time></trkpt><trkpt lat="45.4955579" lon="11.4854103"><ele>159.0</ele><time>2026-05-03T09:39:20.083Z</time></trkpt><trkpt lat="45.4955768" lon="11.4856127"><ele>159.0</ele><time>2026-05-03T09:39:21.083Z</time></trkpt><trkpt lat="45.4956193" lon="11.4858155"><ele>159.0</ele><time>2026-05-03T09:39:22.083Z</time></trkpt><trkpt lat="45.4956749" lon="11.4860132"><ele>158.5</ele><time>2026-05-03T09:39:23.083Z</time></trkpt><trkpt lat="45.4957388" lon="11.4862102"><ele>158.0</ele><time>2026-05-03T09:39:24.082Z</time></trkpt><trkpt lat="45.4958016" lon="11.4864012"><ele>157.5</ele><time>2026-05-03T09:39:25.083Z</time></trkpt><trkpt lat="45.4958599" lon="11.4865808"><ele>157.0</ele><time>2026-05-03T09:39:26.083Z</time></trkpt><trkpt lat="45.49592" lon="11.48675"><ele>157.0</ele><time>2026-05-03T09:39:27.083Z</time></trkpt><trkpt lat="45.4959729" lon="11.4869112"><ele>157.0</ele><time>2026-05-03T09:39:28.083Z</time></trkpt><trkpt lat="45.4960188" lon="11.48707"><ele>157.0</ele><time>2026-05-03T09:39:29.083Z</time></trkpt><trkpt lat="45.4960562" lon="11.4872415"><ele>157.0</ele><time>2026-05-03T09:39:30.083Z</time></trkpt><trkpt lat="45.4960906" lon="11.4874194"><ele>156.5</ele><time>2026-05-03T09:39:31.083Z</time></trkpt><trkpt lat="45.4961289" lon="11.4876042"><ele>156.0</ele><time>2026-05-03T09:39:32.083Z</time></trkpt><trkpt lat="45.4961684" lon="11.4877945"><ele>155.5</ele><time>2026-05-03T09:39:33.084Z</time></trkpt><trkpt lat="45.4962046" lon="11.4879773"><ele>155.0</ele><time>2026-05-03T09:39:34.083Z</time></trkpt><trkpt lat="45.4962412" lon="11.4881518"><ele>154.25</ele><time>2026-05-03T09:39:35.083Z</time></trkpt><trkpt lat="45.4962768" lon="11.4883241"><ele>153.5</ele><time>2026-05-03T09:39:36.083Z</time></trkpt><trkpt lat="45.4963069" lon="11.4884889"><ele>152.75</ele><time>2026-05-03T09:39:37.084Z</time></trkpt><trkpt lat="45.4963373" lon="11.4886475"><ele>152.0</ele><time>2026-05-03T09:39:38.083Z</time></trkpt><trkpt lat="45.4963666" lon="11.4888011"><ele>150.79999999999998</ele><time>2026-05-03T09:39:39.083Z</time></trkpt><trkpt lat="45.4963964" lon="11.4889487"><ele>149.6</ele><time>2026-05-03T09:39:40.083Z</time></trkpt><trkpt lat="45.4964294" lon="11.4890906"><ele>148.39999999999998</ele><time>2026-05-03T09:39:41.083Z</time></trkpt><trkpt lat="45.4964784" lon="11.4892214"><ele>147.2</ele><time>2026-05-03T09:39:42.083Z</time></trkpt><trkpt lat="45.4965549" lon="11.4893334"><ele>146.0</ele><time>2026-05-03T09:39:43.083Z</time></trkpt><trkpt lat="45.4966524" lon="11.4894119"><ele>146.0</ele><time>2026-05-03T09:39:44.083Z</time></trkpt><trkpt lat="45.4967655" lon="11.4894489"><ele>146.0</ele><time>2026-05-03T09:39:45.084Z</time></trkpt><trkpt lat="45.4968905" lon="11.4894497"><ele>146.0</ele><time>2026-05-03T09:39:46.084Z</time></trkpt><trkpt lat="45.4970192" lon="11.4894276"><ele>146.0</ele><time>2026-05-03T09:39:47.084Z</time></trkpt><trkpt lat="45.4971449" lon="11.4893999"><ele>146.25</ele><time>2026-05-03T09:39:48.083Z</time></trkpt><trkpt lat="45.4972758" lon="11.4893823"><ele>146.5</ele><time>2026-05-03T09:39:49.084Z</time></trkpt><trkpt lat="45.4974088" lon="11.4893653"><ele>146.75</ele><time>2026-05-03T09:39:50.083Z</time></trkpt><trkpt lat="45.4975378" lon="11.4893411"><ele>147.0</ele><time>2026-05-03T09:39:51.082Z</time></trkpt><trkpt lat="45.4976678" lon="11.4893223"><ele>147.0</ele><time>2026-05-03T09:39:52.083Z</time></trkpt><trkpt lat="45.4977956" lon="11.4892996"><ele>147.0</ele><time>2026-05-03T09:39:53.083Z</time></trkpt><trkpt lat="45.4979211" lon="11.4892739"><ele>147.0</ele><time>2026-05-03T09:39:54.083Z</time></trkpt><trkpt lat="45.4980437" lon="11.4892485"><ele>147.0</ele><time>2026-05-03T09:39:55.082Z</time></trkpt><trkpt lat="45.49817" lon="11.4892243"><ele>144.0</ele><time>2026-05-03T09:39:56.084Z</time></trkpt><trkpt lat="45.4982939" lon="11.4891969"><ele>141.0</ele><time>2026-05-03T09:39:57.083Z</time></trkpt><trkpt lat="45.4984191" lon="11.4891685"><ele>138.0</ele><time>2026-05-03T09:39:58.083Z</time></trkpt><trkpt lat="45.4985463" lon="11.4891436"><ele>135.0</ele><time>2026-05-03T09:39:59.083Z</time></trkpt><trkpt lat="45.4986711" lon="11.489132"><ele>133.25</ele><time>2026-05-03T09:40:00.083Z</time></trkpt><trkpt lat="45.498792" lon="11.4891405"><ele>131.5</ele><time>2026-05-03T09:40:01.083Z</time></trkpt><trkpt lat="45.498909" lon="11.4891648"><ele>129.75</ele><time>2026-05-03T09:40:02.083Z</time></trkpt><trkpt lat="45.4990253" lon="11.4892113"><ele>128.0</ele><time>2026-05-03T09:40:03.083Z</time></trkpt><trkpt lat="45.4991366" lon="11.4892784"><ele>128.0</ele><time>2026-05-03T09:40:04.083Z</time></trkpt><trkpt lat="45.4992426" lon="11.4893525"><ele>128.0</ele><time>2026-05-03T09:40:05.083Z</time></trkpt><trkpt lat="45.4993499" lon="11.4894255"><ele>128.0</ele><time>2026-05-03T09:40:06.082Z</time></trkpt><trkpt lat="45.49946" lon="11.4894873"><ele>128.0</ele><time>2026-05-03T09:40:07.083Z</time></trkpt><trkpt lat="45.4995756" lon="11.4895357"><ele>126.75</ele><time>2026-05-03T09:40:08.083Z</time></trkpt><trkpt lat="45.4996955" lon="11.4895658"><ele>125.5</ele><time>2026-05-03T09:40:09.083Z</time></trkpt><trkpt lat="45.4998179" lon="11.4895801"><ele>124.25</ele><time>2026-05-03T09:40:10.083Z</time></trkpt><trkpt lat="45.4999405" lon="11.4895913"><ele>123.0</ele><time>2026-05-03T09:40:11.084Z</time></trkpt><trkpt lat="45.5000631" lon="11.4896093"><ele>123.0</ele><time>2026-05-03T09:40:12.083Z</time></trkpt><trkpt lat="45.5001891" lon="11.4896391"><ele>123.0</ele><time>2026-05-03T09:40:13.084Z</time></trkpt><trkpt lat="45.5003133" lon="11.4896904"><ele>123.0</ele><time>2026-05-03T09:40:14.083Z</time></trkpt><trkpt lat="45.5004338" lon="11.4897579"><ele>123.0</ele><time>2026-05-03T09:40:15.083Z</time></trkpt><trkpt lat="45.5005523" lon="11.4898416"><ele>124.0</ele><time>2026-05-03T09:40:16.083Z</time></trkpt><trkpt lat="45.5006627" lon="11.4899368"><ele>125.0</ele><time>2026-05-03T09:40:17.083Z</time></trkpt><trkpt lat="45.5007668" lon="11.4900358"><ele>126.0</ele><time>2026-05-03T09:40:18.083Z</time></trkpt><trkpt lat="45.5008535" lon="11.4901351"><ele>127.0</ele><time>2026-05-03T09:40:19.083Z</time></trkpt><trkpt lat="45.5009246" lon="11.4902398"><ele>127.00000000000001</ele><time>2026-05-03T09:40:20.083Z</time></trkpt><trkpt lat="45.5009801" lon="11.490347"><ele>127.0</ele><time>2026-05-03T09:40:21.083Z</time></trkpt><trkpt lat="45.5010118" lon="11.4904535"><ele>127.0</ele><time>2026-05-03T09:40:22.083Z</time></trkpt><trkpt lat="45.5010318" lon="11.4905692"><ele>127.0</ele><time>2026-05-03T09:40:23.083Z</time></trkpt><trkpt lat="45.5010463" lon="11.4906973"><ele>127.00000000000001</ele><time>2026-05-03T09:40:24.084Z</time></trkpt><trkpt lat="45.5010639" lon="11.4908271"><ele>127.0</ele><time>2026-05-03T09:40:25.084Z</time></trkpt><trkpt lat="45.5010937" lon="11.4909567"><ele>127.0</ele><time>2026-05-03T09:40:26.083Z</time></trkpt><trkpt lat="45.5011428" lon="11.4910833"><ele>127.0</ele><time>2026-05-03T09:40:27.084Z</time></trkpt><trkpt lat="45.5012072" lon="11.4912133"><ele>127.0</ele><time>2026-05-03T09:40:28.083Z</time></trkpt><trkpt lat="45.5012833" lon="11.4913467"><ele>127.0</ele><time>2026-05-03T09:40:29.084Z</time></trkpt><trkpt lat="45.5013729" lon="11.4914785"><ele>129.25</ele><time>2026-05-03T09:40:30.083Z</time></trkpt><trkpt lat="45.5014687" lon="11.4916002"><ele>131.5</ele><time>2026-05-03T09:40:31.082Z</time></trkpt><trkpt lat="45.5015681" lon="11.4916951"><ele>133.75</ele><time>2026-05-03T09:40:32.083Z</time></trkpt><trkpt lat="45.5016678" lon="11.4917618"><ele>136.0</ele><time>2026-05-03T09:40:33.083Z</time></trkpt><trkpt lat="45.5017583" lon="11.4918052"><ele>136.0</ele><time>2026-05-03T09:40:34.084Z</time></trkpt><trkpt lat="45.5018301" lon="11.4918306"><ele>136.0</ele><time>2026-05-03T09:40:35.083Z</time></trkpt><trkpt lat="45.501888" lon="11.4918664"><ele>136.0</ele><time>2026-05-03T09:40:36.083Z</time></trkpt><trkpt lat="45.5019324" lon="11.4920288"><ele>136.0</ele><time>2026-05-03T09:40:38.084Z</time></trkpt><trkpt lat="45.501925" lon="11.4921389"><ele>136.0</ele><time>2026-05-03T09:40:39.084Z</time></trkpt><trkpt lat="45.5018997" lon="11.4922522"><ele>136.0</ele><time>2026-05-03T09:40:40.083Z</time></trkpt><trkpt lat="45.5018542" lon="11.4923556"><ele>133.8</ele><time>2026-05-03T09:40:41.083Z</time></trkpt><trkpt lat="45.5017907" lon="11.492446"><ele>131.6</ele><time>2026-05-03T09:40:42.084Z</time></trkpt><trkpt lat="45.5017204" lon="11.4925277"><ele>129.4</ele><time>2026-05-03T09:40:43.084Z</time></trkpt><trkpt lat="45.5016477" lon="11.4926102"><ele>127.2</ele><time>2026-05-03T09:40:44.082Z</time></trkpt><trkpt lat="45.5015667" lon="11.4926915"><ele>125.0</ele><time>2026-05-03T09:40:45.083Z</time></trkpt><trkpt lat="45.5014822" lon="11.4927751"><ele>125.0</ele><time>2026-05-03T09:40:46.083Z</time></trkpt><trkpt lat="45.5013992" lon="11.4928608"><ele>125.0</ele><time>2026-05-03T09:40:47.084Z</time></trkpt><trkpt lat="45.5013147" lon="11.4929443"><ele>125.0</ele><time>2026-05-03T09:40:48.083Z</time></trkpt><trkpt lat="45.5012336" lon="11.4930202"><ele>125.0</ele><time>2026-05-03T09:40:49.083Z</time></trkpt><trkpt lat="45.5011536" lon="11.4930879"><ele>125.0</ele><time>2026-05-03T09:40:50.082Z</time></trkpt><trkpt lat="45.5010789" lon="11.49315"><ele>122.71428571428571</ele><time>2026-05-03T09:40:51.083Z</time></trkpt><trkpt lat="45.5010135" lon="11.4932097"><ele>120.42857142857143</ele><time>2026-05-03T09:40:52.083Z</time></trkpt><trkpt lat="45.5009628" lon="11.4932747"><ele>118.14285714285714</ele><time>2026-05-03T09:40:53.083Z</time></trkpt><trkpt lat="45.5009272" lon="11.4933503"><ele>115.85714285714286</ele><time>2026-05-03T09:40:54.083Z</time></trkpt><trkpt lat="45.5009123" lon="11.4934411"><ele>113.57142857142858</ele><time>2026-05-03T09:40:55.083Z</time></trkpt><trkpt lat="45.5009161" lon="11.493539"><ele>111.28571428571429</ele><time>2026-05-03T09:40:56.083Z</time></trkpt><trkpt lat="45.5009346" lon="11.4936395"><ele>109.0</ele><time>2026-05-03T09:40:57.083Z</time></trkpt><trkpt lat="45.5009576" lon="11.4937347"><ele>107.00000000000001</ele><time>2026-05-03T09:40:58.083Z</time></trkpt><trkpt lat="45.5009247" lon="11.4938832"><ele>105.0</ele><time>2026-05-03T09:41:00.082Z</time></trkpt><trkpt lat="45.5008652" lon="11.4939406"><ele>103.0</ele><time>2026-05-03T09:41:01.083Z</time></trkpt><trkpt lat="45.5007877" lon="11.4939684"><ele>101.0</ele><time>2026-05-03T09:41:02.083Z</time></trkpt><trkpt lat="45.5007037" lon="11.4939633"><ele>99.00000000000001</ele><time>2026-05-03T09:41:03.083Z</time></trkpt><trkpt lat="45.5006158" lon="11.493936"><ele>97.0</ele><time>2026-05-03T09:41:04.084Z</time></trkpt><trkpt lat="45.500534" lon="11.4939092"><ele>97.00000000000001</ele><time>2026-05-03T09:41:05.083Z</time></trkpt><trkpt lat="45.5004602" lon="11.4938802"><ele>97.0</ele><time>2026-05-03T09:41:06.083Z</time></trkpt><trkpt lat="45.5003927" lon="11.4938373"><ele>97.0</ele><time>2026-05-03T09:41:07.083Z</time></trkpt><trkpt lat="45.5003328" lon="11.4937723"><ele>97.0</ele><time>2026-05-03T09:41:08.083Z</time></trkpt><trkpt lat="45.5002932" lon="11.4936918"><ele>97.00000000000001</ele><time>2026-05-03T09:41:09.083Z</time></trkpt><trkpt lat="45.5002492" lon="11.4935568"><ele>97.0</ele><time>2026-05-03T09:41:11.083Z</time></trkpt><trkpt lat="45.5001932" lon="11.4934966"><ele>93.6</ele><time>2026-05-03T09:41:13.083Z</time></trkpt><trkpt lat="45.5001414" lon="11.4935769"><ele>90.19999999999999</ele><time>2026-05-03T09:41:15.083Z</time></trkpt><trkpt lat="45.5001506" lon="11.4937463"><ele>86.8</ele><time>2026-05-03T09:41:17.083Z</time></trkpt><trkpt lat="45.5001563" lon="11.4938646"><ele>83.4</ele><time>2026-05-03T09:41:18.083Z</time></trkpt><trkpt lat="45.5001658" lon="11.4939915"><ele>80.0</ele><time>2026-05-03T09:41:19.083Z</time></trkpt><trkpt lat="45.5001775" lon="11.494117"><ele>80.83333333333334</ele><time>2026-05-03T09:41:20.083Z</time></trkpt><trkpt lat="45.5001997" lon="11.4942354"><ele>81.66666666666667</ele><time>2026-05-03T09:41:21.083Z</time></trkpt><trkpt lat="45.5002404" lon="11.4943477"><ele>82.5</ele><time>2026-05-03T09:41:22.083Z</time></trkpt><trkpt lat="45.5002913" lon="11.4944502"><ele>83.33333333333333</ele><time>2026-05-03T09:41:23.084Z</time></trkpt><trkpt lat="45.5003476" lon="11.4945527"><ele>84.16666666666666</ele><time>2026-05-03T09:41:24.083Z</time></trkpt><trkpt lat="45.5004019" lon="11.4946537"><ele>85.0</ele><time>2026-05-03T09:41:25.083Z</time></trkpt><trkpt lat="45.5004575" lon="11.4947483"><ele>85.0</ele><time>2026-05-03T09:41:26.083Z</time></trkpt><trkpt lat="45.5005044" lon="11.4948293"><ele>85.0</ele><time>2026-05-03T09:41:27.084Z</time></trkpt><trkpt lat="45.5005628" lon="11.4949504"><ele>85.0</ele><time>2026-05-03T09:41:29.083Z</time></trkpt><trkpt lat="45.5005488" lon="11.495046"><ele>85.0</ele><time>2026-05-03T09:41:31.083Z</time></trkpt><trkpt lat="45.500459" lon="11.4950335"><ele>85.0</ele><time>2026-05-03T09:41:33.083Z</time></trkpt><trkpt lat="45.5003964" lon="11.4949968"><ele>85.0</ele><time>2026-05-03T09:41:34.084Z</time></trkpt><trkpt lat="45.500316" lon="11.4949651"><ele>80.5</ele><time>2026-05-03T09:41:35.084Z</time></trkpt><trkpt lat="45.5002336" lon="11.4949368"><ele>76.0</ele><time>2026-05-03T09:41:36.084Z</time></trkpt><trkpt lat="45.5001476" lon="11.4949088"><ele>71.5</ele><time>2026-05-03T09:41:37.083Z</time></trkpt><trkpt lat="45.5000666" lon="11.4948676"><ele>67.0</ele><time>2026-05-03T09:41:38.083Z</time></trkpt><trkpt lat="45.4999864" lon="11.4948035"><ele>62.49999999999999</ele><time>2026-05-03T09:41:39.083Z</time></trkpt><trkpt lat="45.4999098" lon="11.4947358"><ele>58.0</ele><time>2026-05-03T09:41:40.083Z</time></trkpt><trkpt lat="45.4998363" lon="11.4946666"><ele>58.0</ele><time>2026-05-03T09:41:41.083Z</time></trkpt><trkpt lat="45.4997688" lon="11.4945902"><ele>58.0</ele><time>2026-05-03T09:41:42.083Z</time></trkpt><trkpt lat="45.499716" lon="11.4944939"><ele>58.0</ele><time>2026-05-03T09:41:43.083Z</time></trkpt><trkpt lat="45.4996767" lon="11.4943787"><ele>58.0</ele><time>2026-05-03T09:41:44.083Z</time></trkpt><trkpt lat="45.4996493" lon="11.4942475"><ele>58.0</ele><time>2026-05-03T09:41:45.083Z</time></trkpt><trkpt lat="45.4996283" lon="11.4941148"><ele>56.83333333333333</ele><time>2026-05-03T09:41:46.084Z</time></trkpt><trkpt lat="45.4996031" lon="11.4939855"><ele>55.666666666666664</ele><time>2026-05-03T09:41:47.083Z</time></trkpt><trkpt lat="45.499575" lon="11.4938683"><ele>54.5</ele><time>2026-05-03T09:41:48.084Z</time></trkpt><trkpt lat="45.4995535" lon="11.4937789"><ele>53.33333333333333</ele><time>2026-05-03T09:41:49.083Z</time></trkpt><trkpt lat="45.4995024" lon="11.4936743"><ele>52.166666666666664</ele><time>2026-05-03T09:41:51.083Z</time></trkpt><trkpt lat="45.4994117" lon="11.4936976"><ele>51.0</ele><time>2026-05-03T09:41:53.083Z</time></trkpt><trkpt lat="45.4992999" lon="11.4937763"><ele>49.833333333333336</ele><time>2026-05-03T09:41:55.084Z</time></trkpt><trkpt lat="45.4992365" lon="11.4938171"><ele>48.666666666666664</ele><time>2026-05-03T09:41:56.083Z</time></trkpt><trkpt lat="45.4991687" lon="11.4938583"><ele>47.5</ele><time>2026-05-03T09:41:57.083Z</time></trkpt><trkpt lat="45.4990948" lon="11.4939012"><ele>46.33333333333333</ele><time>2026-05-03T09:41:58.084Z</time></trkpt><trkpt lat="45.4990169" lon="11.4939458"><ele>45.166666666666664</ele><time>2026-05-03T09:41:59.083Z</time></trkpt><trkpt lat="45.4989361" lon="11.4939926"><ele>44.0</ele><time>2026-05-03T09:42:00.083Z</time></trkpt><trkpt lat="45.498856" lon="11.4940434"><ele>44.0</ele><time>2026-05-03T09:42:01.083Z</time></trkpt><trkpt lat="45.4987755" lon="11.4940917"><ele>44.0</ele><time>2026-05-03T09:42:02.083Z</time></trkpt><trkpt lat="45.4986982" lon="11.4941371"><ele>44.0</ele><time>2026-05-03T09:42:03.083Z</time></trkpt><trkpt lat="45.4986232" lon="11.4941787"><ele>44.0</ele><time>2026-05-03T09:42:04.083Z</time></trkpt><trkpt lat="45.4985511" lon="11.4942196"><ele>44.0</ele><time>2026-05-03T09:42:05.084Z</time></trkpt><trkpt lat="45.498477" lon="11.494263"><ele>44.0</ele><time>2026-05-03T09:42:06.084Z</time></trkpt><trkpt lat="45.4983976" lon="11.4943119"><ele>43.5</ele><time>2026-05-03T09:42:07.084Z</time></trkpt><trkpt lat="45.4983157" lon="11.4943617"><ele>43.0</ele><time>2026-05-03T09:42:08.083Z</time></trkpt><trkpt lat="45.4982327" lon="11.4944087"><ele>42.5</ele><time>2026-05-03T09:42:09.083Z</time></trkpt><trkpt lat="45.4981551" lon="11.4944552"><ele>42.0</ele><time>2026-05-03T09:42:10.083Z</time></trkpt><trkpt lat="45.4980884" lon="11.4945"><ele>41.5</ele><time>2026-05-03T09:42:11.084Z</time></trkpt><trkpt lat="45.4980308" lon="11.4945432"><ele>41.0</ele><time>2026-05-03T09:42:12.084Z</time></trkpt><trkpt lat="45.4979619" lon="11.4946085"><ele>40.33333333333333</ele><time>2026-05-03T09:42:14.083Z</time></trkpt><trkpt lat="45.4979101" lon="11.4946815"><ele>39.666666666666664</ele><time>2026-05-03T09:42:19.083Z</time></trkpt><trkpt lat="45.4979799" lon="11.4947807"><ele>39.0</ele><time>2026-05-03T09:42:22.083Z</time></trkpt><trkpt lat="45.4980422" lon="11.4948211"><ele>38.333333333333336</ele><time>2026-05-03T09:42:23.083Z</time></trkpt><trkpt lat="45.4981237" lon="11.4948744"><ele>37.66666666666667</ele><time>2026-05-03T09:42:24.084Z</time></trkpt><trkpt lat="45.4982284" lon="11.4949426"><ele>37.0</ele><time>2026-05-03T09:42:25.083Z</time></trkpt><trkpt lat="45.4983482" lon="11.4950319"><ele>37.0</ele><time>2026-05-03T09:42:26.083Z</time></trkpt><trkpt lat="45.4984777" lon="11.4951475"><ele>37.0</ele><time>2026-05-03T09:42:27.083Z</time></trkpt><trkpt lat="45.4986041" lon="11.4952969"><ele>37.0</ele><time>2026-05-03T09:42:28.084Z</time></trkpt><trkpt lat="45.4987103" lon="11.4954825"><ele>37.0</ele><time>2026-05-03T09:42:29.083Z</time></trkpt><trkpt lat="45.4987892" lon="11.4956834"><ele>37.0</ele><time>2026-05-03T09:42:30.084Z</time></trkpt><trkpt lat="45.4988474" lon="11.4958783"><ele>37.0</ele><time>2026-05-03T09:42:31.083Z</time></trkpt><trkpt lat="45.4988924" lon="11.4960649"><ele>37.0</ele><time>2026-05-03T09:42:32.083Z</time></trkpt><trkpt lat="45.4989314" lon="11.4962391"><ele>37.0</ele><time>2026-05-03T09:42:33.083Z</time></trkpt><trkpt lat="45.4989693" lon="11.4964009"><ele>37.0</ele><time>2026-05-03T09:42:34.084Z</time></trkpt><trkpt lat="45.4990069" lon="11.4965599"><ele>37.0</ele><time>2026-05-03T09:42:35.083Z</time></trkpt><trkpt lat="45.4990484" lon="11.4967279"><ele>37.0</ele><time>2026-05-03T09:42:36.084Z</time></trkpt><trkpt lat="45.4991006" lon="11.4968996"><ele>37.0</ele><time>2026-05-03T09:42:37.083Z</time></trkpt><trkpt lat="45.499166" lon="11.4970674"><ele>37.0</ele><time>2026-05-03T09:42:38.084Z</time></trkpt><trkpt lat="45.4992403" lon="11.4972205"><ele>37.0</ele><time>2026-05-03T09:42:39.083Z</time></trkpt><trkpt lat="45.4993153" lon="11.4973685"><ele>37.0</ele><time>2026-05-03T09:42:40.084Z</time></trkpt><trkpt lat="45.4993909" lon="11.497506"><ele>37.25</ele><time>2026-05-03T09:42:41.083Z</time></trkpt><trkpt lat="45.4994683" lon="11.4976452"><ele>37.5</ele><time>2026-05-03T09:42:42.083Z</time></trkpt><trkpt lat="45.4995459" lon="11.4977769"><ele>37.75</ele><time>2026-05-03T09:42:43.083Z</time></trkpt><trkpt lat="45.4996268" lon="11.4979052"><ele>38.0</ele><time>2026-05-03T09:42:44.084Z</time></trkpt><trkpt lat="45.4997132" lon="11.4980274"><ele>38.5</ele><time>2026-05-03T09:42:45.083Z</time></trkpt><trkpt lat="45.4998113" lon="11.4981438"><ele>39.0</ele><time>2026-05-03T09:42:46.083Z</time></trkpt><trkpt lat="45.4999132" lon="11.4982512"><ele>39.5</ele><time>2026-05-03T09:42:47.083Z</time></trkpt><trkpt lat="45.5000189" lon="11.4983535"><ele>40.0</ele><time>2026-05-03T09:42:48.083Z</time></trkpt><trkpt lat="45.5001198" lon="11.4984622"><ele>40.0</ele><time>2026-05-03T09:42:49.083Z</time></trkpt><trkpt lat="45.5002134" lon="11.4985832"><ele>40.0</ele><time>2026-05-03T09:42:50.083Z</time></trkpt><trkpt lat="45.5002922" lon="11.4987218"><ele>40.0</ele><time>2026-05-03T09:42:51.084Z</time></trkpt><trkpt lat="45.5003657" lon="11.4988638"><ele>40.0</ele><time>2026-05-03T09:42:52.083Z</time></trkpt><trkpt lat="45.5004422" lon="11.4989997"><ele>42.5</ele><time>2026-05-03T09:42:53.083Z</time></trkpt><trkpt lat="45.5005267" lon="11.4991251"><ele>45.0</ele><time>2026-05-03T09:42:54.084Z</time></trkpt><trkpt lat="45.5006178" lon="11.4992363"><ele>47.5</ele><time>2026-05-03T09:42:55.083Z</time></trkpt><trkpt lat="45.5007111" lon="11.4993288"><ele>50.0</ele><time>2026-05-03T09:42:56.083Z</time></trkpt><trkpt lat="45.5007997" lon="11.4994055"><ele>50.0</ele><time>2026-05-03T09:42:57.084Z</time></trkpt><trkpt lat="45.5008857" lon="11.4994799"><ele>50.0</ele><time>2026-05-03T09:42:58.084Z</time></trkpt><trkpt lat="45.5009784" lon="11.4995468"><ele>50.0</ele><time>2026-05-03T09:42:59.083Z</time></trkpt><trkpt lat="45.5010764" lon="11.4996251"><ele>50.0</ele><time>2026-05-03T09:43:00.083Z</time></trkpt><trkpt lat="45.5011773" lon="11.4997028"><ele>50.0</ele><time>2026-05-03T09:43:01.084Z</time></trkpt><trkpt lat="45.5012765" lon="11.4997943"><ele>50.2</ele><time>2026-05-03T09:43:02.083Z</time></trkpt><trkpt lat="45.5013611" lon="11.4999067"><ele>50.4</ele><time>2026-05-03T09:43:03.083Z</time></trkpt><trkpt lat="45.5014272" lon="11.5000341"><ele>50.599999999999994</ele><time>2026-05-03T09:43:04.083Z</time></trkpt><trkpt lat="45.5014758" lon="11.5001606"><ele>50.8</ele><time>2026-05-03T09:43:05.083Z</time></trkpt><trkpt lat="45.5015095" lon="11.5002975"><ele>51.0</ele><time>2026-05-03T09:43:06.083Z</time></trkpt><trkpt lat="45.501519" lon="11.5004507"><ele>51.0</ele><time>2026-05-03T09:43:07.083Z</time></trkpt><trkpt lat="45.5015058" lon="11.5006035"><ele>51.0</ele><time>2026-05-03T09:43:08.083Z</time></trkpt><trkpt lat="45.5014815" lon="11.5007503"><ele>51.0</ele><time>2026-05-03T09:43:09.083Z</time></trkpt><trkpt lat="45.5014523" lon="11.5008937"><ele>51.0</ele><time>2026-05-03T09:43:10.083Z</time></trkpt><trkpt lat="45.5014259" lon="11.5010275"><ele>51.0</ele><time>2026-05-03T09:43:11.083Z</time></trkpt><trkpt lat="45.5014098" lon="11.5011554"><ele>50.666666666666664</ele><time>2026-05-03T09:43:12.084Z</time></trkpt><trkpt lat="45.5014035" lon="11.5012796"><ele>50.33333333333333</ele><time>2026-05-03T09:43:13.084Z</time></trkpt><trkpt lat="45.5014092" lon="11.5014018"><ele>50.0</ele><time>2026-05-03T09:43:14.083Z</time></trkpt><trkpt lat="45.5014268" lon="11.5015203"><ele>49.666666666666664</ele><time>2026-05-03T09:43:15.083Z</time></trkpt><trkpt lat="45.5014598" lon="11.5016425"><ele>49.33333333333333</ele><time>2026-05-03T09:43:16.083Z</time></trkpt><trkpt lat="45.5015168" lon="11.5017577"><ele>49.0</ele><time>2026-05-03T09:43:17.084Z</time></trkpt><trkpt lat="45.5015953" lon="11.5018559"><ele>49.0</ele><time>2026-05-03T09:43:18.083Z</time></trkpt><trkpt lat="45.5016846" lon="11.5019444"><ele>49.0</ele><time>2026-05-03T09:43:19.083Z</time></trkpt><trkpt lat="45.5017755" lon="11.5020322"><ele>49.0</ele><time>2026-05-03T09:43:20.082Z</time></trkpt><trkpt lat="45.5018656" lon="11.5021227"><ele>49.0</ele><time>2026-05-03T09:43:21.083Z</time></trkpt><trkpt lat="45.5019516" lon="11.5022239"><ele>49.0</ele><time>2026-05-03T09:43:22.083Z</time></trkpt><trkpt lat="45.5020245" lon="11.5023487"><ele>48.75</ele><time>2026-05-03T09:43:23.083Z</time></trkpt><trkpt lat="45.5020823" lon="11.5024924"><ele>48.5</ele><time>2026-05-03T09:43:24.083Z</time></trkpt><trkpt lat="45.5021263" lon="11.5026453"><ele>48.25</ele><time>2026-05-03T09:43:25.083Z</time></trkpt><trkpt lat="45.5021503" lon="11.5028105"><ele>48.0</ele><time>2026-05-03T09:43:26.083Z</time></trkpt><trkpt lat="45.5021702" lon="11.5029834"><ele>46.5</ele><time>2026-05-03T09:43:27.083Z</time></trkpt><trkpt lat="45.5021896" lon="11.5031529"><ele>45.0</ele><time>2026-05-03T09:43:28.083Z</time></trkpt><trkpt lat="45.5022103" lon="11.5033156"><ele>43.5</ele><time>2026-05-03T09:43:29.083Z</time></trkpt><trkpt lat="45.5022278" lon="11.5034768"><ele>42.0</ele><time>2026-05-03T09:43:30.083Z</time></trkpt><trkpt lat="45.5022332" lon="11.5036353"><ele>44.0</ele><time>2026-05-03T09:43:31.084Z</time></trkpt><trkpt lat="45.5022185" lon="11.5037993"><ele>46.0</ele><time>2026-05-03T09:43:32.083Z</time></trkpt><trkpt lat="45.5021819" lon="11.5039588"><ele>48.0</ele><time>2026-05-03T09:43:33.083Z</time></trkpt><trkpt lat="45.5021299" lon="11.5041051"><ele>50.0</ele><time>2026-05-03T09:43:34.083Z</time></trkpt><trkpt lat="45.5020801" lon="11.5042426"><ele>46.6</ele><time>2026-05-03T09:43:35.084Z</time></trkpt><trkpt lat="45.502046" lon="11.5043817"><ele>43.2</ele><time>2026-05-03T09:43:36.083Z</time></trkpt><trkpt lat="45.5020336" lon="11.5045213"><ele>39.8</ele><time>2026-05-03T09:43:37.083Z</time></trkpt><trkpt lat="45.5020306" lon="11.5046687"><ele>36.4</ele><time>2026-05-03T09:43:38.083Z</time></trkpt><trkpt lat="45.5020437" lon="11.5048052"><ele>33.0</ele><time>2026-05-03T09:43:39.084Z</time></trkpt><trkpt lat="45.5020599" lon="11.5049345"><ele>32.5</ele><time>2026-05-03T09:43:40.083Z</time></trkpt><trkpt lat="45.5020747" lon="11.5050435"><ele>32.0</ele><time>2026-05-03T09:43:41.084Z</time></trkpt><trkpt lat="45.5020826" lon="11.5051983"><ele>31.5</ele><time>2026-05-03T09:43:43.083Z</time></trkpt><trkpt lat="45.502063" lon="11.5052893"><ele>31.0</ele><time>2026-05-03T09:43:45.083Z</time></trkpt><trkpt lat="45.5020116" lon="11.5053564"><ele>30.5</ele><time>2026-05-03T09:43:47.083Z</time></trkpt><trkpt lat="45.5018956" lon="11.5053649"><ele>30.0</ele><time>2026-05-03T09:43:49.083Z</time></trkpt><trkpt lat="45.5017965" lon="11.5053666"><ele>30.0</ele><time>2026-05-03T09:43:50.084Z</time></trkpt><trkpt lat="45.5016615" lon="11.5053713"><ele>30.0</ele><time>2026-05-03T09:43:51.083Z</time></trkpt><trkpt lat="45.5014985" lon="11.5053771"><ele>30.0</ele><time>2026-05-03T09:43:52.084Z</time></trkpt><trkpt lat="45.5013154" lon="11.5053836"><ele>29.333333333333336</ele><time>2026-05-03T09:43:53.083Z</time></trkpt><trkpt lat="45.5011238" lon="11.5053934"><ele>28.666666666666668</ele><time>2026-05-03T09:43:54.084Z</time></trkpt><trkpt lat="45.500926" lon="11.5053991"><ele>28.0</ele><time>2026-05-03T09:43:55.083Z</time></trkpt><trkpt lat="45.50073" lon="11.505407"><ele>28.333333333333336</ele><time>2026-05-03T09:43:56.083Z</time></trkpt><trkpt lat="45.5005343" lon="11.5054177"><ele>28.666666666666664</ele><time>2026-05-03T09:43:57.083Z</time></trkpt><trkpt lat="45.5003429" lon="11.5054337"><ele>29.0</ele><time>2026-05-03T09:43:58.083Z</time></trkpt><trkpt lat="45.5001539" lon="11.5054462"><ele>29.0</ele><time>2026-05-03T09:43:59.083Z</time></trkpt><trkpt lat="45.4999667" lon="11.5054566"><ele>29.0</ele><time>2026-05-03T09:44:00.083Z</time></trkpt><trkpt lat="45.4997787" lon="11.5054637"><ele>29.0</ele><time>2026-05-03T09:44:01.084Z</time></trkpt><trkpt lat="45.4995881" lon="11.5054718"><ele>29.0</ele><time>2026-05-03T09:44:02.083Z</time></trkpt><trkpt lat="45.4993992" lon="11.5054849"><ele>29.0</ele><time>2026-05-03T09:44:03.084Z</time></trkpt><trkpt lat="45.4992116" lon="11.5054964"><ele>29.0</ele><time>2026-05-03T09:44:04.083Z</time></trkpt><trkpt lat="45.4990246" lon="11.5055044"><ele>29.0</ele><time>2026-05-03T09:44:05.083Z</time></trkpt><trkpt lat="45.4988434" lon="11.5055078"><ele>29.0</ele><time>2026-05-03T09:44:06.084Z</time></trkpt><trkpt lat="45.4986688" lon="11.5055161"><ele>29.0</ele><time>2026-05-03T09:44:07.083Z</time></trkpt><trkpt lat="45.4984929" lon="11.5055253"><ele>30.333333333333332</ele><time>2026-05-03T09:44:08.083Z</time></trkpt><trkpt lat="45.4983231" lon="11.5055321"><ele>31.666666666666664</ele><time>2026-05-03T09:44:09.083Z</time></trkpt><trkpt lat="45.49816" lon="11.5055417"><ele>33.0</ele><time>2026-05-03T09:44:10.083Z</time></trkpt><trkpt lat="45.4980101" lon="11.5055536"><ele>33.199999999999996</ele><time>2026-05-03T09:44:11.083Z</time></trkpt><trkpt lat="45.4978741" lon="11.5055548"><ele>33.4</ele><time>2026-05-03T09:44:12.084Z</time></trkpt><trkpt lat="45.4977534" lon="11.505554"><ele>33.599999999999994</ele><time>2026-05-03T09:44:13.083Z</time></trkpt><trkpt lat="45.4976586" lon="11.5055375"><ele>33.8</ele><time>2026-05-03T09:44:14.083Z</time></trkpt><trkpt lat="45.4975761" lon="11.5054993"><ele>34.0</ele><time>2026-05-03T09:44:15.083Z</time></trkpt><trkpt lat="45.4975077" lon="11.5054272"><ele>34.6</ele><time>2026-05-03T09:44:16.084Z</time></trkpt><trkpt lat="45.4974597" lon="11.5053235"><ele>35.2</ele><time>2026-05-03T09:44:17.084Z</time></trkpt><trkpt lat="45.4974176" lon="11.5052043"><ele>35.800000000000004</ele><time>2026-05-03T09:44:18.083Z</time></trkpt><trkpt lat="45.4973806" lon="11.5050132"><ele>36.4</ele><time>2026-05-03T09:44:19.083Z</time></trkpt><trkpt lat="45.4973593" lon="11.5048347"><ele>37.0</ele><time>2026-05-03T09:44:20.083Z</time></trkpt><trkpt lat="45.4973415" lon="11.5046488"><ele>36.25</ele><time>2026-05-03T09:44:21.083Z</time></trkpt><trkpt lat="45.4973178" lon="11.5044546"><ele>35.5</ele><time>2026-05-03T09:44:22.083Z</time></trkpt><trkpt lat="45.497297" lon="11.5042625"><ele>34.75</ele><time>2026-05-03T09:44:23.083Z</time></trkpt><trkpt lat="45.497271" lon="11.5040691"><ele>34.0</ele><time>2026-05-03T09:44:24.084Z</time></trkpt><trkpt lat="45.4972388" lon="11.5038804"><ele>33.25</ele><time>2026-05-03T09:44:25.083Z</time></trkpt><trkpt lat="45.4972003" lon="11.5037012"><ele>32.5</ele><time>2026-05-03T09:44:26.084Z</time></trkpt><trkpt lat="45.4971447" lon="11.5035232"><ele>31.75</ele><time>2026-05-03T09:44:27.083Z</time></trkpt><trkpt lat="45.4970746" lon="11.5033544"><ele>31.0</ele><time>2026-05-03T09:44:28.082Z</time></trkpt><trkpt lat="45.4969876" lon="11.5031623"><ele>37.0</ele><time>2026-05-03T09:44:29.083Z</time></trkpt><trkpt lat="45.4968917" lon="11.5029481"><ele>43.0</ele><time>2026-05-03T09:44:30.084Z</time></trkpt><trkpt lat="45.4967868" lon="11.5027192"><ele>49.0</ele><time>2026-05-03T09:44:31.083Z</time></trkpt><trkpt lat="45.4966818" lon="11.502481"><ele>49.0</ele><time>2026-05-03T09:44:32.083Z</time></trkpt><trkpt lat="45.4965878" lon="11.5022254"><ele>49.0</ele><time>2026-05-03T09:44:33.083Z</time></trkpt><trkpt lat="45.4965048" lon="11.5019422"><ele>49.0</ele><time>2026-05-03T09:44:34.083Z</time></trkpt><trkpt lat="45.4964294" lon="11.5016301"><ele>43.0</ele><time>2026-05-03T09:44:35.083Z</time></trkpt><trkpt lat="45.4963521" lon="11.5013114"><ele>37.0</ele><time>2026-05-03T09:44:36.083Z</time></trkpt><trkpt lat="45.4962762" lon="11.5009956"><ele>38.333333333333336</ele><time>2026-05-03T09:44:37.083Z</time></trkpt><trkpt lat="45.496209" lon="11.500697"><ele>39.666666666666664</ele><time>2026-05-03T09:44:38.083Z</time></trkpt><trkpt lat="45.4961426" lon="11.5004338"><ele>41.0</ele><time>2026-05-03T09:44:39.083Z</time></trkpt><trkpt lat="45.4960724" lon="11.5002074"><ele>41.0</ele><time>2026-05-03T09:44:40.084Z</time></trkpt><trkpt lat="45.4959844" lon="11.5000263"><ele>41.0</ele><time>2026-05-03T09:44:41.083Z</time></trkpt><trkpt lat="45.4958742" lon="11.4998893"><ele>41.0</ele><time>2026-05-03T09:44:42.084Z</time></trkpt><trkpt lat="45.4957406" lon="11.4997954"><ele>41.0</ele><time>2026-05-03T09:44:43.083Z</time></trkpt><trkpt lat="45.4955869" lon="11.4997467"><ele>41.0</ele><time>2026-05-03T09:44:44.083Z</time></trkpt><trkpt lat="45.4954207" lon="11.4997292"><ele>41.0</ele><time>2026-05-03T09:44:45.082Z</time></trkpt><trkpt lat="45.4952417" lon="11.4997296"><ele>46.0</ele><time>2026-05-03T09:44:46.083Z</time></trkpt><trkpt lat="45.4950514" lon="11.4997433"><ele>51.0</ele><time>2026-05-03T09:44:47.083Z</time></trkpt><trkpt lat="45.4948537" lon="11.4997651"><ele>56.0</ele><time>2026-05-03T09:44:48.083Z</time></trkpt><trkpt lat="45.4946566" lon="11.4997775"><ele>61.0</ele><time>2026-05-03T09:44:49.083Z</time></trkpt><trkpt lat="45.4944696" lon="11.4997788"><ele>66.0</ele><time>2026-05-03T09:44:50.083Z</time></trkpt><trkpt lat="45.4942985" lon="11.4997672"><ele>71.0</ele><time>2026-05-03T09:44:51.083Z</time></trkpt><trkpt lat="45.4941586" lon="11.4997277"><ele>71.0</ele><time>2026-05-03T09:44:52.084Z</time></trkpt><trkpt lat="45.4940538" lon="11.4996838"><ele>71.0</ele><time>2026-05-03T09:44:53.083Z</time></trkpt><trkpt lat="45.4939747" lon="11.4996325"><ele>71.0</ele><time>2026-05-03T09:44:54.083Z</time></trkpt><trkpt lat="45.493925" lon="11.4995628"><ele>71.0</ele><time>2026-05-03T09:44:55.082Z</time></trkpt><trkpt lat="45.4939113" lon="11.4994747"><ele>71.0</ele><time>2026-05-03T09:44:56.083Z</time></trkpt><trkpt lat="45.4939271" lon="11.4993641"><ele>71.0</ele><time>2026-05-03T09:44:57.084Z</time></trkpt><trkpt lat="45.4939682" lon="11.49926"><ele>69.6</ele><time>2026-05-03T09:44:58.084Z</time></trkpt><trkpt lat="45.4940296" lon="11.4991489"><ele>68.19999999999999</ele><time>2026-05-03T09:44:59.083Z</time></trkpt><trkpt lat="45.4940821" lon="11.4990229"><ele>66.80000000000001</ele><time>2026-05-03T09:45:00.083Z</time></trkpt><trkpt lat="45.4941381" lon="11.4988937"><ele>65.4</ele><time>2026-05-03T09:45:01.083Z</time></trkpt><trkpt lat="45.4941864" lon="11.4987638"><ele>64.0</ele><time>2026-05-03T09:45:02.084Z</time></trkpt><trkpt lat="45.4942019" lon="11.4986238"><ele>63.99999999999999</ele><time>2026-05-03T09:45:03.083Z</time></trkpt><trkpt lat="45.4942126" lon="11.4984936"><ele>64.0</ele><time>2026-05-03T09:45:04.084Z</time></trkpt><trkpt lat="45.4941996" lon="11.4983698"><ele>64.0</ele><time>2026-05-03T09:45:05.084Z</time></trkpt><trkpt lat="45.4941656" lon="11.4982676"><ele>64.0</ele><time>2026-05-03T09:45:06.083Z</time></trkpt><trkpt lat="45.4941047" lon="11.4981904"><ele>63.99999999999999</ele><time>2026-05-03T09:45:07.084Z</time></trkpt><trkpt lat="45.4940331" lon="11.4981346"><ele>64.0</ele><time>2026-05-03T09:45:08.084Z</time></trkpt><trkpt lat="45.493949" lon="11.4981028"><ele>64.0</ele><time>2026-05-03T09:45:09.083Z</time></trkpt><trkpt lat="45.4938572" lon="11.4980961"><ele>64.0</ele><time>2026-05-03T09:45:10.082Z</time></trkpt><trkpt lat="45.4937569" lon="11.4981033"><ele>64.0</ele><time>2026-05-03T09:45:11.083Z</time></trkpt><trkpt lat="45.4936527" lon="11.4981157"><ele>64.0</ele><time>2026-05-03T09:45:12.083Z</time></trkpt><trkpt lat="45.4935454" lon="11.4981252"><ele>64.0</ele><time>2026-05-03T09:45:13.083Z</time></trkpt><trkpt lat="45.4934355" lon="11.4981327"><ele>69.75</ele><time>2026-05-03T09:45:14.083Z</time></trkpt><trkpt lat="45.4933201" lon="11.498142"><ele>75.5</ele><time>2026-05-03T09:45:15.082Z</time></trkpt><trkpt lat="45.4932055" lon="11.4981505"><ele>81.25</ele><time>2026-05-03T09:45:16.084Z</time></trkpt><trkpt lat="45.493092" lon="11.4981576"><ele>87.0</ele><time>2026-05-03T09:45:17.083Z</time></trkpt><trkpt lat="45.492982" lon="11.498159"><ele>91.0</ele><time>2026-05-03T09:45:18.084Z</time></trkpt><trkpt lat="45.4928673" lon="11.4981391"><ele>95.0</ele><time>2026-05-03T09:45:19.083Z</time></trkpt><trkpt lat="45.4927519" lon="11.4981195"><ele>99.0</ele><time>2026-05-03T09:45:20.083Z</time></trkpt><trkpt lat="45.4926366" lon="11.4980973"><ele>103.0</ele><time>2026-05-03T09:45:21.084Z</time></trkpt><trkpt lat="45.4925159" lon="11.4980756"><ele>103.0</ele><time>2026-05-03T09:45:22.083Z</time></trkpt><trkpt lat="45.49239" lon="11.4980551"><ele>103.0</ele><time>2026-05-03T09:45:23.083Z</time></trkpt><trkpt lat="45.4922517" lon="11.498025"><ele>103.0</ele><time>2026-05-03T09:45:24.083Z</time></trkpt><trkpt lat="45.4921118" lon="11.4979834"><ele>103.0</ele><time>2026-05-03T09:45:25.083Z</time></trkpt><trkpt lat="45.4919639" lon="11.4979263"><ele>102.5</ele><time>2026-05-03T09:45:26.082Z</time></trkpt><trkpt lat="45.4918225" lon="11.4978599"><ele>102.0</ele><time>2026-05-03T09:45:27.083Z</time></trkpt><trkpt lat="45.4916928" lon="11.4977757"><ele>101.5</ele><time>2026-05-03T09:45:28.083Z</time></trkpt><trkpt lat="45.4915722" lon="11.4976707"><ele>101.0</ele><time>2026-05-03T09:45:29.083Z</time></trkpt><trkpt lat="45.4914623" lon="11.4975478"><ele>101.0</ele><time>2026-05-03T09:45:30.083Z</time></trkpt><trkpt lat="45.4913632" lon="11.4974267"><ele>101.0</ele><time>2026-05-03T09:45:31.083Z</time></trkpt><trkpt lat="45.4912752" lon="11.4973179"><ele>101.0</ele><time>2026-05-03T09:45:32.083Z</time></trkpt><trkpt lat="45.4912038" lon="11.4972182"><ele>101.0</ele><time>2026-05-03T09:45:33.084Z</time></trkpt><trkpt lat="45.4911354" lon="11.497118"><ele>101.0</ele><time>2026-05-03T09:45:34.083Z</time></trkpt><trkpt lat="45.4910808" lon="11.4970251"><ele>103.83333333333333</ele><time>2026-05-03T09:45:35.083Z</time></trkpt><trkpt lat="45.4910364" lon="11.4969393"><ele>106.66666666666666</ele><time>2026-05-03T09:45:36.083Z</time></trkpt><trkpt lat="45.4909926" lon="11.4968645"><ele>109.5</ele><time>2026-05-03T09:45:37.084Z</time></trkpt><trkpt lat="45.4908851" lon="11.4968151"><ele>112.33333333333334</ele><time>2026-05-03T09:45:39.084Z</time></trkpt><trkpt lat="45.4907766" lon="11.4968976"><ele>115.16666666666667</ele><time>2026-05-03T09:45:41.084Z</time></trkpt><trkpt lat="45.4907103" lon="11.4969017"><ele>118.0</ele><time>2026-05-03T09:45:42.083Z</time></trkpt><trkpt lat="45.4906403" lon="11.4968849"><ele>118.0</ele><time>2026-05-03T09:45:43.083Z</time></trkpt><trkpt lat="45.49056" lon="11.496869"><ele>118.00000000000001</ele><time>2026-05-03T09:45:44.083Z</time></trkpt><trkpt lat="45.4904675" lon="11.4968493"><ele>118.00000000000001</ele><time>2026-05-03T09:45:45.083Z</time></trkpt><trkpt lat="45.4903654" lon="11.4968057"><ele>118.0</ele><time>2026-05-03T09:45:46.083Z</time></trkpt><trkpt lat="45.4902529" lon="11.4967503"><ele>118.0</ele><time>2026-05-03T09:45:47.084Z</time></trkpt><trkpt lat="45.4901349" lon="11.4967029"><ele>121.5</ele><time>2026-05-03T09:45:48.082Z</time></trkpt><trkpt lat="45.4900188" lon="11.496669"><ele>125.0</ele><time>2026-05-03T09:45:49.083Z</time></trkpt><trkpt lat="45.489904" lon="11.4966421"><ele>128.5</ele><time>2026-05-03T09:45:50.084Z</time></trkpt><trkpt lat="45.4897952" lon="11.4965982"><ele>132.0</ele><time>2026-05-03T09:45:51.083Z</time></trkpt><trkpt lat="45.4896962" lon="11.4965286"><ele>132.0</ele><time>2026-05-03T09:45:52.083Z</time></trkpt><trkpt lat="45.4896067" lon="11.4964347"><ele>132.0</ele><time>2026-05-03T09:45:53.083Z</time></trkpt><trkpt lat="45.4895313" lon="11.4963246"><ele>132.0</ele><time>2026-05-03T09:45:54.084Z</time></trkpt><trkpt lat="45.4894669" lon="11.4962123"><ele>132.0</ele><time>2026-05-03T09:45:55.083Z</time></trkpt><trkpt lat="45.4894051" lon="11.4960989"><ele>132.0</ele><time>2026-05-03T09:45:56.084Z</time></trkpt><trkpt lat="45.4893529" lon="11.4959829"><ele>135.16666666666666</ele><time>2026-05-03T09:45:57.083Z</time></trkpt><trkpt lat="45.4893066" lon="11.4958702"><ele>138.33333333333334</ele><time>2026-05-03T09:45:58.083Z</time></trkpt><trkpt lat="45.4892642" lon="11.4957639"><ele>141.5</ele><time>2026-05-03T09:45:59.083Z</time></trkpt><trkpt lat="45.4892215" lon="11.4956611"><ele>144.66666666666669</ele><time>2026-05-03T09:46:00.083Z</time></trkpt><trkpt lat="45.4891676" lon="11.4955607"><ele>147.83333333333334</ele><time>2026-05-03T09:46:01.084Z</time></trkpt><trkpt lat="45.4890975" lon="11.4954786"><ele>151.0</ele><time>2026-05-03T09:46:02.083Z</time></trkpt><trkpt lat="45.4890151" lon="11.4954209"><ele>150.8</ele><time>2026-05-03T09:46:03.083Z</time></trkpt><trkpt lat="45.4889263" lon="11.4953889"><ele>150.6</ele><time>2026-05-03T09:46:04.084Z</time></trkpt><trkpt lat="45.4888325" lon="11.4953788"><ele>150.4</ele><time>2026-05-03T09:46:05.083Z</time></trkpt><trkpt lat="45.4887401" lon="11.4953791"><ele>150.2</ele><time>2026-05-03T09:46:06.083Z</time></trkpt><trkpt lat="45.4886509" lon="11.4953904"><ele>150.0</ele><time>2026-05-03T09:46:07.083Z</time></trkpt><trkpt lat="45.4885713" lon="11.4954224"><ele>152.33333333333334</ele><time>2026-05-03T09:46:08.083Z</time></trkpt><trkpt lat="45.4884995" lon="11.4954796"><ele>154.66666666666666</ele><time>2026-05-03T09:46:09.083Z</time></trkpt><trkpt lat="45.4884371" lon="11.4955558"><ele>157.0</ele><time>2026-05-03T09:46:10.083Z</time></trkpt><trkpt lat="45.4883863" lon="11.4956325"><ele>159.33333333333331</ele><time>2026-05-03T09:46:11.083Z</time></trkpt><trkpt lat="45.4883378" lon="11.4957009"><ele>161.66666666666666</ele><time>2026-05-03T09:46:12.083Z</time></trkpt><trkpt lat="45.4882794" lon="11.4957617"><ele>164.0</ele><time>2026-05-03T09:46:13.083Z</time></trkpt><trkpt lat="45.4882153" lon="11.4958043"><ele>164.0</ele><time>2026-05-03T09:46:14.083Z</time></trkpt><trkpt lat="45.4881458" lon="11.4958326"><ele>164.0</ele><time>2026-05-03T09:46:15.083Z</time></trkpt><trkpt lat="45.4880734" lon="11.4958613"><ele>164.0</ele><time>2026-05-03T09:46:16.083Z</time></trkpt><trkpt lat="45.4879934" lon="11.4958839"><ele>164.0</ele><time>2026-05-03T09:46:17.083Z</time></trkpt><trkpt lat="45.4879086" lon="11.4959094"><ele>164.0</ele><time>2026-05-03T09:46:18.083Z</time></trkpt><trkpt lat="45.4878198" lon="11.4959415"><ele>164.0</ele><time>2026-05-03T09:46:19.083Z</time></trkpt><trkpt lat="45.4877263" lon="11.4959764"><ele>166.0</ele><time>2026-05-03T09:46:20.083Z</time></trkpt><trkpt lat="45.4876313" lon="11.4960155"><ele>168.0</ele><time>2026-05-03T09:46:21.083Z</time></trkpt><trkpt lat="45.487534" lon="11.4960551"><ele>170.0</ele><time>2026-05-03T09:46:22.083Z</time></trkpt><trkpt lat="45.4874372" lon="11.4960888"><ele>172.0</ele><time>2026-05-03T09:46:23.084Z</time></trkpt><trkpt lat="45.4873338" lon="11.4961232"><ele>174.0</ele><time>2026-05-03T09:46:24.083Z</time></trkpt><trkpt lat="45.4872298" lon="11.496159"><ele>174.0</ele><time>2026-05-03T09:46:25.083Z</time></trkpt><trkpt lat="45.4871279" lon="11.4961986"><ele>174.0</ele><time>2026-05-03T09:46:26.083Z</time></trkpt><trkpt lat="45.4870252" lon="11.496233"><ele>174.0</ele><time>2026-05-03T09:46:27.083Z</time></trkpt><trkpt lat="45.4869257" lon="11.4962673"><ele>174.0</ele><time>2026-05-03T09:46:28.084Z</time></trkpt><trkpt lat="45.486833" lon="11.4963014"><ele>174.0</ele><time>2026-05-03T09:46:29.083Z</time></trkpt><trkpt lat="45.4867415" lon="11.4963278"><ele>176.66666666666666</ele><time>2026-05-03T09:46:30.083Z</time></trkpt><trkpt lat="45.486656" lon="11.4963686"><ele>179.33333333333334</ele><time>2026-05-03T09:46:31.083Z</time></trkpt><trkpt lat="45.486585" lon="11.4964347"><ele>182.0</ele><time>2026-05-03T09:46:32.083Z</time></trkpt><trkpt lat="45.4865258" lon="11.4965241"><ele>184.66666666666669</ele><time>2026-05-03T09:46:33.083Z</time></trkpt><trkpt lat="45.4864684" lon="11.4966247"><ele>187.33333333333334</ele><time>2026-05-03T09:46:34.083Z</time></trkpt><trkpt lat="45.4864021" lon="11.496719"><ele>190.0</ele><time>2026-05-03T09:46:35.083Z</time></trkpt><trkpt lat="45.4863276" lon="11.496791"><ele>192.2</ele><time>2026-05-03T09:46:36.084Z</time></trkpt><trkpt lat="45.486245" lon="11.4968527"><ele>194.4</ele><time>2026-05-03T09:46:37.083Z</time></trkpt><trkpt lat="45.4861594" lon="11.496892"><ele>196.60000000000002</ele><time>2026-05-03T09:46:38.083Z</time></trkpt><trkpt lat="45.4860678" lon="11.4969169"><ele>198.8</ele><time>2026-05-03T09:46:39.083Z</time></trkpt><trkpt lat="45.4859718" lon="11.4969225"><ele>201.0</ele><time>2026-05-03T09:46:40.084Z</time></trkpt><trkpt lat="45.4858732" lon="11.4969116"><ele>201.0</ele><time>2026-05-03T09:46:41.084Z</time></trkpt><trkpt lat="45.485772" lon="11.4969003"><ele>201.0</ele><time>2026-05-03T09:46:42.083Z</time></trkpt><trkpt lat="45.4856647" lon="11.4968876"><ele>201.0</ele><time>2026-05-03T09:46:43.083Z</time></trkpt><trkpt lat="45.4855547" lon="11.4968799"><ele>201.0</ele><time>2026-05-03T09:46:44.084Z</time></trkpt><trkpt lat="45.4854419" lon="11.4968705"><ele>201.0</ele><time>2026-05-03T09:46:45.084Z</time></trkpt><trkpt lat="45.4853259" lon="11.4968639"><ele>201.60000000000002</ele><time>2026-05-03T09:46:46.084Z</time></trkpt><trkpt lat="45.4852094" lon="11.4968698"><ele>202.2</ele><time>2026-05-03T09:46:47.083Z</time></trkpt><trkpt lat="45.4851006" lon="11.4968955"><ele>202.8</ele><time>2026-05-03T09:46:48.083Z</time></trkpt><trkpt lat="45.4849998" lon="11.4969263"><ele>203.39999999999998</ele><time>2026-05-03T09:46:49.083Z</time></trkpt><trkpt lat="45.4849063" lon="11.496955"><ele>204.0</ele><time>2026-05-03T09:46:50.083Z</time></trkpt><trkpt lat="45.4848182" lon="11.4969656"><ele>204.0</ele><time>2026-05-03T09:46:51.084Z</time></trkpt><trkpt lat="45.4847304" lon="11.4969659"><ele>204.0</ele><time>2026-05-03T09:46:52.083Z</time></trkpt><trkpt lat="45.4846409" lon="11.4969507"><ele>204.0</ele><time>2026-05-03T09:46:53.083Z</time></trkpt><trkpt lat="45.4845509" lon="11.496926"><ele>204.0</ele><time>2026-05-03T09:46:54.083Z</time></trkpt><trkpt lat="45.4844606" lon="11.4969005"><ele>204.0</ele><time>2026-05-03T09:46:55.084Z</time></trkpt><trkpt lat="45.4843669" lon="11.4968837"><ele>204.16666666666666</ele><time>2026-05-03T09:46:56.083Z</time></trkpt><trkpt lat="45.484278" lon="11.4968702"><ele>204.33333333333331</ele><time>2026-05-03T09:46:57.083Z</time></trkpt><trkpt lat="45.4841931" lon="11.4968626"><ele>204.5</ele><time>2026-05-03T09:46:58.083Z</time></trkpt><trkpt lat="45.4841095" lon="11.4968604"><ele>204.66666666666666</ele><time>2026-05-03T09:46:59.084Z</time></trkpt><trkpt lat="45.484031" lon="11.4968647"><ele>204.83333333333331</ele><time>2026-05-03T09:47:00.083Z</time></trkpt><trkpt lat="45.483954" lon="11.4968748"><ele>205.0</ele><time>2026-05-03T09:47:01.083Z</time></trkpt><trkpt lat="45.4838755" lon="11.4968993"><ele>205.0</ele><time>2026-05-03T09:47:02.084Z</time></trkpt><trkpt lat="45.4837936" lon="11.496936"><ele>205.0</ele><time>2026-05-03T09:47:03.082Z</time></trkpt><trkpt lat="45.4837135" lon="11.4969852"><ele>205.0</ele><time>2026-05-03T09:47:04.083Z</time></trkpt><trkpt lat="45.4836283" lon="11.49704"><ele>205.0</ele><time>2026-05-03T09:47:05.083Z</time></trkpt><trkpt lat="45.4835375" lon="11.4971021"><ele>205.0</ele><time>2026-05-03T09:47:06.082Z</time></trkpt><trkpt lat="45.4834477" lon="11.4971733"><ele>206.16666666666666</ele><time>2026-05-03T09:47:07.084Z</time></trkpt><trkpt lat="45.4833596" lon="11.4972245"><ele>207.33333333333331</ele><time>2026-05-03T09:47:08.083Z</time></trkpt><trkpt lat="45.4832823" lon="11.4972599"><ele>208.5</ele><time>2026-05-03T09:47:09.083Z</time></trkpt><trkpt lat="45.4832113" lon="11.4972855"><ele>209.66666666666669</ele><time>2026-05-03T09:47:10.083Z</time></trkpt><trkpt lat="45.4831486" lon="11.4973008"><ele>210.83333333333334</ele><time>2026-05-03T09:47:11.084Z</time></trkpt><trkpt lat="45.4830186" lon="11.4972855"><ele>212.0</ele><time>2026-05-03T09:47:13.084Z</time></trkpt><trkpt lat="45.4829402" lon="11.4972507"><ele>210.8</ele><time>2026-05-03T09:47:14.084Z</time></trkpt><trkpt lat="45.4828545" lon="11.4972073"><ele>209.6</ele><time>2026-05-03T09:47:15.083Z</time></trkpt><trkpt lat="45.482758" lon="11.497163"><ele>208.4</ele><time>2026-05-03T09:47:16.083Z</time></trkpt><trkpt lat="45.4826578" lon="11.4971165"><ele>207.20000000000002</ele><time>2026-05-03T09:47:17.083Z</time></trkpt><trkpt lat="45.4825567" lon="11.4970681"><ele>206.0</ele><time>2026-05-03T09:47:18.083Z</time></trkpt><trkpt lat="45.4824516" lon="11.4970195"><ele>208.20000000000002</ele><time>2026-05-03T09:47:19.084Z</time></trkpt><trkpt lat="45.4823473" lon="11.4969713"><ele>210.4</ele><time>2026-05-03T09:47:20.083Z</time></trkpt><trkpt lat="45.4822486" lon="11.4969303"><ele>212.6</ele><time>2026-05-03T09:47:21.083Z</time></trkpt><trkpt lat="45.4821455" lon="11.4968928"><ele>214.8</ele><time>2026-05-03T09:47:22.083Z</time></trkpt><trkpt lat="45.4820429" lon="11.4968597"><ele>217.0</ele><time>2026-05-03T09:47:23.083Z</time></trkpt><trkpt lat="45.4819451" lon="11.4968179"><ele>217.0</ele><time>2026-05-03T09:47:24.083Z</time></trkpt><trkpt lat="45.4818473" lon="11.4967702"><ele>217.0</ele><time>2026-05-03T09:47:25.083Z</time></trkpt><trkpt lat="45.4817495" lon="11.4967137"><ele>217.0</ele><time>2026-05-03T09:47:26.083Z</time></trkpt><trkpt lat="45.4816541" lon="11.4966531"><ele>217.0</ele><time>2026-05-03T09:47:27.084Z</time></trkpt><trkpt lat="45.4815578" lon="11.4965924"><ele>217.0</ele><time>2026-05-03T09:47:28.084Z</time></trkpt><trkpt lat="45.4814606" lon="11.4965221"><ele>217.0</ele><time>2026-05-03T09:47:29.084Z</time></trkpt><trkpt lat="45.4813652" lon="11.4964358"><ele>217.0</ele><time>2026-05-03T09:47:30.083Z</time></trkpt><trkpt lat="45.4812722" lon="11.4963383"><ele>217.0</ele><time>2026-05-03T09:47:31.084Z</time></trkpt><trkpt lat="45.4811845" lon="11.4962416"><ele>217.0</ele><time>2026-05-03T09:47:32.083Z</time></trkpt><trkpt lat="45.4810919" lon="11.4961477"><ele>219.25</ele><time>2026-05-03T09:47:33.084Z</time></trkpt><trkpt lat="45.4809901" lon="11.4960583"><ele>221.5</ele><time>2026-05-03T09:47:34.083Z</time></trkpt><trkpt lat="45.4808837" lon="11.4959833"><ele>223.75</ele><time>2026-05-03T09:47:35.083Z</time></trkpt><trkpt lat="45.480783" lon="11.4959248"><ele>226.0</ele><time>2026-05-03T09:47:36.083Z</time></trkpt><trkpt lat="45.4806723" lon="11.4958666"><ele>226.0</ele><time>2026-05-03T09:47:37.084Z</time></trkpt><trkpt lat="45.4805543" lon="11.4958114"><ele>226.0</ele><time>2026-05-03T09:47:38.084Z</time></trkpt><trkpt lat="45.4804285" lon="11.4957599"><ele>226.0</ele><time>2026-05-03T09:47:39.084Z</time></trkpt><trkpt lat="45.4803025" lon="11.4957033"><ele>226.0</ele><time>2026-05-03T09:47:40.083Z</time></trkpt><trkpt lat="45.4801817" lon="11.4956483"><ele>226.60000000000002</ele><time>2026-05-03T09:47:41.083Z</time></trkpt><trkpt lat="45.4800737" lon="11.4956027"><ele>227.20000000000002</ele><time>2026-05-03T09:47:42.083Z</time></trkpt><trkpt lat="45.479959" lon="11.4955638"><ele>227.79999999999998</ele><time>2026-05-03T09:47:43.084Z</time></trkpt><trkpt lat="45.4798557" lon="11.4955214"><ele>228.39999999999998</ele><time>2026-05-03T09:47:44.083Z</time></trkpt><trkpt lat="45.4797765" lon="11.4954668"><ele>229.0</ele><time>2026-05-03T09:47:45.083Z</time></trkpt><trkpt lat="45.4796819" lon="11.4954174"><ele>226.39999999999998</ele><time>2026-05-03T09:47:46.082Z</time></trkpt><trkpt lat="45.4795855" lon="11.4953575"><ele>223.79999999999998</ele><time>2026-05-03T09:47:47.083Z</time></trkpt><trkpt lat="45.4794871" lon="11.4952922"><ele>221.20000000000002</ele><time>2026-05-03T09:47:48.084Z</time></trkpt><trkpt lat="45.479393" lon="11.4952247"><ele>218.60000000000002</ele><time>2026-05-03T09:47:49.083Z</time></trkpt><trkpt lat="45.4793002" lon="11.495159"><ele>216.0</ele><time>2026-05-03T09:47:50.082Z</time></trkpt><trkpt lat="45.479211" lon="11.495097"><ele>216.0</ele><time>2026-05-03T09:47:51.083Z</time></trkpt><trkpt lat="45.4791317" lon="11.4950299"><ele>216.0</ele><time>2026-05-03T09:47:52.083Z</time></trkpt><trkpt lat="45.4790611" lon="11.4949597"><ele>216.0</ele><time>2026-05-03T09:47:53.084Z</time></trkpt><trkpt lat="45.4789963" lon="11.4948824"><ele>216.0</ele><time>2026-05-03T09:47:54.084Z</time></trkpt><trkpt lat="45.4789446" lon="11.4948071"><ele>216.0</ele><time>2026-05-03T09:47:55.083Z</time></trkpt><trkpt lat="45.4789111" lon="11.4947306"><ele>216.0</ele><time>2026-05-03T09:47:56.084Z</time></trkpt><trkpt lat="45.4789292" lon="11.4945554"><ele>217.66666666666666</ele><time>2026-05-03T09:47:58.083Z</time></trkpt><trkpt lat="45.47897" lon="11.4944629"><ele>219.33333333333331</ele><time>2026-05-03T09:47:59.084Z</time></trkpt><trkpt lat="45.4790191" lon="11.4943646"><ele>221.0</ele><time>2026-05-03T09:48:00.083Z</time></trkpt><trkpt lat="45.4790649" lon="11.494262"><ele>222.66666666666666</ele><time>2026-05-03T09:48:01.083Z</time></trkpt><trkpt lat="45.4791098" lon="11.4941512"><ele>224.33333333333331</ele><time>2026-05-03T09:48:02.083Z</time></trkpt><trkpt lat="45.4791637" lon="11.4940432"><ele>226.0</ele><time>2026-05-03T09:48:03.083Z</time></trkpt><trkpt lat="45.4792287" lon="11.4939459"><ele>226.0</ele><time>2026-05-03T09:48:04.084Z</time></trkpt><trkpt lat="45.4792983" lon="11.4938561"><ele>226.00000000000003</ele><time>2026-05-03T09:48:05.083Z</time></trkpt><trkpt lat="45.4793677" lon="11.4937724"><ele>226.00000000000003</ele><time>2026-05-03T09:48:06.083Z</time></trkpt><trkpt lat="45.4794378" lon="11.4936976"><ele>226.0</ele><time>2026-05-03T09:48:07.083Z</time></trkpt><trkpt lat="45.4794977" lon="11.4936351"><ele>226.0</ele><time>2026-05-03T09:48:08.083Z</time></trkpt><trkpt lat="45.4795912" lon="11.4935299"><ele>225.83333333333331</ele><time>2026-05-03T09:48:10.083Z</time></trkpt><trkpt lat="45.4796291" lon="11.4934142"><ele>225.66666666666666</ele><time>2026-05-03T09:48:12.083Z</time></trkpt><trkpt lat="45.4795544" lon="11.4933489"><ele>225.5</ele><time>2026-05-03T09:48:14.084Z</time></trkpt><trkpt lat="45.479487" lon="11.4933453"><ele>225.33333333333331</ele><time>2026-05-03T09:48:15.083Z</time></trkpt><trkpt lat="45.4794094" lon="11.4933459"><ele>225.16666666666666</ele><time>2026-05-03T09:48:16.083Z</time></trkpt><trkpt lat="45.4793228" lon="11.4933486"><ele>225.0</ele><time>2026-05-03T09:48:17.083Z</time></trkpt><trkpt lat="45.4792296" lon="11.4933656"><ele>226.0</ele><time>2026-05-03T09:48:18.083Z</time></trkpt><trkpt lat="45.4791279" lon="11.493375"><ele>227.0</ele><time>2026-05-03T09:48:19.083Z</time></trkpt><trkpt lat="45.4790176" lon="11.4933872"><ele>228.0</ele><time>2026-05-03T09:48:20.083Z</time></trkpt><trkpt lat="45.4789097" lon="11.4933923"><ele>229.0</ele><time>2026-05-03T09:48:21.084Z</time></trkpt><trkpt lat="45.478802" lon="11.4933799"><ele>230.0</ele><time>2026-05-03T09:48:22.083Z</time></trkpt><trkpt lat="45.4786915" lon="11.4933558"><ele>231.0</ele><time>2026-05-03T09:48:23.084Z</time></trkpt><trkpt lat="45.4785835" lon="11.4933243"><ele>232.0</ele><time>2026-05-03T09:48:24.083Z</time></trkpt><trkpt lat="45.4784772" lon="11.4932927"><ele>233.0</ele><time>2026-05-03T09:48:25.084Z</time></trkpt><trkpt lat="45.4783727" lon="11.493258"><ele>234.0</ele><time>2026-05-03T09:48:26.083Z</time></trkpt><trkpt lat="45.4782729" lon="11.4932248"><ele>235.0</ele><time>2026-05-03T09:48:27.084Z</time></trkpt><trkpt lat="45.4781814" lon="11.4931912"><ele>234.99999999999997</ele><time>2026-05-03T09:48:28.083Z</time></trkpt><trkpt lat="45.4780932" lon="11.4931507"><ele>235.0</ele><time>2026-05-03T09:48:29.083Z</time></trkpt><trkpt lat="45.4780144" lon="11.4930939"><ele>235.0</ele><time>2026-05-03T09:48:30.083Z</time></trkpt><trkpt lat="45.4779535" lon="11.4930144"><ele>235.0</ele><time>2026-05-03T09:48:31.083Z</time></trkpt><trkpt lat="45.4779148" lon="11.4929297"><ele>234.99999999999997</ele><time>2026-05-03T09:48:32.084Z</time></trkpt><trkpt lat="45.477897" lon="11.4928056"><ele>235.0</ele><time>2026-05-03T09:48:34.083Z</time></trkpt><trkpt lat="45.4779084" lon="11.4927046"><ele>235.33333333333331</ele><time>2026-05-03T09:48:37.083Z</time></trkpt><trkpt lat="45.477932" lon="11.4925951"><ele>235.66666666666666</ele><time>2026-05-03T09:48:39.083Z</time></trkpt><trkpt lat="45.4779636" lon="11.4925153"><ele>236.0</ele><time>2026-05-03T09:48:40.083Z</time></trkpt><trkpt lat="45.4780027" lon="11.4924204"><ele>236.33333333333331</ele><time>2026-05-03T09:48:41.082Z</time></trkpt><trkpt lat="45.4780412" lon="11.4923029"><ele>236.66666666666666</ele><time>2026-05-03T09:48:42.083Z</time></trkpt><trkpt lat="45.4780815" lon="11.492172"><ele>237.0</ele><time>2026-05-03T09:48:43.083Z</time></trkpt><trkpt lat="45.4781249" lon="11.492031"><ele>238.5</ele><time>2026-05-03T09:48:44.083Z</time></trkpt><trkpt lat="45.478169" lon="11.4918785"><ele>240.0</ele><time>2026-05-03T09:48:45.083Z</time></trkpt><trkpt lat="45.4782157" lon="11.4917192"><ele>241.5</ele><time>2026-05-03T09:48:46.083Z</time></trkpt><trkpt lat="45.4782625" lon="11.4915595"><ele>243.0</ele><time>2026-05-03T09:48:47.083Z</time></trkpt><trkpt lat="45.478305" lon="11.4914024"><ele>244.4</ele><time>2026-05-03T09:48:48.084Z</time></trkpt><trkpt lat="45.4783404" lon="11.4912483"><ele>245.8</ele><time>2026-05-03T09:48:49.083Z</time></trkpt><trkpt lat="45.4783644" lon="11.4910946"><ele>247.2</ele><time>2026-05-03T09:48:50.083Z</time></trkpt><trkpt lat="45.4783742" lon="11.4909428"><ele>248.6</ele><time>2026-05-03T09:48:51.084Z</time></trkpt><trkpt lat="45.478377" lon="11.4907906"><ele>250.0</ele><time>2026-05-03T09:48:52.083Z</time></trkpt><trkpt lat="45.4783788" lon="11.4906338"><ele>250.0</ele><time>2026-05-03T09:48:53.084Z</time></trkpt><trkpt lat="45.4783809" lon="11.490476"><ele>250.0</ele><time>2026-05-03T09:48:54.083Z</time></trkpt><trkpt lat="45.4783838" lon="11.4903168"><ele>250.0</ele><time>2026-05-03T09:48:55.084Z</time></trkpt><trkpt lat="45.4783857" lon="11.4901553"><ele>250.0</ele><time>2026-05-03T09:48:56.084Z</time></trkpt><trkpt lat="45.4783773" lon="11.4899903"><ele>249.75</ele><time>2026-05-03T09:48:57.084Z</time></trkpt><trkpt lat="45.478348" lon="11.4898244"><ele>249.5</ele><time>2026-05-03T09:48:58.083Z</time></trkpt><trkpt lat="45.4783053" lon="11.4896612"><ele>249.25</ele><time>2026-05-03T09:48:59.083Z</time></trkpt><trkpt lat="45.478262" lon="11.4894952"><ele>249.0</ele><time>2026-05-03T09:49:00.083Z</time></trkpt><trkpt lat="45.4782248" lon="11.4893309"><ele>248.5</ele><time>2026-05-03T09:49:01.083Z</time></trkpt><trkpt lat="45.4781883" lon="11.4891559"><ele>248.0</ele><time>2026-05-03T09:49:02.083Z</time></trkpt><trkpt lat="45.4781519" lon="11.4889749"><ele>247.5</ele><time>2026-05-03T09:49:03.083Z</time></trkpt><trkpt lat="45.4781171" lon="11.4887899"><ele>247.0</ele><time>2026-05-03T09:49:04.084Z</time></trkpt><trkpt lat="45.4780838" lon="11.4886034"><ele>247.0</ele><time>2026-05-03T09:49:05.083Z</time></trkpt><trkpt lat="45.4780518" lon="11.4884179"><ele>247.0</ele><time>2026-05-03T09:49:06.083Z</time></trkpt><trkpt lat="45.4780258" lon="11.4882437"><ele>247.0</ele><time>2026-05-03T09:49:07.083Z</time></trkpt><trkpt lat="45.4780018" lon="11.4880786"><ele>247.0</ele><time>2026-05-03T09:49:08.084Z</time></trkpt><trkpt lat="45.4779831" lon="11.4879073"><ele>248.5</ele><time>2026-05-03T09:49:09.083Z</time></trkpt><trkpt lat="45.4779784" lon="11.48773"><ele>250.0</ele><time>2026-05-03T09:49:10.083Z</time></trkpt><trkpt lat="45.477992" lon="11.4875591"><ele>251.5</ele><time>2026-05-03T09:49:11.082Z</time></trkpt><trkpt lat="45.4780106" lon="11.4873791"><ele>253.0</ele><time>2026-05-03T09:49:12.083Z</time></trkpt><trkpt lat="45.4780267" lon="11.4871954"><ele>252.75</ele><time>2026-05-03T09:49:13.084Z</time></trkpt><trkpt lat="45.4780446" lon="11.4870131"><ele>252.5</ele><time>2026-05-03T09:49:14.083Z</time></trkpt><trkpt lat="45.4780638" lon="11.4868286"><ele>252.25</ele><time>2026-05-03T09:49:15.083Z</time></trkpt><trkpt lat="45.4780879" lon="11.4866445"><ele>252.0</ele><time>2026-05-03T09:49:16.084Z</time></trkpt><trkpt lat="45.4781222" lon="11.4864582"><ele>252.0</ele><time>2026-05-03T09:49:17.083Z</time></trkpt><trkpt lat="45.4781626" lon="11.4862701"><ele>252.0</ele><time>2026-05-03T09:49:18.083Z</time></trkpt><trkpt lat="45.4782038" lon="11.4860841"><ele>252.0</ele><time>2026-05-03T09:49:19.083Z</time></trkpt><trkpt lat="45.4782469" lon="11.4858952"><ele>252.0</ele><time>2026-05-03T09:49:20.083Z</time></trkpt><trkpt lat="45.4782882" lon="11.4857056"><ele>251.0</ele><time>2026-05-03T09:49:21.083Z</time></trkpt><trkpt lat="45.4783324" lon="11.4855215"><ele>250.0</ele><time>2026-05-03T09:49:22.082Z</time></trkpt><trkpt lat="45.478375" lon="11.4853482"><ele>249.0</ele><time>2026-05-03T09:49:23.083Z</time></trkpt><trkpt lat="45.4784164" lon="11.4851828"><ele>248.0</ele><time>2026-05-03T09:49:24.083Z</time></trkpt><trkpt lat="45.4784549" lon="11.4850239"><ele>246.5</ele><time>2026-05-03T09:49:25.083Z</time></trkpt><trkpt lat="45.4784916" lon="11.484868"><ele>245.0</ele><time>2026-05-03T09:49:26.082Z</time></trkpt><trkpt lat="45.4785257" lon="11.4847147"><ele>243.5</ele><time>2026-05-03T09:49:27.083Z</time></trkpt><trkpt lat="45.4785557" lon="11.4845606"><ele>242.0</ele><time>2026-05-03T09:49:28.083Z</time></trkpt><trkpt lat="45.478584" lon="11.4844077"><ele>240.75</ele><time>2026-05-03T09:49:29.083Z</time></trkpt><trkpt lat="45.4786085" lon="11.4842532"><ele>239.5</ele><time>2026-05-03T09:49:30.083Z</time></trkpt><trkpt lat="45.4786296" lon="11.484098"><ele>238.25</ele><time>2026-05-03T09:49:31.083Z</time></trkpt><trkpt lat="45.4786471" lon="11.4839403"><ele>237.0</ele><time>2026-05-03T09:49:32.083Z</time></trkpt><trkpt lat="45.478663" lon="11.4837755"><ele>236.5</ele><time>2026-05-03T09:49:33.083Z</time></trkpt><trkpt lat="45.4786849" lon="11.4836139"><ele>236.0</ele><time>2026-05-03T09:49:34.083Z</time></trkpt><trkpt lat="45.4787048" lon="11.483447"><ele>235.5</ele><time>2026-05-03T09:49:35.083Z</time></trkpt><trkpt lat="45.4787103" lon="11.4832819"><ele>235.0</ele><time>2026-05-03T09:49:36.083Z</time></trkpt><trkpt lat="45.4786968" lon="11.4831175"><ele>235.0</ele><time>2026-05-03T09:49:37.083Z</time></trkpt><trkpt lat="45.4786697" lon="11.4829595"><ele>235.0</ele><time>2026-05-03T09:49:38.082Z</time></trkpt><trkpt lat="45.4786361" lon="11.4828004"><ele>235.0</ele><time>2026-05-03T09:49:39.083Z</time></trkpt><trkpt lat="45.4786012" lon="11.4826442"><ele>235.0</ele><time>2026-05-03T09:49:40.083Z</time></trkpt><trkpt lat="45.4785661" lon="11.4824876"><ele>236.2</ele><time>2026-05-03T09:49:41.083Z</time></trkpt><trkpt lat="45.4785375" lon="11.4823361"><ele>237.4</ele><time>2026-05-03T09:49:42.084Z</time></trkpt><trkpt lat="45.4785127" lon="11.4822024"><ele>238.60000000000002</ele><time>2026-05-03T09:49:43.083Z</time></trkpt><trkpt lat="45.4784773" lon="11.4820808"><ele>239.8</ele><time>2026-05-03T09:49:44.083Z</time></trkpt><trkpt lat="45.4784271" lon="11.4819795"><ele>241.0</ele><time>2026-05-03T09:49:45.083Z</time></trkpt><trkpt lat="45.47836" lon="11.4819065"><ele>241.0</ele><time>2026-05-03T09:49:46.083Z</time></trkpt><trkpt lat="45.4782834" lon="11.4818809"><ele>241.00000000000003</ele><time>2026-05-03T09:49:47.083Z</time></trkpt><trkpt lat="45.4782019" lon="11.4818974"><ele>241.00000000000003</ele><time>2026-05-03T09:49:48.083Z</time></trkpt><trkpt lat="45.4781313" lon="11.4819652"><ele>241.0</ele><time>2026-05-03T09:49:49.083Z</time></trkpt><trkpt lat="45.4780541" lon="11.4820384"><ele>241.0</ele><time>2026-05-03T09:49:50.083Z</time></trkpt><trkpt lat="45.4780236" lon="11.4822069"><ele>241.0</ele><time>2026-05-03T09:49:51.083Z</time></trkpt><trkpt lat="45.4779654" lon="11.4823641"><ele>241.0</ele><time>2026-05-03T09:49:52.084Z</time></trkpt><trkpt lat="45.4779056" lon="11.4825394"><ele>241.0</ele><time>2026-05-03T09:49:53.083Z</time></trkpt><trkpt lat="45.4778424" lon="11.4827312"><ele>241.0</ele><time>2026-05-03T09:49:54.083Z</time></trkpt><trkpt lat="45.4777785" lon="11.4829361"><ele>242.66666666666666</ele><time>2026-05-03T09:49:55.083Z</time></trkpt><trkpt lat="45.4777054" lon="11.4831423"><ele>244.33333333333331</ele><time>2026-05-03T09:49:56.083Z</time></trkpt><trkpt lat="45.477629" lon="11.4833379"><ele>246.0</ele><time>2026-05-03T09:49:57.083Z</time></trkpt><trkpt lat="45.47755" lon="11.48352"><ele>246.0</ele><time>2026-05-03T09:49:58.083Z</time></trkpt><trkpt lat="45.4774757" lon="11.4836972"><ele>246.0</ele><time>2026-05-03T09:49:59.083Z</time></trkpt><trkpt lat="45.4773982" lon="11.4838572"><ele>246.0</ele><time>2026-05-03T09:50:00.083Z</time></trkpt><trkpt lat="45.4772987" lon="11.4839986"><ele>246.0</ele><time>2026-05-03T09:50:01.084Z</time></trkpt><trkpt lat="45.477176" lon="11.4841077"><ele>242.25</ele><time>2026-05-03T09:50:02.083Z</time></trkpt><trkpt lat="45.4770502" lon="11.4841927"><ele>238.5</ele><time>2026-05-03T09:50:03.083Z</time></trkpt><trkpt lat="45.4769271" lon="11.4842455"><ele>234.75</ele><time>2026-05-03T09:50:04.083Z</time></trkpt><trkpt lat="45.4768001" lon="11.4842519"><ele>231.0</ele><time>2026-05-03T09:50:05.083Z</time></trkpt><trkpt lat="45.4766705" lon="11.484212"><ele>231.0</ele><time>2026-05-03T09:50:06.083Z</time></trkpt><trkpt lat="45.4765476" lon="11.4841615"><ele>231.00000000000003</ele><time>2026-05-03T09:50:07.084Z</time></trkpt><trkpt lat="45.4764482" lon="11.4840998"><ele>231.00000000000003</ele><time>2026-05-03T09:50:08.084Z</time></trkpt><trkpt lat="45.4763795" lon="11.484"><ele>231.0</ele><time>2026-05-03T09:50:09.083Z</time></trkpt><trkpt lat="45.4763551" lon="11.4838893"><ele>231.0</ele><time>2026-05-03T09:50:10.082Z</time></trkpt><trkpt lat="45.4763712" lon="11.4837747"><ele>231.60000000000002</ele><time>2026-05-03T09:50:11.083Z</time></trkpt><trkpt lat="45.4764115" lon="11.48366"><ele>232.20000000000002</ele><time>2026-05-03T09:50:12.083Z</time></trkpt><trkpt lat="45.4764567" lon="11.4835393"><ele>232.79999999999998</ele><time>2026-05-03T09:50:13.083Z</time></trkpt><trkpt lat="45.4764993" lon="11.4833872"><ele>233.39999999999998</ele><time>2026-05-03T09:50:14.084Z</time></trkpt><trkpt lat="45.4765489" lon="11.483225"><ele>234.0</ele><time>2026-05-03T09:50:15.083Z</time></trkpt><trkpt lat="45.4766022" lon="11.4830547"><ele>231.75</ele><time>2026-05-03T09:50:16.083Z</time></trkpt><trkpt lat="45.4766504" lon="11.4828702"><ele>229.5</ele><time>2026-05-03T09:50:17.084Z</time></trkpt><trkpt lat="45.4766814" lon="11.4826691"><ele>227.25</ele><time>2026-05-03T09:50:18.083Z</time></trkpt><trkpt lat="45.4767053" lon="11.4824604"><ele>225.0</ele><time>2026-05-03T09:50:19.083Z</time></trkpt><trkpt lat="45.476719" lon="11.4822414"><ele>223.66666666666669</ele><time>2026-05-03T09:50:20.083Z</time></trkpt><trkpt lat="45.4767305" lon="11.4820213"><ele>222.33333333333334</ele><time>2026-05-03T09:50:21.083Z</time></trkpt><trkpt lat="45.4767435" lon="11.4817978"><ele>221.0</ele><time>2026-05-03T09:50:22.083Z</time></trkpt><trkpt lat="45.4767703" lon="11.4815742"><ele>221.0</ele><time>2026-05-03T09:50:23.083Z</time></trkpt><trkpt lat="45.4768065" lon="11.4813525"><ele>221.0</ele><time>2026-05-03T09:50:24.083Z</time></trkpt><trkpt lat="45.4768437" lon="11.4811321"><ele>221.0</ele><time>2026-05-03T09:50:25.084Z</time></trkpt><trkpt lat="45.4768817" lon="11.4809097"><ele>217.33333333333334</ele><time>2026-05-03T09:50:26.084Z</time></trkpt><trkpt lat="45.4769186" lon="11.4806826"><ele>213.66666666666669</ele><time>2026-05-03T09:50:27.083Z</time></trkpt><trkpt lat="45.4769562" lon="11.4804621"><ele>210.0</ele><time>2026-05-03T09:50:28.083Z</time></trkpt><trkpt lat="45.4769957" lon="11.4802403"><ele>206.33333333333331</ele><time>2026-05-03T09:50:29.083Z</time></trkpt><trkpt lat="45.4770348" lon="11.4800182"><ele>202.66666666666666</ele><time>2026-05-03T09:50:30.083Z</time></trkpt><trkpt lat="45.4770737" lon="11.4798017"><ele>199.0</ele><time>2026-05-03T09:50:31.084Z</time></trkpt><trkpt lat="45.4771065" lon="11.4795843"><ele>214.66666666666666</ele><time>2026-05-03T09:50:32.083Z</time></trkpt><trkpt lat="45.4771293" lon="11.4793703"><ele>230.33333333333331</ele><time>2026-05-03T09:50:33.083Z</time></trkpt><trkpt lat="45.4771397" lon="11.4791543"><ele>246.0</ele><time>2026-05-03T09:50:34.083Z</time></trkpt><trkpt lat="45.4771369" lon="11.4789312"><ele>247.0</ele><time>2026-05-03T09:50:35.083Z</time></trkpt><trkpt lat="45.4771309" lon="11.4787073"><ele>248.0</ele><time>2026-05-03T09:50:36.083Z</time></trkpt><trkpt lat="45.4771207" lon="11.4784789"><ele>249.0</ele><time>2026-05-03T09:50:37.083Z</time></trkpt><trkpt lat="45.4771107" lon="11.4782522"><ele>235.0</ele><time>2026-05-03T09:50:38.084Z</time></trkpt><trkpt lat="45.477099" lon="11.4780293"><ele>221.0</ele><time>2026-05-03T09:50:39.083Z</time></trkpt><trkpt lat="45.4770895" lon="11.4778197"><ele>207.0</ele><time>2026-05-03T09:50:40.083Z</time></trkpt><trkpt lat="45.4770911" lon="11.4776137"><ele>193.0</ele><time>2026-05-03T09:50:41.083Z</time></trkpt><trkpt lat="45.4771019" lon="11.4774016"><ele>209.66666666666666</ele><time>2026-05-03T09:50:42.083Z</time></trkpt><trkpt lat="45.47712" lon="11.4771834"><ele>226.33333333333331</ele><time>2026-05-03T09:50:43.084Z</time></trkpt><trkpt lat="45.4771394" lon="11.4769621"><ele>243.0</ele><time>2026-05-03T09:50:44.083Z</time></trkpt><trkpt lat="45.4771547" lon="11.476735"><ele>243.0</ele><time>2026-05-03T09:50:45.083Z</time></trkpt><trkpt lat="45.4771608" lon="11.4765082"><ele>243.0</ele><time>2026-05-03T09:50:46.083Z</time></trkpt><trkpt lat="45.4771555" lon="11.4762781"><ele>243.0</ele><time>2026-05-03T09:50:47.084Z</time></trkpt><trkpt lat="45.4771358" lon="11.4760419"><ele>242.0</ele><time>2026-05-03T09:50:48.083Z</time></trkpt><trkpt lat="45.4771109" lon="11.4758055"><ele>241.0</ele><time>2026-05-03T09:50:49.083Z</time></trkpt><trkpt lat="45.4770938" lon="11.4755549"><ele>240.0</ele><time>2026-05-03T09:50:50.082Z</time></trkpt><trkpt lat="45.4770884" lon="11.4752983"><ele>224.0</ele><time>2026-05-03T09:50:51.083Z</time></trkpt><trkpt lat="45.4770877" lon="11.4750457"><ele>208.0</ele><time>2026-05-03T09:50:52.084Z</time></trkpt><trkpt lat="45.477087" lon="11.474804"><ele>192.0</ele><time>2026-05-03T09:50:53.083Z</time></trkpt><trkpt lat="45.4770905" lon="11.4745712"><ele>204.66666666666669</ele><time>2026-05-03T09:50:54.084Z</time></trkpt><trkpt lat="45.4771099" lon="11.4743453"><ele>217.33333333333334</ele><time>2026-05-03T09:50:55.083Z</time></trkpt><trkpt lat="45.4771391" lon="11.4741249"><ele>230.0</ele><time>2026-05-03T09:50:56.083Z</time></trkpt><trkpt lat="45.4771713" lon="11.4739124"><ele>226.75</ele><time>2026-05-03T09:50:57.084Z</time></trkpt><trkpt lat="45.477203" lon="11.4737049"><ele>223.5</ele><time>2026-05-03T09:50:58.083Z</time></trkpt><trkpt lat="45.4772256" lon="11.4734962"><ele>220.25</ele><time>2026-05-03T09:50:59.084Z</time></trkpt><trkpt lat="45.4772288" lon="11.4732907"><ele>217.0</ele><time>2026-05-03T09:51:00.083Z</time></trkpt><trkpt lat="45.4772161" lon="11.4730889"><ele>216.25</ele><time>2026-05-03T09:51:01.084Z</time></trkpt><trkpt lat="45.4771877" lon="11.472897"><ele>215.5</ele><time>2026-05-03T09:51:02.083Z</time></trkpt><trkpt lat="45.4771355" lon="11.4727248"><ele>214.75</ele><time>2026-05-03T09:51:03.083Z</time></trkpt><trkpt lat="45.4770599" lon="11.4725767"><ele>214.0</ele><time>2026-05-03T09:51:04.083Z</time></trkpt><trkpt lat="45.4769703" lon="11.4724517"><ele>206.75</ele><time>2026-05-03T09:51:05.084Z</time></trkpt><trkpt lat="45.4768845" lon="11.4723364"><ele>199.5</ele><time>2026-05-03T09:51:06.083Z</time></trkpt><trkpt lat="45.4768237" lon="11.4722101"><ele>192.25</ele><time>2026-05-03T09:51:07.084Z</time></trkpt><trkpt lat="45.4767755" lon="11.4720682"><ele>185.0</ele><time>2026-05-03T09:51:08.084Z</time></trkpt><trkpt lat="45.4767575" lon="11.4719043"><ele>184.75</ele><time>2026-05-03T09:51:09.083Z</time></trkpt><trkpt lat="45.4767499" lon="11.4717246"><ele>184.5</ele><time>2026-05-03T09:51:10.082Z</time></trkpt><trkpt lat="45.4767344" lon="11.4715344"><ele>184.25</ele><time>2026-05-03T09:51:11.083Z</time></trkpt><trkpt lat="45.4767219" lon="11.47134"><ele>184.0</ele><time>2026-05-03T09:51:12.083Z</time></trkpt><trkpt lat="45.4767108" lon="11.4711426"><ele>184.66666666666669</ele><time>2026-05-03T09:51:13.083Z</time></trkpt><trkpt lat="45.4766924" lon="11.470936"><ele>185.33333333333334</ele><time>2026-05-03T09:51:14.084Z</time></trkpt><trkpt lat="45.4766695" lon="11.4707207"><ele>186.0</ele><time>2026-05-03T09:51:15.083Z</time></trkpt><trkpt lat="45.4766383" lon="11.4705059"><ele>185.33333333333334</ele><time>2026-05-03T09:51:16.083Z</time></trkpt><trkpt lat="45.4765994" lon="11.4702937"><ele>184.66666666666669</ele><time>2026-05-03T09:51:17.083Z</time></trkpt><trkpt lat="45.4765571" lon="11.4700847"><ele>184.0</ele><time>2026-05-03T09:51:18.083Z</time></trkpt><trkpt lat="45.4765284" lon="11.4698834"><ele>184.0</ele><time>2026-05-03T09:51:19.083Z</time></trkpt><trkpt lat="45.47652" lon="11.4696931"><ele>184.0</ele><time>2026-05-03T09:51:20.083Z</time></trkpt><trkpt lat="45.4764975" lon="11.4695209"><ele>184.0</ele><time>2026-05-03T09:51:21.083Z</time></trkpt><trkpt lat="45.4764384" lon="11.4693661"><ele>184.0</ele><time>2026-05-03T09:51:22.083Z</time></trkpt><trkpt lat="45.4763496" lon="11.4692241"><ele>183.25</ele><time>2026-05-03T09:51:23.084Z</time></trkpt><trkpt lat="45.4762443" lon="11.4690991"><ele>182.5</ele><time>2026-05-03T09:51:24.083Z</time></trkpt><trkpt lat="45.4761395" lon="11.468965"><ele>181.75</ele><time>2026-05-03T09:51:25.083Z</time></trkpt><trkpt lat="45.4760432" lon="11.4688235"><ele>181.0</ele><time>2026-05-03T09:51:26.082Z</time></trkpt><trkpt lat="45.475957" lon="11.4686814"><ele>181.0</ele><time>2026-05-03T09:51:27.083Z</time></trkpt><trkpt lat="45.4758748" lon="11.4685481"><ele>181.0</ele><time>2026-05-03T09:51:28.084Z</time></trkpt><trkpt lat="45.4757933" lon="11.4684102"><ele>181.0</ele><time>2026-05-03T09:51:29.083Z</time></trkpt><trkpt lat="45.4757117" lon="11.4682585"><ele>181.0</ele><time>2026-05-03T09:51:30.083Z</time></trkpt><trkpt lat="45.4756339" lon="11.4680941"><ele>185.0</ele><time>2026-05-03T09:51:31.084Z</time></trkpt><trkpt lat="45.4755573" lon="11.467917"><ele>189.0</ele><time>2026-05-03T09:51:32.083Z</time></trkpt><trkpt lat="45.4754803" lon="11.4677442"><ele>193.0</ele><time>2026-05-03T09:51:33.084Z</time></trkpt><trkpt lat="45.4754038" lon="11.4675783"><ele>197.0</ele><time>2026-05-03T09:51:34.082Z</time></trkpt><trkpt lat="45.4753257" lon="11.4674098"><ele>190.5</ele><time>2026-05-03T09:51:35.084Z</time></trkpt><trkpt lat="45.4752518" lon="11.467236"><ele>184.0</ele><time>2026-05-03T09:51:36.083Z</time></trkpt><trkpt lat="45.4751768" lon="11.4670697"><ele>177.5</ele><time>2026-05-03T09:51:37.083Z</time></trkpt><trkpt lat="45.4751103" lon="11.4669034"><ele>171.0</ele><time>2026-05-03T09:51:38.083Z</time></trkpt><trkpt lat="45.4750571" lon="11.4667269"><ele>171.0</ele><time>2026-05-03T09:51:39.083Z</time></trkpt><trkpt lat="45.4750187" lon="11.4665491"><ele>171.0</ele><time>2026-05-03T09:51:40.083Z</time></trkpt><trkpt lat="45.4749837" lon="11.4663763"><ele>171.0</ele><time>2026-05-03T09:51:41.084Z</time></trkpt><trkpt lat="45.4749426" lon="11.4662148"><ele>171.0</ele><time>2026-05-03T09:51:42.083Z</time></trkpt><trkpt lat="45.4748803" lon="11.4660735"><ele>172.4</ele><time>2026-05-03T09:51:43.083Z</time></trkpt><trkpt lat="45.4747969" lon="11.4659597"><ele>173.8</ele><time>2026-05-03T09:51:44.084Z</time></trkpt><trkpt lat="45.4747029" lon="11.4658657"><ele>175.20000000000002</ele><time>2026-05-03T09:51:45.083Z</time></trkpt><trkpt lat="45.4746104" lon="11.46578"><ele>176.60000000000002</ele><time>2026-05-03T09:51:46.083Z</time></trkpt><trkpt lat="45.4745307" lon="11.4656793"><ele>178.0</ele><time>2026-05-03T09:51:47.083Z</time></trkpt><trkpt lat="45.4744555" lon="11.4655494"><ele>171.0</ele><time>2026-05-03T09:51:48.083Z</time></trkpt><trkpt lat="45.4743665" lon="11.4653851"><ele>164.0</ele><time>2026-05-03T09:51:49.083Z</time></trkpt><trkpt lat="45.4742587" lon="11.4651831"><ele>157.0</ele><time>2026-05-03T09:51:50.082Z</time></trkpt><trkpt lat="45.4741462" lon="11.4649826"><ele>157.0</ele><time>2026-05-03T09:51:51.083Z</time></trkpt><trkpt lat="45.4740261" lon="11.4648063"><ele>157.0</ele><time>2026-05-03T09:51:52.083Z</time></trkpt><trkpt lat="45.4739162" lon="11.4646421"><ele>157.0</ele><time>2026-05-03T09:51:53.084Z</time></trkpt><trkpt lat="45.4738045" lon="11.4645063"><ele>154.75</ele><time>2026-05-03T09:51:54.084Z</time></trkpt><trkpt lat="45.4736853" lon="11.4643958"><ele>152.5</ele><time>2026-05-03T09:51:55.083Z</time></trkpt><trkpt lat="45.4735628" lon="11.4643024"><ele>150.25</ele><time>2026-05-03T09:51:56.083Z</time></trkpt><trkpt lat="45.4734456" lon="11.4642175"><ele>148.0</ele><time>2026-05-03T09:51:57.083Z</time></trkpt><trkpt lat="45.473332" lon="11.4641492"><ele>148.0</ele><time>2026-05-03T09:51:58.083Z</time></trkpt><trkpt lat="45.4732121" lon="11.4641081"><ele>148.0</ele><time>2026-05-03T09:51:59.083Z</time></trkpt><trkpt lat="45.4730822" lon="11.4640962"><ele>148.0</ele><time>2026-05-03T09:52:00.083Z</time></trkpt><trkpt lat="45.4729548" lon="11.4640993"><ele>148.0</ele><time>2026-05-03T09:52:01.083Z</time></trkpt><trkpt lat="45.4728327" lon="11.4641018"><ele>145.20000000000002</ele><time>2026-05-03T09:52:02.083Z</time></trkpt><trkpt lat="45.4727196" lon="11.4640974"><ele>142.4</ele><time>2026-05-03T09:52:03.083Z</time></trkpt><trkpt lat="45.472619" lon="11.4640671"><ele>139.60000000000002</ele><time>2026-05-03T09:52:04.083Z</time></trkpt><trkpt lat="45.472527" lon="11.4640129"><ele>136.8</ele><time>2026-05-03T09:52:05.083Z</time></trkpt><trkpt lat="45.472445" lon="11.4639397"><ele>134.0</ele><time>2026-05-03T09:52:06.083Z</time></trkpt><trkpt lat="45.4723631" lon="11.4638635"><ele>134.0</ele><time>2026-05-03T09:52:07.083Z</time></trkpt><trkpt lat="45.4722805" lon="11.4637817"><ele>134.0</ele><time>2026-05-03T09:52:08.083Z</time></trkpt><trkpt lat="45.4722037" lon="11.4636874"><ele>134.0</ele><time>2026-05-03T09:52:09.083Z</time></trkpt><trkpt lat="45.4721325" lon="11.4635686"><ele>134.0</ele><time>2026-05-03T09:52:10.083Z</time></trkpt><trkpt lat="45.4720598" lon="11.4634227"><ele>134.0</ele><time>2026-05-03T09:52:11.083Z</time></trkpt><trkpt lat="45.471985" lon="11.4632598"><ele>132.25</ele><time>2026-05-03T09:52:12.083Z</time></trkpt><trkpt lat="45.4719057" lon="11.4630806"><ele>130.5</ele><time>2026-05-03T09:52:13.083Z</time></trkpt><trkpt lat="45.4718229" lon="11.4628966"><ele>128.75</ele><time>2026-05-03T09:52:14.083Z</time></trkpt><trkpt lat="45.4717428" lon="11.4627198"><ele>127.0</ele><time>2026-05-03T09:52:15.083Z</time></trkpt><trkpt lat="45.4716741" lon="11.4625489"><ele>127.0</ele><time>2026-05-03T09:52:16.083Z</time></trkpt><trkpt lat="45.4716341" lon="11.4623748"><ele>127.0</ele><time>2026-05-03T09:52:17.083Z</time></trkpt><trkpt lat="45.4716243" lon="11.4621939"><ele>127.0</ele><time>2026-05-03T09:52:18.083Z</time></trkpt><trkpt lat="45.4716272" lon="11.462002"><ele>127.0</ele><time>2026-05-03T09:52:19.083Z</time></trkpt><trkpt lat="45.471627" lon="11.4618056"><ele>127.0</ele><time>2026-05-03T09:52:20.083Z</time></trkpt><trkpt lat="45.4716253" lon="11.4616085"><ele>127.0</ele><time>2026-05-03T09:52:21.084Z</time></trkpt><trkpt lat="45.4716233" lon="11.461415"><ele>127.0</ele><time>2026-05-03T09:52:22.083Z</time></trkpt><trkpt lat="45.4716209" lon="11.461226"><ele>127.0</ele><time>2026-05-03T09:52:23.083Z</time></trkpt><trkpt lat="45.4716095" lon="11.4610447"><ele>126.5</ele><time>2026-05-03T09:52:24.083Z</time></trkpt><trkpt lat="45.471573" lon="11.4608744"><ele>126.0</ele><time>2026-05-03T09:52:25.083Z</time></trkpt><trkpt lat="45.4715083" lon="11.4607218"><ele>125.5</ele><time>2026-05-03T09:52:26.083Z</time></trkpt><trkpt lat="45.4714203" lon="11.4605842"><ele>125.0</ele><time>2026-05-03T09:52:27.084Z</time></trkpt><trkpt lat="45.4713258" lon="11.4604535"><ele>121.75</ele><time>2026-05-03T09:52:28.083Z</time></trkpt><trkpt lat="45.4712402" lon="11.4603133"><ele>118.5</ele><time>2026-05-03T09:52:29.083Z</time></trkpt><trkpt lat="45.4711831" lon="11.4601517"><ele>115.25</ele><time>2026-05-03T09:52:30.083Z</time></trkpt><trkpt lat="45.471123" lon="11.4599839"><ele>112.0</ele><time>2026-05-03T09:52:31.083Z</time></trkpt><trkpt lat="45.4710441" lon="11.4598231"><ele>112.0</ele><time>2026-05-03T09:52:32.083Z</time></trkpt><trkpt lat="45.4709366" lon="11.4596843"><ele>112.0</ele><time>2026-05-03T09:52:33.083Z</time></trkpt><trkpt lat="45.4708161" lon="11.4595637"><ele>112.0</ele><time>2026-05-03T09:52:34.083Z</time></trkpt><trkpt lat="45.4706975" lon="11.4594497"><ele>112.0</ele><time>2026-05-03T09:52:35.083Z</time></trkpt><trkpt lat="45.4705796" lon="11.459343"><ele>111.0</ele><time>2026-05-03T09:52:36.083Z</time></trkpt><trkpt lat="45.4704615" lon="11.4592478"><ele>110.0</ele><time>2026-05-03T09:52:37.083Z</time></trkpt><trkpt lat="45.4703465" lon="11.4591726"><ele>109.0</ele><time>2026-05-03T09:52:38.083Z</time></trkpt><trkpt lat="45.4702313" lon="11.459118"><ele>108.0</ele><time>2026-05-03T09:52:39.083Z</time></trkpt><trkpt lat="45.470114" lon="11.4590759"><ele>108.0</ele><time>2026-05-03T09:52:40.083Z</time></trkpt><trkpt lat="45.470005" lon="11.4590284"><ele>108.00000000000001</ele><time>2026-05-03T09:52:41.083Z</time></trkpt><trkpt lat="45.4699046" lon="11.4589715"><ele>108.00000000000001</ele><time>2026-05-03T09:52:42.082Z</time></trkpt><trkpt lat="45.4698145" lon="11.4588894"><ele>108.0</ele><time>2026-05-03T09:52:43.084Z</time></trkpt><trkpt lat="45.4697406" lon="11.4587946"><ele>108.0</ele><time>2026-05-03T09:52:44.083Z</time></trkpt><trkpt lat="45.4696794" lon="11.4586822"><ele>110.0</ele><time>2026-05-03T09:52:45.083Z</time></trkpt><trkpt lat="45.4696269" lon="11.4585532"><ele>112.00000000000001</ele><time>2026-05-03T09:52:46.083Z</time></trkpt><trkpt lat="45.4695788" lon="11.4584173"><ele>114.00000000000001</ele><time>2026-05-03T09:52:47.083Z</time></trkpt><trkpt lat="45.4695306" lon="11.4582828"><ele>116.0</ele><time>2026-05-03T09:52:48.083Z</time></trkpt><trkpt lat="45.4694789" lon="11.4581488"><ele>118.0</ele><time>2026-05-03T09:52:49.084Z</time></trkpt><trkpt lat="45.4694283" lon="11.4580161"><ele>111.0</ele><time>2026-05-03T09:52:50.084Z</time></trkpt><trkpt lat="45.4693877" lon="11.4578837"><ele>104.00000000000001</ele><time>2026-05-03T09:52:51.083Z</time></trkpt><trkpt lat="45.4693671" lon="11.4577579"><ele>97.0</ele><time>2026-05-03T09:52:52.083Z</time></trkpt><trkpt lat="45.4693617" lon="11.4576284"><ele>90.0</ele><time>2026-05-03T09:52:53.083Z</time></trkpt><trkpt lat="45.4693749" lon="11.4574917"><ele>83.0</ele><time>2026-05-03T09:52:54.083Z</time></trkpt><trkpt lat="45.4694035" lon="11.4573456"><ele>83.0</ele><time>2026-05-03T09:52:55.084Z</time></trkpt><trkpt lat="45.4694409" lon="11.4571895"><ele>83.0</ele><time>2026-05-03T09:52:56.084Z</time></trkpt><trkpt lat="45.4694826" lon="11.4570305"><ele>83.0</ele><time>2026-05-03T09:52:57.084Z</time></trkpt><trkpt lat="45.4695297" lon="11.4568681"><ele>83.0</ele><time>2026-05-03T09:52:58.083Z</time></trkpt><trkpt lat="45.4695789" lon="11.4566986"><ele>86.5</ele><time>2026-05-03T09:52:59.083Z</time></trkpt><trkpt lat="45.4696252" lon="11.4565255"><ele>90.0</ele><time>2026-05-03T09:53:00.084Z</time></trkpt><trkpt lat="45.469673" lon="11.4563578"><ele>93.5</ele><time>2026-05-03T09:53:01.083Z</time></trkpt><trkpt lat="45.4697207" lon="11.4561978"><ele>97.0</ele><time>2026-05-03T09:53:02.084Z</time></trkpt><trkpt lat="45.4697604" lon="11.4560406"><ele>97.0</ele><time>2026-05-03T09:53:03.083Z</time></trkpt><trkpt lat="45.4697919" lon="11.4558813"><ele>97.0</ele><time>2026-05-03T09:53:04.083Z</time></trkpt><trkpt lat="45.4698123" lon="11.4557218"><ele>97.0</ele><time>2026-05-03T09:53:05.083Z</time></trkpt><trkpt lat="45.4698276" lon="11.4555548"><ele>97.0</ele><time>2026-05-03T09:53:06.084Z</time></trkpt><trkpt lat="45.4698328" lon="11.4553832"><ele>96.75</ele><time>2026-05-03T09:53:07.084Z</time></trkpt><trkpt lat="45.4698419" lon="11.4552153"><ele>96.5</ele><time>2026-05-03T09:53:08.084Z</time></trkpt><trkpt lat="45.4698442" lon="11.4550492"><ele>96.25</ele><time>2026-05-03T09:53:09.083Z</time></trkpt><trkpt lat="45.4698387" lon="11.4548887"><ele>96.0</ele><time>2026-05-03T09:53:10.083Z</time></trkpt><trkpt lat="45.4698204" lon="11.4547367"><ele>95.8</ele><time>2026-05-03T09:53:11.083Z</time></trkpt><trkpt lat="45.4697906" lon="11.4545872"><ele>95.6</ele><time>2026-05-03T09:53:12.083Z</time></trkpt><trkpt lat="45.4697493" lon="11.4544426"><ele>95.4</ele><time>2026-05-03T09:53:13.083Z</time></trkpt><trkpt lat="45.4697029" lon="11.4542983"><ele>95.2</ele><time>2026-05-03T09:53:14.083Z</time></trkpt><trkpt lat="45.4696591" lon="11.4541576"><ele>95.0</ele><time>2026-05-03T09:53:15.083Z</time></trkpt><trkpt lat="45.4696211" lon="11.4540229"><ele>93.16666666666667</ele><time>2026-05-03T09:53:16.083Z</time></trkpt><trkpt lat="45.4695886" lon="11.4538943"><ele>91.33333333333334</ele><time>2026-05-03T09:53:17.083Z</time></trkpt><trkpt lat="45.4695677" lon="11.4537689"><ele>89.5</ele><time>2026-05-03T09:53:18.083Z</time></trkpt><trkpt lat="45.4695544" lon="11.453653"><ele>87.66666666666667</ele><time>2026-05-03T09:53:19.083Z</time></trkpt><trkpt lat="45.4695464" lon="11.4535484"><ele>85.83333333333333</ele><time>2026-05-03T09:53:20.083Z</time></trkpt><trkpt lat="45.4695456" lon="11.4534456"><ele>84.0</ele><time>2026-05-03T09:53:21.083Z</time></trkpt><trkpt lat="45.4695469" lon="11.4533465"><ele>84.0</ele><time>2026-05-03T09:53:22.082Z</time></trkpt><trkpt lat="45.4695505" lon="11.4531835"><ele>84.0</ele><time>2026-05-03T09:53:24.084Z</time></trkpt><trkpt lat="45.469506" lon="11.4530684"><ele>84.0</ele><time>2026-05-03T09:53:26.083Z</time></trkpt><trkpt lat="45.4694041" lon="11.4530222"><ele>84.0</ele><time>2026-05-03T09:53:28.083Z</time></trkpt><trkpt lat="45.4693428" lon="11.4530013"><ele>84.0</ele><time>2026-05-03T09:53:29.083Z</time></trkpt><trkpt lat="45.4692745" lon="11.4529658"><ele>84.0</ele><time>2026-05-03T09:53:30.083Z</time></trkpt><trkpt lat="45.4692027" lon="11.4529263"><ele>84.80000000000001</ele><time>2026-05-03T09:53:31.083Z</time></trkpt><trkpt lat="45.4691266" lon="11.4528766"><ele>85.60000000000001</ele><time>2026-05-03T09:53:32.083Z</time></trkpt><trkpt lat="45.469049" lon="11.4528064"><ele>86.4</ele><time>2026-05-03T09:53:33.084Z</time></trkpt><trkpt lat="45.4689651" lon="11.4527242"><ele>87.2</ele><time>2026-05-03T09:53:34.083Z</time></trkpt><trkpt lat="45.4688715" lon="11.4526407"><ele>88.0</ele><time>2026-05-03T09:53:35.083Z</time></trkpt><trkpt lat="45.4687708" lon="11.4525541"><ele>85.75</ele><time>2026-05-03T09:53:36.083Z</time></trkpt><trkpt lat="45.4686648" lon="11.4524714"><ele>83.5</ele><time>2026-05-03T09:53:37.084Z</time></trkpt><trkpt lat="45.4685557" lon="11.4523884"><ele>81.25</ele><time>2026-05-03T09:53:38.083Z</time></trkpt><trkpt lat="45.4684433" lon="11.4523092"><ele>79.0</ele><time>2026-05-03T09:53:39.083Z</time></trkpt><trkpt lat="45.4683313" lon="11.4522284"><ele>79.0</ele><time>2026-05-03T09:53:40.082Z</time></trkpt><trkpt lat="45.4682121" lon="11.4521475"><ele>79.0</ele><time>2026-05-03T09:53:41.083Z</time></trkpt><trkpt lat="45.4680901" lon="11.4520679"><ele>79.0</ele><time>2026-05-03T09:53:42.083Z</time></trkpt><trkpt lat="45.4679614" lon="11.4519981"><ele>79.0</ele><time>2026-05-03T09:53:43.084Z</time></trkpt><trkpt lat="45.4678273" lon="11.4519537"><ele>79.75</ele><time>2026-05-03T09:53:44.083Z</time></trkpt><trkpt lat="45.4676864" lon="11.4519478"><ele>80.5</ele><time>2026-05-03T09:53:45.083Z</time></trkpt><trkpt lat="45.4675517" lon="11.4519817"><ele>81.25</ele><time>2026-05-03T09:53:46.084Z</time></trkpt><trkpt lat="45.4674248" lon="11.4520416"><ele>82.0</ele><time>2026-05-03T09:53:47.083Z</time></trkpt><trkpt lat="45.4673059" lon="11.4520932"><ele>81.75</ele><time>2026-05-03T09:53:48.082Z</time></trkpt><trkpt lat="45.4671899" lon="11.4521331"><ele>81.5</ele><time>2026-05-03T09:53:49.083Z</time></trkpt><trkpt lat="45.4670734" lon="11.452149"><ele>81.25</ele><time>2026-05-03T09:53:50.084Z</time></trkpt><trkpt lat="45.4669531" lon="11.4521378"><ele>81.0</ele><time>2026-05-03T09:53:51.084Z</time></trkpt><trkpt lat="45.4668338" lon="11.4521029"><ele>81.0</ele><time>2026-05-03T09:53:52.084Z</time></trkpt><trkpt lat="45.4667126" lon="11.4520529"><ele>81.0</ele><time>2026-05-03T09:53:53.084Z</time></trkpt><trkpt lat="45.4665897" lon="11.4519745"><ele>81.0</ele><time>2026-05-03T09:53:54.084Z</time></trkpt><trkpt lat="45.4664664" lon="11.4518671"><ele>81.0</ele><time>2026-05-03T09:53:55.084Z</time></trkpt><trkpt lat="45.4663398" lon="11.4517476"><ele>79.0</ele><time>2026-05-03T09:53:56.083Z</time></trkpt><trkpt lat="45.4662111" lon="11.4516258"><ele>77.0</ele><time>2026-05-03T09:53:57.083Z</time></trkpt><trkpt lat="45.4660854" lon="11.4515064"><ele>75.0</ele><time>2026-05-03T09:53:58.083Z</time></trkpt><trkpt lat="45.4659594" lon="11.4513939"><ele>75.0</ele><time>2026-05-03T09:53:59.084Z</time></trkpt><trkpt lat="45.465828" lon="11.4512889"><ele>75.0</ele><time>2026-05-03T09:54:00.083Z</time></trkpt><trkpt lat="45.4656861" lon="11.4512175"><ele>75.0</ele><time>2026-05-03T09:54:01.083Z</time></trkpt><trkpt lat="45.4655301" lon="11.4511897"><ele>75.33333333333333</ele><time>2026-05-03T09:54:02.084Z</time></trkpt><trkpt lat="45.4653626" lon="11.4511968"><ele>75.66666666666666</ele><time>2026-05-03T09:54:03.083Z</time></trkpt><trkpt lat="45.4651875" lon="11.4512088"><ele>76.0</ele><time>2026-05-03T09:54:04.083Z</time></trkpt><trkpt lat="45.4650123" lon="11.4512169"><ele>76.0</ele><time>2026-05-03T09:54:05.084Z</time></trkpt><trkpt lat="45.4648356" lon="11.4512328"><ele>76.0</ele><time>2026-05-03T09:54:06.084Z</time></trkpt><trkpt lat="45.4646502" lon="11.4512533"><ele>76.0</ele><time>2026-05-03T09:54:07.082Z</time></trkpt><trkpt lat="45.4644484" lon="11.4512733"><ele>76.66666666666666</ele><time>2026-05-03T09:54:08.084Z</time></trkpt><trkpt lat="45.4642323" lon="11.4512984"><ele>77.33333333333333</ele><time>2026-05-03T09:54:09.083Z</time></trkpt><trkpt lat="45.4640204" lon="11.4513257"><ele>78.0</ele><time>2026-05-03T09:54:10.083Z</time></trkpt><trkpt lat="45.463817" lon="11.4513546"><ele>79.0</ele><time>2026-05-03T09:54:11.083Z</time></trkpt><trkpt lat="45.4636266" lon="11.4513865"><ele>80.0</ele><time>2026-05-03T09:54:12.083Z</time></trkpt><trkpt lat="45.4634467" lon="11.451424"><ele>81.0</ele><time>2026-05-03T09:54:13.084Z</time></trkpt><trkpt lat="45.4632738" lon="11.4514625"><ele>81.0</ele><time>2026-05-03T09:54:14.083Z</time></trkpt><trkpt lat="45.4630995" lon="11.4515067"><ele>81.0</ele><time>2026-05-03T09:54:15.084Z</time></trkpt><trkpt lat="45.4629288" lon="11.4515463"><ele>81.0</ele><time>2026-05-03T09:54:16.083Z</time></trkpt><trkpt lat="45.4627618" lon="11.4515738"><ele>82.66666666666667</ele><time>2026-05-03T09:54:17.083Z</time></trkpt><trkpt lat="45.4625947" lon="11.4515908"><ele>84.33333333333334</ele><time>2026-05-03T09:54:18.083Z</time></trkpt><trkpt lat="45.4624247" lon="11.4515787"><ele>86.0</ele><time>2026-05-03T09:54:19.083Z</time></trkpt><trkpt lat="45.462252" lon="11.4515448"><ele>83.66666666666667</ele><time>2026-05-03T09:54:20.083Z</time></trkpt><trkpt lat="45.4620817" lon="11.4515111"><ele>81.33333333333333</ele><time>2026-05-03T09:54:21.083Z</time></trkpt><trkpt lat="45.4619174" lon="11.4514942"><ele>79.0</ele><time>2026-05-03T09:54:22.083Z</time></trkpt><trkpt lat="45.4617612" lon="11.4514861"><ele>79.0</ele><time>2026-05-03T09:54:23.083Z</time></trkpt><trkpt lat="45.4616215" lon="11.4514866"><ele>79.0</ele><time>2026-05-03T09:54:24.083Z</time></trkpt><trkpt lat="45.4614976" lon="11.4514856"><ele>79.0</ele><time>2026-05-03T09:54:25.084Z</time></trkpt><trkpt lat="45.4613898" lon="11.4514666"><ele>79.0</ele><time>2026-05-03T09:54:26.083Z</time></trkpt><trkpt lat="45.4612952" lon="11.4514324"><ele>77.5</ele><time>2026-05-03T09:54:27.083Z</time></trkpt><trkpt lat="45.4612144" lon="11.4513533"><ele>76.0</ele><time>2026-05-03T09:54:28.083Z</time></trkpt><trkpt lat="45.4611374" lon="11.4512317"><ele>74.5</ele><time>2026-05-03T09:54:29.083Z</time></trkpt><trkpt lat="45.4610601" lon="11.4510844"><ele>73.0</ele><time>2026-05-03T09:54:30.083Z</time></trkpt><trkpt lat="45.460974" lon="11.4509483"><ele>73.0</ele><time>2026-05-03T09:54:31.083Z</time></trkpt><trkpt lat="45.4608751" lon="11.4508263"><ele>73.0</ele><time>2026-05-03T09:54:32.083Z</time></trkpt><trkpt lat="45.46076" lon="11.4507157"><ele>73.0</ele><time>2026-05-03T09:54:33.083Z</time></trkpt><trkpt lat="45.4606339" lon="11.4506168"><ele>73.0</ele><time>2026-05-03T09:54:34.083Z</time></trkpt><trkpt lat="45.4605127" lon="11.4504965"><ele>71.75</ele><time>2026-05-03T09:54:35.083Z</time></trkpt><trkpt lat="45.4604012" lon="11.4503565"><ele>70.5</ele><time>2026-05-03T09:54:36.083Z</time></trkpt><trkpt lat="45.460293" lon="11.4502112"><ele>69.25</ele><time>2026-05-03T09:54:37.084Z</time></trkpt><trkpt lat="45.4601865" lon="11.4500652"><ele>68.0</ele><time>2026-05-03T09:54:38.084Z</time></trkpt><trkpt lat="45.460083" lon="11.4499201"><ele>68.0</ele><time>2026-05-03T09:54:39.083Z</time></trkpt><trkpt lat="45.4599815" lon="11.4497728"><ele>68.0</ele><time>2026-05-03T09:54:40.083Z</time></trkpt><trkpt lat="45.4598788" lon="11.4496206"><ele>68.0</ele><time>2026-05-03T09:54:41.083Z</time></trkpt><trkpt lat="45.4597763" lon="11.4494685"><ele>68.0</ele><time>2026-05-03T09:54:42.083Z</time></trkpt><trkpt lat="45.4596735" lon="11.4493171"><ele>68.75</ele><time>2026-05-03T09:54:43.084Z</time></trkpt><trkpt lat="45.4595682" lon="11.4491706"><ele>69.5</ele><time>2026-05-03T09:54:44.083Z</time></trkpt><trkpt lat="45.4594619" lon="11.4490324"><ele>70.25</ele><time>2026-05-03T09:54:45.083Z</time></trkpt><trkpt lat="45.4593523" lon="11.4489044"><ele>71.0</ele><time>2026-05-03T09:54:46.083Z</time></trkpt><trkpt lat="45.4592414" lon="11.448791"><ele>71.0</ele><time>2026-05-03T09:54:47.084Z</time></trkpt><trkpt lat="45.4591393" lon="11.448682"><ele>71.0</ele><time>2026-05-03T09:54:48.083Z</time></trkpt><trkpt lat="45.4590486" lon="11.4485473"><ele>71.0</ele><time>2026-05-03T09:54:49.083Z</time></trkpt><trkpt lat="45.4589657" lon="11.4483901"><ele>71.0</ele><time>2026-05-03T09:54:50.083Z</time></trkpt><trkpt lat="45.4588855" lon="11.4482172"><ele>71.0</ele><time>2026-05-03T09:54:51.083Z</time></trkpt><trkpt lat="45.4588046" lon="11.4480385"><ele>71.0</ele><time>2026-05-03T09:54:52.083Z</time></trkpt><trkpt lat="45.4587274" lon="11.4478623"><ele>71.0</ele><time>2026-05-03T09:54:53.083Z</time></trkpt><trkpt lat="45.4586539" lon="11.4476856"><ele>71.0</ele><time>2026-05-03T09:54:54.083Z</time></trkpt><trkpt lat="45.458583" lon="11.447512"><ele>67.5</ele><time>2026-05-03T09:54:55.083Z</time></trkpt><trkpt lat="45.4585169" lon="11.4473446"><ele>64.0</ele><time>2026-05-03T09:54:56.082Z</time></trkpt><trkpt lat="45.4584578" lon="11.4471865"><ele>60.5</ele><time>2026-05-03T09:54:57.083Z</time></trkpt><trkpt lat="45.4584071" lon="11.4470529"><ele>57.0</ele><time>2026-05-03T09:54:58.083Z</time></trkpt><trkpt lat="45.4583668" lon="11.4469367"><ele>57.0</ele><time>2026-05-03T09:54:59.083Z</time></trkpt><trkpt lat="45.4583292" lon="11.4468173"><ele>57.0</ele><time>2026-05-03T09:55:00.083Z</time></trkpt><trkpt lat="45.4582865" lon="11.4466981"><ele>57.0</ele><time>2026-05-03T09:55:01.083Z</time></trkpt><trkpt lat="45.4582429" lon="11.4465762"><ele>57.0</ele><time>2026-05-03T09:55:02.083Z</time></trkpt><trkpt lat="45.4581996" lon="11.4464558"><ele>57.0</ele><time>2026-05-03T09:55:03.083Z</time></trkpt><trkpt lat="45.4581467" lon="11.4463495"><ele>55.8</ele><time>2026-05-03T09:55:04.083Z</time></trkpt><trkpt lat="45.4580842" lon="11.446251"><ele>54.6</ele><time>2026-05-03T09:55:05.083Z</time></trkpt><trkpt lat="45.4580206" lon="11.4461543"><ele>53.4</ele><time>2026-05-03T09:55:06.084Z</time></trkpt><trkpt lat="45.4579539" lon="11.4460506"><ele>52.199999999999996</ele><time>2026-05-03T09:55:07.083Z</time></trkpt><trkpt lat="45.4578894" lon="11.4459504"><ele>51.0</ele><time>2026-05-03T09:55:08.083Z</time></trkpt><trkpt lat="45.457828" lon="11.4458599"><ele>50.0</ele><time>2026-05-03T09:55:09.084Z</time></trkpt><trkpt lat="45.4577742" lon="11.4457724"><ele>49.0</ele><time>2026-05-03T09:55:10.083Z</time></trkpt><trkpt lat="45.4577266" lon="11.4457"><ele>48.0</ele><time>2026-05-03T09:55:11.084Z</time></trkpt><trkpt lat="45.4576306" lon="11.4456527"><ele>47.0</ele><time>2026-05-03T09:55:13.084Z</time></trkpt><trkpt lat="45.4575538" lon="11.4457663"><ele>46.0</ele><time>2026-05-03T09:55:15.083Z</time></trkpt><trkpt lat="45.4574979" lon="11.4459194"><ele>46.0</ele><time>2026-05-03T09:55:17.084Z</time></trkpt><trkpt lat="45.4574466" lon="11.4460167"><ele>46.0</ele><time>2026-05-03T09:55:18.083Z</time></trkpt><trkpt lat="45.4573906" lon="11.446119"><ele>46.0</ele><time>2026-05-03T09:55:19.083Z</time></trkpt><trkpt lat="45.4573288" lon="11.4462228"><ele>46.0</ele><time>2026-05-03T09:55:20.083Z</time></trkpt><trkpt lat="45.4572637" lon="11.4463251"><ele>46.0</ele><time>2026-05-03T09:55:21.083Z</time></trkpt><trkpt lat="45.4571826" lon="11.4464059"><ele>45.4</ele><time>2026-05-03T09:55:22.083Z</time></trkpt><trkpt lat="45.457099" lon="11.4464562"><ele>44.8</ele><time>2026-05-03T09:55:23.083Z</time></trkpt><trkpt lat="45.4570219" lon="11.4464823"><ele>44.199999999999996</ele><time>2026-05-03T09:55:24.083Z</time></trkpt><trkpt lat="45.4569235" lon="11.4465042"><ele>43.599999999999994</ele><time>2026-05-03T09:55:26.084Z</time></trkpt><trkpt lat="45.4568404" lon="11.4465193"><ele>43.0</ele><time>2026-05-03T09:55:28.083Z</time></trkpt><trkpt lat="45.4567361" lon="11.4465719"><ele>43.0</ele><time>2026-05-03T09:55:30.084Z</time></trkpt><trkpt lat="45.4566922" lon="11.4467352"><ele>43.0</ele><time>2026-05-03T09:55:32.083Z</time></trkpt><trkpt lat="45.4566825" lon="11.4468424"><ele>43.0</ele><time>2026-05-03T09:55:33.084Z</time></trkpt><trkpt lat="45.4566634" lon="11.4469559"><ele>43.0</ele><time>2026-05-03T09:55:34.083Z</time></trkpt><trkpt lat="45.4566393" lon="11.4470736"><ele>43.0</ele><time>2026-05-03T09:55:35.083Z</time></trkpt><trkpt lat="45.4566136" lon="11.4471913"><ele>43.2</ele><time>2026-05-03T09:55:36.083Z</time></trkpt><trkpt lat="45.4565875" lon="11.4473151"><ele>43.4</ele><time>2026-05-03T09:55:37.083Z</time></trkpt><trkpt lat="45.4565612" lon="11.4474486"><ele>43.6</ele><time>2026-05-03T09:55:38.083Z</time></trkpt><trkpt lat="45.4565363" lon="11.4475909"><ele>43.800000000000004</ele><time>2026-05-03T09:55:39.083Z</time></trkpt><trkpt lat="45.4565122" lon="11.4477335"><ele>44.0</ele><time>2026-05-03T09:55:40.083Z</time></trkpt><trkpt lat="45.4564842" lon="11.4478824"><ele>43.800000000000004</ele><time>2026-05-03T09:55:41.083Z</time></trkpt><trkpt lat="45.4564537" lon="11.4480328"><ele>43.6</ele><time>2026-05-03T09:55:42.083Z</time></trkpt><trkpt lat="45.4564184" lon="11.4481825"><ele>43.4</ele><time>2026-05-03T09:55:43.083Z</time></trkpt><trkpt lat="45.4563738" lon="11.4483206"><ele>43.2</ele><time>2026-05-03T09:55:44.084Z</time></trkpt><trkpt lat="45.4563191" lon="11.4484504"><ele>43.0</ele><time>2026-05-03T09:55:45.084Z</time></trkpt><trkpt lat="45.456254" lon="11.4485802"><ele>43.0</ele><time>2026-05-03T09:55:46.083Z</time></trkpt><trkpt lat="45.4561788" lon="11.4487153"><ele>43.0</ele><time>2026-05-03T09:55:47.083Z</time></trkpt><trkpt lat="45.4560957" lon="11.4488696"><ele>43.0</ele><time>2026-05-03T09:55:48.082Z</time></trkpt><trkpt lat="45.4560053" lon="11.4490364"><ele>43.0</ele><time>2026-05-03T09:55:49.083Z</time></trkpt><trkpt lat="45.4559069" lon="11.4492175"><ele>42.66666666666667</ele><time>2026-05-03T09:55:50.083Z</time></trkpt><trkpt lat="45.4558017" lon="11.449411"><ele>42.333333333333336</ele><time>2026-05-03T09:55:51.082Z</time></trkpt><trkpt lat="45.4556901" lon="11.4496162"><ele>42.0</ele><time>2026-05-03T09:55:52.084Z</time></trkpt><trkpt lat="45.4555748" lon="11.4498296"><ele>42.0</ele><time>2026-05-03T09:55:53.084Z</time></trkpt><trkpt lat="45.4554591" lon="11.4500461"><ele>42.0</ele><time>2026-05-03T09:55:54.083Z</time></trkpt><trkpt lat="45.4553447" lon="11.4502607"><ele>42.0</ele><time>2026-05-03T09:55:55.083Z</time></trkpt><trkpt lat="45.4552276" lon="11.4504753"><ele>42.333333333333336</ele><time>2026-05-03T09:55:56.083Z</time></trkpt><trkpt lat="45.4551135" lon="11.4506913"><ele>42.66666666666667</ele><time>2026-05-03T09:55:57.083Z</time></trkpt><trkpt lat="45.4550001" lon="11.4509056"><ele>43.0</ele><time>2026-05-03T09:55:58.083Z</time></trkpt><trkpt lat="45.4548862" lon="11.4511204"><ele>42.66666666666667</ele><time>2026-05-03T09:55:59.083Z</time></trkpt><trkpt lat="45.4547728" lon="11.451332"><ele>42.333333333333336</ele><time>2026-05-03T09:56:00.083Z</time></trkpt><trkpt lat="45.4546574" lon="11.4515433"><ele>42.0</ele><time>2026-05-03T09:56:01.083Z</time></trkpt><trkpt lat="45.4545429" lon="11.4517576"><ele>41.666666666666664</ele><time>2026-05-03T09:56:02.083Z</time></trkpt><trkpt lat="45.4544336" lon="11.4519772"><ele>41.33333333333333</ele><time>2026-05-03T09:56:03.083Z</time></trkpt><trkpt lat="45.4543383" lon="11.4522142"><ele>41.0</ele><time>2026-05-03T09:56:04.083Z</time></trkpt><trkpt lat="45.4542658" lon="11.45247"><ele>41.0</ele><time>2026-05-03T09:56:05.083Z</time></trkpt><trkpt lat="45.4542181" lon="11.4527473"><ele>41.0</ele><time>2026-05-03T09:56:06.082Z</time></trkpt><trkpt lat="45.4541969" lon="11.453035"><ele>41.0</ele><time>2026-05-03T09:56:07.083Z</time></trkpt><trkpt lat="45.4541956" lon="11.4533305"><ele>41.666666666666664</ele><time>2026-05-03T09:56:08.083Z</time></trkpt><trkpt lat="45.4542053" lon="11.4536281"><ele>42.333333333333336</ele><time>2026-05-03T09:56:09.083Z</time></trkpt><trkpt lat="45.4542108" lon="11.4539262"><ele>43.0</ele><time>2026-05-03T09:56:10.083Z</time></trkpt><trkpt lat="45.4542117" lon="11.4542252"><ele>43.0</ele><time>2026-05-03T09:56:11.083Z</time></trkpt><trkpt lat="45.4542169" lon="11.4545261"><ele>43.0</ele><time>2026-05-03T09:56:12.083Z</time></trkpt><trkpt lat="45.454224" lon="11.454829"><ele>43.0</ele><time>2026-05-03T09:56:13.083Z</time></trkpt><trkpt lat="45.4542309" lon="11.4551331"><ele>40.66666666666667</ele><time>2026-05-03T09:56:14.083Z</time></trkpt><trkpt lat="45.4542368" lon="11.4554577"><ele>38.333333333333336</ele><time>2026-05-03T09:56:15.084Z</time></trkpt><trkpt lat="45.4542417" lon="11.4557582"><ele>36.0</ele><time>2026-05-03T09:56:16.083Z</time></trkpt><trkpt lat="45.454244" lon="11.456021"><ele>36.0</ele><time>2026-05-03T09:56:17.083Z</time></trkpt><trkpt lat="45.4542187" lon="11.4562524"><ele>36.0</ele><time>2026-05-03T09:56:18.083Z</time></trkpt><trkpt lat="45.4541444" lon="11.4564546"><ele>36.0</ele><time>2026-05-03T09:56:19.083Z</time></trkpt><trkpt lat="45.4540378" lon="11.4566516"><ele>36.666666666666664</ele><time>2026-05-03T09:56:20.084Z</time></trkpt><trkpt lat="45.4539088" lon="11.4568431"><ele>37.33333333333333</ele><time>2026-05-03T09:56:21.084Z</time></trkpt><trkpt lat="45.4537759" lon="11.4570521"><ele>38.0</ele><time>2026-05-03T09:56:22.083Z</time></trkpt><trkpt lat="45.4536419" lon="11.4572661"><ele>38.666666666666664</ele><time>2026-05-03T09:56:23.083Z</time></trkpt><trkpt lat="45.4535055" lon="11.4574764"><ele>39.333333333333336</ele><time>2026-05-03T09:56:24.084Z</time></trkpt><trkpt lat="45.4533715" lon="11.457686"><ele>40.0</ele><time>2026-05-03T09:56:25.083Z</time></trkpt><trkpt lat="45.4532401" lon="11.457892"><ele>40.66666666666667</ele><time>2026-05-03T09:56:26.083Z</time></trkpt><trkpt lat="45.4531114" lon="11.4580929"><ele>41.333333333333336</ele><time>2026-05-03T09:56:27.083Z</time></trkpt><trkpt lat="45.4529833" lon="11.4582916"><ele>42.0</ele><time>2026-05-03T09:56:28.083Z</time></trkpt><trkpt lat="45.4528599" lon="11.4584878"><ele>41.0</ele><time>2026-05-03T09:56:29.083Z</time></trkpt><trkpt lat="45.452739" lon="11.4586811"><ele>40.0</ele><time>2026-05-03T09:56:30.083Z</time></trkpt><trkpt lat="45.4526185" lon="11.458873"><ele>39.0</ele><time>2026-05-03T09:56:31.083Z</time></trkpt><trkpt lat="45.4524963" lon="11.4590633"><ele>39.0</ele><time>2026-05-03T09:56:32.084Z</time></trkpt><trkpt lat="45.4523731" lon="11.4592548"><ele>39.0</ele><time>2026-05-03T09:56:33.084Z</time></trkpt><trkpt lat="45.452247" lon="11.4594463"><ele>39.0</ele><time>2026-05-03T09:56:34.084Z</time></trkpt><trkpt lat="45.4521207" lon="11.4596406"><ele>39.0</ele><time>2026-05-03T09:56:35.083Z</time></trkpt><trkpt lat="45.451987" lon="11.4598255"><ele>39.0</ele><time>2026-05-03T09:56:36.083Z</time></trkpt><trkpt lat="45.4518415" lon="11.4600026"><ele>39.0</ele><time>2026-05-03T09:56:37.084Z</time></trkpt><trkpt lat="45.4516788" lon="11.4601595"><ele>39.0</ele><time>2026-05-03T09:56:38.083Z</time></trkpt><trkpt lat="45.4515064" lon="11.4602958"><ele>39.0</ele><time>2026-05-03T09:56:39.082Z</time></trkpt><trkpt lat="45.4513241" lon="11.4604056"><ele>39.0</ele><time>2026-05-03T09:56:40.084Z</time></trkpt><trkpt lat="45.4511378" lon="11.4604872"><ele>39.333333333333336</ele><time>2026-05-03T09:56:41.084Z</time></trkpt><trkpt lat="45.450954" lon="11.4605502"><ele>39.66666666666667</ele><time>2026-05-03T09:56:42.083Z</time></trkpt><trkpt lat="45.4507653" lon="11.4605859"><ele>40.0</ele><time>2026-05-03T09:56:43.083Z</time></trkpt><trkpt lat="45.4505812" lon="11.4606037"><ele>41.0</ele><time>2026-05-03T09:56:44.083Z</time></trkpt><trkpt lat="45.4504021" lon="11.4606069"><ele>42.0</ele><time>2026-05-03T09:56:45.083Z</time></trkpt><trkpt lat="45.4502353" lon="11.460603"><ele>43.0</ele><time>2026-05-03T09:56:46.084Z</time></trkpt><trkpt lat="45.4500774" lon="11.4605937"><ele>43.0</ele><time>2026-05-03T09:56:47.083Z</time></trkpt><trkpt lat="45.4499296" lon="11.4605844"><ele>43.0</ele><time>2026-05-03T09:56:48.083Z</time></trkpt><trkpt lat="45.4497895" lon="11.4605787"><ele>43.0</ele><time>2026-05-03T09:56:49.083Z</time></trkpt><trkpt lat="45.449652" lon="11.4605737"><ele>43.0</ele><time>2026-05-03T09:56:50.084Z</time></trkpt><trkpt lat="45.4495138" lon="11.4605688"><ele>43.25</ele><time>2026-05-03T09:56:51.083Z</time></trkpt><trkpt lat="45.4493796" lon="11.4605659"><ele>43.5</ele><time>2026-05-03T09:56:52.083Z</time></trkpt><trkpt lat="45.4492471" lon="11.4605619"><ele>43.75</ele><time>2026-05-03T09:56:53.083Z</time></trkpt><trkpt lat="45.4491136" lon="11.4605562"><ele>44.0</ele><time>2026-05-03T09:56:54.084Z</time></trkpt><trkpt lat="45.4489816" lon="11.4605471"><ele>44.0</ele><time>2026-05-03T09:56:55.083Z</time></trkpt><trkpt lat="45.4488533" lon="11.46054"><ele>44.0</ele><time>2026-05-03T09:56:56.083Z</time></trkpt><trkpt lat="45.4487279" lon="11.4605348"><ele>44.0</ele><time>2026-05-03T09:56:57.083Z</time></trkpt><trkpt lat="45.4486073" lon="11.4605371"><ele>44.0</ele><time>2026-05-03T09:56:58.083Z</time></trkpt><trkpt lat="45.4484865" lon="11.4605542"><ele>43.25</ele><time>2026-05-03T09:56:59.083Z</time></trkpt><trkpt lat="45.448365" lon="11.4605998"><ele>42.5</ele><time>2026-05-03T09:57:00.083Z</time></trkpt><trkpt lat="45.4482479" lon="11.4606716"><ele>41.75</ele><time>2026-05-03T09:57:01.084Z</time></trkpt><trkpt lat="45.4481393" lon="11.4607612"><ele>41.0</ele><time>2026-05-03T09:57:02.083Z</time></trkpt><trkpt lat="45.4480346" lon="11.4608688"><ele>40.75</ele><time>2026-05-03T09:57:03.083Z</time></trkpt><trkpt lat="45.4479328" lon="11.4609894"><ele>40.5</ele><time>2026-05-03T09:57:04.083Z</time></trkpt><trkpt lat="45.4478323" lon="11.4611115"><ele>40.25</ele><time>2026-05-03T09:57:05.084Z</time></trkpt><trkpt lat="45.4477328" lon="11.4612313"><ele>40.0</ele><time>2026-05-03T09:57:06.083Z</time></trkpt><trkpt lat="45.4476356" lon="11.4613501"><ele>41.5</ele><time>2026-05-03T09:57:07.084Z</time></trkpt><trkpt lat="45.4475379" lon="11.4614661"><ele>43.0</ele><time>2026-05-03T09:57:08.084Z</time></trkpt><trkpt lat="45.4474351" lon="11.4615668"><ele>44.5</ele><time>2026-05-03T09:57:09.084Z</time></trkpt><trkpt lat="45.4473238" lon="11.4616447"><ele>46.0</ele><time>2026-05-03T09:57:10.083Z</time></trkpt><trkpt lat="45.4472036" lon="11.4616836"><ele>47.0</ele><time>2026-05-03T09:57:11.083Z</time></trkpt><trkpt lat="45.4470796" lon="11.4616795"><ele>48.0</ele><time>2026-05-03T09:57:12.083Z</time></trkpt><trkpt lat="45.4469537" lon="11.4616433"><ele>49.0</ele><time>2026-05-03T09:57:13.083Z</time></trkpt><trkpt lat="45.4468303" lon="11.4615893"><ele>50.0</ele><time>2026-05-03T09:57:14.083Z</time></trkpt><trkpt lat="45.4467063" lon="11.4615336"><ele>50.0</ele><time>2026-05-03T09:57:15.084Z</time></trkpt><trkpt lat="45.446579" lon="11.4614793"><ele>50.0</ele><time>2026-05-03T09:57:16.084Z</time></trkpt><trkpt lat="45.4464546" lon="11.4614234"><ele>50.0</ele><time>2026-05-03T09:57:17.083Z</time></trkpt><trkpt lat="45.4463274" lon="11.4613636"><ele>50.0</ele><time>2026-05-03T09:57:18.083Z</time></trkpt><trkpt lat="45.4462038" lon="11.4613058"><ele>49.75</ele><time>2026-05-03T09:57:19.083Z</time></trkpt><trkpt lat="45.4460774" lon="11.46125"><ele>49.5</ele><time>2026-05-03T09:57:20.084Z</time></trkpt><trkpt lat="45.4459494" lon="11.461198"><ele>49.25</ele><time>2026-05-03T09:57:21.083Z</time></trkpt><trkpt lat="45.4458158" lon="11.4611655"><ele>49.0</ele><time>2026-05-03T09:57:22.084Z</time></trkpt><trkpt lat="45.4456781" lon="11.4611564"><ele>49.0</ele><time>2026-05-03T09:57:23.083Z</time></trkpt><trkpt lat="45.4455404" lon="11.4611621"><ele>49.0</ele><time>2026-05-03T09:57:24.083Z</time></trkpt><trkpt lat="45.445405" lon="11.4611759"><ele>49.0</ele><time>2026-05-03T09:57:25.083Z</time></trkpt><trkpt lat="45.4452709" lon="11.4611939"><ele>49.0</ele><time>2026-05-03T09:57:26.083Z</time></trkpt><trkpt lat="45.4451354" lon="11.4612096"><ele>49.0</ele><time>2026-05-03T09:57:27.083Z</time></trkpt><trkpt lat="45.4450003" lon="11.461225"><ele>49.0</ele><time>2026-05-03T09:57:28.083Z</time></trkpt><trkpt lat="45.4448684" lon="11.4612261"><ele>49.0</ele><time>2026-05-03T09:57:29.083Z</time></trkpt><trkpt lat="45.4447359" lon="11.4612085"><ele>49.0</ele><time>2026-05-03T09:57:30.083Z</time></trkpt><trkpt lat="45.4446091" lon="11.4611651"><ele>49.0</ele><time>2026-05-03T09:57:31.084Z</time></trkpt><trkpt lat="45.4444867" lon="11.4610969"><ele>49.0</ele><time>2026-05-03T09:57:32.083Z</time></trkpt><trkpt lat="45.4443703" lon="11.4610073"><ele>49.0</ele><time>2026-05-03T09:57:33.083Z</time></trkpt><trkpt lat="45.4442573" lon="11.4608978"><ele>49.0</ele><time>2026-05-03T09:57:34.083Z</time></trkpt><trkpt lat="45.4441517" lon="11.4607687"><ele>49.0</ele><time>2026-05-03T09:57:35.083Z</time></trkpt><trkpt lat="45.4440572" lon="11.4606245"><ele>49.0</ele><time>2026-05-03T09:57:36.083Z</time></trkpt><trkpt lat="45.4439686" lon="11.4604709"><ele>49.0</ele><time>2026-05-03T09:57:37.084Z</time></trkpt><trkpt lat="45.4438822" lon="11.4603187"><ele>49.0</ele><time>2026-05-03T09:57:38.083Z</time></trkpt><trkpt lat="45.4437992" lon="11.4601718"><ele>51.25</ele><time>2026-05-03T09:57:39.083Z</time></trkpt><trkpt lat="45.4437207" lon="11.4600301"><ele>53.5</ele><time>2026-05-03T09:57:40.083Z</time></trkpt><trkpt lat="45.443643" lon="11.4598907"><ele>55.75</ele><time>2026-05-03T09:57:41.084Z</time></trkpt><trkpt lat="45.4435623" lon="11.4597603"><ele>58.0</ele><time>2026-05-03T09:57:42.084Z</time></trkpt><trkpt lat="45.4434724" lon="11.459646"><ele>55.0</ele><time>2026-05-03T09:57:43.083Z</time></trkpt><trkpt lat="45.4433624" lon="11.4595691"><ele>52.0</ele><time>2026-05-03T09:57:44.083Z</time></trkpt><trkpt lat="45.4432433" lon="11.4595354"><ele>49.0</ele><time>2026-05-03T09:57:45.083Z</time></trkpt><trkpt lat="45.4431118" lon="11.4595383"><ele>46.0</ele><time>2026-05-03T09:57:46.083Z</time></trkpt><trkpt lat="45.4429798" lon="11.4595484"><ele>46.75</ele><time>2026-05-03T09:57:47.083Z</time></trkpt><trkpt lat="45.4428454" lon="11.4595516"><ele>47.5</ele><time>2026-05-03T09:57:48.084Z</time></trkpt><trkpt lat="45.4427123" lon="11.4595647"><ele>48.25</ele><time>2026-05-03T09:57:49.084Z</time></trkpt><trkpt lat="45.4425809" lon="11.4595986"><ele>49.0</ele><time>2026-05-03T09:57:50.083Z</time></trkpt><trkpt lat="45.4424499" lon="11.4596628"><ele>52.5</ele><time>2026-05-03T09:57:51.083Z</time></trkpt><trkpt lat="45.4423265" lon="11.459757"><ele>56.0</ele><time>2026-05-03T09:57:52.083Z</time></trkpt><trkpt lat="45.4422033" lon="11.4598577"><ele>59.5</ele><time>2026-05-03T09:57:53.083Z</time></trkpt><trkpt lat="45.4420727" lon="11.459943"><ele>63.0</ele><time>2026-05-03T09:57:54.082Z</time></trkpt><trkpt lat="45.4419351" lon="11.4600222"><ele>63.0</ele><time>2026-05-03T09:57:55.083Z</time></trkpt><trkpt lat="45.4417863" lon="11.4600991"><ele>63.0</ele><time>2026-05-03T09:57:56.083Z</time></trkpt><trkpt lat="45.4416344" lon="11.4601712"><ele>63.0</ele><time>2026-05-03T09:57:57.083Z</time></trkpt><trkpt lat="45.4414853" lon="11.4602336"><ele>63.0</ele><time>2026-05-03T09:57:58.084Z</time></trkpt><trkpt lat="45.4413421" lon="11.4602937"><ele>63.0</ele><time>2026-05-03T09:57:59.083Z</time></trkpt><trkpt lat="45.4412032" lon="11.4603576"><ele>63.0</ele><time>2026-05-03T09:58:00.083Z</time></trkpt><trkpt lat="45.4410661" lon="11.4604205"><ele>63.0</ele><time>2026-05-03T09:58:01.083Z</time></trkpt><trkpt lat="45.4409285" lon="11.4604811"><ele>67.75</ele><time>2026-05-03T09:58:02.083Z</time></trkpt><trkpt lat="45.4407919" lon="11.460538"><ele>72.5</ele><time>2026-05-03T09:58:03.083Z</time></trkpt><trkpt lat="45.4406572" lon="11.4605984"><ele>77.25</ele><time>2026-05-03T09:58:04.083Z</time></trkpt><trkpt lat="45.4405224" lon="11.4606603"><ele>82.0</ele><time>2026-05-03T09:58:05.083Z</time></trkpt><trkpt lat="45.4403877" lon="11.4607126"><ele>82.0</ele><time>2026-05-03T09:58:06.084Z</time></trkpt><trkpt lat="45.440251" lon="11.4607647"><ele>82.0</ele><time>2026-05-03T09:58:07.083Z</time></trkpt><trkpt lat="45.4400977" lon="11.4608115"><ele>82.0</ele><time>2026-05-03T09:58:08.084Z</time></trkpt><trkpt lat="45.4399264" lon="11.4608386"><ele>82.0</ele><time>2026-05-03T09:58:09.083Z</time></trkpt><trkpt lat="45.439739" lon="11.4608399"><ele>82.0</ele><time>2026-05-03T09:58:10.083Z</time></trkpt><trkpt lat="45.439529" lon="11.4608374"><ele>82.0</ele><time>2026-05-03T09:58:11.083Z</time></trkpt><trkpt lat="45.4392977" lon="11.4608438"><ele>79.0</ele><time>2026-05-03T09:58:12.083Z</time></trkpt><trkpt lat="45.4390444" lon="11.4608674"><ele>76.0</ele><time>2026-05-03T09:58:13.083Z</time></trkpt><trkpt lat="45.4387655" lon="11.4608777"><ele>76.0</ele><time>2026-05-03T09:58:14.083Z</time></trkpt><trkpt lat="45.4384985" lon="11.4608839"><ele>76.0</ele><time>2026-05-03T09:58:15.083Z</time></trkpt><trkpt lat="45.4382322" lon="11.4609018"><ele>76.0</ele><time>2026-05-03T09:58:16.084Z</time></trkpt><trkpt lat="45.4379895" lon="11.4609264"><ele>76.0</ele><time>2026-05-03T09:58:17.083Z</time></trkpt><trkpt lat="45.4377619" lon="11.4609461"><ele>77.0</ele><time>2026-05-03T09:58:18.083Z</time></trkpt><trkpt lat="45.4375503" lon="11.4609752"><ele>78.0</ele><time>2026-05-03T09:58:19.083Z</time></trkpt><trkpt lat="45.4373563" lon="11.4610229"><ele>79.0</ele><time>2026-05-03T09:58:20.083Z</time></trkpt><trkpt lat="45.4371771" lon="11.4611044"><ele>79.33333333333333</ele><time>2026-05-03T09:58:21.084Z</time></trkpt><trkpt lat="45.4370039" lon="11.4612104"><ele>79.66666666666667</ele><time>2026-05-03T09:58:22.084Z</time></trkpt><trkpt lat="45.4368351" lon="11.4613272"><ele>80.0</ele><time>2026-05-03T09:58:23.083Z</time></trkpt><trkpt lat="45.4366682" lon="11.461444"><ele>85.33333333333334</ele><time>2026-05-03T09:58:24.083Z</time></trkpt><trkpt lat="45.4365058" lon="11.4615542"><ele>90.66666666666667</ele><time>2026-05-03T09:58:25.083Z</time></trkpt><trkpt lat="45.4363602" lon="11.4616537"><ele>96.0</ele><time>2026-05-03T09:58:26.083Z</time></trkpt><trkpt lat="45.4362247" lon="11.4617467"><ele>96.0</ele><time>2026-05-03T09:58:27.084Z</time></trkpt><trkpt lat="45.4361047" lon="11.4618349"><ele>96.0</ele><time>2026-05-03T09:58:28.083Z</time></trkpt><trkpt lat="45.4360042" lon="11.4619236"><ele>96.0</ele><time>2026-05-03T09:58:29.084Z</time></trkpt><trkpt lat="45.4359345" lon="11.4620373"><ele>96.0</ele><time>2026-05-03T09:58:30.083Z</time></trkpt><trkpt lat="45.4359098" lon="11.4621774"><ele>98.8</ele><time>2026-05-03T09:58:31.083Z</time></trkpt><trkpt lat="45.4359435" lon="11.4623117"><ele>101.6</ele><time>2026-05-03T09:58:32.083Z</time></trkpt><trkpt lat="45.4360227" lon="11.462402"><ele>104.4</ele><time>2026-05-03T09:58:33.083Z</time></trkpt><trkpt lat="45.4361261" lon="11.4624255"><ele>107.2</ele><time>2026-05-03T09:58:34.083Z</time></trkpt><trkpt lat="45.4362332" lon="11.4623789"><ele>110.0</ele><time>2026-05-03T09:58:35.084Z</time></trkpt><trkpt lat="45.4363502" lon="11.4622811"><ele>111.0</ele><time>2026-05-03T09:58:36.083Z</time></trkpt><trkpt lat="45.436485" lon="11.4621797"><ele>112.0</ele><time>2026-05-03T09:58:37.084Z</time></trkpt><trkpt lat="45.4366305" lon="11.4620827"><ele>113.0</ele><time>2026-05-03T09:58:38.083Z</time></trkpt><trkpt lat="45.4367796" lon="11.461971"><ele>109.0</ele><time>2026-05-03T09:58:39.083Z</time></trkpt><trkpt lat="45.4369237" lon="11.4618601"><ele>105.0</ele><time>2026-05-03T09:58:40.083Z</time></trkpt><trkpt lat="45.437057" lon="11.4617619"><ele>101.0</ele><time>2026-05-03T09:58:41.083Z</time></trkpt><trkpt lat="45.4371847" lon="11.4616791"><ele>101.0</ele><time>2026-05-03T09:58:42.083Z</time></trkpt><trkpt lat="45.4373023" lon="11.4616364"><ele>101.0</ele><time>2026-05-03T09:58:43.083Z</time></trkpt><trkpt lat="45.4374135" lon="11.4616526"><ele>101.0</ele><time>2026-05-03T09:58:44.083Z</time></trkpt><trkpt lat="45.4374945" lon="11.4617295"><ele>101.0</ele><time>2026-05-03T09:58:45.083Z</time></trkpt><trkpt lat="45.437543" lon="11.4618506"><ele>101.0</ele><time>2026-05-03T09:58:46.082Z</time></trkpt><trkpt lat="45.4375438" lon="11.4619911"><ele>107.0</ele><time>2026-05-03T09:58:47.083Z</time></trkpt><trkpt lat="45.4374936" lon="11.4621198"><ele>113.0</ele><time>2026-05-03T09:58:48.084Z</time></trkpt><trkpt lat="45.4374077" lon="11.4622162"><ele>119.0</ele><time>2026-05-03T09:58:49.083Z</time></trkpt><trkpt lat="45.4372919" lon="11.4622965"><ele>125.0</ele><time>2026-05-03T09:58:50.083Z</time></trkpt><trkpt lat="45.4371569" lon="11.4623837"><ele>121.0</ele><time>2026-05-03T09:58:51.083Z</time></trkpt><trkpt lat="45.4370143" lon="11.4624902"><ele>117.0</ele><time>2026-05-03T09:58:52.083Z</time></trkpt><trkpt lat="45.4368742" lon="11.4626247"><ele>113.0</ele><time>2026-05-03T09:58:53.083Z</time></trkpt><trkpt lat="45.4367402" lon="11.4627704"><ele>113.0</ele><time>2026-05-03T09:58:54.084Z</time></trkpt><trkpt lat="45.436607" lon="11.4629179"><ele>113.0</ele><time>2026-05-03T09:58:55.083Z</time></trkpt><trkpt lat="45.4364682" lon="11.4630551"><ele>113.0</ele><time>2026-05-03T09:58:56.083Z</time></trkpt><trkpt lat="45.4363205" lon="11.4631776"><ele>118.0</ele><time>2026-05-03T09:58:57.083Z</time></trkpt><trkpt lat="45.4361602" lon="11.4632699"><ele>123.0</ele><time>2026-05-03T09:58:58.084Z</time></trkpt><trkpt lat="45.4359894" lon="11.4633301"><ele>128.0</ele><time>2026-05-03T09:58:59.083Z</time></trkpt><trkpt lat="45.4358143" lon="11.4633745"><ele>128.0</ele><time>2026-05-03T09:59:00.084Z</time></trkpt><trkpt lat="45.43564" lon="11.4634187"><ele>128.0</ele><time>2026-05-03T09:59:01.083Z</time></trkpt><trkpt lat="45.4354668" lon="11.4634559"><ele>128.0</ele><time>2026-05-03T09:59:02.083Z</time></trkpt><trkpt lat="45.4353032" lon="11.4635348"><ele>129.33333333333331</ele><time>2026-05-03T09:59:03.084Z</time></trkpt><trkpt lat="45.4351411" lon="11.4636109"><ele>130.66666666666666</ele><time>2026-05-03T09:59:04.083Z</time></trkpt><trkpt lat="45.4349894" lon="11.4637035"><ele>132.0</ele><time>2026-05-03T09:59:05.083Z</time></trkpt><trkpt lat="45.4348532" lon="11.463814"><ele>137.0</ele><time>2026-05-03T09:59:06.083Z</time></trkpt><trkpt lat="45.4347233" lon="11.4639309"><ele>142.0</ele><time>2026-05-03T09:59:07.084Z</time></trkpt><trkpt lat="45.4345975" lon="11.464041"><ele>147.0</ele><time>2026-05-03T09:59:08.083Z</time></trkpt><trkpt lat="45.4344693" lon="11.4641542"><ele>147.33333333333334</ele><time>2026-05-03T09:59:09.083Z</time></trkpt><trkpt lat="45.434336" lon="11.464271"><ele>147.66666666666669</ele><time>2026-05-03T09:59:10.082Z</time></trkpt><trkpt lat="45.4341915" lon="11.4643809"><ele>148.0</ele><time>2026-05-03T09:59:11.084Z</time></trkpt><trkpt lat="45.4340384" lon="11.4644872"><ele>148.0</ele><time>2026-05-03T09:59:12.083Z</time></trkpt><trkpt lat="45.4338838" lon="11.4645854"><ele>148.0</ele><time>2026-05-03T09:59:13.083Z</time></trkpt><trkpt lat="45.4337289" lon="11.4646846"><ele>148.0</ele><time>2026-05-03T09:59:14.083Z</time></trkpt><trkpt lat="45.4335763" lon="11.4647811"><ele>144.33333333333334</ele><time>2026-05-03T09:59:15.082Z</time></trkpt><trkpt lat="45.4334252" lon="11.4648775"><ele>140.66666666666666</ele><time>2026-05-03T09:59:16.083Z</time></trkpt><trkpt lat="45.4332802" lon="11.4649735"><ele>137.0</ele><time>2026-05-03T09:59:17.083Z</time></trkpt><trkpt lat="45.4331381" lon="11.4650723"><ele>137.0</ele><time>2026-05-03T09:59:18.084Z</time></trkpt><trkpt lat="45.433004" lon="11.4651799"><ele>137.0</ele><time>2026-05-03T09:59:19.083Z</time></trkpt><trkpt lat="45.4328769" lon="11.4653011"><ele>137.0</ele><time>2026-05-03T09:59:20.083Z</time></trkpt><trkpt lat="45.4327565" lon="11.4654401"><ele>134.25</ele><time>2026-05-03T09:59:21.084Z</time></trkpt><trkpt lat="45.4326396" lon="11.4655786"><ele>131.5</ele><time>2026-05-03T09:59:22.084Z</time></trkpt><trkpt lat="45.4325293" lon="11.4657077"><ele>128.75</ele><time>2026-05-03T09:59:23.083Z</time></trkpt><trkpt lat="45.4324341" lon="11.4658212"><ele>126.0</ele><time>2026-05-03T09:59:24.083Z</time></trkpt><trkpt lat="45.4323643" lon="11.4659326"><ele>126.0</ele><time>2026-05-03T09:59:25.084Z</time></trkpt><trkpt lat="45.4323363" lon="11.4660496"><ele>126.0</ele><time>2026-05-03T09:59:26.083Z</time></trkpt><trkpt lat="45.432356" lon="11.4661615"><ele>126.0</ele><time>2026-05-03T09:59:27.084Z</time></trkpt><trkpt lat="45.4324117" lon="11.4662367"><ele>126.0</ele><time>2026-05-03T09:59:28.083Z</time></trkpt><trkpt lat="45.4324946" lon="11.4662465"><ele>126.0</ele><time>2026-05-03T09:59:29.083Z</time></trkpt><trkpt lat="45.4325804" lon="11.4661998"><ele>126.0</ele><time>2026-05-03T09:59:30.083Z</time></trkpt><trkpt lat="45.4326672" lon="11.4661159"><ele>126.0</ele><time>2026-05-03T09:59:31.083Z</time></trkpt><trkpt lat="45.4327581" lon="11.4660258"><ele>126.0</ele><time>2026-05-03T09:59:32.083Z</time></trkpt><trkpt lat="45.4328476" lon="11.4659393"><ele>126.0</ele><time>2026-05-03T09:59:33.083Z</time></trkpt><trkpt lat="45.4329398" lon="11.465867"><ele>126.0</ele><time>2026-05-03T09:59:34.083Z</time></trkpt><trkpt lat="45.4330348" lon="11.4658113"><ele>126.0</ele><time>2026-05-03T09:59:35.083Z</time></trkpt><trkpt lat="45.4331374" lon="11.4657796"><ele>123.75</ele><time>2026-05-03T09:59:36.083Z</time></trkpt><trkpt lat="45.4332609" lon="11.4657788"><ele>121.5</ele><time>2026-05-03T09:59:37.083Z</time></trkpt><trkpt lat="45.4333971" lon="11.4657956"><ele>119.25</ele><time>2026-05-03T09:59:38.083Z</time></trkpt><trkpt lat="45.433546" lon="11.4658217"><ele>117.0</ele><time>2026-05-03T09:59:39.083Z</time></trkpt><trkpt lat="45.4337029" lon="11.4658463"><ele>117.0</ele><time>2026-05-03T09:59:40.082Z</time></trkpt><trkpt lat="45.4338543" lon="11.4658655"><ele>117.0</ele><time>2026-05-03T09:59:41.083Z</time></trkpt><trkpt lat="45.4339914" lon="11.465884"><ele>117.0</ele><time>2026-05-03T09:59:42.083Z</time></trkpt><trkpt lat="45.4341082" lon="11.4659042"><ele>117.0</ele><time>2026-05-03T09:59:43.083Z</time></trkpt><trkpt lat="45.4341976" lon="11.4659267"><ele>117.0</ele><time>2026-05-03T09:59:44.083Z</time></trkpt><trkpt lat="45.4342633" lon="11.4659646"><ele>117.0</ele><time>2026-05-03T09:59:45.083Z</time></trkpt><trkpt lat="45.4342882" lon="11.4660992"><ele>117.0</ele><time>2026-05-03T09:59:47.084Z</time></trkpt><trkpt lat="45.4342374" lon="11.4661578"><ele>117.0</ele><time>2026-05-03T09:59:48.084Z</time></trkpt><trkpt lat="45.4341547" lon="11.4662011"><ele>117.0</ele><time>2026-05-03T09:59:49.083Z</time></trkpt><trkpt lat="45.4340494" lon="11.4662472"><ele>117.0</ele><time>2026-05-03T09:59:50.084Z</time></trkpt><trkpt lat="45.4339221" lon="11.4662956"><ele>111.66666666666666</ele><time>2026-05-03T09:59:51.084Z</time></trkpt><trkpt lat="45.433776" lon="11.4663548"><ele>106.33333333333333</ele><time>2026-05-03T09:59:52.083Z</time></trkpt><trkpt lat="45.4336205" lon="11.4664141"><ele>101.0</ele><time>2026-05-03T09:59:53.083Z</time></trkpt><trkpt lat="45.4334685" lon="11.4664713"><ele>101.0</ele><time>2026-05-03T09:59:54.083Z</time></trkpt><trkpt lat="45.4333237" lon="11.4665234"><ele>101.0</ele><time>2026-05-03T09:59:55.083Z</time></trkpt><trkpt lat="45.4331899" lon="11.4665891"><ele>101.0</ele><time>2026-05-03T09:59:56.083Z</time></trkpt><trkpt lat="45.4330849" lon="11.4667049"><ele>101.0</ele><time>2026-05-03T09:59:57.083Z</time></trkpt><trkpt lat="45.4329978" lon="11.4668581"><ele>100.25</ele><time>2026-05-03T09:59:58.083Z</time></trkpt><trkpt lat="45.4329301" lon="11.4670421"><ele>99.5</ele><time>2026-05-03T09:59:59.083Z</time></trkpt><trkpt lat="45.4328404" lon="11.4672076"><ele>98.75</ele><time>2026-05-03T10:00:00.083Z</time></trkpt><trkpt lat="45.4327268" lon="11.4673446"><ele>98.0</ele><time>2026-05-03T10:00:01.083Z</time></trkpt><trkpt lat="45.4325944" lon="11.4674518"><ele>98.0</ele><time>2026-05-03T10:00:02.083Z</time></trkpt><trkpt lat="45.432441" lon="11.4675309"><ele>98.0</ele><time>2026-05-03T10:00:03.084Z</time></trkpt><trkpt lat="45.432278" lon="11.4676144"><ele>98.0</ele><time>2026-05-03T10:00:04.083Z</time></trkpt><trkpt lat="45.4321067" lon="11.4677013"><ele>97.33333333333333</ele><time>2026-05-03T10:00:05.084Z</time></trkpt><trkpt lat="45.4319297" lon="11.4677884"><ele>96.66666666666666</ele><time>2026-05-03T10:00:06.083Z</time></trkpt><trkpt lat="45.4317467" lon="11.4678785"><ele>96.0</ele><time>2026-05-03T10:00:07.083Z</time></trkpt><trkpt lat="45.431565" lon="11.46797"><ele>92.0</ele><time>2026-05-03T10:00:08.084Z</time></trkpt><trkpt lat="45.4313905" lon="11.468062"><ele>88.0</ele><time>2026-05-03T10:00:09.083Z</time></trkpt><trkpt lat="45.4312212" lon="11.4681584"><ele>84.0</ele><time>2026-05-03T10:00:10.083Z</time></trkpt><trkpt lat="45.4310614" lon="11.4682692"><ele>84.0</ele><time>2026-05-03T10:00:11.083Z</time></trkpt><trkpt lat="45.4309095" lon="11.4683992"><ele>84.0</ele><time>2026-05-03T10:00:12.084Z</time></trkpt><trkpt lat="45.4307681" lon="11.4685356"><ele>84.0</ele><time>2026-05-03T10:00:13.084Z</time></trkpt><trkpt lat="45.4306271" lon="11.4686609"><ele>79.33333333333333</ele><time>2026-05-03T10:00:14.083Z</time></trkpt><trkpt lat="45.4304662" lon="11.4687463"><ele>74.66666666666666</ele><time>2026-05-03T10:00:15.083Z</time></trkpt><trkpt lat="45.4302988" lon="11.468814"><ele>70.0</ele><time>2026-05-03T10:00:16.084Z</time></trkpt><trkpt lat="45.4301409" lon="11.4689157"><ele>70.0</ele><time>2026-05-03T10:00:17.084Z</time></trkpt><trkpt lat="45.4300003" lon="11.4690626"><ele>70.0</ele><time>2026-05-03T10:00:18.083Z</time></trkpt><trkpt lat="45.4298754" lon="11.4692268"><ele>70.0</ele><time>2026-05-03T10:00:19.083Z</time></trkpt><trkpt lat="45.4297462" lon="11.4693735"><ele>66.66666666666666</ele><time>2026-05-03T10:00:20.084Z</time></trkpt><trkpt lat="45.4296023" lon="11.4694871"><ele>63.33333333333333</ele><time>2026-05-03T10:00:21.083Z</time></trkpt><trkpt lat="45.4294531" lon="11.4695847"><ele>60.0</ele><time>2026-05-03T10:00:22.083Z</time></trkpt><trkpt lat="45.4293035" lon="11.4696793"><ele>60.0</ele><time>2026-05-03T10:00:23.082Z</time></trkpt><trkpt lat="45.4291574" lon="11.4697727"><ele>60.0</ele><time>2026-05-03T10:00:24.084Z</time></trkpt><trkpt lat="45.4290121" lon="11.469858"><ele>60.0</ele><time>2026-05-03T10:00:25.083Z</time></trkpt><trkpt lat="45.4288714" lon="11.4699422"><ele>63.75</ele><time>2026-05-03T10:00:26.083Z</time></trkpt><trkpt lat="45.4287325" lon="11.470026"><ele>67.5</ele><time>2026-05-03T10:00:27.083Z</time></trkpt><trkpt lat="45.4285979" lon="11.4701097"><ele>71.25</ele><time>2026-05-03T10:00:28.083Z</time></trkpt><trkpt lat="45.4284661" lon="11.4701876"><ele>75.0</ele><time>2026-05-03T10:00:29.084Z</time></trkpt><trkpt lat="45.4283351" lon="11.4702613"><ele>75.0</ele><time>2026-05-03T10:00:30.084Z</time></trkpt><trkpt lat="45.4282092" lon="11.4703408"><ele>75.0</ele><time>2026-05-03T10:00:31.084Z</time></trkpt><trkpt lat="45.4280914" lon="11.4704333"><ele>75.0</ele><time>2026-05-03T10:00:32.083Z</time></trkpt><trkpt lat="45.427983" lon="11.4705447"><ele>75.0</ele><time>2026-05-03T10:00:33.083Z</time></trkpt><trkpt lat="45.427887" lon="11.4706814"><ele>70.25</ele><time>2026-05-03T10:00:34.083Z</time></trkpt><trkpt lat="45.4278047" lon="11.4708453"><ele>65.5</ele><time>2026-05-03T10:00:35.084Z</time></trkpt><trkpt lat="45.4277346" lon="11.4710283"><ele>60.75</ele><time>2026-05-03T10:00:36.083Z</time></trkpt><trkpt lat="45.4276798" lon="11.4712231"><ele>56.0</ele><time>2026-05-03T10:00:37.083Z</time></trkpt><trkpt lat="45.4276307" lon="11.4714212"><ele>54.25</ele><time>2026-05-03T10:00:38.083Z</time></trkpt><trkpt lat="45.4275833" lon="11.4716199"><ele>52.5</ele><time>2026-05-03T10:00:39.083Z</time></trkpt><trkpt lat="45.4275378" lon="11.4718136"><ele>50.75</ele><time>2026-05-03T10:00:40.083Z</time></trkpt><trkpt lat="45.4274871" lon="11.4720033"><ele>49.0</ele><time>2026-05-03T10:00:41.083Z</time></trkpt><trkpt lat="45.427419" lon="11.472185"><ele>49.5</ele><time>2026-05-03T10:00:42.083Z</time></trkpt><trkpt lat="45.4273286" lon="11.4723426"><ele>50.0</ele><time>2026-05-03T10:00:43.084Z</time></trkpt><trkpt lat="45.4272225" lon="11.4724812"><ele>50.5</ele><time>2026-05-03T10:00:44.084Z</time></trkpt><trkpt lat="45.4271094" lon="11.4726042"><ele>51.0</ele><time>2026-05-03T10:00:45.084Z</time></trkpt><trkpt lat="45.4269931" lon="11.4727243"><ele>51.0</ele><time>2026-05-03T10:00:46.082Z</time></trkpt><trkpt lat="45.4268754" lon="11.4728406"><ele>51.0</ele><time>2026-05-03T10:00:47.084Z</time></trkpt><trkpt lat="45.4267564" lon="11.472958"><ele>51.0</ele><time>2026-05-03T10:00:48.084Z</time></trkpt><trkpt lat="45.4266392" lon="11.4730789"><ele>51.0</ele><time>2026-05-03T10:00:49.084Z</time></trkpt><trkpt lat="45.4265163" lon="11.4731994"><ele>50.25</ele><time>2026-05-03T10:00:50.083Z</time></trkpt><trkpt lat="45.4263927" lon="11.4733162"><ele>49.5</ele><time>2026-05-03T10:00:51.083Z</time></trkpt><trkpt lat="45.4262762" lon="11.4734322"><ele>48.75</ele><time>2026-05-03T10:00:52.083Z</time></trkpt><trkpt lat="45.4261652" lon="11.4735462"><ele>48.0</ele><time>2026-05-03T10:00:53.083Z</time></trkpt><trkpt lat="45.4260544" lon="11.4736516"><ele>48.0</ele><time>2026-05-03T10:00:54.083Z</time></trkpt><trkpt lat="45.4259356" lon="11.4737387"><ele>48.0</ele><time>2026-05-03T10:00:55.083Z</time></trkpt><trkpt lat="45.4258118" lon="11.4738128"><ele>48.0</ele><time>2026-05-03T10:00:56.083Z</time></trkpt><trkpt lat="45.4256817" lon="11.4738685"><ele>48.0</ele><time>2026-05-03T10:00:57.083Z</time></trkpt><trkpt lat="45.42555" lon="11.4739019"><ele>46.599999999999994</ele><time>2026-05-03T10:00:58.083Z</time></trkpt><trkpt lat="45.4254305" lon="11.4739187"><ele>45.199999999999996</ele><time>2026-05-03T10:00:59.083Z</time></trkpt><trkpt lat="45.4253211" lon="11.4739186"><ele>43.8</ele><time>2026-05-03T10:01:00.083Z</time></trkpt><trkpt lat="45.4252186" lon="11.4739013"><ele>42.4</ele><time>2026-05-03T10:01:01.083Z</time></trkpt><trkpt lat="45.4251147" lon="11.4738663"><ele>41.0</ele><time>2026-05-03T10:01:02.084Z</time></trkpt><trkpt lat="45.4250183" lon="11.4738212"><ele>41.0</ele><time>2026-05-03T10:01:03.084Z</time></trkpt><trkpt lat="45.4249379" lon="11.4737787"><ele>41.0</ele><time>2026-05-03T10:01:04.084Z</time></trkpt><trkpt lat="45.4248701" lon="11.4737588"><ele>41.0</ele><time>2026-05-03T10:01:05.083Z</time></trkpt><trkpt lat="45.4247746" lon="11.4738328"><ele>41.0</ele><time>2026-05-03T10:01:07.083Z</time></trkpt><trkpt lat="45.4247471" lon="11.474012"><ele>41.0</ele><time>2026-05-03T10:01:09.084Z</time></trkpt><trkpt lat="45.4247446" lon="11.4741282"><ele>41.0</ele><time>2026-05-03T10:01:10.083Z</time></trkpt><trkpt lat="45.4247446" lon="11.4742629"><ele>41.0</ele><time>2026-05-03T10:01:11.083Z</time></trkpt><trkpt lat="45.424746" lon="11.4744163"><ele>41.0</ele><time>2026-05-03T10:01:12.082Z</time></trkpt><trkpt lat="45.4247417" lon="11.4745815"><ele>41.0</ele><time>2026-05-03T10:01:13.083Z</time></trkpt><trkpt lat="45.4247312" lon="11.4747556"><ele>41.0</ele><time>2026-05-03T10:01:14.084Z</time></trkpt><trkpt lat="45.4247071" lon="11.4749328"><ele>41.0</ele><time>2026-05-03T10:01:15.084Z</time></trkpt><trkpt lat="45.4246751" lon="11.4751017"><ele>41.0</ele><time>2026-05-03T10:01:16.083Z</time></trkpt><trkpt lat="45.4246564" lon="11.4752666"><ele>41.0</ele><time>2026-05-03T10:01:17.083Z</time></trkpt><trkpt lat="45.4246632" lon="11.4754385"><ele>41.0</ele><time>2026-05-03T10:01:18.083Z</time></trkpt><trkpt lat="45.4246822" lon="11.4756135"><ele>41.0</ele><time>2026-05-03T10:01:19.083Z</time></trkpt><trkpt lat="45.4247015" lon="11.4757935"><ele>41.0</ele><time>2026-05-03T10:01:20.084Z</time></trkpt><trkpt lat="45.4247223" lon="11.475976"><ele>41.0</ele><time>2026-05-03T10:01:21.084Z</time></trkpt><trkpt lat="45.4247637" lon="11.476157"><ele>41.0</ele><time>2026-05-03T10:01:22.083Z</time></trkpt><trkpt lat="45.42483" lon="11.4763288"><ele>41.25</ele><time>2026-05-03T10:01:23.084Z</time></trkpt><trkpt lat="45.424909" lon="11.4764899"><ele>41.5</ele><time>2026-05-03T10:01:24.084Z</time></trkpt><trkpt lat="45.4250013" lon="11.4766383"><ele>41.75</ele><time>2026-05-03T10:01:25.083Z</time></trkpt><trkpt lat="45.4251117" lon="11.4767823"><ele>42.0</ele><time>2026-05-03T10:01:26.084Z</time></trkpt><trkpt lat="45.4252372" lon="11.4769214"><ele>42.0</ele><time>2026-05-03T10:01:27.083Z</time></trkpt><trkpt lat="45.4253702" lon="11.4770589"><ele>42.0</ele><time>2026-05-03T10:01:28.083Z</time></trkpt><trkpt lat="45.4255027" lon="11.477201"><ele>42.0</ele><time>2026-05-03T10:01:29.082Z</time></trkpt><trkpt lat="45.4256315" lon="11.4773457"><ele>44.0</ele><time>2026-05-03T10:01:30.082Z</time></trkpt><trkpt lat="45.4257629" lon="11.4774704"><ele>46.0</ele><time>2026-05-03T10:01:31.083Z</time></trkpt><trkpt lat="45.425905" lon="11.4775624"><ele>48.0</ele><time>2026-05-03T10:01:32.083Z</time></trkpt><trkpt lat="45.4260548" lon="11.4776051"><ele>48.0</ele><time>2026-05-03T10:01:33.083Z</time></trkpt><trkpt lat="45.4261963" lon="11.4776138"><ele>48.0</ele><time>2026-05-03T10:01:34.083Z</time></trkpt><trkpt lat="45.426323" lon="11.4776141"><ele>48.0</ele><time>2026-05-03T10:01:35.083Z</time></trkpt><trkpt lat="45.4264279" lon="11.4776151"><ele>48.0</ele><time>2026-05-03T10:01:36.083Z</time></trkpt><trkpt lat="45.426509" lon="11.4776139"><ele>48.0</ele><time>2026-05-03T10:01:37.083Z</time></trkpt><trkpt lat="45.4266025" lon="11.4776659"><ele>48.0</ele><time>2026-05-03T10:01:39.084Z</time></trkpt><trkpt lat="45.4265778" lon="11.4777895"><ele>48.0</ele><time>2026-05-03T10:01:41.082Z</time></trkpt><trkpt lat="45.4264519" lon="11.477826"><ele>48.0</ele><time>2026-05-03T10:01:43.084Z</time></trkpt><trkpt lat="45.4263652" lon="11.4778285"><ele>48.0</ele><time>2026-05-03T10:01:44.083Z</time></trkpt><trkpt lat="45.4262668" lon="11.4778697"><ele>50.599999999999994</ele><time>2026-05-03T10:01:45.083Z</time></trkpt><trkpt lat="45.426169" lon="11.4779367"><ele>53.199999999999996</ele><time>2026-05-03T10:01:46.084Z</time></trkpt><trkpt lat="45.4260796" lon="11.4780218"><ele>55.8</ele><time>2026-05-03T10:01:47.083Z</time></trkpt><trkpt lat="45.4260156" lon="11.4781395"><ele>58.4</ele><time>2026-05-03T10:01:48.084Z</time></trkpt><trkpt lat="45.4259836" lon="11.4782831"><ele>61.0</ele><time>2026-05-03T10:01:49.083Z</time></trkpt><trkpt lat="45.425975" lon="11.4784394"><ele>61.0</ele><time>2026-05-03T10:01:50.083Z</time></trkpt><trkpt lat="45.4259835" lon="11.4786128"><ele>61.0</ele><time>2026-05-03T10:01:51.083Z</time></trkpt><trkpt lat="45.4260016" lon="11.478794"><ele>61.0</ele><time>2026-05-03T10:01:52.083Z</time></trkpt><trkpt lat="45.4260309" lon="11.478983"><ele>61.0</ele><time>2026-05-03T10:01:53.082Z</time></trkpt><trkpt lat="45.4260619" lon="11.4791765"><ele>63.0</ele><time>2026-05-03T10:01:54.083Z</time></trkpt><trkpt lat="45.4260825" lon="11.4793806"><ele>65.0</ele><time>2026-05-03T10:01:55.084Z</time></trkpt><trkpt lat="45.4260904" lon="11.4795818"><ele>67.0</ele><time>2026-05-03T10:01:56.083Z</time></trkpt><trkpt lat="45.42609" lon="11.4797767"><ele>69.0</ele><time>2026-05-03T10:01:57.083Z</time></trkpt><trkpt lat="45.4260903" lon="11.4799621"><ele>71.4</ele><time>2026-05-03T10:01:58.083Z</time></trkpt><trkpt lat="45.4260837" lon="11.4801331"><ele>73.80000000000001</ele><time>2026-05-03T10:01:59.084Z</time></trkpt><trkpt lat="45.4260581" lon="11.4802735"><ele>76.19999999999999</ele><time>2026-05-03T10:02:00.083Z</time></trkpt><trkpt lat="45.4260039" lon="11.4803852"><ele>78.6</ele><time>2026-05-03T10:02:01.083Z</time></trkpt><trkpt lat="45.4259222" lon="11.4804645"><ele>81.0</ele><time>2026-05-03T10:02:02.083Z</time></trkpt><trkpt lat="45.4258206" lon="11.4805358"><ele>83.5</ele><time>2026-05-03T10:02:03.083Z</time></trkpt><trkpt lat="45.4257017" lon="11.4806081"><ele>86.0</ele><time>2026-05-03T10:02:04.083Z</time></trkpt><trkpt lat="45.4255742" lon="11.4806923"><ele>88.5</ele><time>2026-05-03T10:02:05.083Z</time></trkpt><trkpt lat="45.4254471" lon="11.4807807"><ele>91.0</ele><time>2026-05-03T10:02:06.083Z</time></trkpt><trkpt lat="45.4253064" lon="11.4808627"><ele>91.0</ele><time>2026-05-03T10:02:07.083Z</time></trkpt><trkpt lat="45.4251695" lon="11.4809545"><ele>91.0</ele><time>2026-05-03T10:02:08.083Z</time></trkpt><trkpt lat="45.4250337" lon="11.4810576"><ele>91.0</ele><time>2026-05-03T10:02:09.083Z</time></trkpt><trkpt lat="45.4249093" lon="11.4811814"><ele>95.0</ele><time>2026-05-03T10:02:10.083Z</time></trkpt><trkpt lat="45.4247991" lon="11.4813119"><ele>99.0</ele><time>2026-05-03T10:02:11.083Z</time></trkpt><trkpt lat="45.4246936" lon="11.4814395"><ele>103.0</ele><time>2026-05-03T10:02:12.083Z</time></trkpt><trkpt lat="45.4245977" lon="11.4815548"><ele>107.0</ele><time>2026-05-03T10:02:13.083Z</time></trkpt><trkpt lat="45.4244931" lon="11.481629"><ele>107.0</ele><time>2026-05-03T10:02:14.083Z</time></trkpt><trkpt lat="45.4243849" lon="11.4816644"><ele>107.0</ele><time>2026-05-03T10:02:15.083Z</time></trkpt><trkpt lat="45.424262" lon="11.4816507"><ele>107.0</ele><time>2026-05-03T10:02:16.083Z</time></trkpt><trkpt lat="45.4241469" lon="11.4816238"><ele>107.0</ele><time>2026-05-03T10:02:17.083Z</time></trkpt><trkpt lat="45.4240447" lon="11.4816029"><ele>106.99999999999999</ele><time>2026-05-03T10:02:18.083Z</time></trkpt><trkpt lat="45.4239561" lon="11.4815873"><ele>107.0</ele><time>2026-05-03T10:02:19.083Z</time></trkpt><trkpt lat="45.4238726" lon="11.4815928"><ele>107.0</ele><time>2026-05-03T10:02:20.083Z</time></trkpt><trkpt lat="45.4238045" lon="11.4816427"><ele>107.0</ele><time>2026-05-03T10:02:21.083Z</time></trkpt><trkpt lat="45.4237573" lon="11.4817429"><ele>106.99999999999999</ele><time>2026-05-03T10:02:22.083Z</time></trkpt><trkpt lat="45.4237241" lon="11.4818736"><ele>107.0</ele><time>2026-05-03T10:02:23.084Z</time></trkpt><trkpt lat="45.4237001" lon="11.4820311"><ele>106.75</ele><time>2026-05-03T10:02:24.083Z</time></trkpt><trkpt lat="45.4236702" lon="11.4822046"><ele>106.5</ele><time>2026-05-03T10:02:25.083Z</time></trkpt><trkpt lat="45.4236385" lon="11.4823919"><ele>106.25</ele><time>2026-05-03T10:02:26.084Z</time></trkpt><trkpt lat="45.4236058" lon="11.482591"><ele>106.0</ele><time>2026-05-03T10:02:27.084Z</time></trkpt><trkpt lat="45.4235744" lon="11.4827995"><ele>108.5</ele><time>2026-05-03T10:02:28.083Z</time></trkpt><trkpt lat="45.4235421" lon="11.4830009"><ele>111.0</ele><time>2026-05-03T10:02:29.084Z</time></trkpt><trkpt lat="45.4235094" lon="11.483195"><ele>113.5</ele><time>2026-05-03T10:02:30.083Z</time></trkpt><trkpt lat="45.4234807" lon="11.4833694"><ele>116.0</ele><time>2026-05-03T10:02:31.083Z</time></trkpt><trkpt lat="45.4234562" lon="11.4835203"><ele>115.99999999999999</ele><time>2026-05-03T10:02:32.083Z</time></trkpt><trkpt lat="45.4234393" lon="11.4836494"><ele>116.0</ele><time>2026-05-03T10:02:33.083Z</time></trkpt><trkpt lat="45.4234378" lon="11.4837623"><ele>116.0</ele><time>2026-05-03T10:02:34.083Z</time></trkpt><trkpt lat="45.4234691" lon="11.4838549"><ele>116.0</ele><time>2026-05-03T10:02:35.083Z</time></trkpt><trkpt lat="45.4235315" lon="11.4839083"><ele>115.99999999999999</ele><time>2026-05-03T10:02:36.083Z</time></trkpt><trkpt lat="45.4236131" lon="11.483909"><ele>116.0</ele><time>2026-05-03T10:02:37.083Z</time></trkpt><trkpt lat="45.4237008" lon="11.4838618"><ele>118.5</ele><time>2026-05-03T10:02:38.083Z</time></trkpt><trkpt lat="45.4237989" lon="11.4837881"><ele>121.0</ele><time>2026-05-03T10:02:39.084Z</time></trkpt><trkpt lat="45.4239086" lon="11.4837022"><ele>123.5</ele><time>2026-05-03T10:02:40.083Z</time></trkpt><trkpt lat="45.4240347" lon="11.4836081"><ele>126.0</ele><time>2026-05-03T10:02:41.083Z</time></trkpt><trkpt lat="45.4241664" lon="11.483502"><ele>129.0</ele><time>2026-05-03T10:02:42.083Z</time></trkpt><trkpt lat="45.4243059" lon="11.4833923"><ele>132.0</ele><time>2026-05-03T10:02:43.083Z</time></trkpt><trkpt lat="45.4244466" lon="11.4832838"><ele>135.0</ele><time>2026-05-03T10:02:44.083Z</time></trkpt><trkpt lat="45.4245883" lon="11.4831727"><ele>136.33333333333334</ele><time>2026-05-03T10:02:45.082Z</time></trkpt><trkpt lat="45.4247271" lon="11.4830517"><ele>137.66666666666669</ele><time>2026-05-03T10:02:46.084Z</time></trkpt><trkpt lat="45.4248599" lon="11.4829166"><ele>139.0</ele><time>2026-05-03T10:02:47.084Z</time></trkpt><trkpt lat="45.4249884" lon="11.482775"><ele>139.0</ele><time>2026-05-03T10:02:48.083Z</time></trkpt><trkpt lat="45.4251158" lon="11.4826345"><ele>139.0</ele><time>2026-05-03T10:02:49.084Z</time></trkpt><trkpt lat="45.4252456" lon="11.4825002"><ele>139.0</ele><time>2026-05-03T10:02:50.083Z</time></trkpt><trkpt lat="45.4253836" lon="11.4823725"><ele>139.5</ele><time>2026-05-03T10:02:51.083Z</time></trkpt><trkpt lat="45.4255247" lon="11.4822672"><ele>140.0</ele><time>2026-05-03T10:02:52.083Z</time></trkpt><trkpt lat="45.4256578" lon="11.482185"><ele>140.5</ele><time>2026-05-03T10:02:53.083Z</time></trkpt><trkpt lat="45.4257818" lon="11.4821108"><ele>141.0</ele><time>2026-05-03T10:02:54.083Z</time></trkpt><trkpt lat="45.4259071" lon="11.4820549"><ele>141.0</ele><time>2026-05-03T10:02:55.083Z</time></trkpt><trkpt lat="45.4260432" lon="11.4820278"><ele>141.0</ele><time>2026-05-03T10:02:56.083Z</time></trkpt><trkpt lat="45.4261868" lon="11.4820334"><ele>141.0</ele><time>2026-05-03T10:02:57.083Z</time></trkpt><trkpt lat="45.4263388" lon="11.4820377"><ele>141.0</ele><time>2026-05-03T10:02:58.083Z</time></trkpt><trkpt lat="45.4264861" lon="11.4819998"><ele>146.33333333333334</ele><time>2026-05-03T10:02:59.083Z</time></trkpt><trkpt lat="45.4266402" lon="11.4819526"><ele>151.66666666666669</ele><time>2026-05-03T10:03:00.083Z</time></trkpt><trkpt lat="45.4267939" lon="11.4818876"><ele>157.0</ele><time>2026-05-03T10:03:01.084Z</time></trkpt><trkpt lat="45.4269412" lon="11.4818028"><ele>157.0</ele><time>2026-05-03T10:03:02.083Z</time></trkpt><trkpt lat="45.4270854" lon="11.4817106"><ele>157.0</ele><time>2026-05-03T10:03:03.083Z</time></trkpt><trkpt lat="45.4272229" lon="11.4816081"><ele>157.0</ele><time>2026-05-03T10:03:04.083Z</time></trkpt><trkpt lat="45.4273522" lon="11.4815021"><ele>162.25</ele><time>2026-05-03T10:03:05.083Z</time></trkpt><trkpt lat="45.4274862" lon="11.4814204"><ele>167.5</ele><time>2026-05-03T10:03:06.083Z</time></trkpt><trkpt lat="45.4276238" lon="11.4813578"><ele>172.75</ele><time>2026-05-03T10:03:07.084Z</time></trkpt><trkpt lat="45.427764" lon="11.4813179"><ele>178.0</ele><time>2026-05-03T10:03:08.083Z</time></trkpt><trkpt lat="45.4279068" lon="11.4813185"><ele>179.66666666666669</ele><time>2026-05-03T10:03:09.084Z</time></trkpt><trkpt lat="45.428056" lon="11.4813569"><ele>181.33333333333334</ele><time>2026-05-03T10:03:10.083Z</time></trkpt><trkpt lat="45.4282014" lon="11.4814062"><ele>183.0</ele><time>2026-05-03T10:03:11.082Z</time></trkpt><trkpt lat="45.4283448" lon="11.4814622"><ele>183.0</ele><time>2026-05-03T10:03:12.083Z</time></trkpt><trkpt lat="45.4284799" lon="11.4815134"><ele>183.0</ele><time>2026-05-03T10:03:13.083Z</time></trkpt><trkpt lat="45.4286015" lon="11.4815569"><ele>183.0</ele><time>2026-05-03T10:03:14.083Z</time></trkpt><trkpt lat="45.4287211" lon="11.4815966"><ele>183.0</ele><time>2026-05-03T10:03:15.084Z</time></trkpt><trkpt lat="45.4288281" lon="11.4816291"><ele>183.0</ele><time>2026-05-03T10:03:16.083Z</time></trkpt><trkpt lat="45.4289116" lon="11.4816566"><ele>183.0</ele><time>2026-05-03T10:03:17.083Z</time></trkpt><trkpt lat="45.4289735" lon="11.4816987"><ele>183.0</ele><time>2026-05-03T10:03:18.083Z</time></trkpt><trkpt lat="45.4290022" lon="11.4818406"><ele>183.0</ele><time>2026-05-03T10:03:20.083Z</time></trkpt><trkpt lat="45.428901" lon="11.4819495"><ele>183.0</ele><time>2026-05-03T10:03:22.083Z</time></trkpt><trkpt lat="45.4288066" lon="11.4819565"><ele>183.0</ele><time>2026-05-03T10:03:23.082Z</time></trkpt><trkpt lat="45.4286913" lon="11.4819625"><ele>183.0</ele><time>2026-05-03T10:03:24.084Z</time></trkpt><trkpt lat="45.4285677" lon="11.4819898"><ele>183.0</ele><time>2026-05-03T10:03:25.083Z</time></trkpt><trkpt lat="45.4284337" lon="11.482025"><ele>183.0</ele><time>2026-05-03T10:03:26.083Z</time></trkpt><trkpt lat="45.4282959" lon="11.4820794"><ele>186.25</ele><time>2026-05-03T10:03:27.084Z</time></trkpt><trkpt lat="45.4281641" lon="11.4821513"><ele>189.5</ele><time>2026-05-03T10:03:28.084Z</time></trkpt><trkpt lat="45.4280361" lon="11.4822327"><ele>192.75</ele><time>2026-05-03T10:03:29.083Z</time></trkpt><trkpt lat="45.4279133" lon="11.4823328"><ele>196.0</ele><time>2026-05-03T10:03:30.083Z</time></trkpt><trkpt lat="45.427792" lon="11.4824531"><ele>196.0</ele><time>2026-05-03T10:03:31.084Z</time></trkpt><trkpt lat="45.4276744" lon="11.4825834"><ele>196.0</ele><time>2026-05-03T10:03:32.083Z</time></trkpt><trkpt lat="45.427551" lon="11.482716"><ele>196.0</ele><time>2026-05-03T10:03:33.083Z</time></trkpt><trkpt lat="45.4274268" lon="11.4828483"><ele>197.25</ele><time>2026-05-03T10:03:34.084Z</time></trkpt><trkpt lat="45.4273049" lon="11.4829837"><ele>198.5</ele><time>2026-05-03T10:03:35.083Z</time></trkpt><trkpt lat="45.4271846" lon="11.4831137"><ele>199.75</ele><time>2026-05-03T10:03:36.084Z</time></trkpt><trkpt lat="45.4270728" lon="11.4832315"><ele>201.0</ele><time>2026-05-03T10:03:37.083Z</time></trkpt><trkpt lat="45.4269786" lon="11.4833351"><ele>201.0</ele><time>2026-05-03T10:03:38.084Z</time></trkpt><trkpt lat="45.4268982" lon="11.4834216"><ele>201.0</ele><time>2026-05-03T10:03:39.083Z</time></trkpt><trkpt lat="45.4268365" lon="11.4835161"><ele>201.0</ele><time>2026-05-03T10:03:40.083Z</time></trkpt><trkpt lat="45.4268137" lon="11.483631"><ele>201.0</ele><time>2026-05-03T10:03:41.083Z</time></trkpt><trkpt lat="45.4268352" lon="11.4837327"><ele>201.0</ele><time>2026-05-03T10:03:42.083Z</time></trkpt><trkpt lat="45.4268978" lon="11.483793"><ele>201.0</ele><time>2026-05-03T10:03:43.083Z</time></trkpt><trkpt lat="45.4269831" lon="11.4838168"><ele>204.75</ele><time>2026-05-03T10:03:44.083Z</time></trkpt><trkpt lat="45.4270888" lon="11.4838234"><ele>208.5</ele><time>2026-05-03T10:03:45.083Z</time></trkpt><trkpt lat="45.427206" lon="11.483835"><ele>212.25</ele><time>2026-05-03T10:03:46.084Z</time></trkpt><trkpt lat="45.427339" lon="11.4838407"><ele>216.0</ele><time>2026-05-03T10:03:47.083Z</time></trkpt><trkpt lat="45.4274816" lon="11.4838435"><ele>217.5</ele><time>2026-05-03T10:03:48.083Z</time></trkpt><trkpt lat="45.4276299" lon="11.4838504"><ele>219.0</ele><time>2026-05-03T10:03:49.083Z</time></trkpt><trkpt lat="45.4277826" lon="11.4838552"><ele>220.5</ele><time>2026-05-03T10:03:50.083Z</time></trkpt><trkpt lat="45.4279246" lon="11.4838639"><ele>222.0</ele><time>2026-05-03T10:03:51.083Z</time></trkpt><trkpt lat="45.4280322" lon="11.4838929"><ele>222.8</ele><time>2026-05-03T10:03:52.084Z</time></trkpt><trkpt lat="45.4281157" lon="11.483968"><ele>223.6</ele><time>2026-05-03T10:03:53.083Z</time></trkpt><trkpt lat="45.4281589" lon="11.4840738"><ele>224.40000000000003</ele><time>2026-05-03T10:03:54.083Z</time></trkpt><trkpt lat="45.4281617" lon="11.4841935"><ele>225.20000000000002</ele><time>2026-05-03T10:03:55.083Z</time></trkpt><trkpt lat="45.4281265" lon="11.4843184"><ele>226.0</ele><time>2026-05-03T10:03:56.083Z</time></trkpt><trkpt lat="45.4280599" lon="11.4844326"><ele>225.0</ele><time>2026-05-03T10:03:57.083Z</time></trkpt><trkpt lat="45.4279645" lon="11.4845351"><ele>224.0</ele><time>2026-05-03T10:03:58.083Z</time></trkpt><trkpt lat="45.4278555" lon="11.4846441"><ele>223.0</ele><time>2026-05-03T10:03:59.084Z</time></trkpt><trkpt lat="45.4277471" lon="11.4847694"><ele>222.0</ele><time>2026-05-03T10:04:00.083Z</time></trkpt><trkpt lat="45.427632" lon="11.4848976"><ele>226.0</ele><time>2026-05-03T10:04:01.082Z</time></trkpt><trkpt lat="45.4275116" lon="11.4850285"><ele>230.0</ele><time>2026-05-03T10:04:02.082Z</time></trkpt><trkpt lat="45.4273901" lon="11.4851637"><ele>234.0</ele><time>2026-05-03T10:04:03.082Z</time></trkpt><trkpt lat="45.4272649" lon="11.4852975"><ele>238.33333333333331</ele><time>2026-05-03T10:04:04.082Z</time></trkpt><trkpt lat="45.4271385" lon="11.48543"><ele>242.66666666666666</ele><time>2026-05-03T10:04:05.082Z</time></trkpt><trkpt lat="45.4270111" lon="11.4855627"><ele>247.0</ele><time>2026-05-03T10:04:06.082Z</time></trkpt><trkpt lat="45.4268789" lon="11.4856912"><ele>247.0</ele><time>2026-05-03T10:04:07.082Z</time></trkpt><trkpt lat="45.4267434" lon="11.4858095"><ele>247.0</ele><time>2026-05-03T10:04:08.082Z</time></trkpt><trkpt lat="45.4266036" lon="11.4859233"><ele>247.0</ele><time>2026-05-03T10:04:09.082Z</time></trkpt><trkpt lat="45.426461" lon="11.4860283"><ele>247.0</ele><time>2026-05-03T10:04:10.083Z</time></trkpt><trkpt lat="45.4263201" lon="11.4861335"><ele>247.0</ele><time>2026-05-03T10:04:11.082Z</time></trkpt><trkpt lat="45.4261865" lon="11.4862301"><ele>247.0</ele><time>2026-05-03T10:04:12.082Z</time></trkpt><trkpt lat="45.4260603" lon="11.4863214"><ele>249.25</ele><time>2026-05-03T10:04:13.082Z</time></trkpt><trkpt lat="45.4259396" lon="11.4864083"><ele>251.5</ele><time>2026-05-03T10:04:14.083Z</time></trkpt><trkpt lat="45.4258231" lon="11.4865117"><ele>253.75</ele><time>2026-05-03T10:04:15.082Z</time></trkpt><trkpt lat="45.4257163" lon="11.4866364"><ele>256.0</ele><time>2026-05-03T10:04:16.083Z</time></trkpt><trkpt lat="45.4256179" lon="11.4867777"><ele>256.0</ele><time>2026-05-03T10:04:17.082Z</time></trkpt><trkpt lat="45.4255282" lon="11.4869326"><ele>256.0</ele><time>2026-05-03T10:04:18.082Z</time></trkpt><trkpt lat="45.4254499" lon="11.4870893"><ele>256.0</ele><time>2026-05-03T10:04:19.082Z</time></trkpt><trkpt lat="45.425376" lon="11.4872381"><ele>256.0</ele><time>2026-05-03T10:04:20.082Z</time></trkpt><trkpt lat="45.4253124" lon="11.4873752"><ele>255.60000000000002</ele><time>2026-05-03T10:04:21.083Z</time></trkpt><trkpt lat="45.4252545" lon="11.4875041"><ele>255.20000000000002</ele><time>2026-05-03T10:04:22.082Z</time></trkpt><trkpt lat="45.4252128" lon="11.4876394"><ele>254.79999999999998</ele><time>2026-05-03T10:04:23.082Z</time></trkpt><trkpt lat="45.4251952" lon="11.4877829"><ele>254.39999999999998</ele><time>2026-05-03T10:04:24.083Z</time></trkpt><trkpt lat="45.4252075" lon="11.4879391"><ele>254.0</ele><time>2026-05-03T10:04:25.083Z</time></trkpt><trkpt lat="45.4252451" lon="11.4881049"><ele>254.0</ele><time>2026-05-03T10:04:26.082Z</time></trkpt><trkpt lat="45.4252935" lon="11.488288"><ele>254.0</ele><time>2026-05-03T10:04:27.082Z</time></trkpt><trkpt lat="45.4253437" lon="11.4884847"><ele>254.0</ele><time>2026-05-03T10:04:28.082Z</time></trkpt><trkpt lat="45.4253982" lon="11.4886894"><ele>254.0</ele><time>2026-05-03T10:04:29.082Z</time></trkpt><trkpt lat="45.4254514" lon="11.4888982"><ele>258.6666666666667</ele><time>2026-05-03T10:04:30.082Z</time></trkpt><trkpt lat="45.425506" lon="11.4891102"><ele>263.3333333333333</ele><time>2026-05-03T10:04:31.081Z</time></trkpt><trkpt lat="45.4255653" lon="11.4893231"><ele>268.0</ele><time>2026-05-03T10:04:32.082Z</time></trkpt><trkpt lat="45.4256372" lon="11.489531"><ele>267.3333333333333</ele><time>2026-05-03T10:04:33.082Z</time></trkpt><trkpt lat="45.4257185" lon="11.4897332"><ele>266.6666666666667</ele><time>2026-05-03T10:04:34.082Z</time></trkpt><trkpt lat="45.4258064" lon="11.4899321"><ele>266.0</ele><time>2026-05-03T10:04:35.082Z</time></trkpt><trkpt lat="45.4258943" lon="11.4901318"><ele>266.0</ele><time>2026-05-03T10:04:36.082Z</time></trkpt><trkpt lat="45.4259811" lon="11.4903283"><ele>266.0</ele><time>2026-05-03T10:04:37.081Z</time></trkpt><trkpt lat="45.4260698" lon="11.4905227"><ele>266.0</ele><time>2026-05-03T10:04:38.082Z</time></trkpt><trkpt lat="45.4261601" lon="11.4907092"><ele>267.25</ele><time>2026-05-03T10:04:39.082Z</time></trkpt><trkpt lat="45.4262516" lon="11.490887"><ele>268.5</ele><time>2026-05-03T10:04:40.082Z</time></trkpt><trkpt lat="45.42634" lon="11.4910529"><ele>269.75</ele><time>2026-05-03T10:04:41.083Z</time></trkpt><trkpt lat="45.4264377" lon="11.4912063"><ele>271.0</ele><time>2026-05-03T10:04:42.082Z</time></trkpt><trkpt lat="45.4265475" lon="11.491351"><ele>273.66666666666663</ele><time>2026-05-03T10:04:43.082Z</time></trkpt><trkpt lat="45.4266596" lon="11.4914943"><ele>276.3333333333333</ele><time>2026-05-03T10:04:44.082Z</time></trkpt><trkpt lat="45.4267788" lon="11.4916282"><ele>279.0</ele><time>2026-05-03T10:04:45.082Z</time></trkpt><trkpt lat="45.4269037" lon="11.491761"><ele>279.0</ele><time>2026-05-03T10:04:46.082Z</time></trkpt><trkpt lat="45.4270202" lon="11.4919051"><ele>279.0</ele><time>2026-05-03T10:04:47.083Z</time></trkpt><trkpt lat="45.4271368" lon="11.4920495"><ele>279.0</ele><time>2026-05-03T10:04:48.082Z</time></trkpt><trkpt lat="45.4272613" lon="11.4921932"><ele>280.6666666666667</ele><time>2026-05-03T10:04:49.083Z</time></trkpt><trkpt lat="45.4273828" lon="11.4923337"><ele>282.33333333333337</ele><time>2026-05-03T10:04:50.082Z</time></trkpt><trkpt lat="45.4275082" lon="11.4924753"><ele>284.0</ele><time>2026-05-03T10:04:51.083Z</time></trkpt><trkpt lat="45.4276393" lon="11.4926153"><ele>284.0</ele><time>2026-05-03T10:04:52.083Z</time></trkpt><trkpt lat="45.4277688" lon="11.4927565"><ele>284.0</ele><time>2026-05-03T10:04:53.082Z</time></trkpt><trkpt lat="45.427902" lon="11.4929093"><ele>284.0</ele><time>2026-05-03T10:04:54.082Z</time></trkpt><trkpt lat="45.4280408" lon="11.4930678"><ele>285.33333333333337</ele><time>2026-05-03T10:04:55.082Z</time></trkpt><trkpt lat="45.4281814" lon="11.4932232"><ele>286.6666666666667</ele><time>2026-05-03T10:04:56.083Z</time></trkpt><trkpt lat="45.4283143" lon="11.4933737"><ele>288.0</ele><time>2026-05-03T10:04:57.083Z</time></trkpt><trkpt lat="45.4284425" lon="11.493514"><ele>288.0</ele><time>2026-05-03T10:04:58.082Z</time></trkpt><trkpt lat="45.4285595" lon="11.4936662"><ele>288.0</ele><time>2026-05-03T10:04:59.082Z</time></trkpt><trkpt lat="45.4286575" lon="11.4938378"><ele>288.0</ele><time>2026-05-03T10:05:00.082Z</time></trkpt><trkpt lat="45.4287247" lon="11.4940214"><ele>287.5</ele><time>2026-05-03T10:05:01.081Z</time></trkpt><trkpt lat="45.4287606" lon="11.4942213"><ele>287.0</ele><time>2026-05-03T10:05:02.082Z</time></trkpt><trkpt lat="45.4287553" lon="11.4944217"><ele>286.5</ele><time>2026-05-03T10:05:03.082Z</time></trkpt><trkpt lat="45.4287215" lon="11.4946233"><ele>286.0</ele><time>2026-05-03T10:05:04.082Z</time></trkpt><trkpt lat="45.428663" lon="11.4948179"><ele>286.0</ele><time>2026-05-03T10:05:05.082Z</time></trkpt><trkpt lat="45.4285941" lon="11.4949909"><ele>286.0</ele><time>2026-05-03T10:05:06.083Z</time></trkpt><trkpt lat="45.4285249" lon="11.4951332"><ele>286.0</ele><time>2026-05-03T10:05:07.082Z</time></trkpt><trkpt lat="45.4284653" lon="11.4952678"><ele>286.0</ele><time>2026-05-03T10:05:08.082Z</time></trkpt><trkpt lat="45.4284179" lon="11.4953997"><ele>286.2</ele><time>2026-05-03T10:05:09.081Z</time></trkpt><trkpt lat="45.4283955" lon="11.495535"><ele>286.40000000000003</ele><time>2026-05-03T10:05:10.082Z</time></trkpt><trkpt lat="45.4284031" lon="11.4956598"><ele>286.6</ele><time>2026-05-03T10:05:11.082Z</time></trkpt><trkpt lat="45.4284514" lon="11.4957687"><ele>286.8</ele><time>2026-05-03T10:05:12.082Z</time></trkpt><trkpt lat="45.4285294" lon="11.4958509"><ele>287.0</ele><time>2026-05-03T10:05:13.082Z</time></trkpt><trkpt lat="45.4286248" lon="11.4958898"><ele>287.0</ele><time>2026-05-03T10:05:14.083Z</time></trkpt><trkpt lat="45.4287352" lon="11.495885"><ele>287.0</ele><time>2026-05-03T10:05:15.082Z</time></trkpt><trkpt lat="45.4288543" lon="11.4958436"><ele>287.0</ele><time>2026-05-03T10:05:16.082Z</time></trkpt><trkpt lat="45.4289785" lon="11.4958001"><ele>287.0</ele><time>2026-05-03T10:05:17.082Z</time></trkpt><trkpt lat="45.4291023" lon="11.4957577"><ele>286.4</ele><time>2026-05-03T10:05:18.081Z</time></trkpt><trkpt lat="45.4292209" lon="11.4957169"><ele>285.79999999999995</ele><time>2026-05-03T10:05:19.082Z</time></trkpt><trkpt lat="45.4293272" lon="11.4956806"><ele>285.2</ele><time>2026-05-03T10:05:20.081Z</time></trkpt><trkpt lat="45.4294228" lon="11.495654"><ele>284.59999999999997</ele><time>2026-05-03T10:05:21.082Z</time></trkpt><trkpt lat="45.4295026" lon="11.4956578"><ele>284.0</ele><time>2026-05-03T10:05:22.082Z</time></trkpt><trkpt lat="45.4295619" lon="11.495721"><ele>284.0</ele><time>2026-05-03T10:05:23.082Z</time></trkpt><trkpt lat="45.4295896" lon="11.4958158"><ele>284.0</ele><time>2026-05-03T10:05:24.082Z</time></trkpt><trkpt lat="45.4295822" lon="11.4959236"><ele>284.0</ele><time>2026-05-03T10:05:25.083Z</time></trkpt><trkpt lat="45.4295417" lon="11.4960283"><ele>284.0</ele><time>2026-05-03T10:05:26.083Z</time></trkpt><trkpt lat="45.4294827" lon="11.4961421"><ele>284.0</ele><time>2026-05-03T10:05:27.082Z</time></trkpt><trkpt lat="45.4294207" lon="11.4962776"><ele>284.0</ele><time>2026-05-03T10:05:28.082Z</time></trkpt><trkpt lat="45.4293608" lon="11.4964379"><ele>281.75</ele><time>2026-05-03T10:05:29.082Z</time></trkpt><trkpt lat="45.4293123" lon="11.4966219"><ele>279.5</ele><time>2026-05-03T10:05:30.083Z</time></trkpt><trkpt lat="45.4292708" lon="11.4968201"><ele>277.25</ele><time>2026-05-03T10:05:31.082Z</time></trkpt><trkpt lat="45.4292323" lon="11.4970203"><ele>275.0</ele><time>2026-05-03T10:05:32.082Z</time></trkpt><trkpt lat="45.4291922" lon="11.4972149"><ele>274.75</ele><time>2026-05-03T10:05:33.082Z</time></trkpt><trkpt lat="45.4291435" lon="11.4974123"><ele>274.5</ele><time>2026-05-03T10:05:34.082Z</time></trkpt><trkpt lat="45.4290796" lon="11.4976042"><ele>274.25</ele><time>2026-05-03T10:05:35.083Z</time></trkpt><trkpt lat="45.4290103" lon="11.4977995"><ele>274.0</ele><time>2026-05-03T10:05:36.082Z</time></trkpt><trkpt lat="45.4289307" lon="11.4979996"><ele>275.0</ele><time>2026-05-03T10:05:37.082Z</time></trkpt><trkpt lat="45.4288422" lon="11.4982015"><ele>276.0</ele><time>2026-05-03T10:05:38.083Z</time></trkpt><trkpt lat="45.4287466" lon="11.4984042"><ele>277.0</ele><time>2026-05-03T10:05:39.082Z</time></trkpt><trkpt lat="45.4286534" lon="11.4986076"><ele>272.0</ele><time>2026-05-03T10:05:40.082Z</time></trkpt><trkpt lat="45.4285616" lon="11.4988022"><ele>267.0</ele><time>2026-05-03T10:05:41.082Z</time></trkpt><trkpt lat="45.4284741" lon="11.4989834"><ele>262.0</ele><time>2026-05-03T10:05:42.083Z</time></trkpt><trkpt lat="45.4283934" lon="11.4991547"><ele>262.0</ele><time>2026-05-03T10:05:43.082Z</time></trkpt><trkpt lat="45.4283215" lon="11.499324"><ele>262.0</ele><time>2026-05-03T10:05:44.082Z</time></trkpt><trkpt lat="45.4282642" lon="11.4995029"><ele>262.0</ele><time>2026-05-03T10:05:45.082Z</time></trkpt><trkpt lat="45.4282275" lon="11.4996832"><ele>262.0</ele><time>2026-05-03T10:05:46.082Z</time></trkpt><trkpt lat="45.4282114" lon="11.4998584"><ele>262.75</ele><time>2026-05-03T10:05:47.082Z</time></trkpt><trkpt lat="45.4282183" lon="11.5000219"><ele>263.5</ele><time>2026-05-03T10:05:48.082Z</time></trkpt><trkpt lat="45.4282533" lon="11.5001787"><ele>264.25</ele><time>2026-05-03T10:05:49.082Z</time></trkpt><trkpt lat="45.4283072" lon="11.5003272"><ele>265.0</ele><time>2026-05-03T10:05:50.082Z</time></trkpt><trkpt lat="45.4283765" lon="11.5004733"><ele>265.0</ele><time>2026-05-03T10:05:51.082Z</time></trkpt><trkpt lat="45.4284525" lon="11.5006094"><ele>265.0</ele><time>2026-05-03T10:05:52.082Z</time></trkpt><trkpt lat="45.4285316" lon="11.5007362"><ele>265.0</ele><time>2026-05-03T10:05:53.082Z</time></trkpt><trkpt lat="45.4286141" lon="11.5008582"><ele>265.0</ele><time>2026-05-03T10:05:54.082Z</time></trkpt><trkpt lat="45.4286919" lon="11.500973"><ele>265.0</ele><time>2026-05-03T10:05:55.082Z</time></trkpt><trkpt lat="45.4287831" lon="11.5010607"><ele>265.0</ele><time>2026-05-03T10:05:56.083Z</time></trkpt><trkpt lat="45.4288888" lon="11.5011185"><ele>265.0</ele><time>2026-05-03T10:05:57.082Z</time></trkpt><trkpt lat="45.4289909" lon="11.5011555"><ele>265.0</ele><time>2026-05-03T10:05:58.083Z</time></trkpt><trkpt lat="45.4290783" lon="11.5011862"><ele>265.0</ele><time>2026-05-03T10:05:59.082Z</time></trkpt><trkpt lat="45.4291438" lon="11.5012416"><ele>265.8333333333333</ele><time>2026-05-03T10:06:00.083Z</time></trkpt><trkpt lat="45.429173" lon="11.5013303"><ele>266.66666666666663</ele><time>2026-05-03T10:06:01.082Z</time></trkpt><trkpt lat="45.4291668" lon="11.501428"><ele>267.5</ele><time>2026-05-03T10:06:02.083Z</time></trkpt><trkpt lat="45.4291281" lon="11.5015196"><ele>268.3333333333333</ele><time>2026-05-03T10:06:03.082Z</time></trkpt><trkpt lat="45.4290574" lon="11.5016033"><ele>269.1666666666667</ele><time>2026-05-03T10:06:04.082Z</time></trkpt><trkpt lat="45.428964" lon="11.5016674"><ele>270.0</ele><time>2026-05-03T10:06:05.082Z</time></trkpt><trkpt lat="45.4288604" lon="11.5017257"><ele>270.0</ele><time>2026-05-03T10:06:06.082Z</time></trkpt><trkpt lat="45.4287579" lon="11.501796"><ele>270.0</ele><time>2026-05-03T10:06:07.082Z</time></trkpt><trkpt lat="45.4286589" lon="11.5018639"><ele>270.0</ele><time>2026-05-03T10:06:08.083Z</time></trkpt><trkpt lat="45.428559" lon="11.5019483"><ele>270.0</ele><time>2026-05-03T10:06:09.082Z</time></trkpt><trkpt lat="45.4284599" lon="11.5020547"><ele>272.4</ele><time>2026-05-03T10:06:10.082Z</time></trkpt><trkpt lat="45.4283613" lon="11.5021587"><ele>274.8</ele><time>2026-05-03T10:06:11.082Z</time></trkpt><trkpt lat="45.4282603" lon="11.5022409"><ele>277.2</ele><time>2026-05-03T10:06:12.081Z</time></trkpt><trkpt lat="45.4281636" lon="11.5022952"><ele>279.6</ele><time>2026-05-03T10:06:13.081Z</time></trkpt><trkpt lat="45.4280668" lon="11.5023098"><ele>282.0</ele><time>2026-05-03T10:06:14.082Z</time></trkpt><trkpt lat="45.4279732" lon="11.5022716"><ele>282.0</ele><time>2026-05-03T10:06:15.082Z</time></trkpt><trkpt lat="45.4278892" lon="11.5021946"><ele>282.0</ele><time>2026-05-03T10:06:16.082Z</time></trkpt><trkpt lat="45.4278132" lon="11.5021071"><ele>282.0</ele><time>2026-05-03T10:06:17.082Z</time></trkpt><trkpt lat="45.42774" lon="11.5020246"><ele>282.0</ele><time>2026-05-03T10:06:18.082Z</time></trkpt><trkpt lat="45.4276739" lon="11.5019908"><ele>282.0</ele><time>2026-05-03T10:06:19.082Z</time></trkpt><trkpt lat="45.4275965" lon="11.50206"><ele>282.0</ele><time>2026-05-03T10:06:21.082Z</time></trkpt><trkpt lat="45.4276416" lon="11.5022021"><ele>282.0</ele><time>2026-05-03T10:06:23.081Z</time></trkpt><trkpt lat="45.4277008" lon="11.5023132"><ele>282.0</ele><time>2026-05-03T10:06:24.082Z</time></trkpt><trkpt lat="45.4277588" lon="11.5024344"><ele>282.0</ele><time>2026-05-03T10:06:25.082Z</time></trkpt><trkpt lat="45.4278255" lon="11.5025601"><ele>282.0</ele><time>2026-05-03T10:06:26.082Z</time></trkpt><trkpt lat="45.4279088" lon="11.5026615"><ele>282.8333333333333</ele><time>2026-05-03T10:06:27.083Z</time></trkpt><trkpt lat="45.4279977" lon="11.5027286"><ele>283.6666666666667</ele><time>2026-05-03T10:06:28.082Z</time></trkpt><trkpt lat="45.4280909" lon="11.502763"><ele>284.5</ele><time>2026-05-03T10:06:29.082Z</time></trkpt><trkpt lat="45.4281743" lon="11.5027708"><ele>285.33333333333337</ele><time>2026-05-03T10:06:30.082Z</time></trkpt><trkpt lat="45.4282424" lon="11.5027839"><ele>286.1666666666667</ele><time>2026-05-03T10:06:31.082Z</time></trkpt><trkpt lat="45.4282965" lon="11.5028987"><ele>287.0</ele><time>2026-05-03T10:06:33.083Z</time></trkpt><trkpt lat="45.4282113" lon="11.5029805"><ele>286.6666666666667</ele><time>2026-05-03T10:06:35.082Z</time></trkpt><trkpt lat="45.4281318" lon="11.5029817"><ele>286.33333333333337</ele><time>2026-05-03T10:06:36.082Z</time></trkpt><trkpt lat="45.428045" lon="11.5029723"><ele>286.0</ele><time>2026-05-03T10:06:37.082Z</time></trkpt><trkpt lat="45.4279673" lon="11.5029932"><ele>285.6666666666667</ele><time>2026-05-03T10:06:38.082Z</time></trkpt><trkpt lat="45.4279008" lon="11.5030624"><ele>285.3333333333333</ele><time>2026-05-03T10:06:39.083Z</time></trkpt><trkpt lat="45.4278409" lon="11.5031654"><ele>285.0</ele><time>2026-05-03T10:06:40.082Z</time></trkpt><trkpt lat="45.4277789" lon="11.5032867"><ele>285.0</ele><time>2026-05-03T10:06:41.082Z</time></trkpt><trkpt lat="45.4277247" lon="11.5034028"><ele>285.0</ele><time>2026-05-03T10:06:42.082Z</time></trkpt><trkpt lat="45.4276839" lon="11.5035073"><ele>285.0</ele><time>2026-05-03T10:06:43.083Z</time></trkpt><trkpt lat="45.4276597" lon="11.5036229"><ele>285.0</ele><time>2026-05-03T10:06:44.083Z</time></trkpt><trkpt lat="45.4276531" lon="11.5037328"><ele>285.0</ele><time>2026-05-03T10:06:45.082Z</time></trkpt><trkpt lat="45.4277237" lon="11.5038253"><ele>285.0</ele><time>2026-05-03T10:06:46.082Z</time></trkpt><trkpt lat="45.4277969" lon="11.5038805"><ele>283.0</ele><time>2026-05-03T10:06:47.082Z</time></trkpt><trkpt lat="45.4278857" lon="11.5039052"><ele>281.0</ele><time>2026-05-03T10:06:48.082Z</time></trkpt><trkpt lat="45.4279788" lon="11.5039131"><ele>279.0</ele><time>2026-05-03T10:06:49.082Z</time></trkpt><trkpt lat="45.4280726" lon="11.5039193"><ele>277.0</ele><time>2026-05-03T10:06:50.082Z</time></trkpt><trkpt lat="45.4281658" lon="11.5039319"><ele>275.0</ele><time>2026-05-03T10:06:51.083Z</time></trkpt><trkpt lat="45.4282568" lon="11.5039488"><ele>282.5</ele><time>2026-05-03T10:06:52.082Z</time></trkpt><trkpt lat="45.4283515" lon="11.5039878"><ele>290.0</ele><time>2026-05-03T10:06:53.082Z</time></trkpt><trkpt lat="45.4284557" lon="11.5040684"><ele>297.5</ele><time>2026-05-03T10:06:54.082Z</time></trkpt><trkpt lat="45.4285699" lon="11.5041784"><ele>305.0</ele><time>2026-05-03T10:06:55.083Z</time></trkpt><trkpt lat="45.4286961" lon="11.5042931"><ele>306.33333333333337</ele><time>2026-05-03T10:06:56.082Z</time></trkpt><trkpt lat="45.4288348" lon="11.5044087"><ele>307.6666666666667</ele><time>2026-05-03T10:06:57.082Z</time></trkpt><trkpt lat="45.4289789" lon="11.5045179"><ele>309.0</ele><time>2026-05-03T10:06:58.083Z</time></trkpt><trkpt lat="45.4291211" lon="11.5046108"><ele>310.75</ele><time>2026-05-03T10:06:59.083Z</time></trkpt><trkpt lat="45.4292585" lon="11.5046746"><ele>312.5</ele><time>2026-05-03T10:07:00.082Z</time></trkpt><trkpt lat="45.4293861" lon="11.5047075"><ele>314.25</ele><time>2026-05-03T10:07:01.082Z</time></trkpt><trkpt lat="45.4294898" lon="11.5046801"><ele>316.0</ele><time>2026-05-03T10:07:02.083Z</time></trkpt><trkpt lat="45.4295814" lon="11.5046751"><ele>316.8</ele><time>2026-05-03T10:07:03.082Z</time></trkpt><trkpt lat="45.4296709" lon="11.5047146"><ele>317.6</ele><time>2026-05-03T10:07:04.081Z</time></trkpt><trkpt lat="45.42974" lon="11.5047957"><ele>318.4</ele><time>2026-05-03T10:07:05.082Z</time></trkpt><trkpt lat="45.4297899" lon="11.5049077"><ele>319.2</ele><time>2026-05-03T10:07:06.083Z</time></trkpt><trkpt lat="45.429837" lon="11.505047"><ele>320.0</ele><time>2026-05-03T10:07:07.081Z</time></trkpt><trkpt lat="45.4298803" lon="11.5052049"><ele>320.0</ele><time>2026-05-03T10:07:08.082Z</time></trkpt><trkpt lat="45.4299207" lon="11.5053756"><ele>320.0</ele><time>2026-05-03T10:07:09.082Z</time></trkpt><trkpt lat="45.4299626" lon="11.5055545"><ele>320.0</ele><time>2026-05-03T10:07:10.082Z</time></trkpt><trkpt lat="45.4300019" lon="11.5057423"><ele>320.0</ele><time>2026-05-03T10:07:11.083Z</time></trkpt><trkpt lat="45.4300331" lon="11.5059531"><ele>322.33333333333337</ele><time>2026-05-03T10:07:12.082Z</time></trkpt><trkpt lat="45.4300529" lon="11.506176"><ele>324.6666666666667</ele><time>2026-05-03T10:07:13.082Z</time></trkpt><trkpt lat="45.4300565" lon="11.5063974"><ele>327.0</ele><time>2026-05-03T10:07:14.082Z</time></trkpt><trkpt lat="45.4300468" lon="11.5065982"><ele>327.75</ele><time>2026-05-03T10:07:15.082Z</time></trkpt><trkpt lat="45.4300502" lon="11.506781"><ele>328.5</ele><time>2026-05-03T10:07:16.082Z</time></trkpt><trkpt lat="45.430082" lon="11.5069355"><ele>329.25</ele><time>2026-05-03T10:07:17.082Z</time></trkpt><trkpt lat="45.4301509" lon="11.5070693"><ele>330.0</ele><time>2026-05-03T10:07:18.082Z</time></trkpt><trkpt lat="45.4302504" lon="11.5071919"><ele>330.0</ele><time>2026-05-03T10:07:19.082Z</time></trkpt><trkpt lat="45.4303664" lon="11.5073025"><ele>330.0</ele><time>2026-05-03T10:07:20.082Z</time></trkpt><trkpt lat="45.4304861" lon="11.507409"><ele>330.0</ele><time>2026-05-03T10:07:21.082Z</time></trkpt><trkpt lat="45.4306048" lon="11.5075164"><ele>330.0</ele><time>2026-05-03T10:07:22.082Z</time></trkpt><trkpt lat="45.4307269" lon="11.5076107"><ele>334.25</ele><time>2026-05-03T10:07:23.082Z</time></trkpt><trkpt lat="45.4308492" lon="11.5076793"><ele>338.5</ele><time>2026-05-03T10:07:24.082Z</time></trkpt><trkpt lat="45.4309632" lon="11.5077379"><ele>342.75</ele><time>2026-05-03T10:07:25.082Z</time></trkpt><trkpt lat="45.4310659" lon="11.5078023"><ele>347.0</ele><time>2026-05-03T10:07:26.082Z</time></trkpt><trkpt lat="45.4311595" lon="11.5078868"><ele>347.0</ele><time>2026-05-03T10:07:27.082Z</time></trkpt><trkpt lat="45.4312532" lon="11.5079863"><ele>347.0</ele><time>2026-05-03T10:07:28.083Z</time></trkpt><trkpt lat="45.4313417" lon="11.5081005"><ele>347.0</ele><time>2026-05-03T10:07:29.083Z</time></trkpt><trkpt lat="45.4314254" lon="11.5082192"><ele>347.0</ele><time>2026-05-03T10:07:30.082Z</time></trkpt><trkpt lat="45.4314869" lon="11.5083359"><ele>347.6</ele><time>2026-05-03T10:07:31.082Z</time></trkpt><trkpt lat="45.4315379" lon="11.5084686"><ele>348.20000000000005</ele><time>2026-05-03T10:07:32.082Z</time></trkpt><trkpt lat="45.4315746" lon="11.5086181"><ele>348.8</ele><time>2026-05-03T10:07:33.082Z</time></trkpt><trkpt lat="45.4315985" lon="11.5087736"><ele>349.4</ele><time>2026-05-03T10:07:34.082Z</time></trkpt><trkpt lat="45.4316125" lon="11.5089277"><ele>350.0</ele><time>2026-05-03T10:07:35.082Z</time></trkpt><trkpt lat="45.4316242" lon="11.5090745"><ele>350.33333333333337</ele><time>2026-05-03T10:07:36.083Z</time></trkpt><trkpt lat="45.4316338" lon="11.5092164"><ele>350.6666666666667</ele><time>2026-05-03T10:07:37.083Z</time></trkpt><trkpt lat="45.4316444" lon="11.5093395"><ele>351.0</ele><time>2026-05-03T10:07:38.083Z</time></trkpt><trkpt lat="45.4316576" lon="11.5094465"><ele>351.3333333333333</ele><time>2026-05-03T10:07:39.083Z</time></trkpt><trkpt lat="45.4316712" lon="11.5095377"><ele>351.66666666666663</ele><time>2026-05-03T10:07:40.082Z</time></trkpt><trkpt lat="45.4316551" lon="11.5097069"><ele>352.0</ele><time>2026-05-03T10:07:42.082Z</time></trkpt><trkpt lat="45.4316108" lon="11.5098686"><ele>352.5</ele><time>2026-05-03T10:07:44.082Z</time></trkpt><trkpt lat="45.4315582" lon="11.5100305"><ele>353.0</ele><time>2026-05-03T10:07:46.082Z</time></trkpt><trkpt lat="45.4315287" lon="11.5101133"><ele>353.5</ele><time>2026-05-03T10:07:47.082Z</time></trkpt><trkpt lat="45.4315" lon="11.5102015"><ele>354.0</ele><time>2026-05-03T10:07:48.081Z</time></trkpt><trkpt lat="45.4314672" lon="11.5103024"><ele>354.5</ele><time>2026-05-03T10:07:49.082Z</time></trkpt><trkpt lat="45.4314244" lon="11.5104193"><ele>355.0</ele><time>2026-05-03T10:07:50.083Z</time></trkpt><trkpt lat="45.4313671" lon="11.5105473"><ele>353.75</ele><time>2026-05-03T10:07:51.082Z</time></trkpt><trkpt lat="45.4312864" lon="11.5106846"><ele>352.5</ele><time>2026-05-03T10:07:52.083Z</time></trkpt><trkpt lat="45.4311947" lon="11.5108237"><ele>351.25</ele><time>2026-05-03T10:07:53.082Z</time></trkpt><trkpt lat="45.4311123" lon="11.5109626"><ele>350.0</ele><time>2026-05-03T10:07:54.083Z</time></trkpt><trkpt lat="45.4310337" lon="11.5111259"><ele>354.0</ele><time>2026-05-03T10:07:55.082Z</time></trkpt><trkpt lat="45.430957" lon="11.5113122"><ele>358.0</ele><time>2026-05-03T10:07:56.082Z</time></trkpt><trkpt lat="45.4308718" lon="11.5114973"><ele>362.0</ele><time>2026-05-03T10:07:57.082Z</time></trkpt><trkpt lat="45.4307905" lon="11.5116745"><ele>362.0</ele><time>2026-05-03T10:07:58.082Z</time></trkpt><trkpt lat="45.4306804" lon="11.5118219"><ele>362.0</ele><time>2026-05-03T10:07:59.082Z</time></trkpt><trkpt lat="45.4305405" lon="11.5119274"><ele>362.0</ele><time>2026-05-03T10:08:00.082Z</time></trkpt><trkpt lat="45.4303787" lon="11.5119946"><ele>361.33333333333337</ele><time>2026-05-03T10:08:01.083Z</time></trkpt><trkpt lat="45.43021" lon="11.5120665"><ele>360.6666666666667</ele><time>2026-05-03T10:08:02.082Z</time></trkpt><trkpt lat="45.4300504" lon="11.5121435"><ele>360.0</ele><time>2026-05-03T10:08:03.082Z</time></trkpt><trkpt lat="45.4298986" lon="11.5122159"><ele>360.0</ele><time>2026-05-03T10:08:04.082Z</time></trkpt><trkpt lat="45.429775" lon="11.5123266"><ele>360.0</ele><time>2026-05-03T10:08:05.082Z</time></trkpt><trkpt lat="45.4296733" lon="11.5124798"><ele>360.0</ele><time>2026-05-03T10:08:06.082Z</time></trkpt><trkpt lat="45.4295991" lon="11.5126543"><ele>360.0</ele><time>2026-05-03T10:08:07.083Z</time></trkpt><trkpt lat="45.4295178" lon="11.5128184"><ele>360.75</ele><time>2026-05-03T10:08:08.082Z</time></trkpt><trkpt lat="45.429422" lon="11.5129707"><ele>361.5</ele><time>2026-05-03T10:08:09.082Z</time></trkpt><trkpt lat="45.4293393" lon="11.5131398"><ele>362.25</ele><time>2026-05-03T10:08:10.083Z</time></trkpt><trkpt lat="45.4292839" lon="11.5133223"><ele>363.0</ele><time>2026-05-03T10:08:11.082Z</time></trkpt><trkpt lat="45.4292637" lon="11.5135123"><ele>363.0</ele><time>2026-05-03T10:08:12.082Z</time></trkpt><trkpt lat="45.4292783" lon="11.5137091"><ele>363.0</ele><time>2026-05-03T10:08:13.082Z</time></trkpt><trkpt lat="45.4293239" lon="11.5139013"><ele>363.0</ele><time>2026-05-03T10:08:14.082Z</time></trkpt><trkpt lat="45.4293707" lon="11.5140882"><ele>363.0</ele><time>2026-05-03T10:08:15.082Z</time></trkpt><trkpt lat="45.4294048" lon="11.5142742"><ele>364.5</ele><time>2026-05-03T10:08:16.082Z</time></trkpt><trkpt lat="45.4294142" lon="11.5144664"><ele>366.0</ele><time>2026-05-03T10:08:17.082Z</time></trkpt><trkpt lat="45.4294046" lon="11.5146762"><ele>367.5</ele><time>2026-05-03T10:08:18.082Z</time></trkpt><trkpt lat="45.4293835" lon="11.5148971"><ele>369.0</ele><time>2026-05-03T10:08:19.082Z</time></trkpt><trkpt lat="45.4293683" lon="11.5151086"><ele>369.25</ele><time>2026-05-03T10:08:20.082Z</time></trkpt><trkpt lat="45.4293658" lon="11.5153018"><ele>369.5</ele><time>2026-05-03T10:08:21.082Z</time></trkpt><trkpt lat="45.4293862" lon="11.5154764"><ele>369.75</ele><time>2026-05-03T10:08:22.082Z</time></trkpt><trkpt lat="45.4294571" lon="11.5156382"><ele>370.0</ele><time>2026-05-03T10:08:23.082Z</time></trkpt><trkpt lat="45.4295517" lon="11.5158008"><ele>369.25</ele><time>2026-05-03T10:08:24.083Z</time></trkpt><trkpt lat="45.4296551" lon="11.5159695"><ele>368.5</ele><time>2026-05-03T10:08:25.083Z</time></trkpt><trkpt lat="45.4297536" lon="11.5161232"><ele>367.75</ele><time>2026-05-03T10:08:26.083Z</time></trkpt><trkpt lat="45.4298499" lon="11.5162269"><ele>367.0</ele><time>2026-05-03T10:08:27.083Z</time></trkpt><trkpt lat="45.4299623" lon="11.516287"><ele>364.25</ele><time>2026-05-03T10:08:28.082Z</time></trkpt><trkpt lat="45.4300996" lon="11.5163335"><ele>361.5</ele><time>2026-05-03T10:08:29.082Z</time></trkpt><trkpt lat="45.4302418" lon="11.5163603"><ele>358.75</ele><time>2026-05-03T10:08:30.082Z</time></trkpt><trkpt lat="45.4303769" lon="11.5163959"><ele>356.0</ele><time>2026-05-03T10:08:31.082Z</time></trkpt><trkpt lat="45.4304953" lon="11.516429"><ele>356.0</ele><time>2026-05-03T10:08:32.082Z</time></trkpt><trkpt lat="45.4305959" lon="11.5164769"><ele>356.0</ele><time>2026-05-03T10:08:33.082Z</time></trkpt><trkpt lat="45.4306624" lon="11.5165672"><ele>356.0</ele><time>2026-05-03T10:08:34.083Z</time></trkpt><trkpt lat="45.4306859" lon="11.5166863"><ele>356.0</ele><time>2026-05-03T10:08:35.082Z</time></trkpt><trkpt lat="45.4306613" lon="11.51681"><ele>356.0</ele><time>2026-05-03T10:08:36.082Z</time></trkpt><trkpt lat="45.4305951" lon="11.5169267"><ele>356.0</ele><time>2026-05-03T10:08:37.082Z</time></trkpt><trkpt lat="45.4304947" lon="11.5170195"><ele>356.0</ele><time>2026-05-03T10:08:38.083Z</time></trkpt><trkpt lat="45.4303851" lon="11.5171398"><ele>356.0</ele><time>2026-05-03T10:08:39.081Z</time></trkpt><trkpt lat="45.4302727" lon="11.5172884"><ele>356.0</ele><time>2026-05-03T10:08:40.082Z</time></trkpt><trkpt lat="45.4301456" lon="11.5174526"><ele>351.6666666666667</ele><time>2026-05-03T10:08:41.082Z</time></trkpt><trkpt lat="45.4300162" lon="11.5176305"><ele>347.3333333333333</ele><time>2026-05-03T10:08:42.082Z</time></trkpt><trkpt lat="45.4298882" lon="11.517812"><ele>343.0</ele><time>2026-05-03T10:08:43.082Z</time></trkpt><trkpt lat="45.4297677" lon="11.5179995"><ele>343.0</ele><time>2026-05-03T10:08:44.082Z</time></trkpt><trkpt lat="45.4296548" lon="11.5182125"><ele>343.0</ele><time>2026-05-03T10:08:45.082Z</time></trkpt><trkpt lat="45.4295523" lon="11.5184431"><ele>343.0</ele><time>2026-05-03T10:08:46.082Z</time></trkpt><trkpt lat="45.4294761" lon="11.5186997"><ele>337.3333333333333</ele><time>2026-05-03T10:08:47.083Z</time></trkpt><trkpt lat="45.429426" lon="11.5189627"><ele>331.6666666666667</ele><time>2026-05-03T10:08:48.082Z</time></trkpt><trkpt lat="45.4293874" lon="11.5192162"><ele>326.0</ele><time>2026-05-03T10:08:49.082Z</time></trkpt><trkpt lat="45.4293528" lon="11.5194433"><ele>326.5</ele><time>2026-05-03T10:08:50.082Z</time></trkpt><trkpt lat="45.429307" lon="11.5196302"><ele>327.0</ele><time>2026-05-03T10:08:51.082Z</time></trkpt><trkpt lat="45.4292306" lon="11.5197803"><ele>327.5</ele><time>2026-05-03T10:08:52.082Z</time></trkpt><trkpt lat="45.4291267" lon="11.5198772"><ele>328.0</ele><time>2026-05-03T10:08:53.082Z</time></trkpt><trkpt lat="45.4289979" lon="11.519934"><ele>328.0</ele><time>2026-05-03T10:08:54.083Z</time></trkpt><trkpt lat="45.4288326" lon="11.5199318"><ele>328.0</ele><time>2026-05-03T10:08:55.082Z</time></trkpt><trkpt lat="45.4286547" lon="11.5199219"><ele>328.0</ele><time>2026-05-03T10:08:56.082Z</time></trkpt><trkpt lat="45.4284615" lon="11.5199049"><ele>329.0</ele><time>2026-05-03T10:08:57.083Z</time></trkpt><trkpt lat="45.428259" lon="11.5198648"><ele>330.0</ele><time>2026-05-03T10:08:58.082Z</time></trkpt><trkpt lat="45.428046" lon="11.5198108"><ele>331.0</ele><time>2026-05-03T10:08:59.082Z</time></trkpt><trkpt lat="45.4278314" lon="11.5197565"><ele>333.0</ele><time>2026-05-03T10:09:00.082Z</time></trkpt><trkpt lat="45.4276228" lon="11.5197101"><ele>335.0</ele><time>2026-05-03T10:09:01.082Z</time></trkpt><trkpt lat="45.4274239" lon="11.5196721"><ele>337.0</ele><time>2026-05-03T10:09:02.082Z</time></trkpt><trkpt lat="45.4272385" lon="11.5196496"><ele>335.66666666666663</ele><time>2026-05-03T10:09:03.082Z</time></trkpt><trkpt lat="45.4270643" lon="11.5196514"><ele>334.3333333333333</ele><time>2026-05-03T10:09:04.082Z</time></trkpt><trkpt lat="45.4269037" lon="11.5196747"><ele>333.0</ele><time>2026-05-03T10:09:05.083Z</time></trkpt><trkpt lat="45.4267507" lon="11.5197028"><ele>333.0</ele><time>2026-05-03T10:09:06.082Z</time></trkpt><trkpt lat="45.4266095" lon="11.5197223"><ele>333.0</ele><time>2026-05-03T10:09:07.083Z</time></trkpt><trkpt lat="45.4264736" lon="11.5197202"><ele>333.0</ele><time>2026-05-03T10:09:08.082Z</time></trkpt><trkpt lat="45.426347" lon="11.5196953"><ele>333.0</ele><time>2026-05-03T10:09:09.083Z</time></trkpt><trkpt lat="45.4262267" lon="11.5196608"><ele>331.5</ele><time>2026-05-03T10:09:10.082Z</time></trkpt><trkpt lat="45.4261054" lon="11.5196266"><ele>330.0</ele><time>2026-05-03T10:09:11.082Z</time></trkpt><trkpt lat="45.4259863" lon="11.5196009"><ele>328.5</ele><time>2026-05-03T10:09:12.082Z</time></trkpt><trkpt lat="45.425868" lon="11.5195792"><ele>327.0</ele><time>2026-05-03T10:09:13.082Z</time></trkpt><trkpt lat="45.4257545" lon="11.5195581"><ele>326.8</ele><time>2026-05-03T10:09:14.082Z</time></trkpt><trkpt lat="45.4256506" lon="11.5195382"><ele>326.6</ele><time>2026-05-03T10:09:15.082Z</time></trkpt><trkpt lat="45.4255458" lon="11.5195167"><ele>326.40000000000003</ele><time>2026-05-03T10:09:16.083Z</time></trkpt><trkpt lat="45.425445" lon="11.5194958"><ele>326.20000000000005</ele><time>2026-05-03T10:09:17.082Z</time></trkpt><trkpt lat="45.4253499" lon="11.5194788"><ele>326.0</ele><time>2026-05-03T10:09:18.082Z</time></trkpt><trkpt lat="45.4252628" lon="11.5194513"><ele>326.0</ele><time>2026-05-03T10:09:19.082Z</time></trkpt><trkpt lat="45.425184" lon="11.5194034"><ele>326.0</ele><time>2026-05-03T10:09:20.082Z</time></trkpt><trkpt lat="45.4251165" lon="11.5193397"><ele>326.0</ele><time>2026-05-03T10:09:21.082Z</time></trkpt><trkpt lat="45.4250539" lon="11.5192566"><ele>326.0</ele><time>2026-05-03T10:09:22.082Z</time></trkpt><trkpt lat="45.424997" lon="11.5191598"><ele>326.0</ele><time>2026-05-03T10:09:23.081Z</time></trkpt><trkpt lat="45.424933" lon="11.5190605"><ele>326.0</ele><time>2026-05-03T10:09:24.082Z</time></trkpt><trkpt lat="45.4248575" lon="11.518974"><ele>326.0</ele><time>2026-05-03T10:09:25.083Z</time></trkpt><trkpt lat="45.424767" lon="11.518914"><ele>326.0</ele><time>2026-05-03T10:09:26.082Z</time></trkpt><trkpt lat="45.4246695" lon="11.5188717"><ele>326.0</ele><time>2026-05-03T10:09:27.082Z</time></trkpt><trkpt lat="45.4245731" lon="11.5188297"><ele>326.0</ele><time>2026-05-03T10:09:28.082Z</time></trkpt><trkpt lat="45.424479" lon="11.5187763"><ele>326.0</ele><time>2026-05-03T10:09:29.082Z</time></trkpt><trkpt lat="45.424388" lon="11.5187008"><ele>325.5</ele><time>2026-05-03T10:09:30.082Z</time></trkpt><trkpt lat="45.4242981" lon="11.5186103"><ele>325.0</ele><time>2026-05-03T10:09:31.083Z</time></trkpt><trkpt lat="45.4242083" lon="11.5185174"><ele>324.5</ele><time>2026-05-03T10:09:32.082Z</time></trkpt><trkpt lat="45.4241091" lon="11.5184339"><ele>324.0</ele><time>2026-05-03T10:09:33.082Z</time></trkpt><trkpt lat="45.4240013" lon="11.5183748"><ele>324.0</ele><time>2026-05-03T10:09:34.082Z</time></trkpt><trkpt lat="45.4238827" lon="11.5183316"><ele>324.0</ele><time>2026-05-03T10:09:35.082Z</time></trkpt><trkpt lat="45.4237665" lon="11.5183169"><ele>324.0</ele><time>2026-05-03T10:09:36.082Z</time></trkpt><trkpt lat="45.4236533" lon="11.5183345"><ele>324.0</ele><time>2026-05-03T10:09:37.082Z</time></trkpt><trkpt lat="45.4235454" lon="11.5183482"><ele>321.2</ele><time>2026-05-03T10:09:38.082Z</time></trkpt><trkpt lat="45.4234359" lon="11.5183532"><ele>318.4</ele><time>2026-05-03T10:09:39.082Z</time></trkpt><trkpt lat="45.423321" lon="11.5183266"><ele>315.6</ele><time>2026-05-03T10:09:40.082Z</time></trkpt><trkpt lat="45.4232086" lon="11.5182756"><ele>312.8</ele><time>2026-05-03T10:09:41.083Z</time></trkpt><trkpt lat="45.4231153" lon="11.5182086"><ele>310.0</ele><time>2026-05-03T10:09:42.082Z</time></trkpt><trkpt lat="45.4230338" lon="11.5181233"><ele>310.0</ele><time>2026-05-03T10:09:43.082Z</time></trkpt><trkpt lat="45.4229888" lon="11.5179906"><ele>310.0</ele><time>2026-05-03T10:09:44.082Z</time></trkpt><trkpt lat="45.4229587" lon="11.5178451"><ele>310.0</ele><time>2026-05-03T10:09:45.082Z</time></trkpt><trkpt lat="45.4229511" lon="11.5176823"><ele>310.0</ele><time>2026-05-03T10:09:46.082Z</time></trkpt><trkpt lat="45.4229503" lon="11.5175194"><ele>310.0</ele><time>2026-05-03T10:09:47.082Z</time></trkpt><trkpt lat="45.4229377" lon="11.5173719"><ele>308.2</ele><time>2026-05-03T10:09:48.081Z</time></trkpt><trkpt lat="45.4228903" lon="11.5172488"><ele>306.4</ele><time>2026-05-03T10:09:49.082Z</time></trkpt><trkpt lat="45.4228251" lon="11.5171521"><ele>304.6</ele><time>2026-05-03T10:09:50.082Z</time></trkpt><trkpt lat="45.4227453" lon="11.5170747"><ele>302.8</ele><time>2026-05-03T10:09:51.082Z</time></trkpt><trkpt lat="45.4226577" lon="11.5170207"><ele>301.0</ele><time>2026-05-03T10:09:52.082Z</time></trkpt><trkpt lat="45.4225643" lon="11.5170079"><ele>301.0</ele><time>2026-05-03T10:09:53.082Z</time></trkpt><trkpt lat="45.4224726" lon="11.5170433"><ele>301.0</ele><time>2026-05-03T10:09:54.082Z</time></trkpt><trkpt lat="45.4223882" lon="11.5171149"><ele>301.0</ele><time>2026-05-03T10:09:55.082Z</time></trkpt><trkpt lat="45.4223038" lon="11.5172037"><ele>301.0</ele><time>2026-05-03T10:09:56.082Z</time></trkpt><trkpt lat="45.4222205" lon="11.5173145"><ele>301.0</ele><time>2026-05-03T10:09:57.082Z</time></trkpt><trkpt lat="45.4221384" lon="11.5174432"><ele>301.5</ele><time>2026-05-03T10:09:58.082Z</time></trkpt><trkpt lat="45.4220611" lon="11.5175763"><ele>302.0</ele><time>2026-05-03T10:09:59.083Z</time></trkpt><trkpt lat="45.4219881" lon="11.5177148"><ele>302.5</ele><time>2026-05-03T10:10:00.082Z</time></trkpt><trkpt lat="45.4219166" lon="11.5178583"><ele>303.0</ele><time>2026-05-03T10:10:01.082Z</time></trkpt><trkpt lat="45.4218429" lon="11.5179969"><ele>301.25</ele><time>2026-05-03T10:10:02.082Z</time></trkpt><trkpt lat="45.4217726" lon="11.5181368"><ele>299.5</ele><time>2026-05-03T10:10:03.082Z</time></trkpt><trkpt lat="45.4217018" lon="11.5182735"><ele>297.75</ele><time>2026-05-03T10:10:04.082Z</time></trkpt><trkpt lat="45.4216127" lon="11.5183971"><ele>296.0</ele><time>2026-05-03T10:10:05.082Z</time></trkpt><trkpt lat="45.4215141" lon="11.5184995"><ele>296.0</ele><time>2026-05-03T10:10:06.082Z</time></trkpt><trkpt lat="45.4214111" lon="11.5185853"><ele>296.0</ele><time>2026-05-03T10:10:07.082Z</time></trkpt><trkpt lat="45.4213085" lon="11.5186462"><ele>296.0</ele><time>2026-05-03T10:10:08.082Z</time></trkpt><trkpt lat="45.4212013" lon="11.5186804"><ele>296.0</ele><time>2026-05-03T10:10:09.082Z</time></trkpt><trkpt lat="45.4210814" lon="11.5186833"><ele>295.25</ele><time>2026-05-03T10:10:10.082Z</time></trkpt><trkpt lat="45.4209588" lon="11.5186518"><ele>294.5</ele><time>2026-05-03T10:10:11.082Z</time></trkpt><trkpt lat="45.420831" lon="11.5186243"><ele>293.75</ele><time>2026-05-03T10:10:12.082Z</time></trkpt><trkpt lat="45.4207148" lon="11.5185833"><ele>293.0</ele><time>2026-05-03T10:10:13.083Z</time></trkpt><trkpt lat="45.420606" lon="11.5184982"><ele>293.0</ele><time>2026-05-03T10:10:14.082Z</time></trkpt><trkpt lat="45.4205056" lon="11.5183722"><ele>293.0</ele><time>2026-05-03T10:10:15.082Z</time></trkpt><trkpt lat="45.4204043" lon="11.5182249"><ele>293.0</ele><time>2026-05-03T10:10:16.082Z</time></trkpt><trkpt lat="45.4203016" lon="11.5180951"><ele>293.0</ele><time>2026-05-03T10:10:17.083Z</time></trkpt><trkpt lat="45.4201848" lon="11.5179989"><ele>288.0</ele><time>2026-05-03T10:10:18.082Z</time></trkpt><trkpt lat="45.4200603" lon="11.5179393"><ele>283.0</ele><time>2026-05-03T10:10:19.082Z</time></trkpt><trkpt lat="45.4199335" lon="11.51792"><ele>278.0</ele><time>2026-05-03T10:10:20.082Z</time></trkpt><trkpt lat="45.4198093" lon="11.5179568"><ele>273.0</ele><time>2026-05-03T10:10:21.082Z</time></trkpt><trkpt lat="45.4196911" lon="11.5180425"><ele>276.75</ele><time>2026-05-03T10:10:22.082Z</time></trkpt><trkpt lat="45.4195828" lon="11.5181538"><ele>280.5</ele><time>2026-05-03T10:10:23.082Z</time></trkpt><trkpt lat="45.4194805" lon="11.5182699"><ele>284.25</ele><time>2026-05-03T10:10:24.083Z</time></trkpt><trkpt lat="45.4193899" lon="11.5183775"><ele>288.0</ele><time>2026-05-03T10:10:25.082Z</time></trkpt><trkpt lat="45.4193161" lon="11.5184623"><ele>288.0</ele><time>2026-05-03T10:10:26.083Z</time></trkpt><trkpt lat="45.4192737" lon="11.5185377"><ele>288.0</ele><time>2026-05-03T10:10:27.083Z</time></trkpt><trkpt lat="45.4192847" lon="11.5186747"><ele>288.0</ele><time>2026-05-03T10:10:29.082Z</time></trkpt><trkpt lat="45.4193807" lon="11.5186541"><ele>288.0</ele><time>2026-05-03T10:10:31.082Z</time></trkpt><trkpt lat="45.4194345" lon="11.5185774"><ele>288.0</ele><time>2026-05-03T10:10:32.082Z</time></trkpt><trkpt lat="45.4194984" lon="11.5184615"><ele>288.0</ele><time>2026-05-03T10:10:33.082Z</time></trkpt><trkpt lat="45.4195814" lon="11.5183818"><ele>285.0</ele><time>2026-05-03T10:10:34.082Z</time></trkpt><trkpt lat="45.4196727" lon="11.5183255"><ele>282.0</ele><time>2026-05-03T10:10:35.083Z</time></trkpt><trkpt lat="45.4197685" lon="11.5183164"><ele>279.0</ele><time>2026-05-03T10:10:36.082Z</time></trkpt><trkpt lat="45.4198631" lon="11.5183449"><ele>276.0</ele><time>2026-05-03T10:10:37.082Z</time></trkpt><trkpt lat="45.4199606" lon="11.5184034"><ele>273.0</ele><time>2026-05-03T10:10:38.082Z</time></trkpt><trkpt lat="45.4200481" lon="11.5184762"><ele>273.0</ele><time>2026-05-03T10:10:39.082Z</time></trkpt><trkpt lat="45.4201134" lon="11.5185738"><ele>273.0</ele><time>2026-05-03T10:10:40.082Z</time></trkpt><trkpt lat="45.4201711" lon="11.5186781"><ele>273.0</ele><time>2026-05-03T10:10:41.082Z</time></trkpt><trkpt lat="45.4202284" lon="11.518777"><ele>273.0</ele><time>2026-05-03T10:10:42.083Z</time></trkpt><trkpt lat="45.4202717" lon="11.5188791"><ele>273.0</ele><time>2026-05-03T10:10:43.082Z</time></trkpt><trkpt lat="45.4202753" lon="11.5189869"><ele>273.0</ele><time>2026-05-03T10:10:44.082Z</time></trkpt><trkpt lat="45.4202481" lon="11.5190779"><ele>270.6</ele><time>2026-05-03T10:10:45.082Z</time></trkpt><trkpt lat="45.4201906" lon="11.5191354"><ele>268.20000000000005</ele><time>2026-05-03T10:10:46.082Z</time></trkpt><trkpt lat="45.4201103" lon="11.5191729"><ele>265.8</ele><time>2026-05-03T10:10:47.082Z</time></trkpt><trkpt lat="45.4200068" lon="11.5192404"><ele>263.40000000000003</ele><time>2026-05-03T10:10:48.081Z</time></trkpt><trkpt lat="45.4199007" lon="11.5193373"><ele>261.0</ele><time>2026-05-03T10:10:49.082Z</time></trkpt><trkpt lat="45.4197881" lon="11.5194519"><ele>259.75</ele><time>2026-05-03T10:10:50.083Z</time></trkpt><trkpt lat="45.4196758" lon="11.5195735"><ele>258.5</ele><time>2026-05-03T10:10:51.082Z</time></trkpt><trkpt lat="45.4195667" lon="11.5196936"><ele>257.25</ele><time>2026-05-03T10:10:52.082Z</time></trkpt><trkpt lat="45.4194664" lon="11.5198172"><ele>256.0</ele><time>2026-05-03T10:10:53.082Z</time></trkpt><trkpt lat="45.4193813" lon="11.5199635"><ele>256.0</ele><time>2026-05-03T10:10:54.082Z</time></trkpt><trkpt lat="45.419297" lon="11.5201086"><ele>256.0</ele><time>2026-05-03T10:10:55.082Z</time></trkpt><trkpt lat="45.4192179" lon="11.5202554"><ele>256.0</ele><time>2026-05-03T10:10:56.082Z</time></trkpt><trkpt lat="45.4191551" lon="11.5204214"><ele>256.0</ele><time>2026-05-03T10:10:57.082Z</time></trkpt><trkpt lat="45.4190852" lon="11.5205891"><ele>257.3333333333333</ele><time>2026-05-03T10:10:58.083Z</time></trkpt><trkpt lat="45.4190289" lon="11.5207853"><ele>258.6666666666667</ele><time>2026-05-03T10:10:59.083Z</time></trkpt><trkpt lat="45.4189638" lon="11.5209788"><ele>260.0</ele><time>2026-05-03T10:11:00.083Z</time></trkpt><trkpt lat="45.4189013" lon="11.5211783"><ele>259.0</ele><time>2026-05-03T10:11:01.083Z</time></trkpt><trkpt lat="45.4188415" lon="11.5213825"><ele>258.0</ele><time>2026-05-03T10:11:02.082Z</time></trkpt><trkpt lat="45.4187853" lon="11.5215919"><ele>257.0</ele><time>2026-05-03T10:11:03.082Z</time></trkpt><trkpt lat="45.4187302" lon="11.5218032"><ele>257.0</ele><time>2026-05-03T10:11:04.083Z</time></trkpt><trkpt lat="45.4186746" lon="11.522021"><ele>257.0</ele><time>2026-05-03T10:11:05.082Z</time></trkpt><trkpt lat="45.4186224" lon="11.52224"><ele>257.0</ele><time>2026-05-03T10:11:06.082Z</time></trkpt><trkpt lat="45.4185695" lon="11.5224666"><ele>251.66666666666669</ele><time>2026-05-03T10:11:07.082Z</time></trkpt><trkpt lat="45.4185129" lon="11.5226903"><ele>246.33333333333331</ele><time>2026-05-03T10:11:08.082Z</time></trkpt><trkpt lat="45.4184553" lon="11.5229037"><ele>241.0</ele><time>2026-05-03T10:11:09.082Z</time></trkpt><trkpt lat="45.4183913" lon="11.5231084"><ele>239.66666666666666</ele><time>2026-05-03T10:11:10.082Z</time></trkpt><trkpt lat="45.4183265" lon="11.5233086"><ele>238.33333333333331</ele><time>2026-05-03T10:11:11.082Z</time></trkpt><trkpt lat="45.4182547" lon="11.5235052"><ele>237.0</ele><time>2026-05-03T10:11:12.082Z</time></trkpt><trkpt lat="45.4181792" lon="11.5237046"><ele>237.33333333333331</ele><time>2026-05-03T10:11:13.083Z</time></trkpt><trkpt lat="45.4181019" lon="11.5239068"><ele>237.66666666666666</ele><time>2026-05-03T10:11:14.082Z</time></trkpt><trkpt lat="45.4180303" lon="11.5241133"><ele>238.0</ele><time>2026-05-03T10:11:15.083Z</time></trkpt><trkpt lat="45.4179573" lon="11.52432"><ele>238.0</ele><time>2026-05-03T10:11:16.082Z</time></trkpt><trkpt lat="45.4178851" lon="11.5245243"><ele>238.0</ele><time>2026-05-03T10:11:17.083Z</time></trkpt><trkpt lat="45.4178183" lon="11.5247299"><ele>238.0</ele><time>2026-05-03T10:11:18.082Z</time></trkpt><trkpt lat="45.4177595" lon="11.5249311"><ele>233.25</ele><time>2026-05-03T10:11:19.083Z</time></trkpt><trkpt lat="45.4177137" lon="11.5251256"><ele>228.5</ele><time>2026-05-03T10:11:20.082Z</time></trkpt><trkpt lat="45.4176786" lon="11.5253205"><ele>223.75</ele><time>2026-05-03T10:11:21.082Z</time></trkpt><trkpt lat="45.41763" lon="11.5254856"><ele>219.0</ele><time>2026-05-03T10:11:22.083Z</time></trkpt><trkpt lat="45.4175612" lon="11.5256312"><ele>217.25</ele><time>2026-05-03T10:11:23.082Z</time></trkpt><trkpt lat="45.4174708" lon="11.5257725"><ele>215.5</ele><time>2026-05-03T10:11:24.083Z</time></trkpt><trkpt lat="45.4173835" lon="11.5259338"><ele>213.75</ele><time>2026-05-03T10:11:25.082Z</time></trkpt><trkpt lat="45.4173001" lon="11.5261065"><ele>212.0</ele><time>2026-05-03T10:11:26.082Z</time></trkpt><trkpt lat="45.4172098" lon="11.5262731"><ele>210.33333333333334</ele><time>2026-05-03T10:11:27.082Z</time></trkpt><trkpt lat="45.4171119" lon="11.5264341"><ele>208.66666666666669</ele><time>2026-05-03T10:11:28.082Z</time></trkpt><trkpt lat="45.4170034" lon="11.5265783"><ele>207.0</ele><time>2026-05-03T10:11:29.082Z</time></trkpt><trkpt lat="45.4168875" lon="11.5267219"><ele>207.0</ele><time>2026-05-03T10:11:30.082Z</time></trkpt><trkpt lat="45.4167686" lon="11.5268751"><ele>207.0</ele><time>2026-05-03T10:11:31.082Z</time></trkpt><trkpt lat="45.4166643" lon="11.527016"><ele>207.0</ele><time>2026-05-03T10:11:32.083Z</time></trkpt><trkpt lat="45.4165486" lon="11.5271571"><ele>207.75</ele><time>2026-05-03T10:11:33.082Z</time></trkpt><trkpt lat="45.416437" lon="11.5272941"><ele>208.5</ele><time>2026-05-03T10:11:34.082Z</time></trkpt><trkpt lat="45.4163265" lon="11.5274281"><ele>209.25</ele><time>2026-05-03T10:11:35.082Z</time></trkpt><trkpt lat="45.4162188" lon="11.5275345"><ele>210.0</ele><time>2026-05-03T10:11:36.082Z</time></trkpt><trkpt lat="45.4161171" lon="11.5276452"><ele>208.5</ele><time>2026-05-03T10:11:37.082Z</time></trkpt><trkpt lat="45.4160395" lon="11.5277661"><ele>207.0</ele><time>2026-05-03T10:11:38.082Z</time></trkpt><trkpt lat="45.4159868" lon="11.5279162"><ele>205.5</ele><time>2026-05-03T10:11:39.082Z</time></trkpt><trkpt lat="45.4159446" lon="11.5280775"><ele>204.0</ele><time>2026-05-03T10:11:40.082Z</time></trkpt><trkpt lat="45.4159138" lon="11.5282415"><ele>199.0</ele><time>2026-05-03T10:11:41.082Z</time></trkpt><trkpt lat="45.415905" lon="11.528425"><ele>194.0</ele><time>2026-05-03T10:11:42.082Z</time></trkpt><trkpt lat="45.4159006" lon="11.5286179"><ele>189.0</ele><time>2026-05-03T10:11:43.082Z</time></trkpt><trkpt lat="45.4159041" lon="11.5288179"><ele>184.0</ele><time>2026-05-03T10:11:44.082Z</time></trkpt><trkpt lat="45.4159084" lon="11.5290302"><ele>180.0</ele><time>2026-05-03T10:11:45.083Z</time></trkpt><trkpt lat="45.4159159" lon="11.529249"><ele>176.0</ele><time>2026-05-03T10:11:46.083Z</time></trkpt><trkpt lat="45.4159198" lon="11.5294686"><ele>172.0</ele><time>2026-05-03T10:11:47.082Z</time></trkpt><trkpt lat="45.4159204" lon="11.5296921"><ele>171.0</ele><time>2026-05-03T10:11:48.082Z</time></trkpt><trkpt lat="45.4159076" lon="11.5299126"><ele>170.0</ele><time>2026-05-03T10:11:49.082Z</time></trkpt><trkpt lat="45.415887" lon="11.5301337"><ele>169.0</ele><time>2026-05-03T10:11:50.082Z</time></trkpt><trkpt lat="45.4158521" lon="11.5303548"><ele>170.0</ele><time>2026-05-03T10:11:51.082Z</time></trkpt><trkpt lat="45.4158114" lon="11.5305742"><ele>171.0</ele><time>2026-05-03T10:11:52.082Z</time></trkpt><trkpt lat="45.4157681" lon="11.5307936"><ele>172.0</ele><time>2026-05-03T10:11:53.082Z</time></trkpt><trkpt lat="45.4157172" lon="11.5310087"><ele>172.0</ele><time>2026-05-03T10:11:54.082Z</time></trkpt><trkpt lat="45.4156559" lon="11.5312157"><ele>172.0</ele><time>2026-05-03T10:11:55.082Z</time></trkpt><trkpt lat="45.4155902" lon="11.5314184"><ele>172.0</ele><time>2026-05-03T10:11:56.083Z</time></trkpt><trkpt lat="45.4155175" lon="11.5316095"><ele>166.75</ele><time>2026-05-03T10:11:57.082Z</time></trkpt><trkpt lat="45.4154404" lon="11.5317932"><ele>161.5</ele><time>2026-05-03T10:11:58.082Z</time></trkpt><trkpt lat="45.4153607" lon="11.5319675"><ele>156.25</ele><time>2026-05-03T10:11:59.083Z</time></trkpt><trkpt lat="45.4152832" lon="11.5321412"><ele>151.0</ele><time>2026-05-03T10:12:00.081Z</time></trkpt><trkpt lat="45.4152024" lon="11.5323048"><ele>151.0</ele><time>2026-05-03T10:12:01.082Z</time></trkpt><trkpt lat="45.415113" lon="11.5324356"><ele>151.0</ele><time>2026-05-03T10:12:02.083Z</time></trkpt><trkpt lat="45.4149993" lon="11.532524"><ele>151.0</ele><time>2026-05-03T10:12:03.082Z</time></trkpt><trkpt lat="45.4148646" lon="11.5325553"><ele>151.0</ele><time>2026-05-03T10:12:04.082Z</time></trkpt><trkpt lat="45.4147241" lon="11.5325516"><ele>146.5</ele><time>2026-05-03T10:12:05.082Z</time></trkpt><trkpt lat="45.4145879" lon="11.532543"><ele>142.0</ele><time>2026-05-03T10:12:06.082Z</time></trkpt><trkpt lat="45.4144584" lon="11.532576"><ele>137.5</ele><time>2026-05-03T10:12:07.082Z</time></trkpt><trkpt lat="45.4143301" lon="11.5326511"><ele>133.0</ele><time>2026-05-03T10:12:08.082Z</time></trkpt><trkpt lat="45.4141987" lon="11.5327494"><ele>133.0</ele><time>2026-05-03T10:12:09.082Z</time></trkpt><trkpt lat="45.4140579" lon="11.5328471"><ele>133.0</ele><time>2026-05-03T10:12:10.082Z</time></trkpt><trkpt lat="45.4139117" lon="11.5329287"><ele>133.0</ele><time>2026-05-03T10:12:11.083Z</time></trkpt><trkpt lat="45.4137668" lon="11.5330084"><ele>130.0</ele><time>2026-05-03T10:12:12.082Z</time></trkpt><trkpt lat="45.4136294" lon="11.5331054"><ele>127.0</ele><time>2026-05-03T10:12:13.083Z</time></trkpt><trkpt lat="45.4135064" lon="11.5332267"><ele>124.0</ele><time>2026-05-03T10:12:14.082Z</time></trkpt><trkpt lat="45.4134021" lon="11.5333752"><ele>124.0</ele><time>2026-05-03T10:12:15.082Z</time></trkpt><trkpt lat="45.4133152" lon="11.5335456"><ele>124.0</ele><time>2026-05-03T10:12:16.083Z</time></trkpt><trkpt lat="45.4132349" lon="11.5337255"><ele>124.0</ele><time>2026-05-03T10:12:17.083Z</time></trkpt><trkpt lat="45.4131533" lon="11.5339083"><ele>129.66666666666669</ele><time>2026-05-03T10:12:18.082Z</time></trkpt><trkpt lat="45.4130744" lon="11.5340902"><ele>135.33333333333334</ele><time>2026-05-03T10:12:19.082Z</time></trkpt><trkpt lat="45.4129911" lon="11.5342701"><ele>141.0</ele><time>2026-05-03T10:12:20.082Z</time></trkpt><trkpt lat="45.4129061" lon="11.5344454"><ele>133.75</ele><time>2026-05-03T10:12:21.082Z</time></trkpt><trkpt lat="45.4128125" lon="11.5346127"><ele>126.5</ele><time>2026-05-03T10:12:22.083Z</time></trkpt><trkpt lat="45.4127149" lon="11.5347715"><ele>119.25</ele><time>2026-05-03T10:12:23.082Z</time></trkpt><trkpt lat="45.4126247" lon="11.5349382"><ele>112.0</ele><time>2026-05-03T10:12:24.082Z</time></trkpt><trkpt lat="45.4125427" lon="11.5351147"><ele>112.0</ele><time>2026-05-03T10:12:25.082Z</time></trkpt><trkpt lat="45.4124614" lon="11.5352987"><ele>112.0</ele><time>2026-05-03T10:12:26.082Z</time></trkpt><trkpt lat="45.4123829" lon="11.5354843"><ele>112.0</ele><time>2026-05-03T10:12:27.082Z</time></trkpt><trkpt lat="45.4123043" lon="11.5356692"><ele>114.75</ele><time>2026-05-03T10:12:28.083Z</time></trkpt><trkpt lat="45.412225" lon="11.5358531"><ele>117.5</ele><time>2026-05-03T10:12:29.082Z</time></trkpt><trkpt lat="45.4121502" lon="11.5360309"><ele>120.25</ele><time>2026-05-03T10:12:30.082Z</time></trkpt><trkpt lat="45.4120722" lon="11.5361831"><ele>123.0</ele><time>2026-05-03T10:12:31.082Z</time></trkpt><trkpt lat="45.4120001" lon="11.5363036"><ele>116.2</ele><time>2026-05-03T10:12:32.082Z</time></trkpt><trkpt lat="45.4119423" lon="11.5364061"><ele>109.4</ele><time>2026-05-03T10:12:33.082Z</time></trkpt><trkpt lat="45.4119219" lon="11.5365159"><ele>102.60000000000001</ele><time>2026-05-03T10:12:34.082Z</time></trkpt><trkpt lat="45.4119356" lon="11.5366413"><ele>95.80000000000001</ele><time>2026-05-03T10:12:35.082Z</time></trkpt><trkpt lat="45.4119674" lon="11.5367671"><ele>89.0</ele><time>2026-05-03T10:12:36.082Z</time></trkpt><trkpt lat="45.4120096" lon="11.5369059"><ele>88.0</ele><time>2026-05-03T10:12:37.082Z</time></trkpt><trkpt lat="45.4120534" lon="11.5370541"><ele>87.0</ele><time>2026-05-03T10:12:38.082Z</time></trkpt><trkpt lat="45.4120902" lon="11.5372126"><ele>86.0</ele><time>2026-05-03T10:12:39.083Z</time></trkpt><trkpt lat="45.4121122" lon="11.5373827"><ele>85.0</ele><time>2026-05-03T10:12:40.082Z</time></trkpt><trkpt lat="45.4121239" lon="11.5375573"><ele>85.0</ele><time>2026-05-03T10:12:41.082Z</time></trkpt><trkpt lat="45.412141" lon="11.5377315"><ele>85.0</ele><time>2026-05-03T10:12:42.082Z</time></trkpt><trkpt lat="45.4121731" lon="11.5378987"><ele>85.0</ele><time>2026-05-03T10:12:43.082Z</time></trkpt><trkpt lat="45.4122209" lon="11.5380536"><ele>85.0</ele><time>2026-05-03T10:12:44.082Z</time></trkpt><trkpt lat="45.4122561" lon="11.5381968"><ele>84.6</ele><time>2026-05-03T10:12:45.083Z</time></trkpt><trkpt lat="45.4122548" lon="11.5383491"><ele>84.2</ele><time>2026-05-03T10:12:46.082Z</time></trkpt><trkpt lat="45.4122184" lon="11.5384902"><ele>83.80000000000001</ele><time>2026-05-03T10:12:47.082Z</time></trkpt><trkpt lat="45.412161" lon="11.5386017"><ele>83.4</ele><time>2026-05-03T10:12:48.082Z</time></trkpt><trkpt lat="45.4120945" lon="11.5386891"><ele>83.0</ele><time>2026-05-03T10:12:49.082Z</time></trkpt><trkpt lat="45.4120201" lon="11.5387228"><ele>82.5</ele><time>2026-05-03T10:12:50.081Z</time></trkpt><trkpt lat="45.411946" lon="11.5387"><ele>82.0</ele><time>2026-05-03T10:12:51.082Z</time></trkpt><trkpt lat="45.4118887" lon="11.5386232"><ele>81.5</ele><time>2026-05-03T10:12:52.082Z</time></trkpt><trkpt lat="45.4118418" lon="11.5385196"><ele>81.0</ele><time>2026-05-03T10:12:53.082Z</time></trkpt><trkpt lat="45.4117751" lon="11.5384333"><ele>80.5</ele><time>2026-05-03T10:12:54.082Z</time></trkpt><trkpt lat="45.4116896" lon="11.5383827"><ele>80.0</ele><time>2026-05-03T10:12:55.082Z</time></trkpt><trkpt lat="45.4115973" lon="11.5383616"><ele>80.0</ele><time>2026-05-03T10:12:56.082Z</time></trkpt><trkpt lat="45.4115082" lon="11.5383747"><ele>80.0</ele><time>2026-05-03T10:12:57.082Z</time></trkpt><trkpt lat="45.4114283" lon="11.538424"><ele>80.0</ele><time>2026-05-03T10:12:58.082Z</time></trkpt><trkpt lat="45.4113781" lon="11.5384871"><ele>80.0</ele><time>2026-05-03T10:12:59.082Z</time></trkpt><trkpt lat="45.4113456" lon="11.5386372"><ele>80.0</ele><time>2026-05-03T10:13:00.082Z</time></trkpt><trkpt lat="45.4113174" lon="11.5387606"><ele>80.0</ele><time>2026-05-03T10:13:01.083Z</time></trkpt><trkpt lat="45.4112874" lon="11.5388949"><ele>77.6</ele><time>2026-05-03T10:13:02.082Z</time></trkpt><trkpt lat="45.4112553" lon="11.5390305"><ele>75.2</ele><time>2026-05-03T10:13:03.082Z</time></trkpt><trkpt lat="45.4112179" lon="11.5391586"><ele>72.8</ele><time>2026-05-03T10:13:04.082Z</time></trkpt><trkpt lat="45.4111715" lon="11.5392873"><ele>70.4</ele><time>2026-05-03T10:13:05.083Z</time></trkpt><trkpt lat="45.4111212" lon="11.5394099"><ele>68.0</ele><time>2026-05-03T10:13:06.082Z</time></trkpt><trkpt lat="45.4110682" lon="11.5395221"><ele>67.83333333333334</ele><time>2026-05-03T10:13:07.082Z</time></trkpt><trkpt lat="45.4110161" lon="11.5396132"><ele>67.66666666666667</ele><time>2026-05-03T10:13:08.082Z</time></trkpt><trkpt lat="45.410969" lon="11.5396801"><ele>67.5</ele><time>2026-05-03T10:13:09.082Z</time></trkpt><trkpt lat="45.4109086" lon="11.539767"><ele>67.33333333333333</ele><time>2026-05-03T10:13:11.082Z</time></trkpt><trkpt lat="45.4109316" lon="11.5398855"><ele>67.16666666666666</ele><time>2026-05-03T10:13:14.083Z</time></trkpt><trkpt lat="45.4109911" lon="11.5400022"><ele>67.0</ele><time>2026-05-03T10:13:16.082Z</time></trkpt><trkpt lat="45.4110158" lon="11.5400872"><ele>67.0</ele><time>2026-05-03T10:13:17.083Z</time></trkpt><trkpt lat="45.41103" lon="11.5401865"><ele>67.0</ele><time>2026-05-03T10:13:18.082Z</time></trkpt><trkpt lat="45.4110394" lon="11.5402893"><ele>67.0</ele><time>2026-05-03T10:13:19.082Z</time></trkpt><trkpt lat="45.4110501" lon="11.5404003"><ele>67.0</ele><time>2026-05-03T10:13:20.082Z</time></trkpt><trkpt lat="45.411055" lon="11.5405123"><ele>67.0</ele><time>2026-05-03T10:13:21.083Z</time></trkpt><trkpt lat="45.4110646" lon="11.540625"><ele>67.0</ele><time>2026-05-03T10:13:22.082Z</time></trkpt><trkpt lat="45.4110738" lon="11.5407424"><ele>66.8</ele><time>2026-05-03T10:13:23.082Z</time></trkpt><trkpt lat="45.4110826" lon="11.540863"><ele>66.6</ele><time>2026-05-03T10:13:24.082Z</time></trkpt><trkpt lat="45.4110966" lon="11.5409865"><ele>66.39999999999999</ele><time>2026-05-03T10:13:25.082Z</time></trkpt><trkpt lat="45.4111122" lon="11.5411181"><ele>66.2</ele><time>2026-05-03T10:13:26.082Z</time></trkpt><trkpt lat="45.4111232" lon="11.5412556"><ele>66.0</ele><time>2026-05-03T10:13:27.082Z</time></trkpt><trkpt lat="45.4111291" lon="11.5413987"><ele>65.8</ele><time>2026-05-03T10:13:28.082Z</time></trkpt><trkpt lat="45.4111431" lon="11.5415471"><ele>65.6</ele><time>2026-05-03T10:13:29.083Z</time></trkpt><trkpt lat="45.4111695" lon="11.5416932"><ele>65.4</ele><time>2026-05-03T10:13:30.083Z</time></trkpt><trkpt lat="45.4112015" lon="11.5418379"><ele>65.2</ele><time>2026-05-03T10:13:31.082Z</time></trkpt><trkpt lat="45.4112336" lon="11.5419814"><ele>65.0</ele><time>2026-05-03T10:13:32.082Z</time></trkpt><trkpt lat="45.4112596" lon="11.5421263"><ele>64.2</ele><time>2026-05-03T10:13:33.083Z</time></trkpt><trkpt lat="45.4112818" lon="11.54227"><ele>63.4</ele><time>2026-05-03T10:13:34.083Z</time></trkpt><trkpt lat="45.4113136" lon="11.5424067"><ele>62.599999999999994</ele><time>2026-05-03T10:13:35.082Z</time></trkpt><trkpt lat="45.4113543" lon="11.5425333"><ele>61.8</ele><time>2026-05-03T10:13:36.082Z</time></trkpt><trkpt lat="45.4114039" lon="11.5426571"><ele>61.0</ele><time>2026-05-03T10:13:37.082Z</time></trkpt><trkpt lat="45.4114553" lon="11.5427819"><ele>64.6</ele><time>2026-05-03T10:13:38.082Z</time></trkpt><trkpt lat="45.4115085" lon="11.5429097"><ele>68.19999999999999</ele><time>2026-05-03T10:13:39.082Z</time></trkpt><trkpt lat="45.411562" lon="11.5430422"><ele>71.80000000000001</ele><time>2026-05-03T10:13:40.082Z</time></trkpt><trkpt lat="45.4116121" lon="11.543183"><ele>75.4</ele><time>2026-05-03T10:13:41.082Z</time></trkpt><trkpt lat="45.4116582" lon="11.5433366"><ele>79.0</ele><time>2026-05-03T10:13:42.083Z</time></trkpt><trkpt lat="45.4116954" lon="11.5435013"><ele>79.0</ele><time>2026-05-03T10:13:43.082Z</time></trkpt><trkpt lat="45.4117246" lon="11.5436727"><ele>79.0</ele><time>2026-05-03T10:13:44.082Z</time></trkpt><trkpt lat="45.4117395" lon="11.5438462"><ele>79.0</ele><time>2026-05-03T10:13:45.082Z</time></trkpt><trkpt lat="45.4117359" lon="11.5440129"><ele>79.0</ele><time>2026-05-03T10:13:46.081Z</time></trkpt><trkpt lat="45.4117271" lon="11.5441737"><ele>77.60000000000001</ele><time>2026-05-03T10:13:47.083Z</time></trkpt><trkpt lat="45.4117261" lon="11.5443217"><ele>76.2</ele><time>2026-05-03T10:13:48.082Z</time></trkpt><trkpt lat="45.411741" lon="11.5444544"><ele>74.80000000000001</ele><time>2026-05-03T10:13:49.082Z</time></trkpt><trkpt lat="45.4117779" lon="11.5445771"><ele>73.4</ele><time>2026-05-03T10:13:50.082Z</time></trkpt><trkpt lat="45.4118366" lon="11.544676"><ele>72.0</ele><time>2026-05-03T10:13:51.083Z</time></trkpt><trkpt lat="45.4119189" lon="11.5447527"><ele>72.2</ele><time>2026-05-03T10:13:52.082Z</time></trkpt><trkpt lat="45.4120147" lon="11.5448061"><ele>72.4</ele><time>2026-05-03T10:13:53.082Z</time></trkpt><trkpt lat="45.4121128" lon="11.5448418"><ele>72.6</ele><time>2026-05-03T10:13:54.082Z</time></trkpt><trkpt lat="45.4122131" lon="11.5448696"><ele>72.8</ele><time>2026-05-03T10:13:55.083Z</time></trkpt><trkpt lat="45.412299" lon="11.5449199"><ele>73.0</ele><time>2026-05-03T10:13:56.082Z</time></trkpt><trkpt lat="45.4123574" lon="11.5450186"><ele>73.0</ele><time>2026-05-03T10:13:57.081Z</time></trkpt><trkpt lat="45.412403" lon="11.5451505"><ele>73.0</ele><time>2026-05-03T10:13:58.082Z</time></trkpt><trkpt lat="45.4124427" lon="11.545301"><ele>73.0</ele><time>2026-05-03T10:13:59.082Z</time></trkpt><trkpt lat="45.4124882" lon="11.5454549"><ele>73.0</ele><time>2026-05-03T10:14:00.082Z</time></trkpt><trkpt lat="45.4125373" lon="11.5456084"><ele>72.8</ele><time>2026-05-03T10:14:01.083Z</time></trkpt><trkpt lat="45.41257" lon="11.5457594"><ele>72.6</ele><time>2026-05-03T10:14:02.082Z</time></trkpt><trkpt lat="45.4125769" lon="11.5459068"><ele>72.4</ele><time>2026-05-03T10:14:03.082Z</time></trkpt><trkpt lat="45.4125529" lon="11.5460508"><ele>72.2</ele><time>2026-05-03T10:14:04.082Z</time></trkpt><trkpt lat="45.4125018" lon="11.5461693"><ele>72.0</ele><time>2026-05-03T10:14:05.081Z</time></trkpt><trkpt lat="45.4124413" lon="11.5462825"><ele>74.0</ele><time>2026-05-03T10:14:06.082Z</time></trkpt><trkpt lat="45.4123816" lon="11.5464001"><ele>76.0</ele><time>2026-05-03T10:14:07.082Z</time></trkpt><trkpt lat="45.4123189" lon="11.5465168"><ele>78.0</ele><time>2026-05-03T10:14:08.082Z</time></trkpt><trkpt lat="45.412263" lon="11.5466347"><ele>80.0</ele><time>2026-05-03T10:14:09.083Z</time></trkpt><trkpt lat="45.4122327" lon="11.5467621"><ele>82.0</ele><time>2026-05-03T10:14:10.081Z</time></trkpt><trkpt lat="45.4122353" lon="11.5468919"><ele>82.0</ele><time>2026-05-03T10:14:11.082Z</time></trkpt><trkpt lat="45.41227" lon="11.5470162"><ele>82.0</ele><time>2026-05-03T10:14:12.082Z</time></trkpt><trkpt lat="45.4123276" lon="11.5471355"><ele>82.0</ele><time>2026-05-03T10:14:13.082Z</time></trkpt><trkpt lat="45.4123989" lon="11.5472525"><ele>82.0</ele><time>2026-05-03T10:14:14.082Z</time></trkpt><trkpt lat="45.4124828" lon="11.5473689"><ele>82.0</ele><time>2026-05-03T10:14:15.081Z</time></trkpt><trkpt lat="45.4125715" lon="11.5474781"><ele>82.0</ele><time>2026-05-03T10:14:16.082Z</time></trkpt><trkpt lat="45.4126606" lon="11.5475874"><ele>82.0</ele><time>2026-05-03T10:14:17.083Z</time></trkpt><trkpt lat="45.4127457" lon="11.5477031"><ele>82.0</ele><time>2026-05-03T10:14:18.082Z</time></trkpt><trkpt lat="45.4128278" lon="11.5478275"><ele>82.0</ele><time>2026-05-03T10:14:19.082Z</time></trkpt><trkpt lat="45.4128939" lon="11.5479643"><ele>80.19999999999999</ele><time>2026-05-03T10:14:20.083Z</time></trkpt><trkpt lat="45.4129441" lon="11.5481037"><ele>78.39999999999999</ele><time>2026-05-03T10:14:21.082Z</time></trkpt><trkpt lat="45.4129766" lon="11.548243"><ele>76.6</ele><time>2026-05-03T10:14:22.083Z</time></trkpt><trkpt lat="45.4129941" lon="11.5483772"><ele>74.8</ele><time>2026-05-03T10:14:23.083Z</time></trkpt><trkpt lat="45.4130061" lon="11.54849"><ele>73.0</ele><time>2026-05-03T10:14:24.082Z</time></trkpt><trkpt lat="45.4130205" lon="11.5486031"><ele>76.0</ele><time>2026-05-03T10:14:25.083Z</time></trkpt><trkpt lat="45.4130365" lon="11.5487244"><ele>79.0</ele><time>2026-05-03T10:14:26.083Z</time></trkpt><trkpt lat="45.4130509" lon="11.5488504"><ele>82.0</ele><time>2026-05-03T10:14:27.082Z</time></trkpt><trkpt lat="45.4130792" lon="11.5489712"><ele>85.0</ele><time>2026-05-03T10:14:28.082Z</time></trkpt><trkpt lat="45.4131266" lon="11.5490739"><ele>88.0</ele><time>2026-05-03T10:14:29.083Z</time></trkpt><trkpt lat="45.4131948" lon="11.5491463"><ele>91.0</ele><time>2026-05-03T10:14:30.083Z</time></trkpt><trkpt lat="45.4132773" lon="11.5491803"><ele>91.0</ele><time>2026-05-03T10:14:31.082Z</time></trkpt><trkpt lat="45.4133673" lon="11.5491773"><ele>91.0</ele><time>2026-05-03T10:14:32.083Z</time></trkpt><trkpt lat="45.4134595" lon="11.5491356"><ele>91.0</ele><time>2026-05-03T10:14:33.082Z</time></trkpt><trkpt lat="45.4135547" lon="11.5490724"><ele>91.0</ele><time>2026-05-03T10:14:34.083Z</time></trkpt><trkpt lat="45.4136468" lon="11.5489878"><ele>91.0</ele><time>2026-05-03T10:14:35.082Z</time></trkpt><trkpt lat="45.4137355" lon="11.5488894"><ele>90.5</ele><time>2026-05-03T10:14:36.083Z</time></trkpt><trkpt lat="45.4138225" lon="11.5487812"><ele>90.0</ele><time>2026-05-03T10:14:37.082Z</time></trkpt><trkpt lat="45.4139122" lon="11.5486778"><ele>89.5</ele><time>2026-05-03T10:14:38.082Z</time></trkpt><trkpt lat="45.4140166" lon="11.5485989"><ele>89.0</ele><time>2026-05-03T10:14:39.082Z</time></trkpt><trkpt lat="45.4141271" lon="11.5485295"><ele>94.0</ele><time>2026-05-03T10:14:40.082Z</time></trkpt><trkpt lat="45.414238" lon="11.5484607"><ele>99.0</ele><time>2026-05-03T10:14:41.082Z</time></trkpt><trkpt lat="45.4143464" lon="11.5483881"><ele>104.0</ele><time>2026-05-03T10:14:42.082Z</time></trkpt><trkpt lat="45.4144496" lon="11.5483175"><ele>109.0</ele><time>2026-05-03T10:14:43.082Z</time></trkpt><trkpt lat="45.4145475" lon="11.5482685"><ele>109.0</ele><time>2026-05-03T10:14:44.083Z</time></trkpt><trkpt lat="45.4146514" lon="11.5482435"><ele>109.0</ele><time>2026-05-03T10:14:45.083Z</time></trkpt><trkpt lat="45.4147594" lon="11.548245"><ele>109.0</ele><time>2026-05-03T10:14:46.084Z</time></trkpt><trkpt lat="45.4148703" lon="11.5482829"><ele>109.0</ele><time>2026-05-03T10:14:47.082Z</time></trkpt><trkpt lat="45.4149789" lon="11.5483572"><ele>109.0</ele><time>2026-05-03T10:14:48.082Z</time></trkpt><trkpt lat="45.4150858" lon="11.5484488"><ele>106.25</ele><time>2026-05-03T10:14:49.082Z</time></trkpt><trkpt lat="45.4151974" lon="11.5485464"><ele>103.5</ele><time>2026-05-03T10:14:50.082Z</time></trkpt><trkpt lat="45.4153126" lon="11.5486542"><ele>100.75</ele><time>2026-05-03T10:14:51.082Z</time></trkpt><trkpt lat="45.4154275" lon="11.5487674"><ele>98.0</ele><time>2026-05-03T10:14:52.083Z</time></trkpt><trkpt lat="45.4155511" lon="11.5488628"><ele>97.0</ele><time>2026-05-03T10:14:53.082Z</time></trkpt><trkpt lat="45.4156792" lon="11.5489372"><ele>96.0</ele><time>2026-05-03T10:14:54.082Z</time></trkpt><trkpt lat="45.4158063" lon="11.5489951"><ele>95.0</ele><time>2026-05-03T10:14:55.082Z</time></trkpt><trkpt lat="45.415932" lon="11.5490352"><ele>94.0</ele><time>2026-05-03T10:14:56.082Z</time></trkpt><trkpt lat="45.4160617" lon="11.5490492"><ele>94.0</ele><time>2026-05-03T10:14:57.082Z</time></trkpt><trkpt lat="45.4161908" lon="11.5490342"><ele>94.0</ele><time>2026-05-03T10:14:58.082Z</time></trkpt><trkpt lat="45.4163116" lon="11.5489944"><ele>94.0</ele><time>2026-05-03T10:14:59.083Z</time></trkpt><trkpt lat="45.416424" lon="11.5489552"><ele>94.0</ele><time>2026-05-03T10:15:00.082Z</time></trkpt><trkpt lat="45.4165285" lon="11.5489432"><ele>93.80000000000001</ele><time>2026-05-03T10:15:01.082Z</time></trkpt><trkpt lat="45.4166231" lon="11.5489505"><ele>93.60000000000001</ele><time>2026-05-03T10:15:02.083Z</time></trkpt><trkpt lat="45.4167099" lon="11.5489535"><ele>93.4</ele><time>2026-05-03T10:15:03.082Z</time></trkpt><trkpt lat="45.4167909" lon="11.5488967"><ele>93.2</ele><time>2026-05-03T10:15:04.082Z</time></trkpt><trkpt lat="45.4168621" lon="11.5487987"><ele>93.0</ele><time>2026-05-03T10:15:05.082Z</time></trkpt><trkpt lat="45.416926" lon="11.5486854"><ele>93.80000000000001</ele><time>2026-05-03T10:15:06.082Z</time></trkpt><trkpt lat="45.4169998" lon="11.54859"><ele>94.6</ele><time>2026-05-03T10:15:07.082Z</time></trkpt><trkpt lat="45.4170928" lon="11.5485087"><ele>95.4</ele><time>2026-05-03T10:15:08.082Z</time></trkpt><trkpt lat="45.4171955" lon="11.5484533"><ele>96.19999999999999</ele><time>2026-05-03T10:15:09.082Z</time></trkpt><trkpt lat="45.4173111" lon="11.5484304"><ele>97.0</ele><time>2026-05-03T10:15:10.082Z</time></trkpt><trkpt lat="45.4174345" lon="11.5484236"><ele>97.5</ele><time>2026-05-03T10:15:11.081Z</time></trkpt><trkpt lat="45.4175568" lon="11.5484153"><ele>98.0</ele><time>2026-05-03T10:15:12.082Z</time></trkpt><trkpt lat="45.4176759" lon="11.548422"><ele>98.5</ele><time>2026-05-03T10:15:13.082Z</time></trkpt><trkpt lat="45.4177938" lon="11.5484568"><ele>99.0</ele><time>2026-05-03T10:15:14.082Z</time></trkpt><trkpt lat="45.4179097" lon="11.5485175"><ele>98.5</ele><time>2026-05-03T10:15:15.082Z</time></trkpt><trkpt lat="45.4180172" lon="11.5485983"><ele>98.0</ele><time>2026-05-03T10:15:16.082Z</time></trkpt><trkpt lat="45.4181206" lon="11.548672"><ele>97.5</ele><time>2026-05-03T10:15:17.083Z</time></trkpt><trkpt lat="45.4182276" lon="11.5487143"><ele>97.0</ele><time>2026-05-03T10:15:18.083Z</time></trkpt><trkpt lat="45.4183417" lon="11.548732"><ele>94.19999999999999</ele><time>2026-05-03T10:15:19.082Z</time></trkpt><trkpt lat="45.418458" lon="11.5487335"><ele>91.4</ele><time>2026-05-03T10:15:20.082Z</time></trkpt><trkpt lat="45.4185721" lon="11.5487269"><ele>88.6</ele><time>2026-05-03T10:15:21.082Z</time></trkpt><trkpt lat="45.41868" lon="11.5487319"><ele>85.80000000000001</ele><time>2026-05-03T10:15:22.083Z</time></trkpt><trkpt lat="45.4187831" lon="11.5487498"><ele>83.0</ele><time>2026-05-03T10:15:23.083Z</time></trkpt><trkpt lat="45.418881" lon="11.5487833"><ele>83.0</ele><time>2026-05-03T10:15:24.083Z</time></trkpt><trkpt lat="45.4189779" lon="11.5488043"><ele>83.0</ele><time>2026-05-03T10:15:25.082Z</time></trkpt><trkpt lat="45.4190681" lon="11.5488019"><ele>83.0</ele><time>2026-05-03T10:15:26.082Z</time></trkpt><trkpt lat="45.4191437" lon="11.548775"><ele>83.0</ele><time>2026-05-03T10:15:27.082Z</time></trkpt><trkpt lat="45.4191994" lon="11.5486957"><ele>83.0</ele><time>2026-05-03T10:15:28.082Z</time></trkpt><trkpt lat="45.4192387" lon="11.548586"><ele>83.0</ele><time>2026-05-03T10:15:29.082Z</time></trkpt><trkpt lat="45.4192802" lon="11.5484713"><ele>85.16666666666667</ele><time>2026-05-03T10:15:30.083Z</time></trkpt><trkpt lat="45.4193422" lon="11.5483987"><ele>87.33333333333334</ele><time>2026-05-03T10:15:31.083Z</time></trkpt><trkpt lat="45.4194226" lon="11.5483789"><ele>89.5</ele><time>2026-05-03T10:15:32.083Z</time></trkpt><trkpt lat="45.4195067" lon="11.5483982"><ele>91.66666666666667</ele><time>2026-05-03T10:15:33.082Z</time></trkpt><trkpt lat="45.4195922" lon="11.5484273"><ele>93.83333333333333</ele><time>2026-05-03T10:15:34.081Z</time></trkpt><trkpt lat="45.4196679" lon="11.5484607"><ele>96.0</ele><time>2026-05-03T10:15:35.083Z</time></trkpt><trkpt lat="45.4197265" lon="11.5485237"><ele>96.33333333333333</ele><time>2026-05-03T10:15:36.082Z</time></trkpt><trkpt lat="45.4197622" lon="11.5486096"><ele>96.66666666666666</ele><time>2026-05-03T10:15:37.082Z</time></trkpt><trkpt lat="45.4197749" lon="11.5487156"><ele>97.0</ele><time>2026-05-03T10:15:38.082Z</time></trkpt><trkpt lat="45.4197615" lon="11.5488292"><ele>97.33333333333333</ele><time>2026-05-03T10:15:39.082Z</time></trkpt><trkpt lat="45.419722" lon="11.5489425"><ele>97.66666666666666</ele><time>2026-05-03T10:15:40.083Z</time></trkpt><trkpt lat="45.4196696" lon="11.5490535"><ele>98.0</ele><time>2026-05-03T10:15:41.082Z</time></trkpt><trkpt lat="45.4196193" lon="11.5491704"><ele>95.2</ele><time>2026-05-03T10:15:42.083Z</time></trkpt><trkpt lat="45.4195742" lon="11.5492876"><ele>92.4</ele><time>2026-05-03T10:15:43.082Z</time></trkpt><trkpt lat="45.4195437" lon="11.5494146"><ele>89.60000000000001</ele><time>2026-05-03T10:15:44.082Z</time></trkpt><trkpt lat="45.419537" lon="11.5495513"><ele>86.80000000000001</ele><time>2026-05-03T10:15:45.083Z</time></trkpt><trkpt lat="45.4195583" lon="11.5496803"><ele>84.0</ele><time>2026-05-03T10:15:46.082Z</time></trkpt><trkpt lat="45.4195849" lon="11.5498075"><ele>84.0</ele><time>2026-05-03T10:15:47.082Z</time></trkpt><trkpt lat="45.4196075" lon="11.5499341"><ele>84.0</ele><time>2026-05-03T10:15:48.082Z</time></trkpt><trkpt lat="45.4196283" lon="11.5500638"><ele>84.0</ele><time>2026-05-03T10:15:49.082Z</time></trkpt><trkpt lat="45.4196498" lon="11.5501954"><ele>84.0</ele><time>2026-05-03T10:15:50.082Z</time></trkpt><trkpt lat="45.4196751" lon="11.5503327"><ele>84.0</ele><time>2026-05-03T10:15:51.082Z</time></trkpt><trkpt lat="45.4197051" lon="11.5504748"><ele>86.0</ele><time>2026-05-03T10:15:52.082Z</time></trkpt><trkpt lat="45.4197352" lon="11.5506263"><ele>88.0</ele><time>2026-05-03T10:15:53.083Z</time></trkpt><trkpt lat="45.4197677" lon="11.5507832"><ele>90.0</ele><time>2026-05-03T10:15:54.082Z</time></trkpt><trkpt lat="45.4197964" lon="11.5509417"><ele>92.0</ele><time>2026-05-03T10:15:55.082Z</time></trkpt><trkpt lat="45.4198215" lon="11.551092"><ele>94.0</ele><time>2026-05-03T10:15:56.082Z</time></trkpt><trkpt lat="45.4198432" lon="11.5512365"><ele>94.0</ele><time>2026-05-03T10:15:57.082Z</time></trkpt><trkpt lat="45.4198625" lon="11.5513774"><ele>94.0</ele><time>2026-05-03T10:15:58.082Z</time></trkpt><trkpt lat="45.4198818" lon="11.5515154"><ele>94.0</ele><time>2026-05-03T10:15:59.081Z</time></trkpt><trkpt lat="45.4198978" lon="11.5516491"><ele>94.0</ele><time>2026-05-03T10:16:00.082Z</time></trkpt><trkpt lat="45.4199097" lon="11.5517783"><ele>94.0</ele><time>2026-05-03T10:16:01.082Z</time></trkpt><trkpt lat="45.4199187" lon="11.5519055"><ele>94.0</ele><time>2026-05-03T10:16:02.082Z</time></trkpt><trkpt lat="45.4199213" lon="11.5520278"><ele>94.0</ele><time>2026-05-03T10:16:03.082Z</time></trkpt><trkpt lat="45.4199101" lon="11.5521466"><ele>94.0</ele><time>2026-05-03T10:16:04.082Z</time></trkpt><trkpt lat="45.4198907" lon="11.5522727"><ele>94.0</ele><time>2026-05-03T10:16:05.082Z</time></trkpt><trkpt lat="45.4198696" lon="11.5523996"><ele>94.0</ele><time>2026-05-03T10:16:06.083Z</time></trkpt><trkpt lat="45.4198447" lon="11.5525342"><ele>94.4</ele><time>2026-05-03T10:16:07.082Z</time></trkpt><trkpt lat="45.4198161" lon="11.5526702"><ele>94.80000000000001</ele><time>2026-05-03T10:16:08.082Z</time></trkpt><trkpt lat="45.4197888" lon="11.5528042"><ele>95.19999999999999</ele><time>2026-05-03T10:16:09.083Z</time></trkpt><trkpt lat="45.4197606" lon="11.552937"><ele>95.6</ele><time>2026-05-03T10:16:10.083Z</time></trkpt><trkpt lat="45.419736" lon="11.5530679"><ele>96.0</ele><time>2026-05-03T10:16:11.082Z</time></trkpt><trkpt lat="45.4197104" lon="11.5531952"><ele>96.66666666666667</ele><time>2026-05-03T10:16:12.082Z</time></trkpt><trkpt lat="45.4196846" lon="11.5533221"><ele>97.33333333333334</ele><time>2026-05-03T10:16:13.083Z</time></trkpt><trkpt lat="45.4196606" lon="11.553446"><ele>98.0</ele><time>2026-05-03T10:16:14.082Z</time></trkpt><trkpt lat="45.419638" lon="11.5535731"><ele>98.66666666666667</ele><time>2026-05-03T10:16:15.082Z</time></trkpt><trkpt lat="45.4196169" lon="11.5536943"><ele>99.33333333333334</ele><time>2026-05-03T10:16:16.082Z</time></trkpt><trkpt lat="45.419598" lon="11.5538078"><ele>100.0</ele><time>2026-05-03T10:16:17.081Z</time></trkpt><trkpt lat="45.4195798" lon="11.5539171"><ele>95.50000000000001</ele><time>2026-05-03T10:16:18.083Z</time></trkpt><trkpt lat="45.4195641" lon="11.554021"><ele>91.0</ele><time>2026-05-03T10:16:19.082Z</time></trkpt><trkpt lat="45.4195456" lon="11.5541246"><ele>86.5</ele><time>2026-05-03T10:16:20.082Z</time></trkpt><trkpt lat="45.41953" lon="11.5542209"><ele>82.0</ele><time>2026-05-03T10:16:21.082Z</time></trkpt><trkpt lat="45.4195173" lon="11.554311"><ele>77.5</ele><time>2026-05-03T10:16:22.082Z</time></trkpt><trkpt lat="45.419506" lon="11.554474"><ele>73.0</ele><time>2026-05-03T10:16:24.082Z</time></trkpt><trkpt lat="45.4195109" lon="11.5545934"><ele>73.0</ele><time>2026-05-03T10:16:26.082Z</time></trkpt><trkpt lat="45.419559" lon="11.5546731"><ele>73.0</ele><time>2026-05-03T10:16:28.082Z</time></trkpt><trkpt lat="45.41959" lon="11.5547685"><ele>73.0</ele><time>2026-05-03T10:16:31.082Z</time></trkpt><trkpt lat="45.4195269" lon="11.5547357"><ele>73.0</ele><time>2026-05-03T10:21:41.092Z</time></trkpt><trkpt lat="45.4194849" lon="11.5546609"><ele>73.0</ele><time>2026-05-03T10:21:46.082Z</time></trkpt><trkpt lat="45.4194287" lon="11.5545959"><ele>73.0</ele><time>2026-05-03T10:21:52.082Z</time></trkpt><trkpt lat="45.4193863" lon="11.5545288"><ele>73.0</ele><time>2026-05-03T10:22:00.082Z</time></trkpt><trkpt lat="45.4193333" lon="11.5544612"><ele>73.0</ele><time>2026-05-03T10:24:25.083Z</time></trkpt><trkpt lat="45.4193729" lon="11.554532"><ele>73.0</ele><time>2026-05-03T10:44:29.082Z</time></trkpt><trkpt lat="45.419438" lon="11.5545558"><ele>73.0</ele><time>2026-05-03T10:44:39.086Z</time></trkpt><trkpt lat="45.4194954" lon="11.554605"><ele>73.0</ele><time>2026-05-03T10:44:47.085Z</time></trkpt><trkpt lat="45.419542" lon="11.5546774"><ele>73.0</ele><time>2026-05-03T10:44:54.086Z</time></trkpt><trkpt lat="45.4195886" lon="11.5547471"><ele>73.0</ele><time>2026-05-03T10:45:04.082Z</time></trkpt><trkpt lat="45.419552" lon="11.5546568"><ele>73.0</ele><time>2026-05-03T10:54:08.077Z</time></trkpt><trkpt lat="45.4194753" lon="11.554664"><ele>72.8</ele><time>2026-05-03T10:54:17.077Z</time></trkpt><trkpt lat="45.4194624" lon="11.5547604"><ele>72.6</ele><time>2026-05-03T10:54:19.077Z</time></trkpt><trkpt lat="45.4194672" lon="11.5548896"><ele>72.4</ele><time>2026-05-03T10:54:21.077Z</time></trkpt><trkpt lat="45.4194656" lon="11.5550568"><ele>72.2</ele><time>2026-05-03T10:54:23.077Z</time></trkpt><trkpt lat="45.4194555" lon="11.5552324"><ele>72.0</ele><time>2026-05-03T10:54:25.077Z</time></trkpt><trkpt lat="45.4194493" lon="11.555324"><ele>71.85714285714286</ele><time>2026-05-03T10:54:26.077Z</time></trkpt><trkpt lat="45.4194377" lon="11.5554164"><ele>71.71428571428572</ele><time>2026-05-03T10:54:27.077Z</time></trkpt><trkpt lat="45.4194192" lon="11.555508"><ele>71.57142857142857</ele><time>2026-05-03T10:54:28.077Z</time></trkpt><trkpt lat="45.4193991" lon="11.5556008"><ele>71.42857142857143</ele><time>2026-05-03T10:54:29.077Z</time></trkpt><trkpt lat="45.4193758" lon="11.5556938"><ele>71.28571428571428</ele><time>2026-05-03T10:54:30.077Z</time></trkpt><trkpt lat="45.4193453" lon="11.5557875"><ele>71.14285714285714</ele><time>2026-05-03T10:54:31.077Z</time></trkpt><trkpt lat="45.4193113" lon="11.5558817"><ele>71.0</ele><time>2026-05-03T10:54:32.077Z</time></trkpt><trkpt lat="45.4192756" lon="11.5559786"><ele>71.0</ele><time>2026-05-03T10:54:33.077Z</time></trkpt><trkpt lat="45.4192357" lon="11.5560742"><ele>71.0</ele><time>2026-05-03T10:54:34.077Z</time></trkpt><trkpt lat="45.4191955" lon="11.5561704"><ele>71.0</ele><time>2026-05-03T10:54:35.077Z</time></trkpt><trkpt lat="45.4191558" lon="11.5562607"><ele>71.0</ele><time>2026-05-03T10:54:36.077Z</time></trkpt><trkpt lat="45.4191156" lon="11.5563489"><ele>71.0</ele><time>2026-05-03T10:54:37.077Z</time></trkpt><trkpt lat="45.4190767" lon="11.5564385"><ele>71.0</ele><time>2026-05-03T10:54:38.077Z</time></trkpt><trkpt lat="45.4190337" lon="11.5565191"><ele>70.16666666666667</ele><time>2026-05-03T10:54:39.077Z</time></trkpt><trkpt lat="45.4189948" lon="11.5566043"><ele>69.33333333333334</ele><time>2026-05-03T10:54:40.077Z</time></trkpt><trkpt lat="45.4189585" lon="11.5566839"><ele>68.5</ele><time>2026-05-03T10:54:41.077Z</time></trkpt><trkpt lat="45.4188985" lon="11.5568105"><ele>67.66666666666667</ele><time>2026-05-03T10:54:43.077Z</time></trkpt><trkpt lat="45.4188666" lon="11.5569135"><ele>66.83333333333333</ele><time>2026-05-03T10:54:45.077Z</time></trkpt><trkpt lat="45.418914" lon="11.5569986"><ele>66.0</ele><time>2026-05-03T10:54:47.077Z</time></trkpt><trkpt lat="45.4190258" lon="11.5570747"><ele>64.6</ele><time>2026-05-03T10:54:49.077Z</time></trkpt><trkpt lat="45.419102" lon="11.5571216"><ele>63.199999999999996</ele><time>2026-05-03T10:54:50.077Z</time></trkpt><trkpt lat="45.4191868" lon="11.5571735"><ele>61.800000000000004</ele><time>2026-05-03T10:54:51.077Z</time></trkpt><trkpt lat="45.4192798" lon="11.5572263"><ele>60.400000000000006</ele><time>2026-05-03T10:54:52.077Z</time></trkpt><trkpt lat="45.4193766" lon="11.5572832"><ele>59.0</ele><time>2026-05-03T10:54:53.076Z</time></trkpt><trkpt lat="45.4194725" lon="11.5573226"><ele>59.0</ele><time>2026-05-03T10:54:54.077Z</time></trkpt><trkpt lat="45.4195645" lon="11.5573519"><ele>59.00000000000001</ele><time>2026-05-03T10:54:55.077Z</time></trkpt><trkpt lat="45.4196583" lon="11.5573593"><ele>59.00000000000001</ele><time>2026-05-03T10:54:56.077Z</time></trkpt><trkpt lat="45.4197549" lon="11.5573478"><ele>59.0</ele><time>2026-05-03T10:54:57.077Z</time></trkpt><trkpt lat="45.4198566" lon="11.5573277"><ele>59.0</ele><time>2026-05-03T10:54:58.077Z</time></trkpt><trkpt lat="45.4199598" lon="11.5573035"><ele>59.800000000000004</ele><time>2026-05-03T10:54:59.077Z</time></trkpt><trkpt lat="45.4200623" lon="11.557277"><ele>60.60000000000001</ele><time>2026-05-03T10:55:00.077Z</time></trkpt><trkpt lat="45.4201674" lon="11.5572622"><ele>61.4</ele><time>2026-05-03T10:55:01.077Z</time></trkpt><trkpt lat="45.4202698" lon="11.5572694"><ele>62.2</ele><time>2026-05-03T10:55:02.077Z</time></trkpt><trkpt lat="45.4203676" lon="11.5573029"><ele>63.0</ele><time>2026-05-03T10:55:03.077Z</time></trkpt><trkpt lat="45.4204594" lon="11.5573507"><ele>63.0</ele><time>2026-05-03T10:55:04.077Z</time></trkpt><trkpt lat="45.4205482" lon="11.5574078"><ele>63.0</ele><time>2026-05-03T10:55:05.077Z</time></trkpt><trkpt lat="45.4206332" lon="11.5574646"><ele>63.0</ele><time>2026-05-03T10:55:06.077Z</time></trkpt><trkpt lat="45.4207131" lon="11.5575242"><ele>63.0</ele><time>2026-05-03T10:55:07.077Z</time></trkpt><trkpt lat="45.4207879" lon="11.5575823"><ele>63.0</ele><time>2026-05-03T10:55:08.077Z</time></trkpt><trkpt lat="45.4208578" lon="11.5576325"><ele>63.0</ele><time>2026-05-03T10:55:09.076Z</time></trkpt><trkpt lat="45.4209297" lon="11.5576747"><ele>63.0</ele><time>2026-05-03T10:55:10.077Z</time></trkpt><trkpt lat="45.4209976" lon="11.5577076"><ele>63.0</ele><time>2026-05-03T10:55:11.077Z</time></trkpt><trkpt lat="45.4210936" lon="11.5577738"><ele>63.0</ele><time>2026-05-03T10:55:13.076Z</time></trkpt><trkpt lat="45.4211018" lon="11.5578982"><ele>63.0</ele><time>2026-05-03T10:55:15.077Z</time></trkpt><trkpt lat="45.421037" lon="11.5580018"><ele>63.0</ele><time>2026-05-03T10:55:17.077Z</time></trkpt><trkpt lat="45.4210081" lon="11.5581078"><ele>63.0</ele><time>2026-05-03T10:55:19.077Z</time></trkpt><trkpt lat="45.4210677" lon="11.5581441"><ele>61.333333333333336</ele><time>2026-05-03T10:55:21.077Z</time></trkpt><trkpt lat="45.4211324" lon="11.5580847"><ele>59.66666666666667</ele><time>2026-05-03T10:55:23.077Z</time></trkpt><trkpt lat="45.4211948" lon="11.5580257"><ele>58.0</ele><time>2026-05-03T10:55:25.077Z</time></trkpt><trkpt lat="45.4212645" lon="11.5579528"><ele>56.333333333333336</ele><time>2026-05-03T10:55:28.077Z</time></trkpt><trkpt lat="45.4213467" lon="11.5579246"><ele>54.66666666666667</ele><time>2026-05-03T10:55:31.077Z</time></trkpt><trkpt lat="45.4214399" lon="11.5579304"><ele>53.0</ele><time>2026-05-03T10:55:34.077Z</time></trkpt><trkpt lat="45.4215308" lon="11.5579512"><ele>51.50000000000001</ele><time>2026-05-03T10:55:37.077Z</time></trkpt><trkpt lat="45.4216073" lon="11.5579839"><ele>50.0</ele><time>2026-05-03T10:55:40.077Z</time></trkpt><trkpt lat="45.4216808" lon="11.5580113"><ele>48.5</ele><time>2026-05-03T10:55:43.077Z</time></trkpt><trkpt lat="45.4217642" lon="11.5580515"><ele>47.0</ele><time>2026-05-03T10:55:46.077Z</time></trkpt><trkpt lat="45.4218501" lon="11.558083"><ele>45.5</ele><time>2026-05-03T10:55:49.077Z</time></trkpt><trkpt lat="45.4219323" lon="11.5581071"><ele>44.0</ele><time>2026-05-03T10:55:52.077Z</time></trkpt><trkpt lat="45.4220106" lon="11.5581098"><ele>44.0</ele><time>2026-05-03T10:55:55.077Z</time></trkpt><trkpt lat="45.4220815" lon="11.5581049"><ele>44.0</ele><time>2026-05-03T10:55:58.076Z</time></trkpt><trkpt lat="45.4221492" lon="11.5580903"><ele>44.0</ele><time>2026-05-03T10:56:00.077Z</time></trkpt><trkpt lat="45.4222259" lon="11.5580861"><ele>44.0</ele><time>2026-05-03T10:56:02.077Z</time></trkpt><trkpt lat="45.4223036" lon="11.5581155"><ele>44.0</ele><time>2026-05-03T10:56:05.077Z</time></trkpt><trkpt lat="45.4221953" lon="11.5580724"><ele>44.0</ele><time>2026-05-03T10:56:23.077Z</time></trkpt><trkpt lat="45.4221248" lon="11.5580738"><ele>44.0</ele><time>2026-05-03T10:56:24.076Z</time></trkpt><trkpt lat="45.4220103" lon="11.5580846"><ele>44.0</ele><time>2026-05-03T10:56:26.077Z</time></trkpt><trkpt lat="45.4219206" lon="11.5580819"><ele>44.0</ele><time>2026-05-03T10:56:28.077Z</time></trkpt><trkpt lat="45.4217901" lon="11.55804"><ele>44.0</ele><time>2026-05-03T10:56:30.077Z</time></trkpt><trkpt lat="45.4216867" lon="11.5580051"><ele>44.0</ele><time>2026-05-03T10:56:31.077Z</time></trkpt><trkpt lat="45.4215701" lon="11.5579596"><ele>44.0</ele><time>2026-05-03T10:56:32.077Z</time></trkpt><trkpt lat="45.4214794" lon="11.5579333"><ele>44.0</ele><time>2026-05-03T10:56:33.077Z</time></trkpt><trkpt lat="45.4214017" lon="11.5579239"><ele>44.0</ele><time>2026-05-03T10:56:34.077Z</time></trkpt><trkpt lat="45.421324" lon="11.5579351"><ele>44.0</ele><time>2026-05-03T10:56:35.077Z</time></trkpt><trkpt lat="45.4212497" lon="11.5579697"><ele>44.0</ele><time>2026-05-03T10:56:36.077Z</time></trkpt><trkpt lat="45.4211944" lon="11.5580169"><ele>44.0</ele><time>2026-05-03T10:56:37.077Z</time></trkpt><trkpt lat="45.4211148" lon="11.5580943"><ele>44.0</ele><time>2026-05-03T10:56:39.077Z</time></trkpt><trkpt lat="45.42103" lon="11.5581216"><ele>44.0</ele><time>2026-05-03T10:56:42.077Z</time></trkpt><trkpt lat="45.4210846" lon="11.5581764"><ele>44.0</ele><time>2026-05-03T10:56:47.077Z</time></trkpt><trkpt lat="45.4211468" lon="11.5580881"><ele>44.0</ele><time>2026-05-03T10:56:49.077Z</time></trkpt><trkpt lat="45.42125" lon="11.557994"><ele>44.0</ele><time>2026-05-03T10:56:51.077Z</time></trkpt><trkpt lat="45.4213297" lon="11.5579549"><ele>44.0</ele><time>2026-05-03T10:56:52.077Z</time></trkpt><trkpt lat="45.4214128" lon="11.557943"><ele>44.0</ele><time>2026-05-03T10:56:53.077Z</time></trkpt><trkpt lat="45.4215076" lon="11.5579496"><ele>44.0</ele><time>2026-05-03T10:56:54.077Z</time></trkpt><trkpt lat="45.4216064" lon="11.5579798"><ele>44.0</ele><time>2026-05-03T10:56:55.077Z</time></trkpt><trkpt lat="45.4217046" lon="11.5580227"><ele>44.0</ele><time>2026-05-03T10:56:56.077Z</time></trkpt><trkpt lat="45.4218027" lon="11.5580614"><ele>44.0</ele><time>2026-05-03T10:56:57.077Z</time></trkpt><trkpt lat="45.4218929" lon="11.5580851"><ele>44.0</ele><time>2026-05-03T10:56:58.077Z</time></trkpt><trkpt lat="45.4219777" lon="11.5580904"><ele>44.0</ele><time>2026-05-03T10:56:59.077Z</time></trkpt><trkpt lat="45.4220566" lon="11.5580879"><ele>44.0</ele><time>2026-05-03T10:57:00.077Z</time></trkpt><trkpt lat="45.4221385" lon="11.5580806"><ele>44.0</ele><time>2026-05-03T10:57:01.077Z</time></trkpt><trkpt lat="45.4222184" lon="11.5580821"><ele>44.0</ele><time>2026-05-03T10:57:02.077Z</time></trkpt><trkpt lat="45.4222981" lon="11.5581136"><ele>44.0</ele><time>2026-05-03T10:57:03.077Z</time></trkpt><trkpt lat="45.4223663" lon="11.5581658"><ele>42.83333333333333</ele><time>2026-05-03T10:57:04.077Z</time></trkpt><trkpt lat="45.4224198" lon="11.5582428"><ele>41.666666666666664</ele><time>2026-05-03T10:57:05.077Z</time></trkpt><trkpt lat="45.4224574" lon="11.5583288"><ele>40.5</ele><time>2026-05-03T10:57:06.077Z</time></trkpt><trkpt lat="45.4224825" lon="11.5584298"><ele>39.333333333333336</ele><time>2026-05-03T10:57:07.077Z</time></trkpt><trkpt lat="45.4224991" lon="11.5585276"><ele>38.16666666666667</ele><time>2026-05-03T10:57:08.077Z</time></trkpt><trkpt lat="45.4225051" lon="11.5586205"><ele>37.0</ele><time>2026-05-03T10:57:09.077Z</time></trkpt><trkpt lat="45.4224842" lon="11.558788"><ele>35.0</ele><time>2026-05-03T10:57:11.077Z</time></trkpt><trkpt lat="45.4224519" lon="11.5589414"><ele>33.0</ele><time>2026-05-03T10:57:13.077Z</time></trkpt><trkpt lat="45.4224886" lon="11.5590945"><ele>31.000000000000004</ele><time>2026-05-03T10:57:15.077Z</time></trkpt><trkpt lat="45.4226114" lon="11.559122"><ele>29.0</ele><time>2026-05-03T10:57:17.077Z</time></trkpt><trkpt lat="45.422678" lon="11.5591118"><ele>27.0</ele><time>2026-05-03T10:57:18.077Z</time></trkpt><trkpt lat="45.422745" lon="11.5591108"><ele>27.0</ele><time>2026-05-03T10:57:19.076Z</time></trkpt><trkpt lat="45.4228074" lon="11.5591381"><ele>27.0</ele><time>2026-05-03T10:57:20.077Z</time></trkpt><trkpt lat="45.4228532" lon="11.5592642"><ele>27.0</ele><time>2026-05-03T10:57:22.077Z</time></trkpt><trkpt lat="45.4227855" lon="11.5593919"><ele>27.0</ele><time>2026-05-03T10:57:24.077Z</time></trkpt><trkpt lat="45.4227181" lon="11.559447"><ele>27.0</ele><time>2026-05-03T10:57:25.077Z</time></trkpt><trkpt lat="45.4226465" lon="11.559512"><ele>27.0</ele><time>2026-05-03T10:57:26.077Z</time></trkpt><trkpt lat="45.4225742" lon="11.5595741"><ele>26.0</ele><time>2026-05-03T10:57:27.077Z</time></trkpt><trkpt lat="45.4225058" lon="11.5596467"><ele>25.000000000000004</ele><time>2026-05-03T10:57:28.077Z</time></trkpt><trkpt lat="45.4224546" lon="11.5597464"><ele>24.0</ele><time>2026-05-03T10:57:29.077Z</time></trkpt><trkpt lat="45.4224208" lon="11.5598653"><ele>23.0</ele><time>2026-05-03T10:57:30.077Z</time></trkpt><trkpt lat="45.4223928" lon="11.5599984"><ele>22.0</ele><time>2026-05-03T10:57:31.077Z</time></trkpt><trkpt lat="45.422368" lon="11.5601402"><ele>22.0</ele><time>2026-05-03T10:57:32.077Z</time></trkpt><trkpt lat="45.4223427" lon="11.5602824"><ele>22.0</ele><time>2026-05-03T10:57:33.077Z</time></trkpt><trkpt lat="45.4223153" lon="11.5604248"><ele>22.0</ele><time>2026-05-03T10:57:34.077Z</time></trkpt><trkpt lat="45.4222824" lon="11.5605628"><ele>22.0</ele><time>2026-05-03T10:57:35.076Z</time></trkpt><trkpt lat="45.42226" lon="11.5607131"><ele>22.0</ele><time>2026-05-03T10:57:36.077Z</time></trkpt><trkpt lat="45.4222513" lon="11.5608729"><ele>22.0</ele><time>2026-05-03T10:57:37.077Z</time></trkpt><trkpt lat="45.4222501" lon="11.5610315"><ele>22.0</ele><time>2026-05-03T10:57:38.077Z</time></trkpt><trkpt lat="45.422254" lon="11.5611889"><ele>22.0</ele><time>2026-05-03T10:57:39.077Z</time></trkpt><trkpt lat="45.4222564" lon="11.5613337"><ele>22.0</ele><time>2026-05-03T10:57:40.077Z</time></trkpt><trkpt lat="45.4222448" lon="11.5614529"><ele>22.0</ele><time>2026-05-03T10:57:41.077Z</time></trkpt><trkpt lat="45.4222102" lon="11.5615722"><ele>22.0</ele><time>2026-05-03T10:57:42.077Z</time></trkpt><trkpt lat="45.4221611" lon="11.5616974"><ele>22.0</ele><time>2026-05-03T10:57:43.077Z</time></trkpt><trkpt lat="45.4221025" lon="11.5618346"><ele>22.0</ele><time>2026-05-03T10:57:44.077Z</time></trkpt><trkpt lat="45.4220385" lon="11.5619806"><ele>22.0</ele><time>2026-05-03T10:57:45.077Z</time></trkpt><trkpt lat="45.4219679" lon="11.562129"><ele>21.25</ele><time>2026-05-03T10:57:46.076Z</time></trkpt><trkpt lat="45.421898" lon="11.5622933"><ele>20.5</ele><time>2026-05-03T10:57:47.077Z</time></trkpt><trkpt lat="45.4218292" lon="11.5624715"><ele>19.75</ele><time>2026-05-03T10:57:48.077Z</time></trkpt><trkpt lat="45.4217604" lon="11.5626748"><ele>19.0</ele><time>2026-05-03T10:57:49.077Z</time></trkpt><trkpt lat="45.421686" lon="11.5629202"><ele>18.666666666666664</ele><time>2026-05-03T10:57:50.077Z</time></trkpt><trkpt lat="45.4216084" lon="11.5631798"><ele>18.333333333333332</ele><time>2026-05-03T10:57:51.077Z</time></trkpt><trkpt lat="45.4215324" lon="11.5634478"><ele>18.0</ele><time>2026-05-03T10:57:52.077Z</time></trkpt><trkpt lat="45.4214428" lon="11.5637063"><ele>18.0</ele><time>2026-05-03T10:57:53.077Z</time></trkpt><trkpt lat="45.4213336" lon="11.5639535"><ele>18.0</ele><time>2026-05-03T10:57:54.077Z</time></trkpt><trkpt lat="45.4212109" lon="11.5641912"><ele>18.0</ele><time>2026-05-03T10:57:55.077Z</time></trkpt><trkpt lat="45.4210896" lon="11.5644361"><ele>17.666666666666668</ele><time>2026-05-03T10:57:56.077Z</time></trkpt><trkpt lat="45.4209774" lon="11.5646951"><ele>17.333333333333336</ele><time>2026-05-03T10:57:57.077Z</time></trkpt><trkpt lat="45.4208894" lon="11.5649749"><ele>17.0</ele><time>2026-05-03T10:57:58.077Z</time></trkpt><trkpt lat="45.4208211" lon="11.5652688"><ele>17.333333333333336</ele><time>2026-05-03T10:57:59.077Z</time></trkpt><trkpt lat="45.4207624" lon="11.565567"><ele>17.666666666666668</ele><time>2026-05-03T10:58:00.077Z</time></trkpt><trkpt lat="45.4206986" lon="11.5658666"><ele>18.0</ele><time>2026-05-03T10:58:01.077Z</time></trkpt><trkpt lat="45.4206276" lon="11.5661666"><ele>17.0</ele><time>2026-05-03T10:58:02.077Z</time></trkpt><trkpt lat="45.4205468" lon="11.5664683"><ele>16.0</ele><time>2026-05-03T10:58:03.077Z</time></trkpt><trkpt lat="45.4204624" lon="11.5667773"><ele>16.0</ele><time>2026-05-03T10:58:04.077Z</time></trkpt><trkpt lat="45.4203788" lon="11.5670907"><ele>16.0</ele><time>2026-05-03T10:58:05.077Z</time></trkpt><trkpt lat="45.4202955" lon="11.5674099"><ele>16.0</ele><time>2026-05-03T10:58:06.077Z</time></trkpt><trkpt lat="45.4202118" lon="11.5677396"><ele>16.0</ele><time>2026-05-03T10:58:07.077Z</time></trkpt><trkpt lat="45.4201195" lon="11.568066"><ele>16.5</ele><time>2026-05-03T10:58:08.077Z</time></trkpt><trkpt lat="45.4200304" lon="11.5683779"><ele>17.0</ele><time>2026-05-03T10:58:09.077Z</time></trkpt><trkpt lat="45.4199523" lon="11.5686683"><ele>17.0</ele><time>2026-05-03T10:58:10.077Z</time></trkpt><trkpt lat="45.4198812" lon="11.5689176"><ele>17.0</ele><time>2026-05-03T10:58:11.077Z</time></trkpt><trkpt lat="45.4198213" lon="11.5691238"><ele>17.0</ele><time>2026-05-03T10:58:12.077Z</time></trkpt><trkpt lat="45.419776" lon="11.569292"><ele>17.0</ele><time>2026-05-03T10:58:13.076Z</time></trkpt><trkpt lat="45.4197485" lon="11.5694361"><ele>17.0</ele><time>2026-05-03T10:58:14.077Z</time></trkpt><trkpt lat="45.4197621" lon="11.569575"><ele>17.0</ele><time>2026-05-03T10:58:15.076Z</time></trkpt><trkpt lat="45.4198178" lon="11.5697166"><ele>17.0</ele><time>2026-05-03T10:58:16.077Z</time></trkpt><trkpt lat="45.4199091" lon="11.5698383"><ele>17.0</ele><time>2026-05-03T10:58:17.077Z</time></trkpt><trkpt lat="45.4200057" lon="11.5699508"><ele>17.75</ele><time>2026-05-03T10:58:18.077Z</time></trkpt><trkpt lat="45.4201036" lon="11.5700637"><ele>18.5</ele><time>2026-05-03T10:58:19.077Z</time></trkpt><trkpt lat="45.4201909" lon="11.5701647"><ele>19.25</ele><time>2026-05-03T10:58:20.077Z</time></trkpt><trkpt lat="45.4202585" lon="11.5702859"><ele>20.0</ele><time>2026-05-03T10:58:21.077Z</time></trkpt><trkpt lat="45.4202923" lon="11.570438"><ele>21.0</ele><time>2026-05-03T10:58:22.077Z</time></trkpt><trkpt lat="45.4202892" lon="11.5706018"><ele>22.0</ele><time>2026-05-03T10:58:23.077Z</time></trkpt><trkpt lat="45.420249" lon="11.5707677"><ele>23.0</ele><time>2026-05-03T10:58:24.076Z</time></trkpt><trkpt lat="45.4201877" lon="11.5709354"><ele>24.0</ele><time>2026-05-03T10:58:25.077Z</time></trkpt><trkpt lat="45.420114" lon="11.5711103"><ele>26.0</ele><time>2026-05-03T10:58:26.077Z</time></trkpt><trkpt lat="45.4200297" lon="11.5712896"><ele>28.0</ele><time>2026-05-03T10:58:27.077Z</time></trkpt><trkpt lat="45.4199451" lon="11.5714749"><ele>30.0</ele><time>2026-05-03T10:58:28.077Z</time></trkpt><trkpt lat="45.419867" lon="11.5716458"><ele>30.0</ele><time>2026-05-03T10:58:29.077Z</time></trkpt><trkpt lat="45.4197905" lon="11.5718084"><ele>30.0</ele><time>2026-05-03T10:58:30.077Z</time></trkpt><trkpt lat="45.4197202" lon="11.5719643"><ele>30.0</ele><time>2026-05-03T10:58:31.077Z</time></trkpt><trkpt lat="45.419655" lon="11.5721138"><ele>30.0</ele><time>2026-05-03T10:58:32.077Z</time></trkpt><trkpt lat="45.4195924" lon="11.5722584"><ele>28.25</ele><time>2026-05-03T10:58:33.077Z</time></trkpt><trkpt lat="45.4195353" lon="11.5724018"><ele>26.5</ele><time>2026-05-03T10:58:34.077Z</time></trkpt><trkpt lat="45.4194799" lon="11.5725418"><ele>24.75</ele><time>2026-05-03T10:58:35.077Z</time></trkpt><trkpt lat="45.4194238" lon="11.572681"><ele>23.0</ele><time>2026-05-03T10:58:36.077Z</time></trkpt><trkpt lat="45.4193741" lon="11.5728264"><ele>23.25</ele><time>2026-05-03T10:58:37.077Z</time></trkpt><trkpt lat="45.4193353" lon="11.5729853"><ele>23.5</ele><time>2026-05-03T10:58:38.077Z</time></trkpt><trkpt lat="45.4193114" lon="11.5731616"><ele>23.75</ele><time>2026-05-03T10:58:39.077Z</time></trkpt><trkpt lat="45.4192961" lon="11.573345"><ele>24.0</ele><time>2026-05-03T10:58:40.077Z</time></trkpt><trkpt lat="45.4192818" lon="11.5735314"><ele>24.5</ele><time>2026-05-03T10:58:41.076Z</time></trkpt><trkpt lat="45.4192671" lon="11.5737212"><ele>25.0</ele><time>2026-05-03T10:58:42.077Z</time></trkpt><trkpt lat="45.4192548" lon="11.5739131"><ele>25.5</ele><time>2026-05-03T10:58:43.077Z</time></trkpt><trkpt lat="45.4192427" lon="11.5741011"><ele>26.0</ele><time>2026-05-03T10:58:44.077Z</time></trkpt><trkpt lat="45.4192337" lon="11.5742888"><ele>26.0</ele><time>2026-05-03T10:58:45.077Z</time></trkpt><trkpt lat="45.4192217" lon="11.5744729"><ele>26.0</ele><time>2026-05-03T10:58:46.077Z</time></trkpt><trkpt lat="45.4191971" lon="11.5746525"><ele>26.0</ele><time>2026-05-03T10:58:47.076Z</time></trkpt><trkpt lat="45.4191554" lon="11.574835"><ele>26.0</ele><time>2026-05-03T10:58:48.077Z</time></trkpt><trkpt lat="45.4190956" lon="11.5750081"><ele>26.75</ele><time>2026-05-03T10:58:49.077Z</time></trkpt><trkpt lat="45.4190286" lon="11.5751793"><ele>27.5</ele><time>2026-05-03T10:58:50.077Z</time></trkpt><trkpt lat="45.4189551" lon="11.5753373"><ele>28.25</ele><time>2026-05-03T10:58:51.077Z</time></trkpt><trkpt lat="45.4188727" lon="11.575488"><ele>29.0</ele><time>2026-05-03T10:58:52.077Z</time></trkpt><trkpt lat="45.4187861" lon="11.5756169"><ele>27.5</ele><time>2026-05-03T10:58:53.077Z</time></trkpt><trkpt lat="45.4186919" lon="11.5757289"><ele>26.0</ele><time>2026-05-03T10:58:54.077Z</time></trkpt><trkpt lat="45.4185955" lon="11.5758322"><ele>24.5</ele><time>2026-05-03T10:58:55.077Z</time></trkpt><trkpt lat="45.4185044" lon="11.5759421"><ele>23.0</ele><time>2026-05-03T10:58:56.077Z</time></trkpt><trkpt lat="45.4184213" lon="11.5760646"><ele>24.0</ele><time>2026-05-03T10:58:57.077Z</time></trkpt><trkpt lat="45.4183393" lon="11.5761948"><ele>25.0</ele><time>2026-05-03T10:58:58.077Z</time></trkpt><trkpt lat="45.4182626" lon="11.5763373"><ele>26.0</ele><time>2026-05-03T10:58:59.077Z</time></trkpt><trkpt lat="45.4181936" lon="11.5764814"><ele>27.0</ele><time>2026-05-03T10:59:00.077Z</time></trkpt><trkpt lat="45.418125" lon="11.5766276"><ele>27.0</ele><time>2026-05-03T10:59:01.076Z</time></trkpt><trkpt lat="45.4180584" lon="11.5767731"><ele>27.0</ele><time>2026-05-03T10:59:02.077Z</time></trkpt><trkpt lat="45.4179919" lon="11.5769195"><ele>27.0</ele><time>2026-05-03T10:59:03.077Z</time></trkpt><trkpt lat="45.4179315" lon="11.5770523"><ele>27.0</ele><time>2026-05-03T10:59:04.077Z</time></trkpt><trkpt lat="45.4178802" lon="11.5771658"><ele>26.333333333333332</ele><time>2026-05-03T10:59:05.077Z</time></trkpt><trkpt lat="45.417844" lon="11.5772548"><ele>25.666666666666668</ele><time>2026-05-03T10:59:06.077Z</time></trkpt><trkpt lat="45.4177862" lon="11.5773846"><ele>25.0</ele><time>2026-05-03T10:59:08.077Z</time></trkpt><trkpt lat="45.4177906" lon="11.5774815"><ele>24.333333333333336</ele><time>2026-05-03T10:59:10.077Z</time></trkpt><trkpt lat="45.4178851" lon="11.5775614"><ele>23.666666666666668</ele><time>2026-05-03T10:59:12.077Z</time></trkpt><trkpt lat="45.417965" lon="11.5776082"><ele>23.0</ele><time>2026-05-03T10:59:13.077Z</time></trkpt><trkpt lat="45.4180627" lon="11.5776405"><ele>23.0</ele><time>2026-05-03T10:59:14.077Z</time></trkpt><trkpt lat="45.4181661" lon="11.5776506"><ele>23.0</ele><time>2026-05-03T10:59:15.077Z</time></trkpt><trkpt lat="45.4182772" lon="11.5776372"><ele>23.0</ele><time>2026-05-03T10:59:16.077Z</time></trkpt><trkpt lat="45.4183939" lon="11.5776097"><ele>23.0</ele><time>2026-05-03T10:59:17.077Z</time></trkpt><trkpt lat="45.4185066" lon="11.5775705"><ele>23.0</ele><time>2026-05-03T10:59:18.077Z</time></trkpt><trkpt lat="45.4186078" lon="11.5775206"><ele>23.0</ele><time>2026-05-03T10:59:19.076Z</time></trkpt><trkpt lat="45.4187103" lon="11.5774613"><ele>23.0</ele><time>2026-05-03T10:59:20.077Z</time></trkpt><trkpt lat="45.4188138" lon="11.5773787"><ele>23.0</ele><time>2026-05-03T10:59:21.077Z</time></trkpt><trkpt lat="45.4189174" lon="11.5772843"><ele>23.0</ele><time>2026-05-03T10:59:22.077Z</time></trkpt><trkpt lat="45.4190226" lon="11.5771798"><ele>23.5</ele><time>2026-05-03T10:59:23.077Z</time></trkpt><trkpt lat="45.4191338" lon="11.5770817"><ele>24.0</ele><time>2026-05-03T10:59:24.077Z</time></trkpt><trkpt lat="45.4192547" lon="11.5769819"><ele>24.5</ele><time>2026-05-03T10:59:25.077Z</time></trkpt><trkpt lat="45.4193794" lon="11.5768973"><ele>25.0</ele><time>2026-05-03T10:59:26.077Z</time></trkpt><trkpt lat="45.4195164" lon="11.576827"><ele>26.0</ele><time>2026-05-03T10:59:27.076Z</time></trkpt><trkpt lat="45.4196575" lon="11.5767613"><ele>27.0</ele><time>2026-05-03T10:59:28.077Z</time></trkpt><trkpt lat="45.4198021" lon="11.5767053"><ele>28.0</ele><time>2026-05-03T10:59:29.077Z</time></trkpt><trkpt lat="45.4199515" lon="11.5766653"><ele>28.0</ele><time>2026-05-03T10:59:30.077Z</time></trkpt><trkpt lat="45.4201027" lon="11.5766297"><ele>28.0</ele><time>2026-05-03T10:59:31.077Z</time></trkpt><trkpt lat="45.4202428" lon="11.57656"><ele>28.0</ele><time>2026-05-03T10:59:32.077Z</time></trkpt><trkpt lat="45.4203811" lon="11.5764767"><ele>28.75</ele><time>2026-05-03T10:59:33.077Z</time></trkpt><trkpt lat="45.4204935" lon="11.5764007"><ele>29.5</ele><time>2026-05-03T10:59:34.077Z</time></trkpt><trkpt lat="45.4206069" lon="11.5763268"><ele>30.25</ele><time>2026-05-03T10:59:35.077Z</time></trkpt><trkpt lat="45.4207074" lon="11.5762384"><ele>31.0</ele><time>2026-05-03T10:59:36.077Z</time></trkpt><trkpt lat="45.4207983" lon="11.5761264"><ele>31.0</ele><time>2026-05-03T10:59:37.077Z</time></trkpt><trkpt lat="45.420887" lon="11.5759984"><ele>31.0</ele><time>2026-05-03T10:59:38.077Z</time></trkpt><trkpt lat="45.4209755" lon="11.5758708"><ele>31.0</ele><time>2026-05-03T10:59:39.077Z</time></trkpt><trkpt lat="45.4210659" lon="11.5757433"><ele>31.0</ele><time>2026-05-03T10:59:40.077Z</time></trkpt><trkpt lat="45.4211563" lon="11.5756139"><ele>31.0</ele><time>2026-05-03T10:59:41.076Z</time></trkpt><trkpt lat="45.4212418" lon="11.5755098"><ele>31.0</ele><time>2026-05-03T10:59:42.077Z</time></trkpt><trkpt lat="45.4213326" lon="11.5754155"><ele>31.0</ele><time>2026-05-03T10:59:43.077Z</time></trkpt><trkpt lat="45.4214316" lon="11.5753384"><ele>31.0</ele><time>2026-05-03T10:59:44.077Z</time></trkpt><trkpt lat="45.4215412" lon="11.5752938"><ele>32.5</ele><time>2026-05-03T10:59:45.077Z</time></trkpt><trkpt lat="45.4216547" lon="11.5752883"><ele>34.0</ele><time>2026-05-03T10:59:46.077Z</time></trkpt><trkpt lat="45.4217765" lon="11.5753081"><ele>35.5</ele><time>2026-05-03T10:59:47.077Z</time></trkpt><trkpt lat="45.4219055" lon="11.5753461"><ele>37.0</ele><time>2026-05-03T10:59:48.077Z</time></trkpt><trkpt lat="45.4220363" lon="11.5753822"><ele>33.75</ele><time>2026-05-03T10:59:49.076Z</time></trkpt><trkpt lat="45.4221668" lon="11.5754218"><ele>30.5</ele><time>2026-05-03T10:59:50.077Z</time></trkpt><trkpt lat="45.4222895" lon="11.5754597"><ele>27.25</ele><time>2026-05-03T10:59:51.077Z</time></trkpt><trkpt lat="45.4224067" lon="11.5754937"><ele>24.0</ele><time>2026-05-03T10:59:52.077Z</time></trkpt><trkpt lat="45.4225213" lon="11.575525"><ele>24.0</ele><time>2026-05-03T10:59:53.077Z</time></trkpt><trkpt lat="45.4226348" lon="11.5755653"><ele>24.0</ele><time>2026-05-03T10:59:54.077Z</time></trkpt><trkpt lat="45.4227417" lon="11.5756095"><ele>24.0</ele><time>2026-05-03T10:59:55.077Z</time></trkpt><trkpt lat="45.4228454" lon="11.5756562"><ele>24.0</ele><time>2026-05-03T10:59:56.077Z</time></trkpt><trkpt lat="45.4229507" lon="11.5757004"><ele>24.0</ele><time>2026-05-03T10:59:57.077Z</time></trkpt><trkpt lat="45.4230618" lon="11.5757403"><ele>23.5</ele><time>2026-05-03T10:59:58.077Z</time></trkpt><trkpt lat="45.4231795" lon="11.575771"><ele>23.0</ele><time>2026-05-03T10:59:59.076Z</time></trkpt><trkpt lat="45.4232987" lon="11.575786"><ele>22.5</ele><time>2026-05-03T11:00:00.077Z</time></trkpt><trkpt lat="45.4234207" lon="11.5757968"><ele>22.0</ele><time>2026-05-03T11:00:01.077Z</time></trkpt><trkpt lat="45.4235375" lon="11.5758002"><ele>22.0</ele><time>2026-05-03T11:00:02.077Z</time></trkpt><trkpt lat="45.4236487" lon="11.5757957"><ele>22.0</ele><time>2026-05-03T11:00:03.077Z</time></trkpt><trkpt lat="45.4237557" lon="11.5757993"><ele>22.0</ele><time>2026-05-03T11:00:04.077Z</time></trkpt><trkpt lat="45.4238653" lon="11.5758007"><ele>22.0</ele><time>2026-05-03T11:00:05.077Z</time></trkpt><trkpt lat="45.4239703" lon="11.5757987"><ele>22.0</ele><time>2026-05-03T11:00:06.077Z</time></trkpt><trkpt lat="45.4240668" lon="11.5757923"><ele>22.200000000000003</ele><time>2026-05-03T11:00:07.077Z</time></trkpt><trkpt lat="45.4241611" lon="11.5757622"><ele>22.4</ele><time>2026-05-03T11:00:08.077Z</time></trkpt><trkpt lat="45.4242575" lon="11.5757012"><ele>22.6</ele><time>2026-05-03T11:00:09.077Z</time></trkpt><trkpt lat="45.4243565" lon="11.5756227"><ele>22.799999999999997</ele><time>2026-05-03T11:00:10.077Z</time></trkpt><trkpt lat="45.4244647" lon="11.5755548"><ele>23.0</ele><time>2026-05-03T11:00:11.077Z</time></trkpt><trkpt lat="45.4245859" lon="11.5754991"><ele>22.5</ele><time>2026-05-03T11:00:12.077Z</time></trkpt><trkpt lat="45.4247105" lon="11.5754562"><ele>22.0</ele><time>2026-05-03T11:00:13.077Z</time></trkpt><trkpt lat="45.4248301" lon="11.5754305"><ele>21.5</ele><time>2026-05-03T11:00:14.077Z</time></trkpt><trkpt lat="45.4249434" lon="11.5754105"><ele>21.0</ele><time>2026-05-03T11:00:15.077Z</time></trkpt><trkpt lat="45.4250432" lon="11.5754085"><ele>21.0</ele><time>2026-05-03T11:00:16.077Z</time></trkpt><trkpt lat="45.4251339" lon="11.5754317"><ele>21.0</ele><time>2026-05-03T11:00:17.077Z</time></trkpt><trkpt lat="45.4252215" lon="11.5754811"><ele>21.0</ele><time>2026-05-03T11:00:18.077Z</time></trkpt><trkpt lat="45.425302" lon="11.5755568"><ele>21.0</ele><time>2026-05-03T11:00:19.077Z</time></trkpt><trkpt lat="45.4253773" lon="11.5756445"><ele>21.0</ele><time>2026-05-03T11:00:20.077Z</time></trkpt><trkpt lat="45.4254491" lon="11.5757333"><ele>21.6</ele><time>2026-05-03T11:00:21.076Z</time></trkpt><trkpt lat="45.4255197" lon="11.5758115"><ele>22.200000000000003</ele><time>2026-05-03T11:00:22.077Z</time></trkpt><trkpt lat="45.4255869" lon="11.5758749"><ele>22.799999999999997</ele><time>2026-05-03T11:00:23.077Z</time></trkpt><trkpt lat="45.4256471" lon="11.5759238"><ele>23.4</ele><time>2026-05-03T11:00:24.077Z</time></trkpt><trkpt lat="45.4257578" lon="11.57592"><ele>24.0</ele><time>2026-05-03T11:00:26.077Z</time></trkpt><trkpt lat="45.4258299" lon="11.5757454"><ele>24.0</ele><time>2026-05-03T11:00:28.077Z</time></trkpt><trkpt lat="45.4258785" lon="11.5756256"><ele>24.0</ele><time>2026-05-03T11:00:29.077Z</time></trkpt><trkpt lat="45.4259271" lon="11.5754905"><ele>24.0</ele><time>2026-05-03T11:00:30.077Z</time></trkpt><trkpt lat="45.4259812" lon="11.5753369"><ele>24.0</ele><time>2026-05-03T11:00:31.077Z</time></trkpt><trkpt lat="45.4260399" lon="11.5751769"><ele>25.5</ele><time>2026-05-03T11:00:32.077Z</time></trkpt><trkpt lat="45.4261029" lon="11.5750099"><ele>27.0</ele><time>2026-05-03T11:00:33.077Z</time></trkpt><trkpt lat="45.4261616" lon="11.5748475"><ele>28.5</ele><time>2026-05-03T11:00:34.077Z</time></trkpt><trkpt lat="45.4262199" lon="11.5746861"><ele>30.0</ele><time>2026-05-03T11:00:35.077Z</time></trkpt><trkpt lat="45.4262789" lon="11.5745147"><ele>28.75</ele><time>2026-05-03T11:00:36.077Z</time></trkpt><trkpt lat="45.426333" lon="11.5743321"><ele>27.5</ele><time>2026-05-03T11:00:37.077Z</time></trkpt><trkpt lat="45.4263779" lon="11.5741374"><ele>26.25</ele><time>2026-05-03T11:00:38.077Z</time></trkpt><trkpt lat="45.4264193" lon="11.5739361"><ele>25.0</ele><time>2026-05-03T11:00:39.077Z</time></trkpt><trkpt lat="45.4264606" lon="11.5737307"><ele>24.5</ele><time>2026-05-03T11:00:40.076Z</time></trkpt><trkpt lat="45.4265069" lon="11.5735272"><ele>24.0</ele><time>2026-05-03T11:00:41.077Z</time></trkpt><trkpt lat="45.4265553" lon="11.5733299"><ele>23.5</ele><time>2026-05-03T11:00:42.077Z</time></trkpt><trkpt lat="45.4266067" lon="11.5731416"><ele>23.0</ele><time>2026-05-03T11:00:43.077Z</time></trkpt><trkpt lat="45.4266596" lon="11.572962"><ele>25.25</ele><time>2026-05-03T11:00:44.077Z</time></trkpt><trkpt lat="45.4267114" lon="11.5727949"><ele>27.5</ele><time>2026-05-03T11:00:45.077Z</time></trkpt><trkpt lat="45.4267732" lon="11.5726561"><ele>29.75</ele><time>2026-05-03T11:00:46.077Z</time></trkpt><trkpt lat="45.4268484" lon="11.5725439"><ele>32.0</ele><time>2026-05-03T11:00:47.077Z</time></trkpt><trkpt lat="45.426946" lon="11.5724771"><ele>32.0</ele><time>2026-05-03T11:00:48.077Z</time></trkpt><trkpt lat="45.427051" lon="11.5724369"><ele>32.0</ele><time>2026-05-03T11:00:49.077Z</time></trkpt><trkpt lat="45.427167" lon="11.5724219"><ele>32.0</ele><time>2026-05-03T11:00:50.077Z</time></trkpt><trkpt lat="45.4272896" lon="11.5724329"><ele>32.0</ele><time>2026-05-03T11:00:51.077Z</time></trkpt><trkpt lat="45.4274122" lon="11.5724633"><ele>29.5</ele><time>2026-05-03T11:00:52.077Z</time></trkpt><trkpt lat="45.4275329" lon="11.5725154"><ele>27.0</ele><time>2026-05-03T11:00:53.077Z</time></trkpt><trkpt lat="45.4276492" lon="11.5725802"><ele>24.5</ele><time>2026-05-03T11:00:54.077Z</time></trkpt><trkpt lat="45.4277656" lon="11.5726497"><ele>22.0</ele><time>2026-05-03T11:00:55.077Z</time></trkpt><trkpt lat="45.4278882" lon="11.5727085"><ele>21.75</ele><time>2026-05-03T11:00:56.077Z</time></trkpt><trkpt lat="45.4280208" lon="11.5727587"><ele>21.5</ele><time>2026-05-03T11:00:57.077Z</time></trkpt><trkpt lat="45.4281574" lon="11.5728002"><ele>21.25</ele><time>2026-05-03T11:00:58.076Z</time></trkpt><trkpt lat="45.4282992" lon="11.572834"><ele>21.0</ele><time>2026-05-03T11:00:59.077Z</time></trkpt><trkpt lat="45.4284436" lon="11.5728854"><ele>20.333333333333332</ele><time>2026-05-03T11:01:00.077Z</time></trkpt><trkpt lat="45.4285843" lon="11.572975"><ele>19.666666666666664</ele><time>2026-05-03T11:01:01.077Z</time></trkpt><trkpt lat="45.4287244" lon="11.5730666"><ele>19.0</ele><time>2026-05-03T11:01:02.077Z</time></trkpt><trkpt lat="45.4288674" lon="11.5731532"><ele>19.0</ele><time>2026-05-03T11:01:03.077Z</time></trkpt><trkpt lat="45.4290149" lon="11.573224"><ele>19.0</ele><time>2026-05-03T11:01:04.077Z</time></trkpt><trkpt lat="45.4291696" lon="11.5732592"><ele>19.0</ele><time>2026-05-03T11:01:05.076Z</time></trkpt><trkpt lat="45.4293205" lon="11.5732592"><ele>19.0</ele><time>2026-05-03T11:01:06.077Z</time></trkpt><trkpt lat="45.4294698" lon="11.5732542"><ele>19.0</ele><time>2026-05-03T11:01:07.077Z</time></trkpt><trkpt lat="45.4296136" lon="11.5732753"><ele>19.0</ele><time>2026-05-03T11:01:08.077Z</time></trkpt><trkpt lat="45.4297424" lon="11.5733454"><ele>19.0</ele><time>2026-05-03T11:01:09.077Z</time></trkpt><trkpt lat="45.4298584" lon="11.5734434"><ele>19.75</ele><time>2026-05-03T11:01:10.077Z</time></trkpt><trkpt lat="45.4299656" lon="11.5735587"><ele>20.5</ele><time>2026-05-03T11:01:11.077Z</time></trkpt><trkpt lat="45.4300736" lon="11.5736784"><ele>21.25</ele><time>2026-05-03T11:01:12.077Z</time></trkpt><trkpt lat="45.4301823" lon="11.573794"><ele>22.0</ele><time>2026-05-03T11:01:13.077Z</time></trkpt><trkpt lat="45.4302918" lon="11.5739125"><ele>22.0</ele><time>2026-05-03T11:01:14.077Z</time></trkpt><trkpt lat="45.4304017" lon="11.5740265"><ele>22.0</ele><time>2026-05-03T11:01:15.077Z</time></trkpt><trkpt lat="45.4305102" lon="11.5741355"><ele>22.0</ele><time>2026-05-03T11:01:16.077Z</time></trkpt><trkpt lat="45.4306129" lon="11.5742583"><ele>22.0</ele><time>2026-05-03T11:01:17.077Z</time></trkpt><trkpt lat="45.4307097" lon="11.574399"><ele>22.0</ele><time>2026-05-03T11:01:18.077Z</time></trkpt><trkpt lat="45.4308087" lon="11.5745519"><ele>22.0</ele><time>2026-05-03T11:01:19.077Z</time></trkpt><trkpt lat="45.4309073" lon="11.5746991"><ele>22.0</ele><time>2026-05-03T11:01:20.077Z</time></trkpt><trkpt lat="45.4310003" lon="11.5748372"><ele>22.0</ele><time>2026-05-03T11:01:21.077Z</time></trkpt><trkpt lat="45.4310872" lon="11.5749702"><ele>22.0</ele><time>2026-05-03T11:01:22.077Z</time></trkpt><trkpt lat="45.4311776" lon="11.5750938"><ele>22.0</ele><time>2026-05-03T11:01:23.077Z</time></trkpt><trkpt lat="45.4312871" lon="11.5752012"><ele>22.0</ele><time>2026-05-03T11:01:24.077Z</time></trkpt><trkpt lat="45.4314091" lon="11.5752959"><ele>22.0</ele><time>2026-05-03T11:01:25.077Z</time></trkpt><trkpt lat="45.4315381" lon="11.5753882"><ele>22.333333333333332</ele><time>2026-05-03T11:01:26.077Z</time></trkpt><trkpt lat="45.4316733" lon="11.5754886"><ele>22.666666666666668</ele><time>2026-05-03T11:01:27.077Z</time></trkpt><trkpt lat="45.4318128" lon="11.5755897"><ele>23.0</ele><time>2026-05-03T11:01:28.077Z</time></trkpt><trkpt lat="45.4319524" lon="11.5756918"><ele>23.0</ele><time>2026-05-03T11:01:29.077Z</time></trkpt><trkpt lat="45.4320901" lon="11.575792"><ele>23.0</ele><time>2026-05-03T11:01:30.077Z</time></trkpt><trkpt lat="45.4322167" lon="11.5758951"><ele>23.0</ele><time>2026-05-03T11:01:31.077Z</time></trkpt><trkpt lat="45.4323351" lon="11.5759998"><ele>23.0</ele><time>2026-05-03T11:01:32.077Z</time></trkpt><trkpt lat="45.4324417" lon="11.5761054"><ele>22.75</ele><time>2026-05-03T11:01:33.077Z</time></trkpt><trkpt lat="45.4325446" lon="11.5762103"><ele>22.5</ele><time>2026-05-03T11:01:34.077Z</time></trkpt><trkpt lat="45.4326544" lon="11.5763148"><ele>22.25</ele><time>2026-05-03T11:01:35.077Z</time></trkpt><trkpt lat="45.4327631" lon="11.5764237"><ele>22.0</ele><time>2026-05-03T11:01:36.077Z</time></trkpt><trkpt lat="45.4328733" lon="11.5765351"><ele>22.25</ele><time>2026-05-03T11:01:37.077Z</time></trkpt><trkpt lat="45.4329856" lon="11.5766392"><ele>22.5</ele><time>2026-05-03T11:01:38.077Z</time></trkpt><trkpt lat="45.4331014" lon="11.5767332"><ele>22.75</ele><time>2026-05-03T11:01:39.077Z</time></trkpt><trkpt lat="45.43322" lon="11.5768109"><ele>23.0</ele><time>2026-05-03T11:01:40.077Z</time></trkpt><trkpt lat="45.433336" lon="11.5768769"><ele>23.0</ele><time>2026-05-03T11:01:41.077Z</time></trkpt><trkpt lat="45.4334401" lon="11.5769396"><ele>23.0</ele><time>2026-05-03T11:01:42.077Z</time></trkpt><trkpt lat="45.4335199" lon="11.5770219"><ele>23.0</ele><time>2026-05-03T11:01:43.077Z</time></trkpt><trkpt lat="45.433576" lon="11.577118"><ele>23.0</ele><time>2026-05-03T11:01:44.077Z</time></trkpt><trkpt lat="45.4336047" lon="11.5772369"><ele>23.0</ele><time>2026-05-03T11:01:45.076Z</time></trkpt><trkpt lat="45.4336056" lon="11.577363"><ele>23.0</ele><time>2026-05-03T11:01:46.077Z</time></trkpt><trkpt lat="45.4335952" lon="11.5774967"><ele>23.0</ele><time>2026-05-03T11:01:47.077Z</time></trkpt><trkpt lat="45.4335992" lon="11.5776284"><ele>23.0</ele><time>2026-05-03T11:01:48.077Z</time></trkpt><trkpt lat="45.4336099" lon="11.5777474"><ele>23.0</ele><time>2026-05-03T11:01:49.077Z</time></trkpt><trkpt lat="45.4336279" lon="11.5778673"><ele>23.0</ele><time>2026-05-03T11:01:50.077Z</time></trkpt><trkpt lat="45.4336652" lon="11.5779816"><ele>23.0</ele><time>2026-05-03T11:01:51.077Z</time></trkpt><trkpt lat="45.4337272" lon="11.5780786"><ele>23.599999999999998</ele><time>2026-05-03T11:01:52.077Z</time></trkpt><trkpt lat="45.4338071" lon="11.5781585"><ele>24.2</ele><time>2026-05-03T11:01:53.077Z</time></trkpt><trkpt lat="45.4338953" lon="11.5782408"><ele>24.8</ele><time>2026-05-03T11:01:54.077Z</time></trkpt><trkpt lat="45.4339835" lon="11.5783261"><ele>25.4</ele><time>2026-05-03T11:01:55.077Z</time></trkpt><trkpt lat="45.434076" lon="11.5784099"><ele>26.0</ele><time>2026-05-03T11:01:56.077Z</time></trkpt><trkpt lat="45.4341683" lon="11.578489"><ele>25.999999999999996</ele><time>2026-05-03T11:01:57.077Z</time></trkpt><trkpt lat="45.4342565" lon="11.578564"><ele>26.0</ele><time>2026-05-03T11:01:58.077Z</time></trkpt><trkpt lat="45.434341" lon="11.5786371"><ele>26.0</ele><time>2026-05-03T11:01:59.077Z</time></trkpt><trkpt lat="45.4344201" lon="11.5787051"><ele>26.0</ele><time>2026-05-03T11:02:00.077Z</time></trkpt><trkpt lat="45.4344929" lon="11.5787604"><ele>25.999999999999996</ele><time>2026-05-03T11:02:01.077Z</time></trkpt><trkpt lat="45.4345472" lon="11.5788069"><ele>26.0</ele><time>2026-05-03T11:02:02.077Z</time></trkpt><trkpt lat="45.4346057" lon="11.5789214"><ele>26.333333333333332</ele><time>2026-05-03T11:02:04.077Z</time></trkpt><trkpt lat="45.4345742" lon="11.5790763"><ele>26.666666666666664</ele><time>2026-05-03T11:02:06.077Z</time></trkpt><trkpt lat="45.434544" lon="11.5791623"><ele>27.0</ele><time>2026-05-03T11:02:07.077Z</time></trkpt><trkpt lat="45.4345215" lon="11.5792492"><ele>27.333333333333336</ele><time>2026-05-03T11:02:08.076Z</time></trkpt><trkpt lat="45.4345077" lon="11.5793428"><ele>27.666666666666668</ele><time>2026-05-03T11:02:09.077Z</time></trkpt><trkpt lat="45.4344964" lon="11.5794456"><ele>28.0</ele><time>2026-05-03T11:02:10.077Z</time></trkpt><trkpt lat="45.4344875" lon="11.5795545"><ele>28.833333333333336</ele><time>2026-05-03T11:02:11.077Z</time></trkpt><trkpt lat="45.4344849" lon="11.5796647"><ele>29.666666666666668</ele><time>2026-05-03T11:02:12.077Z</time></trkpt><trkpt lat="45.4344873" lon="11.5797739"><ele>30.5</ele><time>2026-05-03T11:02:13.077Z</time></trkpt><trkpt lat="45.4344891" lon="11.5798672"><ele>31.333333333333336</ele><time>2026-05-03T11:02:14.077Z</time></trkpt><trkpt lat="45.4344986" lon="11.5800086"><ele>32.166666666666664</ele><time>2026-05-03T11:02:16.077Z</time></trkpt><trkpt lat="45.434556" lon="11.5801054"><ele>33.0</ele><time>2026-05-03T11:02:20.077Z</time></trkpt><trkpt lat="45.4346552" lon="11.5801065"><ele>34.857142857142854</ele><time>2026-05-03T11:02:22.077Z</time></trkpt><trkpt lat="45.4347187" lon="11.5800716"><ele>36.714285714285715</ele><time>2026-05-03T11:02:23.077Z</time></trkpt><trkpt lat="45.4347764" lon="11.5800104"><ele>38.57142857142857</ele><time>2026-05-03T11:02:24.077Z</time></trkpt><trkpt lat="45.4348215" lon="11.5799294"><ele>40.42857142857143</ele><time>2026-05-03T11:02:25.077Z</time></trkpt><trkpt lat="45.4348594" lon="11.5798414"><ele>42.285714285714285</ele><time>2026-05-03T11:02:26.077Z</time></trkpt><trkpt lat="45.434896" lon="11.5797439"><ele>44.142857142857146</ele><time>2026-05-03T11:02:27.077Z</time></trkpt><trkpt lat="45.4349366" lon="11.5796345"><ele>46.0</ele><time>2026-05-03T11:02:28.077Z</time></trkpt><trkpt lat="45.4349782" lon="11.579518"><ele>45.16666666666667</ele><time>2026-05-03T11:02:29.077Z</time></trkpt><trkpt lat="45.4350208" lon="11.5794016"><ele>44.333333333333336</ele><time>2026-05-03T11:02:30.077Z</time></trkpt><trkpt lat="45.43506" lon="11.5792862"><ele>43.5</ele><time>2026-05-03T11:02:31.077Z</time></trkpt><trkpt lat="45.4350986" lon="11.5791713"><ele>42.666666666666664</ele><time>2026-05-03T11:02:32.077Z</time></trkpt><trkpt lat="45.4351391" lon="11.5790685"><ele>41.83333333333333</ele><time>2026-05-03T11:02:33.077Z</time></trkpt><trkpt lat="45.4351722" lon="11.5789646"><ele>41.0</ele><time>2026-05-03T11:02:34.077Z</time></trkpt><trkpt lat="45.4352085" lon="11.5788602"><ele>41.0</ele><time>2026-05-03T11:02:35.077Z</time></trkpt><trkpt lat="45.4352462" lon="11.5787543"><ele>41.0</ele><time>2026-05-03T11:02:36.077Z</time></trkpt><trkpt lat="45.4352828" lon="11.578642"><ele>41.0</ele><time>2026-05-03T11:02:37.077Z</time></trkpt><trkpt lat="45.4353136" lon="11.5785192"><ele>41.0</ele><time>2026-05-03T11:02:38.077Z</time></trkpt><trkpt lat="45.4353353" lon="11.5783897"><ele>41.0</ele><time>2026-05-03T11:02:39.077Z</time></trkpt><trkpt lat="45.4353528" lon="11.5782577"><ele>41.0</ele><time>2026-05-03T11:02:40.077Z</time></trkpt><trkpt lat="45.4353699" lon="11.5781262"><ele>40.33333333333333</ele><time>2026-05-03T11:02:41.077Z</time></trkpt><trkpt lat="45.4353884" lon="11.577997"><ele>39.666666666666664</ele><time>2026-05-03T11:02:42.077Z</time></trkpt><trkpt lat="45.4354106" lon="11.5778697"><ele>39.0</ele><time>2026-05-03T11:02:43.077Z</time></trkpt><trkpt lat="45.4354444" lon="11.5777621"><ele>38.333333333333336</ele><time>2026-05-03T11:02:44.077Z</time></trkpt><trkpt lat="45.4354896" lon="11.5776729"><ele>37.66666666666667</ele><time>2026-05-03T11:02:45.077Z</time></trkpt><trkpt lat="45.435535" lon="11.5775997"><ele>37.0</ele><time>2026-05-03T11:02:46.077Z</time></trkpt><trkpt lat="45.4355797" lon="11.5775354"><ele>41.6</ele><time>2026-05-03T11:02:47.077Z</time></trkpt><trkpt lat="45.4356499" lon="11.5774363"><ele>46.2</ele><time>2026-05-03T11:02:49.077Z</time></trkpt><trkpt lat="45.4357047" lon="11.577368"><ele>50.8</ele><time>2026-05-03T11:02:51.077Z</time></trkpt><trkpt lat="45.4357966" lon="11.5773202"><ele>55.4</ele><time>2026-05-03T11:02:54.077Z</time></trkpt><trkpt lat="45.4359363" lon="11.5773217"><ele>60.0</ele><time>2026-05-03T11:02:56.077Z</time></trkpt><trkpt lat="45.4360194" lon="11.5773364"><ele>60.0</ele><time>2026-05-03T11:02:57.077Z</time></trkpt><trkpt lat="45.4361019" lon="11.5773544"><ele>60.0</ele><time>2026-05-03T11:02:58.077Z</time></trkpt><trkpt lat="45.4361916" lon="11.5773647"><ele>60.0</ele><time>2026-05-03T11:02:59.077Z</time></trkpt><trkpt lat="45.4362801" lon="11.5773634"><ele>60.0</ele><time>2026-05-03T11:03:00.077Z</time></trkpt><trkpt lat="45.4363688" lon="11.5773412"><ele>60.0</ele><time>2026-05-03T11:03:01.077Z</time></trkpt><trkpt lat="45.4364596" lon="11.5773127"><ele>60.0</ele><time>2026-05-03T11:03:02.077Z</time></trkpt><trkpt lat="45.4365534" lon="11.5772854"><ele>61.2</ele><time>2026-05-03T11:03:03.077Z</time></trkpt><trkpt lat="45.436648" lon="11.5772483"><ele>62.4</ele><time>2026-05-03T11:03:04.077Z</time></trkpt><trkpt lat="45.4367483" lon="11.5771982"><ele>63.599999999999994</ele><time>2026-05-03T11:03:05.077Z</time></trkpt><trkpt lat="45.436849" lon="11.5771398"><ele>64.8</ele><time>2026-05-03T11:03:06.077Z</time></trkpt><trkpt lat="45.4369539" lon="11.5770813"><ele>66.0</ele><time>2026-05-03T11:03:07.077Z</time></trkpt><trkpt lat="45.4370656" lon="11.577023"><ele>67.5</ele><time>2026-05-03T11:03:08.077Z</time></trkpt><trkpt lat="45.437182" lon="11.576968"><ele>69.0</ele><time>2026-05-03T11:03:09.077Z</time></trkpt><trkpt lat="45.4373047" lon="11.5769126"><ele>70.5</ele><time>2026-05-03T11:03:10.077Z</time></trkpt><trkpt lat="45.4374225" lon="11.5768699"><ele>72.0</ele><time>2026-05-03T11:03:11.077Z</time></trkpt><trkpt lat="45.4375371" lon="11.5768444"><ele>72.0</ele><time>2026-05-03T11:03:12.077Z</time></trkpt><trkpt lat="45.4376486" lon="11.5768296"><ele>72.0</ele><time>2026-05-03T11:03:13.077Z</time></trkpt><trkpt lat="45.4377611" lon="11.5768205"><ele>72.0</ele><time>2026-05-03T11:03:14.077Z</time></trkpt><trkpt lat="45.437876" lon="11.5768274"><ele>72.0</ele><time>2026-05-03T11:03:15.077Z</time></trkpt><trkpt lat="45.4379923" lon="11.5768488"><ele>75.0</ele><time>2026-05-03T11:03:16.077Z</time></trkpt><trkpt lat="45.4381109" lon="11.576871"><ele>78.0</ele><time>2026-05-03T11:03:17.077Z</time></trkpt><trkpt lat="45.4382314" lon="11.5768911"><ele>81.0</ele><time>2026-05-03T11:03:18.077Z</time></trkpt><trkpt lat="45.4383516" lon="11.576895"><ele>84.0</ele><time>2026-05-03T11:03:19.077Z</time></trkpt><trkpt lat="45.4384716" lon="11.5768789"><ele>84.0</ele><time>2026-05-03T11:03:20.077Z</time></trkpt><trkpt lat="45.438588" lon="11.5768517"><ele>84.0</ele><time>2026-05-03T11:03:21.077Z</time></trkpt><trkpt lat="45.4386969" lon="11.5768245"><ele>84.0</ele><time>2026-05-03T11:03:22.077Z</time></trkpt><trkpt lat="45.4388019" lon="11.5767898"><ele>84.0</ele><time>2026-05-03T11:03:23.077Z</time></trkpt><trkpt lat="45.4389006" lon="11.5767264"><ele>84.0</ele><time>2026-05-03T11:03:24.077Z</time></trkpt><trkpt lat="45.4389866" lon="11.5766371"><ele>85.0</ele><time>2026-05-03T11:03:25.077Z</time></trkpt><trkpt lat="45.4390561" lon="11.5765346"><ele>86.0</ele><time>2026-05-03T11:03:26.077Z</time></trkpt><trkpt lat="45.4391142" lon="11.5764331"><ele>87.0</ele><time>2026-05-03T11:03:27.077Z</time></trkpt><trkpt lat="45.4391699" lon="11.5763326"><ele>88.0</ele><time>2026-05-03T11:03:28.077Z</time></trkpt><trkpt lat="45.4392189" lon="11.5762291"><ele>89.0</ele><time>2026-05-03T11:03:29.077Z</time></trkpt><trkpt lat="45.4392558" lon="11.5761211"><ele>90.6</ele><time>2026-05-03T11:03:30.077Z</time></trkpt><trkpt lat="45.4392801" lon="11.576002"><ele>92.2</ele><time>2026-05-03T11:03:31.077Z</time></trkpt><trkpt lat="45.4392873" lon="11.5758766"><ele>93.8</ele><time>2026-05-03T11:03:32.077Z</time></trkpt><trkpt lat="45.4392787" lon="11.5757437"><ele>95.39999999999999</ele><time>2026-05-03T11:03:33.077Z</time></trkpt><trkpt lat="45.4392499" lon="11.5756078"><ele>97.0</ele><time>2026-05-03T11:03:34.077Z</time></trkpt><trkpt lat="45.4392027" lon="11.5754728"><ele>99.25</ele><time>2026-05-03T11:03:35.077Z</time></trkpt><trkpt lat="45.4391468" lon="11.5753346"><ele>101.5</ele><time>2026-05-03T11:03:36.076Z</time></trkpt><trkpt lat="45.4390932" lon="11.5751929"><ele>103.75</ele><time>2026-05-03T11:03:37.076Z</time></trkpt><trkpt lat="45.4390476" lon="11.5750438"><ele>106.0</ele><time>2026-05-03T11:03:38.077Z</time></trkpt><trkpt lat="45.4390118" lon="11.5748879"><ele>106.0</ele><time>2026-05-03T11:03:39.077Z</time></trkpt><trkpt lat="45.4389823" lon="11.5747305"><ele>106.0</ele><time>2026-05-03T11:03:40.077Z</time></trkpt><trkpt lat="45.4389528" lon="11.5745701"><ele>106.0</ele><time>2026-05-03T11:03:41.077Z</time></trkpt><trkpt lat="45.4389213" lon="11.574412"><ele>106.0</ele><time>2026-05-03T11:03:42.077Z</time></trkpt><trkpt lat="45.4388786" lon="11.5742617"><ele>105.6</ele><time>2026-05-03T11:03:43.077Z</time></trkpt><trkpt lat="45.4388221" lon="11.5741191"><ele>105.19999999999999</ele><time>2026-05-03T11:03:44.077Z</time></trkpt><trkpt lat="45.4387634" lon="11.5739846"><ele>104.80000000000001</ele><time>2026-05-03T11:03:45.077Z</time></trkpt><trkpt lat="45.4387038" lon="11.5738552"><ele>104.4</ele><time>2026-05-03T11:03:46.077Z</time></trkpt><trkpt lat="45.4386534" lon="11.5737152"><ele>104.0</ele><time>2026-05-03T11:03:47.077Z</time></trkpt><trkpt lat="45.4386142" lon="11.5735746"><ele>106.0</ele><time>2026-05-03T11:03:48.077Z</time></trkpt><trkpt lat="45.4385879" lon="11.5734271"><ele>108.0</ele><time>2026-05-03T11:03:49.077Z</time></trkpt><trkpt lat="45.4385765" lon="11.573277"><ele>110.0</ele><time>2026-05-03T11:03:50.077Z</time></trkpt><trkpt lat="45.4385781" lon="11.5731172"><ele>112.0</ele><time>2026-05-03T11:03:51.077Z</time></trkpt><trkpt lat="45.438583" lon="11.5729511"><ele>114.0</ele><time>2026-05-03T11:03:52.077Z</time></trkpt><trkpt lat="45.4385908" lon="11.5727806"><ele>114.0</ele><time>2026-05-03T11:03:53.077Z</time></trkpt><trkpt lat="45.4385973" lon="11.5726012"><ele>114.0</ele><time>2026-05-03T11:03:54.077Z</time></trkpt><trkpt lat="45.4386045" lon="11.5724166"><ele>114.0</ele><time>2026-05-03T11:03:55.077Z</time></trkpt><trkpt lat="45.4386151" lon="11.5722424"><ele>114.0</ele><time>2026-05-03T11:03:56.077Z</time></trkpt><trkpt lat="45.438628" lon="11.5720703"><ele>114.75</ele><time>2026-05-03T11:03:57.077Z</time></trkpt><trkpt lat="45.4386399" lon="11.5719023"><ele>115.5</ele><time>2026-05-03T11:03:58.077Z</time></trkpt><trkpt lat="45.4386446" lon="11.5717264"><ele>116.25</ele><time>2026-05-03T11:03:59.077Z</time></trkpt><trkpt lat="45.4386369" lon="11.5715449"><ele>117.0</ele><time>2026-05-03T11:04:00.077Z</time></trkpt><trkpt lat="45.4386136" lon="11.5713652"><ele>118.75</ele><time>2026-05-03T11:04:01.077Z</time></trkpt><trkpt lat="45.4385765" lon="11.571186"><ele>120.5</ele><time>2026-05-03T11:04:02.076Z</time></trkpt><trkpt lat="45.4385416" lon="11.5710011"><ele>122.25</ele><time>2026-05-03T11:04:03.077Z</time></trkpt><trkpt lat="45.4385051" lon="11.5708153"><ele>124.0</ele><time>2026-05-03T11:04:04.077Z</time></trkpt><trkpt lat="45.438473" lon="11.570628"><ele>124.0</ele><time>2026-05-03T11:04:05.077Z</time></trkpt><trkpt lat="45.4384496" lon="11.5704392"><ele>124.0</ele><time>2026-05-03T11:04:06.077Z</time></trkpt><trkpt lat="45.4384378" lon="11.5702498"><ele>124.0</ele><time>2026-05-03T11:04:07.077Z</time></trkpt><trkpt lat="45.438438" lon="11.5700532"><ele>124.0</ele><time>2026-05-03T11:04:08.077Z</time></trkpt><trkpt lat="45.4384455" lon="11.5698526"><ele>126.0</ele><time>2026-05-03T11:04:09.077Z</time></trkpt><trkpt lat="45.4384545" lon="11.5696534"><ele>128.0</ele><time>2026-05-03T11:04:10.077Z</time></trkpt><trkpt lat="45.4384524" lon="11.5694568"><ele>130.0</ele><time>2026-05-03T11:04:11.077Z</time></trkpt><trkpt lat="45.4384378" lon="11.5692573"><ele>132.0</ele><time>2026-05-03T11:04:12.077Z</time></trkpt><trkpt lat="45.438427" lon="11.5690572"><ele>133.5</ele><time>2026-05-03T11:04:13.077Z</time></trkpt><trkpt lat="45.4384228" lon="11.568858"><ele>135.0</ele><time>2026-05-03T11:04:14.077Z</time></trkpt><trkpt lat="45.4384169" lon="11.5686606"><ele>136.5</ele><time>2026-05-03T11:04:15.076Z</time></trkpt><trkpt lat="45.4383955" lon="11.5684584"><ele>138.0</ele><time>2026-05-03T11:04:16.077Z</time></trkpt><trkpt lat="45.4383615" lon="11.5682543"><ele>141.33333333333334</ele><time>2026-05-03T11:04:17.077Z</time></trkpt><trkpt lat="45.4383218" lon="11.5680511"><ele>144.66666666666669</ele><time>2026-05-03T11:04:18.077Z</time></trkpt><trkpt lat="45.4382755" lon="11.567847"><ele>148.0</ele><time>2026-05-03T11:04:19.077Z</time></trkpt><trkpt lat="45.4382297" lon="11.5676418"><ele>153.33333333333334</ele><time>2026-05-03T11:04:20.077Z</time></trkpt><trkpt lat="45.438186" lon="11.5674344"><ele>158.66666666666666</ele><time>2026-05-03T11:04:21.077Z</time></trkpt><trkpt lat="45.4381465" lon="11.5672206"><ele>164.0</ele><time>2026-05-03T11:04:22.077Z</time></trkpt><trkpt lat="45.4381085" lon="11.5669985"><ele>169.66666666666666</ele><time>2026-05-03T11:04:23.077Z</time></trkpt><trkpt lat="45.4380718" lon="11.5667776"><ele>175.33333333333334</ele><time>2026-05-03T11:04:24.077Z</time></trkpt><trkpt lat="45.4380367" lon="11.5665521"><ele>181.0</ele><time>2026-05-03T11:04:25.077Z</time></trkpt><trkpt lat="45.4379975" lon="11.5663311"><ele>177.5</ele><time>2026-05-03T11:04:26.077Z</time></trkpt><trkpt lat="45.4379612" lon="11.5661146"><ele>174.0</ele><time>2026-05-03T11:04:27.077Z</time></trkpt><trkpt lat="45.4379283" lon="11.5659193"><ele>170.5</ele><time>2026-05-03T11:04:28.077Z</time></trkpt><trkpt lat="45.4378954" lon="11.5657465"><ele>167.0</ele><time>2026-05-03T11:04:29.077Z</time></trkpt><trkpt lat="45.4378597" lon="11.5655921"><ele>167.0</ele><time>2026-05-03T11:04:30.077Z</time></trkpt><trkpt lat="45.4378191" lon="11.565451"><ele>167.0</ele><time>2026-05-03T11:04:31.077Z</time></trkpt><trkpt lat="45.4377772" lon="11.5653346"><ele>167.0</ele><time>2026-05-03T11:04:32.077Z</time></trkpt><trkpt lat="45.4377216" lon="11.565241"><ele>167.0</ele><time>2026-05-03T11:04:33.077Z</time></trkpt><trkpt lat="45.4376417" lon="11.5651886"><ele>167.0</ele><time>2026-05-03T11:04:34.077Z</time></trkpt><trkpt lat="45.4375555" lon="11.5651676"><ele>171.5</ele><time>2026-05-03T11:04:35.077Z</time></trkpt><trkpt lat="45.4374536" lon="11.5651757"><ele>176.0</ele><time>2026-05-03T11:04:36.077Z</time></trkpt><trkpt lat="45.4373427" lon="11.5651867"><ele>180.5</ele><time>2026-05-03T11:04:37.077Z</time></trkpt><trkpt lat="45.4372261" lon="11.5652025"><ele>185.0</ele><time>2026-05-03T11:04:38.077Z</time></trkpt><trkpt lat="45.4371052" lon="11.5652243"><ele>185.5</ele><time>2026-05-03T11:04:39.077Z</time></trkpt><trkpt lat="45.4369887" lon="11.5652627"><ele>186.0</ele><time>2026-05-03T11:04:40.077Z</time></trkpt><trkpt lat="45.4368757" lon="11.565328"><ele>186.5</ele><time>2026-05-03T11:04:41.077Z</time></trkpt><trkpt lat="45.4367766" lon="11.565428"><ele>187.0</ele><time>2026-05-03T11:04:42.077Z</time></trkpt><trkpt lat="45.4366902" lon="11.565559"><ele>187.0</ele><time>2026-05-03T11:04:43.077Z</time></trkpt><trkpt lat="45.4366101" lon="11.5657007"><ele>187.0</ele><time>2026-05-03T11:04:44.077Z</time></trkpt><trkpt lat="45.436537" lon="11.5658496"><ele>187.0</ele><time>2026-05-03T11:04:45.076Z</time></trkpt><trkpt lat="45.4364718" lon="11.566004"><ele>187.0</ele><time>2026-05-03T11:04:46.077Z</time></trkpt><trkpt lat="45.4364099" lon="11.566162"><ele>183.5</ele><time>2026-05-03T11:04:47.077Z</time></trkpt><trkpt lat="45.4363478" lon="11.5663212"><ele>180.0</ele><time>2026-05-03T11:04:48.077Z</time></trkpt><trkpt lat="45.436284" lon="11.5664846"><ele>176.5</ele><time>2026-05-03T11:04:49.077Z</time></trkpt><trkpt lat="45.4362141" lon="11.566651"><ele>173.0</ele><time>2026-05-03T11:04:50.076Z</time></trkpt><trkpt lat="45.4361348" lon="11.566817"><ele>179.66666666666666</ele><time>2026-05-03T11:04:51.077Z</time></trkpt><trkpt lat="45.4360446" lon="11.5669835"><ele>186.33333333333331</ele><time>2026-05-03T11:04:52.077Z</time></trkpt><trkpt lat="45.4359412" lon="11.5671441"><ele>193.0</ele><time>2026-05-03T11:04:53.077Z</time></trkpt><trkpt lat="45.4358241" lon="11.5672803"><ele>193.0</ele><time>2026-05-03T11:04:54.077Z</time></trkpt><trkpt lat="45.4356951" lon="11.5673864"><ele>193.0</ele><time>2026-05-03T11:04:55.077Z</time></trkpt><trkpt lat="45.4355807" lon="11.5674613"><ele>193.0</ele><time>2026-05-03T11:04:56.077Z</time></trkpt><trkpt lat="45.4354861" lon="11.5675094"><ele>193.0</ele><time>2026-05-03T11:04:57.077Z</time></trkpt><trkpt lat="45.4354186" lon="11.5675093"><ele>193.0</ele><time>2026-05-03T11:04:58.077Z</time></trkpt><trkpt lat="45.4353681" lon="11.5673936"><ele>192.99999999999997</ele><time>2026-05-03T11:05:00.077Z</time></trkpt><trkpt lat="45.4354412" lon="11.5672732"><ele>193.0</ele><time>2026-05-03T11:05:02.077Z</time></trkpt><trkpt lat="45.4355083" lon="11.5672473"><ele>193.0</ele><time>2026-05-03T11:05:03.077Z</time></trkpt><trkpt lat="45.4355772" lon="11.5672241"><ele>193.0</ele><time>2026-05-03T11:05:04.077Z</time></trkpt><trkpt lat="45.4356381" lon="11.5671785"><ele>192.99999999999997</ele><time>2026-05-03T11:05:05.077Z</time></trkpt><trkpt lat="45.4356688" lon="11.5670354"><ele>193.0</ele><time>2026-05-03T11:05:07.077Z</time></trkpt><trkpt lat="45.4355698" lon="11.5669643"><ele>195.49999999999997</ele><time>2026-05-03T11:05:09.077Z</time></trkpt><trkpt lat="45.4354989" lon="11.5669552"><ele>198.0</ele><time>2026-05-03T11:05:10.077Z</time></trkpt><trkpt lat="45.4354272" lon="11.5669252"><ele>200.5</ele><time>2026-05-03T11:05:11.077Z</time></trkpt><trkpt lat="45.4353557" lon="11.5668765"><ele>203.0</ele><time>2026-05-03T11:05:12.077Z</time></trkpt><trkpt lat="45.435286" lon="11.5668093"><ele>205.49999999999997</ele><time>2026-05-03T11:05:13.077Z</time></trkpt><trkpt lat="45.4352299" lon="11.5667208"><ele>208.0</ele><time>2026-05-03T11:05:14.077Z</time></trkpt><trkpt lat="45.4351786" lon="11.5666238"><ele>208.2</ele><time>2026-05-03T11:05:15.077Z</time></trkpt><trkpt lat="45.4351258" lon="11.5665203"><ele>208.4</ele><time>2026-05-03T11:05:16.077Z</time></trkpt><trkpt lat="45.4350667" lon="11.5664189"><ele>208.6</ele><time>2026-05-03T11:05:17.077Z</time></trkpt><trkpt lat="45.4349952" lon="11.5663294"><ele>208.79999999999998</ele><time>2026-05-03T11:05:18.077Z</time></trkpt><trkpt lat="45.4349125" lon="11.5662502"><ele>209.0</ele><time>2026-05-03T11:05:19.077Z</time></trkpt><trkpt lat="45.4348271" lon="11.5661765"><ele>211.0</ele><time>2026-05-03T11:05:20.077Z</time></trkpt><trkpt lat="45.4347405" lon="11.5661059"><ele>213.0</ele><time>2026-05-03T11:05:21.077Z</time></trkpt><trkpt lat="45.4346586" lon="11.5660346"><ele>214.99999999999997</ele><time>2026-05-03T11:05:22.077Z</time></trkpt><trkpt lat="45.4345731" lon="11.565964"><ele>217.0</ele><time>2026-05-03T11:05:23.077Z</time></trkpt><trkpt lat="45.4344898" lon="11.5658952"><ele>219.0</ele><time>2026-05-03T11:05:24.077Z</time></trkpt><trkpt lat="45.4344078" lon="11.5658248"><ele>219.0</ele><time>2026-05-03T11:05:25.077Z</time></trkpt><trkpt lat="45.4343233" lon="11.5657555"><ele>218.99999999999997</ele><time>2026-05-03T11:05:26.077Z</time></trkpt><trkpt lat="45.4342387" lon="11.5656879"><ele>218.99999999999997</ele><time>2026-05-03T11:05:27.077Z</time></trkpt><trkpt lat="45.434162" lon="11.5656165"><ele>219.0</ele><time>2026-05-03T11:05:28.077Z</time></trkpt><trkpt lat="45.4340953" lon="11.5655323"><ele>219.0</ele><time>2026-05-03T11:05:29.077Z</time></trkpt><trkpt lat="45.4340514" lon="11.5654261"><ele>222.2</ele><time>2026-05-03T11:05:30.077Z</time></trkpt><trkpt lat="45.4340349" lon="11.5653019"><ele>225.39999999999998</ele><time>2026-05-03T11:05:31.077Z</time></trkpt><trkpt lat="45.4340376" lon="11.5651723"><ele>228.6</ele><time>2026-05-03T11:05:32.077Z</time></trkpt><trkpt lat="45.4340549" lon="11.5650402"><ele>231.8</ele><time>2026-05-03T11:05:33.076Z</time></trkpt><trkpt lat="45.43409" lon="11.5649093"><ele>235.0</ele><time>2026-05-03T11:05:34.077Z</time></trkpt><trkpt lat="45.4341338" lon="11.5647718"><ele>235.0</ele><time>2026-05-03T11:05:35.077Z</time></trkpt><trkpt lat="45.4341882" lon="11.5645942"><ele>235.0</ele><time>2026-05-03T11:05:36.077Z</time></trkpt><trkpt lat="45.4342709" lon="11.5643965"><ele>235.0</ele><time>2026-05-03T11:05:37.077Z</time></trkpt><trkpt lat="45.4343776" lon="11.5641914"><ele>235.33333333333331</ele><time>2026-05-03T11:05:38.077Z</time></trkpt><trkpt lat="45.4344966" lon="11.5639629"><ele>235.66666666666669</ele><time>2026-05-03T11:05:39.077Z</time></trkpt><trkpt lat="45.4346177" lon="11.5637118"><ele>236.0</ele><time>2026-05-03T11:05:40.077Z</time></trkpt><trkpt lat="45.4347371" lon="11.5634412"><ele>242.33333333333334</ele><time>2026-05-03T11:05:41.076Z</time></trkpt><trkpt lat="45.4348437" lon="11.5631659"><ele>248.66666666666669</ele><time>2026-05-03T11:05:42.077Z</time></trkpt><trkpt lat="45.4349228" lon="11.5629095"><ele>255.0</ele><time>2026-05-03T11:05:43.077Z</time></trkpt><trkpt lat="45.4349974" lon="11.5626759"><ele>255.0</ele><time>2026-05-03T11:05:44.077Z</time></trkpt><trkpt lat="45.4350844" lon="11.5624599"><ele>255.0</ele><time>2026-05-03T11:05:45.077Z</time></trkpt><trkpt lat="45.4351995" lon="11.5622533"><ele>255.0</ele><time>2026-05-03T11:05:46.077Z</time></trkpt><trkpt lat="45.4353348" lon="11.5620673"><ele>251.33333333333331</ele><time>2026-05-03T11:05:47.076Z</time></trkpt><trkpt lat="45.435465" lon="11.5618848"><ele>247.66666666666666</ele><time>2026-05-03T11:05:48.077Z</time></trkpt><trkpt lat="45.4355665" lon="11.5616809"><ele>244.0</ele><time>2026-05-03T11:05:49.077Z</time></trkpt><trkpt lat="45.4356573" lon="11.5614714"><ele>253.66666666666666</ele><time>2026-05-03T11:05:50.077Z</time></trkpt><trkpt lat="45.435736" lon="11.561266"><ele>263.3333333333333</ele><time>2026-05-03T11:05:51.077Z</time></trkpt><trkpt lat="45.4357971" lon="11.5610477"><ele>273.0</ele><time>2026-05-03T11:05:52.077Z</time></trkpt><trkpt lat="45.4358444" lon="11.5608193"><ele>273.0</ele><time>2026-05-03T11:05:53.077Z</time></trkpt><trkpt lat="45.4358901" lon="11.5605822"><ele>273.0</ele><time>2026-05-03T11:05:54.077Z</time></trkpt><trkpt lat="45.4359336" lon="11.5603371"><ele>273.0</ele><time>2026-05-03T11:05:55.077Z</time></trkpt><trkpt lat="45.4359713" lon="11.5600854"><ele>271.3333333333333</ele><time>2026-05-03T11:05:56.077Z</time></trkpt><trkpt lat="45.4360073" lon="11.5598277"><ele>269.66666666666663</ele><time>2026-05-03T11:05:57.077Z</time></trkpt><trkpt lat="45.4360517" lon="11.5595699"><ele>268.0</ele><time>2026-05-03T11:05:58.077Z</time></trkpt><trkpt lat="45.4361089" lon="11.5593302"><ele>265.66666666666663</ele><time>2026-05-03T11:05:59.077Z</time></trkpt><trkpt lat="45.4361696" lon="11.5591023"><ele>263.3333333333333</ele><time>2026-05-03T11:06:00.076Z</time></trkpt><trkpt lat="45.4362299" lon="11.5588842"><ele>261.0</ele><time>2026-05-03T11:06:01.077Z</time></trkpt><trkpt lat="45.4362957" lon="11.558684"><ele>269.75</ele><time>2026-05-03T11:06:02.077Z</time></trkpt><trkpt lat="45.4363702" lon="11.5585055"><ele>278.5</ele><time>2026-05-03T11:06:03.077Z</time></trkpt><trkpt lat="45.4364545" lon="11.5583495"><ele>287.25</ele><time>2026-05-03T11:06:04.077Z</time></trkpt><trkpt lat="45.4365523" lon="11.5582161"><ele>296.0</ele><time>2026-05-03T11:06:05.077Z</time></trkpt><trkpt lat="45.4366626" lon="11.5580972"><ele>296.0</ele><time>2026-05-03T11:06:06.077Z</time></trkpt><trkpt lat="45.4367773" lon="11.5579853"><ele>296.0</ele><time>2026-05-03T11:06:07.077Z</time></trkpt><trkpt lat="45.4368948" lon="11.5578737"><ele>296.0</ele><time>2026-05-03T11:06:08.077Z</time></trkpt><trkpt lat="45.4370163" lon="11.5577709"><ele>296.0</ele><time>2026-05-03T11:06:09.077Z</time></trkpt><trkpt lat="45.4371309" lon="11.5576738"><ele>298.75</ele><time>2026-05-03T11:06:10.077Z</time></trkpt><trkpt lat="45.4372413" lon="11.5575846"><ele>301.5</ele><time>2026-05-03T11:06:11.076Z</time></trkpt><trkpt lat="45.4373432" lon="11.5575041"><ele>304.25</ele><time>2026-05-03T11:06:12.077Z</time></trkpt><trkpt lat="45.43744" lon="11.557426"><ele>307.0</ele><time>2026-05-03T11:06:13.077Z</time></trkpt><trkpt lat="45.437536" lon="11.5573554"><ele>307.0</ele><time>2026-05-03T11:06:14.077Z</time></trkpt><trkpt lat="45.4376402" lon="11.5573034"><ele>307.0</ele><time>2026-05-03T11:06:15.077Z</time></trkpt><trkpt lat="45.4377469" lon="11.5572883"><ele>307.0</ele><time>2026-05-03T11:06:16.077Z</time></trkpt><trkpt lat="45.4378475" lon="11.5573169"><ele>307.0</ele><time>2026-05-03T11:06:17.077Z</time></trkpt><trkpt lat="45.4379455" lon="11.55737"><ele>307.0</ele><time>2026-05-03T11:06:18.077Z</time></trkpt><trkpt lat="45.4380458" lon="11.5574211"><ele>307.0</ele><time>2026-05-03T11:06:19.077Z</time></trkpt><trkpt lat="45.4381479" lon="11.5574679"><ele>307.0</ele><time>2026-05-03T11:06:20.077Z</time></trkpt><trkpt lat="45.4382475" lon="11.5575094"><ele>307.0</ele><time>2026-05-03T11:06:21.077Z</time></trkpt><trkpt lat="45.4383404" lon="11.5575413"><ele>307.0</ele><time>2026-05-03T11:06:22.077Z</time></trkpt><trkpt lat="45.4384313" lon="11.5575449"><ele>307.0</ele><time>2026-05-03T11:06:23.077Z</time></trkpt><trkpt lat="45.4385217" lon="11.5575164"><ele>307.0</ele><time>2026-05-03T11:06:24.077Z</time></trkpt><trkpt lat="45.438616" lon="11.557475"><ele>307.0</ele><time>2026-05-03T11:06:25.077Z</time></trkpt><trkpt lat="45.4387143" lon="11.557424"><ele>307.0</ele><time>2026-05-03T11:06:26.077Z</time></trkpt><trkpt lat="45.4388139" lon="11.5573649"><ele>307.0</ele><time>2026-05-03T11:06:27.077Z</time></trkpt><trkpt lat="45.4389038" lon="11.5572882"><ele>307.0</ele><time>2026-05-03T11:06:28.077Z</time></trkpt><trkpt lat="45.4389856" lon="11.5572003"><ele>306.6</ele><time>2026-05-03T11:06:29.076Z</time></trkpt><trkpt lat="45.4390568" lon="11.5570934"><ele>306.2</ele><time>2026-05-03T11:06:30.077Z</time></trkpt><trkpt lat="45.4391262" lon="11.5569858"><ele>305.8</ele><time>2026-05-03T11:06:31.077Z</time></trkpt><trkpt lat="45.4392071" lon="11.5568952"><ele>305.4</ele><time>2026-05-03T11:06:32.077Z</time></trkpt><trkpt lat="45.439297" lon="11.5568191"><ele>305.0</ele><time>2026-05-03T11:06:33.077Z</time></trkpt><trkpt lat="45.4393905" lon="11.5567473"><ele>306.5</ele><time>2026-05-03T11:06:34.077Z</time></trkpt><trkpt lat="45.4394904" lon="11.5566779"><ele>308.0</ele><time>2026-05-03T11:06:35.077Z</time></trkpt><trkpt lat="45.4395921" lon="11.5566058"><ele>309.5</ele><time>2026-05-03T11:06:36.077Z</time></trkpt><trkpt lat="45.4396968" lon="11.556546"><ele>311.0</ele><time>2026-05-03T11:06:37.077Z</time></trkpt><trkpt lat="45.4398096" lon="11.5565007"><ele>311.0</ele><time>2026-05-03T11:06:38.077Z</time></trkpt><trkpt lat="45.4399223" lon="11.5564712"><ele>311.0</ele><time>2026-05-03T11:06:39.077Z</time></trkpt><trkpt lat="45.4400375" lon="11.5564546"><ele>311.0</ele><time>2026-05-03T11:06:40.076Z</time></trkpt><trkpt lat="45.4401566" lon="11.5564353"><ele>311.0</ele><time>2026-05-03T11:06:41.077Z</time></trkpt><trkpt lat="45.4402755" lon="11.5563998"><ele>311.0</ele><time>2026-05-03T11:06:42.077Z</time></trkpt><trkpt lat="45.4403914" lon="11.5563455"><ele>311.0</ele><time>2026-05-03T11:06:43.077Z</time></trkpt><trkpt lat="45.4404968" lon="11.5562756"><ele>311.0</ele><time>2026-05-03T11:06:44.077Z</time></trkpt><trkpt lat="45.4405985" lon="11.556207"><ele>311.0</ele><time>2026-05-03T11:06:45.077Z</time></trkpt><trkpt lat="45.4406963" lon="11.5561352"><ele>312.25</ele><time>2026-05-03T11:06:46.077Z</time></trkpt><trkpt lat="45.4407923" lon="11.556049"><ele>313.5</ele><time>2026-05-03T11:06:47.077Z</time></trkpt><trkpt lat="45.4408638" lon="11.5559098"><ele>314.75</ele><time>2026-05-03T11:06:48.077Z</time></trkpt><trkpt lat="45.4409435" lon="11.5557825"><ele>316.0</ele><time>2026-05-03T11:06:49.077Z</time></trkpt><trkpt lat="45.4410304" lon="11.5556857"><ele>316.0</ele><time>2026-05-03T11:06:50.077Z</time></trkpt><trkpt lat="45.4411133" lon="11.5555954"><ele>316.0</ele><time>2026-05-03T11:06:51.077Z</time></trkpt><trkpt lat="45.4411851" lon="11.5554929"><ele>316.0</ele><time>2026-05-03T11:06:52.077Z</time></trkpt><trkpt lat="45.4412424" lon="11.5553579"><ele>316.0</ele><time>2026-05-03T11:06:53.077Z</time></trkpt><trkpt lat="45.441282" lon="11.5552067"><ele>316.0</ele><time>2026-05-03T11:06:54.077Z</time></trkpt><trkpt lat="45.4413094" lon="11.5550511"><ele>316.2</ele><time>2026-05-03T11:06:55.077Z</time></trkpt><trkpt lat="45.4413436" lon="11.5549015"><ele>316.40000000000003</ele><time>2026-05-03T11:06:56.077Z</time></trkpt><trkpt lat="45.4413958" lon="11.5547601"><ele>316.6</ele><time>2026-05-03T11:06:57.077Z</time></trkpt><trkpt lat="45.4414693" lon="11.5546471"><ele>316.8</ele><time>2026-05-03T11:06:58.077Z</time></trkpt><trkpt lat="45.4415597" lon="11.5545705"><ele>317.0</ele><time>2026-05-03T11:06:59.077Z</time></trkpt><trkpt lat="45.4416637" lon="11.5545174"><ele>317.0</ele><time>2026-05-03T11:07:00.077Z</time></trkpt><trkpt lat="45.4417765" lon="11.5544888"><ele>317.0</ele><time>2026-05-03T11:07:01.077Z</time></trkpt><trkpt lat="45.4418929" lon="11.5544765"><ele>317.0</ele><time>2026-05-03T11:07:02.077Z</time></trkpt><trkpt lat="45.4420032" lon="11.5544812"><ele>317.0</ele><time>2026-05-03T11:07:03.077Z</time></trkpt><trkpt lat="45.442103" lon="11.5545136"><ele>317.0</ele><time>2026-05-03T11:07:04.077Z</time></trkpt><trkpt lat="45.4421913" lon="11.554584"><ele>317.0</ele><time>2026-05-03T11:07:05.077Z</time></trkpt><trkpt lat="45.4422633" lon="11.5546843"><ele>317.0</ele><time>2026-05-03T11:07:06.077Z</time></trkpt><trkpt lat="45.4423163" lon="11.5548089"><ele>317.0</ele><time>2026-05-03T11:07:07.077Z</time></trkpt><trkpt lat="45.4423616" lon="11.5549433"><ele>317.0</ele><time>2026-05-03T11:07:08.077Z</time></trkpt><trkpt lat="45.4423993" lon="11.5550887"><ele>317.0</ele><time>2026-05-03T11:07:09.077Z</time></trkpt><trkpt lat="45.4424241" lon="11.5552418"><ele>317.0</ele><time>2026-05-03T11:07:10.077Z</time></trkpt><trkpt lat="45.4424371" lon="11.5553992"><ele>317.0</ele><time>2026-05-03T11:07:11.077Z</time></trkpt><trkpt lat="45.4424418" lon="11.5555606"><ele>317.0</ele><time>2026-05-03T11:07:12.076Z</time></trkpt><trkpt lat="45.4424418" lon="11.5557242"><ele>317.0</ele><time>2026-05-03T11:07:13.076Z</time></trkpt><trkpt lat="45.4424463" lon="11.5558873"><ele>317.0</ele><time>2026-05-03T11:07:14.077Z</time></trkpt><trkpt lat="45.4424664" lon="11.5560354"><ele>317.0</ele><time>2026-05-03T11:07:15.077Z</time></trkpt><trkpt lat="45.442503" lon="11.5561693"><ele>317.0</ele><time>2026-05-03T11:07:16.076Z</time></trkpt><trkpt lat="45.4425618" lon="11.5562853"><ele>317.0</ele><time>2026-05-03T11:07:17.077Z</time></trkpt><trkpt lat="45.4426294" lon="11.5564042"><ele>317.0</ele><time>2026-05-03T11:07:18.077Z</time></trkpt><trkpt lat="45.4426956" lon="11.5565284"><ele>315.6</ele><time>2026-05-03T11:07:19.077Z</time></trkpt><trkpt lat="45.442757" lon="11.55665"><ele>314.2</ele><time>2026-05-03T11:07:20.077Z</time></trkpt><trkpt lat="45.4428221" lon="11.5567647"><ele>312.8</ele><time>2026-05-03T11:07:21.076Z</time></trkpt><trkpt lat="45.4428988" lon="11.556864"><ele>311.4</ele><time>2026-05-03T11:07:22.077Z</time></trkpt><trkpt lat="45.44299" lon="11.5569356"><ele>310.0</ele><time>2026-05-03T11:07:23.077Z</time></trkpt><trkpt lat="45.4430934" lon="11.5569907"><ele>310.25</ele><time>2026-05-03T11:07:24.077Z</time></trkpt><trkpt lat="45.4432022" lon="11.5570389"><ele>310.5</ele><time>2026-05-03T11:07:25.077Z</time></trkpt><trkpt lat="45.4433136" lon="11.5570857"><ele>310.75</ele><time>2026-05-03T11:07:26.077Z</time></trkpt><trkpt lat="45.4434209" lon="11.5571225"><ele>311.0</ele><time>2026-05-03T11:07:27.077Z</time></trkpt><trkpt lat="45.4435352" lon="11.5571647"><ele>311.0</ele><time>2026-05-03T11:07:28.077Z</time></trkpt><trkpt lat="45.4436381" lon="11.5571956"><ele>311.0</ele><time>2026-05-03T11:07:29.077Z</time></trkpt><trkpt lat="45.44374" lon="11.5572181"><ele>311.0</ele><time>2026-05-03T11:07:30.077Z</time></trkpt><trkpt lat="45.4438472" lon="11.5572173"><ele>311.0</ele><time>2026-05-03T11:07:31.077Z</time></trkpt><trkpt lat="45.4439524" lon="11.557211"><ele>311.0</ele><time>2026-05-03T11:07:32.077Z</time></trkpt><trkpt lat="45.4440628" lon="11.5571796"><ele>311.6</ele><time>2026-05-03T11:07:33.077Z</time></trkpt><trkpt lat="45.4441679" lon="11.5571342"><ele>312.20000000000005</ele><time>2026-05-03T11:07:34.077Z</time></trkpt><trkpt lat="45.4442726" lon="11.5570662"><ele>312.79999999999995</ele><time>2026-05-03T11:07:35.077Z</time></trkpt><trkpt lat="45.4443766" lon="11.5569963"><ele>313.4</ele><time>2026-05-03T11:07:36.077Z</time></trkpt><trkpt lat="45.4444747" lon="11.5569274"><ele>314.0</ele><time>2026-05-03T11:07:37.077Z</time></trkpt><trkpt lat="45.4445695" lon="11.5568669"><ele>315.6</ele><time>2026-05-03T11:07:38.077Z</time></trkpt><trkpt lat="45.4446635" lon="11.5568146"><ele>317.2</ele><time>2026-05-03T11:07:39.077Z</time></trkpt><trkpt lat="45.4447582" lon="11.5567902"><ele>318.8</ele><time>2026-05-03T11:07:40.077Z</time></trkpt><trkpt lat="45.4448559" lon="11.5567986"><ele>320.40000000000003</ele><time>2026-05-03T11:07:41.077Z</time></trkpt><trkpt lat="45.4449519" lon="11.5568433"><ele>322.0</ele><time>2026-05-03T11:07:42.076Z</time></trkpt><trkpt lat="45.4450337" lon="11.5569326"><ele>318.75</ele><time>2026-05-03T11:07:43.077Z</time></trkpt><trkpt lat="45.4451047" lon="11.557057"><ele>315.5</ele><time>2026-05-03T11:07:44.077Z</time></trkpt><trkpt lat="45.4451704" lon="11.5571974"><ele>312.25</ele><time>2026-05-03T11:07:45.077Z</time></trkpt><trkpt lat="45.445252" lon="11.5573255"><ele>309.0</ele><time>2026-05-03T11:07:46.077Z</time></trkpt><trkpt lat="45.4453458" lon="11.557432"><ele>309.0</ele><time>2026-05-03T11:07:47.077Z</time></trkpt><trkpt lat="45.4454447" lon="11.5575295"><ele>309.0</ele><time>2026-05-03T11:07:48.077Z</time></trkpt><trkpt lat="45.4455405" lon="11.5576101"><ele>309.0</ele><time>2026-05-03T11:07:49.077Z</time></trkpt><trkpt lat="45.4456355" lon="11.5576679"><ele>309.0</ele><time>2026-05-03T11:07:50.077Z</time></trkpt><trkpt lat="45.4457315" lon="11.5576963"><ele>309.0</ele><time>2026-05-03T11:07:51.077Z</time></trkpt><trkpt lat="45.4458288" lon="11.5576839"><ele>311.25</ele><time>2026-05-03T11:07:52.077Z</time></trkpt><trkpt lat="45.4459272" lon="11.5576306"><ele>313.5</ele><time>2026-05-03T11:07:53.077Z</time></trkpt><trkpt lat="45.4460217" lon="11.5575482"><ele>315.75</ele><time>2026-05-03T11:07:54.076Z</time></trkpt><trkpt lat="45.4461178" lon="11.5574536"><ele>318.0</ele><time>2026-05-03T11:07:55.077Z</time></trkpt><trkpt lat="45.4462251" lon="11.5573666"><ele>319.75</ele><time>2026-05-03T11:07:56.077Z</time></trkpt><trkpt lat="45.4463419" lon="11.5573108"><ele>321.5</ele><time>2026-05-03T11:07:57.077Z</time></trkpt><trkpt lat="45.4464643" lon="11.557301"><ele>323.25</ele><time>2026-05-03T11:07:58.077Z</time></trkpt><trkpt lat="45.4465857" lon="11.5573288"><ele>325.0</ele><time>2026-05-03T11:07:59.077Z</time></trkpt><trkpt lat="45.4467067" lon="11.5573678"><ele>325.0</ele><time>2026-05-03T11:08:00.077Z</time></trkpt><trkpt lat="45.4468257" lon="11.5574046"><ele>325.0</ele><time>2026-05-03T11:08:01.076Z</time></trkpt><trkpt lat="45.4469428" lon="11.557436"><ele>325.0</ele><time>2026-05-03T11:08:02.077Z</time></trkpt><trkpt lat="45.4470585" lon="11.5574624"><ele>325.0</ele><time>2026-05-03T11:08:03.076Z</time></trkpt><trkpt lat="45.447175" lon="11.5574874"><ele>326.75</ele><time>2026-05-03T11:08:04.077Z</time></trkpt><trkpt lat="45.447291" lon="11.5575118"><ele>328.5</ele><time>2026-05-03T11:08:05.077Z</time></trkpt><trkpt lat="45.4474085" lon="11.5575297"><ele>330.25</ele><time>2026-05-03T11:08:06.077Z</time></trkpt><trkpt lat="45.4475198" lon="11.5575464"><ele>332.0</ele><time>2026-05-03T11:08:07.077Z</time></trkpt><trkpt lat="45.4476258" lon="11.5575526"><ele>332.0</ele><time>2026-05-03T11:08:08.077Z</time></trkpt><trkpt lat="45.4477297" lon="11.5575654"><ele>332.0</ele><time>2026-05-03T11:08:09.077Z</time></trkpt><trkpt lat="45.4478351" lon="11.557588"><ele>332.0</ele><time>2026-05-03T11:08:10.077Z</time></trkpt><trkpt lat="45.4479404" lon="11.5576165"><ele>332.0</ele><time>2026-05-03T11:08:11.077Z</time></trkpt><trkpt lat="45.4480449" lon="11.5576505"><ele>332.0</ele><time>2026-05-03T11:08:12.077Z</time></trkpt><trkpt lat="45.4481535" lon="11.5576783"><ele>332.0</ele><time>2026-05-03T11:08:13.077Z</time></trkpt><trkpt lat="45.4482667" lon="11.5576916"><ele>332.0</ele><time>2026-05-03T11:08:14.077Z</time></trkpt><trkpt lat="45.4483852" lon="11.5576948"><ele>332.0</ele><time>2026-05-03T11:08:15.077Z</time></trkpt><trkpt lat="45.4485029" lon="11.5576927"><ele>332.0</ele><time>2026-05-03T11:08:16.077Z</time></trkpt><trkpt lat="45.4486149" lon="11.5576763"><ele>332.0</ele><time>2026-05-03T11:08:17.077Z</time></trkpt><trkpt lat="45.4487269" lon="11.5576422"><ele>332.0</ele><time>2026-05-03T11:08:18.077Z</time></trkpt><trkpt lat="45.4488425" lon="11.5575977"><ele>332.0</ele><time>2026-05-03T11:08:19.077Z</time></trkpt><trkpt lat="45.4489495" lon="11.5575155"><ele>332.0</ele><time>2026-05-03T11:08:20.077Z</time></trkpt><trkpt lat="45.4490519" lon="11.5574221"><ele>333.25</ele><time>2026-05-03T11:08:21.077Z</time></trkpt><trkpt lat="45.4491467" lon="11.5573225"><ele>334.5</ele><time>2026-05-03T11:08:22.077Z</time></trkpt><trkpt lat="45.4492463" lon="11.5572264"><ele>335.75</ele><time>2026-05-03T11:08:23.076Z</time></trkpt><trkpt lat="45.4493489" lon="11.5571514"><ele>337.0</ele><time>2026-05-03T11:08:24.077Z</time></trkpt><trkpt lat="45.449449" lon="11.5570795"><ele>337.0</ele><time>2026-05-03T11:08:25.077Z</time></trkpt><trkpt lat="45.4495524" lon="11.5570153"><ele>337.0</ele><time>2026-05-03T11:08:26.077Z</time></trkpt><trkpt lat="45.4496391" lon="11.5569569"><ele>337.0</ele><time>2026-05-03T11:08:27.077Z</time></trkpt><trkpt lat="45.4497054" lon="11.5569063"><ele>337.0</ele><time>2026-05-03T11:08:28.077Z</time></trkpt><trkpt lat="45.4497877" lon="11.5568494"><ele>337.0</ele><time>2026-05-03T11:08:30.077Z</time></trkpt><trkpt lat="45.4498556" lon="11.5568162"><ele>337.0</ele><time>2026-05-03T11:09:00.077Z</time></trkpt><trkpt lat="45.4498811" lon="11.5567336"><ele>337.0</ele><time>2026-05-03T11:09:08.077Z</time></trkpt><trkpt lat="45.4499239" lon="11.5566573"><ele>337.0</ele><time>2026-05-03T11:09:09.077Z</time></trkpt><trkpt lat="45.4499844" lon="11.5565687"><ele>337.0</ele><time>2026-05-03T11:09:10.077Z</time></trkpt><trkpt lat="45.4500514" lon="11.5564723"><ele>337.0</ele><time>2026-05-03T11:09:11.077Z</time></trkpt><trkpt lat="45.4501168" lon="11.5563776"><ele>337.0</ele><time>2026-05-03T11:09:12.077Z</time></trkpt><trkpt lat="45.4501886" lon="11.5562868"><ele>337.0</ele><time>2026-05-03T11:09:13.077Z</time></trkpt><trkpt lat="45.4502722" lon="11.5562044"><ele>335.20000000000005</ele><time>2026-05-03T11:09:14.077Z</time></trkpt><trkpt lat="45.4503684" lon="11.5561287"><ele>333.4</ele><time>2026-05-03T11:09:15.077Z</time></trkpt><trkpt lat="45.4504683" lon="11.5560633"><ele>331.6</ele><time>2026-05-03T11:09:16.076Z</time></trkpt><trkpt lat="45.4505713" lon="11.5560117"><ele>329.79999999999995</ele><time>2026-05-03T11:09:17.077Z</time></trkpt><trkpt lat="45.4506788" lon="11.5559722"><ele>328.0</ele><time>2026-05-03T11:09:18.077Z</time></trkpt><trkpt lat="45.4507881" lon="11.5559404"><ele>328.0</ele><time>2026-05-03T11:09:19.077Z</time></trkpt><trkpt lat="45.4508892" lon="11.5559085"><ele>328.0</ele><time>2026-05-03T11:09:20.077Z</time></trkpt><trkpt lat="45.4509922" lon="11.5558938"><ele>328.0</ele><time>2026-05-03T11:09:21.077Z</time></trkpt><trkpt lat="45.4510878" lon="11.5558883"><ele>328.0</ele><time>2026-05-03T11:09:22.077Z</time></trkpt><trkpt lat="45.4511744" lon="11.5558996"><ele>328.0</ele><time>2026-05-03T11:09:23.077Z</time></trkpt><trkpt lat="45.4512601" lon="11.5559666"><ele>327.59999999999997</ele><time>2026-05-03T11:09:24.077Z</time></trkpt><trkpt lat="45.4513329" lon="11.5560914"><ele>327.2</ele><time>2026-05-03T11:09:25.077Z</time></trkpt><trkpt lat="45.4514129" lon="11.5561763"><ele>326.8</ele><time>2026-05-03T11:09:26.077Z</time></trkpt><trkpt lat="45.4515062" lon="11.5562251"><ele>326.4</ele><time>2026-05-03T11:09:27.077Z</time></trkpt><trkpt lat="45.4516089" lon="11.5562454"><ele>326.0</ele><time>2026-05-03T11:09:28.077Z</time></trkpt><trkpt lat="45.4517075" lon="11.5562368"><ele>326.0</ele><time>2026-05-03T11:09:29.077Z</time></trkpt><trkpt lat="45.4518041" lon="11.5562145"><ele>326.0</ele><time>2026-05-03T11:09:30.077Z</time></trkpt><trkpt lat="45.4518966" lon="11.5561806"><ele>326.0</ele><time>2026-05-03T11:09:31.077Z</time></trkpt><trkpt lat="45.45199" lon="11.5561604"><ele>326.0</ele><time>2026-05-03T11:09:32.077Z</time></trkpt><trkpt lat="45.4520838" lon="11.5561745"><ele>326.0</ele><time>2026-05-03T11:09:33.077Z</time></trkpt><trkpt lat="45.4521729" lon="11.5562176"><ele>328.20000000000005</ele><time>2026-05-03T11:09:34.077Z</time></trkpt><trkpt lat="45.4522622" lon="11.556271"><ele>330.40000000000003</ele><time>2026-05-03T11:09:35.077Z</time></trkpt><trkpt lat="45.452353" lon="11.5563228"><ele>332.6</ele><time>2026-05-03T11:09:36.076Z</time></trkpt><trkpt lat="45.4524477" lon="11.5563596"><ele>334.8</ele><time>2026-05-03T11:09:37.077Z</time></trkpt><trkpt lat="45.4525443" lon="11.5563769"><ele>337.0</ele><time>2026-05-03T11:09:38.077Z</time></trkpt><trkpt lat="45.4526415" lon="11.5563638"><ele>337.0</ele><time>2026-05-03T11:09:39.077Z</time></trkpt><trkpt lat="45.4527339" lon="11.5563137"><ele>337.0</ele><time>2026-05-03T11:09:40.076Z</time></trkpt><trkpt lat="45.4528083" lon="11.5562391"><ele>337.0</ele><time>2026-05-03T11:09:41.077Z</time></trkpt><trkpt lat="45.4528659" lon="11.5561285"><ele>337.0</ele><time>2026-05-03T11:09:42.077Z</time></trkpt><trkpt lat="45.452915" lon="11.5560034"><ele>337.0</ele><time>2026-05-03T11:09:43.077Z</time></trkpt><trkpt lat="45.4529643" lon="11.5558707"><ele>337.8</ele><time>2026-05-03T11:09:44.077Z</time></trkpt><trkpt lat="45.4530132" lon="11.5557416"><ele>338.6</ele><time>2026-05-03T11:09:45.077Z</time></trkpt><trkpt lat="45.4530716" lon="11.5556155"><ele>339.40000000000003</ele><time>2026-05-03T11:09:46.077Z</time></trkpt><trkpt lat="45.4531397" lon="11.5555166"><ele>340.20000000000005</ele><time>2026-05-03T11:09:47.077Z</time></trkpt><trkpt lat="45.4532243" lon="11.5554416"><ele>341.0</ele><time>2026-05-03T11:09:48.077Z</time></trkpt><trkpt lat="45.4533273" lon="11.5554015"><ele>341.0</ele><time>2026-05-03T11:09:49.077Z</time></trkpt><trkpt lat="45.453432" lon="11.5553884"><ele>341.0</ele><time>2026-05-03T11:09:50.077Z</time></trkpt><trkpt lat="45.4535228" lon="11.5553979"><ele>341.0</ele><time>2026-05-03T11:09:51.077Z</time></trkpt><trkpt lat="45.4535923" lon="11.5554383"><ele>341.0</ele><time>2026-05-03T11:09:52.077Z</time></trkpt><trkpt lat="45.4536464" lon="11.5555181"><ele>341.0</ele><time>2026-05-03T11:09:53.077Z</time></trkpt><trkpt lat="45.4536811" lon="11.5556289"><ele>341.0</ele><time>2026-05-03T11:09:54.077Z</time></trkpt><trkpt lat="45.4537069" lon="11.5557582"><ele>341.0</ele><time>2026-05-03T11:09:55.077Z</time></trkpt><trkpt lat="45.4537362" lon="11.5558883"><ele>341.0</ele><time>2026-05-03T11:09:56.077Z</time></trkpt><trkpt lat="45.4537841" lon="11.5559892"><ele>341.0</ele><time>2026-05-03T11:09:57.077Z</time></trkpt><trkpt lat="45.4538468" lon="11.5560776"><ele>341.0</ele><time>2026-05-03T11:09:58.077Z</time></trkpt><trkpt lat="45.4539263" lon="11.5561502"><ele>341.0</ele><time>2026-05-03T11:09:59.077Z</time></trkpt><trkpt lat="45.4540074" lon="11.5562014"><ele>340.6</ele><time>2026-05-03T11:10:00.077Z</time></trkpt><trkpt lat="45.4540984" lon="11.556223"><ele>340.20000000000005</ele><time>2026-05-03T11:10:01.077Z</time></trkpt><trkpt lat="45.454198" lon="11.5562133"><ele>339.79999999999995</ele><time>2026-05-03T11:10:02.077Z</time></trkpt><trkpt lat="45.4543039" lon="11.556178"><ele>339.4</ele><time>2026-05-03T11:10:03.077Z</time></trkpt><trkpt lat="45.454409" lon="11.5561605"><ele>339.0</ele><time>2026-05-03T11:10:04.077Z</time></trkpt><trkpt lat="45.4545167" lon="11.5561583"><ele>336.6</ele><time>2026-05-03T11:10:05.077Z</time></trkpt><trkpt lat="45.4546305" lon="11.5561646"><ele>334.2</ele><time>2026-05-03T11:10:06.077Z</time></trkpt><trkpt lat="45.4547272" lon="11.5562479"><ele>331.8</ele><time>2026-05-03T11:10:07.077Z</time></trkpt><trkpt lat="45.4548175" lon="11.5563229"><ele>329.40000000000003</ele><time>2026-05-03T11:10:08.077Z</time></trkpt><trkpt lat="45.4548935" lon="11.556437"><ele>327.0</ele><time>2026-05-03T11:10:09.077Z</time></trkpt><trkpt lat="45.4549665" lon="11.5565579"><ele>327.0</ele><time>2026-05-03T11:10:10.077Z</time></trkpt><trkpt lat="45.4550444" lon="11.5566677"><ele>327.0</ele><time>2026-05-03T11:10:11.077Z</time></trkpt><trkpt lat="45.4551281" lon="11.5567594"><ele>327.0</ele><time>2026-05-03T11:10:12.077Z</time></trkpt><trkpt lat="45.4552152" lon="11.5568425"><ele>327.0</ele><time>2026-05-03T11:10:13.077Z</time></trkpt><trkpt lat="45.4552924" lon="11.5569379"><ele>327.0</ele><time>2026-05-03T11:10:14.076Z</time></trkpt><trkpt lat="45.4553511" lon="11.5570553"><ele>327.6</ele><time>2026-05-03T11:10:15.077Z</time></trkpt><trkpt lat="45.4553821" lon="11.557187"><ele>328.20000000000005</ele><time>2026-05-03T11:10:16.077Z</time></trkpt><trkpt lat="45.4553815" lon="11.5573188"><ele>328.8</ele><time>2026-05-03T11:10:17.077Z</time></trkpt><trkpt lat="45.4553548" lon="11.5574524"><ele>329.4</ele><time>2026-05-03T11:10:18.077Z</time></trkpt><trkpt lat="45.4553347" lon="11.557595"><ele>330.0</ele><time>2026-05-03T11:10:19.077Z</time></trkpt><trkpt lat="45.4553445" lon="11.5577339"><ele>330.0</ele><time>2026-05-03T11:10:20.077Z</time></trkpt><trkpt lat="45.455379" lon="11.557863"><ele>330.0</ele><time>2026-05-03T11:10:21.077Z</time></trkpt><trkpt lat="45.4554366" lon="11.5579773"><ele>330.0</ele><time>2026-05-03T11:10:22.076Z</time></trkpt><trkpt lat="45.4555034" lon="11.5580653"><ele>330.0</ele><time>2026-05-03T11:10:23.077Z</time></trkpt><trkpt lat="45.4555844" lon="11.5581358"><ele>330.0</ele><time>2026-05-03T11:10:24.077Z</time></trkpt><trkpt lat="45.4556727" lon="11.5581912"><ele>330.2</ele><time>2026-05-03T11:10:25.077Z</time></trkpt><trkpt lat="45.4557652" lon="11.5582399"><ele>330.4</ele><time>2026-05-03T11:10:26.076Z</time></trkpt><trkpt lat="45.4558646" lon="11.5582856"><ele>330.6</ele><time>2026-05-03T11:10:27.077Z</time></trkpt><trkpt lat="45.4559685" lon="11.5583308"><ele>330.8</ele><time>2026-05-03T11:10:28.077Z</time></trkpt><trkpt lat="45.4560772" lon="11.5583776"><ele>331.0</ele><time>2026-05-03T11:10:29.077Z</time></trkpt><trkpt lat="45.4561889" lon="11.5584255"><ele>329.0</ele><time>2026-05-03T11:10:30.077Z</time></trkpt><trkpt lat="45.4563046" lon="11.5584675"><ele>327.0</ele><time>2026-05-03T11:10:31.077Z</time></trkpt><trkpt lat="45.4564237" lon="11.5585033"><ele>325.0</ele><time>2026-05-03T11:10:32.077Z</time></trkpt><trkpt lat="45.4565504" lon="11.5585335"><ele>323.0</ele><time>2026-05-03T11:10:33.077Z</time></trkpt><trkpt lat="45.456681" lon="11.55856"><ele>323.0</ele><time>2026-05-03T11:10:34.077Z</time></trkpt><trkpt lat="45.4568128" lon="11.5585864"><ele>323.0</ele><time>2026-05-03T11:10:35.077Z</time></trkpt><trkpt lat="45.4569449" lon="11.5586039"><ele>323.0</ele><time>2026-05-03T11:10:36.077Z</time></trkpt><trkpt lat="45.4570749" lon="11.5586204"><ele>323.0</ele><time>2026-05-03T11:10:37.077Z</time></trkpt><trkpt lat="45.4571999" lon="11.5586319"><ele>321.5</ele><time>2026-05-03T11:10:38.077Z</time></trkpt><trkpt lat="45.4573202" lon="11.5586332"><ele>320.0</ele><time>2026-05-03T11:10:39.077Z</time></trkpt><trkpt lat="45.4574427" lon="11.5586503"><ele>318.5</ele><time>2026-05-03T11:10:40.077Z</time></trkpt><trkpt lat="45.4575635" lon="11.5586949"><ele>317.0</ele><time>2026-05-03T11:10:41.077Z</time></trkpt><trkpt lat="45.4576839" lon="11.5587445"><ele>321.25</ele><time>2026-05-03T11:10:42.076Z</time></trkpt><trkpt lat="45.4578054" lon="11.5587896"><ele>325.5</ele><time>2026-05-03T11:10:43.077Z</time></trkpt><trkpt lat="45.4579211" lon="11.5588373"><ele>329.75</ele><time>2026-05-03T11:10:44.077Z</time></trkpt><trkpt lat="45.4580275" lon="11.5588817"><ele>334.0</ele><time>2026-05-03T11:10:45.077Z</time></trkpt><trkpt lat="45.4581287" lon="11.558925"><ele>334.0</ele><time>2026-05-03T11:10:46.077Z</time></trkpt><trkpt lat="45.4582337" lon="11.5589718"><ele>334.0</ele><time>2026-05-03T11:10:47.077Z</time></trkpt><trkpt lat="45.4583465" lon="11.559001"><ele>334.0</ele><time>2026-05-03T11:10:48.077Z</time></trkpt><trkpt lat="45.4584671" lon="11.5590021"><ele>334.0</ele><time>2026-05-03T11:10:49.077Z</time></trkpt><trkpt lat="45.458591" lon="11.55899"><ele>334.0</ele><time>2026-05-03T11:10:50.077Z</time></trkpt><trkpt lat="45.4587176" lon="11.5589623"><ele>334.0</ele><time>2026-05-03T11:10:51.077Z</time></trkpt><trkpt lat="45.4588454" lon="11.5589343"><ele>334.0</ele><time>2026-05-03T11:10:52.077Z</time></trkpt><trkpt lat="45.4589738" lon="11.5589002"><ele>334.0</ele><time>2026-05-03T11:10:53.077Z</time></trkpt><trkpt lat="45.4591016" lon="11.5588693"><ele>335.25</ele><time>2026-05-03T11:10:54.077Z</time></trkpt><trkpt lat="45.4592315" lon="11.5588418"><ele>336.5</ele><time>2026-05-03T11:10:55.077Z</time></trkpt><trkpt lat="45.459365" lon="11.5588095"><ele>337.75</ele><time>2026-05-03T11:10:56.077Z</time></trkpt><trkpt lat="45.4595002" lon="11.5587685"><ele>339.0</ele><time>2026-05-03T11:10:57.077Z</time></trkpt><trkpt lat="45.4596367" lon="11.5587199"><ele>336.5</ele><time>2026-05-03T11:10:58.077Z</time></trkpt><trkpt lat="45.4597682" lon="11.5586682"><ele>334.0</ele><time>2026-05-03T11:10:59.077Z</time></trkpt><trkpt lat="45.4598858" lon="11.5586015"><ele>331.5</ele><time>2026-05-03T11:11:00.077Z</time></trkpt><trkpt lat="45.4599856" lon="11.5585152"><ele>329.0</ele><time>2026-05-03T11:11:01.077Z</time></trkpt><trkpt lat="45.4600713" lon="11.5584293"><ele>329.0</ele><time>2026-05-03T11:11:02.077Z</time></trkpt><trkpt lat="45.4601524" lon="11.5583801"><ele>329.0</ele><time>2026-05-03T11:11:03.077Z</time></trkpt><trkpt lat="45.460225" lon="11.5584043"><ele>329.0</ele><time>2026-05-03T11:11:04.077Z</time></trkpt><trkpt lat="45.4602659" lon="11.5585635"><ele>329.0</ele><time>2026-05-03T11:11:06.076Z</time></trkpt><trkpt lat="45.4602497" lon="11.5586837"><ele>329.0</ele><time>2026-05-03T11:11:07.077Z</time></trkpt><trkpt lat="45.4602171" lon="11.5588314"><ele>331.75</ele><time>2026-05-03T11:11:08.077Z</time></trkpt><trkpt lat="45.4601724" lon="11.5589986"><ele>334.5</ele><time>2026-05-03T11:11:09.077Z</time></trkpt><trkpt lat="45.4601241" lon="11.5591806"><ele>337.25</ele><time>2026-05-03T11:11:10.077Z</time></trkpt><trkpt lat="45.4601008" lon="11.5593673"><ele>340.0</ele><time>2026-05-03T11:11:11.077Z</time></trkpt><trkpt lat="45.4600899" lon="11.5595561"><ele>341.75</ele><time>2026-05-03T11:11:12.077Z</time></trkpt><trkpt lat="45.4600814" lon="11.5597437"><ele>343.5</ele><time>2026-05-03T11:11:13.077Z</time></trkpt><trkpt lat="45.4600811" lon="11.5599312"><ele>345.25</ele><time>2026-05-03T11:11:14.077Z</time></trkpt><trkpt lat="45.4600936" lon="11.560102"><ele>347.0</ele><time>2026-05-03T11:11:15.077Z</time></trkpt><trkpt lat="45.4601081" lon="11.5602588"><ele>346.40000000000003</ele><time>2026-05-03T11:11:16.077Z</time></trkpt><trkpt lat="45.4600992" lon="11.5603975"><ele>345.8</ele><time>2026-05-03T11:11:17.077Z</time></trkpt><trkpt lat="45.4600677" lon="11.5605173"><ele>345.2</ele><time>2026-05-03T11:11:18.076Z</time></trkpt><trkpt lat="45.4600163" lon="11.5606206"><ele>344.6</ele><time>2026-05-03T11:11:19.077Z</time></trkpt><trkpt lat="45.459951" lon="11.5607224"><ele>344.0</ele><time>2026-05-03T11:11:20.077Z</time></trkpt><trkpt lat="45.4599003" lon="11.5608443"><ele>344.0</ele><time>2026-05-03T11:11:21.077Z</time></trkpt><trkpt lat="45.4598698" lon="11.5609832"><ele>344.0</ele><time>2026-05-03T11:11:22.077Z</time></trkpt><trkpt lat="45.4598604" lon="11.5611347"><ele>344.0</ele><time>2026-05-03T11:11:23.077Z</time></trkpt><trkpt lat="45.4598688" lon="11.5612886"><ele>344.0</ele><time>2026-05-03T11:11:24.077Z</time></trkpt><trkpt lat="45.459887" lon="11.5614426"><ele>344.0</ele><time>2026-05-03T11:11:25.077Z</time></trkpt><trkpt lat="45.4599071" lon="11.5615956"><ele>343.2</ele><time>2026-05-03T11:11:26.077Z</time></trkpt><trkpt lat="45.4599242" lon="11.5617502"><ele>342.4</ele><time>2026-05-03T11:11:27.077Z</time></trkpt><trkpt lat="45.4599416" lon="11.5618941"><ele>341.6</ele><time>2026-05-03T11:11:28.077Z</time></trkpt><trkpt lat="45.4599593" lon="11.5620226"><ele>340.8</ele><time>2026-05-03T11:11:29.077Z</time></trkpt><trkpt lat="45.4599881" lon="11.5621367"><ele>340.0</ele><time>2026-05-03T11:11:30.077Z</time></trkpt><trkpt lat="45.4600415" lon="11.5622308"><ele>339.5</ele><time>2026-05-03T11:11:31.077Z</time></trkpt><trkpt lat="45.460114" lon="11.5623053"><ele>339.0</ele><time>2026-05-03T11:11:32.077Z</time></trkpt><trkpt lat="45.4602032" lon="11.5623575"><ele>338.5</ele><time>2026-05-03T11:11:33.077Z</time></trkpt><trkpt lat="45.4602886" lon="11.5623934"><ele>338.0</ele><time>2026-05-03T11:11:34.077Z</time></trkpt><trkpt lat="45.4603634" lon="11.5624475"><ele>337.5</ele><time>2026-05-03T11:11:35.077Z</time></trkpt><trkpt lat="45.4604091" lon="11.5625327"><ele>337.0</ele><time>2026-05-03T11:11:36.077Z</time></trkpt><trkpt lat="45.4604213" lon="11.5626414"><ele>337.0</ele><time>2026-05-03T11:11:37.077Z</time></trkpt><trkpt lat="45.4604017" lon="11.5627622"><ele>337.0</ele><time>2026-05-03T11:11:38.077Z</time></trkpt><trkpt lat="45.4603761" lon="11.5628964"><ele>337.0</ele><time>2026-05-03T11:11:39.077Z</time></trkpt><trkpt lat="45.4603479" lon="11.5630473"><ele>337.0</ele><time>2026-05-03T11:11:40.077Z</time></trkpt><trkpt lat="45.4603278" lon="11.5632001"><ele>337.0</ele><time>2026-05-03T11:11:41.077Z</time></trkpt><trkpt lat="45.4603207" lon="11.5633504"><ele>336.8</ele><time>2026-05-03T11:11:42.077Z</time></trkpt><trkpt lat="45.4603198" lon="11.5634985"><ele>336.6</ele><time>2026-05-03T11:11:43.077Z</time></trkpt><trkpt lat="45.4603234" lon="11.5636483"><ele>336.40000000000003</ele><time>2026-05-03T11:11:44.077Z</time></trkpt><trkpt lat="45.460358" lon="11.563785"><ele>336.20000000000005</ele><time>2026-05-03T11:11:45.077Z</time></trkpt><trkpt lat="45.4603965" lon="11.5639141"><ele>336.0</ele><time>2026-05-03T11:11:46.077Z</time></trkpt><trkpt lat="45.4604556" lon="11.5640243"><ele>333.6</ele><time>2026-05-03T11:11:47.077Z</time></trkpt><trkpt lat="45.4605308" lon="11.5641232"><ele>331.20000000000005</ele><time>2026-05-03T11:11:48.077Z</time></trkpt><trkpt lat="45.4606199" lon="11.5642131"><ele>328.79999999999995</ele><time>2026-05-03T11:11:49.077Z</time></trkpt><trkpt lat="45.4607169" lon="11.5643027"><ele>326.4</ele><time>2026-05-03T11:11:50.077Z</time></trkpt><trkpt lat="45.4608155" lon="11.5643914"><ele>324.0</ele><time>2026-05-03T11:11:51.077Z</time></trkpt><trkpt lat="45.4609163" lon="11.564474"><ele>324.0</ele><time>2026-05-03T11:11:52.077Z</time></trkpt><trkpt lat="45.4610184" lon="11.5645572"><ele>324.0</ele><time>2026-05-03T11:11:53.077Z</time></trkpt><trkpt lat="45.4611159" lon="11.5646427"><ele>324.0</ele><time>2026-05-03T11:11:54.077Z</time></trkpt><trkpt lat="45.4612135" lon="11.5647258"><ele>324.0</ele><time>2026-05-03T11:11:55.077Z</time></trkpt><trkpt lat="45.4613113" lon="11.5648046"><ele>324.6</ele><time>2026-05-03T11:11:56.077Z</time></trkpt><trkpt lat="45.4614064" lon="11.5648825"><ele>325.2</ele><time>2026-05-03T11:11:57.077Z</time></trkpt><trkpt lat="45.4615012" lon="11.5649625"><ele>325.8</ele><time>2026-05-03T11:11:58.077Z</time></trkpt><trkpt lat="45.4615876" lon="11.5650466"><ele>326.40000000000003</ele><time>2026-05-03T11:11:59.077Z</time></trkpt><trkpt lat="45.4616598" lon="11.5651368"><ele>327.0</ele><time>2026-05-03T11:12:00.077Z</time></trkpt><trkpt lat="45.4617174" lon="11.5652392"><ele>327.0</ele><time>2026-05-03T11:12:01.077Z</time></trkpt><trkpt lat="45.4617616" lon="11.5653483"><ele>327.0</ele><time>2026-05-03T11:12:02.077Z</time></trkpt><trkpt lat="45.4617926" lon="11.565465"><ele>327.0</ele><time>2026-05-03T11:12:03.077Z</time></trkpt><trkpt lat="45.461825" lon="11.565579"><ele>327.0</ele><time>2026-05-03T11:12:04.077Z</time></trkpt><trkpt lat="45.461878" lon="11.5656832"><ele>327.0</ele><time>2026-05-03T11:12:05.077Z</time></trkpt><trkpt lat="45.4619423" lon="11.5657778"><ele>327.0</ele><time>2026-05-03T11:12:06.077Z</time></trkpt><trkpt lat="45.4620106" lon="11.5658747"><ele>327.0</ele><time>2026-05-03T11:12:07.077Z</time></trkpt><trkpt lat="45.4620787" lon="11.5659733"><ele>327.0</ele><time>2026-05-03T11:12:08.077Z</time></trkpt><trkpt lat="45.4621441" lon="11.5660748"><ele>327.0</ele><time>2026-05-03T11:12:09.077Z</time></trkpt><trkpt lat="45.4622056" lon="11.5661795"><ele>327.0</ele><time>2026-05-03T11:12:10.077Z</time></trkpt><trkpt lat="45.4622678" lon="11.5662803"><ele>327.0</ele><time>2026-05-03T11:12:11.077Z</time></trkpt><trkpt lat="45.462326" lon="11.5663802"><ele>327.0</ele><time>2026-05-03T11:12:12.077Z</time></trkpt><trkpt lat="45.4623773" lon="11.5664825"><ele>327.0</ele><time>2026-05-03T11:12:13.077Z</time></trkpt><trkpt lat="45.4624175" lon="11.5665856"><ele>327.0</ele><time>2026-05-03T11:12:14.077Z</time></trkpt><trkpt lat="45.4624541" lon="11.5666718"><ele>327.0</ele><time>2026-05-03T11:12:15.077Z</time></trkpt><trkpt lat="45.4625482" lon="11.5667492"><ele>327.0</ele><time>2026-05-03T11:12:17.077Z</time></trkpt><trkpt lat="45.4626359" lon="11.5666582"><ele>327.0</ele><time>2026-05-03T11:12:19.076Z</time></trkpt><trkpt lat="45.462663" lon="11.5665582"><ele>327.0</ele><time>2026-05-03T11:12:20.077Z</time></trkpt><trkpt lat="45.4626807" lon="11.5664405"><ele>327.0</ele><time>2026-05-03T11:12:21.077Z</time></trkpt><trkpt lat="45.4626996" lon="11.5663095"><ele>327.0</ele><time>2026-05-03T11:12:22.076Z</time></trkpt><trkpt lat="45.4627145" lon="11.5661753"><ele>327.0</ele><time>2026-05-03T11:12:23.077Z</time></trkpt><trkpt lat="45.4627465" lon="11.5660521"><ele>327.0</ele><time>2026-05-03T11:12:24.077Z</time></trkpt><trkpt lat="45.4628012" lon="11.5659424"><ele>326.40000000000003</ele><time>2026-05-03T11:12:25.077Z</time></trkpt><trkpt lat="45.4628762" lon="11.5658461"><ele>325.8</ele><time>2026-05-03T11:12:26.077Z</time></trkpt><trkpt lat="45.4629658" lon="11.5657683"><ele>325.2</ele><time>2026-05-03T11:12:27.077Z</time></trkpt><trkpt lat="45.4630616" lon="11.5657111"><ele>324.6</ele><time>2026-05-03T11:12:28.077Z</time></trkpt><trkpt lat="45.4631614" lon="11.5656805"><ele>324.0</ele><time>2026-05-03T11:12:29.077Z</time></trkpt><trkpt lat="45.46326" lon="11.5656804"><ele>324.0</ele><time>2026-05-03T11:12:30.077Z</time></trkpt><trkpt lat="45.4633421" lon="11.5657122"><ele>324.0</ele><time>2026-05-03T11:12:31.077Z</time></trkpt><trkpt lat="45.4634111" lon="11.5657825"><ele>324.0</ele><time>2026-05-03T11:12:32.077Z</time></trkpt><trkpt lat="45.4634469" lon="11.5658835"><ele>324.0</ele><time>2026-05-03T11:12:33.077Z</time></trkpt><trkpt lat="45.4634546" lon="11.5660035"><ele>324.0</ele><time>2026-05-03T11:12:34.077Z</time></trkpt><trkpt lat="45.4634373" lon="11.5661268"><ele>324.0</ele><time>2026-05-03T11:12:35.077Z</time></trkpt><trkpt lat="45.4634163" lon="11.5662524"><ele>322.6666666666667</ele><time>2026-05-03T11:12:36.077Z</time></trkpt><trkpt lat="45.4633976" lon="11.5663807"><ele>321.3333333333333</ele><time>2026-05-03T11:12:37.077Z</time></trkpt><trkpt lat="45.4633818" lon="11.5665056"><ele>320.0</ele><time>2026-05-03T11:12:38.077Z</time></trkpt><trkpt lat="45.463387" lon="11.5666276"><ele>318.66666666666663</ele><time>2026-05-03T11:12:39.077Z</time></trkpt><trkpt lat="45.463419" lon="11.5667358"><ele>317.3333333333333</ele><time>2026-05-03T11:12:40.077Z</time></trkpt><trkpt lat="45.4634801" lon="11.56682"><ele>316.0</ele><time>2026-05-03T11:12:41.077Z</time></trkpt><trkpt lat="45.4635654" lon="11.5668799"><ele>316.0</ele><time>2026-05-03T11:12:42.077Z</time></trkpt><trkpt lat="45.4636666" lon="11.566933"><ele>316.0</ele><time>2026-05-03T11:12:43.077Z</time></trkpt><trkpt lat="45.4637733" lon="11.5669971"><ele>316.0</ele><time>2026-05-03T11:12:44.077Z</time></trkpt><trkpt lat="45.46388" lon="11.5670745"><ele>316.0</ele><time>2026-05-03T11:12:45.077Z</time></trkpt><trkpt lat="45.4639854" lon="11.5671575"><ele>313.0</ele><time>2026-05-03T11:12:46.077Z</time></trkpt><trkpt lat="45.464086" lon="11.5672392"><ele>310.0</ele><time>2026-05-03T11:12:47.077Z</time></trkpt><trkpt lat="45.4641824" lon="11.5673185"><ele>307.0</ele><time>2026-05-03T11:12:48.077Z</time></trkpt><trkpt lat="45.4642744" lon="11.5673932"><ele>304.0</ele><time>2026-05-03T11:12:49.077Z</time></trkpt><trkpt lat="45.4643556" lon="11.567462"><ele>301.0</ele><time>2026-05-03T11:12:50.077Z</time></trkpt><trkpt lat="45.464431" lon="11.5675263"><ele>301.0</ele><time>2026-05-03T11:12:51.077Z</time></trkpt><trkpt lat="45.4644966" lon="11.5675833"><ele>301.0</ele><time>2026-05-03T11:12:52.077Z</time></trkpt><trkpt lat="45.4645678" lon="11.5676149"><ele>301.0</ele><time>2026-05-03T11:12:53.077Z</time></trkpt><trkpt lat="45.4646373" lon="11.567597"><ele>301.0</ele><time>2026-05-03T11:12:54.077Z</time></trkpt><trkpt lat="45.4647017" lon="11.5675445"><ele>301.0</ele><time>2026-05-03T11:12:55.077Z</time></trkpt><trkpt lat="45.4647681" lon="11.5674612"><ele>301.0</ele><time>2026-05-03T11:12:56.077Z</time></trkpt><trkpt lat="45.4648375" lon="11.5673738"><ele>299.5</ele><time>2026-05-03T11:12:57.077Z</time></trkpt><trkpt lat="45.4649109" lon="11.5672874"><ele>298.0</ele><time>2026-05-03T11:12:58.077Z</time></trkpt><trkpt lat="45.4649868" lon="11.5672222"><ele>296.5</ele><time>2026-05-03T11:12:59.077Z</time></trkpt><trkpt lat="45.4650577" lon="11.5671736"><ele>295.0</ele><time>2026-05-03T11:13:00.077Z</time></trkpt><trkpt lat="45.4651289" lon="11.567132"><ele>293.5</ele><time>2026-05-03T11:13:01.077Z</time></trkpt><trkpt lat="45.4652027" lon="11.5671065"><ele>292.0</ele><time>2026-05-03T11:13:02.077Z</time></trkpt><trkpt lat="45.4652784" lon="11.5671035"><ele>292.0</ele><time>2026-05-03T11:13:03.077Z</time></trkpt><trkpt lat="45.4653596" lon="11.5671081"><ele>292.0</ele><time>2026-05-03T11:13:04.077Z</time></trkpt><trkpt lat="45.4654493" lon="11.5671114"><ele>292.0</ele><time>2026-05-03T11:13:05.077Z</time></trkpt><trkpt lat="45.4655506" lon="11.5671182"><ele>292.0</ele><time>2026-05-03T11:13:06.077Z</time></trkpt><trkpt lat="45.4656579" lon="11.5671228"><ele>292.0</ele><time>2026-05-03T11:13:07.076Z</time></trkpt><trkpt lat="45.4657699" lon="11.5671297"><ele>291.2</ele><time>2026-05-03T11:13:08.077Z</time></trkpt><trkpt lat="45.4658815" lon="11.5671352"><ele>290.4</ele><time>2026-05-03T11:13:09.077Z</time></trkpt><trkpt lat="45.4659926" lon="11.5671406"><ele>289.6</ele><time>2026-05-03T11:13:10.076Z</time></trkpt><trkpt lat="45.4661002" lon="11.5671569"><ele>288.8</ele><time>2026-05-03T11:13:11.077Z</time></trkpt><trkpt lat="45.4662015" lon="11.5671911"><ele>288.0</ele><time>2026-05-03T11:13:12.077Z</time></trkpt><trkpt lat="45.4662969" lon="11.5672413"><ele>287.8</ele><time>2026-05-03T11:13:13.077Z</time></trkpt><trkpt lat="45.4663895" lon="11.5672891"><ele>287.6</ele><time>2026-05-03T11:13:14.077Z</time></trkpt><trkpt lat="45.4664851" lon="11.5673274"><ele>287.4</ele><time>2026-05-03T11:13:15.077Z</time></trkpt><trkpt lat="45.4665848" lon="11.5673415"><ele>287.2</ele><time>2026-05-03T11:13:16.077Z</time></trkpt><trkpt lat="45.4666838" lon="11.5673221"><ele>287.0</ele><time>2026-05-03T11:13:17.077Z</time></trkpt><trkpt lat="45.4667838" lon="11.5672701"><ele>287.0</ele><time>2026-05-03T11:13:18.077Z</time></trkpt><trkpt lat="45.4668817" lon="11.5671977"><ele>287.0</ele><time>2026-05-03T11:13:19.077Z</time></trkpt><trkpt lat="45.466972" lon="11.5671084"><ele>287.0</ele><time>2026-05-03T11:13:20.077Z</time></trkpt><trkpt lat="45.4670509" lon="11.5670062"><ele>287.0</ele><time>2026-05-03T11:13:21.077Z</time></trkpt><trkpt lat="45.4671361" lon="11.5669131"><ele>287.0</ele><time>2026-05-03T11:13:22.077Z</time></trkpt><trkpt lat="45.4672394" lon="11.5668495"><ele>288.0</ele><time>2026-05-03T11:13:23.077Z</time></trkpt><trkpt lat="45.4673463" lon="11.5667965"><ele>289.0</ele><time>2026-05-03T11:13:24.077Z</time></trkpt><trkpt lat="45.4674595" lon="11.5667487"><ele>290.0</ele><time>2026-05-03T11:13:25.077Z</time></trkpt><trkpt lat="45.4675743" lon="11.5667035"><ele>291.0</ele><time>2026-05-03T11:13:26.077Z</time></trkpt><trkpt lat="45.4676885" lon="11.5666757"><ele>291.0</ele><time>2026-05-03T11:13:27.077Z</time></trkpt><trkpt lat="45.4677988" lon="11.5666799"><ele>291.0</ele><time>2026-05-03T11:13:28.077Z</time></trkpt><trkpt lat="45.4679016" lon="11.5667261"><ele>291.0</ele><time>2026-05-03T11:13:29.077Z</time></trkpt><trkpt lat="45.4679906" lon="11.5668059"><ele>291.0</ele><time>2026-05-03T11:13:30.077Z</time></trkpt><trkpt lat="45.4680638" lon="11.5669051"><ele>291.0</ele><time>2026-05-03T11:13:31.077Z</time></trkpt><trkpt lat="45.4681197" lon="11.567022"><ele>292.40000000000003</ele><time>2026-05-03T11:13:32.077Z</time></trkpt><trkpt lat="45.4681545" lon="11.567153"><ele>293.8</ele><time>2026-05-03T11:13:33.077Z</time></trkpt><trkpt lat="45.4681822" lon="11.5672899"><ele>295.20000000000005</ele><time>2026-05-03T11:13:34.077Z</time></trkpt><trkpt lat="45.4682092" lon="11.5674365"><ele>296.6</ele><time>2026-05-03T11:13:35.077Z</time></trkpt><trkpt lat="45.4682347" lon="11.5675929"><ele>298.0</ele><time>2026-05-03T11:13:36.077Z</time></trkpt><trkpt lat="45.468265" lon="11.5677575"><ele>296.0</ele><time>2026-05-03T11:13:37.077Z</time></trkpt><trkpt lat="45.4683005" lon="11.5679304"><ele>294.0</ele><time>2026-05-03T11:13:38.077Z</time></trkpt><trkpt lat="45.4683509" lon="11.5681127"><ele>292.0</ele><time>2026-05-03T11:13:39.077Z</time></trkpt><trkpt lat="45.4684209" lon="11.5682877"><ele>290.0</ele><time>2026-05-03T11:13:40.077Z</time></trkpt><trkpt lat="45.4685062" lon="11.5684544"><ele>290.0</ele><time>2026-05-03T11:13:41.077Z</time></trkpt><trkpt lat="45.4685982" lon="11.5686158"><ele>290.0</ele><time>2026-05-03T11:13:42.077Z</time></trkpt><trkpt lat="45.4686887" lon="11.5687743"><ele>290.0</ele><time>2026-05-03T11:13:43.077Z</time></trkpt><trkpt lat="45.4687729" lon="11.5689253"><ele>290.0</ele><time>2026-05-03T11:13:44.077Z</time></trkpt><trkpt lat="45.4688564" lon="11.5690568"><ele>291.25</ele><time>2026-05-03T11:13:45.077Z</time></trkpt><trkpt lat="45.4689546" lon="11.5691521"><ele>292.5</ele><time>2026-05-03T11:13:46.077Z</time></trkpt><trkpt lat="45.4690661" lon="11.5692111"><ele>293.75</ele><time>2026-05-03T11:13:47.077Z</time></trkpt><trkpt lat="45.4691833" lon="11.5692469"><ele>295.0</ele><time>2026-05-03T11:13:48.077Z</time></trkpt><trkpt lat="45.4692915" lon="11.5692772"><ele>295.0</ele><time>2026-05-03T11:13:49.077Z</time></trkpt><trkpt lat="45.4693932" lon="11.569309"><ele>295.0</ele><time>2026-05-03T11:13:50.077Z</time></trkpt><trkpt lat="45.4694846" lon="11.5693633"><ele>295.0</ele><time>2026-05-03T11:13:51.076Z</time></trkpt><trkpt lat="45.4695674" lon="11.5694409"><ele>295.0</ele><time>2026-05-03T11:13:52.077Z</time></trkpt><trkpt lat="45.4696336" lon="11.5695312"><ele>295.0</ele><time>2026-05-03T11:13:53.077Z</time></trkpt><trkpt lat="45.4696768" lon="11.5696398"><ele>293.6</ele><time>2026-05-03T11:13:54.077Z</time></trkpt><trkpt lat="45.4697147" lon="11.5697554"><ele>292.2</ele><time>2026-05-03T11:13:55.077Z</time></trkpt><trkpt lat="45.4697535" lon="11.5698753"><ele>290.8</ele><time>2026-05-03T11:13:56.077Z</time></trkpt><trkpt lat="45.4697951" lon="11.5699993"><ele>289.4</ele><time>2026-05-03T11:13:57.077Z</time></trkpt><trkpt lat="45.4698416" lon="11.570126"><ele>288.0</ele><time>2026-05-03T11:13:58.077Z</time></trkpt><trkpt lat="45.4698904" lon="11.5702487"><ele>289.4</ele><time>2026-05-03T11:13:59.077Z</time></trkpt><trkpt lat="45.4699443" lon="11.5703767"><ele>290.8</ele><time>2026-05-03T11:14:00.077Z</time></trkpt><trkpt lat="45.4700051" lon="11.570506"><ele>292.2</ele><time>2026-05-03T11:14:01.077Z</time></trkpt><trkpt lat="45.4700724" lon="11.5706316"><ele>293.6</ele><time>2026-05-03T11:14:02.077Z</time></trkpt><trkpt lat="45.4701437" lon="11.5707472"><ele>295.0</ele><time>2026-05-03T11:14:03.077Z</time></trkpt><trkpt lat="45.4702197" lon="11.5708525"><ele>295.0</ele><time>2026-05-03T11:14:04.077Z</time></trkpt><trkpt lat="45.470295" lon="11.5709494"><ele>295.0</ele><time>2026-05-03T11:14:05.077Z</time></trkpt><trkpt lat="45.4703712" lon="11.5710301"><ele>295.0</ele><time>2026-05-03T11:14:06.077Z</time></trkpt><trkpt lat="45.4704382" lon="11.5711074"><ele>295.0</ele><time>2026-05-03T11:14:07.077Z</time></trkpt><trkpt lat="45.4704921" lon="11.5712026"><ele>295.0</ele><time>2026-05-03T11:14:08.077Z</time></trkpt><trkpt lat="45.4705275" lon="11.5713046"><ele>295.0</ele><time>2026-05-03T11:14:09.077Z</time></trkpt><trkpt lat="45.4705485" lon="11.5714191"><ele>293.16666666666663</ele><time>2026-05-03T11:14:10.077Z</time></trkpt><trkpt lat="45.4705641" lon="11.5715377"><ele>291.3333333333333</ele><time>2026-05-03T11:14:11.077Z</time></trkpt><trkpt lat="45.4705813" lon="11.5716574"><ele>289.5</ele><time>2026-05-03T11:14:12.076Z</time></trkpt><trkpt lat="45.4706027" lon="11.5717703"><ele>287.6666666666667</ele><time>2026-05-03T11:14:13.077Z</time></trkpt><trkpt lat="45.470633" lon="11.5718805"><ele>285.83333333333337</ele><time>2026-05-03T11:14:14.077Z</time></trkpt><trkpt lat="45.4706825" lon="11.5719795"><ele>284.0</ele><time>2026-05-03T11:14:15.077Z</time></trkpt><trkpt lat="45.4707473" lon="11.5720612"><ele>284.0</ele><time>2026-05-03T11:14:16.077Z</time></trkpt><trkpt lat="45.4708199" lon="11.5721302"><ele>284.0</ele><time>2026-05-03T11:14:17.077Z</time></trkpt><trkpt lat="45.4708986" lon="11.5721917"><ele>284.0</ele><time>2026-05-03T11:14:18.077Z</time></trkpt><trkpt lat="45.470984" lon="11.5722482"><ele>284.0</ele><time>2026-05-03T11:14:19.076Z</time></trkpt><trkpt lat="45.4710839" lon="11.5723052"><ele>284.0</ele><time>2026-05-03T11:14:20.076Z</time></trkpt><trkpt lat="45.4711691" lon="11.572358"><ele>282.0</ele><time>2026-05-03T11:14:21.076Z</time></trkpt><trkpt lat="45.4712775" lon="11.5724201"><ele>280.0</ele><time>2026-05-03T11:14:22.077Z</time></trkpt><trkpt lat="45.4713782" lon="11.5724821"><ele>278.0</ele><time>2026-05-03T11:14:23.077Z</time></trkpt><trkpt lat="45.4714672" lon="11.5725678"><ele>276.0</ele><time>2026-05-03T11:14:24.077Z</time></trkpt><trkpt lat="45.4715531" lon="11.5726586"><ele>274.0</ele><time>2026-05-03T11:14:25.077Z</time></trkpt><trkpt lat="45.4716459" lon="11.5727405"><ele>274.0</ele><time>2026-05-03T11:14:26.077Z</time></trkpt><trkpt lat="45.4717496" lon="11.5728037"><ele>274.0</ele><time>2026-05-03T11:14:27.077Z</time></trkpt><trkpt lat="45.4718632" lon="11.5728542"><ele>274.0</ele><time>2026-05-03T11:14:28.077Z</time></trkpt><trkpt lat="45.4719761" lon="11.5729032"><ele>274.0</ele><time>2026-05-03T11:14:29.077Z</time></trkpt><trkpt lat="45.4720907" lon="11.5729494"><ele>272.5</ele><time>2026-05-03T11:14:30.077Z</time></trkpt><trkpt lat="45.4722052" lon="11.5729821"><ele>271.0</ele><time>2026-05-03T11:14:31.077Z</time></trkpt><trkpt lat="45.4723224" lon="11.5729852"><ele>269.5</ele><time>2026-05-03T11:14:32.077Z</time></trkpt><trkpt lat="45.4724357" lon="11.5729536"><ele>268.0</ele><time>2026-05-03T11:14:33.077Z</time></trkpt><trkpt lat="45.472541" lon="11.5729229"><ele>268.0</ele><time>2026-05-03T11:14:34.077Z</time></trkpt><trkpt lat="45.4726481" lon="11.5729062"><ele>268.0</ele><time>2026-05-03T11:14:35.077Z</time></trkpt><trkpt lat="45.4727533" lon="11.5729216"><ele>268.0</ele><time>2026-05-03T11:14:36.077Z</time></trkpt><trkpt lat="45.4728561" lon="11.572966"><ele>268.0</ele><time>2026-05-03T11:14:37.077Z</time></trkpt><trkpt lat="45.4729587" lon="11.5730138"><ele>268.0</ele><time>2026-05-03T11:14:38.077Z</time></trkpt><trkpt lat="45.47306" lon="11.5730544"><ele>268.0</ele><time>2026-05-03T11:14:39.077Z</time></trkpt><trkpt lat="45.4731502" lon="11.5730897"><ele>268.0</ele><time>2026-05-03T11:14:40.077Z</time></trkpt><trkpt lat="45.4732358" lon="11.5731398"><ele>268.0</ele><time>2026-05-03T11:14:41.077Z</time></trkpt><trkpt lat="45.4733127" lon="11.5732218"><ele>268.0</ele><time>2026-05-03T11:14:42.077Z</time></trkpt><trkpt lat="45.4733776" lon="11.5733278"><ele>268.0</ele><time>2026-05-03T11:14:43.077Z</time></trkpt><trkpt lat="45.4734421" lon="11.5734383"><ele>268.0</ele><time>2026-05-03T11:14:44.077Z</time></trkpt><trkpt lat="45.4735137" lon="11.5735349"><ele>268.0</ele><time>2026-05-03T11:14:45.077Z</time></trkpt><trkpt lat="45.4736011" lon="11.5736063"><ele>268.0</ele><time>2026-05-03T11:14:46.077Z</time></trkpt><trkpt lat="45.4736928" lon="11.5736575"><ele>268.0</ele><time>2026-05-03T11:14:47.077Z</time></trkpt><trkpt lat="45.4737744" lon="11.5736932"><ele>268.0</ele><time>2026-05-03T11:14:48.077Z</time></trkpt><trkpt lat="45.4738359" lon="11.5737159"><ele>268.0</ele><time>2026-05-03T11:14:49.077Z</time></trkpt><trkpt lat="45.4739189" lon="11.573746"><ele>267.3333333333333</ele><time>2026-05-03T11:14:51.077Z</time></trkpt><trkpt lat="45.4739939" lon="11.57372"><ele>266.66666666666663</ele><time>2026-05-03T11:14:53.077Z</time></trkpt><trkpt lat="45.4740291" lon="11.5735982"><ele>266.0</ele><time>2026-05-03T11:14:55.077Z</time></trkpt><trkpt lat="45.4740632" lon="11.573433"><ele>265.3333333333333</ele><time>2026-05-03T11:14:57.077Z</time></trkpt><trkpt lat="45.4740913" lon="11.5733366"><ele>264.6666666666667</ele><time>2026-05-03T11:14:58.077Z</time></trkpt><trkpt lat="45.4741278" lon="11.5732362"><ele>264.0</ele><time>2026-05-03T11:14:59.077Z</time></trkpt><trkpt lat="45.4741701" lon="11.5731319"><ele>264.0</ele><time>2026-05-03T11:15:00.077Z</time></trkpt><trkpt lat="45.4742197" lon="11.573028"><ele>264.0</ele><time>2026-05-03T11:15:01.077Z</time></trkpt><trkpt lat="45.4742755" lon="11.5729265"><ele>264.0</ele><time>2026-05-03T11:15:02.077Z</time></trkpt><trkpt lat="45.4743423" lon="11.5728363"><ele>264.0</ele><time>2026-05-03T11:15:03.077Z</time></trkpt><trkpt lat="45.4744219" lon="11.5727617"><ele>264.0</ele><time>2026-05-03T11:15:04.077Z</time></trkpt><trkpt lat="45.4745106" lon="11.5727063"><ele>263.4</ele><time>2026-05-03T11:15:05.077Z</time></trkpt><trkpt lat="45.4746135" lon="11.5726781"><ele>262.79999999999995</ele><time>2026-05-03T11:15:06.077Z</time></trkpt><trkpt lat="45.4747139" lon="11.572685"><ele>262.20000000000005</ele><time>2026-05-03T11:15:07.077Z</time></trkpt><trkpt lat="45.4748119" lon="11.5727355"><ele>261.6</ele><time>2026-05-03T11:15:08.077Z</time></trkpt><trkpt lat="45.4749022" lon="11.5728201"><ele>261.0</ele><time>2026-05-03T11:15:09.077Z</time></trkpt><trkpt lat="45.4749863" lon="11.5729149"><ele>259.0</ele><time>2026-05-03T11:15:10.077Z</time></trkpt><trkpt lat="45.4750793" lon="11.5729862"><ele>257.0</ele><time>2026-05-03T11:15:11.077Z</time></trkpt><trkpt lat="45.4751701" lon="11.5730659"><ele>255.00000000000003</ele><time>2026-05-03T11:15:12.077Z</time></trkpt><trkpt lat="45.4752815" lon="11.5730324"><ele>253.0</ele><time>2026-05-03T11:15:13.077Z</time></trkpt><trkpt lat="45.4753855" lon="11.5729812"><ele>251.0</ele><time>2026-05-03T11:15:14.077Z</time></trkpt><trkpt lat="45.4754953" lon="11.5729352"><ele>249.8</ele><time>2026-05-03T11:15:15.077Z</time></trkpt><trkpt lat="45.4756089" lon="11.5729026"><ele>248.60000000000002</ele><time>2026-05-03T11:15:16.077Z</time></trkpt><trkpt lat="45.475724" lon="11.5728938"><ele>247.4</ele><time>2026-05-03T11:15:17.077Z</time></trkpt><trkpt lat="45.4758228" lon="11.5729215"><ele>246.2</ele><time>2026-05-03T11:15:18.077Z</time></trkpt><trkpt lat="45.4759184" lon="11.5729943"><ele>245.0</ele><time>2026-05-03T11:15:19.077Z</time></trkpt><trkpt lat="45.4759908" lon="11.5730925"><ele>245.0</ele><time>2026-05-03T11:15:20.077Z</time></trkpt><trkpt lat="45.4760462" lon="11.5731991"><ele>245.0</ele><time>2026-05-03T11:15:21.077Z</time></trkpt><trkpt lat="45.4761202" lon="11.5732902"><ele>245.0</ele><time>2026-05-03T11:15:22.077Z</time></trkpt><trkpt lat="45.4762092" lon="11.5733399"><ele>245.0</ele><time>2026-05-03T11:15:23.077Z</time></trkpt><trkpt lat="45.4763125" lon="11.573358"><ele>245.0</ele><time>2026-05-03T11:15:24.077Z</time></trkpt><trkpt lat="45.4764213" lon="11.5733491"><ele>242.5</ele><time>2026-05-03T11:15:25.077Z</time></trkpt><trkpt lat="45.4765365" lon="11.5733246"><ele>240.0</ele><time>2026-05-03T11:15:26.077Z</time></trkpt><trkpt lat="45.4766558" lon="11.5733061"><ele>237.5</ele><time>2026-05-03T11:15:27.077Z</time></trkpt><trkpt lat="45.4767787" lon="11.5732935"><ele>235.0</ele><time>2026-05-03T11:15:28.077Z</time></trkpt><trkpt lat="45.4769039" lon="11.5732849"><ele>235.0</ele><time>2026-05-03T11:15:29.077Z</time></trkpt><trkpt lat="45.4770297" lon="11.5732831"><ele>235.0</ele><time>2026-05-03T11:15:30.077Z</time></trkpt><trkpt lat="45.4771521" lon="11.573277"><ele>235.0</ele><time>2026-05-03T11:15:31.077Z</time></trkpt><trkpt lat="45.4772736" lon="11.5732631"><ele>235.0</ele><time>2026-05-03T11:15:32.077Z</time></trkpt><trkpt lat="45.4773945" lon="11.5732415"><ele>233.75</ele><time>2026-05-03T11:15:33.077Z</time></trkpt><trkpt lat="45.4775189" lon="11.5732206"><ele>232.5</ele><time>2026-05-03T11:15:34.077Z</time></trkpt><trkpt lat="45.4776476" lon="11.5732045"><ele>231.25</ele><time>2026-05-03T11:15:35.077Z</time></trkpt><trkpt lat="45.4777763" lon="11.5731936"><ele>230.0</ele><time>2026-05-03T11:15:36.077Z</time></trkpt><trkpt lat="45.4779067" lon="11.5732011"><ele>227.5</ele><time>2026-05-03T11:15:37.077Z</time></trkpt><trkpt lat="45.478034" lon="11.5732277"><ele>225.0</ele><time>2026-05-03T11:15:38.077Z</time></trkpt><trkpt lat="45.4781581" lon="11.5732578"><ele>222.5</ele><time>2026-05-03T11:15:39.077Z</time></trkpt><trkpt lat="45.4782752" lon="11.5732832"><ele>220.0</ele><time>2026-05-03T11:15:40.077Z</time></trkpt><trkpt lat="45.4783881" lon="11.5733016"><ele>220.0</ele><time>2026-05-03T11:15:41.077Z</time></trkpt><trkpt lat="45.4784953" lon="11.5733246"><ele>220.0</ele><time>2026-05-03T11:15:42.077Z</time></trkpt><trkpt lat="45.4785955" lon="11.5733648"><ele>220.0</ele><time>2026-05-03T11:15:43.077Z</time></trkpt><trkpt lat="45.478683" lon="11.5734326"><ele>220.0</ele><time>2026-05-03T11:15:44.077Z</time></trkpt><trkpt lat="45.4787652" lon="11.5735245"><ele>220.0</ele><time>2026-05-03T11:15:45.077Z</time></trkpt><trkpt lat="45.478843" lon="11.5736209"><ele>218.6</ele><time>2026-05-03T11:15:46.077Z</time></trkpt><trkpt lat="45.4789131" lon="11.5737238"><ele>217.2</ele><time>2026-05-03T11:15:47.077Z</time></trkpt><trkpt lat="45.4789745" lon="11.5738346"><ele>215.8</ele><time>2026-05-03T11:15:48.077Z</time></trkpt><trkpt lat="45.4790289" lon="11.5739591"><ele>214.4</ele><time>2026-05-03T11:15:49.077Z</time></trkpt><trkpt lat="45.4790765" lon="11.5741025"><ele>213.0</ele><time>2026-05-03T11:15:50.077Z</time></trkpt><trkpt lat="45.4791201" lon="11.574254"><ele>213.0</ele><time>2026-05-03T11:15:51.077Z</time></trkpt><trkpt lat="45.4791566" lon="11.5744155"><ele>213.0</ele><time>2026-05-03T11:15:52.077Z</time></trkpt><trkpt lat="45.479187" lon="11.5745785"><ele>213.0</ele><time>2026-05-03T11:15:53.077Z</time></trkpt><trkpt lat="45.479223" lon="11.5747325"><ele>213.0</ele><time>2026-05-03T11:15:54.077Z</time></trkpt><trkpt lat="45.4792711" lon="11.5748769"><ele>213.0</ele><time>2026-05-03T11:15:55.077Z</time></trkpt><trkpt lat="45.4793335" lon="11.5750049"><ele>213.0</ele><time>2026-05-03T11:15:56.077Z</time></trkpt><trkpt lat="45.4794134" lon="11.5751123"><ele>213.0</ele><time>2026-05-03T11:15:57.077Z</time></trkpt><trkpt lat="45.4795068" lon="11.5751889"><ele>213.0</ele><time>2026-05-03T11:15:58.077Z</time></trkpt><trkpt lat="45.4796073" lon="11.5752396"><ele>213.0</ele><time>2026-05-03T11:15:59.077Z</time></trkpt><trkpt lat="45.479714" lon="11.5752521"><ele>211.4</ele><time>2026-05-03T11:16:00.076Z</time></trkpt><trkpt lat="45.47982" lon="11.5752412"><ele>209.8</ele><time>2026-05-03T11:16:01.077Z</time></trkpt><trkpt lat="45.4799275" lon="11.5752372"><ele>208.2</ele><time>2026-05-03T11:16:02.077Z</time></trkpt><trkpt lat="45.4800343" lon="11.5752571"><ele>206.6</ele><time>2026-05-03T11:16:03.077Z</time></trkpt><trkpt lat="45.4801339" lon="11.5752953"><ele>205.0</ele><time>2026-05-03T11:16:04.077Z</time></trkpt><trkpt lat="45.4802161" lon="11.575346"><ele>205.2</ele><time>2026-05-03T11:16:05.077Z</time></trkpt><trkpt lat="45.4802912" lon="11.5754153"><ele>205.4</ele><time>2026-05-03T11:16:06.077Z</time></trkpt><trkpt lat="45.4803586" lon="11.5755106"><ele>205.60000000000002</ele><time>2026-05-03T11:16:07.077Z</time></trkpt><trkpt lat="45.4804106" lon="11.5756337"><ele>205.8</ele><time>2026-05-03T11:16:08.077Z</time></trkpt><trkpt lat="45.4804543" lon="11.5757796"><ele>206.0</ele><time>2026-05-03T11:16:09.077Z</time></trkpt><trkpt lat="45.4805054" lon="11.5759266"><ele>206.0</ele><time>2026-05-03T11:16:10.077Z</time></trkpt><trkpt lat="45.4805804" lon="11.5760557"><ele>206.0</ele><time>2026-05-03T11:16:11.076Z</time></trkpt><trkpt lat="45.4806691" lon="11.5761673"><ele>206.0</ele><time>2026-05-03T11:16:12.077Z</time></trkpt><trkpt lat="45.4807714" lon="11.5762594"><ele>206.0</ele><time>2026-05-03T11:16:13.077Z</time></trkpt><trkpt lat="45.4808875" lon="11.5763356"><ele>208.25</ele><time>2026-05-03T11:16:14.077Z</time></trkpt><trkpt lat="45.4810022" lon="11.5764138"><ele>210.5</ele><time>2026-05-03T11:16:15.077Z</time></trkpt><trkpt lat="45.4811011" lon="11.5765171"><ele>212.75</ele><time>2026-05-03T11:16:16.077Z</time></trkpt><trkpt lat="45.4811931" lon="11.5766272"><ele>215.0</ele><time>2026-05-03T11:16:17.077Z</time></trkpt><trkpt lat="45.4812825" lon="11.5767392"><ele>212.25</ele><time>2026-05-03T11:16:18.077Z</time></trkpt><trkpt lat="45.4813684" lon="11.5768541"><ele>209.5</ele><time>2026-05-03T11:16:19.077Z</time></trkpt><trkpt lat="45.4814526" lon="11.5769628"><ele>206.75</ele><time>2026-05-03T11:16:20.077Z</time></trkpt><trkpt lat="45.4815383" lon="11.5770649"><ele>204.0</ele><time>2026-05-03T11:16:21.077Z</time></trkpt><trkpt lat="45.481622" lon="11.5771625"><ele>204.0</ele><time>2026-05-03T11:16:22.076Z</time></trkpt><trkpt lat="45.4817006" lon="11.5772612"><ele>204.0</ele><time>2026-05-03T11:16:23.077Z</time></trkpt><trkpt lat="45.4817733" lon="11.5773654"><ele>204.0</ele><time>2026-05-03T11:16:24.077Z</time></trkpt><trkpt lat="45.4818371" lon="11.5774779"><ele>204.0</ele><time>2026-05-03T11:16:25.077Z</time></trkpt><trkpt lat="45.4818942" lon="11.5776028"><ele>204.0</ele><time>2026-05-03T11:16:26.077Z</time></trkpt><trkpt lat="45.4819401" lon="11.5777417"><ele>204.6</ele><time>2026-05-03T11:16:27.077Z</time></trkpt><trkpt lat="45.4819768" lon="11.5778889"><ele>205.2</ele><time>2026-05-03T11:16:28.077Z</time></trkpt><trkpt lat="45.4820039" lon="11.5780418"><ele>205.79999999999998</ele><time>2026-05-03T11:16:29.077Z</time></trkpt><trkpt lat="45.4820312" lon="11.5781935"><ele>206.39999999999998</ele><time>2026-05-03T11:16:30.077Z</time></trkpt><trkpt lat="45.4820597" lon="11.5783397"><ele>207.0</ele><time>2026-05-03T11:16:31.077Z</time></trkpt><trkpt lat="45.4820958" lon="11.5784772"><ele>205.0</ele><time>2026-05-03T11:16:32.077Z</time></trkpt><trkpt lat="45.4821412" lon="11.5786019"><ele>203.0</ele><time>2026-05-03T11:16:33.077Z</time></trkpt><trkpt lat="45.4821995" lon="11.5787125"><ele>201.0</ele><time>2026-05-03T11:16:34.077Z</time></trkpt><trkpt lat="45.4822763" lon="11.5788022"><ele>199.0</ele><time>2026-05-03T11:16:35.077Z</time></trkpt><trkpt lat="45.4823735" lon="11.5788669"><ele>197.0</ele><time>2026-05-03T11:16:36.077Z</time></trkpt><trkpt lat="45.4824802" lon="11.5789227"><ele>197.0</ele><time>2026-05-03T11:16:37.077Z</time></trkpt><trkpt lat="45.4825917" lon="11.5789645"><ele>197.0</ele><time>2026-05-03T11:16:38.077Z</time></trkpt><trkpt lat="45.4827047" lon="11.5790023"><ele>197.0</ele><time>2026-05-03T11:16:39.077Z</time></trkpt><trkpt lat="45.4828185" lon="11.5790381"><ele>197.0</ele><time>2026-05-03T11:16:40.077Z</time></trkpt><trkpt lat="45.4829261" lon="11.5790725"><ele>194.0</ele><time>2026-05-03T11:16:41.077Z</time></trkpt><trkpt lat="45.4830322" lon="11.5791053"><ele>191.0</ele><time>2026-05-03T11:16:42.077Z</time></trkpt><trkpt lat="45.4831263" lon="11.5791338"><ele>188.0</ele><time>2026-05-03T11:16:43.077Z</time></trkpt><trkpt lat="45.4832198" lon="11.5791356"><ele>185.0</ele><time>2026-05-03T11:16:44.077Z</time></trkpt><trkpt lat="45.4833095" lon="11.5790994"><ele>182.0</ele><time>2026-05-03T11:16:45.077Z</time></trkpt><trkpt lat="45.4833991" lon="11.5790263"><ele>182.0</ele><time>2026-05-03T11:16:46.077Z</time></trkpt><trkpt lat="45.4834809" lon="11.5789279"><ele>182.0</ele><time>2026-05-03T11:16:47.077Z</time></trkpt><trkpt lat="45.4835592" lon="11.5788204"><ele>182.0</ele><time>2026-05-03T11:16:48.077Z</time></trkpt><trkpt lat="45.4836445" lon="11.5787139"><ele>182.0</ele><time>2026-05-03T11:16:49.077Z</time></trkpt><trkpt lat="45.4837393" lon="11.5786241"><ele>182.0</ele><time>2026-05-03T11:16:50.077Z</time></trkpt><trkpt lat="45.4838389" lon="11.5785496"><ele>180.5</ele><time>2026-05-03T11:16:51.077Z</time></trkpt><trkpt lat="45.4839412" lon="11.5784818"><ele>179.0</ele><time>2026-05-03T11:16:52.077Z</time></trkpt><trkpt lat="45.4840414" lon="11.578414"><ele>177.5</ele><time>2026-05-03T11:16:53.077Z</time></trkpt><trkpt lat="45.4841415" lon="11.5783406"><ele>176.0</ele><time>2026-05-03T11:16:54.077Z</time></trkpt><trkpt lat="45.4842428" lon="11.578255"><ele>176.0</ele><time>2026-05-03T11:16:55.077Z</time></trkpt><trkpt lat="45.4843413" lon="11.5781715"><ele>176.0</ele><time>2026-05-03T11:16:56.077Z</time></trkpt><trkpt lat="45.484441" lon="11.578087"><ele>176.0</ele><time>2026-05-03T11:16:57.077Z</time></trkpt><trkpt lat="45.4845416" lon="11.5780041"><ele>176.0</ele><time>2026-05-03T11:16:58.077Z</time></trkpt><trkpt lat="45.4846363" lon="11.5779299"><ele>176.60000000000002</ele><time>2026-05-03T11:16:59.077Z</time></trkpt><trkpt lat="45.4847352" lon="11.5778992"><ele>177.2</ele><time>2026-05-03T11:17:00.077Z</time></trkpt><trkpt lat="45.4848294" lon="11.5778891"><ele>177.8</ele><time>2026-05-03T11:17:01.077Z</time></trkpt><trkpt lat="45.4849237" lon="11.5779071"><ele>178.39999999999998</ele><time>2026-05-03T11:17:02.077Z</time></trkpt><trkpt lat="45.4850247" lon="11.5779413"><ele>179.0</ele><time>2026-05-03T11:17:03.077Z</time></trkpt><trkpt lat="45.4851292" lon="11.5779775"><ele>179.0</ele><time>2026-05-03T11:17:04.077Z</time></trkpt><trkpt lat="45.4852381" lon="11.5780078"><ele>179.0</ele><time>2026-05-03T11:17:05.077Z</time></trkpt><trkpt lat="45.485349" lon="11.5780217"><ele>179.0</ele><time>2026-05-03T11:17:06.077Z</time></trkpt><trkpt lat="45.4854657" lon="11.5780114"><ele>179.0</ele><time>2026-05-03T11:17:07.077Z</time></trkpt><trkpt lat="45.4855804" lon="11.5779886"><ele>179.5</ele><time>2026-05-03T11:17:08.077Z</time></trkpt><trkpt lat="45.4856992" lon="11.577954"><ele>180.0</ele><time>2026-05-03T11:17:09.077Z</time></trkpt><trkpt lat="45.4858174" lon="11.5779135"><ele>180.5</ele><time>2026-05-03T11:17:10.077Z</time></trkpt><trkpt lat="45.4859291" lon="11.5778698"><ele>181.0</ele><time>2026-05-03T11:17:11.077Z</time></trkpt><trkpt lat="45.4860239" lon="11.5777966"><ele>180.0</ele><time>2026-05-03T11:17:12.077Z</time></trkpt><trkpt lat="45.4861128" lon="11.5777022"><ele>179.0</ele><time>2026-05-03T11:17:13.077Z</time></trkpt><trkpt lat="45.4861991" lon="11.5775978"><ele>178.0</ele><time>2026-05-03T11:17:14.077Z</time></trkpt><trkpt lat="45.4862874" lon="11.5775013"><ele>177.0</ele><time>2026-05-03T11:17:15.077Z</time></trkpt><trkpt lat="45.486377" lon="11.5774084"><ele>176.0</ele><time>2026-05-03T11:17:16.077Z</time></trkpt><trkpt lat="45.4864888" lon="11.5773487"><ele>176.0</ele><time>2026-05-03T11:17:17.077Z</time></trkpt><trkpt lat="45.4866022" lon="11.5773042"><ele>176.0</ele><time>2026-05-03T11:17:18.077Z</time></trkpt><trkpt lat="45.4867181" lon="11.5772718"><ele>176.0</ele><time>2026-05-03T11:17:19.077Z</time></trkpt><trkpt lat="45.4868313" lon="11.5772533"><ele>176.0</ele><time>2026-05-03T11:17:20.077Z</time></trkpt><trkpt lat="45.4869464" lon="11.5772611"><ele>176.0</ele><time>2026-05-03T11:17:21.077Z</time></trkpt><trkpt lat="45.4870622" lon="11.5772826"><ele>176.0</ele><time>2026-05-03T11:17:22.077Z</time></trkpt><trkpt lat="45.4871792" lon="11.5773111"><ele>176.0</ele><time>2026-05-03T11:17:23.077Z</time></trkpt><trkpt lat="45.4872928" lon="11.5773289"><ele>176.0</ele><time>2026-05-03T11:17:24.077Z</time></trkpt><trkpt lat="45.4874047" lon="11.5773328"><ele>174.0</ele><time>2026-05-03T11:17:25.077Z</time></trkpt><trkpt lat="45.4875194" lon="11.5773228"><ele>172.0</ele><time>2026-05-03T11:17:26.077Z</time></trkpt><trkpt lat="45.487637" lon="11.5772863"><ele>170.0</ele><time>2026-05-03T11:17:27.077Z</time></trkpt><trkpt lat="45.4877584" lon="11.5772249"><ele>168.0</ele><time>2026-05-03T11:17:28.077Z</time></trkpt><trkpt lat="45.487882" lon="11.5771508"><ele>165.5</ele><time>2026-05-03T11:17:29.077Z</time></trkpt><trkpt lat="45.4880116" lon="11.5770795"><ele>163.0</ele><time>2026-05-03T11:17:30.077Z</time></trkpt><trkpt lat="45.4881492" lon="11.5770002"><ele>160.5</ele><time>2026-05-03T11:17:31.077Z</time></trkpt><trkpt lat="45.4882864" lon="11.5769203"><ele>158.0</ele><time>2026-05-03T11:17:32.077Z</time></trkpt><trkpt lat="45.4884189" lon="11.5768452"><ele>157.5</ele><time>2026-05-03T11:17:33.077Z</time></trkpt><trkpt lat="45.4885404" lon="11.5767551"><ele>157.0</ele><time>2026-05-03T11:17:34.077Z</time></trkpt><trkpt lat="45.4886535" lon="11.5766457"><ele>156.5</ele><time>2026-05-03T11:17:35.077Z</time></trkpt><trkpt lat="45.4887604" lon="11.5765233"><ele>156.0</ele><time>2026-05-03T11:17:36.077Z</time></trkpt><trkpt lat="45.4888594" lon="11.5763904"><ele>156.0</ele><time>2026-05-03T11:17:37.077Z</time></trkpt><trkpt lat="45.4889491" lon="11.5762444"><ele>156.0</ele><time>2026-05-03T11:17:38.077Z</time></trkpt><trkpt lat="45.4890237" lon="11.5760946"><ele>156.0</ele><time>2026-05-03T11:17:39.077Z</time></trkpt><trkpt lat="45.4890974" lon="11.5759472"><ele>156.0</ele><time>2026-05-03T11:17:40.077Z</time></trkpt><trkpt lat="45.4891726" lon="11.5758115"><ele>155.75</ele><time>2026-05-03T11:17:41.077Z</time></trkpt><trkpt lat="45.4892496" lon="11.575676"><ele>155.5</ele><time>2026-05-03T11:17:42.077Z</time></trkpt><trkpt lat="45.4893316" lon="11.5755563"><ele>155.25</ele><time>2026-05-03T11:17:43.077Z</time></trkpt><trkpt lat="45.4894229" lon="11.5754572"><ele>155.0</ele><time>2026-05-03T11:17:44.076Z</time></trkpt><trkpt lat="45.4895256" lon="11.575381"><ele>154.5</ele><time>2026-05-03T11:17:45.077Z</time></trkpt><trkpt lat="45.4896387" lon="11.5753103"><ele>154.0</ele><time>2026-05-03T11:17:46.077Z</time></trkpt><trkpt lat="45.4897549" lon="11.5752433"><ele>153.5</ele><time>2026-05-03T11:17:47.077Z</time></trkpt><trkpt lat="45.4898744" lon="11.5751858"><ele>153.0</ele><time>2026-05-03T11:17:48.077Z</time></trkpt><trkpt lat="45.4899955" lon="11.575143"><ele>153.0</ele><time>2026-05-03T11:17:49.077Z</time></trkpt><trkpt lat="45.4901133" lon="11.575112"><ele>153.0</ele><time>2026-05-03T11:17:50.077Z</time></trkpt><trkpt lat="45.4902304" lon="11.5750848"><ele>153.0</ele><time>2026-05-03T11:17:51.077Z</time></trkpt><trkpt lat="45.4903472" lon="11.5750579"><ele>153.0</ele><time>2026-05-03T11:17:52.077Z</time></trkpt><trkpt lat="45.4904625" lon="11.5750328"><ele>152.25</ele><time>2026-05-03T11:17:53.077Z</time></trkpt><trkpt lat="45.4905799" lon="11.5749921"><ele>151.5</ele><time>2026-05-03T11:17:54.077Z</time></trkpt><trkpt lat="45.4906938" lon="11.5749347"><ele>150.75</ele><time>2026-05-03T11:17:55.077Z</time></trkpt><trkpt lat="45.4908059" lon="11.5748683"><ele>150.0</ele><time>2026-05-03T11:17:56.077Z</time></trkpt><trkpt lat="45.4909167" lon="11.5748007"><ele>150.0</ele><time>2026-05-03T11:17:57.077Z</time></trkpt><trkpt lat="45.4910222" lon="11.5747338"><ele>150.0</ele><time>2026-05-03T11:17:58.077Z</time></trkpt><trkpt lat="45.4911168" lon="11.5746731"><ele>150.0</ele><time>2026-05-03T11:17:59.077Z</time></trkpt><trkpt lat="45.4912051" lon="11.5746306"><ele>150.0</ele><time>2026-05-03T11:18:00.077Z</time></trkpt><trkpt lat="45.4912943" lon="11.5746334"><ele>150.0</ele><time>2026-05-03T11:18:01.077Z</time></trkpt><trkpt lat="45.4913766" lon="11.5746772"><ele>149.6</ele><time>2026-05-03T11:18:02.077Z</time></trkpt><trkpt lat="45.4914388" lon="11.57476"><ele>149.2</ele><time>2026-05-03T11:18:03.077Z</time></trkpt><trkpt lat="45.491478" lon="11.574876"><ele>148.8</ele><time>2026-05-03T11:18:04.077Z</time></trkpt><trkpt lat="45.4914979" lon="11.5750147"><ele>148.4</ele><time>2026-05-03T11:18:05.077Z</time></trkpt><trkpt lat="45.4914941" lon="11.5751636"><ele>148.0</ele><time>2026-05-03T11:18:06.077Z</time></trkpt><trkpt lat="45.491476" lon="11.5753094"><ele>146.20000000000002</ele><time>2026-05-03T11:18:07.077Z</time></trkpt><trkpt lat="45.49146" lon="11.5754463"><ele>144.4</ele><time>2026-05-03T11:18:08.077Z</time></trkpt><trkpt lat="45.4914581" lon="11.5755815"><ele>142.60000000000002</ele><time>2026-05-03T11:18:09.077Z</time></trkpt><trkpt lat="45.4914776" lon="11.5757082"><ele>140.8</ele><time>2026-05-03T11:18:10.076Z</time></trkpt><trkpt lat="45.4915341" lon="11.5758048"><ele>139.0</ele><time>2026-05-03T11:18:11.077Z</time></trkpt><trkpt lat="45.4916204" lon="11.575851"><ele>139.0</ele><time>2026-05-03T11:18:12.077Z</time></trkpt><trkpt lat="45.4917256" lon="11.5758365"><ele>139.0</ele><time>2026-05-03T11:18:13.077Z</time></trkpt><trkpt lat="45.4918352" lon="11.5757853"><ele>139.0</ele><time>2026-05-03T11:18:14.077Z</time></trkpt><trkpt lat="45.4919464" lon="11.5757309"><ele>139.0</ele><time>2026-05-03T11:18:15.077Z</time></trkpt><trkpt lat="45.492056" lon="11.5756827"><ele>136.25</ele><time>2026-05-03T11:18:16.077Z</time></trkpt><trkpt lat="45.4921649" lon="11.5756414"><ele>133.5</ele><time>2026-05-03T11:18:17.077Z</time></trkpt><trkpt lat="45.492279" lon="11.5756069"><ele>130.75</ele><time>2026-05-03T11:18:18.077Z</time></trkpt><trkpt lat="45.4924024" lon="11.5755818"><ele>128.0</ele><time>2026-05-03T11:18:19.077Z</time></trkpt><trkpt lat="45.4925334" lon="11.575558"><ele>128.0</ele><time>2026-05-03T11:18:20.077Z</time></trkpt><trkpt lat="45.4926667" lon="11.5755456"><ele>128.0</ele><time>2026-05-03T11:18:21.077Z</time></trkpt><trkpt lat="45.4928012" lon="11.5755439"><ele>128.0</ele><time>2026-05-03T11:18:22.077Z</time></trkpt><trkpt lat="45.4929365" lon="11.5755456"><ele>128.0</ele><time>2026-05-03T11:18:23.077Z</time></trkpt><trkpt lat="45.4930682" lon="11.5755503"><ele>124.75</ele><time>2026-05-03T11:18:24.077Z</time></trkpt><trkpt lat="45.493198" lon="11.5755479"><ele>121.5</ele><time>2026-05-03T11:18:25.077Z</time></trkpt><trkpt lat="45.4933255" lon="11.5755312"><ele>118.25</ele><time>2026-05-03T11:18:26.077Z</time></trkpt><trkpt lat="45.4934509" lon="11.5755003"><ele>115.0</ele><time>2026-05-03T11:18:27.076Z</time></trkpt><trkpt lat="45.4935747" lon="11.5754645"><ele>115.0</ele><time>2026-05-03T11:18:28.077Z</time></trkpt><trkpt lat="45.4936963" lon="11.5754241"><ele>115.0</ele><time>2026-05-03T11:18:29.077Z</time></trkpt><trkpt lat="45.4938187" lon="11.5753836"><ele>115.0</ele><time>2026-05-03T11:18:30.076Z</time></trkpt><trkpt lat="45.4939477" lon="11.5753417"><ele>115.0</ele><time>2026-05-03T11:18:31.077Z</time></trkpt><trkpt lat="45.4940787" lon="11.5752922"><ele>115.25</ele><time>2026-05-03T11:18:32.077Z</time></trkpt><trkpt lat="45.4942151" lon="11.5752391"><ele>115.5</ele><time>2026-05-03T11:18:33.077Z</time></trkpt><trkpt lat="45.4943508" lon="11.5751741"><ele>115.75</ele><time>2026-05-03T11:18:34.076Z</time></trkpt><trkpt lat="45.4944874" lon="11.5750948"><ele>116.0</ele><time>2026-05-03T11:18:35.077Z</time></trkpt><trkpt lat="45.4946215" lon="11.5750083"><ele>111.0</ele><time>2026-05-03T11:18:36.077Z</time></trkpt><trkpt lat="45.4947556" lon="11.5749095"><ele>106.0</ele><time>2026-05-03T11:18:37.077Z</time></trkpt><trkpt lat="45.4948906" lon="11.5748039"><ele>101.0</ele><time>2026-05-03T11:18:38.077Z</time></trkpt><trkpt lat="45.4950232" lon="11.5746982"><ele>101.0</ele><time>2026-05-03T11:18:39.077Z</time></trkpt><trkpt lat="45.4951591" lon="11.5745899"><ele>101.0</ele><time>2026-05-03T11:18:40.077Z</time></trkpt><trkpt lat="45.4952918" lon="11.5744753"><ele>101.0</ele><time>2026-05-03T11:18:41.077Z</time></trkpt><trkpt lat="45.4954211" lon="11.5743558"><ele>102.0</ele><time>2026-05-03T11:18:42.077Z</time></trkpt><trkpt lat="45.4955445" lon="11.5742447"><ele>103.0</ele><time>2026-05-03T11:18:43.077Z</time></trkpt><trkpt lat="45.4956713" lon="11.5741666"><ele>104.0</ele><time>2026-05-03T11:18:44.077Z</time></trkpt><trkpt lat="45.4958016" lon="11.5741133"><ele>105.0</ele><time>2026-05-03T11:18:45.077Z</time></trkpt><trkpt lat="45.4959248" lon="11.5740772"><ele>105.0</ele><time>2026-05-03T11:18:46.077Z</time></trkpt><trkpt lat="45.4960369" lon="11.5740169"><ele>105.0</ele><time>2026-05-03T11:18:47.077Z</time></trkpt><trkpt lat="45.4961392" lon="11.5739239"><ele>105.0</ele><time>2026-05-03T11:18:48.077Z</time></trkpt><trkpt lat="45.4962282" lon="11.5738061"><ele>105.0</ele><time>2026-05-03T11:18:49.077Z</time></trkpt><trkpt lat="45.4963083" lon="11.5736705"><ele>103.0</ele><time>2026-05-03T11:18:50.077Z</time></trkpt><trkpt lat="45.4963914" lon="11.57353"><ele>101.0</ele><time>2026-05-03T11:18:51.077Z</time></trkpt><trkpt lat="45.4964843" lon="11.5733996"><ele>99.0</ele><time>2026-05-03T11:18:52.077Z</time></trkpt><trkpt lat="45.4965919" lon="11.5732831"><ele>97.0</ele><time>2026-05-03T11:18:53.077Z</time></trkpt><trkpt lat="45.4967013" lon="11.5731838"><ele>97.0</ele><time>2026-05-03T11:18:54.077Z</time></trkpt><trkpt lat="45.4968129" lon="11.5730947"><ele>97.0</ele><time>2026-05-03T11:18:55.076Z</time></trkpt><trkpt lat="45.4969259" lon="11.5730168"><ele>97.0</ele><time>2026-05-03T11:18:56.077Z</time></trkpt><trkpt lat="45.49704" lon="11.5729509"><ele>97.0</ele><time>2026-05-03T11:18:57.077Z</time></trkpt><trkpt lat="45.4971515" lon="11.5728962"><ele>97.0</ele><time>2026-05-03T11:18:58.077Z</time></trkpt><trkpt lat="45.4972652" lon="11.5728515"><ele>97.0</ele><time>2026-05-03T11:18:59.077Z</time></trkpt><trkpt lat="45.4973827" lon="11.5728211"><ele>97.0</ele><time>2026-05-03T11:19:00.077Z</time></trkpt><trkpt lat="45.4975054" lon="11.5728217"><ele>97.0</ele><time>2026-05-03T11:19:01.077Z</time></trkpt><trkpt lat="45.4976372" lon="11.5728438"><ele>95.0</ele><time>2026-05-03T11:19:02.077Z</time></trkpt><trkpt lat="45.4977725" lon="11.5728683"><ele>93.0</ele><time>2026-05-03T11:19:03.077Z</time></trkpt><trkpt lat="45.497908" lon="11.5728884"><ele>91.0</ele><time>2026-05-03T11:19:04.077Z</time></trkpt><trkpt lat="45.4980408" lon="11.5729042"><ele>89.0</ele><time>2026-05-03T11:19:05.077Z</time></trkpt><trkpt lat="45.4981653" lon="11.5729235"><ele>82.0</ele><time>2026-05-03T11:19:06.077Z</time></trkpt><trkpt lat="45.4982781" lon="11.5729456"><ele>82.0</ele><time>2026-05-03T11:19:07.076Z</time></trkpt><trkpt lat="45.4983793" lon="11.5729674"><ele>82.0</ele><time>2026-05-03T11:19:08.077Z</time></trkpt><trkpt lat="45.4984677" lon="11.5729842"><ele>82.0</ele><time>2026-05-03T11:19:09.077Z</time></trkpt><trkpt lat="45.4985646" lon="11.5730041"><ele>82.0</ele><time>2026-05-03T11:19:11.077Z</time></trkpt></trkseg></trk></gpx>